<?xml version='1.0' encoding='UTF-8'?><gpx version="1.1" creator="JPX - https://github.com/jenetics/jpx" xmlns="http://www.topografix.com/GPX/1/1"><trk><trkseg><trkpt lat="43.24647460578456" lon="13.000860275521482"><ele>372.0</ele><time>2026-04-18T07:07:36.699Z</time></trkpt><trkpt lat="43.24571238977568" lon="12.999567532929904"><ele>372.0</ele><time>2026-04-18T07:07:51.535Z</time></trkpt><trkpt lat="43.24608602659468" lon="12.999965103337546"><ele>372.0</ele><time>2026-04-18T07:08:16.298Z</time></trkpt><trkpt lat="43.246276867605914" lon="12.999951192302973"><ele>372.0</ele><time>2026-04-18T07:08:55.939Z</time></trkpt><trkpt lat="43.246314672937295" lon="12.999860290779033"><ele>372.0</ele><time>2026-04-18T07:08:58.939Z</time></trkpt><trkpt lat="43.246379072011635" lon="12.999771818356441"><ele>372.0</ele><time>2026-04-18T07:09:01.939Z</time></trkpt><trkpt lat="43.24643828510925" lon="12.999722110469834"><ele>372.0</ele><time>2026-04-18T07:09:16.939Z</time></trkpt><trkpt lat="43.24648482015336" lon="12.999658223927606"><ele>372.0</ele><time>2026-04-18T07:09:18.939Z</time></trkpt><trkpt lat="43.24657823088529" lon="12.999526262686187"><ele>372.0</ele><time>2026-04-18T07:09:26.939Z</time></trkpt><trkpt lat="43.24651620595427" lon="12.999572864584986"><ele>372.0</ele><time>2026-04-18T07:09:54.939Z</time></trkpt><trkpt lat="43.24645765921612" lon="12.999619816933105"><ele>372.0</ele><time>2026-04-18T07:09:58.939Z</time></trkpt><trkpt lat="43.246421729573136" lon="12.999511278104764"><ele>372.0</ele><time>2026-04-18T07:10:12.939Z</time></trkpt><trkpt lat="43.24636719218573" lon="12.99946072970748"><ele>372.0</ele><time>2026-04-18T07:10:14.939Z</time></trkpt><trkpt lat="43.246287008174654" lon="12.999455761259604"><ele>372.0</ele><time>2026-04-18T07:10:16.939Z</time></trkpt><trkpt lat="43.24620462213584" lon="12.999464336050355"><ele>372.0</ele><time>2026-04-18T07:10:18.939Z</time></trkpt><trkpt lat="43.24612223609703" lon="12.99947291082951"><ele>372.0</ele><time>2026-04-18T07:10:20.939Z</time></trkpt><trkpt lat="43.24588895699384" lon="12.999042568751038"><ele>373.0</ele><time>2026-04-18T07:10:51.098Z</time></trkpt><trkpt lat="43.24529968198182" lon="12.99931286199665"><ele>373.0</ele><time>2026-04-18T07:11:00.939Z</time></trkpt><trkpt lat="43.245462576151795" lon="12.999318587082625"><ele>373.0</ele><time>2026-04-18T07:11:20.939Z</time></trkpt><trkpt lat="43.24550846001183" lon="12.999378428510319"><ele>373.0</ele><time>2026-04-18T07:11:27.94Z</time></trkpt><trkpt lat="43.245559499569076" lon="12.999432163466425"><ele>373.0</ele><time>2026-04-18T07:11:41.94Z</time></trkpt><trkpt lat="43.24555587850836" lon="12.99956318669686"><ele>373.0</ele><time>2026-04-18T07:13:48.94Z</time></trkpt><trkpt lat="43.2454633629578" lon="12.999672741123874"><ele>373.0</ele><time>2026-04-18T07:13:50.94Z</time></trkpt><trkpt lat="43.24554279446072" lon="12.999935428204774"><ele>373.0</ele><time>2026-04-18T07:13:51.94Z</time></trkpt><trkpt lat="43.245493092094854" lon="12.99999466224818"><ele>373.0</ele><time>2026-04-18T07:13:52.94Z</time></trkpt><trkpt lat="43.24543240595948" lon="13.000066986474714"><ele>373.0</ele><time>2026-04-18T07:13:54.94Z</time></trkpt><trkpt lat="43.245384522275366" lon="13.000124053058794"><ele>373.0</ele><time>2026-04-18T07:13:55.94Z</time></trkpt><trkpt lat="43.24529844680795" lon="13.000226635660217"><ele>373.0</ele><time>2026-04-18T07:13:57.94Z</time></trkpt><trkpt lat="43.24524724408972" lon="13.000287657791029"><ele>373.0</ele><time>2026-04-18T07:13:59.94Z</time></trkpt><trkpt lat="43.24524262258476" lon="13.000068611599342"><ele>373.0</ele><time>2026-04-18T07:14:01.94Z</time></trkpt><trkpt lat="43.24520595839274" lon="12.999984750340829"><ele>373.0</ele><time>2026-04-18T07:14:02.94Z</time></trkpt><trkpt lat="43.24516697052028" lon="12.99989788494738"><ele>373.0</ele><time>2026-04-18T07:14:03.94Z</time></trkpt><trkpt lat="43.245096362450866" lon="12.999740592491985"><ele>373.0</ele><time>2026-04-18T07:14:05.94Z</time></trkpt><trkpt lat="43.24506022662687" lon="12.999660704471342"><ele>373.0</ele><time>2026-04-18T07:14:06.94Z</time></trkpt><trkpt lat="43.245024018264175" lon="12.999580656084282"><ele>373.0</ele><time>2026-04-18T07:14:07.94Z</time></trkpt><trkpt lat="43.245034900258304" lon="12.99939281151567"><ele>373.0</ele><time>2026-04-18T07:14:09.94Z</time></trkpt><trkpt lat="43.24498041873761" lon="12.999297493839306"><ele>373.0</ele><time>2026-04-18T07:14:10.94Z</time></trkpt><trkpt lat="43.244897209112125" lon="12.999278561781782"><ele>373.0</ele><time>2026-04-18T07:14:11.94Z</time></trkpt><trkpt lat="43.24484707197534" lon="12.999213137643197"><ele>373.0</ele><time>2026-04-18T07:14:12.94Z</time></trkpt><trkpt lat="43.24479939323539" lon="12.999153156283993"><ele>373.0</ele><time>2026-04-18T07:14:13.94Z</time></trkpt><trkpt lat="43.24474966825726" lon="12.99907391337771"><ele>373.0</ele><time>2026-04-18T07:14:14.94Z</time></trkpt><trkpt lat="43.24470304691539" lon="12.998984046552845"><ele>373.0</ele><time>2026-04-18T07:14:15.94Z</time></trkpt><trkpt lat="43.24469694594996" lon="12.998852627455829"><ele>373.0</ele><time>2026-04-18T07:14:16.94Z</time></trkpt><trkpt lat="43.244654202319474" lon="12.998755923290455"><ele>373.0</ele><time>2026-04-18T07:14:17.94Z</time></trkpt><trkpt lat="43.244608949920384" lon="12.998651702482533"><ele>373.0</ele><time>2026-04-18T07:14:18.94Z</time></trkpt><trkpt lat="43.24456426487095" lon="12.99854878833756"><ele>373.0</ele><time>2026-04-18T07:14:19.94Z</time></trkpt><trkpt lat="43.244519815896425" lon="12.99844641789588"><ele>373.0</ele><time>2026-04-18T07:14:20.941Z</time></trkpt><trkpt lat="43.24447481564239" lon="12.998342777803098"><ele>373.0</ele><time>2026-04-18T07:14:21.941Z</time></trkpt><trkpt lat="43.24442955437897" lon="12.998238536579395"><ele>373.0</ele><time>2026-04-18T07:14:22.941Z</time></trkpt><trkpt lat="43.244383527244814" lon="12.99813253146665"><ele>373.0</ele><time>2026-04-18T07:14:23.941Z</time></trkpt><trkpt lat="43.24433557428111" lon="12.998022090990709"><ele>373.0</ele><time>2026-04-18T07:14:24.941Z</time></trkpt><trkpt lat="43.244284301130286" lon="12.997904003795737"><ele>373.0</ele><time>2026-04-18T07:14:25.941Z</time></trkpt><trkpt lat="43.244228710263165" lon="12.997778063402752"><ele>373.0</ele><time>2026-04-18T07:14:26.941Z</time></trkpt><trkpt lat="43.24416652314476" lon="12.997637373585558"><ele>373.0</ele><time>2026-04-18T07:14:27.941Z</time></trkpt><trkpt lat="43.244104230083316" lon="12.99749644408177"><ele>373.0</ele><time>2026-04-18T07:14:28.941Z</time></trkpt><trkpt lat="43.24403966953298" lon="12.997350384695032"><ele>373.0</ele><time>2026-04-18T07:14:29.941Z</time></trkpt><trkpt lat="43.24397302395525" lon="12.997199608219978"><ele>373.0</ele><time>2026-04-18T07:14:30.941Z</time></trkpt><trkpt lat="43.243906747043155" lon="12.997049665798471"><ele>373.0</ele><time>2026-04-18T07:14:31.941Z</time></trkpt><trkpt lat="43.243840428329406" lon="12.996898939198996"><ele>373.0</ele><time>2026-04-18T07:14:32.941Z</time></trkpt><trkpt lat="43.243773995256454" lon="12.996748152067408"><ele>374.0</ele><time>2026-04-18T07:14:33.941Z</time></trkpt><trkpt lat="43.243707928989146" lon="12.996598947998011"><ele>375.0</ele><time>2026-04-18T07:14:34.941Z</time></trkpt><trkpt lat="43.24364289445814" lon="12.99645272846339"><ele>376.0</ele><time>2026-04-18T07:14:35.941Z</time></trkpt><trkpt lat="43.24357895179904" lon="12.996308846925867"><ele>377.0</ele><time>2026-04-18T07:14:36.941Z</time></trkpt><trkpt lat="43.24351457297438" lon="12.99616389064376"><ele>377.0</ele><time>2026-04-18T07:14:37.941Z</time></trkpt><trkpt lat="43.24345073594164" lon="12.996020154267402"><ele>377.0</ele><time>2026-04-18T07:14:38.941Z</time></trkpt><trkpt lat="43.24338671796949" lon="12.995875064721986"><ele>377.0</ele><time>2026-04-18T07:14:39.941Z</time></trkpt><trkpt lat="43.2433227802078" lon="12.99572789505199"><ele>377.0</ele><time>2026-04-18T07:14:40.941Z</time></trkpt><trkpt lat="43.24325822506677" lon="12.995579304315145"><ele>377.25</ele><time>2026-04-18T07:14:41.941Z</time></trkpt><trkpt lat="43.24319310130691" lon="12.995429404743888"><ele>377.5</ele><time>2026-04-18T07:14:42.941Z</time></trkpt><trkpt lat="43.243127374299114" lon="12.995278943159189"><ele>377.75</ele><time>2026-04-18T07:14:43.941Z</time></trkpt><trkpt lat="43.24306243914448" lon="12.995130518736223"><ele>378.0</ele><time>2026-04-18T07:14:44.941Z</time></trkpt><trkpt lat="43.24299827412751" lon="12.994983854642149"><ele>379.5</ele><time>2026-04-18T07:14:45.941Z</time></trkpt><trkpt lat="43.2429332456352" lon="12.994841250856512"><ele>381.0</ele><time>2026-04-18T07:14:46.941Z</time></trkpt><trkpt lat="43.24286738740444" lon="12.994703221992863"><ele>382.5</ele><time>2026-04-18T07:14:47.941Z</time></trkpt><trkpt lat="43.24279952839095" lon="12.994566797071931"><ele>384.0</ele><time>2026-04-18T07:14:48.941Z</time></trkpt><trkpt lat="43.24272838558422" lon="12.994432425183465"><ele>384.0</ele><time>2026-04-18T07:14:49.941Z</time></trkpt><trkpt lat="43.242652288050515" lon="12.994301982044474"><ele>384.0</ele><time>2026-04-18T07:14:50.941Z</time></trkpt><trkpt lat="43.24257193210199" lon="12.994177140967096"><ele>384.0</ele><time>2026-04-18T07:14:51.941Z</time></trkpt><trkpt lat="43.24247655084081" lon="12.994068716325602"><ele>384.0</ele><time>2026-04-18T07:14:52.941Z</time></trkpt><trkpt lat="43.242382700310166" lon="12.993950214649441"><ele>387.5</ele><time>2026-04-18T07:14:53.941Z</time></trkpt><trkpt lat="43.242285919047525" lon="12.99384027590871"><ele>391.0</ele><time>2026-04-18T07:14:54.941Z</time></trkpt><trkpt lat="43.24219674080682" lon="12.993737509586431"><ele>394.5</ele><time>2026-04-18T07:14:55.941Z</time></trkpt><trkpt lat="43.24211333642461" lon="12.993638703417552"><ele>398.0</ele><time>2026-04-18T07:14:56.941Z</time></trkpt><trkpt lat="43.24202562335112" lon="12.993552755694171"><ele>397.99999999999994</ele><time>2026-04-18T07:14:57.941Z</time></trkpt><trkpt lat="43.24194059197816" lon="12.993486602298203"><ele>398.0</ele><time>2026-04-18T07:14:58.941Z</time></trkpt><trkpt lat="43.241864193671304" lon="12.993429714661625"><ele>398.0</ele><time>2026-04-18T07:14:59.941Z</time></trkpt><trkpt lat="43.24179106993596" lon="12.993380984471278"><ele>398.0</ele><time>2026-04-18T07:15:00.941Z</time></trkpt><trkpt lat="43.241721022705406" lon="12.993326191423458"><ele>397.99999999999994</ele><time>2026-04-18T07:15:01.941Z</time></trkpt><trkpt lat="43.24165200882506" lon="12.993268603559882"><ele>398.0</ele><time>2026-04-18T07:15:02.941Z</time></trkpt><trkpt lat="43.24159315192587" lon="12.993193372080222"><ele>396.66666666666663</ele><time>2026-04-18T07:15:03.941Z</time></trkpt><trkpt lat="43.24155522034756" lon="12.99309151230044"><ele>395.3333333333333</ele><time>2026-04-18T07:15:04.941Z</time></trkpt><trkpt lat="43.24156290560131" lon="12.992982979445616"><ele>394.0</ele><time>2026-04-18T07:15:05.941Z</time></trkpt><trkpt lat="43.24159093237898" lon="12.992871253391295"><ele>392.66666666666663</ele><time>2026-04-18T07:15:06.941Z</time></trkpt><trkpt lat="43.24163407170065" lon="12.99276154135102"><ele>391.3333333333333</ele><time>2026-04-18T07:15:07.941Z</time></trkpt><trkpt lat="43.24168178422508" lon="12.992640246492739"><ele>390.0</ele><time>2026-04-18T07:15:08.941Z</time></trkpt><trkpt lat="43.24176291471842" lon="12.992550203071115"><ele>389.2</ele><time>2026-04-18T07:15:09.941Z</time></trkpt><trkpt lat="43.24185166310018" lon="12.992470946334095"><ele>388.4</ele><time>2026-04-18T07:15:10.941Z</time></trkpt><trkpt lat="43.241936709813935" lon="12.99237825226476"><ele>387.6</ele><time>2026-04-18T07:15:11.941Z</time></trkpt><trkpt lat="43.242026544653626" lon="12.992296608291612"><ele>386.8</ele><time>2026-04-18T07:15:12.941Z</time></trkpt><trkpt lat="43.242116948065494" lon="12.992220833050455"><ele>386.0</ele><time>2026-04-18T07:15:13.941Z</time></trkpt><trkpt lat="43.242207035036834" lon="12.992147083441619"><ele>384.8</ele><time>2026-04-18T07:15:14.941Z</time></trkpt><trkpt lat="43.24230121937737" lon="12.992072861005772"><ele>383.6</ele><time>2026-04-18T07:15:15.941Z</time></trkpt><trkpt lat="43.2423945430418" lon="12.991997550389096"><ele>382.4</ele><time>2026-04-18T07:15:16.941Z</time></trkpt><trkpt lat="43.24248937394176" lon="12.991920615429509"><ele>381.2</ele><time>2026-04-18T07:15:17.941Z</time></trkpt><trkpt lat="43.242583740703495" lon="12.991844615880582"><ele>380.0</ele><time>2026-04-18T07:15:18.941Z</time></trkpt><trkpt lat="43.242677953796424" lon="12.991770136197292"><ele>380.0</ele><time>2026-04-18T07:15:19.941Z</time></trkpt><trkpt lat="43.242774071006984" lon="12.991693477391884"><ele>380.0</ele><time>2026-04-18T07:15:20.941Z</time></trkpt><trkpt lat="43.24286781307063" lon="12.991622716752564"><ele>380.0</ele><time>2026-04-18T07:15:21.941Z</time></trkpt><trkpt lat="43.24296242030279" lon="12.9915504212347"><ele>380.0</ele><time>2026-04-18T07:15:22.941Z</time></trkpt><trkpt lat="43.24305719864185" lon="12.991480858490338"><ele>380.0</ele><time>2026-04-18T07:15:23.941Z</time></trkpt><trkpt lat="43.243150164929204" lon="12.991414858735206"><ele>380.6</ele><time>2026-04-18T07:15:24.941Z</time></trkpt><trkpt lat="43.243238164396615" lon="12.991339881389287"><ele>381.2</ele><time>2026-04-18T07:15:26Z</time></trkpt><trkpt lat="43.24332113520712" lon="12.991272477594332"><ele>381.79999999999995</ele><time>2026-04-18T07:15:27Z</time></trkpt><trkpt lat="43.243412710892095" lon="12.99121668341976"><ele>382.4</ele><time>2026-04-18T07:15:28Z</time></trkpt><trkpt lat="43.243502646710944" lon="12.991150033925894"><ele>383.0</ele><time>2026-04-18T07:15:29Z</time></trkpt><trkpt lat="43.24359171950816" lon="12.991080075847478"><ele>383.0</ele><time>2026-04-18T07:15:30Z</time></trkpt><trkpt lat="43.24368022911982" lon="12.991008330272486"><ele>383.0</ele><time>2026-04-18T07:15:31Z</time></trkpt><trkpt lat="43.243769760617575" lon="12.990936021598545"><ele>383.0</ele><time>2026-04-18T07:15:32Z</time></trkpt><trkpt lat="43.243860712101316" lon="12.990862578569578"><ele>383.0</ele><time>2026-04-18T07:15:33.001Z</time></trkpt><trkpt lat="43.243956544195086" lon="12.990788908467474"><ele>383.0</ele><time>2026-04-18T07:15:34.001Z</time></trkpt><trkpt lat="43.24404938476816" lon="12.990708958485369"><ele>382.59999999999997</ele><time>2026-04-18T07:15:35.001Z</time></trkpt><trkpt lat="43.24413959443025" lon="12.990636908098628"><ele>382.2</ele><time>2026-04-18T07:15:36.001Z</time></trkpt><trkpt lat="43.244223124578426" lon="12.990557253670117"><ele>381.8</ele><time>2026-04-18T07:15:37.001Z</time></trkpt><trkpt lat="43.2443090895651" lon="12.990507064159594"><ele>381.4</ele><time>2026-04-18T07:15:38Z</time></trkpt><trkpt lat="43.24439198111895" lon="12.990441718123718"><ele>381.0</ele><time>2026-04-18T07:15:39Z</time></trkpt><trkpt lat="43.24447168725593" lon="12.990378962763543"><ele>381.0</ele><time>2026-04-18T07:15:40Z</time></trkpt><trkpt lat="43.244547160472585" lon="12.990306963828312"><ele>381.0</ele><time>2026-04-18T07:15:41Z</time></trkpt><trkpt lat="43.24462154683609" lon="12.990273533898595"><ele>381.0</ele><time>2026-04-18T07:15:42Z</time></trkpt><trkpt lat="43.24473142178943" lon="12.990187586207961"><ele>381.0</ele><time>2026-04-18T07:15:43Z</time></trkpt><trkpt lat="43.24478650492739" lon="12.99026404865524"><ele>381.0</ele><time>2026-04-18T07:15:44Z</time></trkpt><trkpt lat="43.244872683251685" lon="12.990287151106722"><ele>381.0</ele><time>2026-04-18T07:15:45Z</time></trkpt><trkpt lat="43.24495782308633" lon="12.99029641165638"><ele>381.0</ele><time>2026-04-18T07:15:46Z</time></trkpt><trkpt lat="43.24503992141882" lon="12.990271390159476"><ele>381.0</ele><time>2026-04-18T07:15:47Z</time></trkpt><trkpt lat="43.24511634286785" lon="12.99021363742308"><ele>381.0</ele><time>2026-04-18T07:15:48Z</time></trkpt><trkpt lat="43.24518144805753" lon="12.990132200320962"><ele>381.0</ele><time>2026-04-18T07:15:49Z</time></trkpt><trkpt lat="43.2452480337975" lon="12.990049002315216"><ele>381.0</ele><time>2026-04-18T07:15:50Z</time></trkpt><trkpt lat="43.24528357026826" lon="12.98994556597635"><ele>381.6</ele><time>2026-04-18T07:15:51Z</time></trkpt><trkpt lat="43.24530809540466" lon="12.989837256304304"><ele>382.20000000000005</ele><time>2026-04-18T07:15:52Z</time></trkpt><trkpt lat="43.24532647764778" lon="12.989741825939474"><ele>382.79999999999995</ele><time>2026-04-18T07:15:53Z</time></trkpt><trkpt lat="43.24541273315894" lon="12.989671168492102"><ele>383.4</ele><time>2026-04-18T07:15:54Z</time></trkpt><trkpt lat="43.24552066966135" lon="12.989582751109022"><ele>384.0</ele><time>2026-04-18T07:15:55Z</time></trkpt><trkpt lat="43.24565590493812" lon="12.989471971487273"><ele>384.0</ele><time>2026-04-18T07:15:56Z</time></trkpt><trkpt lat="43.24581333695239" lon="12.989343267756851"><ele>384.0</ele><time>2026-04-18T07:15:57Z</time></trkpt><trkpt lat="43.24598104098705" lon="12.989212935693946"><ele>384.0</ele><time>2026-04-18T07:15:58Z</time></trkpt><trkpt lat="43.246135752949414" lon="12.989094728285036"><ele>383.3333333333333</ele><time>2026-04-18T07:15:59Z</time></trkpt><trkpt lat="43.24627682969321" lon="12.988988285529192"><ele>382.66666666666663</ele><time>2026-04-18T07:16:00Z</time></trkpt><trkpt lat="43.246406572894" lon="12.988884991563733"><ele>382.0</ele><time>2026-04-18T07:16:01Z</time></trkpt><trkpt lat="43.24654432310581" lon="12.98873713715657"><ele>381.25</ele><time>2026-04-18T07:16:02Z</time></trkpt><trkpt lat="43.24665924173625" lon="12.988607722340353"><ele>380.5</ele><time>2026-04-18T07:16:03Z</time></trkpt><trkpt lat="43.24671741365724" lon="12.98843251702629"><ele>379.75</ele><time>2026-04-18T07:16:04Z</time></trkpt><trkpt lat="43.24676864725993" lon="12.98825660022004"><ele>379.0</ele><time>2026-04-18T07:16:05Z</time></trkpt><trkpt lat="43.24679367004403" lon="12.988094018980815"><ele>379.0</ele><time>2026-04-18T07:16:06Z</time></trkpt><trkpt lat="43.246777151964906" lon="12.987902633388797"><ele>379.0</ele><time>2026-04-18T07:16:07Z</time></trkpt><trkpt lat="43.24677913709233" lon="12.987688100851077"><ele>379.0</ele><time>2026-04-18T07:16:08Z</time></trkpt><trkpt lat="43.24671818935606" lon="12.987456023813518"><ele>377.66666666666663</ele><time>2026-04-18T07:16:09Z</time></trkpt><trkpt lat="43.24671067722329" lon="12.98721689734218"><ele>376.3333333333333</ele><time>2026-04-18T07:16:10Z</time></trkpt><trkpt lat="43.24672342757249" lon="12.98698520280468"><ele>375.0</ele><time>2026-04-18T07:16:11Z</time></trkpt><trkpt lat="43.24670976566" lon="12.986731359224375"><ele>374.3333333333333</ele><time>2026-04-18T07:16:12Z</time></trkpt><trkpt lat="43.24669040159702" lon="12.986489503133422"><ele>373.66666666666663</ele><time>2026-04-18T07:16:13Z</time></trkpt><trkpt lat="43.246690640431225" lon="12.986288676473695"><ele>373.0</ele><time>2026-04-18T07:16:14Z</time></trkpt><trkpt lat="43.24667832094496" lon="12.986061103128653"><ele>373.0</ele><time>2026-04-18T07:16:15Z</time></trkpt><trkpt lat="43.24666431054575" lon="12.985847287141034"><ele>373.0</ele><time>2026-04-18T07:16:16Z</time></trkpt><trkpt lat="43.24666338848357" lon="12.985622824464995"><ele>373.0</ele><time>2026-04-18T07:16:17Z</time></trkpt><trkpt lat="43.246669082515616" lon="12.985425076236947"><ele>373.75</ele><time>2026-04-18T07:16:18Z</time></trkpt><trkpt lat="43.246688879629815" lon="12.98525021781045"><ele>374.5</ele><time>2026-04-18T07:16:19Z</time></trkpt><trkpt lat="43.24673236869922" lon="12.985077329554459"><ele>375.25</ele><time>2026-04-18T07:16:20Z</time></trkpt><trkpt lat="43.24680164071295" lon="12.984905267853103"><ele>376.0</ele><time>2026-04-18T07:16:21.001Z</time></trkpt><trkpt lat="43.24688943986122" lon="12.984725262652235"><ele>376.0</ele><time>2026-04-18T07:16:22.001Z</time></trkpt><trkpt lat="43.24698428580148" lon="12.984526554117492"><ele>376.0</ele><time>2026-04-18T07:16:23.001Z</time></trkpt><trkpt lat="43.247068451387314" lon="12.984315046999342"><ele>376.0</ele><time>2026-04-18T07:16:24.001Z</time></trkpt><trkpt lat="43.247165547568656" lon="12.984115961681802"><ele>376.0</ele><time>2026-04-18T07:16:25.001Z</time></trkpt><trkpt lat="43.2472452449065" lon="12.983874314641362"><ele>376.0</ele><time>2026-04-18T07:16:26.001Z</time></trkpt><trkpt lat="43.24731652250255" lon="12.983579900825541"><ele>376.0</ele><time>2026-04-18T07:16:27.001Z</time></trkpt><trkpt lat="43.2473791695351" lon="12.98329834828918"><ele>377.66666666666663</ele><time>2026-04-18T07:16:28.001Z</time></trkpt><trkpt lat="43.247442277945275" lon="12.983055252449402"><ele>379.3333333333333</ele><time>2026-04-18T07:16:29.001Z</time></trkpt><trkpt lat="43.24746263562094" lon="12.982824399266558"><ele>381.0</ele><time>2026-04-18T07:16:30.001Z</time></trkpt><trkpt lat="43.24745247750051" lon="12.982609139316292"><ele>381.6666666666667</ele><time>2026-04-18T07:16:31.001Z</time></trkpt><trkpt lat="43.24745017141962" lon="12.982391811326515"><ele>382.33333333333337</ele><time>2026-04-18T07:16:32.001Z</time></trkpt><trkpt lat="43.24742568082155" lon="12.982159151412931"><ele>383.0</ele><time>2026-04-18T07:16:33.001Z</time></trkpt><trkpt lat="43.247403370711226" lon="12.981950323921767"><ele>383.0</ele><time>2026-04-18T07:16:34.001Z</time></trkpt><trkpt lat="43.24734940193669" lon="12.981748480584518"><ele>383.0</ele><time>2026-04-18T07:16:35.001Z</time></trkpt><trkpt lat="43.247357117141654" lon="12.981572979244122"><ele>383.0</ele><time>2026-04-18T07:16:36.001Z</time></trkpt><trkpt lat="43.24736301125501" lon="12.981376122467104"><ele>383.0</ele><time>2026-04-18T07:16:37.001Z</time></trkpt><trkpt lat="43.24739145638955" lon="12.981215121289699"><ele>383.5</ele><time>2026-04-18T07:16:38.001Z</time></trkpt><trkpt lat="43.2474855824487" lon="12.981075891238572"><ele>384.0</ele><time>2026-04-18T07:16:39.001Z</time></trkpt><trkpt lat="43.247553390852076" lon="12.980917521192294"><ele>384.5</ele><time>2026-04-18T07:16:40.001Z</time></trkpt><trkpt lat="43.24763189854112" lon="12.980731420890201"><ele>385.0</ele><time>2026-04-18T07:16:41.001Z</time></trkpt><trkpt lat="43.24768676757042" lon="12.980526220739451"><ele>385.0</ele><time>2026-04-18T07:16:42.001Z</time></trkpt><trkpt lat="43.24770455094747" lon="12.98030309842728"><ele>385.0</ele><time>2026-04-18T07:16:43.001Z</time></trkpt><trkpt lat="43.24769537701528" lon="12.980069848515523"><ele>385.0</ele><time>2026-04-18T07:16:44.001Z</time></trkpt><trkpt lat="43.24769340475955" lon="12.979863816728601"><ele>384.5</ele><time>2026-04-18T07:16:45.001Z</time></trkpt><trkpt lat="43.24769728058825" lon="12.979657771725016"><ele>384.0</ele><time>2026-04-18T07:16:46.001Z</time></trkpt><trkpt lat="43.24767977199749" lon="12.979468068820085"><ele>383.5</ele><time>2026-04-18T07:16:47.001Z</time></trkpt><trkpt lat="43.24767380489425" lon="12.979271208211758"><ele>383.0</ele><time>2026-04-18T07:16:48.001Z</time></trkpt><trkpt lat="43.24766714988849" lon="12.979075792683748"><ele>383.0</ele><time>2026-04-18T07:16:49.001Z</time></trkpt><trkpt lat="43.24766547715786" lon="12.978874198979753"><ele>383.0</ele><time>2026-04-18T07:16:50.001Z</time></trkpt><trkpt lat="43.247657881470126" lon="12.978661592870127"><ele>383.0</ele><time>2026-04-18T07:16:51.001Z</time></trkpt><trkpt lat="43.24766254040933" lon="12.978457111171426"><ele>385.33333333333337</ele><time>2026-04-18T07:16:52.001Z</time></trkpt><trkpt lat="43.24766090798163" lon="12.9782658410772"><ele>387.6666666666667</ele><time>2026-04-18T07:16:53.001Z</time></trkpt><trkpt lat="43.24765866294315" lon="12.978034735510333"><ele>390.0</ele><time>2026-04-18T07:16:54.001Z</time></trkpt><trkpt lat="43.247655546452755" lon="12.977814148984521"><ele>390.0</ele><time>2026-04-18T07:16:55.001Z</time></trkpt><trkpt lat="43.24765236648887" lon="12.977589071106381"><ele>390.0</ele><time>2026-04-18T07:16:56.001Z</time></trkpt><trkpt lat="43.24764757103393" lon="12.977381603734203"><ele>390.0</ele><time>2026-04-18T07:16:57.001Z</time></trkpt><trkpt lat="43.24763902725523" lon="12.977155810219035"><ele>391.25</ele><time>2026-04-18T07:16:58.001Z</time></trkpt><trkpt lat="43.24764335470027" lon="12.976951260286059"><ele>392.5</ele><time>2026-04-18T07:16:59.001Z</time></trkpt><trkpt lat="43.247662450657685" lon="12.976767841086216"><ele>393.75</ele><time>2026-04-18T07:17:00.001Z</time></trkpt><trkpt lat="43.24769418705442" lon="12.97661778107263"><ele>395.0</ele><time>2026-04-18T07:17:01.001Z</time></trkpt><trkpt lat="43.247738639853345" lon="12.976468642170909"><ele>395.5</ele><time>2026-04-18T07:17:02.001Z</time></trkpt><trkpt lat="43.2477938978061" lon="12.976312788913674"><ele>396.0</ele><time>2026-04-18T07:17:03.001Z</time></trkpt><trkpt lat="43.247856652204064" lon="12.97615088732481"><ele>396.5</ele><time>2026-04-18T07:17:04.001Z</time></trkpt><trkpt lat="43.24791703969254" lon="12.975974141075756"><ele>397.0</ele><time>2026-04-18T07:17:05.001Z</time></trkpt><trkpt lat="43.2479951670239" lon="12.975808458645867"><ele>397.33333333333337</ele><time>2026-04-18T07:17:06.001Z</time></trkpt><trkpt lat="43.24806392564575" lon="12.975625452738257"><ele>397.66666666666663</ele><time>2026-04-18T07:17:07.001Z</time></trkpt><trkpt lat="43.24813281636413" lon="12.975433010606832"><ele>398.0</ele><time>2026-04-18T07:17:08.001Z</time></trkpt><trkpt lat="43.24820248640297" lon="12.975249205530531"><ele>398.0</ele><time>2026-04-18T07:17:09.001Z</time></trkpt><trkpt lat="43.24827014181566" lon="12.975063352507917"><ele>398.0</ele><time>2026-04-18T07:17:10.001Z</time></trkpt><trkpt lat="43.248352797464946" lon="12.97488191167045"><ele>398.0</ele><time>2026-04-18T07:17:11.001Z</time></trkpt><trkpt lat="43.24841982050976" lon="12.974692330204974"><ele>398.0</ele><time>2026-04-18T07:17:12.002Z</time></trkpt><trkpt lat="43.2484906047472" lon="12.9745211671806"><ele>398.0</ele><time>2026-04-18T07:17:13.002Z</time></trkpt><trkpt lat="43.24856201691355" lon="12.974364233306732"><ele>398.0</ele><time>2026-04-18T07:17:14.002Z</time></trkpt><trkpt lat="43.24862979643554" lon="12.974189991714283"><ele>398.0</ele><time>2026-04-18T07:17:15.002Z</time></trkpt><trkpt lat="43.248694791897464" lon="12.974022907296645"><ele>398.0</ele><time>2026-04-18T07:17:16.002Z</time></trkpt><trkpt lat="43.24875842295857" lon="12.97385933018994"><ele>398.0</ele><time>2026-04-18T07:17:17.002Z</time></trkpt><trkpt lat="43.24882638284318" lon="12.973683656879329"><ele>398.0</ele><time>2026-04-18T07:17:18.002Z</time></trkpt><trkpt lat="43.24889798330454" lon="12.973517487864022"><ele>398.0</ele><time>2026-04-18T07:17:19.002Z</time></trkpt><trkpt lat="43.24895384274043" lon="12.97335696271584"><ele>400.5</ele><time>2026-04-18T07:17:20.002Z</time></trkpt><trkpt lat="43.24901939485206" lon="12.973188447049933"><ele>403.0</ele><time>2026-04-18T07:17:21.002Z</time></trkpt><trkpt lat="43.249087975169765" lon="12.973014815717352"><ele>405.5</ele><time>2026-04-18T07:17:22.002Z</time></trkpt><trkpt lat="43.24915399650024" lon="12.972848112186306"><ele>408.0</ele><time>2026-04-18T07:17:23.002Z</time></trkpt><trkpt lat="43.24921903026737" lon="12.97268335569851"><ele>408.0</ele><time>2026-04-18T07:17:24.002Z</time></trkpt><trkpt lat="43.249277707694326" lon="12.972534550156661"><ele>408.0</ele><time>2026-04-18T07:17:25.002Z</time></trkpt><trkpt lat="43.249321519759356" lon="12.97238443612723"><ele>408.0</ele><time>2026-04-18T07:17:26.002Z</time></trkpt><trkpt lat="43.24937508823845" lon="12.972240504961608"><ele>408.0</ele><time>2026-04-18T07:17:27.002Z</time></trkpt><trkpt lat="43.24944892168849" lon="12.972100354445647"><ele>408.0</ele><time>2026-04-18T07:17:28.002Z</time></trkpt><trkpt lat="43.2495107633476" lon="12.971943525078926"><ele>408.0</ele><time>2026-04-18T07:17:29.002Z</time></trkpt><trkpt lat="43.249576460525404" lon="12.97177691801528"><ele>408.0</ele><time>2026-04-18T07:17:30.002Z</time></trkpt><trkpt lat="43.249631656749465" lon="12.971589156037936"><ele>408.0</ele><time>2026-04-18T07:17:31.002Z</time></trkpt><trkpt lat="43.24971035737989" lon="12.97143735761186"><ele>408.0</ele><time>2026-04-18T07:17:32.002Z</time></trkpt><trkpt lat="43.249775822226404" lon="12.971271339924293"><ele>408.0</ele><time>2026-04-18T07:17:33.002Z</time></trkpt><trkpt lat="43.24983715044217" lon="12.971115812583491"><ele>408.0</ele><time>2026-04-18T07:17:34.002Z</time></trkpt><trkpt lat="43.249884574068886" lon="12.970953844167303"><ele>408.0</ele><time>2026-04-18T07:17:35.002Z</time></trkpt><trkpt lat="43.24994433424822" lon="12.970829367151286"><ele>408.0</ele><time>2026-04-18T07:17:36.002Z</time></trkpt><trkpt lat="43.24998595035739" lon="12.970706393076119"><ele>408.0</ele><time>2026-04-18T07:17:37.002Z</time></trkpt><trkpt lat="43.25004661806524" lon="12.970582882767772"><ele>408.0</ele><time>2026-04-18T07:17:38.002Z</time></trkpt><trkpt lat="43.25008461608089" lon="12.97048537725221"><ele>408.0</ele><time>2026-04-18T07:17:39.002Z</time></trkpt><trkpt lat="43.25008562768205" lon="12.97035485545268"><ele>408.0</ele><time>2026-04-18T07:17:40.002Z</time></trkpt><trkpt lat="43.25020226684707" lon="12.970347277797199"><ele>408.0</ele><time>2026-04-18T07:17:42.002Z</time></trkpt><trkpt lat="43.250222288139064" lon="12.970580676418061"><ele>408.0</ele><time>2026-04-18T07:17:44.002Z</time></trkpt><trkpt lat="43.250306887375416" lon="12.97065676429528"><ele>408.0</ele><time>2026-04-18T07:17:48.002Z</time></trkpt><trkpt lat="43.2502981461682" lon="12.970442834939755"><ele>408.0</ele><time>2026-04-18T07:17:53.002Z</time></trkpt><trkpt lat="43.25023537686123" lon="12.970405376101175"><ele>408.0</ele><time>2026-04-18T07:17:57.002Z</time></trkpt><trkpt lat="43.25033202151812" lon="12.970447731564766"><ele>408.0</ele><time>2026-04-18T07:18:05.003Z</time></trkpt><trkpt lat="43.250267445174984" lon="12.970434249336991"><ele>408.0</ele><time>2026-04-18T07:18:57.004Z</time></trkpt><trkpt lat="43.25032508773898" lon="12.9705003079952"><ele>408.0</ele><time>2026-04-18T07:22:11.007Z</time></trkpt><trkpt lat="43.2502939012335" lon="12.970423055136884"><ele>408.0</ele><time>2026-04-18T07:22:33.007Z</time></trkpt><trkpt lat="43.25021644789757" lon="12.970465094869155"><ele>408.0</ele><time>2026-04-18T07:23:24.001Z</time></trkpt><trkpt lat="43.25028292935094" lon="12.97048102971101"><ele>408.0</ele><time>2026-04-18T07:24:46.001Z</time></trkpt><trkpt lat="43.25037748895703" lon="12.970472166349706"><ele>408.0</ele><time>2026-04-18T07:28:17.001Z</time></trkpt><trkpt lat="43.250423881699504" lon="12.97037693571285"><ele>408.0</ele><time>2026-04-18T07:28:21.001Z</time></trkpt><trkpt lat="43.2504437848494" lon="12.970276672211407"><ele>408.0</ele><time>2026-04-18T07:28:23.001Z</time></trkpt><trkpt lat="43.25046877968266" lon="12.970141335524355"><ele>408.0</ele><time>2026-04-18T07:28:25Z</time></trkpt><trkpt lat="43.250440625494676" lon="12.970046008504173"><ele>408.0</ele><time>2026-04-18T07:28:28Z</time></trkpt><trkpt lat="43.25038618087714" lon="12.96999691415848"><ele>408.0</ele><time>2026-04-18T07:28:33Z</time></trkpt><trkpt lat="43.250348045545174" lon="12.969926146873389"><ele>408.0</ele><time>2026-04-18T07:28:54.001Z</time></trkpt><trkpt lat="43.250351434076904" lon="12.96980729552795"><ele>408.0</ele><time>2026-04-18T07:28:57.001Z</time></trkpt><trkpt lat="43.25037513748225" lon="12.969726662031217"><ele>408.0</ele><time>2026-04-18T07:28:58.001Z</time></trkpt><trkpt lat="43.25041085795154" lon="12.969634080164168"><ele>408.0</ele><time>2026-04-18T07:28:59.001Z</time></trkpt><trkpt lat="43.25045080746282" lon="12.969526941729171"><ele>408.0</ele><time>2026-04-18T07:29:00.001Z</time></trkpt><trkpt lat="43.25048858814498" lon="12.969420588520647"><ele>408.0</ele><time>2026-04-18T07:29:01.001Z</time></trkpt><trkpt lat="43.25053675047685" lon="12.969314863176606"><ele>408.0</ele><time>2026-04-18T07:29:02.001Z</time></trkpt><trkpt lat="43.25058065696438" lon="12.96920054313604"><ele>408.0</ele><time>2026-04-18T07:29:03.001Z</time></trkpt><trkpt lat="43.25061709815219" lon="12.969073916022216"><ele>408.0</ele><time>2026-04-18T07:29:04.001Z</time></trkpt><trkpt lat="43.250662430865525" lon="12.96894989178104"><ele>408.0</ele><time>2026-04-18T07:29:05.001Z</time></trkpt><trkpt lat="43.25071317454917" lon="12.968813454138868"><ele>408.79999999999995</ele><time>2026-04-18T07:29:06.001Z</time></trkpt><trkpt lat="43.25075799717857" lon="12.968680265752921"><ele>409.6</ele><time>2026-04-18T07:29:07.001Z</time></trkpt><trkpt lat="43.250789200150585" lon="12.968542857990254"><ele>410.4</ele><time>2026-04-18T07:29:08.001Z</time></trkpt><trkpt lat="43.25081048421028" lon="12.968397900148371"><ele>411.20000000000005</ele><time>2026-04-18T07:29:09.001Z</time></trkpt><trkpt lat="43.25082593887343" lon="12.96824169956802"><ele>412.0</ele><time>2026-04-18T07:29:10.001Z</time></trkpt><trkpt lat="43.25083092736434" lon="12.968081825320509"><ele>412.0</ele><time>2026-04-18T07:29:11.001Z</time></trkpt><trkpt lat="43.250829560395026" lon="12.967928329563867"><ele>412.0</ele><time>2026-04-18T07:29:12.001Z</time></trkpt><trkpt lat="43.25081943771751" lon="12.967775241259497"><ele>412.0</ele><time>2026-04-18T07:29:13.001Z</time></trkpt><trkpt lat="43.250800323275286" lon="12.967624851738476"><ele>412.0</ele><time>2026-04-18T07:29:14.001Z</time></trkpt><trkpt lat="43.250775487391294" lon="12.967474865442716"><ele>412.0</ele><time>2026-04-18T07:29:15.001Z</time></trkpt><trkpt lat="43.250751525580014" lon="12.967333123987638"><ele>411.5</ele><time>2026-04-18T07:29:16.001Z</time></trkpt><trkpt lat="43.25072353249325" lon="12.967182390707908"><ele>411.0</ele><time>2026-04-18T07:29:17.001Z</time></trkpt><trkpt lat="43.250680418032026" lon="12.967026020836796"><ele>410.5</ele><time>2026-04-18T07:29:18.001Z</time></trkpt><trkpt lat="43.250637840640024" lon="12.966872508770404"><ele>410.0</ele><time>2026-04-18T07:29:19.001Z</time></trkpt><trkpt lat="43.250590107621996" lon="12.96671579399905"><ele>409.75</ele><time>2026-04-18T07:29:20.001Z</time></trkpt><trkpt lat="43.250542452645405" lon="12.96655482240293"><ele>409.5</ele><time>2026-04-18T07:29:21.001Z</time></trkpt><trkpt lat="43.25050196456767" lon="12.966390771648507"><ele>409.25</ele><time>2026-04-18T07:29:22.001Z</time></trkpt><trkpt lat="43.25045707117559" lon="12.966228969583753"><ele>409.0</ele><time>2026-04-18T07:29:23.001Z</time></trkpt><trkpt lat="43.250408625790016" lon="12.966067017719075"><ele>409.0</ele><time>2026-04-18T07:29:24.001Z</time></trkpt><trkpt lat="43.25037013811403" lon="12.965902620091375"><ele>409.0</ele><time>2026-04-18T07:29:25.001Z</time></trkpt><trkpt lat="43.25032880337782" lon="12.965744656012792"><ele>409.0</ele><time>2026-04-18T07:29:26.001Z</time></trkpt><trkpt lat="43.25028204497373" lon="12.965590331206391"><ele>409.0</ele><time>2026-04-18T07:29:27.001Z</time></trkpt><trkpt lat="43.25023314583773" lon="12.965444512823028"><ele>409.6666666666667</ele><time>2026-04-18T07:29:28.001Z</time></trkpt><trkpt lat="43.25018657381654" lon="12.965311441761822"><ele>410.33333333333337</ele><time>2026-04-18T07:29:29.001Z</time></trkpt><trkpt lat="43.250159810927634" lon="12.965178978442648"><ele>411.0</ele><time>2026-04-18T07:29:30.001Z</time></trkpt><trkpt lat="43.25012212933101" lon="12.965072833692124"><ele>411.66666666666663</ele><time>2026-04-18T07:29:31.001Z</time></trkpt><trkpt lat="43.25008914995585" lon="12.96498432971513"><ele>412.3333333333333</ele><time>2026-04-18T07:29:32.001Z</time></trkpt><trkpt lat="43.25000961141012" lon="12.964950149703785"><ele>413.0</ele><time>2026-04-18T07:29:33.001Z</time></trkpt><trkpt lat="43.249923602865934" lon="12.964949451935388"><ele>413.0</ele><time>2026-04-18T07:29:34.001Z</time></trkpt><trkpt lat="43.24982117528138" lon="12.964947380415005"><ele>413.0</ele><time>2026-04-18T07:29:35.001Z</time></trkpt><trkpt lat="43.249697398815776" lon="12.964951284369352"><ele>413.0</ele><time>2026-04-18T07:29:36Z</time></trkpt><trkpt lat="43.24954738378746" lon="12.964950264579437"><ele>413.0</ele><time>2026-04-18T07:29:37Z</time></trkpt><trkpt lat="43.24938227037247" lon="12.964951262446066"><ele>413.3333333333333</ele><time>2026-04-18T07:29:38Z</time></trkpt><trkpt lat="43.24921125198136" lon="12.964953091076003"><ele>413.66666666666663</ele><time>2026-04-18T07:29:39Z</time></trkpt><trkpt lat="43.24904115086194" lon="12.964953749361873"><ele>414.0</ele><time>2026-04-18T07:29:40Z</time></trkpt><trkpt lat="43.24888209102048" lon="12.964940399374994"><ele>414.0</ele><time>2026-04-18T07:29:41Z</time></trkpt><trkpt lat="43.248737395771464" lon="12.964926176249554"><ele>414.0</ele><time>2026-04-18T07:29:42Z</time></trkpt><trkpt lat="43.2485813548205" lon="12.964919660669274"><ele>414.0</ele><time>2026-04-18T07:29:43Z</time></trkpt><trkpt lat="43.24844902955209" lon="12.96489382723858"><ele>414.0</ele><time>2026-04-18T07:29:44Z</time></trkpt><trkpt lat="43.2483234941435" lon="12.964885905616805"><ele>414.0</ele><time>2026-04-18T07:29:45Z</time></trkpt><trkpt lat="43.24819310257505" lon="12.964867135128513"><ele>414.0</ele><time>2026-04-18T07:29:46Z</time></trkpt><trkpt lat="43.24803535798881" lon="12.964846909488369"><ele>414.0</ele><time>2026-04-18T07:29:47Z</time></trkpt><trkpt lat="43.24792479415494" lon="12.964858627606729"><ele>414.0</ele><time>2026-04-18T07:29:48Z</time></trkpt><trkpt lat="43.247804346369264" lon="12.964846052178247"><ele>413.79999999999995</ele><time>2026-04-18T07:29:49Z</time></trkpt><trkpt lat="43.24771715893543" lon="12.96485529650413"><ele>413.59999999999997</ele><time>2026-04-18T07:29:50Z</time></trkpt><trkpt lat="43.24762240108166" lon="12.964861270978275"><ele>413.4</ele><time>2026-04-18T07:29:51Z</time></trkpt><trkpt lat="43.24752233681765" lon="12.964919215205688"><ele>413.2</ele><time>2026-04-18T07:29:52Z</time></trkpt><trkpt lat="43.24741668599302" lon="12.964977378140683"><ele>413.0</ele><time>2026-04-18T07:29:53Z</time></trkpt><trkpt lat="43.2473179507169" lon="12.965008486298268"><ele>413.0</ele><time>2026-04-18T07:29:54Z</time></trkpt><trkpt lat="43.24721028762725" lon="12.965061455203845"><ele>413.0</ele><time>2026-04-18T07:29:55Z</time></trkpt><trkpt lat="43.247084248566004" lon="12.965083544734446"><ele>413.0</ele><time>2026-04-18T07:29:56Z</time></trkpt><trkpt lat="43.24696947422583" lon="12.965136868159016"><ele>413.0</ele><time>2026-04-18T07:29:57Z</time></trkpt><trkpt lat="43.246845581121335" lon="12.965191604698992"><ele>413.0</ele><time>2026-04-18T07:29:58Z</time></trkpt><trkpt lat="43.24670764064698" lon="12.965227489951"><ele>413.0</ele><time>2026-04-18T07:29:59Z</time></trkpt><trkpt lat="43.246551199732586" lon="12.965270955307009"><ele>413.0</ele><time>2026-04-18T07:30:00Z</time></trkpt><trkpt lat="43.246412050220776" lon="12.965319325113684"><ele>413.0</ele><time>2026-04-18T07:30:01Z</time></trkpt><trkpt lat="43.246273556364486" lon="12.965379119858229"><ele>413.75</ele><time>2026-04-18T07:30:02Z</time></trkpt><trkpt lat="43.246137364583454" lon="12.965406267504687"><ele>414.5</ele><time>2026-04-18T07:30:03Z</time></trkpt><trkpt lat="43.24599504965073" lon="12.965442450949787"><ele>415.25</ele><time>2026-04-18T07:30:04Z</time></trkpt><trkpt lat="43.245866016570666" lon="12.965458364781854"><ele>416.0</ele><time>2026-04-18T07:30:05Z</time></trkpt><trkpt lat="43.24575493752475" lon="12.965481925772638"><ele>416.0</ele><time>2026-04-18T07:30:06Z</time></trkpt><trkpt lat="43.24565100126738" lon="12.965481729249536"><ele>416.0</ele><time>2026-04-18T07:30:07Z</time></trkpt><trkpt lat="43.245535074131936" lon="12.965516380149175"><ele>416.0</ele><time>2026-04-18T07:30:08Z</time></trkpt><trkpt lat="43.24542992863588" lon="12.965541534622814"><ele>416.0</ele><time>2026-04-18T07:30:09Z</time></trkpt><trkpt lat="43.245325372681776" lon="12.965596963409585"><ele>416.0</ele><time>2026-04-18T07:30:10Z</time></trkpt><trkpt lat="43.245220397147406" lon="12.965665372551442"><ele>416.20000000000005</ele><time>2026-04-18T07:30:11Z</time></trkpt><trkpt lat="43.2450962812226" lon="12.965717717532332"><ele>416.40000000000003</ele><time>2026-04-18T07:30:12Z</time></trkpt><trkpt lat="43.24498734228057" lon="12.965769484028176"><ele>416.6</ele><time>2026-04-18T07:30:13Z</time></trkpt><trkpt lat="43.244895898612" lon="12.965811904936183"><ele>416.8</ele><time>2026-04-18T07:30:14Z</time></trkpt><trkpt lat="43.24480754597304" lon="12.965820355633852"><ele>417.0</ele><time>2026-04-18T07:30:15Z</time></trkpt><trkpt lat="43.24473050006825" lon="12.965784518665625"><ele>417.20000000000005</ele><time>2026-04-18T07:30:16Z</time></trkpt><trkpt lat="43.24466945425505" lon="12.965734426399377"><ele>417.4</ele><time>2026-04-18T07:30:17Z</time></trkpt><trkpt lat="43.24457684406194" lon="12.965662404242511"><ele>417.6</ele><time>2026-04-18T07:30:18Z</time></trkpt><trkpt lat="43.244492429165746" lon="12.965595333849134"><ele>417.79999999999995</ele><time>2026-04-18T07:30:19Z</time></trkpt><trkpt lat="43.24440239468517" lon="12.965523798455198"><ele>418.0</ele><time>2026-04-18T07:30:20Z</time></trkpt><trkpt lat="43.24429860284623" lon="12.965444002170416"><ele>418.0</ele><time>2026-04-18T07:30:21Z</time></trkpt><trkpt lat="43.2441901654737" lon="12.96537152343597"><ele>418.0</ele><time>2026-04-18T07:30:22Z</time></trkpt><trkpt lat="43.24409122461847" lon="12.96530883471582"><ele>418.0</ele><time>2026-04-18T07:30:23Z</time></trkpt><trkpt lat="43.243982026116115" lon="12.965243897335608"><ele>418.0</ele><time>2026-04-18T07:30:24Z</time></trkpt><trkpt lat="43.243899670711606" lon="12.965184787897938"><ele>418.0</ele><time>2026-04-18T07:30:25Z</time></trkpt><trkpt lat="43.24381872559485" lon="12.96508523497038"><ele>419.25</ele><time>2026-04-18T07:30:26Z</time></trkpt><trkpt lat="43.24375477193914" lon="12.964974555165066"><ele>420.5</ele><time>2026-04-18T07:30:27Z</time></trkpt><trkpt lat="43.24366422852338" lon="12.964842019605333"><ele>421.75</ele><time>2026-04-18T07:30:28Z</time></trkpt><trkpt lat="43.2435633235694" lon="12.964757434473073"><ele>423.0</ele><time>2026-04-18T07:30:29Z</time></trkpt><trkpt lat="43.24348060342079" lon="12.964671428372077"><ele>423.0</ele><time>2026-04-18T07:30:30Z</time></trkpt><trkpt lat="43.24340291563253" lon="12.964571280743955"><ele>423.0</ele><time>2026-04-18T07:30:31Z</time></trkpt><trkpt lat="43.24333242530269" lon="12.964499474442622"><ele>423.0</ele><time>2026-04-18T07:30:32Z</time></trkpt><trkpt lat="43.24326835481644" lon="12.964411880441672"><ele>423.0</ele><time>2026-04-18T07:30:33Z</time></trkpt><trkpt lat="43.24321276005407" lon="12.96430279112898"><ele>423.0</ele><time>2026-04-18T07:30:34Z</time></trkpt><trkpt lat="43.243071320406735" lon="12.964267179722187"><ele>423.5</ele><time>2026-04-18T07:30:35Z</time></trkpt><trkpt lat="43.242969635853214" lon="12.964166710297905"><ele>424.0</ele><time>2026-04-18T07:30:36Z</time></trkpt><trkpt lat="43.24285408446225" lon="12.964107464058321"><ele>424.5</ele><time>2026-04-18T07:30:37Z</time></trkpt><trkpt lat="43.24274998518071" lon="12.964051131351898"><ele>425.0</ele><time>2026-04-18T07:30:38Z</time></trkpt><trkpt lat="43.24264880903627" lon="12.96402077668672"><ele>425.0</ele><time>2026-04-18T07:30:39Z</time></trkpt><trkpt lat="43.24256227494082" lon="12.963987988792088"><ele>425.0</ele><time>2026-04-18T07:30:40Z</time></trkpt><trkpt lat="43.24248868140341" lon="12.963955949767154"><ele>425.0</ele><time>2026-04-18T07:30:41Z</time></trkpt><trkpt lat="43.24241268862284" lon="12.963904740651873"><ele>425.0</ele><time>2026-04-18T07:30:42Z</time></trkpt><trkpt lat="43.24232740915956" lon="12.963774104007678"><ele>425.0</ele><time>2026-04-18T07:30:44Z</time></trkpt><trkpt lat="43.24223374347577" lon="12.963825127241979"><ele>425.4</ele><time>2026-04-18T07:30:46Z</time></trkpt><trkpt lat="43.24224281406436" lon="12.963966527745901"><ele>425.8</ele><time>2026-04-18T07:30:49Z</time></trkpt><trkpt lat="43.24222149318576" lon="12.964106753279667"><ele>426.20000000000005</ele><time>2026-04-18T07:30:50Z</time></trkpt><trkpt lat="43.24219395275336" lon="12.9642440802301"><ele>426.6</ele><time>2026-04-18T07:30:51Z</time></trkpt><trkpt lat="43.24215105531972" lon="12.96438450067482"><ele>427.0</ele><time>2026-04-18T07:30:52Z</time></trkpt><trkpt lat="43.24211427282507" lon="12.964517326275354"><ele>427.0</ele><time>2026-04-18T07:30:53Z</time></trkpt><trkpt lat="43.242081431521406" lon="12.964612630273965"><ele>427.0</ele><time>2026-04-18T07:30:54Z</time></trkpt><trkpt lat="43.24202200699682" lon="12.964726828883753"><ele>427.0</ele><time>2026-04-18T07:30:55Z</time></trkpt><trkpt lat="43.24194489330726" lon="12.96485368353916"><ele>427.0</ele><time>2026-04-18T07:30:56Z</time></trkpt><trkpt lat="43.24182887223989" lon="12.965011198244884"><ele>430.6666666666667</ele><time>2026-04-18T07:30:57Z</time></trkpt><trkpt lat="43.241695334070975" lon="12.965180363286828"><ele>434.33333333333337</ele><time>2026-04-18T07:30:58Z</time></trkpt><trkpt lat="43.24157207592689" lon="12.965358518103272"><ele>438.0</ele><time>2026-04-18T07:30:59Z</time></trkpt><trkpt lat="43.24145297477479" lon="12.965487026464142"><ele>438.2</ele><time>2026-04-18T07:31:00Z</time></trkpt><trkpt lat="43.24136410413235" lon="12.965606434169977"><ele>438.4</ele><time>2026-04-18T07:31:01Z</time></trkpt><trkpt lat="43.24129674620275" lon="12.965707080179408"><ele>438.59999999999997</ele><time>2026-04-18T07:31:02Z</time></trkpt><trkpt lat="43.2412389909153" lon="12.965795563295826"><ele>438.79999999999995</ele><time>2026-04-18T07:31:03Z</time></trkpt><trkpt lat="43.24113432520603" lon="12.965877107963063"><ele>439.0</ele><time>2026-04-18T07:31:05Z</time></trkpt><trkpt lat="43.24112981058246" lon="12.96601846066872"><ele>439.0</ele><time>2026-04-18T07:31:06Z</time></trkpt><trkpt lat="43.24120087308083" lon="12.96607136318142"><ele>439.0</ele><time>2026-04-18T07:31:07Z</time></trkpt><trkpt lat="43.24127916119951" lon="12.966074889283465"><ele>439.0</ele><time>2026-04-18T07:31:08Z</time></trkpt><trkpt lat="43.24136084988165" lon="12.96606072443995"><ele>439.0</ele><time>2026-04-18T07:31:09Z</time></trkpt><trkpt lat="43.24144546884166" lon="12.966083911576945"><ele>439.0</ele><time>2026-04-18T07:31:10Z</time></trkpt><trkpt lat="43.24129646183403" lon="12.965743302022398"><ele>442.6666666666667</ele><time>2026-04-18T07:31:14Z</time></trkpt><trkpt lat="43.24115120500987" lon="12.965882021404616"><ele>446.33333333333337</ele><time>2026-04-18T07:31:16Z</time></trkpt><trkpt lat="43.24105494350991" lon="12.966055116216749"><ele>450.0</ele><time>2026-04-18T07:31:17Z</time></trkpt><trkpt lat="43.24102234240484" lon="12.96622787561035"><ele>450.0</ele><time>2026-04-18T07:31:18Z</time></trkpt><trkpt lat="43.24098709499633" lon="12.96632463995647"><ele>450.0</ele><time>2026-04-18T07:31:19Z</time></trkpt><trkpt lat="43.24094822670732" lon="12.966431344350418"><ele>450.0</ele><time>2026-04-18T07:31:20Z</time></trkpt><trkpt lat="43.24114031798262" lon="12.96670402129296"><ele>450.0</ele><time>2026-04-18T07:31:21Z</time></trkpt><trkpt lat="43.24110704229901" lon="12.966820082259636"><ele>451.1666666666667</ele><time>2026-04-18T07:31:22Z</time></trkpt><trkpt lat="43.241088384692354" lon="12.966933584908368"><ele>452.33333333333337</ele><time>2026-04-18T07:31:23Z</time></trkpt><trkpt lat="43.241083597096235" lon="12.967056515698385"><ele>453.5</ele><time>2026-04-18T07:31:24Z</time></trkpt><trkpt lat="43.24105924183826" lon="12.96714392074585"><ele>454.6666666666667</ele><time>2026-04-18T07:31:25Z</time></trkpt><trkpt lat="43.241030731854885" lon="12.96726658721138"><ele>455.83333333333337</ele><time>2026-04-18T07:31:26Z</time></trkpt><trkpt lat="43.24097267412789" lon="12.967369958163822"><ele>457.0</ele><time>2026-04-18T07:31:27Z</time></trkpt><trkpt lat="43.24087232182022" lon="12.967440025640522"><ele>457.0</ele><time>2026-04-18T07:31:28Z</time></trkpt><trkpt lat="43.24077258019961" lon="12.96750932356155"><ele>457.0</ele><time>2026-04-18T07:31:29Z</time></trkpt><trkpt lat="43.24066838024025" lon="12.967584306491302"><ele>457.0</ele><time>2026-04-18T07:31:30Z</time></trkpt><trkpt lat="43.24055352280518" lon="12.967625354872746"><ele>457.0</ele><time>2026-04-18T07:31:31Z</time></trkpt><trkpt lat="43.24043498120621" lon="12.96766049453109"><ele>458.1666666666667</ele><time>2026-04-18T07:31:32Z</time></trkpt><trkpt lat="43.240347710858536" lon="12.967721508057343"><ele>459.33333333333337</ele><time>2026-04-18T07:31:33Z</time></trkpt><trkpt lat="43.24026234616214" lon="12.967765743371805"><ele>460.5</ele><time>2026-04-18T07:31:34Z</time></trkpt><trkpt lat="43.24018903512054" lon="12.9677941553204"><ele>461.66666666666663</ele><time>2026-04-18T07:31:35Z</time></trkpt><trkpt lat="43.2401294972607" lon="12.967882635175787"><ele>462.8333333333333</ele><time>2026-04-18T07:31:36Z</time></trkpt><trkpt lat="43.24006698931093" lon="12.96794737629388"><ele>464.0</ele><time>2026-04-18T07:31:37Z</time></trkpt><trkpt lat="43.240015872578695" lon="12.96800928909671"><ele>463.99999999999994</ele><time>2026-04-18T07:31:38Z</time></trkpt><trkpt lat="43.23995569372848" lon="12.96803934208144"><ele>464.0</ele><time>2026-04-18T07:31:39Z</time></trkpt><trkpt lat="43.23988305388516" lon="12.968059666027436"><ele>464.0</ele><time>2026-04-18T07:31:40Z</time></trkpt><trkpt lat="43.23980943762937" lon="12.968062951905578"><ele>464.0</ele><time>2026-04-18T07:31:41Z</time></trkpt><trkpt lat="43.23973483383411" lon="12.96803432220353"><ele>463.99999999999994</ele><time>2026-04-18T07:31:42Z</time></trkpt><trkpt lat="43.239671503632124" lon="12.96796673660201"><ele>464.0</ele><time>2026-04-18T07:31:43Z</time></trkpt><trkpt lat="43.23958041766574" lon="12.967911321232286"><ele>463.2</ele><time>2026-04-18T07:31:44Z</time></trkpt><trkpt lat="43.23949260785057" lon="12.967843934498077"><ele>462.4</ele><time>2026-04-18T07:31:45Z</time></trkpt><trkpt lat="43.23941410045022" lon="12.967774885690732"><ele>461.6</ele><time>2026-04-18T07:31:46Z</time></trkpt><trkpt lat="43.2393332932005" lon="12.967689794009996"><ele>460.8</ele><time>2026-04-18T07:31:47Z</time></trkpt><trkpt lat="43.23925277551992" lon="12.967638660748747"><ele>460.0</ele><time>2026-04-18T07:31:48Z</time></trkpt><trkpt lat="43.23919644849862" lon="12.967557724176332"><ele>461.4</ele><time>2026-04-18T07:31:49Z</time></trkpt><trkpt lat="43.23914386187823" lon="12.967458204810937"><ele>462.8</ele><time>2026-04-18T07:31:50Z</time></trkpt><trkpt lat="43.23908786928286" lon="12.967362352827735"><ele>464.20000000000005</ele><time>2026-04-18T07:31:51Z</time></trkpt><trkpt lat="43.2390299148705" lon="12.96723470405887"><ele>465.6</ele><time>2026-04-18T07:31:52Z</time></trkpt><trkpt lat="43.238965413983806" lon="12.967086978934562"><ele>467.0</ele><time>2026-04-18T07:31:53Z</time></trkpt><trkpt lat="43.23888190645821" lon="12.966949965292077"><ele>467.0</ele><time>2026-04-18T07:31:54Z</time></trkpt><trkpt lat="43.23877966809374" lon="12.966802128241584"><ele>467.0</ele><time>2026-04-18T07:31:55Z</time></trkpt><trkpt lat="43.23869733409251" lon="12.966628571525247"><ele>467.0</ele><time>2026-04-18T07:31:56Z</time></trkpt><trkpt lat="43.23860900494438" lon="12.966516157179857"><ele>467.0</ele><time>2026-04-18T07:31:57Z</time></trkpt><trkpt lat="43.23850668849264" lon="12.96644628463143"><ele>468.5</ele><time>2026-04-18T07:31:58Z</time></trkpt><trkpt lat="43.2383960115929" lon="12.966418238337138"><ele>470.0</ele><time>2026-04-18T07:31:59Z</time></trkpt><trkpt lat="43.23827741109291" lon="12.966402785862552"><ele>471.5</ele><time>2026-04-18T07:32:00Z</time></trkpt><trkpt lat="43.23814959583746" lon="12.966398240567418"><ele>473.0</ele><time>2026-04-18T07:32:01Z</time></trkpt><trkpt lat="43.23801878649201" lon="12.96635704143486"><ele>475.25</ele><time>2026-04-18T07:32:02Z</time></trkpt><trkpt lat="43.23786565711809" lon="12.96634214938721"><ele>477.5</ele><time>2026-04-18T07:32:03Z</time></trkpt><trkpt lat="43.237717602759886" lon="12.966335445349191"><ele>479.75</ele><time>2026-04-18T07:32:04Z</time></trkpt><trkpt lat="43.23757608002476" lon="12.966320258270402"><ele>482.0</ele><time>2026-04-18T07:32:05Z</time></trkpt><trkpt lat="43.237464270653874" lon="12.966302654154818"><ele>481.99999999999994</ele><time>2026-04-18T07:32:06Z</time></trkpt><trkpt lat="43.23737530718977" lon="12.966277288773824"><ele>482.0</ele><time>2026-04-18T07:32:07Z</time></trkpt><trkpt lat="43.237295462615855" lon="12.966243672276438"><ele>482.0</ele><time>2026-04-18T07:32:08Z</time></trkpt><trkpt lat="43.237233532124684" lon="12.966196015692326"><ele>482.0</ele><time>2026-04-18T07:32:09Z</time></trkpt><trkpt lat="43.23719254576807" lon="12.966060502756722"><ele>481.99999999999994</ele><time>2026-04-18T07:32:11Z</time></trkpt><trkpt lat="43.23714813379422" lon="12.965980293069839"><ele>482.0</ele><time>2026-04-18T07:32:12Z</time></trkpt><trkpt lat="43.237087984650564" lon="12.965895392278245"><ele>482.8</ele><time>2026-04-18T07:32:13Z</time></trkpt><trkpt lat="43.23701706488961" lon="12.96582193426777"><ele>483.6</ele><time>2026-04-18T07:32:14Z</time></trkpt><trkpt lat="43.23696385184412" lon="12.965723229062718"><ele>484.40000000000003</ele><time>2026-04-18T07:32:15Z</time></trkpt><trkpt lat="43.2368825331108" lon="12.965598203461404"><ele>485.20000000000005</ele><time>2026-04-18T07:32:16Z</time></trkpt><trkpt lat="43.23682893470887" lon="12.96549575897384"><ele>486.0</ele><time>2026-04-18T07:32:17Z</time></trkpt><trkpt lat="43.236796806649565" lon="12.96539709321644"><ele>486.0</ele><time>2026-04-18T07:32:18Z</time></trkpt><trkpt lat="43.236765501538606" lon="12.965280624420082"><ele>486.0</ele><time>2026-04-18T07:32:19Z</time></trkpt><trkpt lat="43.23670511067115" lon="12.965175697344087"><ele>486.0</ele><time>2026-04-18T07:32:20Z</time></trkpt><trkpt lat="43.236661812131764" lon="12.965056304039114"><ele>486.0</ele><time>2026-04-18T07:32:21Z</time></trkpt><trkpt lat="43.23661289412909" lon="12.964938431801896"><ele>486.0</ele><time>2026-04-18T07:32:22Z</time></trkpt><trkpt lat="43.23655003265448" lon="12.96483097996877"><ele>487.75</ele><time>2026-04-18T07:32:23Z</time></trkpt><trkpt lat="43.23651661375208" lon="12.964665235340105"><ele>489.5</ele><time>2026-04-18T07:32:24Z</time></trkpt><trkpt lat="43.23645628233117" lon="12.964546435186627"><ele>491.25</ele><time>2026-04-18T07:32:25Z</time></trkpt><trkpt lat="43.2363862140265" lon="12.964426915974553"><ele>493.0</ele><time>2026-04-18T07:32:26Z</time></trkpt><trkpt lat="43.23632049748497" lon="12.964305931326162"><ele>497.0</ele><time>2026-04-18T07:32:27Z</time></trkpt><trkpt lat="43.23627332675269" lon="12.96415767175514"><ele>500.99999999999994</ele><time>2026-04-18T07:32:28Z</time></trkpt><trkpt lat="43.23621924860136" lon="12.964025466779157"><ele>504.99999999999994</ele><time>2026-04-18T07:32:29Z</time></trkpt><trkpt lat="43.23616580038308" lon="12.963916835795818"><ele>509.0</ele><time>2026-04-18T07:32:30Z</time></trkpt><trkpt lat="43.23610779689471" lon="12.963821783720416"><ele>513.0</ele><time>2026-04-18T07:32:31Z</time></trkpt><trkpt lat="43.23605882930339" lon="12.96370770514172"><ele>513.0</ele><time>2026-04-18T07:32:32Z</time></trkpt><trkpt lat="43.23598421000021" lon="12.963681727429583"><ele>513.0</ele><time>2026-04-18T07:32:34Z</time></trkpt><trkpt lat="43.235896866314896" lon="12.963689132745921"><ele>513.0</ele><time>2026-04-18T07:32:37Z</time></trkpt><trkpt lat="43.23580698273737" lon="12.963705575408197"><ele>513.0</ele><time>2026-04-18T07:32:40Z</time></trkpt><trkpt lat="43.2357400584141" lon="12.963701233501045"><ele>513.0</ele><time>2026-04-18T07:32:42Z</time></trkpt><trkpt lat="43.23563177139742" lon="12.963660595780073"><ele>513.0</ele><time>2026-04-18T07:32:44Z</time></trkpt><trkpt lat="43.23555726503329" lon="12.963646106642273"><ele>514.4</ele><time>2026-04-18T07:32:45Z</time></trkpt><trkpt lat="43.235488997901435" lon="12.963599921894483"><ele>515.8</ele><time>2026-04-18T07:32:46Z</time></trkpt><trkpt lat="43.235430894648765" lon="12.963564974024843"><ele>517.2</ele><time>2026-04-18T07:32:47Z</time></trkpt><trkpt lat="43.235355052182946" lon="12.96351935642715"><ele>518.6</ele><time>2026-04-18T07:32:48Z</time></trkpt><trkpt lat="43.23526895714653" lon="12.963699442814184"><ele>520.0</ele><time>2026-04-18T07:32:49Z</time></trkpt><trkpt lat="43.23519753669136" lon="12.963777867287359"><ele>520.0</ele><time>2026-04-18T07:32:51Z</time></trkpt><trkpt lat="43.23512731631682" lon="12.964006001773775"><ele>520.0</ele><time>2026-04-18T07:32:53Z</time></trkpt><trkpt lat="43.2348064098617" lon="12.964154119478314"><ele>519.0</ele><time>2026-04-18T07:32:56Z</time></trkpt><trkpt lat="43.23471868496264" lon="12.964147313874994"><ele>518.0</ele><time>2026-04-18T07:32:57Z</time></trkpt><trkpt lat="43.23463055579049" lon="12.964121624685152"><ele>517.0</ele><time>2026-04-18T07:32:59Z</time></trkpt><trkpt lat="43.23456412759392" lon="12.963364070318635"><ele>519.6</ele><time>2026-04-18T07:33:01Z</time></trkpt><trkpt lat="43.234489805726206" lon="12.963231948242798"><ele>522.2</ele><time>2026-04-18T07:33:02Z</time></trkpt><trkpt lat="43.234424589630244" lon="12.963122345832065"><ele>524.8</ele><time>2026-04-18T07:33:03Z</time></trkpt><trkpt lat="43.23437729495418" lon="12.96302189606621"><ele>527.4</ele><time>2026-04-18T07:33:04Z</time></trkpt><trkpt lat="43.234326705808634" lon="12.962872349563842"><ele>530.0</ele><time>2026-04-18T07:33:05Z</time></trkpt><trkpt lat="43.23429171055209" lon="12.962732407330362"><ele>530.0</ele><time>2026-04-18T07:33:06Z</time></trkpt><trkpt lat="43.234255148564955" lon="12.962627767901058"><ele>530.0</ele><time>2026-04-18T07:33:07Z</time></trkpt><trkpt lat="43.23421437362452" lon="12.96251789918398"><ele>530.0</ele><time>2026-04-18T07:33:08Z</time></trkpt><trkpt lat="43.23416225511844" lon="12.962389330372055"><ele>530.0</ele><time>2026-04-18T07:33:09Z</time></trkpt><trkpt lat="43.23410776553827" lon="12.962267212273538"><ele>530.0</ele><time>2026-04-18T07:33:10Z</time></trkpt><trkpt lat="43.23406555511365" lon="12.96213332068785"><ele>531.5</ele><time>2026-04-18T07:33:11Z</time></trkpt><trkpt lat="43.234011814311025" lon="12.962033222690096"><ele>533.0</ele><time>2026-04-18T07:33:12Z</time></trkpt><trkpt lat="43.23395986510115" lon="12.961936764736448"><ele>534.5</ele><time>2026-04-18T07:33:13Z</time></trkpt><trkpt lat="43.233918748135615" lon="12.961866118423442"><ele>536.0</ele><time>2026-04-18T07:33:14Z</time></trkpt><trkpt lat="43.23387261829918" lon="12.961804827962323"><ele>537.5</ele><time>2026-04-18T07:33:15Z</time></trkpt><trkpt lat="43.23380680209626" lon="12.961755301199501"><ele>539.0</ele><time>2026-04-18T07:33:16Z</time></trkpt><trkpt lat="43.233729619737325" lon="12.961699997358437"><ele>543.4</ele><time>2026-04-18T07:33:17Z</time></trkpt><trkpt lat="43.2336473960182" lon="12.961658253846617"><ele>547.8</ele><time>2026-04-18T07:33:18Z</time></trkpt><trkpt lat="43.23358163628587" lon="12.96161825167965"><ele>552.2</ele><time>2026-04-18T07:33:19Z</time></trkpt><trkpt lat="43.23350707725706" lon="12.961525563949053"><ele>556.6</ele><time>2026-04-18T07:33:21Z</time></trkpt><trkpt lat="43.23344233499084" lon="12.96148241884051"><ele>561.0</ele><time>2026-04-18T07:33:23Z</time></trkpt><trkpt lat="43.233335997539506" lon="12.961562292319421"><ele>561.0</ele><time>2026-04-18T07:33:25Z</time></trkpt><trkpt lat="43.23324715594237" lon="12.961615595610084"><ele>561.0</ele><time>2026-04-18T07:33:26Z</time></trkpt><trkpt lat="43.23318373479406" lon="12.961636167641894"><ele>561.0</ele><time>2026-04-18T07:33:27Z</time></trkpt><trkpt lat="43.233076427090474" lon="12.961700090678647"><ele>561.0</ele><time>2026-04-18T07:33:29Z</time></trkpt><trkpt lat="43.23302564280134" lon="12.961760727292594"><ele>561.0</ele><time>2026-04-18T07:33:30Z</time></trkpt><trkpt lat="43.2329841893978" lon="12.961850758081889"><ele>561.0</ele><time>2026-04-18T07:33:31Z</time></trkpt><trkpt lat="43.23289204147798" lon="12.961923491853828"><ele>562.4</ele><time>2026-04-18T07:33:32Z</time></trkpt><trkpt lat="43.23280245921672" lon="12.961992787452745"><ele>563.8</ele><time>2026-04-18T07:33:33Z</time></trkpt><trkpt lat="43.23272738460942" lon="12.962069846953426"><ele>565.1999999999999</ele><time>2026-04-18T07:33:34Z</time></trkpt><trkpt lat="43.23265137855366" lon="12.96214933383335"><ele>566.6</ele><time>2026-04-18T07:33:35Z</time></trkpt><trkpt lat="43.23257408952111" lon="12.962233944704955"><ele>568.0</ele><time>2026-04-18T07:33:36Z</time></trkpt><trkpt lat="43.232493695089715" lon="12.962297208265868"><ele>568.0</ele><time>2026-04-18T07:33:37Z</time></trkpt><trkpt lat="43.232411793862354" lon="12.962360185121701"><ele>568.0</ele><time>2026-04-18T07:33:38Z</time></trkpt><trkpt lat="43.23233751025168" lon="12.962417431834712"><ele>568.0</ele><time>2026-04-18T07:33:39Z</time></trkpt><trkpt lat="43.232264771532954" lon="12.962475246638297"><ele>568.0</ele><time>2026-04-18T07:33:40Z</time></trkpt><trkpt lat="43.23218804862028" lon="12.962539570410595"><ele>568.0</ele><time>2026-04-18T07:33:41Z</time></trkpt><trkpt lat="43.23213447860372" lon="12.962640293718767"><ele>568.0</ele><time>2026-04-18T07:33:42Z</time></trkpt><trkpt lat="43.232091631961204" lon="12.96274689625197"><ele>570.1999999999999</ele><time>2026-04-18T07:33:43Z</time></trkpt><trkpt lat="43.232042254693276" lon="12.962834130150352"><ele>572.4</ele><time>2026-04-18T07:33:44Z</time></trkpt><trkpt lat="43.231943256121156" lon="12.962942566022063"><ele>574.5999999999999</ele><time>2026-04-18T07:33:46Z</time></trkpt><trkpt lat="43.23185781035918" lon="12.962980564964662"><ele>576.8</ele><time>2026-04-18T07:33:47Z</time></trkpt><trkpt lat="43.2317640311201" lon="12.963018316766327"><ele>579.0</ele><time>2026-04-18T07:33:48Z</time></trkpt><trkpt lat="43.231689003478174" lon="12.963065030544428"><ele>579.0</ele><time>2026-04-18T07:33:49Z</time></trkpt><trkpt lat="43.231614185612244" lon="12.963116768994555"><ele>579.0</ele><time>2026-04-18T07:33:50Z</time></trkpt><trkpt lat="43.2315443681232" lon="12.963189431455007"><ele>579.0</ele><time>2026-04-18T07:33:51Z</time></trkpt><trkpt lat="43.23146446783429" lon="12.963252804357948"><ele>579.0</ele><time>2026-04-18T07:33:52Z</time></trkpt><trkpt lat="43.23138262973598" lon="12.963318768224969"><ele>579.0</ele><time>2026-04-18T07:33:53Z</time></trkpt><trkpt lat="43.231318084285796" lon="12.963406264836502"><ele>579.0</ele><time>2026-04-18T07:33:54Z</time></trkpt><trkpt lat="43.23125842117224" lon="12.963507050070776"><ele>579.3333333333334</ele><time>2026-04-18T07:33:55Z</time></trkpt><trkpt lat="43.23118935681162" lon="12.96358883348048"><ele>579.6666666666666</ele><time>2026-04-18T07:33:56Z</time></trkpt><trkpt lat="43.231134021573006" lon="12.96370796082891"><ele>580.0</ele><time>2026-04-18T07:33:57Z</time></trkpt><trkpt lat="43.231066266418814" lon="12.963815839524308"><ele>580.3333333333333</ele><time>2026-04-18T07:33:58Z</time></trkpt><trkpt lat="43.23101411528029" lon="12.963881942404853"><ele>580.6666666666666</ele><time>2026-04-18T07:33:59Z</time></trkpt><trkpt lat="43.23095618850028" lon="12.963948742294578"><ele>581.0</ele><time>2026-04-18T07:34:01Z</time></trkpt><trkpt lat="43.23089342668283" lon="12.963988647903337"><ele>581.0</ele><time>2026-04-18T07:34:03Z</time></trkpt><trkpt lat="43.23077092952929" lon="12.96403595376892"><ele>581.0</ele><time>2026-04-18T07:34:05Z</time></trkpt><trkpt lat="43.230696754117815" lon="12.96406993409916"><ele>581.0</ele><time>2026-04-18T07:34:06Z</time></trkpt><trkpt lat="43.230633430677024" lon="12.964094745736112"><ele>581.0</ele><time>2026-04-18T07:34:07Z</time></trkpt><trkpt lat="43.230557863283536" lon="12.964129892647259"><ele>581.0</ele><time>2026-04-18T07:34:08Z</time></trkpt><trkpt lat="43.230496180090356" lon="12.964181415647301"><ele>581.0</ele><time>2026-04-18T07:34:09Z</time></trkpt><trkpt lat="43.23042732439611" lon="12.964237661715961"><ele>582.1666666666666</ele><time>2026-04-18T07:34:10Z</time></trkpt><trkpt lat="43.23034731678389" lon="12.964318587532276"><ele>583.3333333333333</ele><time>2026-04-18T07:34:12Z</time></trkpt><trkpt lat="43.230288944805025" lon="12.964359386884745"><ele>584.5</ele><time>2026-04-18T07:34:13Z</time></trkpt><trkpt lat="43.230225956528685" lon="12.96443678437374"><ele>585.6666666666666</ele><time>2026-04-18T07:34:15Z</time></trkpt><trkpt lat="43.23017619264374" lon="12.964522343588254"><ele>586.8333333333334</ele><time>2026-04-18T07:34:17Z</time></trkpt><trkpt lat="43.23010701216906" lon="12.964579598430724"><ele>588.0</ele><time>2026-04-18T07:34:19Z</time></trkpt><trkpt lat="43.22998474189165" lon="12.964604696379665"><ele>588.0</ele><time>2026-04-18T07:34:21Z</time></trkpt><trkpt lat="43.2299090712754" lon="12.96462306722174"><ele>588.0</ele><time>2026-04-18T07:34:22Z</time></trkpt><trkpt lat="43.22984123606936" lon="12.96464230336329"><ele>588.0</ele><time>2026-04-18T07:34:23Z</time></trkpt><trkpt lat="43.22977246820444" lon="12.964649793971889"><ele>588.0</ele><time>2026-04-18T07:34:24Z</time></trkpt><trkpt lat="43.22967862241775" lon="12.964702311062974"><ele>588.0</ele><time>2026-04-18T07:34:26Z</time></trkpt><trkpt lat="43.22959252492153" lon="12.96472794968812"><ele>588.0</ele><time>2026-04-18T07:34:28Z</time></trkpt><trkpt lat="43.229531738184285" lon="12.964806077935405"><ele>587.4</ele><time>2026-04-18T07:34:30Z</time></trkpt><trkpt lat="43.22944718406053" lon="12.964864681895223"><ele>586.8</ele><time>2026-04-18T07:34:32Z</time></trkpt><trkpt lat="43.229369231603634" lon="12.964908663970506"><ele>586.2</ele><time>2026-04-18T07:34:33Z</time></trkpt><trkpt lat="43.229294423962" lon="12.964968036579409"><ele>585.6</ele><time>2026-04-18T07:34:34Z</time></trkpt><trkpt lat="43.22923371117922" lon="12.965011710274688"><ele>585.0</ele><time>2026-04-18T07:34:35Z</time></trkpt><trkpt lat="43.22912210643621" lon="12.965081027554477"><ele>585.0</ele><time>2026-04-18T07:34:37Z</time></trkpt><trkpt lat="43.22904229779807" lon="12.96510552483819"><ele>585.0</ele><time>2026-04-18T07:34:38Z</time></trkpt><trkpt lat="43.228979070578895" lon="12.96511631970478"><ele>585.0</ele><time>2026-04-18T07:34:39Z</time></trkpt><trkpt lat="43.22890308764599" lon="12.965127880535812"><ele>585.0</ele><time>2026-04-18T07:34:41Z</time></trkpt><trkpt lat="43.22882504461624" lon="12.965134071664934"><ele>585.0</ele><time>2026-04-18T07:34:43Z</time></trkpt><trkpt lat="43.228760895386166" lon="12.965167891292376"><ele>585.0</ele><time>2026-04-18T07:34:46Z</time></trkpt><trkpt lat="43.22869131818705" lon="12.965187613902357"><ele>585.0</ele><time>2026-04-18T07:34:48Z</time></trkpt><trkpt lat="43.228591534133145" lon="12.965183927254738"><ele>588.75</ele><time>2026-04-18T07:34:50Z</time></trkpt><trkpt lat="43.22844946542839" lon="12.96522918180229"><ele>592.5</ele><time>2026-04-18T07:34:52Z</time></trkpt><trkpt lat="43.22835306370797" lon="12.96525120137061"><ele>596.25</ele><time>2026-04-18T07:34:53Z</time></trkpt><trkpt lat="43.228250951894054" lon="12.965269013003141"><ele>600.0</ele><time>2026-04-18T07:34:54Z</time></trkpt><trkpt lat="43.22814802063497" lon="12.965310880608882"><ele>603.8</ele><time>2026-04-18T07:34:55Z</time></trkpt><trkpt lat="43.22805554452281" lon="12.96534646450812"><ele>607.6</ele><time>2026-04-18T07:34:56Z</time></trkpt><trkpt lat="43.227951660115295" lon="12.96540224933598"><ele>611.4</ele><time>2026-04-18T07:34:57Z</time></trkpt><trkpt lat="43.22786320335586" lon="12.965432299410095"><ele>615.2</ele><time>2026-04-18T07:34:58Z</time></trkpt><trkpt lat="43.22776369717698" lon="12.965444911218896"><ele>619.0</ele><time>2026-04-18T07:34:59.001Z</time></trkpt><trkpt lat="43.227664814528566" lon="12.965441334540596"><ele>619.0</ele><time>2026-04-18T07:35:00.001Z</time></trkpt><trkpt lat="43.227562124165374" lon="12.965434995434057"><ele>619.0</ele><time>2026-04-18T07:35:01.001Z</time></trkpt><trkpt lat="43.22746700417053" lon="12.965445590664133"><ele>619.0</ele><time>2026-04-18T07:35:02.001Z</time></trkpt><trkpt lat="43.22734980243456" lon="12.965461718005267"><ele>619.0</ele><time>2026-04-18T07:35:03.001Z</time></trkpt><trkpt lat="43.22723370493762" lon="12.965452419710653"><ele>619.0</ele><time>2026-04-18T07:35:04.001Z</time></trkpt><trkpt lat="43.22709556303407" lon="12.965508921923517"><ele>621.8</ele><time>2026-04-18T07:35:05.001Z</time></trkpt><trkpt lat="43.22699208015681" lon="12.965514452886161"><ele>624.5999999999999</ele><time>2026-04-18T07:35:06.001Z</time></trkpt><trkpt lat="43.226884283284015" lon="12.965507167560649"><ele>627.4</ele><time>2026-04-18T07:35:07.001Z</time></trkpt><trkpt lat="43.22677012158387" lon="12.965500671641335"><ele>630.1999999999999</ele><time>2026-04-18T07:35:08.001Z</time></trkpt><trkpt lat="43.226663006654505" lon="12.96549734179467"><ele>633.0</ele><time>2026-04-18T07:35:09.001Z</time></trkpt><trkpt lat="43.226568369513" lon="12.965497731327279"><ele>634.8</ele><time>2026-04-18T07:35:10.001Z</time></trkpt><trkpt lat="43.22647494050034" lon="12.96549366695339"><ele>636.5999999999999</ele><time>2026-04-18T07:35:11.001Z</time></trkpt><trkpt lat="43.226369426666984" lon="12.965484800739583"><ele>638.4000000000001</ele><time>2026-04-18T07:35:12.001Z</time></trkpt><trkpt lat="43.2262595342408" lon="12.965498775511813"><ele>640.2</ele><time>2026-04-18T07:35:13.001Z</time></trkpt><trkpt lat="43.22615993669272" lon="12.965493872078904"><ele>642.0</ele><time>2026-04-18T07:35:14.001Z</time></trkpt><trkpt lat="43.22607496239038" lon="12.965482649541103"><ele>642.0</ele><time>2026-04-18T07:35:15.001Z</time></trkpt><trkpt lat="43.22600344383612" lon="12.965471712614745"><ele>642.0</ele><time>2026-04-18T07:35:16.001Z</time></trkpt><trkpt lat="43.225931494638964" lon="12.96547390505462"><ele>642.0</ele><time>2026-04-18T07:35:17.001Z</time></trkpt><trkpt lat="43.225850525323054" lon="12.965479699724073"><ele>642.0</ele><time>2026-04-18T07:35:18.001Z</time></trkpt><trkpt lat="43.22576623503415" lon="12.965483928634576"><ele>642.0</ele><time>2026-04-18T07:35:19.001Z</time></trkpt><trkpt lat="43.225680492962994" lon="12.965485921646179"><ele>642.0</ele><time>2026-04-18T07:35:20.001Z</time></trkpt><trkpt lat="43.22558425784311" lon="12.965473543232868"><ele>644.0</ele><time>2026-04-18T07:35:21.001Z</time></trkpt><trkpt lat="43.22548671403205" lon="12.965466594945871"><ele>646.0</ele><time>2026-04-18T07:35:22.001Z</time></trkpt><trkpt lat="43.22538652959183" lon="12.965470990399552"><ele>648.0</ele><time>2026-04-18T07:35:23.001Z</time></trkpt><trkpt lat="43.225296496511" lon="12.965468605105851"><ele>650.0</ele><time>2026-04-18T07:35:24.001Z</time></trkpt><trkpt lat="43.22519673868806" lon="12.965462167638822"><ele>652.0</ele><time>2026-04-18T07:35:25.001Z</time></trkpt><trkpt lat="43.22510920272999" lon="12.965464379110914"><ele>652.0</ele><time>2026-04-18T07:35:26.001Z</time></trkpt><trkpt lat="43.22503366199525" lon="12.96545661309334"><ele>652.0</ele><time>2026-04-18T07:35:27.001Z</time></trkpt><trkpt lat="43.224964681386915" lon="12.96544546975686"><ele>652.0</ele><time>2026-04-18T07:35:28.001Z</time></trkpt><trkpt lat="43.22488158927773" lon="12.965433009937849"><ele>652.0</ele><time>2026-04-18T07:35:29.001Z</time></trkpt><trkpt lat="43.224813548918114" lon="12.965430014940447"><ele>652.0</ele><time>2026-04-18T07:35:30.001Z</time></trkpt><trkpt lat="43.22474192988784" lon="12.96539177634872"><ele>652.0</ele><time>2026-04-18T07:35:32.001Z</time></trkpt><trkpt lat="43.224651275654914" lon="12.965399967639577"><ele>654.4000000000001</ele><time>2026-04-18T07:35:35.001Z</time></trkpt><trkpt lat="43.22451208391787" lon="12.96540510290381"><ele>656.8000000000001</ele><time>2026-04-18T07:35:37.001Z</time></trkpt><trkpt lat="43.22442873194344" lon="12.965403787328341"><ele>659.2</ele><time>2026-04-18T07:35:38.001Z</time></trkpt><trkpt lat="43.224353170508834" lon="12.965429000498226"><ele>661.6</ele><time>2026-04-18T07:35:39.001Z</time></trkpt><trkpt lat="43.22427690724232" lon="12.965458548799665"><ele>664.0</ele><time>2026-04-18T07:35:40.001Z</time></trkpt><trkpt lat="43.22420814718007" lon="12.965499661082605"><ele>664.0</ele><time>2026-04-18T07:35:41.001Z</time></trkpt><trkpt lat="43.22412351802254" lon="12.965568559077356"><ele>664.0</ele><time>2026-04-18T07:35:44.001Z</time></trkpt><trkpt lat="43.22406436328227" lon="12.965634964264014"><ele>664.0</ele><time>2026-04-18T07:35:46.001Z</time></trkpt><trkpt lat="43.22398958262973" lon="12.965649968227506"><ele>664.0</ele><time>2026-04-18T07:35:48.001Z</time></trkpt><trkpt lat="43.223881882408314" lon="12.965706251539913"><ele>664.0</ele><time>2026-04-18T07:35:50.001Z</time></trkpt><trkpt lat="43.22382911542399" lon="12.965755945929502"><ele>664.0</ele><time>2026-04-18T07:35:51.001Z</time></trkpt><trkpt lat="43.22377053789124" lon="12.965800955088694"><ele>663.8000000000001</ele><time>2026-04-18T07:35:52.001Z</time></trkpt><trkpt lat="43.223682970175204" lon="12.96585013615802"><ele>663.6</ele><time>2026-04-18T07:35:53.001Z</time></trkpt><trkpt lat="43.2235924671851" lon="12.965898891792287"><ele>663.4</ele><time>2026-04-18T07:35:54.001Z</time></trkpt><trkpt lat="43.223508199931" lon="12.96592337251271"><ele>663.2</ele><time>2026-04-18T07:35:55.001Z</time></trkpt><trkpt lat="43.2234250725689" lon="12.965959629188324"><ele>663.0</ele><time>2026-04-18T07:35:56.001Z</time></trkpt><trkpt lat="43.223340338975895" lon="12.966005718644197"><ele>663.0</ele><time>2026-04-18T07:35:57.001Z</time></trkpt><trkpt lat="43.223258228501074" lon="12.96605080671112"><ele>663.0</ele><time>2026-04-18T07:35:58.001Z</time></trkpt><trkpt lat="43.223189855103946" lon="12.966069052821847"><ele>663.0</ele><time>2026-04-18T07:35:59.001Z</time></trkpt><trkpt lat="43.22312946494698" lon="12.966104168951672"><ele>663.0</ele><time>2026-04-18T07:36:00.001Z</time></trkpt><trkpt lat="43.22305639307954" lon="12.96617962129989"><ele>663.0</ele><time>2026-04-18T07:36:01.001Z</time></trkpt><trkpt lat="43.222989639076715" lon="12.966258281428154"><ele>663.0</ele><time>2026-04-18T07:36:02.001Z</time></trkpt><trkpt lat="43.2229054569259" lon="12.966323215024628"><ele>669.0</ele><time>2026-04-18T07:36:03.001Z</time></trkpt><trkpt lat="43.222835651177945" lon="12.966367212973026"><ele>675.0</ele><time>2026-04-18T07:36:04.001Z</time></trkpt><trkpt lat="43.22276790843825" lon="12.966382526340546"><ele>681.0</ele><time>2026-04-18T07:36:05.001Z</time></trkpt><trkpt lat="43.22269410449671" lon="12.966400615718387"><ele>687.0</ele><time>2026-04-18T07:36:06.001Z</time></trkpt><trkpt lat="43.222626682377225" lon="12.966410329218704"><ele>693.0</ele><time>2026-04-18T07:36:07.001Z</time></trkpt><trkpt lat="43.22250442222435" lon="12.966411810485729"><ele>699.0</ele><time>2026-04-18T07:36:09.001Z</time></trkpt><trkpt lat="43.222439468795095" lon="12.966451637605156"><ele>699.0</ele><time>2026-04-18T07:36:10.001Z</time></trkpt><trkpt lat="43.22238053928161" lon="12.966482943854324"><ele>699.0</ele><time>2026-04-18T07:36:11.001Z</time></trkpt><trkpt lat="43.22229493613136" lon="12.966454870793603"><ele>699.0</ele><time>2026-04-18T07:36:13.001Z</time></trkpt><trkpt lat="43.222223236190395" lon="12.966437118201876"><ele>699.0</ele><time>2026-04-18T07:36:15.001Z</time></trkpt><trkpt lat="43.22215942599623" lon="12.96641366342524"><ele>699.0</ele><time>2026-04-18T07:36:16.001Z</time></trkpt><trkpt lat="43.22203268048036" lon="12.966407558383949"><ele>699.0</ele><time>2026-04-18T07:36:18.001Z</time></trkpt><trkpt lat="43.22195674123215" lon="12.966407114053146"><ele>703.4000000000001</ele><time>2026-04-18T07:36:19.001Z</time></trkpt><trkpt lat="43.221848736570244" lon="12.966411167876712"><ele>707.8</ele><time>2026-04-18T07:36:20.001Z</time></trkpt><trkpt lat="43.2217483589105" lon="12.966425472640417"><ele>712.2</ele><time>2026-04-18T07:36:21.001Z</time></trkpt><trkpt lat="43.221626548625046" lon="12.966447591660213"><ele>716.5999999999999</ele><time>2026-04-18T07:36:22.001Z</time></trkpt><trkpt lat="43.221534501002964" lon="12.966445880497671"><ele>721.0</ele><time>2026-04-18T07:36:23.001Z</time></trkpt><trkpt lat="43.22143751981685" lon="12.966446853613894"><ele>722.1999999999999</ele><time>2026-04-18T07:36:24.001Z</time></trkpt><trkpt lat="43.22135375938934" lon="12.966472881373395"><ele>723.4</ele><time>2026-04-18T07:36:25.001Z</time></trkpt><trkpt lat="43.22127055687603" lon="12.966487004111327"><ele>724.6</ele><time>2026-04-18T07:36:26.001Z</time></trkpt><trkpt lat="43.22117929260095" lon="12.966274588780296"><ele>725.8</ele><time>2026-04-18T07:36:27.001Z</time></trkpt><trkpt lat="43.22110110443881" lon="12.966283681779752"><ele>727.0</ele><time>2026-04-18T07:36:28.001Z</time></trkpt><trkpt lat="43.22093380723652" lon="12.966312600949024"><ele>727.0</ele><time>2026-04-18T07:36:29.001Z</time></trkpt><trkpt lat="43.2208446653715" lon="12.966336077137852"><ele>727.0</ele><time>2026-04-18T07:36:30.001Z</time></trkpt><trkpt lat="43.22076929589353" lon="12.96636012635955"><ele>727.0</ele><time>2026-04-18T07:36:31.001Z</time></trkpt><trkpt lat="43.22069024036871" lon="12.9663930468399"><ele>727.0</ele><time>2026-04-18T07:36:32.001Z</time></trkpt><trkpt lat="43.22060721178016" lon="12.966429406228189"><ele>727.0</ele><time>2026-04-18T07:36:33.001Z</time></trkpt><trkpt lat="43.22052807561689" lon="12.96647652950031"><ele>727.0</ele><time>2026-04-18T07:36:34.001Z</time></trkpt><trkpt lat="43.22044727321438" lon="12.966500475521892"><ele>731.4000000000001</ele><time>2026-04-18T07:36:35.001Z</time></trkpt><trkpt lat="43.22038762007965" lon="12.966537588515287"><ele>735.8000000000001</ele><time>2026-04-18T07:36:36.001Z</time></trkpt><trkpt lat="43.22032178968406" lon="12.966567047056962"><ele>740.2</ele><time>2026-04-18T07:36:40.001Z</time></trkpt><trkpt lat="43.22025288752077" lon="12.966616716885124"><ele>744.6</ele><time>2026-04-18T07:36:42Z</time></trkpt><trkpt lat="43.22014518407455" lon="12.966667386023444"><ele>749.0</ele><time>2026-04-18T07:36:44Z</time></trkpt><trkpt lat="43.22001664195046" lon="12.966688303644073"><ele>743.0</ele><time>2026-04-18T07:36:46Z</time></trkpt><trkpt lat="43.219948008033114" lon="12.96670640263488"><ele>737.0</ele><time>2026-04-18T07:36:47Z</time></trkpt><trkpt lat="43.21982339638693" lon="12.966723129215458"><ele>731.0</ele><time>2026-04-18T07:36:49Z</time></trkpt><trkpt lat="43.219745607903086" lon="12.966724684782902"><ele>725.0</ele><time>2026-04-18T07:36:50Z</time></trkpt><trkpt lat="43.219667341919845" lon="12.966717403388275"><ele>719.0</ele><time>2026-04-18T07:36:51Z</time></trkpt><trkpt lat="43.21956294748147" lon="12.96670752700509"><ele>718.9999999999999</ele><time>2026-04-18T07:36:52Z</time></trkpt><trkpt lat="43.219482676340874" lon="12.966681339815302"><ele>719.0</ele><time>2026-04-18T07:36:53Z</time></trkpt><trkpt lat="43.219421693222046" lon="12.966703450638832"><ele>719.0</ele><time>2026-04-18T07:36:54Z</time></trkpt><trkpt lat="43.219357238422354" lon="12.966665225494989"><ele>719.0</ele><time>2026-04-18T07:36:55Z</time></trkpt><trkpt lat="43.219283523370514" lon="12.96663840125688"><ele>719.0</ele><time>2026-04-18T07:36:56Z</time></trkpt><trkpt lat="43.21921430077396" lon="12.966621238488175"><ele>718.9999999999999</ele><time>2026-04-18T07:36:57Z</time></trkpt><trkpt lat="43.21912741585796" lon="12.966615269647601"><ele>719.0</ele><time>2026-04-18T07:36:58Z</time></trkpt><trkpt lat="43.21905859734901" lon="12.96660874735084"><ele>723.8333333333333</ele><time>2026-04-18T07:36:59Z</time></trkpt><trkpt lat="43.21898381566295" lon="12.966610399265399"><ele>728.6666666666666</ele><time>2026-04-18T07:37:01Z</time></trkpt><trkpt lat="43.21889664556117" lon="12.966647886627744"><ele>733.5</ele><time>2026-04-18T07:37:04Z</time></trkpt><trkpt lat="43.218828637197106" lon="12.966662488049433"><ele>738.3333333333334</ele><time>2026-04-18T07:37:07Z</time></trkpt><trkpt lat="43.21872504135983" lon="12.966686612143965"><ele>743.1666666666667</ele><time>2026-04-18T07:37:12Z</time></trkpt><trkpt lat="43.21865778760709" lon="12.966718161781033"><ele>748.0</ele><time>2026-04-18T07:37:14Z</time></trkpt><trkpt lat="43.21857831410929" lon="12.966752808080066"><ele>748.0</ele><time>2026-04-18T07:37:18Z</time></trkpt><trkpt lat="43.218505036310205" lon="12.966794957467933"><ele>748.0</ele><time>2026-04-18T07:37:23Z</time></trkpt><trkpt lat="43.21846511900081" lon="12.9668748673999"><ele>748.0</ele><time>2026-04-18T07:37:25Z</time></trkpt><trkpt lat="43.218417550545716" lon="12.966950254540233"><ele>748.0</ele><time>2026-04-18T07:37:27Z</time></trkpt><trkpt lat="43.21841474369009" lon="12.96705964920036"><ele>748.0</ele><time>2026-04-18T07:37:31Z</time></trkpt><trkpt lat="43.218410060687155" lon="12.967153927994097"><ele>748.0</ele><time>2026-04-18T07:37:33Z</time></trkpt><trkpt lat="43.218400906375834" lon="12.967249312231138"><ele>748.0</ele><time>2026-04-18T07:37:35Z</time></trkpt><trkpt lat="43.21834237687496" lon="12.967331965519124"><ele>748.0</ele><time>2026-04-18T07:37:37Z</time></trkpt><trkpt lat="43.21827901666643" lon="12.967405921314331"><ele>748.0</ele><time>2026-04-18T07:37:39Z</time></trkpt><trkpt lat="43.21818610842048" lon="12.96750175830698"><ele>748.0</ele><time>2026-04-18T07:37:41Z</time></trkpt><trkpt lat="43.21810224562205" lon="12.967644767081078"><ele>748.0</ele><time>2026-04-18T07:37:43Z</time></trkpt><trkpt lat="43.21805937598847" lon="12.96771586084975"><ele>748.0</ele><time>2026-04-18T07:37:44Z</time></trkpt><trkpt lat="43.21801921915545" lon="12.967797285811226"><ele>753.8</ele><time>2026-04-18T07:37:45Z</time></trkpt><trkpt lat="43.21798450891737" lon="12.967873152704504"><ele>759.5999999999999</ele><time>2026-04-18T07:37:46Z</time></trkpt><trkpt lat="43.217908779345784" lon="12.968018016539656"><ele>765.4000000000001</ele><time>2026-04-18T07:37:48Z</time></trkpt><trkpt lat="43.217867341964826" lon="12.968119225567351"><ele>771.2</ele><time>2026-04-18T07:37:49Z</time></trkpt><trkpt lat="43.2178383105958" lon="12.96820699890989"><ele>777.0</ele><time>2026-04-18T07:37:50Z</time></trkpt><trkpt lat="43.217768142165" lon="12.968303974020618"><ele>772.6</ele><time>2026-04-18T07:37:52Z</time></trkpt><trkpt lat="43.21769691127846" lon="12.968437252564526"><ele>768.2</ele><time>2026-04-18T07:37:54Z</time></trkpt><trkpt lat="43.21764143353189" lon="12.96852331322901"><ele>763.8</ele><time>2026-04-18T07:37:55Z</time></trkpt><trkpt lat="43.21757064048261" lon="12.968609189404802"><ele>759.4</ele><time>2026-04-18T07:37:56Z</time></trkpt><trkpt lat="43.217493238902456" lon="12.968654167223587"><ele>755.0</ele><time>2026-04-18T07:37:57Z</time></trkpt><trkpt lat="43.21742166018869" lon="12.968696185265607"><ele>755.0</ele><time>2026-04-18T07:37:58Z</time></trkpt><trkpt lat="43.21732442791885" lon="12.968745574313983"><ele>755.0</ele><time>2026-04-18T07:37:59Z</time></trkpt><trkpt lat="43.21722276932926" lon="12.968766158334557"><ele>755.0</ele><time>2026-04-18T07:38:00Z</time></trkpt><trkpt lat="43.21713314480719" lon="12.96876518023114"><ele>755.0</ele><time>2026-04-18T07:38:01Z</time></trkpt><trkpt lat="43.217046364663645" lon="12.968864576256582"><ele>755.0</ele><time>2026-04-18T07:38:03Z</time></trkpt><trkpt lat="43.21691512382583" lon="12.968907357365078"><ele>759.6</ele><time>2026-04-18T07:38:05Z</time></trkpt><trkpt lat="43.216808431230234" lon="12.968936482378167"><ele>764.2</ele><time>2026-04-18T07:38:06Z</time></trkpt><trkpt lat="43.21671505616577" lon="12.9689551566692"><ele>768.8</ele><time>2026-04-18T07:38:07Z</time></trkpt><trkpt lat="43.21660339825094" lon="12.968985251365215"><ele>773.4</ele><time>2026-04-18T07:38:08Z</time></trkpt><trkpt lat="43.21650553754554" lon="12.968976047812957"><ele>778.0</ele><time>2026-04-18T07:38:09Z</time></trkpt><trkpt lat="43.21640340526233" lon="12.969011903482015"><ele>783.5</ele><time>2026-04-18T07:38:10Z</time></trkpt><trkpt lat="43.2162949767434" lon="12.969000581377262"><ele>789.0</ele><time>2026-04-18T07:38:11Z</time></trkpt><trkpt lat="43.21618829370925" lon="12.96899045567865"><ele>794.5</ele><time>2026-04-18T07:38:12Z</time></trkpt><trkpt lat="43.216053119714054" lon="12.968755040415475"><ele>800.0</ele><time>2026-04-18T07:38:13Z</time></trkpt><trkpt lat="43.2159187315804" lon="12.968764674091371"><ele>800.0</ele><time>2026-04-18T07:38:14Z</time></trkpt><trkpt lat="43.21581820387139" lon="12.968768609579211"><ele>800.0</ele><time>2026-04-18T07:38:15Z</time></trkpt><trkpt lat="43.21571093194287" lon="12.968771763731835"><ele>800.0</ele><time>2026-04-18T07:38:16Z</time></trkpt><trkpt lat="43.21557413723159" lon="12.968776770560591"><ele>800.0</ele><time>2026-04-18T07:38:17Z</time></trkpt><trkpt lat="43.21546464305784" lon="12.968783718214581"><ele>801.2</ele><time>2026-04-18T07:38:18Z</time></trkpt><trkpt lat="43.21535323903222" lon="12.968796497206041"><ele>802.4</ele><time>2026-04-18T07:38:19Z</time></trkpt><trkpt lat="43.21522789227637" lon="12.968818365240287"><ele>803.5999999999999</ele><time>2026-04-18T07:38:20Z</time></trkpt><trkpt lat="43.21513667167378" lon="12.96884421368944"><ele>804.8</ele><time>2026-04-18T07:38:21Z</time></trkpt><trkpt lat="43.21503711891591" lon="12.968877089501296"><ele>806.0</ele><time>2026-04-18T07:38:22Z</time></trkpt><trkpt lat="43.2149654974653" lon="12.968903676342302"><ele>806.0000000000001</ele><time>2026-04-18T07:38:24Z</time></trkpt><trkpt lat="43.214895346447925" lon="12.968933136789538"><ele>806.0</ele><time>2026-04-18T07:38:26Z</time></trkpt><trkpt lat="43.21481379798986" lon="12.96896762017714"><ele>806.0</ele><time>2026-04-18T07:38:28Z</time></trkpt><trkpt lat="43.21474494137154" lon="12.968999535083695"><ele>806.0</ele><time>2026-04-18T07:38:31Z</time></trkpt><trkpt lat="43.214664288840204" lon="12.969039080717675"><ele>806.0000000000001</ele><time>2026-04-18T07:38:33.001Z</time></trkpt><trkpt lat="43.21458748066651" lon="12.969078602738731"><ele>806.0</ele><time>2026-04-18T07:38:35.001Z</time></trkpt><trkpt lat="43.214510110863706" lon="12.96914542527247"><ele>804.1999999999999</ele><time>2026-04-18T07:38:37.001Z</time></trkpt><trkpt lat="43.21443354149906" lon="12.969213412469477"><ele>802.4</ele><time>2026-04-18T07:38:40.001Z</time></trkpt><trkpt lat="43.214423281025965" lon="12.969327020666332"><ele>800.6</ele><time>2026-04-18T07:38:43.001Z</time></trkpt><trkpt lat="43.2144784920203" lon="12.969441597996957"><ele>798.8</ele><time>2026-04-18T07:38:45.001Z</time></trkpt><trkpt lat="43.21453128337906" lon="12.96956146355822"><ele>797.0</ele><time>2026-04-18T07:38:47.001Z</time></trkpt><trkpt lat="43.21455200565323" lon="12.969668753162633"><ele>797.0</ele><time>2026-04-18T07:38:49.001Z</time></trkpt><trkpt lat="43.21449979915702" lon="12.96980386075168"><ele>797.0</ele><time>2026-04-18T07:38:51.001Z</time></trkpt><trkpt lat="43.21439844974593" lon="12.96998868894555"><ele>797.0</ele><time>2026-04-18T07:38:53.001Z</time></trkpt><trkpt lat="43.21430914814936" lon="12.970072261067509"><ele>797.0</ele><time>2026-04-18T07:38:54.001Z</time></trkpt><trkpt lat="43.214232575463285" lon="12.970151793738058"><ele>797.3333333333334</ele><time>2026-04-18T07:38:55.001Z</time></trkpt><trkpt lat="43.21417131719133" lon="12.97021552685139"><ele>797.6666666666667</ele><time>2026-04-18T07:38:56.001Z</time></trkpt><trkpt lat="43.21410449999444" lon="12.970273610573358"><ele>798.0</ele><time>2026-04-18T07:38:57.001Z</time></trkpt><trkpt lat="43.214026453469856" lon="12.970330346197557"><ele>798.3333333333333</ele><time>2026-04-18T07:38:58.001Z</time></trkpt><trkpt lat="43.213966176348634" lon="12.970386028658664"><ele>798.6666666666666</ele><time>2026-04-18T07:38:59.001Z</time></trkpt><trkpt lat="43.2138925727496" lon="12.970408614468937"><ele>799.0</ele><time>2026-04-18T07:39:00.001Z</time></trkpt><trkpt lat="43.2138263341719" lon="12.970437746370994"><ele>799.0</ele><time>2026-04-18T07:39:01.001Z</time></trkpt><trkpt lat="43.21372205819487" lon="12.970490758575535"><ele>799.0</ele><time>2026-04-18T07:39:02.001Z</time></trkpt><trkpt lat="43.213633778044496" lon="12.970545185034918"><ele>799.0</ele><time>2026-04-18T07:39:03.001Z</time></trkpt><trkpt lat="43.21357185074625" lon="12.970578026805624"><ele>799.0</ele><time>2026-04-18T07:39:04.001Z</time></trkpt><trkpt lat="43.21350199393772" lon="12.970616849170918"><ele>799.0</ele><time>2026-04-18T07:39:05.001Z</time></trkpt><trkpt lat="43.21337776722321" lon="12.970684725425809"><ele>798.9999999999999</ele><time>2026-04-18T07:39:07.001Z</time></trkpt><trkpt lat="43.21331130541111" lon="12.970741530427864"><ele>799.0</ele><time>2026-04-18T07:39:08.001Z</time></trkpt><trkpt lat="43.213248796321466" lon="12.97078367399644"><ele>799.0</ele><time>2026-04-18T07:39:09.001Z</time></trkpt><trkpt lat="43.213162387443646" lon="12.970844779810891"><ele>799.0</ele><time>2026-04-18T07:39:11.001Z</time></trkpt><trkpt lat="43.21306463618482" lon="12.97091984726122"><ele>798.9999999999999</ele><time>2026-04-18T07:39:13.001Z</time></trkpt><trkpt lat="43.21300134219476" lon="12.970974834558286"><ele>799.0</ele><time>2026-04-18T07:39:14.001Z</time></trkpt><trkpt lat="43.212895286125715" lon="12.971013465059162"><ele>801.0</ele><time>2026-04-18T07:39:16.001Z</time></trkpt><trkpt lat="43.21279768428101" lon="12.97106792204885"><ele>803.0</ele><time>2026-04-18T07:39:18.001Z</time></trkpt><trkpt lat="43.21270360621417" lon="12.971080704820501"><ele>805.0</ele><time>2026-04-18T07:39:20.001Z</time></trkpt><trkpt lat="43.212618543237326" lon="12.971116534800068"><ele>807.0</ele><time>2026-04-18T07:39:22.001Z</time></trkpt><trkpt lat="43.212531141362476" lon="12.97113692751185"><ele>809.0</ele><time>2026-04-18T07:39:25.001Z</time></trkpt><trkpt lat="43.212493290858994" lon="12.97123303955849"><ele>809.0000000000001</ele><time>2026-04-18T07:39:28.001Z</time></trkpt><trkpt lat="43.212472279381664" lon="12.971329643780434"><ele>809.0</ele><time>2026-04-18T07:39:30.001Z</time></trkpt><trkpt lat="43.21245852100505" lon="12.971441997128839"><ele>809.0</ele><time>2026-04-18T07:39:32.001Z</time></trkpt><trkpt lat="43.212467893058665" lon="12.97154202715052"><ele>809.0</ele><time>2026-04-18T07:39:34.001Z</time></trkpt><trkpt lat="43.212472336046645" lon="12.971671238728355"><ele>809.0000000000001</ele><time>2026-04-18T07:39:36.001Z</time></trkpt><trkpt lat="43.212472767220504" lon="12.97177981805077"><ele>809.0</ele><time>2026-04-18T07:39:38.001Z</time></trkpt><trkpt lat="43.21245882543746" lon="12.971892403307693"><ele>808.0</ele><time>2026-04-18T07:39:40.001Z</time></trkpt><trkpt lat="43.21239049599461" lon="12.97199542527073"><ele>807.0</ele><time>2026-04-18T07:39:43.001Z</time></trkpt><trkpt lat="43.21234936310124" lon="12.972111297937662"><ele>806.0</ele><time>2026-04-18T07:39:45.001Z</time></trkpt><trkpt lat="43.212383833799166" lon="12.972229362576657"><ele>805.0</ele><time>2026-04-18T07:39:47.001Z</time></trkpt><trkpt lat="43.21237735986123" lon="12.972351458782011"><ele>804.0</ele><time>2026-04-18T07:39:50.001Z</time></trkpt><trkpt lat="43.21235226824745" lon="12.972459840304527"><ele>804.0</ele><time>2026-04-18T07:39:52.001Z</time></trkpt><trkpt lat="43.21232315424546" lon="12.972549441922268"><ele>804.0</ele><time>2026-04-18T07:39:53.001Z</time></trkpt><trkpt lat="43.21232173172495" lon="12.972417407315598"><ele>804.0</ele><time>2026-04-18T07:40:00.001Z</time></trkpt><trkpt lat="43.212370569731284" lon="12.972288295450216"><ele>804.0</ele><time>2026-04-18T07:40:02.001Z</time></trkpt><trkpt lat="43.212387825242224" lon="12.972200316832987"><ele>804.0</ele><time>2026-04-18T07:40:03.001Z</time></trkpt><trkpt lat="43.21241896163443" lon="12.97204912433444"><ele>804.0</ele><time>2026-04-18T07:40:05.001Z</time></trkpt><trkpt lat="43.212503057494274" lon="12.971916960341085"><ele>804.0</ele><time>2026-04-18T07:40:07.001Z</time></trkpt><trkpt lat="43.212565813767235" lon="12.971831612369696"><ele>804.0</ele><time>2026-04-18T07:40:09.001Z</time></trkpt><trkpt lat="43.21261739736647" lon="12.971739622148307"><ele>804.0</ele><time>2026-04-18T07:40:11.001Z</time></trkpt><trkpt lat="43.21267905417434" lon="12.97164529728831"><ele>804.0</ele><time>2026-04-18T07:40:13.001Z</time></trkpt><trkpt lat="43.21274679841022" lon="12.97154071965721"><ele>804.8333333333334</ele><time>2026-04-18T07:40:15.001Z</time></trkpt><trkpt lat="43.21282708402605" lon="12.971426062038079"><ele>805.6666666666667</ele><time>2026-04-18T07:40:17.001Z</time></trkpt><trkpt lat="43.21287200844034" lon="12.97136259384994"><ele>806.5</ele><time>2026-04-18T07:40:19.001Z</time></trkpt><trkpt lat="43.21292478167003" lon="12.971286353001807"><ele>807.3333333333334</ele><time>2026-04-18T07:40:23.001Z</time></trkpt><trkpt lat="43.21298475763919" lon="12.971214254621357"><ele>808.1666666666667</ele><time>2026-04-18T07:40:26.001Z</time></trkpt><trkpt lat="43.2130477883111" lon="12.971201045737125"><ele>809.0</ele><time>2026-04-18T07:40:28.001Z</time></trkpt><trkpt lat="43.213116443697224" lon="12.971197577643823"><ele>803.4000000000001</ele><time>2026-04-18T07:40:30.001Z</time></trkpt><trkpt lat="43.21320395440698" lon="12.971231912359059"><ele>797.8</ele><time>2026-04-18T07:40:32.001Z</time></trkpt><trkpt lat="43.21328168227212" lon="12.971290796962633"><ele>792.2</ele><time>2026-04-18T07:40:34.001Z</time></trkpt><trkpt lat="43.21333195469748" lon="12.971381351218552"><ele>786.5999999999999</ele><time>2026-04-18T07:40:36.001Z</time></trkpt><trkpt lat="43.21336857448221" lon="12.971541007848899"><ele>781.0</ele><time>2026-04-18T07:40:38.001Z</time></trkpt><trkpt lat="43.21338936619727" lon="12.971665076646172"><ele>779.0</ele><time>2026-04-18T07:40:40.001Z</time></trkpt><trkpt lat="43.21342327996758" lon="12.971815508724282"><ele>777.0</ele><time>2026-04-18T07:40:42.001Z</time></trkpt><trkpt lat="43.21346609140734" lon="12.971888798540242"><ele>775.0</ele><time>2026-04-18T07:40:44.001Z</time></trkpt><trkpt lat="43.213552454669944" lon="12.971940154952481"><ele>773.0</ele><time>2026-04-18T07:40:47.001Z</time></trkpt><trkpt lat="43.2136124435055" lon="12.97201447944661"><ele>771.0</ele><time>2026-04-18T07:40:49.001Z</time></trkpt><trkpt lat="43.21369056039082" lon="12.9721070034031"><ele>771.0</ele><time>2026-04-18T07:40:51.001Z</time></trkpt><trkpt lat="43.21376901502667" lon="12.972213635729526"><ele>771.0</ele><time>2026-04-18T07:40:53.001Z</time></trkpt><trkpt lat="43.21385026568565" lon="12.972270133971634"><ele>771.0</ele><time>2026-04-18T07:40:55.001Z</time></trkpt><trkpt lat="43.21390521506198" lon="12.972347131982627"><ele>771.0</ele><time>2026-04-18T07:40:57.001Z</time></trkpt><trkpt lat="43.21396954148241" lon="12.972420064923318"><ele>771.0</ele><time>2026-04-18T07:40:59Z</time></trkpt><trkpt lat="43.213996030814315" lon="12.972500483994079"><ele>771.0</ele><time>2026-04-18T07:41:00Z</time></trkpt><trkpt lat="43.214028399569074" lon="12.972659372259754"><ele>764.3333333333334</ele><time>2026-04-18T07:41:02Z</time></trkpt><trkpt lat="43.21408764503478" lon="12.972774399874115"><ele>757.6666666666666</ele><time>2026-04-18T07:41:04Z</time></trkpt><trkpt lat="43.21412256802385" lon="12.972872847499602"><ele>751.0</ele><time>2026-04-18T07:41:06Z</time></trkpt><trkpt lat="43.21413109723118" lon="12.972971143004935"><ele>744.3333333333333</ele><time>2026-04-18T07:41:08Z</time></trkpt><trkpt lat="43.21412550741578" lon="12.973081157441044"><ele>737.6666666666666</ele><time>2026-04-18T07:41:10Z</time></trkpt><trkpt lat="43.21413896268657" lon="12.97317386379301"><ele>731.0</ele><time>2026-04-18T07:41:12Z</time></trkpt><trkpt lat="43.21410623792591" lon="12.973253271988106"><ele>731.0</ele><time>2026-04-18T07:41:14Z</time></trkpt><trkpt lat="43.214161323090636" lon="12.97330614229326"><ele>731.0</ele><time>2026-04-18T07:41:17Z</time></trkpt><trkpt lat="43.214253427994045" lon="12.973373413218626"><ele>731.0</ele><time>2026-04-18T07:41:19Z</time></trkpt><trkpt lat="43.21430221598975" lon="12.973436260897687"><ele>731.0</ele><time>2026-04-18T07:41:20Z</time></trkpt><trkpt lat="43.21435273797398" lon="12.973502957900354"><ele>731.0</ele><time>2026-04-18T07:41:21Z</time></trkpt><trkpt lat="43.21440981728843" lon="12.97356070570898"><ele>731.0</ele><time>2026-04-18T07:41:22Z</time></trkpt><trkpt lat="43.214486085241994" lon="12.973611603858108"><ele>733.1999999999999</ele><time>2026-04-18T07:41:23Z</time></trkpt><trkpt lat="43.21454482423159" lon="12.97364869077186"><ele>735.4</ele><time>2026-04-18T07:41:24Z</time></trkpt><trkpt lat="43.21463554667273" lon="12.973691767508774"><ele>737.6</ele><time>2026-04-18T07:41:26Z</time></trkpt><trkpt lat="43.21474572595961" lon="12.97375463449937"><ele>739.8</ele><time>2026-04-18T07:41:28Z</time></trkpt><trkpt lat="43.21486183286829" lon="12.973813558717588"><ele>742.0</ele><time>2026-04-18T07:41:30Z</time></trkpt><trkpt lat="43.21498690379444" lon="12.973846467744842"><ele>735.8</ele><time>2026-04-18T07:41:32Z</time></trkpt><trkpt lat="43.21506497307234" lon="12.973864474912297"><ele>729.6</ele><time>2026-04-18T07:41:33Z</time></trkpt><trkpt lat="43.21514070978746" lon="12.973896452945159"><ele>723.4</ele><time>2026-04-18T07:41:34Z</time></trkpt><trkpt lat="43.2152210667119" lon="12.973928380035424"><ele>717.1999999999999</ele><time>2026-04-18T07:41:35Z</time></trkpt><trkpt lat="43.21531139658574" lon="12.97398312986366"><ele>711.0</ele><time>2026-04-18T07:41:36Z</time></trkpt><trkpt lat="43.21540964226725" lon="12.974082234057516"><ele>711.0</ele><time>2026-04-18T07:41:37Z</time></trkpt><trkpt lat="43.21550189778409" lon="12.974175635086334"><ele>711.0</ele><time>2026-04-18T07:41:38Z</time></trkpt><trkpt lat="43.21557367781562" lon="12.974257917429311"><ele>711.0</ele><time>2026-04-18T07:41:39Z</time></trkpt><trkpt lat="43.2156677881737" lon="12.974320960974515"><ele>711.0</ele><time>2026-04-18T07:41:40Z</time></trkpt><trkpt lat="43.21574689674067" lon="12.974371138360038"><ele>711.0</ele><time>2026-04-18T07:41:41Z</time></trkpt><trkpt lat="43.21581873484772" lon="12.974423180603148"><ele>710.8333333333334</ele><time>2026-04-18T07:41:42Z</time></trkpt><trkpt lat="43.21589334675522" lon="12.974508610965396"><ele>710.6666666666666</ele><time>2026-04-18T07:41:43Z</time></trkpt><trkpt lat="43.21595884508296" lon="12.974581382662757"><ele>710.5</ele><time>2026-04-18T07:41:44Z</time></trkpt><trkpt lat="43.216025829264744" lon="12.974642596582385"><ele>710.3333333333333</ele><time>2026-04-18T07:41:45Z</time></trkpt><trkpt lat="43.21609624173063" lon="12.974707205081248"><ele>710.1666666666666</ele><time>2026-04-18T07:41:46Z</time></trkpt><trkpt lat="43.21615524844442" lon="12.974773371038173"><ele>710.0</ele><time>2026-04-18T07:41:47Z</time></trkpt><trkpt lat="43.21621273998977" lon="12.974824726752164"><ele>710.0</ele><time>2026-04-18T07:41:48Z</time></trkpt><trkpt lat="43.21626692780041" lon="12.974876016809302"><ele>710.0</ele><time>2026-04-18T07:41:49Z</time></trkpt><trkpt lat="43.21635960297902" lon="12.974983423158678"><ele>710.0</ele><time>2026-04-18T07:41:51Z</time></trkpt><trkpt lat="43.216414013293914" lon="12.975046166447017"><ele>710.0</ele><time>2026-04-18T07:41:52Z</time></trkpt><trkpt lat="43.21647798430035" lon="12.975096842499868"><ele>710.0</ele><time>2026-04-18T07:41:53Z</time></trkpt><trkpt lat="43.21653394359127" lon="12.975136738784412"><ele>710.0</ele><time>2026-04-18T07:41:54Z</time></trkpt><trkpt lat="43.21658845756185" lon="12.975191802802264"><ele>707.6666666666666</ele><time>2026-04-18T07:41:55Z</time></trkpt><trkpt lat="43.21667135365087" lon="12.975301163120449"><ele>705.3333333333333</ele><time>2026-04-18T07:41:57Z</time></trkpt><trkpt lat="43.216706094896345" lon="12.97538019667242"><ele>703.0</ele><time>2026-04-18T07:41:58Z</time></trkpt><trkpt lat="43.21672587639412" lon="12.975464958206839"><ele>700.6666666666666</ele><time>2026-04-18T07:41:59Z</time></trkpt><trkpt lat="43.21674468940436" lon="12.975548958130382"><ele>698.3333333333334</ele><time>2026-04-18T07:42:00Z</time></trkpt><trkpt lat="43.21677003418736" lon="12.975629524350351"><ele>696.0</ele><time>2026-04-18T07:42:01Z</time></trkpt><trkpt lat="43.21684088767528" lon="12.975780075650588"><ele>696.2857142857142</ele><time>2026-04-18T07:42:03Z</time></trkpt><trkpt lat="43.21688046163775" lon="12.975866223288877"><ele>696.5714285714286</ele><time>2026-04-18T07:42:04Z</time></trkpt><trkpt lat="43.216917922352216" lon="12.975942879756234"><ele>696.8571428571429</ele><time>2026-04-18T07:42:05Z</time></trkpt><trkpt lat="43.216957821734674" lon="12.976026309366045"><ele>697.1428571428571</ele><time>2026-04-18T07:42:06Z</time></trkpt><trkpt lat="43.21699254657847" lon="12.976114290986937"><ele>697.4285714285714</ele><time>2026-04-18T07:42:07Z</time></trkpt><trkpt lat="43.21701789567859" lon="12.976194229196564"><ele>697.7142857142857</ele><time>2026-04-18T07:42:08Z</time></trkpt><trkpt lat="43.2170486807997" lon="12.976320875777537"><ele>698.0</ele><time>2026-04-18T07:42:10Z</time></trkpt><trkpt lat="43.21706761355957" lon="12.976444037741084"><ele>698.0</ele><time>2026-04-18T07:42:12Z</time></trkpt><trkpt lat="43.21708055880235" lon="12.976586432759738"><ele>698.0</ele><time>2026-04-18T07:42:14Z</time></trkpt><trkpt lat="43.21707257610857" lon="12.976676064192796"><ele>698.0</ele><time>2026-04-18T07:42:15Z</time></trkpt><trkpt lat="43.21703301268683" lon="12.976808399590205"><ele>698.0</ele><time>2026-04-18T07:42:17Z</time></trkpt><trkpt lat="43.217005984741334" lon="12.976895123602516"><ele>698.0</ele><time>2026-04-18T07:42:18Z</time></trkpt><trkpt lat="43.21698416983478" lon="12.976987883359001"><ele>698.0</ele><time>2026-04-18T07:42:19Z</time></trkpt><trkpt lat="43.21697850868084" lon="12.977100584678356"><ele>696.2</ele><time>2026-04-18T07:42:20Z</time></trkpt><trkpt lat="43.21696964579504" lon="12.977196466949065"><ele>694.4</ele><time>2026-04-18T07:42:21Z</time></trkpt><trkpt lat="43.21694839317741" lon="12.977305212148359"><ele>692.6</ele><time>2026-04-18T07:42:22Z</time></trkpt><trkpt lat="43.216917028856635" lon="12.97741801617685"><ele>690.8000000000001</ele><time>2026-04-18T07:42:23Z</time></trkpt><trkpt lat="43.21687696047743" lon="12.977559995313777"><ele>689.0</ele><time>2026-04-18T07:42:24Z</time></trkpt><trkpt lat="43.21683451378117" lon="12.977695437158987"><ele>686.3333333333333</ele><time>2026-04-18T07:42:25Z</time></trkpt><trkpt lat="43.216807169265934" lon="12.977803775461782"><ele>683.6666666666666</ele><time>2026-04-18T07:42:26Z</time></trkpt><trkpt lat="43.21678009213542" lon="12.977914846787428"><ele>681.0</ele><time>2026-04-18T07:42:27Z</time></trkpt><trkpt lat="43.216744174376785" lon="12.97803631112259"><ele>678.3333333333334</ele><time>2026-04-18T07:42:28Z</time></trkpt><trkpt lat="43.21670958763843" lon="12.978161608409165"><ele>675.6666666666667</ele><time>2026-04-18T07:42:29Z</time></trkpt><trkpt lat="43.216669931895844" lon="12.978254753948011"><ele>673.0</ele><time>2026-04-18T07:42:30Z</time></trkpt><trkpt lat="43.216631297183596" lon="12.978346839999759"><ele>672.5</ele><time>2026-04-18T07:42:31Z</time></trkpt><trkpt lat="43.216596840234274" lon="12.978432821555028"><ele>672.0</ele><time>2026-04-18T07:42:32Z</time></trkpt><trkpt lat="43.21655453972908" lon="12.978510311368213"><ele>671.5</ele><time>2026-04-18T07:42:33Z</time></trkpt><trkpt lat="43.21649526854825" lon="12.978582060489416"><ele>671.0</ele><time>2026-04-18T07:42:34Z</time></trkpt><trkpt lat="43.21643398451976" lon="12.978656283423398"><ele>670.5</ele><time>2026-04-18T07:42:35Z</time></trkpt><trkpt lat="43.216369356286776" lon="12.978721852040273"><ele>670.0</ele><time>2026-04-18T07:42:36Z</time></trkpt><trkpt lat="43.21631107361333" lon="12.978781760930696"><ele>670.0</ele><time>2026-04-18T07:42:37Z</time></trkpt><trkpt lat="43.21625138207602" lon="12.978867442741718"><ele>670.0</ele><time>2026-04-18T07:42:38Z</time></trkpt><trkpt lat="43.216193399484254" lon="12.978935680851079"><ele>670.0</ele><time>2026-04-18T07:42:39Z</time></trkpt><trkpt lat="43.216129964493135" lon="12.979000442752257"><ele>670.0</ele><time>2026-04-18T07:42:40Z</time></trkpt><trkpt lat="43.216070401909455" lon="12.979060783419852"><ele>670.0</ele><time>2026-04-18T07:42:41Z</time></trkpt><trkpt lat="43.216013933753835" lon="12.979116682299153"><ele>670.0</ele><time>2026-04-18T07:42:42Z</time></trkpt><trkpt lat="43.21595832024576" lon="12.979167358758733"><ele>666.1666666666667</ele><time>2026-04-18T07:42:43Z</time></trkpt><trkpt lat="43.21589716383289" lon="12.97923220666199"><ele>662.3333333333334</ele><time>2026-04-18T07:42:44Z</time></trkpt><trkpt lat="43.215824316447105" lon="12.979300559255815"><ele>658.5</ele><time>2026-04-18T07:42:45Z</time></trkpt><trkpt lat="43.215742847105744" lon="12.97937004253106"><ele>654.6666666666666</ele><time>2026-04-18T07:42:46Z</time></trkpt><trkpt lat="43.215680490938446" lon="12.979429907226413"><ele>650.8333333333333</ele><time>2026-04-18T07:42:47Z</time></trkpt><trkpt lat="43.21561396000226" lon="12.979492447620135"><ele>647.0</ele><time>2026-04-18T07:42:48Z</time></trkpt><trkpt lat="43.21555734450347" lon="12.979549793260134"><ele>647.0</ele><time>2026-04-18T07:42:49Z</time></trkpt><trkpt lat="43.2154982324521" lon="12.979598733255628"><ele>647.0</ele><time>2026-04-18T07:42:50Z</time></trkpt><trkpt lat="43.215427041748484" lon="12.97964657222444"><ele>647.0</ele><time>2026-04-18T07:42:51Z</time></trkpt><trkpt lat="43.21535699036667" lon="12.979703437381882"><ele>647.0</ele><time>2026-04-18T07:42:52Z</time></trkpt><trkpt lat="43.215286643572554" lon="12.97976168753758"><ele>647.0</ele><time>2026-04-18T07:42:53Z</time></trkpt><trkpt lat="43.21521853490512" lon="12.979828665833878"><ele>647.0</ele><time>2026-04-18T07:42:54Z</time></trkpt><trkpt lat="43.21514831196552" lon="12.979895556836714"><ele>647.0</ele><time>2026-04-18T07:42:55Z</time></trkpt><trkpt lat="43.21507118505937" lon="12.979965912071664"><ele>647.0</ele><time>2026-04-18T07:42:56Z</time></trkpt><trkpt lat="43.21500156835638" lon="12.980033852277208"><ele>647.0</ele><time>2026-04-18T07:42:57Z</time></trkpt><trkpt lat="43.214941811467334" lon="12.980103753341126"><ele>647.0</ele><time>2026-04-18T07:42:58Z</time></trkpt><trkpt lat="43.2148992421822" lon="12.980169021156504"><ele>647.0</ele><time>2026-04-18T07:42:59Z</time></trkpt><trkpt lat="43.21482128326354" lon="12.98027497352492"><ele>647.0</ele><time>2026-04-18T07:43:01Z</time></trkpt><trkpt lat="43.21472417933038" lon="12.980371867351653"><ele>642.0</ele><time>2026-04-18T07:43:03Z</time></trkpt><trkpt lat="43.214640299299994" lon="12.980446458428533"><ele>637.0</ele><time>2026-04-18T07:43:05Z</time></trkpt><trkpt lat="43.214536600960095" lon="12.980532553735934"><ele>632.0</ele><time>2026-04-18T07:43:07Z</time></trkpt><trkpt lat="43.214460036742324" lon="12.980556128862089"><ele>627.0</ele><time>2026-04-18T07:43:08Z</time></trkpt><trkpt lat="43.214385394202964" lon="12.980576848345208"><ele>622.0</ele><time>2026-04-18T07:43:09Z</time></trkpt><trkpt lat="43.21432028275892" lon="12.980583664131817"><ele>617.0</ele><time>2026-04-18T07:43:10Z</time></trkpt><trkpt lat="43.2142539969023" lon="12.980590182795247"><ele>617.0</ele><time>2026-04-18T07:43:11Z</time></trkpt><trkpt lat="43.214169363703384" lon="12.980588509277327"><ele>617.0</ele><time>2026-04-18T07:43:12Z</time></trkpt><trkpt lat="43.214084329136796" lon="12.980582499071712"><ele>617.0</ele><time>2026-04-18T07:43:13Z</time></trkpt><trkpt lat="43.21401448684164" lon="12.980585754500776"><ele>617.0</ele><time>2026-04-18T07:43:14Z</time></trkpt><trkpt lat="43.21390786698428" lon="12.980618984963542"><ele>617.0</ele><time>2026-04-18T07:43:16Z</time></trkpt><trkpt lat="43.213825277243195" lon="12.980628467895391"><ele>617.0</ele><time>2026-04-18T07:43:18Z</time></trkpt><trkpt lat="43.21372261960232" lon="12.980626629219156"><ele>614.6666666666666</ele><time>2026-04-18T07:43:20Z</time></trkpt><trkpt lat="43.21360412731768" lon="12.980605828228313"><ele>612.3333333333333</ele><time>2026-04-18T07:43:22Z</time></trkpt><trkpt lat="43.21352366159616" lon="12.980579375301103"><ele>610.0</ele><time>2026-04-18T07:43:24Z</time></trkpt><trkpt lat="43.21342002572352" lon="12.980543067404312"><ele>607.6666666666666</ele><time>2026-04-18T07:43:26Z</time></trkpt><trkpt lat="43.21336345393685" lon="12.980503262755036"><ele>605.3333333333334</ele><time>2026-04-18T07:43:27Z</time></trkpt><trkpt lat="43.21330485106956" lon="12.980469302790201"><ele>603.0</ele><time>2026-04-18T07:43:28Z</time></trkpt><trkpt lat="43.2132357424261" lon="12.980416296548169"><ele>604.6</ele><time>2026-04-18T07:43:29Z</time></trkpt><trkpt lat="43.21312408538736" lon="12.980386804472964"><ele>606.1999999999999</ele><time>2026-04-18T07:43:31Z</time></trkpt><trkpt lat="43.21304917247861" lon="12.980328740997933"><ele>607.8</ele><time>2026-04-18T07:43:33Z</time></trkpt><trkpt lat="43.21294945376895" lon="12.980302217018359"><ele>609.4</ele><time>2026-04-18T07:43:35Z</time></trkpt><trkpt lat="43.2128642030407" lon="12.980278072123042"><ele>611.0</ele><time>2026-04-18T07:43:37Z</time></trkpt><trkpt lat="43.21280074480369" lon="12.98020492506623"><ele>611.0</ele><time>2026-04-18T07:43:39Z</time></trkpt><trkpt lat="43.21272727282769" lon="12.980193911200672"><ele>611.0</ele><time>2026-04-18T07:43:41Z</time></trkpt><trkpt lat="43.21266303174402" lon="12.980157208533386"><ele>611.0</ele><time>2026-04-18T07:43:44Z</time></trkpt><trkpt lat="43.2125915008669" lon="12.980088533772792"><ele>611.0</ele><time>2026-04-18T07:43:46Z</time></trkpt><trkpt lat="43.212545671014205" lon="12.980005478619995"><ele>611.0</ele><time>2026-04-18T07:43:48Z</time></trkpt><trkpt lat="43.2124970320028" lon="12.979865744590553"><ele>611.0</ele><time>2026-04-18T07:43:50Z</time></trkpt><trkpt lat="43.21246305514538" lon="12.979789680112308"><ele>611.8</ele><time>2026-04-18T07:43:51Z</time></trkpt><trkpt lat="43.21241185320369" lon="12.979675938639746"><ele>612.6</ele><time>2026-04-18T07:43:53Z</time></trkpt><trkpt lat="43.21236489198659" lon="12.979616671035874"><ele>613.4</ele><time>2026-04-18T07:43:55Z</time></trkpt><trkpt lat="43.212268123699175" lon="12.979503500374047"><ele>614.2</ele><time>2026-04-18T07:43:57Z</time></trkpt><trkpt lat="43.212216619332615" lon="12.97940470954349"><ele>615.0</ele><time>2026-04-18T07:43:58Z</time></trkpt><trkpt lat="43.21217408916237" lon="12.979296783574089"><ele>619.2</ele><time>2026-04-18T07:43:59Z</time></trkpt><trkpt lat="43.21210623476161" lon="12.979189347479524"><ele>623.4</ele><time>2026-04-18T07:44:00Z</time></trkpt><trkpt lat="43.21206015494503" lon="12.97908799419537"><ele>627.6</ele><time>2026-04-18T07:44:01Z</time></trkpt><trkpt lat="43.21202967010898" lon="12.978989138634681"><ele>631.8</ele><time>2026-04-18T07:44:02Z</time></trkpt><trkpt lat="43.211965514997466" lon="12.978895927449242"><ele>636.0</ele><time>2026-04-18T07:44:03Z</time></trkpt><trkpt lat="43.21190165174227" lon="12.978766692112975"><ele>636.0</ele><time>2026-04-18T07:44:04Z</time></trkpt><trkpt lat="43.21183664326198" lon="12.978731306760055"><ele>636.0</ele><time>2026-04-18T07:44:05Z</time></trkpt><trkpt lat="43.211738925016626" lon="12.978723812930708"><ele>636.0</ele><time>2026-04-18T07:44:07Z</time></trkpt><trkpt lat="43.21167153088115" lon="12.97862476898448"><ele>636.0</ele><time>2026-04-18T07:44:09Z</time></trkpt><trkpt lat="43.211559921474226" lon="12.978602897268935"><ele>636.0</ele><time>2026-04-18T07:44:11Z</time></trkpt><trkpt lat="43.21147287276678" lon="12.97858273964576"><ele>640.3333333333334</ele><time>2026-04-18T07:44:13Z</time></trkpt><trkpt lat="43.21138540830167" lon="12.978558769369968"><ele>644.6666666666666</ele><time>2026-04-18T07:44:15Z</time></trkpt><trkpt lat="43.21131221343753" lon="12.978545103988226"><ele>649.0</ele><time>2026-04-18T07:44:17Z</time></trkpt><trkpt lat="43.21128591677448" lon="12.978451655198093"><ele>653.3333333333333</ele><time>2026-04-18T07:44:21Z</time></trkpt><trkpt lat="43.211185604195165" lon="12.978418600230167"><ele>657.6666666666666</ele><time>2026-04-18T07:44:24Z</time></trkpt><trkpt lat="43.21109711376934" lon="12.978476303476818"><ele>662.0</ele><time>2026-04-18T07:44:26Z</time></trkpt><trkpt lat="43.211017376218024" lon="12.978600677656463"><ele>662.0</ele><time>2026-04-18T07:44:28Z</time></trkpt><trkpt lat="43.21097011349966" lon="12.9786734538608"><ele>662.0</ele><time>2026-04-18T07:44:29Z</time></trkpt><trkpt lat="43.210866420534025" lon="12.978622468484716"><ele>662.0</ele><time>2026-04-18T07:44:30Z</time></trkpt><trkpt lat="43.21078398059246" lon="12.978650169577294"><ele>662.0</ele><time>2026-04-18T07:44:31Z</time></trkpt><trkpt lat="43.21071909892214" lon="12.978673742783316"><ele>662.0</ele><time>2026-04-18T07:44:34Z</time></trkpt><trkpt lat="43.21062735866139" lon="12.978740026499638"><ele>662.0</ele><time>2026-04-18T07:44:36Z</time></trkpt><trkpt lat="43.21059916827046" lon="12.978860778457367"><ele>662.0</ele><time>2026-04-18T07:44:38Z</time></trkpt><trkpt lat="43.210662433326334" lon="12.978938397326175"><ele>662.0</ele><time>2026-04-18T07:44:40Z</time></trkpt><trkpt lat="43.21058637115832" lon="12.978848608539685"><ele>662.0</ele><time>2026-04-18T07:44:45Z</time></trkpt><trkpt lat="43.21053350391324" lon="12.978919585494067"><ele>662.0</ele><time>2026-04-18T07:44:47Z</time></trkpt><trkpt lat="43.21046800491148" lon="12.979049884402853"><ele>662.0</ele><time>2026-04-18T07:44:53Z</time></trkpt><trkpt lat="43.210425328472304" lon="12.9791835658011"><ele>676.5</ele><time>2026-04-18T07:44:55Z</time></trkpt><trkpt lat="43.21040229416741" lon="12.979269301217554"><ele>691.0</ele><time>2026-04-18T07:44:58Z</time></trkpt><trkpt lat="43.21038607505422" lon="12.979391837009901"><ele>705.5</ele><time>2026-04-18T07:45:00Z</time></trkpt><trkpt lat="43.210275743863484" lon="12.979489416686116"><ele>720.0</ele><time>2026-04-18T07:45:02Z</time></trkpt><trkpt lat="43.210060722413" lon="12.979589109855613"><ele>720.0</ele><time>2026-04-18T07:45:04Z</time></trkpt><trkpt lat="43.209999532585634" lon="12.979637831437511"><ele>720.0</ele><time>2026-04-18T07:45:05Z</time></trkpt><trkpt lat="43.20995191432314" lon="12.979705550609788"><ele>720.0</ele><time>2026-04-18T07:45:06Z</time></trkpt><trkpt lat="43.209837897073875" lon="12.979678181292215"><ele>720.0</ele><time>2026-04-18T07:45:07Z</time></trkpt><trkpt lat="43.20976956866121" lon="12.979684169211106"><ele>720.0</ele><time>2026-04-18T07:45:08Z</time></trkpt><trkpt lat="43.20975350182218" lon="12.979808301977473"><ele>720.0</ele><time>2026-04-18T07:45:13Z</time></trkpt><trkpt lat="43.20957036296001" lon="12.979938244775305"><ele>726.25</ele><time>2026-04-18T07:45:19Z</time></trkpt><trkpt lat="43.20949586813675" lon="12.97995057397117"><ele>732.5</ele><time>2026-04-18T07:45:22Z</time></trkpt><trkpt lat="43.20934545283018" lon="12.979985571640617"><ele>738.75</ele><time>2026-04-18T07:45:24Z</time></trkpt><trkpt lat="43.20950348417603" lon="12.980029736621612"><ele>745.0</ele><time>2026-04-18T07:45:38Z</time></trkpt><trkpt lat="43.209564102361725" lon="12.980068230038782"><ele>747.5</ele><time>2026-04-18T07:45:39Z</time></trkpt><trkpt lat="43.2096266145723" lon="12.980078556586609"><ele>750.0</ele><time>2026-04-18T07:45:40Z</time></trkpt><trkpt lat="43.209687525181636" lon="12.980132287366523"><ele>752.5</ele><time>2026-04-18T07:45:42Z</time></trkpt><trkpt lat="43.209728450499064" lon="12.980221636891196"><ele>755.0</ele><time>2026-04-18T07:45:44Z</time></trkpt><trkpt lat="43.2097736501679" lon="12.980295204051403"><ele>757.5</ele><time>2026-04-18T07:45:45Z</time></trkpt><trkpt lat="43.20982829872753" lon="12.980386234452906"><ele>760.0</ele><time>2026-04-18T07:45:47Z</time></trkpt><trkpt lat="43.209847044129845" lon="12.980512658580414"><ele>759.4</ele><time>2026-04-18T07:45:48Z</time></trkpt><trkpt lat="43.20986613400334" lon="12.980599405261671"><ele>758.8</ele><time>2026-04-18T07:45:49Z</time></trkpt><trkpt lat="43.209847250754464" lon="12.98075690690272"><ele>758.2</ele><time>2026-04-18T07:45:51Z</time></trkpt><trkpt lat="43.209789602983975" lon="12.980853988051773"><ele>757.6</ele><time>2026-04-18T07:45:52Z</time></trkpt><trkpt lat="43.20975431941626" lon="12.980934360654679"><ele>757.0</ele><time>2026-04-18T07:45:53Z</time></trkpt><trkpt lat="43.209717544929255" lon="12.981074742584983"><ele>757.0</ele><time>2026-04-18T07:45:54Z</time></trkpt><trkpt lat="43.20968783497257" lon="12.981190264215918"><ele>757.0</ele><time>2026-04-18T07:45:55Z</time></trkpt><trkpt lat="43.20964042228276" lon="12.981346850837921"><ele>757.0</ele><time>2026-04-18T07:45:56Z</time></trkpt><trkpt lat="43.20959916245534" lon="12.981468022978323"><ele>757.0</ele><time>2026-04-18T07:45:57Z</time></trkpt><trkpt lat="43.209523776725" lon="12.98158404333754"><ele>757.0</ele><time>2026-04-18T07:45:58Z</time></trkpt><trkpt lat="43.20945554404031" lon="12.981701279756228"><ele>752.4000000000001</ele><time>2026-04-18T07:45:59Z</time></trkpt><trkpt lat="43.2093774889023" lon="12.981823851091736"><ele>747.8000000000001</ele><time>2026-04-18T07:46:00Z</time></trkpt><trkpt lat="43.2093121681726" lon="12.981934561036486"><ele>743.2</ele><time>2026-04-18T07:46:01Z</time></trkpt><trkpt lat="43.20923678184196" lon="12.982015404459782"><ele>738.6</ele><time>2026-04-18T07:46:02Z</time></trkpt><trkpt lat="43.209147274911516" lon="12.982074674867935"><ele>734.0</ele><time>2026-04-18T07:46:03Z</time></trkpt><trkpt lat="43.209080342713406" lon="12.98214129138512"><ele>734.0</ele><time>2026-04-18T07:46:04Z</time></trkpt><trkpt lat="43.20901314766025" lon="12.98221220986974"><ele>734.0</ele><time>2026-04-18T07:46:05Z</time></trkpt><trkpt lat="43.208947853565626" lon="12.982282375118723"><ele>734.0</ele><time>2026-04-18T07:46:06Z</time></trkpt><trkpt lat="43.20886871207198" lon="12.982339334154958"><ele>734.0</ele><time>2026-04-18T07:46:07Z</time></trkpt><trkpt lat="43.208772827050176" lon="12.982411221814642"><ele>734.0</ele><time>2026-04-18T07:46:08Z</time></trkpt><trkpt lat="43.208668271559965" lon="12.98247374258409"><ele>739.0</ele><time>2026-04-18T07:46:09Z</time></trkpt><trkpt lat="43.208421631801095" lon="12.98232971429116"><ele>744.0</ele><time>2026-04-18T07:46:10Z</time></trkpt><trkpt lat="43.20835446562094" lon="12.982417299617603"><ele>749.0</ele><time>2026-04-18T07:46:11Z</time></trkpt><trkpt lat="43.2082628937936" lon="12.982538585429843"><ele>749.0</ele><time>2026-04-18T07:46:12Z</time></trkpt><trkpt lat="43.208203058181816" lon="12.98262070569679"><ele>749.0</ele><time>2026-04-18T07:46:13Z</time></trkpt><trkpt lat="43.20814001386574" lon="12.982714728679856"><ele>749.0</ele><time>2026-04-18T07:46:14Z</time></trkpt><trkpt lat="43.20808601668029" lon="12.982801796776565"><ele>749.0</ele><time>2026-04-18T07:46:15Z</time></trkpt><trkpt lat="43.20802720075711" lon="12.982875939825606"><ele>749.0</ele><time>2026-04-18T07:46:16Z</time></trkpt><trkpt lat="43.20796736330288" lon="12.98303210523302"><ele>750.0</ele><time>2026-04-18T07:46:17Z</time></trkpt><trkpt lat="43.20798961757653" lon="12.983243666728093"><ele>751.0</ele><time>2026-04-18T07:46:18Z</time></trkpt><trkpt lat="43.20804739750907" lon="12.983385560233913"><ele>752.0</ele><time>2026-04-18T07:46:19Z</time></trkpt><trkpt lat="43.208090727531896" lon="12.983475690586468"><ele>753.0</ele><time>2026-04-18T07:46:20Z</time></trkpt><trkpt lat="43.20812938734439" lon="12.98355793621804"><ele>754.0</ele><time>2026-04-18T07:46:21Z</time></trkpt><trkpt lat="43.20819661056771" lon="12.983720780335153"><ele>754.0</ele><time>2026-04-18T07:46:23Z</time></trkpt><trkpt lat="43.20823723387469" lon="12.983822829527348"><ele>754.0</ele><time>2026-04-18T07:46:24Z</time></trkpt><trkpt lat="43.20828194030414" lon="12.983935135775313"><ele>754.0</ele><time>2026-04-18T07:46:25Z</time></trkpt><trkpt lat="43.20832215078869" lon="12.984035915678108"><ele>754.0</ele><time>2026-04-18T07:46:26Z</time></trkpt><trkpt lat="43.2083627033349" lon="12.984137311792095"><ele>754.0</ele><time>2026-04-18T07:46:27Z</time></trkpt><trkpt lat="43.20839445714003" lon="12.984216707863304"><ele>754.0</ele><time>2026-04-18T07:46:28Z</time></trkpt><trkpt lat="43.20842977989804" lon="12.984302857088812"><ele>755.2</ele><time>2026-04-18T07:46:29Z</time></trkpt><trkpt lat="43.20849601690351" lon="12.984461323351647"><ele>756.4000000000001</ele><time>2026-04-18T07:46:31Z</time></trkpt><trkpt lat="43.208541555063626" lon="12.984564204156474"><ele>757.6</ele><time>2026-04-18T07:46:32Z</time></trkpt><trkpt lat="43.208584941139975" lon="12.984662222934078"><ele>758.8</ele><time>2026-04-18T07:46:33Z</time></trkpt><trkpt lat="43.208625443097084" lon="12.984753726010846"><ele>760.0</ele><time>2026-04-18T07:46:34Z</time></trkpt><trkpt lat="43.20867484806881" lon="12.984833105161101"><ele>760.0</ele><time>2026-04-18T07:46:35Z</time></trkpt><trkpt lat="43.20870358579903" lon="12.984925114460378"><ele>760.0</ele><time>2026-04-18T07:46:36Z</time></trkpt><trkpt lat="43.20872685665425" lon="12.985014724043387"><ele>760.0</ele><time>2026-04-18T07:46:37Z</time></trkpt><trkpt lat="43.208765911316256" lon="12.98512792643632"><ele>760.0</ele><time>2026-04-18T07:46:38Z</time></trkpt><trkpt lat="43.20880223399033" lon="12.985227676283156"><ele>760.0</ele><time>2026-04-18T07:46:39Z</time></trkpt><trkpt lat="43.20885200288873" lon="12.985367649344038"><ele>760.0</ele><time>2026-04-18T07:46:41Z</time></trkpt><trkpt lat="43.20886645004315" lon="12.985463796768446"><ele>759.4</ele><time>2026-04-18T07:46:42Z</time></trkpt><trkpt lat="43.20889889576114" lon="12.985585406702752"><ele>758.8</ele><time>2026-04-18T07:46:44Z</time></trkpt><trkpt lat="43.208916506561" lon="12.985723694953677"><ele>758.2</ele><time>2026-04-18T07:46:46Z</time></trkpt><trkpt lat="43.20893729142932" lon="12.985864422546303"><ele>757.6</ele><time>2026-04-18T07:46:48Z</time></trkpt><trkpt lat="43.208940198153634" lon="12.9860201487989"><ele>757.0</ele><time>2026-04-18T07:46:50Z</time></trkpt><trkpt lat="43.20893422611922" lon="12.986147633176447"><ele>752.75</ele><time>2026-04-18T07:46:53Z</time></trkpt><trkpt lat="43.20876722860919" lon="12.986295651940571"><ele>748.5</ele><time>2026-04-18T07:46:55Z</time></trkpt><trkpt lat="43.208707998198605" lon="12.986379688622083"><ele>744.25</ele><time>2026-04-18T07:46:56Z</time></trkpt><trkpt lat="43.20864593458218" lon="12.986462473865664"><ele>740.0</ele><time>2026-04-18T07:46:57Z</time></trkpt><trkpt lat="43.208537359822664" lon="12.986574339475872"><ele>741.75</ele><time>2026-04-18T07:46:58Z</time></trkpt><trkpt lat="43.20841029257141" lon="12.986696484501362"><ele>743.5</ele><time>2026-04-18T07:46:59Z</time></trkpt><trkpt lat="43.208302583596904" lon="12.98679818424677"><ele>745.25</ele><time>2026-04-18T07:47:00Z</time></trkpt><trkpt lat="43.20821085497672" lon="12.986898840601969"><ele>747.0</ele><time>2026-04-18T07:47:01Z</time></trkpt><trkpt lat="43.20809620836454" lon="12.98699552659749"><ele>747.0</ele><time>2026-04-18T07:47:02Z</time></trkpt><trkpt lat="43.207987154095456" lon="12.987104876693087"><ele>747.0</ele><time>2026-04-18T07:47:03Z</time></trkpt><trkpt lat="43.20788119410063" lon="12.987216855207633"><ele>747.0</ele><time>2026-04-18T07:47:04Z</time></trkpt><trkpt lat="43.207768909697435" lon="12.987337454699691"><ele>747.0</ele><time>2026-04-18T07:47:05Z</time></trkpt><trkpt lat="43.20765429058282" lon="12.987471695580473"><ele>750.25</ele><time>2026-04-18T07:47:06Z</time></trkpt><trkpt lat="43.207553854633915" lon="12.987605459669407"><ele>753.5</ele><time>2026-04-18T07:47:07Z</time></trkpt><trkpt lat="43.20745387677009" lon="12.987744086578783"><ele>756.75</ele><time>2026-04-18T07:47:08Z</time></trkpt><trkpt lat="43.20737664386733" lon="12.987844495864298"><ele>760.0</ele><time>2026-04-18T07:47:09Z</time></trkpt><trkpt lat="43.207290706458586" lon="12.987938549411606"><ele>760.0</ele><time>2026-04-18T07:47:10Z</time></trkpt><trkpt lat="43.207194449463124" lon="12.988045471228"><ele>760.0</ele><time>2026-04-18T07:47:11Z</time></trkpt><trkpt lat="43.20708983713248" lon="12.988161986364858"><ele>760.0</ele><time>2026-04-18T07:47:12Z</time></trkpt><trkpt lat="43.206963267410714" lon="12.98829663255016"><ele>760.0</ele><time>2026-04-18T07:47:13Z</time></trkpt><trkpt lat="43.20683197593483" lon="12.988427592817802"><ele>755.5</ele><time>2026-04-18T07:47:14Z</time></trkpt><trkpt lat="43.20672087925713" lon="12.988540314227198"><ele>751.0</ele><time>2026-04-18T07:47:15Z</time></trkpt><trkpt lat="43.20662403145518" lon="12.98863124908268"><ele>746.5</ele><time>2026-04-18T07:47:16Z</time></trkpt><trkpt lat="43.20652578399438" lon="12.988711656664481"><ele>742.0</ele><time>2026-04-18T07:47:17Z</time></trkpt><trkpt lat="43.20642122783019" lon="12.988765981040759"><ele>742.0</ele><time>2026-04-18T07:47:18Z</time></trkpt><trkpt lat="43.20631561136492" lon="12.988806946837656"><ele>742.0</ele><time>2026-04-18T07:47:19Z</time></trkpt><trkpt lat="43.206204253572345" lon="12.988817801394402"><ele>742.0</ele><time>2026-04-18T07:47:20Z</time></trkpt><trkpt lat="43.20611641828017" lon="12.988806105075994"><ele>742.0</ele><time>2026-04-18T07:47:21Z</time></trkpt><trkpt lat="43.206047449058325" lon="12.98879678891575"><ele>742.0</ele><time>2026-04-18T07:47:22Z</time></trkpt><trkpt lat="43.20597311615006" lon="12.988780479877459"><ele>742.0</ele><time>2026-04-18T07:47:23Z</time></trkpt><trkpt lat="43.205906759883085" lon="12.988756275625452"><ele>742.0</ele><time>2026-04-18T07:47:24Z</time></trkpt><trkpt lat="43.205843363763954" lon="12.988742511128319"><ele>742.0</ele><time>2026-04-18T07:47:25Z</time></trkpt><trkpt lat="43.205781610407264" lon="12.988723159444968"><ele>742.0</ele><time>2026-04-18T07:47:26Z</time></trkpt><trkpt lat="43.205720799038275" lon="12.988671226432697"><ele>742.0</ele><time>2026-04-18T07:47:27Z</time></trkpt><trkpt lat="43.205667597415875" lon="12.988602620779524"><ele>742.0</ele><time>2026-04-18T07:47:28Z</time></trkpt><trkpt lat="43.20561385878665" lon="12.988521826972336"><ele>742.0</ele><time>2026-04-18T07:47:29Z</time></trkpt><trkpt lat="43.205568570789126" lon="12.98843785128843"><ele>739.3333333333334</ele><time>2026-04-18T07:47:30Z</time></trkpt><trkpt lat="43.20552596539319" lon="12.988360910137736"><ele>736.6666666666667</ele><time>2026-04-18T07:47:31Z</time></trkpt><trkpt lat="43.20548480133641" lon="12.988285303922847"><ele>734.0</ele><time>2026-04-18T07:47:32Z</time></trkpt><trkpt lat="43.20545091925544" lon="12.988194768482822"><ele>731.3333333333334</ele><time>2026-04-18T07:47:33Z</time></trkpt><trkpt lat="43.20540767811903" lon="12.988116444300633"><ele>728.6666666666666</ele><time>2026-04-18T07:47:34Z</time></trkpt><trkpt lat="43.20536163389255" lon="12.988021548226275"><ele>726.0</ele><time>2026-04-18T07:47:35Z</time></trkpt><trkpt lat="43.205320907093345" lon="12.987912538286277"><ele>731.3333333333334</ele><time>2026-04-18T07:47:36Z</time></trkpt><trkpt lat="43.205268074248806" lon="12.987818519884563"><ele>736.6666666666666</ele><time>2026-04-18T07:47:37Z</time></trkpt><trkpt lat="43.205219024870566" lon="12.987728586643453"><ele>742.0</ele><time>2026-04-18T07:47:38Z</time></trkpt><trkpt lat="43.20516515591751" lon="12.987641035307982"><ele>747.3333333333333</ele><time>2026-04-18T07:47:39Z</time></trkpt><trkpt lat="43.205127027128135" lon="12.987551685567514"><ele>752.6666666666666</ele><time>2026-04-18T07:47:40Z</time></trkpt><trkpt lat="43.20508600803482" lon="12.987453494774053"><ele>758.0</ele><time>2026-04-18T07:47:41Z</time></trkpt><trkpt lat="43.20503581899001" lon="12.987367671555093"><ele>760.1666666666666</ele><time>2026-04-18T07:47:42Z</time></trkpt><trkpt lat="43.204996006909745" lon="12.98727952892635"><ele>762.3333333333333</ele><time>2026-04-18T07:47:43Z</time></trkpt><trkpt lat="43.20495270413142" lon="12.98719334211128"><ele>764.5</ele><time>2026-04-18T07:47:44Z</time></trkpt><trkpt lat="43.20490471138007" lon="12.987112874713247"><ele>766.6666666666666</ele><time>2026-04-18T07:47:45Z</time></trkpt><trkpt lat="43.20485161599042" lon="12.987018661635688"><ele>768.8333333333334</ele><time>2026-04-18T07:47:46Z</time></trkpt><trkpt lat="43.204792813313624" lon="12.98692578434245"><ele>771.0</ele><time>2026-04-18T07:47:47Z</time></trkpt><trkpt lat="43.20473344975112" lon="12.98682521224328"><ele>771.0</ele><time>2026-04-18T07:47:48Z</time></trkpt><trkpt lat="43.20467360814799" lon="12.986715725956346"><ele>771.0</ele><time>2026-04-18T07:47:49Z</time></trkpt><trkpt lat="43.204598721407756" lon="12.986627163694537"><ele>771.0</ele><time>2026-04-18T07:47:50Z</time></trkpt><trkpt lat="43.20452142645492" lon="12.986562191084257"><ele>771.0</ele><time>2026-04-18T07:47:51Z</time></trkpt><trkpt lat="43.20444077727029" lon="12.986532081971527"><ele>771.0</ele><time>2026-04-18T07:47:52Z</time></trkpt><trkpt lat="43.20436903890637" lon="12.986494633893026"><ele>775.1999999999999</ele><time>2026-04-18T07:47:53Z</time></trkpt><trkpt lat="43.20430610089514" lon="12.986460522278273"><ele>779.4</ele><time>2026-04-18T07:47:54Z</time></trkpt><trkpt lat="43.20421098961559" lon="12.98637099839985"><ele>783.6</ele><time>2026-04-18T07:47:56Z</time></trkpt><trkpt lat="43.20414929762968" lon="12.986235606481252"><ele>787.8</ele><time>2026-04-18T07:47:58Z</time></trkpt><trkpt lat="43.20410798838351" lon="12.986074583143168"><ele>792.0</ele><time>2026-04-18T07:48:00Z</time></trkpt><trkpt lat="43.20409432837728" lon="12.985981213577363"><ele>792.0</ele><time>2026-04-18T07:48:01Z</time></trkpt><trkpt lat="43.204063141468254" lon="12.985893518430853"><ele>792.0</ele><time>2026-04-18T07:48:02Z</time></trkpt><trkpt lat="43.20402019459455" lon="12.985824377215629"><ele>792.0</ele><time>2026-04-18T07:48:03Z</time></trkpt><trkpt lat="43.20391809582037" lon="12.985716569118319"><ele>792.0</ele><time>2026-04-18T07:48:05Z</time></trkpt><trkpt lat="43.20382162919862" lon="12.985535729059697"><ele>792.0</ele><time>2026-04-18T07:48:07Z</time></trkpt><trkpt lat="43.20373917461308" lon="12.985511802567517"><ele>793.1666666666666</ele><time>2026-04-18T07:48:08Z</time></trkpt><trkpt lat="43.20366322535455" lon="12.985508147073768"><ele>794.3333333333333</ele><time>2026-04-18T07:48:09Z</time></trkpt><trkpt lat="43.20357363377043" lon="12.985508553640061"><ele>795.5</ele><time>2026-04-18T07:48:10Z</time></trkpt><trkpt lat="43.20349081982445" lon="12.985517703338463"><ele>796.6666666666666</ele><time>2026-04-18T07:48:11Z</time></trkpt><trkpt lat="43.20341707355253" lon="12.985546261890427"><ele>797.8333333333333</ele><time>2026-04-18T07:48:12Z</time></trkpt><trkpt lat="43.203302786938515" lon="12.985556061116057"><ele>799.0</ele><time>2026-04-18T07:48:14Z</time></trkpt><trkpt lat="43.203215108982214" lon="12.985550046923702"><ele>807.3333333333333</ele><time>2026-04-18T07:48:16Z</time></trkpt><trkpt lat="43.20298667222466" lon="12.985471333435765"><ele>815.6666666666667</ele><time>2026-04-18T07:48:17Z</time></trkpt><trkpt lat="43.202944655832454" lon="12.985543015598457"><ele>824.0</ele><time>2026-04-18T07:48:18Z</time></trkpt><trkpt lat="43.202846880134075" lon="12.985696050764881"><ele>824.0</ele><time>2026-04-18T07:48:19Z</time></trkpt><trkpt lat="43.20281266024041" lon="12.985815761009784"><ele>824.0</ele><time>2026-04-18T07:48:20Z</time></trkpt><trkpt lat="43.20277711033362" lon="12.98596749140773"><ele>824.0</ele><time>2026-04-18T07:48:22Z</time></trkpt><trkpt lat="43.20274183195465" lon="12.986118062986694"><ele>824.0</ele><time>2026-04-18T07:48:24Z</time></trkpt><trkpt lat="43.20292311800058" lon="12.986269655439322"><ele>818.4000000000001</ele><time>2026-04-18T07:48:25Z</time></trkpt><trkpt lat="43.20285802995782" lon="12.986331983167798"><ele>812.8</ele><time>2026-04-18T07:48:26Z</time></trkpt><trkpt lat="43.20278607951961" lon="12.986430129663725"><ele>807.2</ele><time>2026-04-18T07:48:27Z</time></trkpt><trkpt lat="43.202715622501785" lon="12.986529395384272"><ele>801.5999999999999</ele><time>2026-04-18T07:48:28Z</time></trkpt><trkpt lat="43.20266110426181" lon="12.986629844674122"><ele>796.0</ele><time>2026-04-18T07:48:29Z</time></trkpt><trkpt lat="43.20260200414614" lon="12.98672434263563"><ele>796.4999999999999</ele><time>2026-04-18T07:48:30Z</time></trkpt><trkpt lat="43.2025397006339" lon="12.986821852947674"><ele>797.0</ele><time>2026-04-18T07:48:31Z</time></trkpt><trkpt lat="43.202478677648564" lon="12.986912375640248"><ele>797.5</ele><time>2026-04-18T07:48:32Z</time></trkpt><trkpt lat="43.20243007309206" lon="12.987006452737218"><ele>798.0</ele><time>2026-04-18T07:48:33Z</time></trkpt><trkpt lat="43.202384737547845" lon="12.98710230847451"><ele>798.4999999999999</ele><time>2026-04-18T07:48:34Z</time></trkpt><trkpt lat="43.20233278738446" lon="12.987192417372516"><ele>799.0</ele><time>2026-04-18T07:48:35Z</time></trkpt><trkpt lat="43.20227322125178" lon="12.987278886185749"><ele>799.0</ele><time>2026-04-18T07:48:36Z</time></trkpt><trkpt lat="43.20220700935239" lon="12.987370936082325"><ele>799.0</ele><time>2026-04-18T07:48:37Z</time></trkpt><trkpt lat="43.20214060834334" lon="12.987467279197894"><ele>799.0</ele><time>2026-04-18T07:48:38Z</time></trkpt><trkpt lat="43.2020770422902" lon="12.98756762675283"><ele>799.0</ele><time>2026-04-18T07:48:39Z</time></trkpt><trkpt lat="43.20201150056904" lon="12.987669814605445"><ele>799.0</ele><time>2026-04-18T07:48:40Z</time></trkpt><trkpt lat="43.20195025673558" lon="12.987761586953185"><ele>792.2</ele><time>2026-04-18T07:48:41Z</time></trkpt><trkpt lat="43.201906430629364" lon="12.98783968805504"><ele>785.4000000000001</ele><time>2026-04-18T07:48:42Z</time></trkpt><trkpt lat="43.20184470481383" lon="12.987983643096243"><ele>778.6</ele><time>2026-04-18T07:48:44Z</time></trkpt><trkpt lat="43.20179998240391" lon="12.988044626368414"><ele>771.8</ele><time>2026-04-18T07:48:45Z</time></trkpt><trkpt lat="43.20170782481291" lon="12.988137723094237"><ele>765.0</ele><time>2026-04-18T07:48:47Z</time></trkpt><trkpt lat="43.201590154369946" lon="12.988191875229436"><ele>765.0</ele><time>2026-04-18T07:48:49Z</time></trkpt><trkpt lat="43.20152223179566" lon="12.988228612927594"><ele>765.0</ele><time>2026-04-18T07:48:50Z</time></trkpt><trkpt lat="43.201431424557136" lon="12.988269199313642"><ele>765.0</ele><time>2026-04-18T07:48:51Z</time></trkpt><trkpt lat="43.20132780736477" lon="12.98832129721049"><ele>765.0</ele><time>2026-04-18T07:48:52Z</time></trkpt><trkpt lat="43.20122465120781" lon="12.988394340669537"><ele>765.0</ele><time>2026-04-18T07:48:53Z</time></trkpt><trkpt lat="43.201120389570924" lon="12.988468934607107"><ele>758.5</ele><time>2026-04-18T07:48:54Z</time></trkpt><trkpt lat="43.20101630162357" lon="12.98854772886808"><ele>752.0</ele><time>2026-04-18T07:48:55Z</time></trkpt><trkpt lat="43.200910061369186" lon="12.98863481477152"><ele>745.5</ele><time>2026-04-18T07:48:56Z</time></trkpt><trkpt lat="43.20082093103032" lon="12.98871663142426"><ele>739.0</ele><time>2026-04-18T07:48:57Z</time></trkpt><trkpt lat="43.20068367554798" lon="12.98887517005647"><ele>739.75</ele><time>2026-04-18T07:48:58Z</time></trkpt><trkpt lat="43.200603510562985" lon="12.988972938796207"><ele>740.5</ele><time>2026-04-18T07:48:59Z</time></trkpt><trkpt lat="43.20050714955718" lon="12.989086748008516"><ele>741.25</ele><time>2026-04-18T07:49:00Z</time></trkpt><trkpt lat="43.200425605575276" lon="12.989197703359935"><ele>742.0</ele><time>2026-04-18T07:49:01Z</time></trkpt><trkpt lat="43.20036097893387" lon="12.989310189997077"><ele>742.0</ele><time>2026-04-18T07:49:02Z</time></trkpt><trkpt lat="43.20029777077978" lon="12.989439826170024"><ele>742.0</ele><time>2026-04-18T07:49:03Z</time></trkpt><trkpt lat="43.200230031788095" lon="12.989555833943408"><ele>742.0</ele><time>2026-04-18T07:49:04Z</time></trkpt><trkpt lat="43.20016482601097" lon="12.989674426153314"><ele>742.0</ele><time>2026-04-18T07:49:05Z</time></trkpt><trkpt lat="43.200106429176245" lon="12.98977933437771"><ele>742.0</ele><time>2026-04-18T07:49:06Z</time></trkpt><trkpt lat="43.20004749110413" lon="12.98989198955734"><ele>742.0</ele><time>2026-04-18T07:49:07Z</time></trkpt><trkpt lat="43.200000706591176" lon="12.989981384762327"><ele>742.0</ele><time>2026-04-18T07:49:08Z</time></trkpt><trkpt lat="43.19994986875798" lon="12.99007558437875"><ele>742.0</ele><time>2026-04-18T07:49:09Z</time></trkpt><trkpt lat="43.19989007896774" lon="12.990162994461663"><ele>742.0</ele><time>2026-04-18T07:49:10Z</time></trkpt><trkpt lat="43.1998324365978" lon="12.990214476845253"><ele>742.0</ele><time>2026-04-18T07:49:11Z</time></trkpt><trkpt lat="43.199751409224525" lon="12.990264245314624"><ele>742.0</ele><time>2026-04-18T07:49:12Z</time></trkpt><trkpt lat="43.199673760732814" lon="12.99033095279886"><ele>743.8</ele><time>2026-04-18T07:49:13Z</time></trkpt><trkpt lat="43.19959172048958" lon="12.99042753431753"><ele>745.6</ele><time>2026-04-18T07:49:14Z</time></trkpt><trkpt lat="43.199522981267165" lon="12.99053313010303"><ele>747.4</ele><time>2026-04-18T07:49:15Z</time></trkpt><trkpt lat="43.1994730727293" lon="12.990645829455968"><ele>749.1999999999999</ele><time>2026-04-18T07:49:16Z</time></trkpt><trkpt lat="43.1994395876126" lon="12.990739785371009"><ele>751.0</ele><time>2026-04-18T07:49:17Z</time></trkpt><trkpt lat="43.19941229943037" lon="12.990829677677837"><ele>746.8333333333334</ele><time>2026-04-18T07:49:18Z</time></trkpt><trkpt lat="43.19940743426582" lon="12.990917887367639"><ele>742.6666666666667</ele><time>2026-04-18T07:49:19Z</time></trkpt><trkpt lat="43.19940176989372" lon="12.991022351898009"><ele>738.5</ele><time>2026-04-18T07:49:20Z</time></trkpt><trkpt lat="43.19938580125102" lon="12.991128562307157"><ele>734.3333333333334</ele><time>2026-04-18T07:49:21Z</time></trkpt><trkpt lat="43.199366913729584" lon="12.991244506073892"><ele>730.1666666666666</ele><time>2026-04-18T07:49:22Z</time></trkpt><trkpt lat="43.199337501959434" lon="12.991370644864292"><ele>726.0</ele><time>2026-04-18T07:49:23Z</time></trkpt><trkpt lat="43.1992977141394" lon="12.991478807614167"><ele>726.0</ele><time>2026-04-18T07:49:24Z</time></trkpt><trkpt lat="43.19926352555792" lon="12.991577759228969"><ele>726.0</ele><time>2026-04-18T07:49:25Z</time></trkpt><trkpt lat="43.199213155367" lon="12.991671213309962"><ele>726.0</ele><time>2026-04-18T07:49:26Z</time></trkpt><trkpt lat="43.19914644981203" lon="12.99176881797183"><ele>726.0</ele><time>2026-04-18T07:49:27Z</time></trkpt><trkpt lat="43.19908231735381" lon="12.991875929305118"><ele>726.0</ele><time>2026-04-18T07:49:28Z</time></trkpt><trkpt lat="43.19901850985348" lon="12.991987546582376"><ele>727.0</ele><time>2026-04-18T07:49:29Z</time></trkpt><trkpt lat="43.19895378894398" lon="12.992081008909347"><ele>728.0</ele><time>2026-04-18T07:49:30Z</time></trkpt><trkpt lat="43.19888799446429" lon="12.992169608418122"><ele>729.0</ele><time>2026-04-18T07:49:31Z</time></trkpt><trkpt lat="43.1988298184516" lon="12.992254250075801"><ele>730.0</ele><time>2026-04-18T07:49:32Z</time></trkpt><trkpt lat="43.1987726264141" lon="12.992346974610614"><ele>731.0</ele><time>2026-04-18T07:49:33Z</time></trkpt><trkpt lat="43.19871026839907" lon="12.992429313212446"><ele>732.0</ele><time>2026-04-18T07:49:34Z</time></trkpt><trkpt lat="43.198650999161345" lon="12.99250327149188"><ele>727.1666666666666</ele><time>2026-04-18T07:49:35Z</time></trkpt><trkpt lat="43.198584080812196" lon="12.992583060036345"><ele>722.3333333333334</ele><time>2026-04-18T07:49:36Z</time></trkpt><trkpt lat="43.198523127849015" lon="12.992660290779144"><ele>717.5</ele><time>2026-04-18T07:49:37Z</time></trkpt><trkpt lat="43.19846067006801" lon="12.992739781577267"><ele>712.6666666666667</ele><time>2026-04-18T07:49:38Z</time></trkpt><trkpt lat="43.19840100897053" lon="12.99282484565917"><ele>707.8333333333334</ele><time>2026-04-18T07:49:39Z</time></trkpt><trkpt lat="43.19833038993475" lon="12.992893955755775"><ele>703.0</ele><time>2026-04-18T07:49:40Z</time></trkpt><trkpt lat="43.19825732738141" lon="12.992947658347349"><ele>703.0</ele><time>2026-04-18T07:49:41Z</time></trkpt><trkpt lat="43.19819440148881" lon="12.992986134702123"><ele>703.0</ele><time>2026-04-18T07:49:42Z</time></trkpt><trkpt lat="43.198110701519354" lon="12.993113705943996"><ele>703.0</ele><time>2026-04-18T07:49:44Z</time></trkpt><trkpt lat="43.19807590719371" lon="12.993196263111058"><ele>703.0</ele><time>2026-04-18T07:49:45Z</time></trkpt><trkpt lat="43.198040599624086" lon="12.99328949125915"><ele>703.0</ele><time>2026-04-18T07:49:46Z</time></trkpt><trkpt lat="43.19802007427021" lon="12.993374995889566"><ele>703.0</ele><time>2026-04-18T07:49:47Z</time></trkpt><trkpt lat="43.19794074482034" lon="12.99350657534568"><ele>702.8</ele><time>2026-04-18T07:49:49Z</time></trkpt><trkpt lat="43.19787084596152" lon="12.99365186354679"><ele>702.5999999999999</ele><time>2026-04-18T07:49:51Z</time></trkpt><trkpt lat="43.197821686471244" lon="12.99377930008278"><ele>702.4000000000001</ele><time>2026-04-18T07:49:53Z</time></trkpt><trkpt lat="43.19775495676601" lon="12.993862910293773"><ele>702.2</ele><time>2026-04-18T07:49:55Z</time></trkpt><trkpt lat="43.197692070566994" lon="12.993947371423673"><ele>702.0</ele><time>2026-04-18T07:49:57.001Z</time></trkpt><trkpt lat="43.19765316072699" lon="12.994043019690944"><ele>702.0</ele><time>2026-04-18T07:50:00.001Z</time></trkpt><trkpt lat="43.19759683182887" lon="12.994151014984322"><ele>702.0</ele><time>2026-04-18T07:50:03.001Z</time></trkpt><trkpt lat="43.19756311987903" lon="12.994248068166854"><ele>702.0</ele><time>2026-04-18T07:50:05.001Z</time></trkpt><trkpt lat="43.197535589141104" lon="12.994335460163349"><ele>702.0</ele><time>2026-04-18T07:50:07.001Z</time></trkpt><trkpt lat="43.197529580122925" lon="12.99445440422151"><ele>702.0</ele><time>2026-04-18T07:50:10.001Z</time></trkpt><trkpt lat="43.19750111815009" lon="12.994540731987605"><ele>702.0</ele><time>2026-04-18T07:50:12.001Z</time></trkpt><trkpt lat="43.19750230738715" lon="12.9946345288572"><ele>699.0</ele><time>2026-04-18T07:50:14.001Z</time></trkpt><trkpt lat="43.197535739869686" lon="12.994749874743926"><ele>696.0</ele><time>2026-04-18T07:50:17.001Z</time></trkpt><trkpt lat="43.197551525232726" lon="12.99484055394585"><ele>693.0</ele><time>2026-04-18T07:50:20.001Z</time></trkpt><trkpt lat="43.19757193900729" lon="12.99496457461252"><ele>690.0</ele><time>2026-04-18T07:50:23.001Z</time></trkpt><trkpt lat="43.197628545375444" lon="12.995053204988224"><ele>687.0</ele><time>2026-04-18T07:50:25.001Z</time></trkpt><trkpt lat="43.19765409679851" lon="12.995143989134252"><ele>684.0</ele><time>2026-04-18T07:50:27.001Z</time></trkpt><trkpt lat="43.197664082414605" lon="12.995266926303714"><ele>681.8333333333334</ele><time>2026-04-18T07:50:29.001Z</time></trkpt><trkpt lat="43.197700544929965" lon="12.99536197316888"><ele>679.6666666666666</ele><time>2026-04-18T07:50:32.001Z</time></trkpt><trkpt lat="43.19771604941241" lon="12.995453260432413"><ele>677.5</ele><time>2026-04-18T07:50:34.001Z</time></trkpt><trkpt lat="43.19774960256306" lon="12.995528647877116"><ele>675.3333333333333</ele><time>2026-04-18T07:50:36.001Z</time></trkpt><trkpt lat="43.19780958760433" lon="12.995639534648227"><ele>673.1666666666666</ele><time>2026-04-18T07:50:38.001Z</time></trkpt><trkpt lat="43.197876259352086" lon="12.995783520470974"><ele>671.0</ele><time>2026-04-18T07:50:40.001Z</time></trkpt><trkpt lat="43.197900548907725" lon="12.995868917993704"><ele>667.5</ele><time>2026-04-18T07:50:41.001Z</time></trkpt><trkpt lat="43.19797428918407" lon="12.995968649427962"><ele>664.0</ele><time>2026-04-18T07:50:43.001Z</time></trkpt><trkpt lat="43.198015608367605" lon="12.99604527669123"><ele>660.5</ele><time>2026-04-18T07:50:44.001Z</time></trkpt><trkpt lat="43.19808772924071" lon="12.996189189300088"><ele>657.0</ele><time>2026-04-18T07:50:46.001Z</time></trkpt><trkpt lat="43.19810803966738" lon="12.996288118904834"><ele>653.5</ele><time>2026-04-18T07:50:47.001Z</time></trkpt><trkpt lat="43.19812002356045" lon="12.996384735108965"><ele>650.0</ele><time>2026-04-18T07:50:48.001Z</time></trkpt><trkpt lat="43.198122635893085" lon="12.996478718536343"><ele>650.0</ele><time>2026-04-18T07:50:49.001Z</time></trkpt><trkpt lat="43.198107348664706" lon="12.996569803572209"><ele>650.0</ele><time>2026-04-18T07:50:50.001Z</time></trkpt><trkpt lat="43.19809058983349" lon="12.996655681045517"><ele>650.0</ele><time>2026-04-18T07:50:51.001Z</time></trkpt><trkpt lat="43.198065335565765" lon="12.996765472277147"><ele>650.0</ele><time>2026-04-18T07:50:53.001Z</time></trkpt><trkpt lat="43.19805877919373" lon="12.996866232155755"><ele>650.0</ele><time>2026-04-18T07:50:56Z</time></trkpt><trkpt lat="43.19807245491129" lon="12.996976154925457"><ele>650.0</ele><time>2026-04-18T07:50:58Z</time></trkpt><trkpt lat="43.19814033871038" lon="12.997051337811657"><ele>642.0</ele><time>2026-04-18T07:51:01Z</time></trkpt><trkpt lat="43.198201882331794" lon="12.997093215177873"><ele>634.0</ele><time>2026-04-18T07:51:03Z</time></trkpt><trkpt lat="43.198267070884356" lon="12.997120790471792"><ele>626.0</ele><time>2026-04-18T07:51:05Z</time></trkpt><trkpt lat="43.198332792956315" lon="12.997132875031452"><ele>618.0</ele><time>2026-04-18T07:51:07Z</time></trkpt><trkpt lat="43.19851332859205" lon="12.997123636092763"><ele>610.0</ele><time>2026-04-18T07:51:12Z</time></trkpt><trkpt lat="43.198584318906896" lon="12.997106447201794"><ele>610.0</ele><time>2026-04-18T07:51:14Z</time></trkpt><trkpt lat="43.19866723200136" lon="12.997083513976799"><ele>610.0</ele><time>2026-04-18T07:51:16Z</time></trkpt><trkpt lat="43.198758343403014" lon="12.997026207598342"><ele>610.0</ele><time>2026-04-18T07:51:18Z</time></trkpt><trkpt lat="43.198829088539505" lon="12.996968342748882"><ele>610.0</ele><time>2026-04-18T07:51:20Z</time></trkpt><trkpt lat="43.19888813220784" lon="12.996917744672777"><ele>610.0</ele><time>2026-04-18T07:51:22Z</time></trkpt><trkpt lat="43.19895108564428" lon="12.996837925986542"><ele>610.0</ele><time>2026-04-18T07:51:24Z</time></trkpt><trkpt lat="43.19902941383767" lon="12.996839775118076"><ele>606.3333333333334</ele><time>2026-04-18T07:51:27Z</time></trkpt><trkpt lat="43.1990639242513" lon="12.996917008447918"><ele>602.6666666666667</ele><time>2026-04-18T07:51:33Z</time></trkpt><trkpt lat="43.199137879677004" lon="12.9969201916276"><ele>599.0</ele><time>2026-04-18T07:51:46Z</time></trkpt><trkpt lat="43.199221765194444" lon="12.996841989619464"><ele>595.3333333333334</ele><time>2026-04-18T07:51:49Z</time></trkpt><trkpt lat="43.19931339874821" lon="12.996764429108643"><ele>591.6666666666666</ele><time>2026-04-18T07:51:51Z</time></trkpt><trkpt lat="43.19940354379646" lon="12.996744931354803"><ele>588.0</ele><time>2026-04-18T07:51:53Z</time></trkpt><trkpt lat="43.199480015361694" lon="12.996686755984182"><ele>588.0</ele><time>2026-04-18T07:51:55Z</time></trkpt><trkpt lat="43.19956745340044" lon="12.996669874189395"><ele>588.0</ele><time>2026-04-18T07:51:57Z</time></trkpt><trkpt lat="43.19964962299601" lon="12.99667034137692"><ele>588.0</ele><time>2026-04-18T07:51:59Z</time></trkpt><trkpt lat="43.19975567998536" lon="12.996704483670669"><ele>588.0</ele><time>2026-04-18T07:52:01Z</time></trkpt><trkpt lat="43.19983025804229" lon="12.99672613580054"><ele>588.0</ele><time>2026-04-18T07:52:02Z</time></trkpt><trkpt lat="43.19989860237725" lon="12.996725931711781"><ele>588.0</ele><time>2026-04-18T07:52:03Z</time></trkpt><trkpt lat="43.200005986347804" lon="12.9967501250804"><ele>583.3333333333334</ele><time>2026-04-18T07:52:05Z</time></trkpt><trkpt lat="43.20010626464497" lon="12.996794674076641"><ele>578.6666666666666</ele><time>2026-04-18T07:52:07Z</time></trkpt><trkpt lat="43.20018155966029" lon="12.996848588343374"><ele>574.0</ele><time>2026-04-18T07:52:09.001Z</time></trkpt><trkpt lat="43.20024487806605" lon="12.996926154617363"><ele>569.3333333333333</ele><time>2026-04-18T07:52:11.001Z</time></trkpt><trkpt lat="43.20030951928437" lon="12.996986214140817"><ele>564.6666666666666</ele><time>2026-04-18T07:52:13.001Z</time></trkpt><trkpt lat="43.200349443338325" lon="12.997070865208546"><ele>560.0</ele><time>2026-04-18T07:52:15.001Z</time></trkpt><trkpt lat="43.200355676777626" lon="12.997157598402495"><ele>560.0</ele><time>2026-04-18T07:52:17.001Z</time></trkpt><trkpt lat="43.200339063148235" lon="12.997261695349833"><ele>560.0</ele><time>2026-04-18T07:52:19.001Z</time></trkpt><trkpt lat="43.200337666622964" lon="12.997358628608989"><ele>560.0</ele><time>2026-04-18T07:52:25.001Z</time></trkpt><trkpt lat="43.200339200171854" lon="12.997461690652399"><ele>560.0</ele><time>2026-04-18T07:52:29.001Z</time></trkpt><trkpt lat="43.200390222989775" lon="12.997517878384215"><ele>560.0</ele><time>2026-04-18T07:52:38.001Z</time></trkpt><trkpt lat="43.20045846769224" lon="12.997481659884992"><ele>560.0</ele><time>2026-04-18T07:52:51.001Z</time></trkpt><trkpt lat="43.20051121086872" lon="12.997552715915266"><ele>560.0</ele><time>2026-04-18T07:52:56.001Z</time></trkpt><trkpt lat="43.20056733651912" lon="12.99761156020259"><ele>554.25</ele><time>2026-04-18T07:52:59.001Z</time></trkpt><trkpt lat="43.20068820746602" lon="12.997592425082585"><ele>548.5</ele><time>2026-04-18T07:53:06.001Z</time></trkpt><trkpt lat="43.20076389853732" lon="12.997537533764756"><ele>542.75</ele><time>2026-04-18T07:53:09.001Z</time></trkpt><trkpt lat="43.200829338061084" lon="12.997492231029144"><ele>537.0</ele><time>2026-04-18T07:53:11.001Z</time></trkpt><trkpt lat="43.20101395114893" lon="12.997490629743595"><ele>536.7142857142857</ele><time>2026-04-18T07:53:18.001Z</time></trkpt><trkpt lat="43.20106715591164" lon="12.997553283198675"><ele>536.4285714285714</ele><time>2026-04-18T07:53:21.001Z</time></trkpt><trkpt lat="43.201134368980576" lon="12.997589985928215"><ele>536.1428571428571</ele><time>2026-04-18T07:53:24.001Z</time></trkpt><trkpt lat="43.20118189113692" lon="12.997655637974379"><ele>535.8571428571429</ele><time>2026-04-18T07:53:27Z</time></trkpt><trkpt lat="43.20126204586222" lon="12.997741251088419"><ele>535.5714285714286</ele><time>2026-04-18T07:53:30Z</time></trkpt><trkpt lat="43.20124194865216" lon="12.99782461245773"><ele>535.2857142857142</ele><time>2026-04-18T07:53:32Z</time></trkpt><trkpt lat="43.201213916779395" lon="12.997903962275885"><ele>535.0</ele><time>2026-04-18T07:53:35Z</time></trkpt><trkpt lat="43.20124464313297" lon="12.997998199920348"><ele>535.0</ele><time>2026-04-18T07:53:38Z</time></trkpt><trkpt lat="43.20128976518112" lon="12.998161720652496"><ele>535.0</ele><time>2026-04-18T07:53:40Z</time></trkpt><trkpt lat="43.20133061163904" lon="12.99829023427672"><ele>535.0</ele><time>2026-04-18T07:53:41Z</time></trkpt><trkpt lat="43.20131297562482" lon="12.998451481366994"><ele>535.0</ele><time>2026-04-18T07:53:42Z</time></trkpt><trkpt lat="43.201346539322735" lon="12.998624912536645"><ele>534.2</ele><time>2026-04-18T07:53:43Z</time></trkpt><trkpt lat="43.20137233920064" lon="12.998735734199794"><ele>533.4</ele><time>2026-04-18T07:53:44Z</time></trkpt><trkpt lat="43.201399399004366" lon="12.998845912483102"><ele>532.6</ele><time>2026-04-18T07:53:45Z</time></trkpt><trkpt lat="43.201430860103535" lon="12.998965583266894"><ele>531.8</ele><time>2026-04-18T07:53:46Z</time></trkpt><trkpt lat="43.20145830603663" lon="12.999074126271871"><ele>531.0</ele><time>2026-04-18T07:53:47Z</time></trkpt><trkpt lat="43.20150868793528" lon="12.999220528897093"><ele>529.3333333333334</ele><time>2026-04-18T07:53:48Z</time></trkpt><trkpt lat="43.201549276449605" lon="12.999371509446647"><ele>527.6666666666667</ele><time>2026-04-18T07:53:49Z</time></trkpt><trkpt lat="43.20156090130668" lon="12.999498445665756"><ele>526.0</ele><time>2026-04-18T07:53:51Z</time></trkpt><trkpt lat="43.20146959677386" lon="12.999988358348366"><ele>526.0</ele><time>2026-04-18T07:53:53Z</time></trkpt><trkpt lat="43.201365670922094" lon="13.000023701121979"><ele>526.0</ele><time>2026-04-18T07:53:54Z</time></trkpt><trkpt lat="43.20124689917856" lon="13.000037757838081"><ele>526.0</ele><time>2026-04-18T07:53:55Z</time></trkpt><trkpt lat="43.20117519140541" lon="13.000042467021654"><ele>526.0</ele><time>2026-04-18T07:53:56Z</time></trkpt><trkpt lat="43.201086669843306" lon="13.000048435152623"><ele>526.0</ele><time>2026-04-18T07:53:57Z</time></trkpt><trkpt lat="43.20097345924139" lon="13.000061467738341"><ele>526.0</ele><time>2026-04-18T07:53:58Z</time></trkpt><trkpt lat="43.20085526598343" lon="13.000078708406598"><ele>526.0</ele><time>2026-04-18T07:53:59Z</time></trkpt><trkpt lat="43.200741248490786" lon="13.000101287069826"><ele>526.0</ele><time>2026-04-18T07:54:00Z</time></trkpt><trkpt lat="43.20061593969471" lon="13.000134433769954"><ele>526.0</ele><time>2026-04-18T07:54:01Z</time></trkpt><trkpt lat="43.200487235838345" lon="13.00016906326356"><ele>528.5</ele><time>2026-04-18T07:54:02Z</time></trkpt><trkpt lat="43.20037500986134" lon="13.000201253394573"><ele>531.0</ele><time>2026-04-18T07:54:03Z</time></trkpt><trkpt lat="43.20025775525721" lon="13.000234885898752"><ele>533.5</ele><time>2026-04-18T07:54:04Z</time></trkpt><trkpt lat="43.200136248618065" lon="13.000270677692884"><ele>536.0</ele><time>2026-04-18T07:54:05Z</time></trkpt><trkpt lat="43.200016681986696" lon="13.000307050656238"><ele>536.0</ele><time>2026-04-18T07:54:06Z</time></trkpt><trkpt lat="43.199888124868444" lon="13.000348582481612"><ele>536.0</ele><time>2026-04-18T07:54:07Z</time></trkpt><trkpt lat="43.199807529041315" lon="13.000405240285541"><ele>536.0</ele><time>2026-04-18T07:54:08Z</time></trkpt><trkpt lat="43.19964041555097" lon="13.00049444697784"><ele>536.0</ele><time>2026-04-18T07:54:09Z</time></trkpt><trkpt lat="43.199449326701036" lon="13.000612112401733"><ele>539.3333333333333</ele><time>2026-04-18T07:54:10Z</time></trkpt><trkpt lat="43.199286651341595" lon="13.000729598021412"><ele>542.6666666666666</ele><time>2026-04-18T07:54:11Z</time></trkpt><trkpt lat="43.19916483051671" lon="13.000818114451615"><ele>546.0</ele><time>2026-04-18T07:54:12Z</time></trkpt><trkpt lat="43.199044318658345" lon="13.000948781161881"><ele>550.25</ele><time>2026-04-18T07:54:13Z</time></trkpt><trkpt lat="43.19895018933053" lon="13.001095453438626"><ele>554.5</ele><time>2026-04-18T07:54:14Z</time></trkpt><trkpt lat="43.198880166623816" lon="13.001262367760958"><ele>558.75</ele><time>2026-04-18T07:54:15Z</time></trkpt><trkpt lat="43.198811352830006" lon="13.00141630972192"><ele>563.0</ele><time>2026-04-18T07:54:16Z</time></trkpt><trkpt lat="43.19874596379596" lon="13.001566917203343"><ele>562.6</ele><time>2026-04-18T07:54:17Z</time></trkpt><trkpt lat="43.19869401613024" lon="13.001686412737675"><ele>562.1999999999999</ele><time>2026-04-18T07:54:18Z</time></trkpt><trkpt lat="43.19864006670044" lon="13.001808240237066"><ele>561.8</ele><time>2026-04-18T07:54:19Z</time></trkpt><trkpt lat="43.19859380647685" lon="13.001932994870637"><ele>561.4</ele><time>2026-04-18T07:54:20Z</time></trkpt><trkpt lat="43.198561931687095" lon="13.002041523208534"><ele>561.0</ele><time>2026-04-18T07:54:21Z</time></trkpt><trkpt lat="43.19854482379998" lon="13.002135470725298"><ele>561.0</ele><time>2026-04-18T07:54:22Z</time></trkpt><trkpt lat="43.19852333082257" lon="13.002248245188689"><ele>561.0</ele><time>2026-04-18T07:54:23Z</time></trkpt><trkpt lat="43.198477416884856" lon="13.002386107086187"><ele>561.0</ele><time>2026-04-18T07:54:24Z</time></trkpt><trkpt lat="43.19842113197383" lon="13.002516668295183"><ele>561.0</ele><time>2026-04-18T07:54:25Z</time></trkpt><trkpt lat="43.19835621315719" lon="13.002664500960348"><ele>561.0</ele><time>2026-04-18T07:54:26Z</time></trkpt><trkpt lat="43.1982852710622" lon="13.002810249129203"><ele>560.25</ele><time>2026-04-18T07:54:27Z</time></trkpt><trkpt lat="43.19821648102064" lon="13.002942939043708"><ele>559.5</ele><time>2026-04-18T07:54:28Z</time></trkpt><trkpt lat="43.19814829860317" lon="13.003068364949431"><ele>558.75</ele><time>2026-04-18T07:54:29Z</time></trkpt><trkpt lat="43.1980795517452" lon="13.003187989205689"><ele>558.0</ele><time>2026-04-18T07:54:30Z</time></trkpt><trkpt lat="43.198009050058985" lon="13.00331791892872"><ele>560.25</ele><time>2026-04-18T07:54:31Z</time></trkpt><trkpt lat="43.19793824610998" lon="13.003455554234623"><ele>562.5</ele><time>2026-04-18T07:54:32Z</time></trkpt><trkpt lat="43.1978640012025" lon="13.003592727871398"><ele>564.75</ele><time>2026-04-18T07:54:33Z</time></trkpt><trkpt lat="43.197781718889175" lon="13.003732505081894"><ele>567.0</ele><time>2026-04-18T07:54:34Z</time></trkpt><trkpt lat="43.1977078315506" lon="13.003852585777517"><ele>567.0</ele><time>2026-04-18T07:54:35Z</time></trkpt><trkpt lat="43.19761491452315" lon="13.003929455199073"><ele>567.0</ele><time>2026-04-18T07:54:36Z</time></trkpt><trkpt lat="43.19751646465497" lon="13.00402135147957"><ele>567.0</ele><time>2026-04-18T07:54:37Z</time></trkpt><trkpt lat="43.19742629510218" lon="13.00412628581982"><ele>567.0</ele><time>2026-04-18T07:54:38Z</time></trkpt><trkpt lat="43.197331959934004" lon="13.004198611911546"><ele>567.25</ele><time>2026-04-18T07:54:39Z</time></trkpt><trkpt lat="43.19725188730156" lon="13.004225940699223"><ele>567.5</ele><time>2026-04-18T07:54:40Z</time></trkpt><trkpt lat="43.197141647797366" lon="13.004299244964729"><ele>567.75</ele><time>2026-04-18T07:54:41Z</time></trkpt><trkpt lat="43.197028113492216" lon="13.004371543910306"><ele>568.0</ele><time>2026-04-18T07:54:42Z</time></trkpt><trkpt lat="43.19692068922367" lon="13.004453553419618"><ele>568.0</ele><time>2026-04-18T07:54:43Z</time></trkpt><trkpt lat="43.196811750942764" lon="13.00454356601611"><ele>568.0</ele><time>2026-04-18T07:54:44Z</time></trkpt><trkpt lat="43.19670827926885" lon="13.0046902277655"><ele>568.0</ele><time>2026-04-18T07:54:45Z</time></trkpt><trkpt lat="43.196576398330144" lon="13.004817427700852"><ele>568.0</ele><time>2026-04-18T07:54:46Z</time></trkpt><trkpt lat="43.196445299133934" lon="13.004970321836117"><ele>570.0</ele><time>2026-04-18T07:54:47Z</time></trkpt><trkpt lat="43.19629143174537" lon="13.00517883287847"><ele>572.0</ele><time>2026-04-18T07:54:48Z</time></trkpt><trkpt lat="43.19615972236602" lon="13.005385348120415"><ele>574.0</ele><time>2026-04-18T07:54:49Z</time></trkpt><trkpt lat="43.196034455386595" lon="13.00554720012216"><ele>574.0</ele><time>2026-04-18T07:54:50Z</time></trkpt><trkpt lat="43.19591969529626" lon="13.005670505914196"><ele>574.0</ele><time>2026-04-18T07:54:51Z</time></trkpt><trkpt lat="43.19580353131987" lon="13.005779834001327"><ele>574.0</ele><time>2026-04-18T07:54:52Z</time></trkpt><trkpt lat="43.195689751947164" lon="13.005885485822636"><ele>574.0</ele><time>2026-04-18T07:54:53Z</time></trkpt><trkpt lat="43.19557178089994" lon="13.005957928779106"><ele>573.6</ele><time>2026-04-18T07:54:54Z</time></trkpt><trkpt lat="43.19547027946268" lon="13.006032172054079"><ele>573.2</ele><time>2026-04-18T07:54:55Z</time></trkpt><trkpt lat="43.19538113803811" lon="13.006061170169827"><ele>572.8000000000001</ele><time>2026-04-18T07:54:56Z</time></trkpt><trkpt lat="43.19527915107213" lon="13.006065965788414"><ele>572.4</ele><time>2026-04-18T07:54:57Z</time></trkpt><trkpt lat="43.19514044374894" lon="13.006082703105262"><ele>572.0</ele><time>2026-04-18T07:54:58Z</time></trkpt><trkpt lat="43.19499085860074" lon="13.00610074353333"><ele>572.0</ele><time>2026-04-18T07:54:59Z</time></trkpt><trkpt lat="43.194836963474614" lon="13.006110307321123"><ele>572.0</ele><time>2026-04-18T07:55:00Z</time></trkpt><trkpt lat="43.19468636280714" lon="13.006083054785586"><ele>572.0</ele><time>2026-04-18T07:55:01Z</time></trkpt><trkpt lat="43.19454213242438" lon="13.006082274846387"><ele>572.0</ele><time>2026-04-18T07:55:02Z</time></trkpt><trkpt lat="43.194411505187" lon="13.006084485592414"><ele>572.0</ele><time>2026-04-18T07:55:03Z</time></trkpt><trkpt lat="43.19424013238492" lon="13.006079840490791"><ele>572.0</ele><time>2026-04-18T07:55:04Z</time></trkpt><trkpt lat="43.19406648462581" lon="13.006064170591209"><ele>573.6666666666666</ele><time>2026-04-18T07:55:05Z</time></trkpt><trkpt lat="43.19387365226392" lon="13.006088535775085"><ele>575.3333333333334</ele><time>2026-04-18T07:55:06Z</time></trkpt><trkpt lat="43.193691236865774" lon="13.006080386148877"><ele>577.0</ele><time>2026-04-18T07:55:07Z</time></trkpt><trkpt lat="43.193504351163135" lon="13.006083085214152"><ele>577.0</ele><time>2026-04-18T07:55:08Z</time></trkpt><trkpt lat="43.19331691021815" lon="13.006123507660144"><ele>577.0</ele><time>2026-04-18T07:55:09Z</time></trkpt><trkpt lat="43.19314092271577" lon="13.006116055740897"><ele>577.0</ele><time>2026-04-18T07:55:10Z</time></trkpt><trkpt lat="43.192978373729474" lon="13.006108076648108"><ele>580.0</ele><time>2026-04-18T07:55:11Z</time></trkpt><trkpt lat="43.19284017294256" lon="13.006114809557676"><ele>583.0</ele><time>2026-04-18T07:55:12Z</time></trkpt><trkpt lat="43.192726170137036" lon="13.006099588178001"><ele>586.0</ele><time>2026-04-18T07:55:13Z</time></trkpt><trkpt lat="43.192620849888606" lon="13.00606968998017"><ele>589.0</ele><time>2026-04-18T07:55:14Z</time></trkpt><trkpt lat="43.19249955671762" lon="13.006066098328692"><ele>589.0</ele><time>2026-04-18T07:55:15Z</time></trkpt><trkpt lat="43.192379639829525" lon="13.006084175354356"><ele>589.0</ele><time>2026-04-18T07:55:16Z</time></trkpt><trkpt lat="43.19228897387185" lon="13.006107749937954"><ele>589.0</ele><time>2026-04-18T07:55:17Z</time></trkpt><trkpt lat="43.192204345471986" lon="13.006169554633505"><ele>589.0</ele><time>2026-04-18T07:55:18Z</time></trkpt><trkpt lat="43.19210874427727" lon="13.006230909372869"><ele>589.0</ele><time>2026-04-18T07:55:19Z</time></trkpt><trkpt lat="43.19199350130662" lon="13.006313551414985"><ele>592.25</ele><time>2026-04-18T07:55:20Z</time></trkpt><trkpt lat="43.19187672107164" lon="13.006355444350405"><ele>595.5</ele><time>2026-04-18T07:55:21Z</time></trkpt><trkpt lat="43.19177192911156" lon="13.00641598921566"><ele>598.75</ele><time>2026-04-18T07:55:22Z</time></trkpt><trkpt lat="43.1916500985822" lon="13.006475660729178"><ele>602.0</ele><time>2026-04-18T07:55:23Z</time></trkpt><trkpt lat="43.19153124422771" lon="13.006544015548922"><ele>603.8000000000001</ele><time>2026-04-18T07:55:24Z</time></trkpt><trkpt lat="43.19140936039744" lon="13.00656079046929"><ele>605.6</ele><time>2026-04-18T07:55:25Z</time></trkpt><trkpt lat="43.19128695861134" lon="13.006592427945117"><ele>607.4000000000001</ele><time>2026-04-18T07:55:26Z</time></trkpt><trkpt lat="43.1911782051917" lon="13.006618893237793"><ele>609.2</ele><time>2026-04-18T07:55:27Z</time></trkpt><trkpt lat="43.191093559334576" lon="13.00662925882031"><ele>611.0</ele><time>2026-04-18T07:55:28Z</time></trkpt><trkpt lat="43.19100874974644" lon="13.006614210188141"><ele>611.0</ele><time>2026-04-18T07:55:29Z</time></trkpt><trkpt lat="43.190913896127995" lon="13.006581141321249"><ele>611.0</ele><time>2026-04-18T07:55:30Z</time></trkpt><trkpt lat="43.19078885803685" lon="13.006541323664743"><ele>611.0</ele><time>2026-04-18T07:55:31Z</time></trkpt><trkpt lat="43.19066311652078" lon="13.00651145977957"><ele>611.0</ele><time>2026-04-18T07:55:32Z</time></trkpt><trkpt lat="43.19054021913562" lon="13.006517954002712"><ele>612.0</ele><time>2026-04-18T07:55:33Z</time></trkpt><trkpt lat="43.19040309055994" lon="13.006509884122018"><ele>613.0</ele><time>2026-04-18T07:55:34Z</time></trkpt><trkpt lat="43.190268761506985" lon="13.006504718427777"><ele>614.0</ele><time>2026-04-18T07:55:35Z</time></trkpt><trkpt lat="43.19014988746416" lon="13.006496045932282"><ele>615.0</ele><time>2026-04-18T07:55:36Z</time></trkpt><trkpt lat="43.19003784470239" lon="13.006471502021077"><ele>615.0</ele><time>2026-04-18T07:55:37Z</time></trkpt><trkpt lat="43.189941644014745" lon="13.0064389083317"><ele>615.0</ele><time>2026-04-18T07:55:38Z</time></trkpt><trkpt lat="43.189855606047125" lon="13.006398074316982"><ele>615.0</ele><time>2026-04-18T07:55:39Z</time></trkpt><trkpt lat="43.18977437932355" lon="13.006357566308086"><ele>615.0</ele><time>2026-04-18T07:55:40Z</time></trkpt><trkpt lat="43.18967946479314" lon="13.006300893856526"><ele>615.0</ele><time>2026-04-18T07:55:41Z</time></trkpt><trkpt lat="43.189588108112076" lon="13.006247360172393"><ele>613.5</ele><time>2026-04-18T07:55:42Z</time></trkpt><trkpt lat="43.189479849427656" lon="13.006192517371913"><ele>612.0</ele><time>2026-04-18T07:55:43Z</time></trkpt><trkpt lat="43.18938823602013" lon="13.006154563260068"><ele>610.5</ele><time>2026-04-18T07:55:44Z</time></trkpt><trkpt lat="43.18930414232246" lon="13.00611642457423"><ele>609.0</ele><time>2026-04-18T07:55:45Z</time></trkpt><trkpt lat="43.18924279894713" lon="13.006096744944514"><ele>607.5</ele><time>2026-04-18T07:55:46Z</time></trkpt><trkpt lat="43.18917124886948" lon="13.006081798901942"><ele>606.0</ele><time>2026-04-18T07:55:48Z</time></trkpt><trkpt lat="43.189115841073416" lon="13.006037238528231"><ele>604.4</ele><time>2026-04-18T07:55:54Z</time></trkpt><trkpt lat="43.18898186503103" lon="13.005969833200773"><ele>602.8</ele><time>2026-04-18T07:55:57Z</time></trkpt><trkpt lat="43.18891503254264" lon="13.005949425583"><ele>601.1999999999999</ele><time>2026-04-18T07:55:58Z</time></trkpt><trkpt lat="43.18884252717477" lon="13.006155146457745"><ele>599.6</ele><time>2026-04-18T07:56:00Z</time></trkpt><trkpt lat="43.18880812322775" lon="13.006235663100751"><ele>598.0</ele><time>2026-04-18T07:56:01Z</time></trkpt><trkpt lat="43.18879535967802" lon="13.00634125197236"><ele>598.0</ele><time>2026-04-18T07:56:03Z</time></trkpt><trkpt lat="43.18873647590079" lon="13.006408020150543"><ele>598.0</ele><time>2026-04-18T07:56:06Z</time></trkpt><trkpt lat="43.18866701863082" lon="13.006488595319471"><ele>598.0</ele><time>2026-04-18T07:56:08Z</time></trkpt><trkpt lat="43.188639499463285" lon="13.006610332933409"><ele>598.0</ele><time>2026-04-18T07:56:11Z</time></trkpt><trkpt lat="43.18860417829768" lon="13.006687910098309"><ele>598.0</ele><time>2026-04-18T07:56:13Z</time></trkpt><trkpt lat="43.18857741525684" lon="13.006776593287329"><ele>598.0</ele><time>2026-04-18T07:56:16Z</time></trkpt><trkpt lat="43.188546015695" lon="13.006854658257156"><ele>594.3333333333334</ele><time>2026-04-18T07:56:18Z</time></trkpt><trkpt lat="43.18849937515066" lon="13.006922017074215"><ele>590.6666666666667</ele><time>2026-04-18T07:56:20Z</time></trkpt><trkpt lat="43.18841645960944" lon="13.006916047515586"><ele>587.0</ele><time>2026-04-18T07:56:22Z</time></trkpt><trkpt lat="43.188342111821605" lon="13.00691696519154"><ele>583.3333333333334</ele><time>2026-04-18T07:56:23Z</time></trkpt><trkpt lat="43.1882682394906" lon="13.00691311859392"><ele>579.6666666666666</ele><time>2026-04-18T07:56:24Z</time></trkpt><trkpt lat="43.18818214768276" lon="13.006886220401643"><ele>576.0</ele><time>2026-04-18T07:56:25Z</time></trkpt><trkpt lat="43.188106070041805" lon="13.006894664859162"><ele>573.6666666666666</ele><time>2026-04-18T07:56:26Z</time></trkpt><trkpt lat="43.1880320321979" lon="13.006900613396226"><ele>571.3333333333334</ele><time>2026-04-18T07:56:27Z</time></trkpt><trkpt lat="43.187929164138694" lon="13.006923460346023"><ele>569.0</ele><time>2026-04-18T07:56:29Z</time></trkpt><trkpt lat="43.18787582866774" lon="13.00698831761081"><ele>566.6666666666667</ele><time>2026-04-18T07:56:30Z</time></trkpt><trkpt lat="43.187818559493756" lon="13.007028542343715"><ele>564.3333333333334</ele><time>2026-04-18T07:56:31Z</time></trkpt><trkpt lat="43.18770119351423" lon="13.00703060098695"><ele>562.0</ele><time>2026-04-18T07:56:33Z</time></trkpt><trkpt lat="43.187633595693704" lon="13.007027966451982"><ele>562.0</ele><time>2026-04-18T07:56:34Z</time></trkpt><trkpt lat="43.18755170590535" lon="13.007059252693626"><ele>562.0</ele><time>2026-04-18T07:56:35Z</time></trkpt><trkpt lat="43.187439078538134" lon="13.007063879439784"><ele>562.0</ele><time>2026-04-18T07:56:37Z</time></trkpt><trkpt lat="43.18734537425622" lon="13.00705773312111"><ele>562.0</ele><time>2026-04-18T07:56:39Z</time></trkpt><trkpt lat="43.18728413999921" lon="13.007034220572326"><ele>562.0</ele><time>2026-04-18T07:56:40Z</time></trkpt><trkpt lat="43.1872153308391" lon="13.00698435227637"><ele>562.0</ele><time>2026-04-18T07:56:41Z</time></trkpt><trkpt lat="43.18714064142089" lon="13.006913743361666"><ele>561.8000000000001</ele><time>2026-04-18T07:56:42Z</time></trkpt><trkpt lat="43.18708384657966" lon="13.006834380499352"><ele>561.6</ele><time>2026-04-18T07:56:43Z</time></trkpt><trkpt lat="43.18697542672725" lon="13.006769051931625"><ele>561.4000000000001</ele><time>2026-04-18T07:56:45Z</time></trkpt><trkpt lat="43.18689623177749" lon="13.006683231042553"><ele>561.2</ele><time>2026-04-18T07:56:46Z</time></trkpt><trkpt lat="43.1868088590794" lon="13.006632948385601"><ele>561.0</ele><time>2026-04-18T07:56:47Z</time></trkpt><trkpt lat="43.186725011414865" lon="13.006597582337157"><ele>561.0</ele><time>2026-04-18T07:56:48Z</time></trkpt><trkpt lat="43.18664419442501" lon="13.006579200099816"><ele>561.0</ele><time>2026-04-18T07:56:49Z</time></trkpt><trkpt lat="43.18656434842832" lon="13.00659642510457"><ele>561.0</ele><time>2026-04-18T07:56:50Z</time></trkpt><trkpt lat="43.186501443374475" lon="13.006625552325108"><ele>561.0</ele><time>2026-04-18T07:56:51Z</time></trkpt><trkpt lat="43.1864365851685" lon="13.006635408149457"><ele>561.0</ele><time>2026-04-18T07:56:52Z</time></trkpt><trkpt lat="43.18635167381622" lon="13.006617458210174"><ele>561.0</ele><time>2026-04-18T07:56:53Z</time></trkpt><trkpt lat="43.18629399041237" lon="13.00655177121503"><ele>558.7142857142857</ele><time>2026-04-18T07:56:54Z</time></trkpt><trkpt lat="43.18624124429329" lon="13.006490008610719"><ele>556.4285714285713</ele><time>2026-04-18T07:56:55Z</time></trkpt><trkpt lat="43.18617867500799" lon="13.00644242116349"><ele>554.1428571428571</ele><time>2026-04-18T07:56:56Z</time></trkpt><trkpt lat="43.186114565030124" lon="13.006453147141189"><ele>551.8571428571429</ele><time>2026-04-18T07:56:57Z</time></trkpt><trkpt lat="43.18604989593194" lon="13.006457411127222"><ele>549.5714285714287</ele><time>2026-04-18T07:56:58Z</time></trkpt><trkpt lat="43.18596870815778" lon="13.006455678682215"><ele>547.2857142857143</ele><time>2026-04-18T07:56:59Z</time></trkpt><trkpt lat="43.18588560203486" lon="13.006456001558389"><ele>545.0</ele><time>2026-04-18T07:57:00Z</time></trkpt><trkpt lat="43.18579985914909" lon="13.006456035147753"><ele>545.0</ele><time>2026-04-18T07:57:01Z</time></trkpt><trkpt lat="43.185709939858306" lon="13.006430441911776"><ele>545.0</ele><time>2026-04-18T07:57:02Z</time></trkpt><trkpt lat="43.185610807872315" lon="13.006429910738445"><ele>545.0</ele><time>2026-04-18T07:57:03Z</time></trkpt><trkpt lat="43.18554496308425" lon="13.006424847764283"><ele>545.0</ele><time>2026-04-18T07:57:04Z</time></trkpt><trkpt lat="43.185436191250936" lon="13.006380049676608"><ele>545.0</ele><time>2026-04-18T07:57:06Z</time></trkpt><trkpt lat="43.18537679298523" lon="13.00641048816772"><ele>545.0</ele><time>2026-04-18T07:57:07Z</time></trkpt><trkpt lat="43.18530072542712" lon="13.00642033555607"><ele>543.6</ele><time>2026-04-18T07:57:08Z</time></trkpt><trkpt lat="43.1851857828503" lon="13.00644615532076"><ele>542.2</ele><time>2026-04-18T07:57:10Z</time></trkpt><trkpt lat="43.1851220005298" lon="13.00646673083526"><ele>540.8</ele><time>2026-04-18T07:57:11Z</time></trkpt><trkpt lat="43.185029158939486" lon="13.006521284046103"><ele>539.4</ele><time>2026-04-18T07:57:13Z</time></trkpt><trkpt lat="43.18492295621751" lon="13.006574231759792"><ele>538.0</ele><time>2026-04-18T07:57:15Z</time></trkpt><trkpt lat="43.18478559283887" lon="13.006608555213257"><ele>535.8333333333334</ele><time>2026-04-18T07:57:17Z</time></trkpt><trkpt lat="43.18470700020542" lon="13.00663533680636"><ele>533.6666666666667</ele><time>2026-04-18T07:57:18Z</time></trkpt><trkpt lat="43.18463940799744" lon="13.006659062821063"><ele>531.5</ele><time>2026-04-18T07:57:19Z</time></trkpt><trkpt lat="43.1845748074141" lon="13.006674340334921"><ele>529.3333333333334</ele><time>2026-04-18T07:57:20Z</time></trkpt><trkpt lat="43.18450835578661" lon="13.006661129229899"><ele>527.1666666666666</ele><time>2026-04-18T07:57:21Z</time></trkpt><trkpt lat="43.18439425144952" lon="13.006675557669361"><ele>525.0</ele><time>2026-04-18T07:57:23Z</time></trkpt><trkpt lat="43.18427144093113" lon="13.006756252664086"><ele>523.1666666666666</ele><time>2026-04-18T07:57:25Z</time></trkpt><trkpt lat="43.184208665473086" lon="13.00678852341191"><ele>521.3333333333334</ele><time>2026-04-18T07:57:26Z</time></trkpt><trkpt lat="43.18408674164067" lon="13.006812696273403"><ele>519.5</ele><time>2026-04-18T07:57:28Z</time></trkpt><trkpt lat="43.18401972140784" lon="13.006813158831868"><ele>517.6666666666667</ele><time>2026-04-18T07:57:29Z</time></trkpt><trkpt lat="43.18393930984906" lon="13.006823423247022"><ele>515.8333333333334</ele><time>2026-04-18T07:57:30Z</time></trkpt><trkpt lat="43.1838607216298" lon="13.006825396366239"><ele>514.0</ele><time>2026-04-18T07:57:31Z</time></trkpt><trkpt lat="43.183792589133745" lon="13.006829242472596"><ele>511.6666666666667</ele><time>2026-04-18T07:57:32Z</time></trkpt><trkpt lat="43.183715865544016" lon="13.006823095167128"><ele>509.33333333333337</ele><time>2026-04-18T07:57:33Z</time></trkpt><trkpt lat="43.18363195340255" lon="13.00680745970614"><ele>507.0</ele><time>2026-04-18T07:57:34Z</time></trkpt><trkpt lat="43.18355861324721" lon="13.006790018632941"><ele>504.66666666666663</ele><time>2026-04-18T07:57:35Z</time></trkpt><trkpt lat="43.183445729944374" lon="13.00676337077427"><ele>502.3333333333333</ele><time>2026-04-18T07:57:37Z</time></trkpt><trkpt lat="43.18338293647959" lon="13.00673003701918"><ele>500.0</ele><time>2026-04-18T07:57:38Z</time></trkpt><trkpt lat="43.18326724065884" lon="13.006674449512953"><ele>500.0</ele><time>2026-04-18T07:57:40Z</time></trkpt><trkpt lat="43.183200068898294" lon="13.006671929164108"><ele>500.0</ele><time>2026-04-18T07:57:41Z</time></trkpt><trkpt lat="43.183132817190426" lon="13.006681267914042"><ele>500.0</ele><time>2026-04-18T07:57:42Z</time></trkpt><trkpt lat="43.183039295577636" lon="13.006620656772126"><ele>500.0</ele><time>2026-04-18T07:57:44Z</time></trkpt><trkpt lat="43.18295612728647" lon="13.006584768955616"><ele>500.0</ele><time>2026-04-18T07:57:47Z</time></trkpt><trkpt lat="43.18287398626499" lon="13.00672038331975"><ele>498.16666666666663</ele><time>2026-04-18T07:57:50Z</time></trkpt><trkpt lat="43.182825093122034" lon="13.006805161612773"><ele>496.3333333333333</ele><time>2026-04-18T07:57:51Z</time></trkpt><trkpt lat="43.182789469166146" lon="13.00689467477064"><ele>494.5</ele><time>2026-04-18T07:57:52Z</time></trkpt><trkpt lat="43.18277098792942" lon="13.006993504862047"><ele>492.66666666666663</ele><time>2026-04-18T07:57:53Z</time></trkpt><trkpt lat="43.18274840536271" lon="13.007085637808974"><ele>490.8333333333333</ele><time>2026-04-18T07:57:54Z</time></trkpt><trkpt lat="43.182719570908844" lon="13.007212783110528"><ele>489.0</ele><time>2026-04-18T07:57:56Z</time></trkpt><trkpt lat="43.18269043599351" lon="13.007311508393594"><ele>489.0</ele><time>2026-04-18T07:57:59Z</time></trkpt><trkpt lat="43.18265005283976" lon="13.007397003992322"><ele>489.0</ele><time>2026-04-18T07:58:01Z</time></trkpt><trkpt lat="43.182571650857994" lon="13.00746875844901"><ele>489.0</ele><time>2026-04-18T07:58:04Z</time></trkpt><trkpt lat="43.18248567953328" lon="13.007533490562011"><ele>489.0</ele><time>2026-04-18T07:58:06Z</time></trkpt><trkpt lat="43.18240490594595" lon="13.00753612169127"><ele>489.0</ele><time>2026-04-18T07:58:08Z</time></trkpt><trkpt lat="43.18231766620632" lon="13.007498048400988"><ele>489.0</ele><time>2026-04-18T07:58:10Z</time></trkpt><trkpt lat="43.18225022834222" lon="13.007469961471855"><ele>485.6</ele><time>2026-04-18T07:58:12Z</time></trkpt><trkpt lat="43.182166752231645" lon="13.00740206626415"><ele>482.2</ele><time>2026-04-18T07:58:15Z</time></trkpt><trkpt lat="43.18210200567814" lon="13.007363019176896"><ele>478.80000000000007</ele><time>2026-04-18T07:58:17Z</time></trkpt><trkpt lat="43.18202092037914" lon="13.007336180195628"><ele>475.40000000000003</ele><time>2026-04-18T07:58:19Z</time></trkpt><trkpt lat="43.18191873128281" lon="13.007338263952967"><ele>472.0</ele><time>2026-04-18T07:58:21Z</time></trkpt><trkpt lat="43.181823604793685" lon="13.007306049892016"><ele>472.00000000000006</ele><time>2026-04-18T07:58:23Z</time></trkpt><trkpt lat="43.181734222068755" lon="13.00728652084204"><ele>472.0</ele><time>2026-04-18T07:58:25Z</time></trkpt><trkpt lat="43.18164505435869" lon="13.00726024013928"><ele>472.0</ele><time>2026-04-18T07:58:27Z</time></trkpt><trkpt lat="43.181581070744684" lon="13.007262097271296"><ele>472.0</ele><time>2026-04-18T07:58:28Z</time></trkpt><trkpt lat="43.18150200532328" lon="13.007255833816245"><ele>472.00000000000006</ele><time>2026-04-18T07:58:29Z</time></trkpt><trkpt lat="43.18141920853071" lon="13.007242044118971"><ele>472.0</ele><time>2026-04-18T07:58:31Z</time></trkpt><trkpt lat="43.18133307569301" lon="13.00723110077977"><ele>468.83333333333337</ele><time>2026-04-18T07:58:33Z</time></trkpt><trkpt lat="43.18126208468561" lon="13.007222322160745"><ele>465.6666666666667</ele><time>2026-04-18T07:58:34Z</time></trkpt><trkpt lat="43.181176355615236" lon="13.007230985415342"><ele>462.5</ele><time>2026-04-18T07:58:36Z</time></trkpt><trkpt lat="43.18114476831377" lon="13.007335895091867"><ele>459.33333333333337</ele><time>2026-04-18T07:58:40Z</time></trkpt><trkpt lat="43.18117095998079" lon="13.00742561976488"><ele>456.1666666666667</ele><time>2026-04-18T07:58:42Z</time></trkpt><trkpt lat="43.181223796350665" lon="13.00750119029636"><ele>453.0</ele><time>2026-04-18T07:58:43Z</time></trkpt><trkpt lat="43.18131256248193" lon="13.007543122557156"><ele>452.4</ele><time>2026-04-18T07:58:44Z</time></trkpt><trkpt lat="43.18140617114099" lon="13.007609714043799"><ele>451.79999999999995</ele><time>2026-04-18T07:58:45Z</time></trkpt><trkpt lat="43.18148434022112" lon="13.007659613102918"><ele>451.2</ele><time>2026-04-18T07:58:46Z</time></trkpt><trkpt lat="43.181539419166896" lon="13.007739290445492"><ele>450.6</ele><time>2026-04-18T07:58:47Z</time></trkpt><trkpt lat="43.181602757835726" lon="13.007823396454542"><ele>450.0</ele><time>2026-04-18T07:58:48Z</time></trkpt><trkpt lat="43.18168285486307" lon="13.007903438817202"><ele>453.2</ele><time>2026-04-18T07:58:49Z</time></trkpt><trkpt lat="43.18177150526741" lon="13.007973560873108"><ele>456.4</ele><time>2026-04-18T07:58:50Z</time></trkpt><trkpt lat="43.18186149707083" lon="13.008027749022508"><ele>459.6</ele><time>2026-04-18T07:58:51Z</time></trkpt><trkpt lat="43.18194364335091" lon="13.008085948697532"><ele>462.8</ele><time>2026-04-18T07:58:52Z</time></trkpt><trkpt lat="43.18202309444105" lon="13.008147090488356"><ele>466.0</ele><time>2026-04-18T07:58:53Z</time></trkpt><trkpt lat="43.18208909712521" lon="13.008188583879372"><ele>466.00000000000006</ele><time>2026-04-18T07:58:54Z</time></trkpt><trkpt lat="43.18216189238674" lon="13.00824309703758"><ele>466.0</ele><time>2026-04-18T07:58:55Z</time></trkpt><trkpt lat="43.18224534748078" lon="13.008275100102011"><ele>466.0</ele><time>2026-04-18T07:58:56Z</time></trkpt><trkpt lat="43.182334277997136" lon="13.008316325803575"><ele>466.0</ele><time>2026-04-18T07:58:57Z</time></trkpt><trkpt lat="43.18242137434334" lon="13.008353024040982"><ele>466.00000000000006</ele><time>2026-04-18T07:58:58Z</time></trkpt><trkpt lat="43.18250334243982" lon="13.008385862138532"><ele>466.0</ele><time>2026-04-18T07:58:59Z</time></trkpt><trkpt lat="43.18255867069396" lon="13.008428251980025"><ele>466.4</ele><time>2026-04-18T07:59:00Z</time></trkpt><trkpt lat="43.182666391794825" lon="13.008460826072264"><ele>466.8</ele><time>2026-04-18T07:59:02Z</time></trkpt><trkpt lat="43.1827550810656" lon="13.008496534406314"><ele>467.19999999999993</ele><time>2026-04-18T07:59:04Z</time></trkpt><trkpt lat="43.18282878654704" lon="13.008561950929424"><ele>467.59999999999997</ele><time>2026-04-18T07:59:06Z</time></trkpt><trkpt lat="43.18290847243731" lon="13.00864053982276"><ele>468.0</ele><time>2026-04-18T07:59:08Z</time></trkpt><trkpt lat="43.18298414779527" lon="13.00870085113615"><ele>468.0</ele><time>2026-04-18T07:59:11Z</time></trkpt><trkpt lat="43.183059898099714" lon="13.008750748181123"><ele>467.99999999999994</ele><time>2026-04-18T07:59:13Z</time></trkpt><trkpt lat="43.18314539376879" lon="13.008812624079052"><ele>467.99999999999994</ele><time>2026-04-18T07:59:15Z</time></trkpt><trkpt lat="43.18323578216738" lon="13.008862846289697"><ele>468.0</ele><time>2026-04-18T07:59:17Z</time></trkpt><trkpt lat="43.18332692003056" lon="13.008904335011787"><ele>468.0</ele><time>2026-04-18T07:59:19Z</time></trkpt><trkpt lat="43.18344653935163" lon="13.008918804884518"><ele>470.59999999999997</ele><time>2026-04-18T07:59:21Z</time></trkpt><trkpt lat="43.18350561803779" lon="13.008878407868636"><ele>473.19999999999993</ele><time>2026-04-18T07:59:22Z</time></trkpt><trkpt lat="43.18361914870101" lon="13.008889893213905"><ele>475.8</ele><time>2026-04-18T07:59:24Z</time></trkpt><trkpt lat="43.18370378279063" lon="13.008875937372371"><ele>478.4</ele><time>2026-04-18T07:59:25Z</time></trkpt><trkpt lat="43.183803106895105" lon="13.008854476617266"><ele>481.0</ele><time>2026-04-18T07:59:26Z</time></trkpt><trkpt lat="43.183891996880455" lon="13.00884422327369"><ele>481.0</ele><time>2026-04-18T07:59:27Z</time></trkpt><trkpt lat="43.18396210134266" lon="13.008861409843488"><ele>481.0</ele><time>2026-04-18T07:59:28Z</time></trkpt><trkpt lat="43.184045116665445" lon="13.008918839760303"><ele>481.0</ele><time>2026-04-18T07:59:30Z</time></trkpt><trkpt lat="43.18410175194069" lon="13.008975110078229"><ele>481.0</ele><time>2026-04-18T07:59:32Z</time></trkpt><trkpt lat="43.18417482683244" lon="13.009079578173495"><ele>481.0</ele><time>2026-04-18T07:59:34Z</time></trkpt><trkpt lat="43.184283950349524" lon="13.009120300268613"><ele>480.4</ele><time>2026-04-18T07:59:36Z</time></trkpt><trkpt lat="43.184394637004075" lon="13.009177715933898"><ele>479.8</ele><time>2026-04-18T07:59:38Z</time></trkpt><trkpt lat="43.184538675024946" lon="13.009161079290923"><ele>479.19999999999993</ele><time>2026-04-18T07:59:40Z</time></trkpt><trkpt lat="43.18462881928132" lon="13.00913831057286"><ele>478.59999999999997</ele><time>2026-04-18T07:59:41Z</time></trkpt><trkpt lat="43.184722187211015" lon="13.00912283298"><ele>478.0</ele><time>2026-04-18T07:59:42Z</time></trkpt><trkpt lat="43.184792921216065" lon="13.009134782058469"><ele>474.0</ele><time>2026-04-18T07:59:43Z</time></trkpt><trkpt lat="43.1848604909649" lon="13.009159446200838"><ele>469.99999999999994</ele><time>2026-04-18T07:59:44Z</time></trkpt><trkpt lat="43.184920848158" lon="13.009196953010184"><ele>465.99999999999994</ele><time>2026-04-18T07:59:45Z</time></trkpt><trkpt lat="43.18499016802642" lon="13.009220332019066"><ele>462.0</ele><time>2026-04-18T07:59:46Z</time></trkpt><trkpt lat="43.18507928146052" lon="13.009259164263343"><ele>458.0</ele><time>2026-04-18T07:59:48Z</time></trkpt><trkpt lat="43.18528433915017" lon="13.009306007230784"><ele>458.0</ele><time>2026-04-18T07:59:52Z</time></trkpt><trkpt lat="43.185351455092345" lon="13.009367589367772"><ele>457.99999999999994</ele><time>2026-04-18T07:59:53Z</time></trkpt><trkpt lat="43.18542442706335" lon="13.009410198021856"><ele>457.99999999999994</ele><time>2026-04-18T07:59:54Z</time></trkpt><trkpt lat="43.185504053827295" lon="13.00946207656879"><ele>458.0</ele><time>2026-04-18T07:59:55Z</time></trkpt><trkpt lat="43.18561583992827" lon="13.009551088967086"><ele>458.0</ele><time>2026-04-18T07:59:56Z</time></trkpt><trkpt lat="43.18571083959087" lon="13.009593816641742"><ele>461.0</ele><time>2026-04-18T07:59:57Z</time></trkpt><trkpt lat="43.185792173577916" lon="13.009636205025755"><ele>463.99999999999994</ele><time>2026-04-18T07:59:58Z</time></trkpt><trkpt lat="43.18590355628834" lon="13.009651377963115"><ele>466.99999999999994</ele><time>2026-04-18T07:59:59Z</time></trkpt><trkpt lat="43.186012153420656" lon="13.009688658938376"><ele>470.0</ele><time>2026-04-18T08:00:00Z</time></trkpt><trkpt lat="43.18612261088998" lon="13.009714620024948"><ele>473.0</ele><time>2026-04-18T08:00:01Z</time></trkpt><trkpt lat="43.186222242790244" lon="13.009729112558334"><ele>472.99999999999994</ele><time>2026-04-18T08:00:02Z</time></trkpt><trkpt lat="43.18630760480417" lon="13.009767588988122"><ele>473.0</ele><time>2026-04-18T08:00:04Z</time></trkpt><trkpt lat="43.186385985654645" lon="13.009758519121853"><ele>473.0</ele><time>2026-04-18T08:00:06Z</time></trkpt><trkpt lat="43.18646606906967" lon="13.009687236134777"><ele>473.0</ele><time>2026-04-18T08:00:08Z</time></trkpt><trkpt lat="43.18652006538989" lon="13.009612256696002"><ele>472.99999999999994</ele><time>2026-04-18T08:00:10Z</time></trkpt><trkpt lat="43.18657065123923" lon="13.009544506155281"><ele>473.0</ele><time>2026-04-18T08:00:12Z</time></trkpt><trkpt lat="43.1866156225195" lon="13.009460302471004"><ele>475.8333333333333</ele><time>2026-04-18T08:00:13Z</time></trkpt><trkpt lat="43.186676744069146" lon="13.009419605512406"><ele>478.66666666666663</ele><time>2026-04-18T08:00:14Z</time></trkpt><trkpt lat="43.18674866993238" lon="13.009392091785815"><ele>481.5</ele><time>2026-04-18T08:00:15Z</time></trkpt><trkpt lat="43.18681808719462" lon="13.009383557137237"><ele>484.33333333333337</ele><time>2026-04-18T08:00:17Z</time></trkpt><trkpt lat="43.18688953189017" lon="13.00947156238859"><ele>487.1666666666667</ele><time>2026-04-18T08:00:20Z</time></trkpt><trkpt lat="43.186970604887165" lon="13.00950386947747"><ele>490.0</ele><time>2026-04-18T08:00:22Z</time></trkpt><trkpt lat="43.1869639278429" lon="13.00959623990047"><ele>490.00000000000006</ele><time>2026-04-18T08:00:23Z</time></trkpt><trkpt lat="43.18694927012936" lon="13.0096917332931"><ele>490.0</ele><time>2026-04-18T08:00:24Z</time></trkpt><trkpt lat="43.18696359692348" lon="13.009850284425577"><ele>490.0</ele><time>2026-04-18T08:00:26Z</time></trkpt><trkpt lat="43.18700131797364" lon="13.00993964113755"><ele>490.0</ele><time>2026-04-18T08:00:27Z</time></trkpt><trkpt lat="43.187049136824285" lon="13.01000763974751"><ele>490.00000000000006</ele><time>2026-04-18T08:00:29Z</time></trkpt><trkpt lat="43.187111313007485" lon="13.010130398569604"><ele>490.0</ele><time>2026-04-18T08:00:32Z</time></trkpt><trkpt lat="43.18713307639872" lon="13.010215073360872"><ele>488.83333333333337</ele><time>2026-04-18T08:00:33Z</time></trkpt><trkpt lat="43.187076548576165" lon="13.010271839514505"><ele>487.6666666666667</ele><time>2026-04-18T08:00:34Z</time></trkpt><trkpt lat="43.18709406816069" lon="13.010388108541903"><ele>486.5</ele><time>2026-04-18T08:00:36Z</time></trkpt><trkpt lat="43.18715134440025" lon="13.010531216700043"><ele>485.33333333333337</ele><time>2026-04-18T08:00:38Z</time></trkpt><trkpt lat="43.18718419658195" lon="13.010608303279973"><ele>484.1666666666667</ele><time>2026-04-18T08:00:39Z</time></trkpt><trkpt lat="43.18723439429568" lon="13.010687764361"><ele>483.0</ele><time>2026-04-18T08:00:40Z</time></trkpt><trkpt lat="43.18725724851641" lon="13.010926190576777"><ele>484.8333333333333</ele><time>2026-04-18T08:00:41Z</time></trkpt><trkpt lat="43.187373612121405" lon="13.01094863061387"><ele>486.66666666666663</ele><time>2026-04-18T08:00:42Z</time></trkpt><trkpt lat="43.18744819689088" lon="13.010928234753738"><ele>488.5</ele><time>2026-04-18T08:00:43Z</time></trkpt><trkpt lat="43.187511061068975" lon="13.010903885060419"><ele>490.3333333333333</ele><time>2026-04-18T08:00:44Z</time></trkpt><trkpt lat="43.187572764352225" lon="13.010877485086743"><ele>492.16666666666663</ele><time>2026-04-18T08:00:45Z</time></trkpt><trkpt lat="43.187637019172655" lon="13.010863839035045"><ele>494.0</ele><time>2026-04-18T08:00:46Z</time></trkpt><trkpt lat="43.18770899454739" lon="13.010866156281256"><ele>493.99999999999994</ele><time>2026-04-18T08:00:47Z</time></trkpt><trkpt lat="43.18778338267163" lon="13.010864014748808"><ele>494.0</ele><time>2026-04-18T08:00:48Z</time></trkpt><trkpt lat="43.187870352409526" lon="13.010925441142986"><ele>494.0</ele><time>2026-04-18T08:00:49Z</time></trkpt><trkpt lat="43.18794791438658" lon="13.010972055005867"><ele>494.0</ele><time>2026-04-18T08:00:50Z</time></trkpt><trkpt lat="43.18802515726393" lon="13.01099411988153"><ele>493.99999999999994</ele><time>2026-04-18T08:00:51Z</time></trkpt><trkpt lat="43.18809727733872" lon="13.011030135628923"><ele>494.0</ele><time>2026-04-18T08:00:52Z</time></trkpt><trkpt lat="43.18816311474074" lon="13.01105603756468"><ele>494.8333333333333</ele><time>2026-04-18T08:00:53Z</time></trkpt><trkpt lat="43.188239111913724" lon="13.01108356119469"><ele>495.66666666666663</ele><time>2026-04-18T08:00:54Z</time></trkpt><trkpt lat="43.188308579443" lon="13.011087991358323"><ele>496.5</ele><time>2026-04-18T08:00:55Z</time></trkpt><trkpt lat="43.18838667624091" lon="13.011082392263035"><ele>497.33333333333337</ele><time>2026-04-18T08:00:56Z</time></trkpt><trkpt lat="43.188469978109275" lon="13.011081710943742"><ele>498.1666666666667</ele><time>2026-04-18T08:00:57Z</time></trkpt><trkpt lat="43.18854127737861" lon="13.011057159727306"><ele>499.0</ele><time>2026-04-18T08:00:58Z</time></trkpt><trkpt lat="43.18864290933959" lon="13.011077140057134"><ele>499.00000000000006</ele><time>2026-04-18T08:00:59Z</time></trkpt><trkpt lat="43.1887329979413" lon="13.011115810235374"><ele>499.0</ele><time>2026-04-18T08:01:00Z</time></trkpt><trkpt lat="43.188791610034535" lon="13.011165176969273"><ele>499.0</ele><time>2026-04-18T08:01:01Z</time></trkpt><trkpt lat="43.18885645488344" lon="13.011192245237757"><ele>499.0</ele><time>2026-04-18T08:01:02Z</time></trkpt><trkpt lat="43.18896180000633" lon="13.011195884469306"><ele>499.00000000000006</ele><time>2026-04-18T08:01:04Z</time></trkpt><trkpt lat="43.18904105142178" lon="13.011217059902817"><ele>499.0</ele><time>2026-04-18T08:01:05Z</time></trkpt><trkpt lat="43.18912318534775" lon="13.011090513523865"><ele>500.1666666666667</ele><time>2026-04-18T08:01:06Z</time></trkpt><trkpt lat="43.18921405150599" lon="13.01108931690066"><ele>501.33333333333337</ele><time>2026-04-18T08:01:07Z</time></trkpt><trkpt lat="43.1892987327609" lon="13.011114237801714"><ele>502.5</ele><time>2026-04-18T08:01:08Z</time></trkpt><trkpt lat="43.18936037466461" lon="13.011136582002418"><ele>503.66666666666663</ele><time>2026-04-18T08:01:09Z</time></trkpt><trkpt lat="43.189429327379536" lon="13.011162266298845"><ele>504.8333333333333</ele><time>2026-04-18T08:01:10Z</time></trkpt><trkpt lat="43.18953152738345" lon="13.011204733441767"><ele>506.0</ele><time>2026-04-18T08:01:11Z</time></trkpt><trkpt lat="43.189560333002035" lon="13.011319188043707"><ele>506.0</ele><time>2026-04-18T08:01:13Z</time></trkpt><trkpt lat="43.189474333765894" lon="13.011498563775381"><ele>506.0</ele><time>2026-04-18T08:01:15Z</time></trkpt><trkpt lat="43.189470937851844" lon="13.011627677220096"><ele>506.0</ele><time>2026-04-18T08:01:17Z</time></trkpt><trkpt lat="43.18948918728704" lon="13.011727584866875"><ele>506.0</ele><time>2026-04-18T08:01:18Z</time></trkpt><trkpt lat="43.1895174191301" lon="13.01184187068732"><ele>506.0</ele><time>2026-04-18T08:01:19Z</time></trkpt><trkpt lat="43.189584354483664" lon="13.011978586068837"><ele>503.8</ele><time>2026-04-18T08:01:20Z</time></trkpt><trkpt lat="43.189594923460014" lon="13.012098539771316"><ele>501.6</ele><time>2026-04-18T08:01:21Z</time></trkpt><trkpt lat="43.189622218171365" lon="13.01220079468996"><ele>499.4</ele><time>2026-04-18T08:01:22Z</time></trkpt><trkpt lat="43.18963573770997" lon="13.012339897343505"><ele>497.2</ele><time>2026-04-18T08:01:23Z</time></trkpt><trkpt lat="43.18969988832035" lon="13.012472071219468"><ele>495.0</ele><time>2026-04-18T08:01:24Z</time></trkpt><trkpt lat="43.189798542354026" lon="13.012576159435872"><ele>492.8</ele><time>2026-04-18T08:01:25Z</time></trkpt><trkpt lat="43.189895665542345" lon="13.012648626592146"><ele>490.6</ele><time>2026-04-18T08:01:26Z</time></trkpt><trkpt lat="43.18999301306293" lon="13.012713876283033"><ele>488.4</ele><time>2026-04-18T08:01:27Z</time></trkpt><trkpt lat="43.19008935076813" lon="13.012778320452874"><ele>486.2</ele><time>2026-04-18T08:01:28Z</time></trkpt><trkpt lat="43.190172971612945" lon="13.012834105572473"><ele>484.0</ele><time>2026-04-18T08:01:29Z</time></trkpt><trkpt lat="43.19022868550929" lon="13.012921880341121"><ele>484.00000000000006</ele><time>2026-04-18T08:01:30Z</time></trkpt><trkpt lat="43.19026498078605" lon="13.013027374741457"><ele>484.0</ele><time>2026-04-18T08:01:31Z</time></trkpt><trkpt lat="43.190297440623674" lon="13.013145718627916"><ele>484.0</ele><time>2026-04-18T08:01:32Z</time></trkpt><trkpt lat="43.190323908756156" lon="13.013261292239283"><ele>484.0</ele><time>2026-04-18T08:01:33Z</time></trkpt><trkpt lat="43.19034291888893" lon="13.013374197310338"><ele>484.00000000000006</ele><time>2026-04-18T08:01:34Z</time></trkpt><trkpt lat="43.19035830588317" lon="13.013490403860597"><ele>484.0</ele><time>2026-04-18T08:01:35Z</time></trkpt><trkpt lat="43.190370678728875" lon="13.01360829320331"><ele>481.6</ele><time>2026-04-18T08:01:36Z</time></trkpt><trkpt lat="43.190394010660484" lon="13.013748449474843"><ele>479.2</ele><time>2026-04-18T08:01:37Z</time></trkpt><trkpt lat="43.190392500143005" lon="13.013893098453451"><ele>476.80000000000007</ele><time>2026-04-18T08:01:38Z</time></trkpt><trkpt lat="43.1903937542719" lon="13.014040054693265"><ele>474.40000000000003</ele><time>2026-04-18T08:01:39Z</time></trkpt><trkpt lat="43.19039357829149" lon="13.01419957271342"><ele>472.0</ele><time>2026-04-18T08:01:40Z</time></trkpt><trkpt lat="43.190387916152" lon="13.014361321174613"><ele>469.5</ele><time>2026-04-18T08:01:41Z</time></trkpt><trkpt lat="43.19038428168217" lon="13.01453295201031"><ele>467.0</ele><time>2026-04-18T08:01:42Z</time></trkpt><trkpt lat="43.190370567774735" lon="13.014705718215078"><ele>464.5</ele><time>2026-04-18T08:01:43Z</time></trkpt><trkpt lat="43.19036070121913" lon="13.0148826994671"><ele>462.0</ele><time>2026-04-18T08:01:44Z</time></trkpt><trkpt lat="43.19033125958176" lon="13.015056264299036"><ele>459.75</ele><time>2026-04-18T08:01:45Z</time></trkpt><trkpt lat="43.19031176974493" lon="13.015229641316079"><ele>457.5</ele><time>2026-04-18T08:01:46Z</time></trkpt><trkpt lat="43.19028387579155" lon="13.01539529257932"><ele>455.25</ele><time>2026-04-18T08:01:47Z</time></trkpt><trkpt lat="43.190239166725625" lon="13.015543359425882"><ele>453.0</ele><time>2026-04-18T08:01:48Z</time></trkpt><trkpt lat="43.19020186551507" lon="13.015705312054504"><ele>451.75</ele><time>2026-04-18T08:01:49Z</time></trkpt><trkpt lat="43.19017050541153" lon="13.015868479432257"><ele>450.5</ele><time>2026-04-18T08:01:50Z</time></trkpt><trkpt lat="43.19011561249525" lon="13.016024571480823"><ele>449.25</ele><time>2026-04-18T08:01:51Z</time></trkpt><trkpt lat="43.190080079731565" lon="13.016175584134277"><ele>448.0</ele><time>2026-04-18T08:01:52Z</time></trkpt><trkpt lat="43.190053449490016" lon="13.016331394388411"><ele>448.0</ele><time>2026-04-18T08:01:53Z</time></trkpt><trkpt lat="43.190016924954776" lon="13.016484270234793"><ele>448.0</ele><time>2026-04-18T08:01:54Z</time></trkpt><trkpt lat="43.18997969879931" lon="13.01663204361038"><ele>448.0</ele><time>2026-04-18T08:01:55Z</time></trkpt><trkpt lat="43.189922457415214" lon="13.016769307204743"><ele>448.0</ele><time>2026-04-18T08:01:56Z</time></trkpt><trkpt lat="43.189899639886306" lon="13.016916665969081"><ele>447.1666666666667</ele><time>2026-04-18T08:01:57Z</time></trkpt><trkpt lat="43.1898871658613" lon="13.017055243944032"><ele>446.33333333333337</ele><time>2026-04-18T08:01:58Z</time></trkpt><trkpt lat="43.18988643052947" lon="13.017179065654306"><ele>445.5</ele><time>2026-04-18T08:01:59Z</time></trkpt><trkpt lat="43.18989154301805" lon="13.017291361089427"><ele>444.66666666666663</ele><time>2026-04-18T08:02:00Z</time></trkpt><trkpt lat="43.1898970701628" lon="13.017395831139815"><ele>443.8333333333333</ele><time>2026-04-18T08:02:01Z</time></trkpt><trkpt lat="43.18988834366074" lon="13.017497505233171"><ele>443.0</ele><time>2026-04-18T08:02:02Z</time></trkpt><trkpt lat="43.18985681263748" lon="13.017588868507277"><ele>441.16666666666663</ele><time>2026-04-18T08:02:03Z</time></trkpt><trkpt lat="43.18979723771637" lon="13.017650389622325"><ele>439.3333333333333</ele><time>2026-04-18T08:02:04Z</time></trkpt><trkpt lat="43.18972203886922" lon="13.017641025448006"><ele>437.5</ele><time>2026-04-18T08:02:05Z</time></trkpt><trkpt lat="43.18964164328992" lon="13.017642702824938"><ele>435.66666666666663</ele><time>2026-04-18T08:02:06Z</time></trkpt><trkpt lat="43.18956223457701" lon="13.017630158397246"><ele>433.8333333333333</ele><time>2026-04-18T08:02:07Z</time></trkpt><trkpt lat="43.18949636081918" lon="13.01764390387948"><ele>432.0</ele><time>2026-04-18T08:02:08Z</time></trkpt><trkpt lat="43.18937385665048" lon="13.017662132536946"><ele>432.0</ele><time>2026-04-18T08:02:10Z</time></trkpt><trkpt lat="43.18930741795679" lon="13.017717302793722"><ele>432.0</ele><time>2026-04-18T08:02:11Z</time></trkpt><trkpt lat="43.189238607970836" lon="13.01779868360144"><ele>432.0</ele><time>2026-04-18T08:02:12Z</time></trkpt><trkpt lat="43.189206393293276" lon="13.01790538028028"><ele>432.0</ele><time>2026-04-18T08:02:13Z</time></trkpt><trkpt lat="43.18918070215782" lon="13.01801429282747"><ele>432.0</ele><time>2026-04-18T08:02:14Z</time></trkpt><trkpt lat="43.18916387544825" lon="13.018132564452667"><ele>432.0</ele><time>2026-04-18T08:02:15Z</time></trkpt><trkpt lat="43.189126152225" lon="13.018248610641944"><ele>430.8333333333333</ele><time>2026-04-18T08:02:16Z</time></trkpt><trkpt lat="43.189089821241" lon="13.018361497440667"><ele>429.66666666666663</ele><time>2026-04-18T08:02:17Z</time></trkpt><trkpt lat="43.189051537907744" lon="13.018453688438562"><ele>428.5</ele><time>2026-04-18T08:02:18Z</time></trkpt><trkpt lat="43.18900253960335" lon="13.018522446033971"><ele>427.3333333333333</ele><time>2026-04-18T08:02:19Z</time></trkpt><trkpt lat="43.188944372973985" lon="13.018602841280002"><ele>426.16666666666663</ele><time>2026-04-18T08:02:20Z</time></trkpt><trkpt lat="43.188869918976714" lon="13.018667577595503"><ele>425.0</ele><time>2026-04-18T08:02:21Z</time></trkpt><trkpt lat="43.18880426652753" lon="13.018745017307918"><ele>423.2</ele><time>2026-04-18T08:02:22Z</time></trkpt><trkpt lat="43.18873585565301" lon="13.018827390064537"><ele>421.4</ele><time>2026-04-18T08:02:23Z</time></trkpt><trkpt lat="43.18867466398743" lon="13.018928474025458"><ele>419.6</ele><time>2026-04-18T08:02:24Z</time></trkpt><trkpt lat="43.188594461259505" lon="13.01900882016557"><ele>417.8</ele><time>2026-04-18T08:02:25Z</time></trkpt><trkpt lat="43.18854380610544" lon="13.019123534297558"><ele>416.0</ele><time>2026-04-18T08:02:26Z</time></trkpt><trkpt lat="43.188466615971805" lon="13.01918716461254"><ele>415.4</ele><time>2026-04-18T08:02:27Z</time></trkpt><trkpt lat="43.1883798918092" lon="13.01922371902056"><ele>414.8</ele><time>2026-04-18T08:02:28Z</time></trkpt><trkpt lat="43.18828716789028" lon="13.019243878673358"><ele>414.2</ele><time>2026-04-18T08:02:29Z</time></trkpt><trkpt lat="43.18819365176516" lon="13.01926553355521"><ele>413.59999999999997</ele><time>2026-04-18T08:02:30Z</time></trkpt><trkpt lat="43.18810583307009" lon="13.019311157242983"><ele>413.0</ele><time>2026-04-18T08:02:31Z</time></trkpt><trkpt lat="43.18801720591053" lon="13.019328830174054"><ele>411.59999999999997</ele><time>2026-04-18T08:02:32Z</time></trkpt><trkpt lat="43.18792411405277" lon="13.019347393338258"><ele>410.2</ele><time>2026-04-18T08:02:33Z</time></trkpt><trkpt lat="43.18782506443711" lon="13.019385194655348"><ele>408.8</ele><time>2026-04-18T08:02:34Z</time></trkpt><trkpt lat="43.18772398020986" lon="13.019398478738625"><ele>407.4</ele><time>2026-04-18T08:02:35Z</time></trkpt><trkpt lat="43.18762411171821" lon="13.019418438282392"><ele>406.0</ele><time>2026-04-18T08:02:36Z</time></trkpt><trkpt lat="43.18752194114655" lon="13.01941112522824"><ele>406.0</ele><time>2026-04-18T08:02:37Z</time></trkpt><trkpt lat="43.18741090200148" lon="13.019427240763187"><ele>406.0</ele><time>2026-04-18T08:02:38Z</time></trkpt><trkpt lat="43.18729933127477" lon="13.019443433504108"><ele>406.0</ele><time>2026-04-18T08:02:39Z</time></trkpt><trkpt lat="43.18718946236837" lon="13.019459379213963"><ele>406.0</ele><time>2026-04-18T08:02:40Z</time></trkpt><trkpt lat="43.18708759058476" lon="13.019474272964933"><ele>406.0</ele><time>2026-04-18T08:02:41Z</time></trkpt><trkpt lat="43.18699564001531" lon="13.019488406061926"><ele>404.83333333333337</ele><time>2026-04-18T08:02:42Z</time></trkpt><trkpt lat="43.186905499122894" lon="13.019511483792009"><ele>403.6666666666667</ele><time>2026-04-18T08:02:43Z</time></trkpt><trkpt lat="43.186828820874794" lon="13.01951253308657"><ele>402.5</ele><time>2026-04-18T08:02:44Z</time></trkpt><trkpt lat="43.18675462313401" lon="13.019540923047254"><ele>401.33333333333337</ele><time>2026-04-18T08:02:45Z</time></trkpt><trkpt lat="43.18668581061116" lon="13.01959867242516"><ele>400.1666666666667</ele><time>2026-04-18T08:02:46Z</time></trkpt><trkpt lat="43.18663018642016" lon="13.019696510925646"><ele>399.0</ele><time>2026-04-18T08:02:47Z</time></trkpt><trkpt lat="43.186581648262525" lon="13.019851366236255"><ele>397.6</ele><time>2026-04-18T08:02:48Z</time></trkpt><trkpt lat="43.18657036778184" lon="13.020011457689924"><ele>396.2</ele><time>2026-04-18T08:02:49Z</time></trkpt><trkpt lat="43.18657855096033" lon="13.02015647254544"><ele>394.8</ele><time>2026-04-18T08:02:50Z</time></trkpt><trkpt lat="43.18659241776979" lon="13.020288725396414"><ele>393.40000000000003</ele><time>2026-04-18T08:02:51Z</time></trkpt><trkpt lat="43.1866057067916" lon="13.020409296114044"><ele>392.0</ele><time>2026-04-18T08:02:52Z</time></trkpt><trkpt lat="43.1866187241477" lon="13.020526566245955"><ele>392.0</ele><time>2026-04-18T08:02:53Z</time></trkpt><trkpt lat="43.18662851687489" lon="13.02064361381735"><ele>392.0</ele><time>2026-04-18T08:02:54Z</time></trkpt><trkpt lat="43.186634805079166" lon="13.020763222958104"><ele>392.0</ele><time>2026-04-18T08:02:55Z</time></trkpt><trkpt lat="43.18665784631914" lon="13.020947860253113"><ele>392.0</ele><time>2026-04-18T08:02:57Z</time></trkpt><trkpt lat="43.18658924042681" lon="13.02101533027062"><ele>392.0</ele><time>2026-04-18T08:02:59Z</time></trkpt><trkpt lat="43.18661052146569" lon="13.021142834711405"><ele>391.3333333333333</ele><time>2026-04-18T08:03:01Z</time></trkpt><trkpt lat="43.186590003204465" lon="13.021242705398674"><ele>390.66666666666663</ele><time>2026-04-18T08:03:02Z</time></trkpt><trkpt lat="43.18659416766773" lon="13.021344389502525"><ele>390.0</ele><time>2026-04-18T08:03:03Z</time></trkpt><trkpt lat="43.186558179233444" lon="13.021423499765087"><ele>389.33333333333337</ele><time>2026-04-18T08:03:04Z</time></trkpt><trkpt lat="43.18667336402658" lon="13.021556065589856"><ele>388.6666666666667</ele><time>2026-04-18T08:03:05Z</time></trkpt><trkpt lat="43.18667292333129" lon="13.021667246325256"><ele>388.0</ele><time>2026-04-18T08:03:06Z</time></trkpt><trkpt lat="43.18662402598682" lon="13.021774867307164"><ele>387.6666666666667</ele><time>2026-04-18T08:03:07Z</time></trkpt><trkpt lat="43.18659342235566" lon="13.021893860526342"><ele>387.33333333333337</ele><time>2026-04-18T08:03:08Z</time></trkpt><trkpt lat="43.18656671624594" lon="13.022010084924776"><ele>387.0</ele><time>2026-04-18T08:03:09Z</time></trkpt><trkpt lat="43.18653792243194" lon="13.022111566848002"><ele>386.66666666666663</ele><time>2026-04-18T08:03:10Z</time></trkpt><trkpt lat="43.18650300097261" lon="13.022214022883615"><ele>386.3333333333333</ele><time>2026-04-18T08:03:11Z</time></trkpt><trkpt lat="43.18647647935612" lon="13.022328866858878"><ele>386.0</ele><time>2026-04-18T08:03:12Z</time></trkpt><trkpt lat="43.186449587026516" lon="13.02244250607238"><ele>384.66666666666663</ele><time>2026-04-18T08:03:13Z</time></trkpt><trkpt lat="43.18642255316607" lon="13.022547917476874"><ele>383.3333333333333</ele><time>2026-04-18T08:03:14Z</time></trkpt><trkpt lat="43.18639493392389" lon="13.022653742920346"><ele>382.0</ele><time>2026-04-18T08:03:15Z</time></trkpt><trkpt lat="43.18636661210931" lon="13.022757764910597"><ele>380.66666666666663</ele><time>2026-04-18T08:03:16Z</time></trkpt><trkpt lat="43.18633992138322" lon="13.022863102429001"><ele>379.3333333333333</ele><time>2026-04-18T08:03:17Z</time></trkpt><trkpt lat="43.18631964594616" lon="13.02297117021067"><ele>378.0</ele><time>2026-04-18T08:03:18Z</time></trkpt><trkpt lat="43.186300912921475" lon="13.023085710927763"><ele>378.0</ele><time>2026-04-18T08:03:19Z</time></trkpt><trkpt lat="43.18627689473002" lon="13.023203644359123"><ele>378.0</ele><time>2026-04-18T08:03:20Z</time></trkpt><trkpt lat="43.1862538242567" lon="13.023320089413223"><ele>378.0</ele><time>2026-04-18T08:03:21Z</time></trkpt><trkpt lat="43.18624521087377" lon="13.023432856846894"><ele>378.0</ele><time>2026-04-18T08:03:22Z</time></trkpt><trkpt lat="43.186248788445624" lon="13.023536327125475"><ele>378.0</ele><time>2026-04-18T08:03:23Z</time></trkpt><trkpt lat="43.18625617488528" lon="13.023639403621104"><ele>378.0</ele><time>2026-04-18T08:03:24Z</time></trkpt><trkpt lat="43.1862767646082" lon="13.023744100195463"><ele>376.5</ele><time>2026-04-18T08:03:25Z</time></trkpt><trkpt lat="43.18630143533609" lon="13.023844913357173"><ele>375.0</ele><time>2026-04-18T08:03:26Z</time></trkpt><trkpt lat="43.186316347601775" lon="13.02395440923788"><ele>373.5</ele><time>2026-04-18T08:03:27Z</time></trkpt><trkpt lat="43.18633411542664" lon="13.024065559337142"><ele>372.0</ele><time>2026-04-18T08:03:28Z</time></trkpt><trkpt lat="43.186359368893164" lon="13.024171992785508"><ele>370.5</ele><time>2026-04-18T08:03:29Z</time></trkpt><trkpt lat="43.18638449147236" lon="13.024279487034448"><ele>369.0</ele><time>2026-04-18T08:03:30Z</time></trkpt><trkpt lat="43.18641095042572" lon="13.024394546239348"><ele>367.6</ele><time>2026-04-18T08:03:31Z</time></trkpt><trkpt lat="43.18643729023732" lon="13.024512082109002"><ele>366.2</ele><time>2026-04-18T08:03:32Z</time></trkpt><trkpt lat="43.1864600309135" lon="13.024631587397215"><ele>364.8</ele><time>2026-04-18T08:03:33Z</time></trkpt><trkpt lat="43.18648685495049" lon="13.024752100438342"><ele>363.40000000000003</ele><time>2026-04-18T08:03:34Z</time></trkpt><trkpt lat="43.18650784798731" lon="13.02487268278856"><ele>362.0</ele><time>2026-04-18T08:03:35Z</time></trkpt><trkpt lat="43.18652647707463" lon="13.02499937214743"><ele>361.6666666666667</ele><time>2026-04-18T08:03:36Z</time></trkpt><trkpt lat="43.18654399124192" lon="13.025116933716243"><ele>361.33333333333337</ele><time>2026-04-18T08:03:37Z</time></trkpt><trkpt lat="43.18656165876223" lon="13.025228934387455"><ele>361.0</ele><time>2026-04-18T08:03:38Z</time></trkpt><trkpt lat="43.186577158237405" lon="13.025346666105586"><ele>360.6666666666667</ele><time>2026-04-18T08:03:39Z</time></trkpt><trkpt lat="43.18658549300777" lon="13.025474040116439"><ele>360.3333333333333</ele><time>2026-04-18T08:03:40Z</time></trkpt><trkpt lat="43.18659339231088" lon="13.025607588269244"><ele>360.0</ele><time>2026-04-18T08:03:41Z</time></trkpt><trkpt lat="43.186605238133424" lon="13.02574528385256"><ele>358.1666666666667</ele><time>2026-04-18T08:03:42Z</time></trkpt><trkpt lat="43.18662326125449" lon="13.0258790848717"><ele>356.3333333333333</ele><time>2026-04-18T08:03:43Z</time></trkpt><trkpt lat="43.18664427365347" lon="13.026000681945618"><ele>354.5</ele><time>2026-04-18T08:03:44Z</time></trkpt><trkpt lat="43.186657466040586" lon="13.026109189835038"><ele>352.66666666666663</ele><time>2026-04-18T08:03:45Z</time></trkpt><trkpt lat="43.18666970923991" lon="13.026208445700519"><ele>350.8333333333333</ele><time>2026-04-18T08:03:46Z</time></trkpt><trkpt lat="43.18668145337926" lon="13.026351932895713"><ele>349.0</ele><time>2026-04-18T08:03:48Z</time></trkpt><trkpt lat="43.1866474670176" lon="13.026478068497061"><ele>349.0</ele><time>2026-04-18T08:03:51Z</time></trkpt><trkpt lat="43.18656423100895" lon="13.026582438776305"><ele>349.0</ele><time>2026-04-18T08:03:53Z</time></trkpt><trkpt lat="43.18651910327128" lon="13.026668561328837"><ele>349.0</ele><time>2026-04-18T08:03:54Z</time></trkpt><trkpt lat="43.18646984318869" lon="13.026757227729313"><ele>349.0</ele><time>2026-04-18T08:03:55Z</time></trkpt><trkpt lat="43.18640022996046" lon="13.026807271153459"><ele>349.0</ele><time>2026-04-18T08:03:56Z</time></trkpt><trkpt lat="43.18633662531799" lon="13.026869922070519"><ele>349.0</ele><time>2026-04-18T08:03:57Z</time></trkpt><trkpt lat="43.18626759624153" lon="13.02693791605162"><ele>347.66666666666663</ele><time>2026-04-18T08:03:58Z</time></trkpt><trkpt lat="43.18619481608381" lon="13.027009604889997"><ele>346.3333333333333</ele><time>2026-04-18T08:03:59Z</time></trkpt><trkpt lat="43.18612350160679" lon="13.02707984999198"><ele>345.0</ele><time>2026-04-18T08:04:00Z</time></trkpt><trkpt lat="43.18605467930779" lon="13.027147640344664"><ele>343.6666666666667</ele><time>2026-04-18T08:04:01Z</time></trkpt><trkpt lat="43.18600893234343" lon="13.027249504049095"><ele>342.33333333333337</ele><time>2026-04-18T08:04:02Z</time></trkpt><trkpt lat="43.185949023218384" lon="13.027308272292903"><ele>341.0</ele><time>2026-04-18T08:04:03Z</time></trkpt><trkpt lat="43.18589528973054" lon="13.027364273555172"><ele>341.0</ele><time>2026-04-18T08:04:04Z</time></trkpt><trkpt lat="43.18585276621087" lon="13.027434746888263"><ele>341.0</ele><time>2026-04-18T08:04:05Z</time></trkpt><trkpt lat="43.185833811428886" lon="13.027521596602286"><ele>341.0</ele><time>2026-04-18T08:04:06Z</time></trkpt><trkpt lat="43.1857872436472" lon="13.027659022016714"><ele>341.0</ele><time>2026-04-18T08:04:07Z</time></trkpt><trkpt lat="43.18582781245193" lon="13.02773665413501"><ele>341.0</ele><time>2026-04-18T08:04:08Z</time></trkpt><trkpt lat="43.185879904052555" lon="13.02783633603227"><ele>341.0</ele><time>2026-04-18T08:04:09.001Z</time></trkpt><trkpt lat="43.185940123187315" lon="13.027951570771181"><ele>340.8</ele><time>2026-04-18T08:04:10.001Z</time></trkpt><trkpt lat="43.186005420051536" lon="13.028076522014352"><ele>340.6</ele><time>2026-04-18T08:04:11.001Z</time></trkpt><trkpt lat="43.18607100259088" lon="13.028201892871568"><ele>340.4</ele><time>2026-04-18T08:04:12.001Z</time></trkpt><trkpt lat="43.18613607453822" lon="13.028326295556615"><ele>340.2</ele><time>2026-04-18T08:04:13.001Z</time></trkpt><trkpt lat="43.186201483087885" lon="13.028451036180513"><ele>340.0</ele><time>2026-04-18T08:04:14.001Z</time></trkpt><trkpt lat="43.18626762280737" lon="13.02857448417512"><ele>340.0</ele><time>2026-04-18T08:04:15.001Z</time></trkpt><trkpt lat="43.18633015228352" lon="13.028691193607633"><ele>340.0</ele><time>2026-04-18T08:04:16.001Z</time></trkpt><trkpt lat="43.186388550816964" lon="13.028798973063777"><ele>340.0</ele><time>2026-04-18T08:04:17.001Z</time></trkpt><trkpt lat="43.18645599040397" lon="13.028886452316677"><ele>340.0</ele><time>2026-04-18T08:04:18.001Z</time></trkpt><trkpt lat="43.186495560779626" lon="13.028995436341186"><ele>340.0</ele><time>2026-04-18T08:04:19.001Z</time></trkpt><trkpt lat="43.18654505640134" lon="13.029086378998402"><ele>339.66666666666663</ele><time>2026-04-18T08:04:20.001Z</time></trkpt><trkpt lat="43.18659220248654" lon="13.029173004625564"><ele>339.3333333333333</ele><time>2026-04-18T08:04:21.001Z</time></trkpt><trkpt lat="43.18663595121879" lon="13.029253387843978"><ele>339.0</ele><time>2026-04-18T08:04:22.001Z</time></trkpt><trkpt lat="43.186679493835406" lon="13.029333391658689"><ele>338.6666666666667</ele><time>2026-04-18T08:04:23.001Z</time></trkpt><trkpt lat="43.18672876303227" lon="13.02940496913289"><ele>338.33333333333337</ele><time>2026-04-18T08:04:24.001Z</time></trkpt><trkpt lat="43.18676462987905" lon="13.029491626106587"><ele>338.0</ele><time>2026-04-18T08:04:25.001Z</time></trkpt><trkpt lat="43.1866888827971" lon="13.029760915350339"><ele>338.0</ele><time>2026-04-18T08:04:27.001Z</time></trkpt><trkpt lat="43.186673193333725" lon="13.029883738666037"><ele>338.0</ele><time>2026-04-18T08:04:28.001Z</time></trkpt><trkpt lat="43.18666417509986" lon="13.029999840205816"><ele>338.0</ele><time>2026-04-18T08:04:29.001Z</time></trkpt><trkpt lat="43.18665554692853" lon="13.030107068858275"><ele>338.0</ele><time>2026-04-18T08:04:30.001Z</time></trkpt><trkpt lat="43.18663646373806" lon="13.030204402986364"><ele>338.0</ele><time>2026-04-18T08:04:31.001Z</time></trkpt><trkpt lat="43.18659142417125" lon="13.030317084871792"><ele>338.0</ele><time>2026-04-18T08:04:33.001Z</time></trkpt><trkpt lat="43.18651137907925" lon="13.030361175366895"><ele>337.2</ele><time>2026-04-18T08:04:36.001Z</time></trkpt><trkpt lat="43.18643792339612" lon="13.030469714683399"><ele>336.4</ele><time>2026-04-18T08:04:38.001Z</time></trkpt><trkpt lat="43.18641051216619" lon="13.030553534064103"><ele>335.59999999999997</ele><time>2026-04-18T08:04:39.001Z</time></trkpt><trkpt lat="43.18638947011695" lon="13.030705225504784"><ele>334.79999999999995</ele><time>2026-04-18T08:04:41.001Z</time></trkpt><trkpt lat="43.18634047613554" lon="13.030816940564423"><ele>334.0</ele><time>2026-04-18T08:04:43.001Z</time></trkpt><trkpt lat="43.186306605746665" lon="13.03091336492418"><ele>333.66666666666663</ele><time>2026-04-18T08:04:45.001Z</time></trkpt><trkpt lat="43.18626067383975" lon="13.031249768531014"><ele>333.3333333333333</ele><time>2026-04-18T08:04:59.001Z</time></trkpt><trkpt lat="43.186155660729206" lon="13.031322785494561"><ele>333.0</ele><time>2026-04-18T08:05:01.001Z</time></trkpt><trkpt lat="43.18605126172366" lon="13.031424427616036"><ele>333.0</ele><time>2026-04-18T08:05:03.001Z</time></trkpt><trkpt lat="43.18597932821284" lon="13.031480852970931"><ele>333.0</ele><time>2026-04-18T08:05:04.001Z</time></trkpt><trkpt lat="43.18589609920692" lon="13.031546138663915"><ele>333.0</ele><time>2026-04-18T08:05:05Z</time></trkpt><trkpt lat="43.18580104447769" lon="13.031620939113193"><ele>333.0</ele><time>2026-04-18T08:05:06Z</time></trkpt><trkpt lat="43.18571607041343" lon="13.03171016573325"><ele>333.0</ele><time>2026-04-18T08:05:07Z</time></trkpt><trkpt lat="43.18562956319663" lon="13.031775519003874"><ele>332.25</ele><time>2026-04-18T08:05:08Z</time></trkpt><trkpt lat="43.185533669120716" lon="13.031848549718458"><ele>331.5</ele><time>2026-04-18T08:05:09Z</time></trkpt><trkpt lat="43.18542534527778" lon="13.031942581960761"><ele>330.75</ele><time>2026-04-18T08:05:10Z</time></trkpt><trkpt lat="43.1853052636953" lon="13.032016617573616"><ele>330.0</ele><time>2026-04-18T08:05:11Z</time></trkpt><trkpt lat="43.18520013743363" lon="13.032098412955436"><ele>330.0</ele><time>2026-04-18T08:05:12Z</time></trkpt><trkpt lat="43.18510208498266" lon="13.032168063832826"><ele>330.0</ele><time>2026-04-18T08:05:13Z</time></trkpt><trkpt lat="43.18499834857348" lon="13.032236946677408"><ele>330.0</ele><time>2026-04-18T08:05:14Z</time></trkpt><trkpt lat="43.18488321106152" lon="13.032264671279302"><ele>330.0</ele><time>2026-04-18T08:05:15Z</time></trkpt><trkpt lat="43.18477041674652" lon="13.032284812660231"><ele>329.5</ele><time>2026-04-18T08:05:16Z</time></trkpt><trkpt lat="43.184651536107054" lon="13.032304720300033"><ele>329.0</ele><time>2026-04-18T08:05:17Z</time></trkpt><trkpt lat="43.18452138987302" lon="13.032292118333004"><ele>328.5</ele><time>2026-04-18T08:05:18Z</time></trkpt><trkpt lat="43.18439392276442" lon="13.032286172230647"><ele>328.0</ele><time>2026-04-18T08:05:19Z</time></trkpt><trkpt lat="43.18427537596179" lon="13.032278431768049"><ele>328.0</ele><time>2026-04-18T08:05:20Z</time></trkpt><trkpt lat="43.18415466212095" lon="13.032262664081115"><ele>328.0</ele><time>2026-04-18T08:05:21Z</time></trkpt><trkpt lat="43.18402893278797" lon="13.032241026279461"><ele>328.0</ele><time>2026-04-18T08:05:22Z</time></trkpt><trkpt lat="43.18390814510759" lon="13.032207049051454"><ele>328.0</ele><time>2026-04-18T08:05:23Z</time></trkpt><trkpt lat="43.18378971151711" lon="13.032168546707432"><ele>325.75</ele><time>2026-04-18T08:05:24Z</time></trkpt><trkpt lat="43.18367864027434" lon="13.032086291254549"><ele>323.5</ele><time>2026-04-18T08:05:25Z</time></trkpt><trkpt lat="43.18357521941651" lon="13.03198384256515"><ele>321.25</ele><time>2026-04-18T08:05:26Z</time></trkpt><trkpt lat="43.183465651007744" lon="13.03189247322672"><ele>319.0</ele><time>2026-04-18T08:05:27Z</time></trkpt><trkpt lat="43.183369044337084" lon="13.031788933078928"><ele>319.0</ele><time>2026-04-18T08:05:28Z</time></trkpt><trkpt lat="43.18327112877431" lon="13.031703838768186"><ele>319.0</ele><time>2026-04-18T08:05:29Z</time></trkpt><trkpt lat="43.183178041532194" lon="13.031622940410337"><ele>319.0</ele><time>2026-04-18T08:05:30Z</time></trkpt><trkpt lat="43.18308900717127" lon="13.031545564250433"><ele>319.0</ele><time>2026-04-18T08:05:31Z</time></trkpt><trkpt lat="43.18300758719779" lon="13.031470385774549"><ele>319.0</ele><time>2026-04-18T08:05:32Z</time></trkpt><trkpt lat="43.182930208677554" lon="13.031398714279641"><ele>319.3333333333333</ele><time>2026-04-18T08:05:33.001Z</time></trkpt><trkpt lat="43.18285516274701" lon="13.031331744866948"><ele>319.66666666666663</ele><time>2026-04-18T08:05:34.001Z</time></trkpt><trkpt lat="43.18279024962601" lon="13.031278329389178"><ele>320.0</ele><time>2026-04-18T08:05:35.001Z</time></trkpt><trkpt lat="43.182703661173676" lon="13.031244758051647"><ele>320.3333333333333</ele><time>2026-04-18T08:05:36.001Z</time></trkpt><trkpt lat="43.18260788482528" lon="13.031255991458597"><ele>320.6666666666667</ele><time>2026-04-18T08:05:37.001Z</time></trkpt><trkpt lat="43.18254299880566" lon="13.031351399328022"><ele>321.0</ele><time>2026-04-18T08:05:38.001Z</time></trkpt><trkpt lat="43.182491596439014" lon="13.031460016891101"><ele>321.0</ele><time>2026-04-18T08:05:39.001Z</time></trkpt><trkpt lat="43.18246605189878" lon="13.03159703437072"><ele>321.0</ele><time>2026-04-18T08:05:40.001Z</time></trkpt><trkpt lat="43.18242297052231" lon="13.031760368716078"><ele>321.0</ele><time>2026-04-18T08:05:41.001Z</time></trkpt><trkpt lat="43.18239425824185" lon="13.031953907798039"><ele>321.0</ele><time>2026-04-18T08:05:42.001Z</time></trkpt><trkpt lat="43.18236502365592" lon="13.032164649179192"><ele>322.6666666666667</ele><time>2026-04-18T08:05:43.001Z</time></trkpt><trkpt lat="43.182347110677014" lon="13.032391131751773"><ele>324.33333333333337</ele><time>2026-04-18T08:05:44.001Z</time></trkpt><trkpt lat="43.18234977478358" lon="13.032607561861747"><ele>326.0</ele><time>2026-04-18T08:05:45.001Z</time></trkpt><trkpt lat="43.182363715879546" lon="13.03278662385055"><ele>326.0</ele><time>2026-04-18T08:05:46.001Z</time></trkpt><trkpt lat="43.182375857018584" lon="13.032943993037922"><ele>326.0</ele><time>2026-04-18T08:05:47.001Z</time></trkpt><trkpt lat="43.182381130969" lon="13.033078871032792"><ele>326.0</ele><time>2026-04-18T08:05:48.001Z</time></trkpt><trkpt lat="43.1823811714379" lon="13.03317144290854"><ele>326.0</ele><time>2026-04-18T08:05:49.001Z</time></trkpt><trkpt lat="43.18237537348313" lon="13.033281798698034"><ele>326.0</ele><time>2026-04-18T08:05:50.001Z</time></trkpt><trkpt lat="43.18229854019996" lon="13.033346205370512"><ele>328.75</ele><time>2026-04-18T08:05:51.001Z</time></trkpt><trkpt lat="43.182214177980846" lon="13.033380814647185"><ele>331.5</ele><time>2026-04-18T08:05:52Z</time></trkpt><trkpt lat="43.18210280701911" lon="13.03344171127271"><ele>334.25</ele><time>2026-04-18T08:05:53Z</time></trkpt><trkpt lat="43.18196086289707" lon="13.033400166561547"><ele>337.0</ele><time>2026-04-18T08:05:54Z</time></trkpt><trkpt lat="43.18184795895142" lon="13.033320290801667"><ele>337.25</ele><time>2026-04-18T08:05:55Z</time></trkpt><trkpt lat="43.181736215315205" lon="13.03322893637272"><ele>337.5</ele><time>2026-04-18T08:05:56Z</time></trkpt><trkpt lat="43.181635214642036" lon="13.033136156044192"><ele>337.75</ele><time>2026-04-18T08:05:57Z</time></trkpt><trkpt lat="43.18152012851017" lon="13.033061747775099"><ele>338.0</ele><time>2026-04-18T08:05:58Z</time></trkpt><trkpt lat="43.18140459830702" lon="13.032966575083968"><ele>339.25</ele><time>2026-04-18T08:05:59Z</time></trkpt><trkpt lat="43.181284146318" lon="13.032873225443684"><ele>340.5</ele><time>2026-04-18T08:06:00Z</time></trkpt><trkpt lat="43.181159289784226" lon="13.032771381307706"><ele>341.75</ele><time>2026-04-18T08:06:01Z</time></trkpt><trkpt lat="43.181030875572255" lon="13.032663126281552"><ele>343.0</ele><time>2026-04-18T08:06:02Z</time></trkpt><trkpt lat="43.180911148792376" lon="13.032561583445357"><ele>342.5</ele><time>2026-04-18T08:06:03Z</time></trkpt><trkpt lat="43.18079521781051" lon="13.032463830800332"><ele>342.0</ele><time>2026-04-18T08:06:04Z</time></trkpt><trkpt lat="43.18068161759883" lon="13.032367591468303"><ele>341.5</ele><time>2026-04-18T08:06:05Z</time></trkpt><trkpt lat="43.1805674068845" lon="13.032270130180716"><ele>341.0</ele><time>2026-04-18T08:06:06Z</time></trkpt><trkpt lat="43.18045477812827" lon="13.032175593627246"><ele>341.0</ele><time>2026-04-18T08:06:07Z</time></trkpt><trkpt lat="43.18034049707049" lon="13.032084046412612"><ele>341.0</ele><time>2026-04-18T08:06:08Z</time></trkpt><trkpt lat="43.18022701814212" lon="13.031993307518963"><ele>341.0</ele><time>2026-04-18T08:06:09Z</time></trkpt><trkpt lat="43.180108462045716" lon="13.03189529928618"><ele>341.0</ele><time>2026-04-18T08:06:10Z</time></trkpt><trkpt lat="43.17999365048593" lon="13.031796413373364"><ele>341.0</ele><time>2026-04-18T08:06:11Z</time></trkpt><trkpt lat="43.17987981025981" lon="13.031692982570439"><ele>341.0</ele><time>2026-04-18T08:06:12Z</time></trkpt><trkpt lat="43.179765212124614" lon="13.03159301476509"><ele>341.0</ele><time>2026-04-18T08:06:13Z</time></trkpt><trkpt lat="43.179649816309094" lon="13.031494460138308"><ele>341.0</ele><time>2026-04-18T08:06:14Z</time></trkpt><trkpt lat="43.17952623445341" lon="13.031390100168636"><ele>341.75</ele><time>2026-04-18T08:06:15Z</time></trkpt><trkpt lat="43.17940437683911" lon="13.031275042203525"><ele>342.5</ele><time>2026-04-18T08:06:16Z</time></trkpt><trkpt lat="43.1792840276503" lon="13.031162666992232"><ele>343.25</ele><time>2026-04-18T08:06:17Z</time></trkpt><trkpt lat="43.17916026333186" lon="13.031049724063735"><ele>344.0</ele><time>2026-04-18T08:06:18Z</time></trkpt><trkpt lat="43.179036400359266" lon="13.0309305960447"><ele>344.0</ele><time>2026-04-18T08:06:19Z</time></trkpt><trkpt lat="43.1789109208563" lon="13.030813669974252"><ele>344.0</ele><time>2026-04-18T08:06:20Z</time></trkpt><trkpt lat="43.178786919054566" lon="13.0306941708112"><ele>344.0</ele><time>2026-04-18T08:06:21Z</time></trkpt><trkpt lat="43.1786606474714" lon="13.030575163455065"><ele>344.25</ele><time>2026-04-18T08:06:22Z</time></trkpt><trkpt lat="43.17853909359307" lon="13.030445579864502"><ele>344.5</ele><time>2026-04-18T08:06:23Z</time></trkpt><trkpt lat="43.17842028796212" lon="13.030320206143399"><ele>344.75</ele><time>2026-04-18T08:06:24Z</time></trkpt><trkpt lat="43.178311275718634" lon="13.030198474628973"><ele>345.0</ele><time>2026-04-18T08:06:25Z</time></trkpt><trkpt lat="43.17822752724552" lon="13.030073239934163"><ele>345.6</ele><time>2026-04-18T08:06:26Z</time></trkpt><trkpt lat="43.178143293909294" lon="13.02997581305261"><ele>346.2</ele><time>2026-04-18T08:06:27Z</time></trkpt><trkpt lat="43.17806671125434" lon="13.029887235279606"><ele>346.79999999999995</ele><time>2026-04-18T08:06:28Z</time></trkpt><trkpt lat="43.17799797828818" lon="13.029807736652161"><ele>347.4</ele><time>2026-04-18T08:06:29Z</time></trkpt><trkpt lat="43.17793758611127" lon="13.029737633981812"><ele>348.0</ele><time>2026-04-18T08:06:30Z</time></trkpt><trkpt lat="43.177881424613005" lon="13.029672130444222"><ele>348.2</ele><time>2026-04-18T08:06:31Z</time></trkpt><trkpt lat="43.17780784438831" lon="13.02958631093226"><ele>348.4</ele><time>2026-04-18T08:06:33Z</time></trkpt><trkpt lat="43.17773586226158" lon="13.029570997512385"><ele>348.59999999999997</ele><time>2026-04-18T08:06:58Z</time></trkpt><trkpt lat="43.17764444092955" lon="13.029432715789147"><ele>348.79999999999995</ele><time>2026-04-18T08:07:00Z</time></trkpt><trkpt lat="43.17758254964299" lon="13.029324648826785"><ele>349.0</ele><time>2026-04-18T08:07:01Z</time></trkpt><trkpt lat="43.17749109150554" lon="13.029238690609256"><ele>349.75</ele><time>2026-04-18T08:07:02Z</time></trkpt><trkpt lat="43.17740729554585" lon="13.02913348750607"><ele>350.5</ele><time>2026-04-18T08:07:03Z</time></trkpt><trkpt lat="43.177318890894384" lon="13.029027172506838"><ele>351.25</ele><time>2026-04-18T08:07:04Z</time></trkpt><trkpt lat="43.17722433303679" lon="13.028920247908744"><ele>352.0</ele><time>2026-04-18T08:07:05Z</time></trkpt><trkpt lat="43.17712818791834" lon="13.028812718771565"><ele>353.0</ele><time>2026-04-18T08:07:06Z</time></trkpt><trkpt lat="43.177034135016754" lon="13.028711089209612"><ele>354.0</ele><time>2026-04-18T08:07:07Z</time></trkpt><trkpt lat="43.17694709899309" lon="13.02860989826571"><ele>355.0</ele><time>2026-04-18T08:07:08Z</time></trkpt><trkpt lat="43.17686288511257" lon="13.02851635361357"><ele>356.0</ele><time>2026-04-18T08:07:09Z</time></trkpt><trkpt lat="43.176781125026004" lon="13.028413307008774"><ele>356.25</ele><time>2026-04-18T08:07:10Z</time></trkpt><trkpt lat="43.176691130864704" lon="13.028303622162102"><ele>356.5</ele><time>2026-04-18T08:07:11Z</time></trkpt><trkpt lat="43.17658751345462" lon="13.028216432868724"><ele>356.75</ele><time>2026-04-18T08:07:12Z</time></trkpt><trkpt lat="43.176487642841174" lon="13.02813094582306"><ele>357.0</ele><time>2026-04-18T08:07:13Z</time></trkpt><trkpt lat="43.176374775002515" lon="13.028105658772862"><ele>357.8333333333333</ele><time>2026-04-18T08:07:14Z</time></trkpt><trkpt lat="43.1762746294087" lon="13.028062650897779"><ele>358.6666666666667</ele><time>2026-04-18T08:07:15Z</time></trkpt><trkpt lat="43.17617821856524" lon="13.028058562954126"><ele>359.5</ele><time>2026-04-18T08:07:16Z</time></trkpt><trkpt lat="43.1760945818846" lon="13.028015497530905"><ele>360.33333333333337</ele><time>2026-04-18T08:07:17Z</time></trkpt><trkpt lat="43.17601721112628" lon="13.028013486803703"><ele>361.1666666666667</ele><time>2026-04-18T08:07:18Z</time></trkpt><trkpt lat="43.1759441231905" lon="13.027986528789041"><ele>362.0</ele><time>2026-04-18T08:07:19Z</time></trkpt><trkpt lat="43.17587358693987" lon="13.027828333339043"><ele>362.0</ele><time>2026-04-18T08:07:21Z</time></trkpt><trkpt lat="43.175845343577954" lon="13.027715565046554"><ele>362.0</ele><time>2026-04-18T08:07:22Z</time></trkpt><trkpt lat="43.17581156037456" lon="13.027596566930395"><ele>362.0</ele><time>2026-04-18T08:07:23Z</time></trkpt><trkpt lat="43.175782859139474" lon="13.02747521662096"><ele>362.0</ele><time>2026-04-18T08:07:24Z</time></trkpt><trkpt lat="43.17575650579693" lon="13.027364163733472"><ele>362.0</ele><time>2026-04-18T08:07:25Z</time></trkpt><trkpt lat="43.17576058866493" lon="13.02725884052745"><ele>362.0</ele><time>2026-04-18T08:07:26Z</time></trkpt><trkpt lat="43.175747934786536" lon="13.027171252900938"><ele>362.6</ele><time>2026-04-18T08:07:27Z</time></trkpt><trkpt lat="43.17572109658956" lon="13.027005640189735"><ele>363.20000000000005</ele><time>2026-04-18T08:07:29Z</time></trkpt><trkpt lat="43.17557890432409" lon="13.026988642709583"><ele>363.8</ele><time>2026-04-18T08:07:30Z</time></trkpt><trkpt lat="43.175492369759915" lon="13.026969704999932"><ele>364.4</ele><time>2026-04-18T08:07:31Z</time></trkpt><trkpt lat="43.17541241080884" lon="13.026902270626161"><ele>365.0</ele><time>2026-04-18T08:07:32Z</time></trkpt><trkpt lat="43.175329382057896" lon="13.026815631598527"><ele>365.75</ele><time>2026-04-18T08:07:33Z</time></trkpt><trkpt lat="43.17524432567623" lon="13.026715062714423"><ele>366.5</ele><time>2026-04-18T08:07:34Z</time></trkpt><trkpt lat="43.175144448999106" lon="13.026642514611009"><ele>367.25</ele><time>2026-04-18T08:07:35Z</time></trkpt><trkpt lat="43.175050340533176" lon="13.026544629910088"><ele>368.0</ele><time>2026-04-18T08:07:36Z</time></trkpt><trkpt lat="43.17495826229801" lon="13.026436743951491"><ele>368.5</ele><time>2026-04-18T08:07:37Z</time></trkpt><trkpt lat="43.17486292832865" lon="13.02632480384911"><ele>369.0</ele><time>2026-04-18T08:07:38Z</time></trkpt><trkpt lat="43.17476850742853" lon="13.026221517620387"><ele>369.5</ele><time>2026-04-18T08:07:39Z</time></trkpt><trkpt lat="43.17469329674366" lon="13.026102716531861"><ele>370.0</ele><time>2026-04-18T08:07:40Z</time></trkpt><trkpt lat="43.17462477367359" lon="13.02600235213273"><ele>371.4</ele><time>2026-04-18T08:07:41Z</time></trkpt><trkpt lat="43.17455751992794" lon="13.025913650766215"><ele>372.8</ele><time>2026-04-18T08:07:42Z</time></trkpt><trkpt lat="43.17451799121241" lon="13.02579940211438"><ele>374.20000000000005</ele><time>2026-04-18T08:07:43Z</time></trkpt><trkpt lat="43.1744914342386" lon="13.025675393448404"><ele>375.6</ele><time>2026-04-18T08:07:44Z</time></trkpt><trkpt lat="43.17448840144229" lon="13.02553930176841"><ele>377.0</ele><time>2026-04-18T08:07:45Z</time></trkpt><trkpt lat="43.17447323715271" lon="13.025401236755203"><ele>379.0</ele><time>2026-04-18T08:07:46Z</time></trkpt><trkpt lat="43.1744406001192" lon="13.02526618116983"><ele>381.0</ele><time>2026-04-18T08:07:47Z</time></trkpt><trkpt lat="43.174434481229305" lon="13.02511190785339"><ele>383.0</ele><time>2026-04-18T08:07:48Z</time></trkpt><trkpt lat="43.17441187382651" lon="13.024960259790483"><ele>385.0</ele><time>2026-04-18T08:07:49Z</time></trkpt><trkpt lat="43.174389665671654" lon="13.024799866969012"><ele>387.0</ele><time>2026-04-18T08:07:50Z</time></trkpt><trkpt lat="43.17436849794039" lon="13.024635054864937"><ele>389.3333333333333</ele><time>2026-04-18T08:07:51Z</time></trkpt><trkpt lat="43.17435431259941" lon="13.024485778927149"><ele>391.66666666666663</ele><time>2026-04-18T08:07:52Z</time></trkpt><trkpt lat="43.174336172313375" lon="13.024383056050267"><ele>394.0</ele><time>2026-04-18T08:07:53Z</time></trkpt><trkpt lat="43.174346293904854" lon="13.024280997976785"><ele>396.3333333333333</ele><time>2026-04-18T08:07:54Z</time></trkpt><trkpt lat="43.17439312613082" lon="13.024181998264408"><ele>398.66666666666663</ele><time>2026-04-18T08:07:55Z</time></trkpt><trkpt lat="43.174470531298596" lon="13.02411411049384"><ele>401.0</ele><time>2026-04-18T08:07:56Z</time></trkpt><trkpt lat="43.174514601720176" lon="13.023979250956174"><ele>401.4</ele><time>2026-04-18T08:07:57Z</time></trkpt><trkpt lat="43.17451128332248" lon="13.023848517986416"><ele>401.8</ele><time>2026-04-18T08:07:58Z</time></trkpt><trkpt lat="43.17449407326003" lon="13.023719707491773"><ele>402.2</ele><time>2026-04-18T08:07:59Z</time></trkpt><trkpt lat="43.174476985270935" lon="13.023578254044608"><ele>402.59999999999997</ele><time>2026-04-18T08:08:00Z</time></trkpt><trkpt lat="43.174459875092076" lon="13.023427649458368"><ele>403.0</ele><time>2026-04-18T08:08:01Z</time></trkpt><trkpt lat="43.174451670593555" lon="13.02330189961281"><ele>403.4</ele><time>2026-04-18T08:08:02Z</time></trkpt><trkpt lat="43.1744535261603" lon="13.023179128854396"><ele>403.79999999999995</ele><time>2026-04-18T08:08:03Z</time></trkpt><trkpt lat="43.174467198681434" lon="13.023036073638792"><ele>404.2</ele><time>2026-04-18T08:08:04Z</time></trkpt><trkpt lat="43.17448648743959" lon="13.022879948767597"><ele>404.6</ele><time>2026-04-18T08:08:05Z</time></trkpt><trkpt lat="43.174510403250345" lon="13.022728511555242"><ele>405.0</ele><time>2026-04-18T08:08:06Z</time></trkpt><trkpt lat="43.17454154160769" lon="13.022588348194938"><ele>407.4</ele><time>2026-04-18T08:08:07Z</time></trkpt><trkpt lat="43.17458394116477" lon="13.022451043049712"><ele>409.8</ele><time>2026-04-18T08:08:08Z</time></trkpt><trkpt lat="43.17463952058232" lon="13.022301906736647"><ele>412.20000000000005</ele><time>2026-04-18T08:08:09Z</time></trkpt><trkpt lat="43.17469743202419" lon="13.022163698353271"><ele>414.6</ele><time>2026-04-18T08:08:10Z</time></trkpt><trkpt lat="43.174753345818246" lon="13.022051898942374"><ele>417.0</ele><time>2026-04-18T08:08:11Z</time></trkpt><trkpt lat="43.174813132871485" lon="13.021962659704629"><ele>416.6</ele><time>2026-04-18T08:08:12Z</time></trkpt><trkpt lat="43.17488892696523" lon="13.021884575290594"><ele>416.20000000000005</ele><time>2026-04-18T08:08:13Z</time></trkpt><trkpt lat="43.17498248555359" lon="13.021813716888367"><ele>415.8</ele><time>2026-04-18T08:08:14Z</time></trkpt><trkpt lat="43.175076190995156" lon="13.021750524662036"><ele>415.4</ele><time>2026-04-18T08:08:15Z</time></trkpt><trkpt lat="43.17517009231156" lon="13.021688810665836"><ele>415.0</ele><time>2026-04-18T08:08:16Z</time></trkpt><trkpt lat="43.1752630709885" lon="13.021629839282829"><ele>415.00000000000006</ele><time>2026-04-18T08:08:17Z</time></trkpt><trkpt lat="43.17535171371557" lon="13.021573887100168"><ele>415.0</ele><time>2026-04-18T08:08:18Z</time></trkpt><trkpt lat="43.17542987743123" lon="13.021523234918428"><ele>415.0</ele><time>2026-04-18T08:08:19Z</time></trkpt><trkpt lat="43.17550152435108" lon="13.0214670803596"><ele>415.0</ele><time>2026-04-18T08:08:20Z</time></trkpt><trkpt lat="43.17556171427908" lon="13.021411626475768"><ele>415.00000000000006</ele><time>2026-04-18T08:08:21Z</time></trkpt><trkpt lat="43.17561812722059" lon="13.021359650516056"><ele>415.0</ele><time>2026-04-18T08:08:22Z</time></trkpt><trkpt lat="43.17569670753115" lon="13.02126974334077"><ele>415.0</ele><time>2026-04-18T08:08:24Z</time></trkpt><trkpt lat="43.17564753511489" lon="13.021103517951458"><ele>415.0</ele><time>2026-04-18T08:08:25Z</time></trkpt><trkpt lat="43.17561014194043" lon="13.020966075933071"><ele>415.0</ele><time>2026-04-18T08:08:27Z</time></trkpt><trkpt lat="43.175616798958046" lon="13.020833879921055"><ele>415.0</ele><time>2026-04-18T08:08:29Z</time></trkpt><trkpt lat="43.175598859388074" lon="13.0207311655857"><ele>415.0</ele><time>2026-04-18T08:08:31Z</time></trkpt><trkpt lat="43.17556535769193" lon="13.020657928416798"><ele>414.00000000000006</ele><time>2026-04-18T08:08:32Z</time></trkpt><trkpt lat="43.175506114818134" lon="13.020626190618275"><ele>413.0</ele><time>2026-04-18T08:08:33Z</time></trkpt><trkpt lat="43.175428262971245" lon="13.020622344328507"><ele>412.0</ele><time>2026-04-18T08:08:34Z</time></trkpt><trkpt lat="43.17532699995604" lon="13.0206116034639"><ele>411.0</ele><time>2026-04-18T08:08:35Z</time></trkpt><trkpt lat="43.17522979209518" lon="13.020572034402925"><ele>410.00000000000006</ele><time>2026-04-18T08:08:36Z</time></trkpt><trkpt lat="43.1751291411941" lon="13.02056965380764"><ele>409.0</ele><time>2026-04-18T08:08:37Z</time></trkpt><trkpt lat="43.175017809215774" lon="13.020564540704965"><ele>409.0</ele><time>2026-04-18T08:08:38Z</time></trkpt><trkpt lat="43.17490398678471" lon="13.020581829362428"><ele>409.0</ele><time>2026-04-18T08:08:39Z</time></trkpt><trkpt lat="43.17480742381765" lon="13.020556256803244"><ele>409.0</ele><time>2026-04-18T08:08:40Z</time></trkpt><trkpt lat="43.174715157067205" lon="13.020569653070732"><ele>409.0</ele><time>2026-04-18T08:08:41Z</time></trkpt><trkpt lat="43.17460835519056" lon="13.020604862629757"><ele>409.0</ele><time>2026-04-18T08:08:42Z</time></trkpt><trkpt lat="43.17448549337973" lon="13.020644304910482"><ele>411.75</ele><time>2026-04-18T08:08:43Z</time></trkpt><trkpt lat="43.17435722839424" lon="13.020685573532042"><ele>414.5</ele><time>2026-04-18T08:08:44Z</time></trkpt><trkpt lat="43.174240386189155" lon="13.020718658155305"><ele>417.25</ele><time>2026-04-18T08:08:45Z</time></trkpt><trkpt lat="43.17412994181787" lon="13.020742479912329"><ele>420.0</ele><time>2026-04-18T08:08:46Z</time></trkpt><trkpt lat="43.17401619215445" lon="13.020776337181584"><ele>423.25</ele><time>2026-04-18T08:08:47Z</time></trkpt><trkpt lat="43.173889030158236" lon="13.020780531384135"><ele>426.5</ele><time>2026-04-18T08:08:48Z</time></trkpt><trkpt lat="43.17375479868125" lon="13.020792367626685"><ele>429.75</ele><time>2026-04-18T08:08:49Z</time></trkpt><trkpt lat="43.17362403041507" lon="13.020788856989093"><ele>433.0</ele><time>2026-04-18T08:08:50Z</time></trkpt><trkpt lat="43.17351190620829" lon="13.020812206956341"><ele>433.00000000000006</ele><time>2026-04-18T08:08:51Z</time></trkpt><trkpt lat="43.17341790260009" lon="13.02081624121007"><ele>433.0</ele><time>2026-04-18T08:08:52Z</time></trkpt><trkpt lat="43.17333616048364" lon="13.02081454520104"><ele>433.0</ele><time>2026-04-18T08:08:53Z</time></trkpt><trkpt lat="43.1732689594721" lon="13.020798332521593"><ele>433.0</ele><time>2026-04-18T08:08:54Z</time></trkpt><trkpt lat="43.17317615757086" lon="13.02081611141054"><ele>433.00000000000006</ele><time>2026-04-18T08:08:56Z</time></trkpt><trkpt lat="43.17310172068552" lon="13.020801081407164"><ele>433.0</ele><time>2026-04-18T08:08:58Z</time></trkpt><trkpt lat="43.173110469286655" lon="13.020635620733279"><ele>435.1666666666667</ele><time>2026-04-18T08:08:59Z</time></trkpt><trkpt lat="43.1730618003744" lon="13.020558617215688"><ele>437.33333333333337</ele><time>2026-04-18T08:09:00Z</time></trkpt><trkpt lat="43.17301339422442" lon="13.020481926102075"><ele>439.5</ele><time>2026-04-18T08:09:01Z</time></trkpt><trkpt lat="43.17295824294168" lon="13.020420838459435"><ele>441.66666666666663</ele><time>2026-04-18T08:09:02Z</time></trkpt><trkpt lat="43.17288294941175" lon="13.020362434369417"><ele>443.8333333333333</ele><time>2026-04-18T08:09:03Z</time></trkpt><trkpt lat="43.17279577600102" lon="13.020308222008802"><ele>446.0</ele><time>2026-04-18T08:09:04Z</time></trkpt><trkpt lat="43.17270254598988" lon="13.020267639933778"><ele>446.0</ele><time>2026-04-18T08:09:05Z</time></trkpt><trkpt lat="43.17260154288788" lon="13.020238845686128"><ele>446.0</ele><time>2026-04-18T08:09:06Z</time></trkpt><trkpt lat="43.17251696728404" lon="13.020239584016734"><ele>446.0</ele><time>2026-04-18T08:09:07Z</time></trkpt><trkpt lat="43.17243912948648" lon="13.02026151270099"><ele>446.0</ele><time>2026-04-18T08:09:08Z</time></trkpt><trkpt lat="43.172376977002706" lon="13.020285930977979"><ele>446.0</ele><time>2026-04-18T08:09:09Z</time></trkpt><trkpt lat="43.17225001083271" lon="13.02034434471131"><ele>447.49999999999994</ele><time>2026-04-18T08:09:11Z</time></trkpt><trkpt lat="43.17218134796202" lon="13.020372279003217"><ele>449.0</ele><time>2026-04-18T08:09:12Z</time></trkpt><trkpt lat="43.17212076481905" lon="13.020396926166768"><ele>450.5</ele><time>2026-04-18T08:09:13Z</time></trkpt><trkpt lat="43.172016912306105" lon="13.02043941017535"><ele>452.0</ele><time>2026-04-18T08:09:15Z</time></trkpt><trkpt lat="43.17193434269502" lon="13.02047567504449"><ele>453.49999999999994</ele><time>2026-04-18T08:09:17Z</time></trkpt><trkpt lat="43.171870788896214" lon="13.020503924585697"><ele>455.0</ele><time>2026-04-18T08:09:18Z</time></trkpt><trkpt lat="43.171780049939855" lon="13.02056954417788"><ele>454.99999999999994</ele><time>2026-04-18T08:09:20Z</time></trkpt><trkpt lat="43.171691847977826" lon="13.02059821620506"><ele>455.0</ele><time>2026-04-18T08:09:22Z</time></trkpt><trkpt lat="43.17161822229856" lon="13.020670213080402"><ele>455.0</ele><time>2026-04-18T08:09:24Z</time></trkpt><trkpt lat="43.17153569816083" lon="13.020709832052509"><ele>455.0</ele><time>2026-04-18T08:09:26Z</time></trkpt><trkpt lat="43.17146899841983" lon="13.020718136835352"><ele>454.99999999999994</ele><time>2026-04-18T08:09:27Z</time></trkpt><trkpt lat="43.17139007601767" lon="13.020717052426034"><ele>455.0</ele><time>2026-04-18T08:09:28Z</time></trkpt><trkpt lat="43.17130513068541" lon="13.020679405195143"><ele>455.99999999999994</ele><time>2026-04-18T08:09:29Z</time></trkpt><trkpt lat="43.171223027295014" lon="13.020673581289534"><ele>457.0</ele><time>2026-04-18T08:09:30Z</time></trkpt><trkpt lat="43.1711475030489" lon="13.020737438827846"><ele>458.0</ele><time>2026-04-18T08:09:31Z</time></trkpt><trkpt lat="43.171066991909036" lon="13.020728390490616"><ele>459.0</ele><time>2026-04-18T08:09:32Z</time></trkpt><trkpt lat="43.170968536081965" lon="13.02070096193284"><ele>459.99999999999994</ele><time>2026-04-18T08:09:33Z</time></trkpt><trkpt lat="43.17087671700674" lon="13.020678433456956"><ele>461.0</ele><time>2026-04-18T08:09:34Z</time></trkpt><trkpt lat="43.170780433131185" lon="13.020651976429354"><ele>461.0</ele><time>2026-04-18T08:09:35Z</time></trkpt><trkpt lat="43.17069236099095" lon="13.020631491633305"><ele>461.0</ele><time>2026-04-18T08:09:36Z</time></trkpt><trkpt lat="43.170614991573316" lon="13.020617043800229"><ele>461.0</ele><time>2026-04-18T08:09:37Z</time></trkpt><trkpt lat="43.17050837139874" lon="13.02064260885478"><ele>461.0</ele><time>2026-04-18T08:09:39Z</time></trkpt><trkpt lat="43.170411051144924" lon="13.02056993839852"><ele>461.0</ele><time>2026-04-18T08:09:40Z</time></trkpt><trkpt lat="43.17033004280116" lon="13.020619430556748"><ele>464.75</ele><time>2026-04-18T08:09:41Z</time></trkpt><trkpt lat="43.17028847930719" lon="13.0206858205199"><ele>468.5</ele><time>2026-04-18T08:09:42Z</time></trkpt><trkpt lat="43.17023264992642" lon="13.0208038422324"><ele>472.25</ele><time>2026-04-18T08:09:44Z</time></trkpt><trkpt lat="43.170236098190685" lon="13.020969522577929"><ele>476.0</ele><time>2026-04-18T08:09:47Z</time></trkpt><trkpt lat="43.170142991732156" lon="13.02115350684736"><ele>476.75</ele><time>2026-04-18T08:09:49Z</time></trkpt><trkpt lat="43.17007034339276" lon="13.021158006019501"><ele>477.5</ele><time>2026-04-18T08:09:50Z</time></trkpt><trkpt lat="43.170003355046006" lon="13.021146516767086"><ele>478.25</ele><time>2026-04-18T08:09:51Z</time></trkpt><trkpt lat="43.169942098319815" lon="13.021095202722668"><ele>479.0</ele><time>2026-04-18T08:09:54Z</time></trkpt><trkpt lat="43.16972921990419" lon="13.020883577059806"><ele>482.0</ele><time>2026-04-18T08:09:57Z</time></trkpt><trkpt lat="43.169636954217616" lon="13.021182523640904"><ele>485.0</ele><time>2026-04-18T08:10:03Z</time></trkpt><trkpt lat="43.169592799609056" lon="13.02129924215051"><ele>488.0</ele><time>2026-04-18T08:10:04Z</time></trkpt><trkpt lat="43.169590735576975" lon="13.021413905137312"><ele>491.0</ele><time>2026-04-18T08:10:05Z</time></trkpt><trkpt lat="43.16950181411525" lon="13.021496527036778"><ele>491.0</ele><time>2026-04-18T08:10:06Z</time></trkpt><trkpt lat="43.169409438618025" lon="13.021582357723645"><ele>491.0</ele><time>2026-04-18T08:10:07Z</time></trkpt><trkpt lat="43.169294061250106" lon="13.021689869180952"><ele>491.0</ele><time>2026-04-18T08:10:08Z</time></trkpt><trkpt lat="43.16918873666989" lon="13.021792022639513"><ele>491.0</ele><time>2026-04-18T08:10:09Z</time></trkpt><trkpt lat="43.16910454289821" lon="13.021873681417446"><ele>491.4</ele><time>2026-04-18T08:10:10Z</time></trkpt><trkpt lat="43.16902429607545" lon="13.021951512106352"><ele>491.8</ele><time>2026-04-18T08:10:11Z</time></trkpt><trkpt lat="43.168965547969314" lon="13.022023791240404"><ele>492.19999999999993</ele><time>2026-04-18T08:10:12Z</time></trkpt><trkpt lat="43.16888911724249" lon="13.022050193213893"><ele>492.59999999999997</ele><time>2026-04-18T08:10:13Z</time></trkpt><trkpt lat="43.16879945202519" lon="13.022123290546876"><ele>493.0</ele><time>2026-04-18T08:10:15Z</time></trkpt><trkpt lat="43.16872185016506" lon="13.022041662798022"><ele>493.0</ele><time>2026-04-18T08:10:16Z</time></trkpt><trkpt lat="43.168712755329324" lon="13.02190450458512"><ele>492.99999999999994</ele><time>2026-04-18T08:10:18Z</time></trkpt><trkpt lat="43.168712500447086" lon="13.021746899459284"><ele>492.99999999999994</ele><time>2026-04-18T08:10:20Z</time></trkpt><trkpt lat="43.168658861470796" lon="13.02161712204189"><ele>493.0</ele><time>2026-04-18T08:10:22Z</time></trkpt><trkpt lat="43.168593582609496" lon="13.021497109536183"><ele>493.0</ele><time>2026-04-18T08:10:24Z</time></trkpt><trkpt lat="43.1685642079715" lon="13.021418021175165"><ele>495.59999999999997</ele><time>2026-04-18T08:10:25Z</time></trkpt><trkpt lat="43.1685274057766" lon="13.021345214836144"><ele>498.19999999999993</ele><time>2026-04-18T08:10:26Z</time></trkpt><trkpt lat="43.168480761271816" lon="13.021243035198733"><ele>500.8</ele><time>2026-04-18T08:10:27Z</time></trkpt><trkpt lat="43.16839953491889" lon="13.02107490353933"><ele>503.4</ele><time>2026-04-18T08:10:29Z</time></trkpt><trkpt lat="43.168366252879316" lon="13.02097224657513"><ele>506.0</ele><time>2026-04-18T08:10:30Z</time></trkpt><trkpt lat="43.16833462565168" lon="13.020887248785202"><ele>507.49999999999994</ele><time>2026-04-18T08:10:31Z</time></trkpt><trkpt lat="43.168292592104315" lon="13.020786981461558"><ele>509.0</ele><time>2026-04-18T08:10:32Z</time></trkpt><trkpt lat="43.168270380282195" lon="13.020689188374766"><ele>510.5</ele><time>2026-04-18T08:10:33Z</time></trkpt><trkpt lat="43.1682439332377" lon="13.020601205450593"><ele>512.0</ele><time>2026-04-18T08:10:34Z</time></trkpt><trkpt lat="43.16822350939884" lon="13.020509718505041"><ele>513.5</ele><time>2026-04-18T08:10:35Z</time></trkpt><trkpt lat="43.16819251065351" lon="13.020359581249469"><ele>515.0</ele><time>2026-04-18T08:10:37Z</time></trkpt><trkpt lat="43.1681867079373" lon="13.020238087638093"><ele>515.0</ele><time>2026-04-18T08:10:40Z</time></trkpt><trkpt lat="43.16822421309322" lon="13.020165831775431"><ele>515.0</ele><time>2026-04-18T08:10:45Z</time></trkpt><trkpt lat="43.16822825571579" lon="13.020061545099976"><ele>515.0</ele><time>2026-04-18T08:10:52Z</time></trkpt><trkpt lat="43.168219069004664" lon="13.01995828574995"><ele>515.0</ele><time>2026-04-18T08:10:57Z</time></trkpt><trkpt lat="43.16820246681608" lon="13.01985596797478"><ele>515.0</ele><time>2026-04-18T08:11:00Z</time></trkpt><trkpt lat="43.168165475437235" lon="13.019746273203904"><ele>515.0</ele><time>2026-04-18T08:11:02Z</time></trkpt><trkpt lat="43.16817276687188" lon="13.019577370992176"><ele>518.3333333333333</ele><time>2026-04-18T08:11:04Z</time></trkpt><trkpt lat="43.16811093497099" lon="13.019475199154586"><ele>521.6666666666666</ele><time>2026-04-18T08:11:06Z</time></trkpt><trkpt lat="43.16801116428051" lon="13.019476694918056"><ele>525.0</ele><time>2026-04-18T08:11:07Z</time></trkpt><trkpt lat="43.1679673657046" lon="13.019409538340339"><ele>528.3333333333334</ele><time>2026-04-18T08:11:08Z</time></trkpt><trkpt lat="43.16790584829399" lon="13.019319217969963"><ele>531.6666666666667</ele><time>2026-04-18T08:11:10Z</time></trkpt><trkpt lat="43.167863772414975" lon="13.019247228952139"><ele>535.0</ele><time>2026-04-18T08:11:11Z</time></trkpt><trkpt lat="43.16779474054303" lon="13.019177638273984"><ele>534.3333333333334</ele><time>2026-04-18T08:11:12Z</time></trkpt><trkpt lat="43.16772444603416" lon="13.01913150303897"><ele>533.6666666666667</ele><time>2026-04-18T08:11:13Z</time></trkpt><trkpt lat="43.16766953566546" lon="13.019082869414765"><ele>533.0</ele><time>2026-04-18T08:11:14Z</time></trkpt><trkpt lat="43.16760871310416" lon="13.019039971075088"><ele>532.3333333333334</ele><time>2026-04-18T08:11:15Z</time></trkpt><trkpt lat="43.16754630849527" lon="13.018972780719208"><ele>531.6666666666666</ele><time>2026-04-18T08:11:16Z</time></trkpt><trkpt lat="43.16747086151241" lon="13.018931704130047"><ele>531.0</ele><time>2026-04-18T08:11:17Z</time></trkpt><trkpt lat="43.16740406578703" lon="13.018875964552448"><ele>532.1666666666666</ele><time>2026-04-18T08:11:18Z</time></trkpt><trkpt lat="43.16733706613601" lon="13.018836319268964"><ele>533.3333333333334</ele><time>2026-04-18T08:11:19Z</time></trkpt><trkpt lat="43.16726905420239" lon="13.018796074974432"><ele>534.5</ele><time>2026-04-18T08:11:20Z</time></trkpt><trkpt lat="43.167209141817" lon="13.018759484425804"><ele>535.6666666666667</ele><time>2026-04-18T08:11:21Z</time></trkpt><trkpt lat="43.16714855091422" lon="13.018719784620377"><ele>536.8333333333334</ele><time>2026-04-18T08:11:22Z</time></trkpt><trkpt lat="43.167082546447276" lon="13.018702751786519"><ele>538.0</ele><time>2026-04-18T08:11:23Z</time></trkpt><trkpt lat="43.166983335591986" lon="13.01861714227973"><ele>538.0</ele><time>2026-04-18T08:11:25Z</time></trkpt><trkpt lat="43.166918478201076" lon="13.01857735398779"><ele>538.0</ele><time>2026-04-18T08:11:26Z</time></trkpt><trkpt lat="43.16685383190685" lon="13.018533529573414"><ele>538.0</ele><time>2026-04-18T08:11:27Z</time></trkpt><trkpt lat="43.16678186947832" lon="13.018483438612424"><ele>538.0</ele><time>2026-04-18T08:11:28Z</time></trkpt><trkpt lat="43.166710441628105" lon="13.01844464161121"><ele>538.0</ele><time>2026-04-18T08:11:29Z</time></trkpt><trkpt lat="43.166659944542054" lon="13.018390448357698"><ele>538.0</ele><time>2026-04-18T08:11:30Z</time></trkpt><trkpt lat="43.166603677288386" lon="13.018334621446272"><ele>538.0</ele><time>2026-04-18T08:11:31Z</time></trkpt><trkpt lat="43.166544724375115" lon="13.01829593816"><ele>539.6666666666667</ele><time>2026-04-18T08:11:32Z</time></trkpt><trkpt lat="43.166485050418395" lon="13.018248757446884"><ele>541.3333333333334</ele><time>2026-04-18T08:11:33Z</time></trkpt><trkpt lat="43.166470997683014" lon="13.018107867037992"><ele>543.0</ele><time>2026-04-18T08:11:34Z</time></trkpt><trkpt lat="43.16642021543994" lon="13.018056636883955"><ele>544.6666666666666</ele><time>2026-04-18T08:11:35Z</time></trkpt><trkpt lat="43.16636813943276" lon="13.017998321710184"><ele>546.3333333333333</ele><time>2026-04-18T08:11:36Z</time></trkpt><trkpt lat="43.166313958418414" lon="13.017937649271612"><ele>548.0</ele><time>2026-04-18T08:11:37Z</time></trkpt><trkpt lat="43.166250304929726" lon="13.017867114970832"><ele>548.0</ele><time>2026-04-18T08:11:38Z</time></trkpt><trkpt lat="43.166184974133" lon="13.017785088392728"><ele>548.0</ele><time>2026-04-18T08:11:39Z</time></trkpt><trkpt lat="43.16613326630908" lon="13.01770109142239"><ele>548.0</ele><time>2026-04-18T08:11:41Z</time></trkpt><trkpt lat="43.16607668859056" lon="13.01750941676256"><ele>548.0</ele><time>2026-04-18T08:11:42Z</time></trkpt><trkpt lat="43.16603764517231" lon="13.017359538575539"><ele>548.0</ele><time>2026-04-18T08:11:43Z</time></trkpt><trkpt lat="43.16603032536748" lon="13.017182534996664"><ele>550.0</ele><time>2026-04-18T08:11:44Z</time></trkpt><trkpt lat="43.16602169912674" lon="13.017051189322963"><ele>552.0</ele><time>2026-04-18T08:11:45Z</time></trkpt><trkpt lat="43.16600832035714" lon="13.016937791342126"><ele>554.0</ele><time>2026-04-18T08:11:46Z</time></trkpt><trkpt lat="43.165845913168724" lon="13.016850837690054"><ele>556.0</ele><time>2026-04-18T08:11:47Z</time></trkpt><trkpt lat="43.16577344572579" lon="13.016799265450148"><ele>558.0</ele><time>2026-04-18T08:11:48Z</time></trkpt><trkpt lat="43.1657183737076" lon="13.016757434475066"><ele>560.4</ele><time>2026-04-18T08:11:49Z</time></trkpt><trkpt lat="43.16561157006673" lon="13.016705110481405"><ele>562.8</ele><time>2026-04-18T08:11:51Z</time></trkpt><trkpt lat="43.16551950314562" lon="13.016646289782418"><ele>565.2</ele><time>2026-04-18T08:11:53Z</time></trkpt><trkpt lat="43.16543127949824" lon="13.016628329452685"><ele>567.6</ele><time>2026-04-18T08:11:55Z</time></trkpt><trkpt lat="43.16536878263897" lon="13.016579174866395"><ele>570.0</ele><time>2026-04-18T08:11:57Z</time></trkpt><trkpt lat="43.165305064442094" lon="13.016473298374462"><ele>572.0</ele><time>2026-04-18T08:11:59Z</time></trkpt><trkpt lat="43.16520171625843" lon="13.016399354668975"><ele>574.0</ele><time>2026-04-18T08:12:01Z</time></trkpt><trkpt lat="43.16509984661943" lon="13.016308051369496"><ele>576.0</ele><time>2026-04-18T08:12:03Z</time></trkpt><trkpt lat="43.16505958079039" lon="13.01624111224915"><ele>578.0</ele><time>2026-04-18T08:12:04Z</time></trkpt><trkpt lat="43.16505798053735" lon="13.016103648245974"><ele>580.0</ele><time>2026-04-18T08:12:06Z</time></trkpt><trkpt lat="43.16507086570362" lon="13.015993819700395"><ele>580.0</ele><time>2026-04-18T08:12:08Z</time></trkpt><trkpt lat="43.16498212454822" lon="13.01589963096929"><ele>580.0</ele><time>2026-04-18T08:12:12Z</time></trkpt><trkpt lat="43.164897628154584" lon="13.015843103570154"><ele>580.0</ele><time>2026-04-18T08:12:14Z</time></trkpt><trkpt lat="43.16480674723781" lon="13.015723423949263"><ele>580.0</ele><time>2026-04-18T08:12:16Z</time></trkpt><trkpt lat="43.16475048790314" lon="13.01558806065403"><ele>580.0</ele><time>2026-04-18T08:12:17Z</time></trkpt><trkpt lat="43.16467512463283" lon="13.015450047671864"><ele>583.6666666666667</ele><time>2026-04-18T08:12:18Z</time></trkpt><trkpt lat="43.164567660056726" lon="13.015292438382104"><ele>587.3333333333334</ele><time>2026-04-18T08:12:19Z</time></trkpt><trkpt lat="43.164499047144375" lon="13.01511758673974"><ele>591.0</ele><time>2026-04-18T08:12:20Z</time></trkpt><trkpt lat="43.164398291571544" lon="13.014933388274052"><ele>593.0</ele><time>2026-04-18T08:12:21Z</time></trkpt><trkpt lat="43.16428582812221" lon="13.01471776865452"><ele>595.0</ele><time>2026-04-18T08:12:22Z</time></trkpt><trkpt lat="43.164171733320266" lon="13.014534897152751"><ele>597.0</ele><time>2026-04-18T08:12:23Z</time></trkpt><trkpt lat="43.164057889153135" lon="13.014374481810371"><ele>597.0</ele><time>2026-04-18T08:12:24Z</time></trkpt><trkpt lat="43.16393672408677" lon="13.014217528339497"><ele>597.0</ele><time>2026-04-18T08:12:25Z</time></trkpt><trkpt lat="43.163825033242794" lon="13.014084634189487"><ele>597.0</ele><time>2026-04-18T08:12:26Z</time></trkpt><trkpt lat="43.16372000262777" lon="13.013961624178084"><ele>599.25</ele><time>2026-04-18T08:12:27Z</time></trkpt><trkpt lat="43.163636551385714" lon="13.01384862842353"><ele>601.5</ele><time>2026-04-18T08:12:28Z</time></trkpt><trkpt lat="43.16355310959419" lon="13.01371305497462"><ele>603.75</ele><time>2026-04-18T08:12:29Z</time></trkpt><trkpt lat="43.1634706287076" lon="13.013498184916495"><ele>606.0</ele><time>2026-04-18T08:12:30Z</time></trkpt><trkpt lat="43.16339846570897" lon="13.013321398585502"><ele>608.25</ele><time>2026-04-18T08:12:31Z</time></trkpt><trkpt lat="43.16332490551981" lon="13.013161705019122"><ele>610.5</ele><time>2026-04-18T08:12:32Z</time></trkpt><trkpt lat="43.16324266974504" lon="13.013007751015637"><ele>612.75</ele><time>2026-04-18T08:12:33Z</time></trkpt><trkpt lat="43.16317748439661" lon="13.012869964811307"><ele>615.0</ele><time>2026-04-18T08:12:34Z</time></trkpt><trkpt lat="43.16310638770825" lon="13.012760835093093"><ele>617.0</ele><time>2026-04-18T08:12:35Z</time></trkpt><trkpt lat="43.163022930125436" lon="13.012648438151631"><ele>619.0</ele><time>2026-04-18T08:12:36Z</time></trkpt><trkpt lat="43.162937550153416" lon="13.012518348326063"><ele>621.0</ele><time>2026-04-18T08:12:37Z</time></trkpt><trkpt lat="43.16284358186807" lon="13.012415866282044"><ele>623.0</ele><time>2026-04-18T08:12:38Z</time></trkpt><trkpt lat="43.16277230202439" lon="13.01227018234223"><ele>626.0</ele><time>2026-04-18T08:12:39Z</time></trkpt><trkpt lat="43.16267658473043" lon="13.012175347271492"><ele>629.0</ele><time>2026-04-18T08:12:40Z</time></trkpt><trkpt lat="43.1625944318364" lon="13.012093951826488"><ele>632.0</ele><time>2026-04-18T08:12:41Z</time></trkpt><trkpt lat="43.16252492811505" lon="13.01202508897532"><ele>635.0</ele><time>2026-04-18T08:12:42Z</time></trkpt><trkpt lat="43.16248211286836" lon="13.0119261911514"><ele>638.0</ele><time>2026-04-18T08:12:43Z</time></trkpt><trkpt lat="43.1623043546351" lon="13.011915869128734"><ele>638.8333333333333</ele><time>2026-04-18T08:12:46Z</time></trkpt><trkpt lat="43.16224530766385" lon="13.01197403146179"><ele>639.6666666666666</ele><time>2026-04-18T08:12:47Z</time></trkpt><trkpt lat="43.16219093346986" lon="13.012026862678342"><ele>640.5</ele><time>2026-04-18T08:12:48Z</time></trkpt><trkpt lat="43.16207979665938" lon="13.012077841273738"><ele>641.3333333333334</ele><time>2026-04-18T08:12:50Z</time></trkpt><trkpt lat="43.162009171441774" lon="13.012110803407284"><ele>642.1666666666667</ele><time>2026-04-18T08:12:51Z</time></trkpt><trkpt lat="43.161902346632246" lon="13.012116176275045"><ele>643.0</ele><time>2026-04-18T08:12:53Z</time></trkpt><trkpt lat="43.161824660752394" lon="13.012161269931292"><ele>643.0</ele><time>2026-04-18T08:12:54Z</time></trkpt><trkpt lat="43.16176720424003" lon="13.012221057733068"><ele>643.0</ele><time>2026-04-18T08:12:55Z</time></trkpt><trkpt lat="43.161682925009856" lon="13.012373410562853"><ele>643.0</ele><time>2026-04-18T08:12:57Z</time></trkpt><trkpt lat="43.16160719340119" lon="13.012381586211767"><ele>643.0</ele><time>2026-04-18T08:12:58Z</time></trkpt><trkpt lat="43.161518177145716" lon="13.01236097559207"><ele>643.0</ele><time>2026-04-18T08:12:59Z</time></trkpt><trkpt lat="43.161423021466284" lon="13.012337086519409"><ele>642.3333333333334</ele><time>2026-04-18T08:13:00Z</time></trkpt><trkpt lat="43.16133667250824" lon="13.012328987572975"><ele>641.6666666666667</ele><time>2026-04-18T08:13:01Z</time></trkpt><trkpt lat="43.161271224749335" lon="13.012317697657366"><ele>641.0</ele><time>2026-04-18T08:13:02Z</time></trkpt><trkpt lat="43.16120361636523" lon="13.012302349987193"><ele>640.3333333333334</ele><time>2026-04-18T08:13:03Z</time></trkpt><trkpt lat="43.16114139442375" lon="13.012265242036614"><ele>639.6666666666666</ele><time>2026-04-18T08:13:04Z</time></trkpt><trkpt lat="43.16105400100333" lon="13.012219235985206"><ele>639.0</ele><time>2026-04-18T08:13:05Z</time></trkpt><trkpt lat="43.160959058992155" lon="13.012154931848313"><ele>639.0</ele><time>2026-04-18T08:13:06Z</time></trkpt><trkpt lat="43.16087707440241" lon="13.012117484070677"><ele>639.0</ele><time>2026-04-18T08:13:07Z</time></trkpt><trkpt lat="43.16080146233352" lon="13.012053863505438"><ele>639.0</ele><time>2026-04-18T08:13:08Z</time></trkpt><trkpt lat="43.16070859202232" lon="13.01202390824835"><ele>639.0</ele><time>2026-04-18T08:13:09Z</time></trkpt><trkpt lat="43.160620496121126" lon="13.011961039359612"><ele>639.0</ele><time>2026-04-18T08:13:10Z</time></trkpt><trkpt lat="43.16052364149701" lon="13.011933853716213"><ele>638.5</ele><time>2026-04-18T08:13:11Z</time></trkpt><trkpt lat="43.160446689191026" lon="13.011924040071637"><ele>638.0</ele><time>2026-04-18T08:13:12Z</time></trkpt><trkpt lat="43.16037445514791" lon="13.011914828073314"><ele>637.5</ele><time>2026-04-18T08:13:13Z</time></trkpt><trkpt lat="43.160283612686825" lon="13.011916959903537"><ele>637.0</ele><time>2026-04-18T08:13:14Z</time></trkpt><trkpt lat="43.16020193252824" lon="13.011904820900664"><ele>636.5</ele><time>2026-04-18T08:13:15Z</time></trkpt><trkpt lat="43.160135631224165" lon="13.011757535006748"><ele>636.0</ele><time>2026-04-18T08:13:16Z</time></trkpt><trkpt lat="43.160066531094884" lon="13.011724257507014"><ele>636.0</ele><time>2026-04-18T08:13:17Z</time></trkpt><trkpt lat="43.15997084480477" lon="13.011704169966439"><ele>636.0</ele><time>2026-04-18T08:13:19Z</time></trkpt><trkpt lat="43.15990312092294" lon="13.01169029725648"><ele>636.0</ele><time>2026-04-18T08:13:24Z</time></trkpt><trkpt lat="43.15984651054772" lon="13.011649741906059"><ele>636.0</ele><time>2026-04-18T08:13:29Z</time></trkpt><trkpt lat="43.159811671770875" lon="13.011576596204941"><ele>636.0</ele><time>2026-04-18T08:14:01Z</time></trkpt><trkpt lat="43.15976813983909" lon="13.011639491657709"><ele>636.0</ele><time>2026-04-18T08:14:13Z</time></trkpt><trkpt lat="43.15975376335245" lon="13.011727323937635"><ele>636.0</ele><time>2026-04-18T08:17:29.001Z</time></trkpt><trkpt lat="43.15981350814738" lon="13.011693632293694"><ele>639.6666666666666</ele><time>2026-04-18T08:17:38.001Z</time></trkpt><trkpt lat="43.1598170200923" lon="13.011604748233779"><ele>643.3333333333334</ele><time>2026-04-18T08:20:03Z</time></trkpt><trkpt lat="43.15987964631177" lon="13.011553503486672"><ele>647.0</ele><time>2026-04-18T08:23:51Z</time></trkpt><trkpt lat="43.159950645345106" lon="13.011533427118252"><ele>650.6666666666667</ele><time>2026-04-18T08:23:54Z</time></trkpt><trkpt lat="43.159909114053676" lon="13.011459988603852"><ele>654.3333333333334</ele><time>2026-04-18T08:23:58Z</time></trkpt><trkpt lat="43.15987303574813" lon="13.011382914144138"><ele>658.0</ele><time>2026-04-18T08:24:00Z</time></trkpt><trkpt lat="43.1597737105789" lon="13.011277948041952"><ele>658.0</ele><time>2026-04-18T08:24:02Z</time></trkpt><trkpt lat="43.15969236926871" lon="13.011202387325431"><ele>658.0</ele><time>2026-04-18T08:24:04Z</time></trkpt><trkpt lat="43.15969222979527" lon="13.011099330446768"><ele>658.0</ele><time>2026-04-18T08:24:07Z</time></trkpt><trkpt lat="43.15974912626126" lon="13.011021186298766"><ele>658.0</ele><time>2026-04-18T08:24:09Z</time></trkpt><trkpt lat="43.15980263943658" lon="13.01096719736152"><ele>658.0</ele><time>2026-04-18T08:24:10Z</time></trkpt><trkpt lat="43.159867686014444" lon="13.010914310524807"><ele>658.0</ele><time>2026-04-18T08:24:11Z</time></trkpt><trkpt lat="43.159931849329716" lon="13.01086807406699"><ele>663.4285714285714</ele><time>2026-04-18T08:24:12Z</time></trkpt><trkpt lat="43.159986271222124" lon="13.01080319655139"><ele>668.8571428571429</ele><time>2026-04-18T08:24:13Z</time></trkpt><trkpt lat="43.16004603131164" lon="13.010759256420712"><ele>674.2857142857142</ele><time>2026-04-18T08:24:14Z</time></trkpt><trkpt lat="43.16011778617232" lon="13.010715858610745"><ele>679.7142857142858</ele><time>2026-04-18T08:24:15Z</time></trkpt><trkpt lat="43.16018238274434" lon="13.010690370021774"><ele>685.1428571428571</ele><time>2026-04-18T08:24:16Z</time></trkpt><trkpt lat="43.16025301414078" lon="13.010674981888824"><ele>690.5714285714286</ele><time>2026-04-18T08:24:18Z</time></trkpt><trkpt lat="43.16032402873618" lon="13.01064992928036"><ele>696.0</ele><time>2026-04-18T08:24:20Z</time></trkpt><trkpt lat="43.160403483706396" lon="13.010639997237048"><ele>696.0</ele><time>2026-04-18T08:24:23Z</time></trkpt><trkpt lat="43.160490259967524" lon="13.010595930647117"><ele>696.0</ele><time>2026-04-18T08:24:26Z</time></trkpt><trkpt lat="43.160588145559764" lon="13.010555508396392"><ele>696.0</ele><time>2026-04-18T08:24:28Z</time></trkpt><trkpt lat="43.160639280338465" lon="13.010434452135945"><ele>696.0</ele><time>2026-04-18T08:24:36Z</time></trkpt><trkpt lat="43.16059134864466" lon="13.01035792759457"><ele>696.0</ele><time>2026-04-18T08:24:39Z</time></trkpt><trkpt lat="43.16050154094866" lon="13.010312307713635"><ele>696.0</ele><time>2026-04-18T08:24:41Z</time></trkpt><trkpt lat="43.16040449013387" lon="13.010223010849373"><ele>696.0</ele><time>2026-04-18T08:24:43Z</time></trkpt><trkpt lat="43.16032913162704" lon="13.01009547979692"><ele>696.0</ele><time>2026-04-18T08:24:45Z</time></trkpt><trkpt lat="43.16032276029387" lon="13.010009567575619"><ele>696.0</ele><time>2026-04-18T08:24:47Z</time></trkpt><trkpt lat="43.16031338628844" lon="13.00989165494694"><ele>696.0</ele><time>2026-04-18T08:24:49Z</time></trkpt><trkpt lat="43.16030140633695" lon="13.009798013524026"><ele>700.5999999999999</ele><time>2026-04-18T08:24:50Z</time></trkpt><trkpt lat="43.16022656512082" lon="13.00974466528653"><ele>705.2</ele><time>2026-04-18T08:24:53Z</time></trkpt><trkpt lat="43.16012766309104" lon="13.009691750388631"><ele>709.8</ele><time>2026-04-18T08:24:55Z</time></trkpt><trkpt lat="43.160071405275716" lon="13.009621298260988"><ele>714.4000000000001</ele><time>2026-04-18T08:24:56Z</time></trkpt><trkpt lat="43.160012120253015" lon="13.009499527214917"><ele>719.0</ele><time>2026-04-18T08:24:57Z</time></trkpt><trkpt lat="43.15993395075824" lon="13.009368687758439"><ele>719.0</ele><time>2026-04-18T08:24:58Z</time></trkpt><trkpt lat="43.15987521496782" lon="13.009275310658758"><ele>719.0</ele><time>2026-04-18T08:24:59Z</time></trkpt><trkpt lat="43.15981393608841" lon="13.009175748750122"><ele>719.0</ele><time>2026-04-18T08:25:00Z</time></trkpt><trkpt lat="43.15975518507912" lon="13.009081343523839"><ele>719.0</ele><time>2026-04-18T08:25:01Z</time></trkpt><trkpt lat="43.1596908806741" lon="13.008995663459222"><ele>719.0</ele><time>2026-04-18T08:25:02Z</time></trkpt><trkpt lat="43.159636245147766" lon="13.008902949371521"><ele>721.1666666666666</ele><time>2026-04-18T08:25:03Z</time></trkpt><trkpt lat="43.15959001254231" lon="13.00880498563782"><ele>723.3333333333333</ele><time>2026-04-18T08:25:04Z</time></trkpt><trkpt lat="43.15954021086578" lon="13.00871515935541"><ele>725.5</ele><time>2026-04-18T08:25:05Z</time></trkpt><trkpt lat="43.15949482429573" lon="13.008637887139548"><ele>727.6666666666666</ele><time>2026-04-18T08:25:06Z</time></trkpt><trkpt lat="43.15945811128798" lon="13.00854441043304"><ele>729.8333333333334</ele><time>2026-04-18T08:25:07Z</time></trkpt><trkpt lat="43.159427979204445" lon="13.008452864713597"><ele>732.0</ele><time>2026-04-18T08:25:08Z</time></trkpt><trkpt lat="43.1593851514487" lon="13.00837408202198"><ele>734.8333333333334</ele><time>2026-04-18T08:25:09Z</time></trkpt><trkpt lat="43.15933486693853" lon="13.008304206958124"><ele>737.6666666666666</ele><time>2026-04-18T08:25:10Z</time></trkpt><trkpt lat="43.15929270618035" lon="13.008226050446591"><ele>740.5</ele><time>2026-04-18T08:25:11Z</time></trkpt><trkpt lat="43.15925877225291" lon="13.008144616641921"><ele>743.3333333333333</ele><time>2026-04-18T08:25:12Z</time></trkpt><trkpt lat="43.15922415818149" lon="13.008048677465695"><ele>746.1666666666666</ele><time>2026-04-18T08:25:13Z</time></trkpt><trkpt lat="43.15917982949644" lon="13.007950852794448"><ele>749.0</ele><time>2026-04-18T08:25:14Z</time></trkpt><trkpt lat="43.159129236726" lon="13.00786651252454"><ele>749.0</ele><time>2026-04-18T08:25:15Z</time></trkpt><trkpt lat="43.15908359366636" lon="13.007775146418238"><ele>749.0</ele><time>2026-04-18T08:25:16Z</time></trkpt><trkpt lat="43.15903845572374" lon="13.007679282289114"><ele>749.0</ele><time>2026-04-18T08:25:17Z</time></trkpt><trkpt lat="43.15898779750101" lon="13.007569485421877"><ele>749.0</ele><time>2026-04-18T08:25:18Z</time></trkpt><trkpt lat="43.1589480649536" lon="13.007471588297262"><ele>749.0</ele><time>2026-04-18T08:25:19Z</time></trkpt><trkpt lat="43.158882388974384" lon="13.0073435016896"><ele>752.1666666666666</ele><time>2026-04-18T08:25:21Z</time></trkpt><trkpt lat="43.15879030445537" lon="13.007297234801952"><ele>755.3333333333333</ele><time>2026-04-18T08:25:23Z</time></trkpt><trkpt lat="43.15874165166627" lon="13.007212782563789"><ele>758.5</ele><time>2026-04-18T08:25:25Z</time></trkpt><trkpt lat="43.158691183637465" lon="13.007152329379133"><ele>761.6666666666666</ele><time>2026-04-18T08:25:27Z</time></trkpt><trkpt lat="43.15861229860501" lon="13.007104494692088"><ele>764.8333333333334</ele><time>2026-04-18T08:25:30Z</time></trkpt><trkpt lat="43.158555446690364" lon="13.007045311247733"><ele>768.0</ele><time>2026-04-18T08:25:32Z</time></trkpt><trkpt lat="43.15848767760595" lon="13.007004061604572"><ele>768.0</ele><time>2026-04-18T08:25:34Z</time></trkpt><trkpt lat="43.15841350390841" lon="13.006927856400184"><ele>768.0</ele><time>2026-04-18T08:25:36Z</time></trkpt><trkpt lat="43.158382067147144" lon="13.006792602365966"><ele>768.0</ele><time>2026-04-18T08:25:38Z</time></trkpt><trkpt lat="43.15835814975856" lon="13.006707985308172"><ele>768.0</ele><time>2026-04-18T08:25:39Z</time></trkpt><trkpt lat="43.15830958457565" lon="13.00663975685359"><ele>768.0</ele><time>2026-04-18T08:25:40Z</time></trkpt><trkpt lat="43.15822902839194" lon="13.006545331834374"><ele>768.0</ele><time>2026-04-18T08:25:42Z</time></trkpt><trkpt lat="43.158158418439186" lon="13.006436852209019"><ele>773.2</ele><time>2026-04-18T08:25:44Z</time></trkpt><trkpt lat="43.15812078502379" lon="13.006360530800608"><ele>778.4</ele><time>2026-04-18T08:25:45Z</time></trkpt><trkpt lat="43.1580473721514" lon="13.006223801098608"><ele>783.6</ele><time>2026-04-18T08:25:47Z</time></trkpt><trkpt lat="43.15799128274506" lon="13.006181445446044"><ele>788.8000000000001</ele><time>2026-04-18T08:25:48Z</time></trkpt><trkpt lat="43.15790935026206" lon="13.006074426788384"><ele>794.0</ele><time>2026-04-18T08:25:50Z</time></trkpt><trkpt lat="43.15782787691132" lon="13.005967801561289"><ele>794.0</ele><time>2026-04-18T08:25:52Z</time></trkpt><trkpt lat="43.15779384900778" lon="13.005879991096783"><ele>794.0</ele><time>2026-04-18T08:25:53Z</time></trkpt><trkpt lat="43.157730440501375" lon="13.00582114658722"><ele>794.0</ele><time>2026-04-18T08:25:54Z</time></trkpt><trkpt lat="43.15765484924447" lon="13.005707847172864"><ele>794.0</ele><time>2026-04-18T08:25:56Z</time></trkpt><trkpt lat="43.1575613283388" lon="13.005629732478404"><ele>794.0</ele><time>2026-04-18T08:25:58Z</time></trkpt><trkpt lat="43.15745875555556" lon="13.00559516601124"><ele>799.5000000000001</ele><time>2026-04-18T08:26:00Z</time></trkpt><trkpt lat="43.157351658206444" lon="13.00553618529023"><ele>805.0</ele><time>2026-04-18T08:26:02Z</time></trkpt><trkpt lat="43.15729248750679" lon="13.005460467234748"><ele>810.5</ele><time>2026-04-18T08:26:03Z</time></trkpt><trkpt lat="43.15723930270979" lon="13.005404527575129"><ele>816.0</ele><time>2026-04-18T08:26:04Z</time></trkpt><trkpt lat="43.15717982196297" lon="13.005364324186118"><ele>821.5000000000001</ele><time>2026-04-18T08:26:05Z</time></trkpt><trkpt lat="43.15712548833451" lon="13.005304729526737"><ele>827.0</ele><time>2026-04-18T08:26:06Z</time></trkpt><trkpt lat="43.157058212957786" lon="13.00525738929632"><ele>827.0000000000001</ele><time>2026-04-18T08:26:07.001Z</time></trkpt><trkpt lat="43.15700162319813" lon="13.005215736682665"><ele>827.0</ele><time>2026-04-18T08:26:08.001Z</time></trkpt><trkpt lat="43.156937941038805" lon="13.005190871274765"><ele>827.0</ele><time>2026-04-18T08:26:09.001Z</time></trkpt><trkpt lat="43.15683635558421" lon="13.005183271785317"><ele>827.0</ele><time>2026-04-18T08:26:11.001Z</time></trkpt><trkpt lat="43.15675884840069" lon="13.005170490905925"><ele>827.0000000000001</ele><time>2026-04-18T08:26:12.001Z</time></trkpt><trkpt lat="43.15666224168924" lon="13.005129708166201"><ele>827.0</ele><time>2026-04-18T08:26:13.001Z</time></trkpt><trkpt lat="43.1565684711537" lon="13.005074668449872"><ele>825.4285714285714</ele><time>2026-04-18T08:26:14.001Z</time></trkpt><trkpt lat="43.156490046345944" lon="13.005032157416428"><ele>823.8571428571428</ele><time>2026-04-18T08:26:15.001Z</time></trkpt><trkpt lat="43.15642359958449" lon="13.004998947958939"><ele>822.2857142857142</ele><time>2026-04-18T08:26:16.001Z</time></trkpt><trkpt lat="43.15635775236493" lon="13.004983659744024"><ele>820.7142857142858</ele><time>2026-04-18T08:26:17.001Z</time></trkpt><trkpt lat="43.156297335526745" lon="13.004942250584019"><ele>819.1428571428571</ele><time>2026-04-18T08:26:18.001Z</time></trkpt><trkpt lat="43.156220525633735" lon="13.004899978836445"><ele>817.5714285714286</ele><time>2026-04-18T08:26:19.001Z</time></trkpt><trkpt lat="43.15615758469871" lon="13.004867089726607"><ele>816.0</ele><time>2026-04-18T08:26:20.001Z</time></trkpt><trkpt lat="43.15609149429912" lon="13.004821652988074"><ele>816.8333333333334</ele><time>2026-04-18T08:26:21.001Z</time></trkpt><trkpt lat="43.156031382665006" lon="13.004754336908057"><ele>817.6666666666667</ele><time>2026-04-18T08:26:22Z</time></trkpt><trkpt lat="43.15597405191395" lon="13.00467985113842"><ele>818.5</ele><time>2026-04-18T08:26:23Z</time></trkpt><trkpt lat="43.15591955638206" lon="13.004588109790364"><ele>819.3333333333334</ele><time>2026-04-18T08:26:24Z</time></trkpt><trkpt lat="43.155870388438906" lon="13.004507488313681"><ele>820.1666666666667</ele><time>2026-04-18T08:26:25Z</time></trkpt><trkpt lat="43.15579678469903" lon="13.00439647226728"><ele>821.0</ele><time>2026-04-18T08:26:27Z</time></trkpt><trkpt lat="43.15569962400562" lon="13.004281004885906"><ele>821.0000000000001</ele><time>2026-04-18T08:26:29Z</time></trkpt><trkpt lat="43.1556587632045" lon="13.004210451726227"><ele>821.0</ele><time>2026-04-18T08:26:30Z</time></trkpt><trkpt lat="43.15561169430773" lon="13.004143146987703"><ele>821.0</ele><time>2026-04-18T08:26:31Z</time></trkpt><trkpt lat="43.1555442873958" lon="13.004027633651948"><ele>821.0</ele><time>2026-04-18T08:26:32Z</time></trkpt><trkpt lat="43.15549318541486" lon="13.003933629410739"><ele>821.0000000000001</ele><time>2026-04-18T08:26:33Z</time></trkpt><trkpt lat="43.15543981587001" lon="13.003850745555273"><ele>821.0</ele><time>2026-04-18T08:26:34Z</time></trkpt><trkpt lat="43.15538802782599" lon="13.003790748169061"><ele>825.4</ele><time>2026-04-18T08:26:35Z</time></trkpt><trkpt lat="43.15531045301068" lon="13.00369436410826"><ele>829.8</ele><time>2026-04-18T08:26:37Z</time></trkpt><trkpt lat="43.15528834692588" lon="13.003610889459367"><ele>834.1999999999999</ele><time>2026-04-18T08:26:38Z</time></trkpt><trkpt lat="43.15528067680505" lon="13.003510516695185"><ele>838.5999999999999</ele><time>2026-04-18T08:26:39Z</time></trkpt><trkpt lat="43.155269481925515" lon="13.003361733170015"><ele>843.0</ele><time>2026-04-18T08:26:41Z</time></trkpt><trkpt lat="43.15524522705343" lon="13.003226493469821"><ele>847.0</ele><time>2026-04-18T08:26:43Z</time></trkpt><trkpt lat="43.15517127065593" lon="13.00310394557144"><ele>851.0</ele><time>2026-04-18T08:26:45Z</time></trkpt><trkpt lat="43.15507600160281" lon="13.002968681892144"><ele>855.0</ele><time>2026-04-18T08:26:47Z</time></trkpt><trkpt lat="43.15502568684263" lon="13.002903857310415"><ele>859.0</ele><time>2026-04-18T08:26:48Z</time></trkpt><trkpt lat="43.15497786732195" lon="13.00279220991425"><ele>863.0</ele><time>2026-04-18T08:26:50Z</time></trkpt><trkpt lat="43.15495291884404" lon="13.002648644609682"><ele>863.0</ele><time>2026-04-18T08:26:52Z</time></trkpt><trkpt lat="43.15495239362871" lon="13.002533043178802"><ele>863.0</ele><time>2026-04-18T08:26:53Z</time></trkpt><trkpt lat="43.15494337982158" lon="13.002425353784625"><ele>863.0</ele><time>2026-04-18T08:26:54Z</time></trkpt><trkpt lat="43.15493971185753" lon="13.00233691916052"><ele>863.0</ele><time>2026-04-18T08:26:55Z</time></trkpt><trkpt lat="43.154937459208384" lon="13.002138350388778"><ele>863.0</ele><time>2026-04-18T08:26:57Z</time></trkpt><trkpt lat="43.15494491519572" lon="13.002023633006967"><ele>862.6666666666667</ele><time>2026-04-18T08:26:58Z</time></trkpt><trkpt lat="43.15493562102839" lon="13.001927456674027"><ele>862.3333333333334</ele><time>2026-04-18T08:26:59Z</time></trkpt><trkpt lat="43.15489188600158" lon="13.001859448506263"><ele>862.0</ele><time>2026-04-18T08:27:00Z</time></trkpt><trkpt lat="43.15484160107989" lon="13.001803737625536"><ele>861.6666666666667</ele><time>2026-04-18T08:27:01Z</time></trkpt><trkpt lat="43.154781441258045" lon="13.001671980347172"><ele>861.3333333333334</ele><time>2026-04-18T08:27:03Z</time></trkpt><trkpt lat="43.15477521980224" lon="13.001548369995929"><ele>861.0</ele><time>2026-04-18T08:27:04Z</time></trkpt><trkpt lat="43.15476791493074" lon="13.001417138007808"><ele>864.0</ele><time>2026-04-18T08:27:05Z</time></trkpt><trkpt lat="43.15477416431625" lon="13.001291660618914"><ele>867.0</ele><time>2026-04-18T08:27:06Z</time></trkpt><trkpt lat="43.15477726994379" lon="13.00119134944917"><ele>870.0</ele><time>2026-04-18T08:27:07Z</time></trkpt><trkpt lat="43.15477312203366" lon="13.001084903028442"><ele>873.0</ele><time>2026-04-18T08:27:08Z</time></trkpt><trkpt lat="43.15476217492061" lon="13.000985599647946"><ele>876.0</ele><time>2026-04-18T08:27:09Z</time></trkpt><trkpt lat="43.15473478507582" lon="13.000872102820182"><ele>879.0</ele><time>2026-04-18T08:27:11Z</time></trkpt><trkpt lat="43.15470751960869" lon="13.00067711690474"><ele>883.1666666666666</ele><time>2026-04-18T08:27:13Z</time></trkpt><trkpt lat="43.154694691398106" lon="13.000576949704055"><ele>887.3333333333333</ele><time>2026-04-18T08:27:14Z</time></trkpt><trkpt lat="43.15466361695863" lon="13.000423016192588"><ele>891.5</ele><time>2026-04-18T08:27:16Z</time></trkpt><trkpt lat="43.15467408077479" lon="13.000326239660787"><ele>895.6666666666666</ele><time>2026-04-18T08:27:17Z</time></trkpt><trkpt lat="43.15467716555763" lon="13.000206957322998"><ele>899.8333333333333</ele><time>2026-04-18T08:27:18Z</time></trkpt><trkpt lat="43.15468992060916" lon="13.000088994441478"><ele>904.0</ele><time>2026-04-18T08:27:19Z</time></trkpt><trkpt lat="43.154700504302056" lon="12.99997663080043"><ele>904.0</ele><time>2026-04-18T08:27:20Z</time></trkpt><trkpt lat="43.154681981607965" lon="12.999817934810734"><ele>904.0000000000001</ele><time>2026-04-18T08:27:22Z</time></trkpt><trkpt lat="43.15460020551818" lon="12.999698531733944"><ele>904.0000000000001</ele><time>2026-04-18T08:27:24Z</time></trkpt><trkpt lat="43.154529712986744" lon="12.999638095839067"><ele>904.0</ele><time>2026-04-18T08:27:26Z</time></trkpt><trkpt lat="43.15447037814475" lon="12.999505564243169"><ele>904.0</ele><time>2026-04-18T08:27:28Z</time></trkpt><trkpt lat="43.15446861379644" lon="12.999324905932362"><ele>903.9999999999999</ele><time>2026-04-18T08:27:30Z</time></trkpt><trkpt lat="43.15444193154596" lon="12.999241065481336"><ele>904.0</ele><time>2026-04-18T08:27:31Z</time></trkpt><trkpt lat="43.15439331114901" lon="12.999163804768166"><ele>904.0</ele><time>2026-04-18T08:27:32Z</time></trkpt><trkpt lat="43.15436253205456" lon="12.99905894495512"><ele>904.0</ele><time>2026-04-18T08:27:33Z</time></trkpt><trkpt lat="43.15433957198527" lon="12.998958399419045"><ele>903.9999999999999</ele><time>2026-04-18T08:27:34Z</time></trkpt><trkpt lat="43.154317437091066" lon="12.99885881179677"><ele>904.0</ele><time>2026-04-18T08:27:35Z</time></trkpt><trkpt lat="43.15429789591458" lon="12.998752995183121"><ele>908.2</ele><time>2026-04-18T08:27:36Z</time></trkpt><trkpt lat="43.15427016829598" lon="12.99864285246275"><ele>912.4000000000001</ele><time>2026-04-18T08:27:37Z</time></trkpt><trkpt lat="43.15421260170015" lon="12.998541942999502"><ele>916.6</ele><time>2026-04-18T08:27:38Z</time></trkpt><trkpt lat="43.154156210655856" lon="12.9984241289071"><ele>920.8</ele><time>2026-04-18T08:27:39Z</time></trkpt><trkpt lat="43.15411175764697" lon="12.998296360134061"><ele>925.0</ele><time>2026-04-18T08:27:40Z</time></trkpt><trkpt lat="43.154072029305915" lon="12.998193883271771"><ele>927.0</ele><time>2026-04-18T08:27:41Z</time></trkpt><trkpt lat="43.15404484435407" lon="12.998074217658033"><ele>929.0</ele><time>2026-04-18T08:27:42Z</time></trkpt><trkpt lat="43.15401669752049" lon="12.99795316975786"><ele>931.0</ele><time>2026-04-18T08:27:43Z</time></trkpt><trkpt lat="43.15397953040234" lon="12.9978179068186"><ele>933.0</ele><time>2026-04-18T08:27:44Z</time></trkpt><trkpt lat="43.15394381173315" lon="12.997694064850739"><ele>935.0</ele><time>2026-04-18T08:27:45Z</time></trkpt><trkpt lat="43.153904528320346" lon="12.997597159650768"><ele>935.0</ele><time>2026-04-18T08:27:46Z</time></trkpt><trkpt lat="43.15386901235819" lon="12.997516300749528"><ele>935.0</ele><time>2026-04-18T08:27:47Z</time></trkpt><trkpt lat="43.15382507308698" lon="12.99741078136379"><ele>935.0</ele><time>2026-04-18T08:27:49Z</time></trkpt><trkpt lat="43.153740568295575" lon="12.997292418162582"><ele>935.0</ele><time>2026-04-18T08:27:59Z</time></trkpt><trkpt lat="43.15374651613639" lon="12.997187840645287"><ele>935.0</ele><time>2026-04-18T08:28:03Z</time></trkpt><trkpt lat="43.15363839425836" lon="12.997011027983906"><ele>938.0000000000001</ele><time>2026-04-18T08:28:22Z</time></trkpt><trkpt lat="43.15358358935065" lon="12.99695262349826"><ele>941.0</ele><time>2026-04-18T08:28:24Z</time></trkpt><trkpt lat="43.15352795991026" lon="12.996904923579566"><ele>944.0000000000001</ele><time>2026-04-18T08:28:26Z</time></trkpt><trkpt lat="43.1534708278182" lon="12.9968445900548"><ele>947.0000000000001</ele><time>2026-04-18T08:28:28Z</time></trkpt><trkpt lat="43.153418539772154" lon="12.996789644247132"><ele>950.0</ele><time>2026-04-18T08:28:30Z</time></trkpt><trkpt lat="43.15337054870379" lon="12.996716703100475"><ele>953.0000000000001</ele><time>2026-04-18T08:28:33Z</time></trkpt><trkpt lat="43.15330025794462" lon="12.996696697597352"><ele>956.0000000000001</ele><time>2026-04-18T08:28:36Z</time></trkpt><trkpt lat="43.15321235009474" lon="12.996699595980932"><ele>956.8</ele><time>2026-04-18T08:28:42Z</time></trkpt><trkpt lat="43.15312276445616" lon="12.996674430899342"><ele>957.5999999999999</ele><time>2026-04-18T08:28:44Z</time></trkpt><trkpt lat="43.153014406409945" lon="12.99665548454398"><ele>958.4</ele><time>2026-04-18T08:28:46Z</time></trkpt><trkpt lat="43.152906055674435" lon="12.996654253948725"><ele>959.2</ele><time>2026-04-18T08:28:48Z</time></trkpt><trkpt lat="43.15278689266203" lon="12.996646022250902"><ele>960.0</ele><time>2026-04-18T08:28:50Z</time></trkpt><trkpt lat="43.15267585301461" lon="12.996629130149657"><ele>964.2</ele><time>2026-04-18T08:28:52Z</time></trkpt><trkpt lat="43.15257407100364" lon="12.996626725364731"><ele>968.4</ele><time>2026-04-18T08:28:54Z</time></trkpt><trkpt lat="43.152482917134684" lon="12.996640796580824"><ele>972.5999999999999</ele><time>2026-04-18T08:28:57Z</time></trkpt><trkpt lat="43.1523878479565" lon="12.996650814821495"><ele>976.8</ele><time>2026-04-18T08:28:59Z</time></trkpt><trkpt lat="43.15230349101649" lon="12.996641249981156"><ele>981.0</ele><time>2026-04-18T08:29:01Z</time></trkpt><trkpt lat="43.152223298194414" lon="12.996645640169335"><ele>981.5</ele><time>2026-04-18T08:29:03Z</time></trkpt><trkpt lat="43.15213778703633" lon="12.99662179455749"><ele>982.0</ele><time>2026-04-18T08:29:05Z</time></trkpt><trkpt lat="43.152073801843564" lon="12.996586249323402"><ele>982.5</ele><time>2026-04-18T08:29:07Z</time></trkpt><trkpt lat="43.1520120624709" lon="12.996524317698185"><ele>983.0</ele><time>2026-04-18T08:29:09Z</time></trkpt><trkpt lat="43.151957364992334" lon="12.99645493365533"><ele>983.5</ele><time>2026-04-18T08:29:11.001Z</time></trkpt><trkpt lat="43.15191907359812" lon="12.996378008507412"><ele>984.0</ele><time>2026-04-18T08:29:13.001Z</time></trkpt><trkpt lat="43.151866718336024" lon="12.996297187013617"><ele>984.0</ele><time>2026-04-18T08:29:15.001Z</time></trkpt><trkpt lat="43.15182163527706" lon="12.996189264080233"><ele>984.0000000000001</ele><time>2026-04-18T08:29:17.001Z</time></trkpt><trkpt lat="43.151771609072604" lon="12.996079974795991"><ele>984.0000000000001</ele><time>2026-04-18T08:29:19.001Z</time></trkpt><trkpt lat="43.15173092628523" lon="12.99596104216102"><ele>984.0</ele><time>2026-04-18T08:29:21.001Z</time></trkpt><trkpt lat="43.151685799808966" lon="12.995849216340321"><ele>984.0</ele><time>2026-04-18T08:29:23.001Z</time></trkpt><trkpt lat="43.151622968583105" lon="12.995720441941534"><ele>988.0</ele><time>2026-04-18T08:29:25.001Z</time></trkpt><trkpt lat="43.15153375267652" lon="12.9956347910417"><ele>992.0000000000001</ele><time>2026-04-18T08:29:27.001Z</time></trkpt><trkpt lat="43.15146554588796" lon="12.995544876695314"><ele>996.0000000000001</ele><time>2026-04-18T08:29:29.001Z</time></trkpt><trkpt lat="43.15140511780202" lon="12.995446452101099"><ele>1000.0</ele><time>2026-04-18T08:29:31.001Z</time></trkpt><trkpt lat="43.15132583190204" lon="12.995327082116736"><ele>1004.0</ele><time>2026-04-18T08:29:33.001Z</time></trkpt><trkpt lat="43.15123415498697" lon="12.995233643552528"><ele>1004.0000000000001</ele><time>2026-04-18T08:29:35.001Z</time></trkpt><trkpt lat="43.1511412032793" lon="12.995131401147852"><ele>1004.0</ele><time>2026-04-18T08:29:37.001Z</time></trkpt><trkpt lat="43.151095516100455" lon="12.995070860143457"><ele>1004.0</ele><time>2026-04-18T08:29:38.001Z</time></trkpt><trkpt lat="43.1510490481679" lon="12.995007352021341"><ele>1004.0</ele><time>2026-04-18T08:29:39.001Z</time></trkpt><trkpt lat="43.1510044899996" lon="12.994934023055357"><ele>1004.0000000000001</ele><time>2026-04-18T08:29:40.001Z</time></trkpt><trkpt lat="43.150950798710895" lon="12.994852252865597"><ele>1004.0</ele><time>2026-04-18T08:29:41.001Z</time></trkpt><trkpt lat="43.15089382602289" lon="12.994767933538876"><ele>1006.5000000000001</ele><time>2026-04-18T08:29:42.001Z</time></trkpt><trkpt lat="43.150846292058525" lon="12.99470387755172"><ele>1009.0</ele><time>2026-04-18T08:29:43.001Z</time></trkpt><trkpt lat="43.15081146834889" lon="12.994552769669523"><ele>1011.5</ele><time>2026-04-18T08:29:45.001Z</time></trkpt><trkpt lat="43.15079325171456" lon="12.994448915975175"><ele>1014.0</ele><time>2026-04-18T08:29:46.001Z</time></trkpt><trkpt lat="43.15078875519502" lon="12.99434076241827"><ele>1016.5000000000001</ele><time>2026-04-18T08:29:47.001Z</time></trkpt><trkpt lat="43.150774253949706" lon="12.994240810211856"><ele>1019.0</ele><time>2026-04-18T08:29:48.001Z</time></trkpt><trkpt lat="43.15076103779656" lon="12.994124289329989"><ele>1021.3333333333334</ele><time>2026-04-18T08:29:49.001Z</time></trkpt><trkpt lat="43.15075279207481" lon="12.993993113679368"><ele>1023.6666666666667</ele><time>2026-04-18T08:29:50.001Z</time></trkpt><trkpt lat="43.15074226228635" lon="12.99386284026991"><ele>1026.0</ele><time>2026-04-18T08:29:51.001Z</time></trkpt><trkpt lat="43.15071319567497" lon="12.993742931304286"><ele>1028.3333333333333</ele><time>2026-04-18T08:29:52.001Z</time></trkpt><trkpt lat="43.15069126533411" lon="12.993630208561154"><ele>1030.6666666666665</ele><time>2026-04-18T08:29:53.001Z</time></trkpt><trkpt lat="43.15068349987049" lon="12.993520784944593"><ele>1033.0</ele><time>2026-04-18T08:29:54.001Z</time></trkpt><trkpt lat="43.15071004030451" lon="12.993426604444291"><ele>1034.3333333333333</ele><time>2026-04-18T08:29:55.001Z</time></trkpt><trkpt lat="43.15072250741894" lon="12.993325895583803"><ele>1035.6666666666665</ele><time>2026-04-18T08:29:56.001Z</time></trkpt><trkpt lat="43.150708212140174" lon="12.993225454367227"><ele>1037.0</ele><time>2026-04-18T08:29:57.001Z</time></trkpt><trkpt lat="43.15068598265697" lon="12.993102528292699"><ele>1038.3333333333333</ele><time>2026-04-18T08:29:59.001Z</time></trkpt><trkpt lat="43.150699721087925" lon="12.993008463675455"><ele>1039.6666666666667</ele><time>2026-04-18T08:30:01.001Z</time></trkpt><trkpt lat="43.150709806090504" lon="12.992910309861934"><ele>1041.0</ele><time>2026-04-18T08:30:06.001Z</time></trkpt><trkpt lat="43.15066117577002" lon="12.992991634772952"><ele>1043.142857142857</ele><time>2026-04-18T08:30:10.001Z</time></trkpt><trkpt lat="43.15059481785632" lon="12.993032673936836"><ele>1045.2857142857144</ele><time>2026-04-18T08:30:19.001Z</time></trkpt><trkpt lat="43.150644234037976" lon="12.992973361243864"><ele>1047.4285714285716</ele><time>2026-04-18T08:31:13Z</time></trkpt><trkpt lat="43.15064329287744" lon="12.99287827825537"><ele>1049.5714285714287</ele><time>2026-04-18T08:31:17Z</time></trkpt><trkpt lat="43.15057997614988" lon="12.992896400894852"><ele>1051.7142857142858</ele><time>2026-04-18T08:31:20Z</time></trkpt><trkpt lat="43.150517632300996" lon="12.992944698179324"><ele>1053.857142857143</ele><time>2026-04-18T08:31:22Z</time></trkpt><trkpt lat="43.1504528783063" lon="12.992952830895454"><ele>1056.0</ele><time>2026-04-18T08:31:24Z</time></trkpt><trkpt lat="43.15036666872744" lon="12.992952594749475"><ele>1056.0</ele><time>2026-04-18T08:31:26Z</time></trkpt><trkpt lat="43.150246092725546" lon="12.992972745686107"><ele>1056.0</ele><time>2026-04-18T08:31:28Z</time></trkpt><trkpt lat="43.15017864766565" lon="12.992977614849005"><ele>1056.0</ele><time>2026-04-18T08:31:29Z</time></trkpt><trkpt lat="43.15011321399548" lon="12.992992736593704"><ele>1056.0</ele><time>2026-04-18T08:31:30Z</time></trkpt><trkpt lat="43.15004934734309" lon="12.993004216832823"><ele>1056.0</ele><time>2026-04-18T08:31:31Z</time></trkpt><trkpt lat="43.14998170822803" lon="12.993005507533256"><ele>1056.0</ele><time>2026-04-18T08:31:32Z</time></trkpt><trkpt lat="43.149915006406474" lon="12.992995438293166"><ele>1058.0</ele><time>2026-04-18T08:31:33Z</time></trkpt><trkpt lat="43.14984829242956" lon="12.993001595930261"><ele>1060.0</ele><time>2026-04-18T08:31:34Z</time></trkpt><trkpt lat="43.14978059567887" lon="12.99300269323954"><ele>1062.0</ele><time>2026-04-18T08:31:35Z</time></trkpt><trkpt lat="43.14971070347364" lon="12.992997050480694"><ele>1064.0</ele><time>2026-04-18T08:31:36Z</time></trkpt><trkpt lat="43.149639478348874" lon="12.992982984455372"><ele>1066.0</ele><time>2026-04-18T08:31:37Z</time></trkpt><trkpt lat="43.14956478901447" lon="12.992986430293605"><ele>1068.0</ele><time>2026-04-18T08:31:38Z</time></trkpt><trkpt lat="43.149488911790456" lon="12.992982508363365"><ele>1070.0</ele><time>2026-04-18T08:31:39Z</time></trkpt><trkpt lat="43.14941342765913" lon="12.992975494086494"><ele>1070.0</ele><time>2026-04-18T08:31:40Z</time></trkpt><trkpt lat="43.14933859229277" lon="12.992973435660524"><ele>1070.0</ele><time>2026-04-18T08:31:41Z</time></trkpt><trkpt lat="43.14926613818199" lon="12.99297014541356"><ele>1070.0</ele><time>2026-04-18T08:31:42Z</time></trkpt><trkpt lat="43.14919940007779" lon="12.9929721900352"><ele>1070.0</ele><time>2026-04-18T08:31:43Z</time></trkpt><trkpt lat="43.1490828251537" lon="12.992980656244418"><ele>1070.0</ele><time>2026-04-18T08:31:45Z</time></trkpt><trkpt lat="43.148970897706015" lon="12.993007088533071"><ele>1070.0</ele><time>2026-04-18T08:31:47Z</time></trkpt><trkpt lat="43.14890694459265" lon="12.993021984217979"><ele>1072.6</ele><time>2026-04-18T08:31:48Z</time></trkpt><trkpt lat="43.14882250441337" lon="12.993034102068785"><ele>1075.2</ele><time>2026-04-18T08:31:49Z</time></trkpt><trkpt lat="43.14871863139767" lon="12.993067058068451"><ele>1077.8</ele><time>2026-04-18T08:31:50Z</time></trkpt><trkpt lat="43.148603097670055" lon="12.99309060477369"><ele>1080.4</ele><time>2026-04-18T08:31:51Z</time></trkpt><trkpt lat="43.14847104813657" lon="12.9931217108519"><ele>1083.0</ele><time>2026-04-18T08:31:52Z</time></trkpt><trkpt lat="43.14832332749258" lon="12.993134168926517"><ele>1085.25</ele><time>2026-04-18T08:31:53Z</time></trkpt><trkpt lat="43.148193894357846" lon="12.993105742415295"><ele>1087.5</ele><time>2026-04-18T08:31:54Z</time></trkpt><trkpt lat="43.148066831005586" lon="12.99310125203264"><ele>1089.75</ele><time>2026-04-18T08:31:55Z</time></trkpt><trkpt lat="43.14793825499128" lon="12.993078740823536"><ele>1092.0</ele><time>2026-04-18T08:31:56Z</time></trkpt><trkpt lat="43.14780601277388" lon="12.993047931170706"><ele>1092.0</ele><time>2026-04-18T08:31:57Z</time></trkpt><trkpt lat="43.14767310709179" lon="12.993029798143157"><ele>1092.0</ele><time>2026-04-18T08:31:58Z</time></trkpt><trkpt lat="43.14753628256781" lon="12.99301516306526"><ele>1092.0</ele><time>2026-04-18T08:31:59Z</time></trkpt><trkpt lat="43.14740697203229" lon="12.99299105577406"><ele>1092.0</ele><time>2026-04-18T08:32:00Z</time></trkpt><trkpt lat="43.14729732378883" lon="12.992970679518624"><ele>1095.4</ele><time>2026-04-18T08:32:01Z</time></trkpt><trkpt lat="43.147197127644844" lon="12.992943516001288"><ele>1098.8000000000002</ele><time>2026-04-18T08:32:02Z</time></trkpt><trkpt lat="43.14709852275471" lon="12.992908118321926"><ele>1102.2</ele><time>2026-04-18T08:32:03Z</time></trkpt><trkpt lat="43.147005517069594" lon="12.992868617931942"><ele>1105.6000000000001</ele><time>2026-04-18T08:32:04Z</time></trkpt><trkpt lat="43.14690924911938" lon="12.992827173306917"><ele>1109.0</ele><time>2026-04-18T08:32:05Z</time></trkpt><trkpt lat="43.14680818807162" lon="12.992798344980208"><ele>1109.0</ele><time>2026-04-18T08:32:06Z</time></trkpt><trkpt lat="43.14670775664262" lon="12.992767272393683"><ele>1109.0</ele><time>2026-04-18T08:32:07Z</time></trkpt><trkpt lat="43.146604382478586" lon="12.992721839561858"><ele>1109.0</ele><time>2026-04-18T08:32:08Z</time></trkpt><trkpt lat="43.14649215352052" lon="12.992682983197781"><ele>1109.0</ele><time>2026-04-18T08:32:09Z</time></trkpt><trkpt lat="43.146376898339355" lon="12.992652543936904"><ele>1109.0</ele><time>2026-04-18T08:32:10Z</time></trkpt><trkpt lat="43.14625899431734" lon="12.992618116855127"><ele>1111.4</ele><time>2026-04-18T08:32:11Z</time></trkpt><trkpt lat="43.146140474240624" lon="12.992579648207235"><ele>1113.8000000000002</ele><time>2026-04-18T08:32:12Z</time></trkpt><trkpt lat="43.14602774232523" lon="12.992550724638587"><ele>1116.1999999999998</ele><time>2026-04-18T08:32:13Z</time></trkpt><trkpt lat="43.14592330854751" lon="12.992511917046052"><ele>1118.6</ele><time>2026-04-18T08:32:14Z</time></trkpt><trkpt lat="43.145823076371144" lon="12.992475634139582"><ele>1121.0</ele><time>2026-04-18T08:32:15Z</time></trkpt><trkpt lat="43.14572404158181" lon="12.992441786740288"><ele>1123.6</ele><time>2026-04-18T08:32:16Z</time></trkpt><trkpt lat="43.145625908751526" lon="12.992416353118008"><ele>1126.1999999999998</ele><time>2026-04-18T08:32:17Z</time></trkpt><trkpt lat="43.14553219614012" lon="12.992373119978232"><ele>1128.8000000000002</ele><time>2026-04-18T08:32:18Z</time></trkpt><trkpt lat="43.14542943143962" lon="12.992341343671072"><ele>1131.4</ele><time>2026-04-18T08:32:19Z</time></trkpt><trkpt lat="43.14532461283872" lon="12.992315686522298"><ele>1134.0</ele><time>2026-04-18T08:32:20Z</time></trkpt><trkpt lat="43.145220132280784" lon="12.992284267128804"><ele>1134.0</ele><time>2026-04-18T08:32:21Z</time></trkpt><trkpt lat="43.14511169584259" lon="12.99224269488036"><ele>1134.0</ele><time>2026-04-18T08:32:22Z</time></trkpt><trkpt lat="43.144996505381755" lon="12.992206006278968"><ele>1134.0</ele><time>2026-04-18T08:32:23Z</time></trkpt><trkpt lat="43.144877578215755" lon="12.992169468060787"><ele>1134.0</ele><time>2026-04-18T08:32:24Z</time></trkpt><trkpt lat="43.14475232858999" lon="12.992136446915364"><ele>1134.5</ele><time>2026-04-18T08:32:25Z</time></trkpt><trkpt lat="43.14462030286893" lon="12.992087549274938"><ele>1135.0</ele><time>2026-04-18T08:32:26Z</time></trkpt><trkpt lat="43.14448533884014" lon="12.99203800977993"><ele>1135.5</ele><time>2026-04-18T08:32:27Z</time></trkpt><trkpt lat="43.14435134050349" lon="12.991991583015118"><ele>1136.0</ele><time>2026-04-18T08:32:28Z</time></trkpt><trkpt lat="43.144228451482405" lon="12.991930522247237"><ele>1136.0</ele><time>2026-04-18T08:32:29Z</time></trkpt><trkpt lat="43.144108870022585" lon="12.991839850267613"><ele>1136.0</ele><time>2026-04-18T08:32:30Z</time></trkpt><trkpt lat="43.143984452352015" lon="12.991753317125617"><ele>1136.0</ele><time>2026-04-18T08:32:31Z</time></trkpt><trkpt lat="43.14385419776257" lon="12.991674552409204"><ele>1136.0</ele><time>2026-04-18T08:32:32Z</time></trkpt><trkpt lat="43.14371924729517" lon="12.991610596398278"><ele>1138.25</ele><time>2026-04-18T08:32:33Z</time></trkpt><trkpt lat="43.143585667126764" lon="12.991531823956771"><ele>1140.5</ele><time>2026-04-18T08:32:34Z</time></trkpt><trkpt lat="43.14344743645045" lon="12.991462999354145"><ele>1142.75</ele><time>2026-04-18T08:32:35Z</time></trkpt><trkpt lat="43.143307070867806" lon="12.991399735398344"><ele>1145.0</ele><time>2026-04-18T08:32:36Z</time></trkpt><trkpt lat="43.14317229784818" lon="12.991344570168883"><ele>1145.0</ele><time>2026-04-18T08:32:37Z</time></trkpt><trkpt lat="43.14304928334303" lon="12.99128462968394"><ele>1145.0</ele><time>2026-04-18T08:32:38Z</time></trkpt><trkpt lat="43.142935715808875" lon="12.991221165302276"><ele>1145.0</ele><time>2026-04-18T08:32:39Z</time></trkpt><trkpt lat="43.14282961500179" lon="12.991165478524872"><ele>1145.0</ele><time>2026-04-18T08:32:40Z</time></trkpt><trkpt lat="43.14272566358908" lon="12.991114153909432"><ele>1145.0</ele><time>2026-04-18T08:32:41Z</time></trkpt><trkpt lat="43.14262042252671" lon="12.991054784164156"><ele>1145.0</ele><time>2026-04-18T08:32:42Z</time></trkpt><trkpt lat="43.14251111834486" lon="12.990994903971986"><ele>1145.0</ele><time>2026-04-18T08:32:43Z</time></trkpt><trkpt lat="43.142405553613" lon="12.99092080187968"><ele>1145.0</ele><time>2026-04-18T08:32:44Z</time></trkpt><trkpt lat="43.14229767377223" lon="12.990845239124562"><ele>1145.8</ele><time>2026-04-18T08:32:45Z</time></trkpt><trkpt lat="43.1421944559446" lon="12.990771853000584"><ele>1146.6</ele><time>2026-04-18T08:32:46Z</time></trkpt><trkpt lat="43.14209506200205" lon="12.990717534290951"><ele>1147.4</ele><time>2026-04-18T08:32:47Z</time></trkpt><trkpt lat="43.1420142458052" lon="12.99065774448532"><ele>1148.2</ele><time>2026-04-18T08:32:48Z</time></trkpt><trkpt lat="43.14193669478834" lon="12.990608966342045"><ele>1149.0</ele><time>2026-04-18T08:32:49Z</time></trkpt><trkpt lat="43.14186390512418" lon="12.9905543293592"><ele>1149.0</ele><time>2026-04-18T08:32:50Z</time></trkpt><trkpt lat="43.14179150940378" lon="12.990503234469653"><ele>1149.0</ele><time>2026-04-18T08:32:51Z</time></trkpt><trkpt lat="43.14172398038029" lon="12.99044570631346"><ele>1149.0</ele><time>2026-04-18T08:32:52Z</time></trkpt><trkpt lat="43.14165444015957" lon="12.990393858250249"><ele>1149.0</ele><time>2026-04-18T08:32:53Z</time></trkpt><trkpt lat="43.141585491465115" lon="12.990341441022935"><ele>1149.0</ele><time>2026-04-18T08:32:54Z</time></trkpt><trkpt lat="43.14151644886792" lon="12.990298231142202"><ele>1149.0</ele><time>2026-04-18T08:32:55Z</time></trkpt><trkpt lat="43.14145121847295" lon="12.990242335068077"><ele>1148.5</ele><time>2026-04-18T08:32:56Z</time></trkpt><trkpt lat="43.14138640502986" lon="12.990188072866685"><ele>1148.0</ele><time>2026-04-18T08:32:57Z</time></trkpt><trkpt lat="43.141322996163595" lon="12.990140144167823"><ele>1147.5</ele><time>2026-04-18T08:32:58Z</time></trkpt><trkpt lat="43.141259004343034" lon="12.990092327779887"><ele>1147.0</ele><time>2026-04-18T08:32:59Z</time></trkpt><trkpt lat="43.14119103561785" lon="12.990049083239944"><ele>1146.5</ele><time>2026-04-18T08:33:00Z</time></trkpt><trkpt lat="43.14111984452396" lon="12.990009262590403"><ele>1146.0</ele><time>2026-04-18T08:33:01Z</time></trkpt><trkpt lat="43.14105097648804" lon="12.989959253286207"><ele>1146.0</ele><time>2026-04-18T08:33:02Z</time></trkpt><trkpt lat="43.14097838682716" lon="12.989904378630287"><ele>1146.0</ele><time>2026-04-18T08:33:03Z</time></trkpt><trkpt lat="43.14090174222824" lon="12.989856605403851"><ele>1146.0</ele><time>2026-04-18T08:33:04Z</time></trkpt><trkpt lat="43.14082496864815" lon="12.98981358547424"><ele>1146.0</ele><time>2026-04-18T08:33:05Z</time></trkpt><trkpt lat="43.140755774726365" lon="12.989759956432932"><ele>1146.0</ele><time>2026-04-18T08:33:06Z</time></trkpt><trkpt lat="43.14069134716717" lon="12.989713653644339"><ele>1146.0</ele><time>2026-04-18T08:33:07Z</time></trkpt><trkpt lat="43.14063130417916" lon="12.989679201335697"><ele>1143.3333333333333</ele><time>2026-04-18T08:33:08Z</time></trkpt><trkpt lat="43.140538755267514" lon="12.989595109794653"><ele>1140.6666666666667</ele><time>2026-04-18T08:33:10Z</time></trkpt><trkpt lat="43.14047927948206" lon="12.989521284848367"><ele>1138.0</ele><time>2026-04-18T08:33:12Z</time></trkpt><trkpt lat="43.140424026189585" lon="12.989466012513608"><ele>1135.3333333333335</ele><time>2026-04-18T08:33:14Z</time></trkpt><trkpt lat="43.14034653372689" lon="12.98942404770208"><ele>1132.6666666666667</ele><time>2026-04-18T08:33:18Z</time></trkpt><trkpt lat="43.14028928296556" lon="12.98935228333277"><ele>1130.0</ele><time>2026-04-18T08:33:26Z</time></trkpt><trkpt lat="43.14026499502334" lon="12.989242549490355"><ele>1130.0</ele><time>2026-04-18T08:33:29Z</time></trkpt><trkpt lat="43.140180193529446" lon="12.989205281955662"><ele>1130.0</ele><time>2026-04-18T08:34:20Z</time></trkpt><trkpt lat="43.140252083621874" lon="12.989154827451435"><ele>1130.0</ele><time>2026-04-18T08:34:36Z</time></trkpt><trkpt lat="43.1401881461978" lon="12.989195034304164"><ele>1130.0</ele><time>2026-04-18T08:36:08Z</time></trkpt><trkpt lat="43.14011419445128" lon="12.98923610622751"><ele>1130.0</ele><time>2026-04-18T08:36:24Z</time></trkpt><trkpt lat="43.14000665791533" lon="12.98916915711139"><ele>1130.0</ele><time>2026-04-18T08:36:26Z</time></trkpt><trkpt lat="43.139948906449064" lon="12.989126333699963"><ele>1130.7142857142856</ele><time>2026-04-18T08:36:27Z</time></trkpt><trkpt lat="43.1398916262876" lon="12.989081544190762"><ele>1131.4285714285713</ele><time>2026-04-18T08:36:28Z</time></trkpt><trkpt lat="43.13982449945539" lon="12.989060612116068"><ele>1132.142857142857</ele><time>2026-04-18T08:36:29Z</time></trkpt><trkpt lat="43.139766747200575" lon="12.989009290201714"><ele>1132.8571428571427</ele><time>2026-04-18T08:36:30Z</time></trkpt><trkpt lat="43.13970364711349" lon="12.98897335091596"><ele>1133.5714285714284</ele><time>2026-04-18T08:36:31Z</time></trkpt><trkpt lat="43.139637516035656" lon="12.988942978670652"><ele>1134.2857142857142</ele><time>2026-04-18T08:36:32Z</time></trkpt><trkpt lat="43.139569493714816" lon="12.98892872091214"><ele>1135.0</ele><time>2026-04-18T08:36:33Z</time></trkpt><trkpt lat="43.1394981593699" lon="12.98893700630903"><ele>1132.6</ele><time>2026-04-18T08:36:34Z</time></trkpt><trkpt lat="43.13942826242753" lon="12.988948436162245"><ele>1130.2</ele><time>2026-04-18T08:36:35Z</time></trkpt><trkpt lat="43.13936418985062" lon="12.988948393407219"><ele>1127.8</ele><time>2026-04-18T08:36:36Z</time></trkpt><trkpt lat="43.13924944334861" lon="12.988932134340631"><ele>1125.4</ele><time>2026-04-18T08:36:38Z</time></trkpt><trkpt lat="43.13914208296827" lon="12.988909754533605"><ele>1123.0</ele><time>2026-04-18T08:36:40Z</time></trkpt><trkpt lat="43.13902754505282" lon="12.988908774873646"><ele>1120.3333333333333</ele><time>2026-04-18T08:36:42Z</time></trkpt><trkpt lat="43.138912093029425" lon="12.988898690779548"><ele>1117.6666666666665</ele><time>2026-04-18T08:36:44Z</time></trkpt><trkpt lat="43.138813656397446" lon="12.988879138408803"><ele>1115.0</ele><time>2026-04-18T08:36:46Z</time></trkpt><trkpt lat="43.13871210736086" lon="12.988877011320017"><ele>1112.3333333333333</ele><time>2026-04-18T08:36:48Z</time></trkpt><trkpt lat="43.138649471626096" lon="12.988888360216183"><ele>1109.6666666666667</ele><time>2026-04-18T08:36:49Z</time></trkpt><trkpt lat="43.13858133868173" lon="12.98887512864255"><ele>1107.0</ele><time>2026-04-18T08:36:50Z</time></trkpt><trkpt lat="43.138504979562434" lon="12.9888488705986"><ele>1107.0</ele><time>2026-04-18T08:36:51Z</time></trkpt><trkpt lat="43.13842003408445" lon="12.988831505414154"><ele>1107.0</ele><time>2026-04-18T08:36:52Z</time></trkpt><trkpt lat="43.138332325944646" lon="12.988810387949957"><ele>1107.0</ele><time>2026-04-18T08:36:53Z</time></trkpt><trkpt lat="43.1382431413426" lon="12.988778995253442"><ele>1107.0</ele><time>2026-04-18T08:36:54Z</time></trkpt><trkpt lat="43.13815297008338" lon="12.988738250794304"><ele>1107.0</ele><time>2026-04-18T08:36:55Z</time></trkpt><trkpt lat="43.138058734814116" lon="12.988719149589823"><ele>1105.0</ele><time>2026-04-18T08:36:56Z</time></trkpt><trkpt lat="43.137963352292154" lon="12.98869729674994"><ele>1103.0</ele><time>2026-04-18T08:36:57Z</time></trkpt><trkpt lat="43.137872367736314" lon="12.988688173672735"><ele>1101.0</ele><time>2026-04-18T08:36:58Z</time></trkpt><trkpt lat="43.13778768647484" lon="12.988674201781095"><ele>1099.0</ele><time>2026-04-18T08:36:59Z</time></trkpt><trkpt lat="43.13770377718416" lon="12.988658634426853"><ele>1097.0</ele><time>2026-04-18T08:37:00Z</time></trkpt><trkpt lat="43.13761667359815" lon="12.98863878189834"><ele>1095.0</ele><time>2026-04-18T08:37:01Z</time></trkpt><trkpt lat="43.13752859838358" lon="12.988609300338117"><ele>1095.0</ele><time>2026-04-18T08:37:02Z</time></trkpt><trkpt lat="43.13744258506813" lon="12.988574547872192"><ele>1095.0</ele><time>2026-04-18T08:37:03Z</time></trkpt><trkpt lat="43.13735929043725" lon="12.988544187372456"><ele>1095.0</ele><time>2026-04-18T08:37:04Z</time></trkpt><trkpt lat="43.13728198093651" lon="12.988516680706809"><ele>1095.0</ele><time>2026-04-18T08:37:05Z</time></trkpt><trkpt lat="43.13720432334968" lon="12.988507074411299"><ele>1095.0</ele><time>2026-04-18T08:37:06Z</time></trkpt><trkpt lat="43.13712628259078" lon="12.988493131039867"><ele>1095.0</ele><time>2026-04-18T08:37:07Z</time></trkpt><trkpt lat="43.13704953350472" lon="12.988482619824664"><ele>1093.3333333333333</ele><time>2026-04-18T08:37:08Z</time></trkpt><trkpt lat="43.13697417504881" lon="12.988469726268324"><ele>1091.6666666666667</ele><time>2026-04-18T08:37:09Z</time></trkpt><trkpt lat="43.136895023336834" lon="12.988456665350512"><ele>1090.0</ele><time>2026-04-18T08:37:10Z</time></trkpt><trkpt lat="43.13681154840198" lon="12.988443291795067"><ele>1088.3333333333335</ele><time>2026-04-18T08:37:11Z</time></trkpt><trkpt lat="43.13672566760856" lon="12.988428687602791"><ele>1086.6666666666667</ele><time>2026-04-18T08:37:12Z</time></trkpt><trkpt lat="43.13663853853995" lon="12.988410343261636"><ele>1085.0</ele><time>2026-04-18T08:37:13Z</time></trkpt><trkpt lat="43.13655187491864" lon="12.988388883328556"><ele>1083.0</ele><time>2026-04-18T08:37:14Z</time></trkpt><trkpt lat="43.13646875315969" lon="12.98836931426981"><ele>1081.0</ele><time>2026-04-18T08:37:15Z</time></trkpt><trkpt lat="43.13638730889407" lon="12.988358478453133"><ele>1079.0</ele><time>2026-04-18T08:37:16Z</time></trkpt><trkpt lat="43.13630600866504" lon="12.988367473617632"><ele>1077.0</ele><time>2026-04-18T08:37:17Z</time></trkpt><trkpt lat="43.136223115463345" lon="12.988392194811786"><ele>1075.0</ele><time>2026-04-18T08:37:18Z</time></trkpt><trkpt lat="43.13613698754566" lon="12.988430958649909"><ele>1073.0</ele><time>2026-04-18T08:37:19Z</time></trkpt><trkpt lat="43.13604922979786" lon="12.98846934951199"><ele>1073.0</ele><time>2026-04-18T08:37:20Z</time></trkpt><trkpt lat="43.13596396943777" lon="12.988530214950616"><ele>1073.0</ele><time>2026-04-18T08:37:21Z</time></trkpt><trkpt lat="43.13587649112192" lon="12.988592220201324"><ele>1073.0</ele><time>2026-04-18T08:37:22Z</time></trkpt><trkpt lat="43.13578603182421" lon="12.988646202328837"><ele>1073.0</ele><time>2026-04-18T08:37:23Z</time></trkpt><trkpt lat="43.13569556693337" lon="12.988699622999436"><ele>1073.0</ele><time>2026-04-18T08:37:24Z</time></trkpt><trkpt lat="43.1356063327892" lon="12.988752118577656"><ele>1071.0</ele><time>2026-04-18T08:37:25Z</time></trkpt><trkpt lat="43.135517122066815" lon="12.98879910952642"><ele>1069.0</ele><time>2026-04-18T08:37:26Z</time></trkpt><trkpt lat="43.13542367430078" lon="12.988842546182067"><ele>1067.0</ele><time>2026-04-18T08:37:27Z</time></trkpt><trkpt lat="43.1353257678277" lon="12.988880045938288"><ele>1065.0</ele><time>2026-04-18T08:37:28Z</time></trkpt><trkpt lat="43.13522765340481" lon="12.988914792658312"><ele>1063.0</ele><time>2026-04-18T08:37:29Z</time></trkpt><trkpt lat="43.13513358892569" lon="12.988953291681153"><ele>1063.0</ele><time>2026-04-18T08:37:30Z</time></trkpt><trkpt lat="43.13503860211058" lon="12.989003140422955"><ele>1063.0</ele><time>2026-04-18T08:37:31Z</time></trkpt><trkpt lat="43.13494191461405" lon="12.989050503625775"><ele>1063.0</ele><time>2026-04-18T08:37:32Z</time></trkpt><trkpt lat="43.134846099165365" lon="12.989090317460576"><ele>1063.0</ele><time>2026-04-18T08:37:33Z</time></trkpt><trkpt lat="43.13475078501919" lon="12.989111704353018"><ele>1063.0</ele><time>2026-04-18T08:37:34Z</time></trkpt><trkpt lat="43.13465662329329" lon="12.989130927059321"><ele>1060.8333333333333</ele><time>2026-04-18T08:37:35Z</time></trkpt><trkpt lat="43.13456702630879" lon="12.989157746862805"><ele>1058.6666666666665</ele><time>2026-04-18T08:37:36Z</time></trkpt><trkpt lat="43.13448006727861" lon="12.989170833607384"><ele>1056.5</ele><time>2026-04-18T08:37:37Z</time></trkpt><trkpt lat="43.13439076343255" lon="12.989186994222528"><ele>1054.3333333333333</ele><time>2026-04-18T08:37:38Z</time></trkpt><trkpt lat="43.13430300291168" lon="12.989210714437533"><ele>1052.1666666666667</ele><time>2026-04-18T08:37:39Z</time></trkpt><trkpt lat="43.13421650447133" lon="12.989231333656265"><ele>1050.0</ele><time>2026-04-18T08:37:40Z</time></trkpt><trkpt lat="43.134130735553896" lon="12.989264900834051"><ele>1048.0</ele><time>2026-04-18T08:37:41Z</time></trkpt><trkpt lat="43.13404213367465" lon="12.989270895419997"><ele>1046.0</ele><time>2026-04-18T08:37:42Z</time></trkpt><trkpt lat="43.133954676886084" lon="12.989246295440283"><ele>1044.0</ele><time>2026-04-18T08:37:43Z</time></trkpt><trkpt lat="43.13387098595478" lon="12.989208215741339"><ele>1042.0</ele><time>2026-04-18T08:37:44Z</time></trkpt><trkpt lat="43.133784722446265" lon="12.989162215063184"><ele>1040.0</ele><time>2026-04-18T08:37:45Z</time></trkpt><trkpt lat="43.13369638050038" lon="12.989116420152024"><ele>1040.0</ele><time>2026-04-18T08:37:46Z</time></trkpt><trkpt lat="43.13360971013957" lon="12.989076996291793"><ele>1040.0</ele><time>2026-04-18T08:37:47Z</time></trkpt><trkpt lat="43.13352832103536" lon="12.989045924683253"><ele>1040.0</ele><time>2026-04-18T08:37:48Z</time></trkpt><trkpt lat="43.13345378878106" lon="12.989029577547335"><ele>1040.0</ele><time>2026-04-18T08:37:49Z</time></trkpt><trkpt lat="43.133381732961084" lon="12.9890302423887"><ele>1040.0</ele><time>2026-04-18T08:37:50Z</time></trkpt><trkpt lat="43.13330935814062" lon="12.989037478191571"><ele>1040.0</ele><time>2026-04-18T08:37:51Z</time></trkpt><trkpt lat="43.133236958629034" lon="12.989047498729915"><ele>1038.3333333333335</ele><time>2026-04-18T08:37:52Z</time></trkpt><trkpt lat="43.133163315929195" lon="12.98905774367886"><ele>1036.6666666666667</ele><time>2026-04-18T08:37:53Z</time></trkpt><trkpt lat="43.13308619944941" lon="12.989070685680892"><ele>1035.0</ele><time>2026-04-18T08:37:54Z</time></trkpt><trkpt lat="43.13300704612802" lon="12.989081045845596"><ele>1033.3333333333333</ele><time>2026-04-18T08:37:55Z</time></trkpt><trkpt lat="43.13292559102875" lon="12.989088977972765"><ele>1031.6666666666665</ele><time>2026-04-18T08:37:56Z</time></trkpt><trkpt lat="43.1328409661793" lon="12.989107815134757"><ele>1030.0</ele><time>2026-04-18T08:37:57Z</time></trkpt><trkpt lat="43.132750296668036" lon="12.989129563631938"><ele>1030.0</ele><time>2026-04-18T08:37:58Z</time></trkpt><trkpt lat="43.132652951322534" lon="12.989158966115191"><ele>1030.0</ele><time>2026-04-18T08:37:59Z</time></trkpt><trkpt lat="43.13255822336555" lon="12.989201489324048"><ele>1030.0</ele><time>2026-04-18T08:38:00Z</time></trkpt><trkpt lat="43.132468917310874" lon="12.989248604244915"><ele>1030.0</ele><time>2026-04-18T08:38:01Z</time></trkpt><trkpt lat="43.13238735222442" lon="12.989303979264141"><ele>1030.0</ele><time>2026-04-18T08:38:02Z</time></trkpt><trkpt lat="43.13230526035642" lon="12.989357564001784"><ele>1027.6666666666665</ele><time>2026-04-18T08:38:03Z</time></trkpt><trkpt lat="43.13222054346424" lon="12.989405029886532"><ele>1025.3333333333333</ele><time>2026-04-18T08:38:04Z</time></trkpt><trkpt lat="43.13213355250022" lon="12.98944460361153"><ele>1023.0</ele><time>2026-04-18T08:38:05Z</time></trkpt><trkpt lat="43.13204777024669" lon="12.989484420188532"><ele>1020.6666666666667</ele><time>2026-04-18T08:38:06Z</time></trkpt><trkpt lat="43.131971612887874" lon="12.989539343713469"><ele>1018.3333333333334</ele><time>2026-04-18T08:38:07Z</time></trkpt><trkpt lat="43.13189733524528" lon="12.989582876193518"><ele>1016.0</ele><time>2026-04-18T08:38:08Z</time></trkpt><trkpt lat="43.13181829461278" lon="12.989610401837304"><ele>1016.0000000000001</ele><time>2026-04-18T08:38:09Z</time></trkpt><trkpt lat="43.13172820811905" lon="12.989628550697756"><ele>1016.0</ele><time>2026-04-18T08:38:10Z</time></trkpt><trkpt lat="43.131635885132525" lon="12.989647386863716"><ele>1016.0</ele><time>2026-04-18T08:38:11Z</time></trkpt><trkpt lat="43.13154804502318" lon="12.989669842725426"><ele>1016.0</ele><time>2026-04-18T08:38:12Z</time></trkpt><trkpt lat="43.131465282707005" lon="12.989689021351843"><ele>1016.0000000000001</ele><time>2026-04-18T08:38:13Z</time></trkpt><trkpt lat="43.13138941535666" lon="12.98971797312163"><ele>1016.0</ele><time>2026-04-18T08:38:14Z</time></trkpt><trkpt lat="43.13132097514513" lon="12.989747251516844"><ele>1014.5999999999999</ele><time>2026-04-18T08:38:15Z</time></trkpt><trkpt lat="43.131254399818886" lon="12.989765954359143"><ele>1013.1999999999999</ele><time>2026-04-18T08:38:16Z</time></trkpt><trkpt lat="43.13114886491636" lon="12.98977154696135"><ele>1011.8000000000001</ele><time>2026-04-18T08:38:18Z</time></trkpt><trkpt lat="43.13108276639835" lon="12.989835729780419"><ele>1010.4000000000001</ele><time>2026-04-18T08:38:20Z</time></trkpt><trkpt lat="43.13103631714281" lon="12.989962271137202"><ele>1009.0</ele><time>2026-04-18T08:38:22Z</time></trkpt><trkpt lat="43.130966597958086" lon="12.99011376672567"><ele>1006.8333333333333</ele><time>2026-04-18T08:38:24Z</time></trkpt><trkpt lat="43.13092756720405" lon="12.990193693636908"><ele>1004.6666666666666</ele><time>2026-04-18T08:38:25Z</time></trkpt><trkpt lat="43.130895451080264" lon="12.990268220803117"><ele>1002.5</ele><time>2026-04-18T08:38:26Z</time></trkpt><trkpt lat="43.13084509998341" lon="12.990419646115116"><ele>1000.3333333333333</ele><time>2026-04-18T08:38:28Z</time></trkpt><trkpt lat="43.13079120173279" lon="12.990525559979785"><ele>998.1666666666666</ele><time>2026-04-18T08:38:29Z</time></trkpt><trkpt lat="43.13075470613681" lon="12.990602317928897"><ele>996.0</ele><time>2026-04-18T08:38:30Z</time></trkpt><trkpt lat="43.13069652117274" lon="12.990713225411149"><ele>992.8333333333334</ele><time>2026-04-18T08:38:32Z</time></trkpt><trkpt lat="43.13064465801254" lon="12.990828441831034"><ele>989.6666666666667</ele><time>2026-04-18T08:38:34Z</time></trkpt><trkpt lat="43.13058305142684" lon="12.990858648159241"><ele>986.5</ele><time>2026-04-18T08:38:38Z</time></trkpt><trkpt lat="43.130501184718575" lon="12.990751483833888"><ele>983.3333333333334</ele><time>2026-04-18T08:38:40Z</time></trkpt><trkpt lat="43.13044539807997" lon="12.990670732439122"><ele>980.1666666666667</ele><time>2026-04-18T08:38:41Z</time></trkpt><trkpt lat="43.13038775114922" lon="12.990588597808872"><ele>977.0</ele><time>2026-04-18T08:38:42Z</time></trkpt><trkpt lat="43.130333260622066" lon="12.99050410382336"><ele>977.0000000000001</ele><time>2026-04-18T08:38:43Z</time></trkpt><trkpt lat="43.13028459137997" lon="12.990417617893197"><ele>977.0</ele><time>2026-04-18T08:38:44Z</time></trkpt><trkpt lat="43.130240307881934" lon="12.990324356502516"><ele>977.0</ele><time>2026-04-18T08:38:45Z</time></trkpt><trkpt lat="43.130190549278616" lon="12.99021867715157"><ele>977.0</ele><time>2026-04-18T08:38:46Z</time></trkpt><trkpt lat="43.13014816718574" lon="12.990108686594164"><ele>977.0000000000001</ele><time>2026-04-18T08:38:47Z</time></trkpt><trkpt lat="43.130101071041025" lon="12.989992229514792"><ele>977.0</ele><time>2026-04-18T08:38:48Z</time></trkpt><trkpt lat="43.130052157059765" lon="12.989886605525347"><ele>978.2</ele><time>2026-04-18T08:38:49Z</time></trkpt><trkpt lat="43.12999590461885" lon="12.9897781087665"><ele>979.4000000000001</ele><time>2026-04-18T08:38:50Z</time></trkpt><trkpt lat="43.12993855894052" lon="12.989661419259797"><ele>980.5999999999999</ele><time>2026-04-18T08:38:51Z</time></trkpt><trkpt lat="43.12987712066441" lon="12.98953999467047"><ele>981.8</ele><time>2026-04-18T08:38:52Z</time></trkpt><trkpt lat="43.129820961506596" lon="12.989410132227917"><ele>983.0</ele><time>2026-04-18T08:38:53Z</time></trkpt><trkpt lat="43.12977291553049" lon="12.989295309337157"><ele>979.4</ele><time>2026-04-18T08:38:54Z</time></trkpt><trkpt lat="43.12973324293402" lon="12.989175324113818"><ele>975.8</ele><time>2026-04-18T08:38:55Z</time></trkpt><trkpt lat="43.129691539833686" lon="12.989042781650095"><ele>972.2</ele><time>2026-04-18T08:38:56Z</time></trkpt><trkpt lat="43.129652580155145" lon="12.988909214389803"><ele>968.6</ele><time>2026-04-18T08:38:57Z</time></trkpt><trkpt lat="43.12961730574795" lon="12.988803439793136"><ele>965.0</ele><time>2026-04-18T08:38:58Z</time></trkpt><trkpt lat="43.12957246589612" lon="12.988710193496049"><ele>965.0000000000001</ele><time>2026-04-18T08:38:59Z</time></trkpt><trkpt lat="43.129525000785925" lon="12.988620477256616"><ele>965.0</ele><time>2026-04-18T08:39:00Z</time></trkpt><trkpt lat="43.12947958242297" lon="12.988538148568672"><ele>965.0</ele><time>2026-04-18T08:39:01Z</time></trkpt><trkpt lat="43.12943518542013" lon="12.98846009012243"><ele>965.0</ele><time>2026-04-18T08:39:02Z</time></trkpt><trkpt lat="43.12939435323874" lon="12.988379130618881"><ele>965.0000000000001</ele><time>2026-04-18T08:39:03Z</time></trkpt><trkpt lat="43.129322013821934" lon="12.98824564046372"><ele>965.0</ele><time>2026-04-18T08:39:05Z</time></trkpt><trkpt lat="43.129284735826204" lon="12.98817567161088"><ele>965.4</ele><time>2026-04-18T08:39:06Z</time></trkpt><trkpt lat="43.129224499231846" lon="12.988037786774303"><ele>965.8</ele><time>2026-04-18T08:39:08Z</time></trkpt><trkpt lat="43.129174380317366" lon="12.987921091468046"><ele>966.2</ele><time>2026-04-18T08:39:10Z</time></trkpt><trkpt lat="43.12912549254572" lon="12.987848948882217"><ele>966.6</ele><time>2026-04-18T08:39:13Z</time></trkpt><trkpt lat="43.12910759307484" lon="12.987742334799877"><ele>967.0</ele><time>2026-04-18T08:39:31Z</time></trkpt><trkpt lat="43.12912223316591" lon="12.98762896425429"><ele>969.7142857142858</ele><time>2026-04-18T08:39:52Z</time></trkpt><trkpt lat="43.12905373605758" lon="12.987597405888504"><ele>972.4285714285713</ele><time>2026-04-18T08:40:26Z</time></trkpt><trkpt lat="43.12897491535366" lon="12.987608507804383"><ele>975.1428571428571</ele><time>2026-04-18T08:40:29Z</time></trkpt><trkpt lat="43.12889626073924" lon="12.987617303377526"><ele>977.8571428571429</ele><time>2026-04-18T08:40:31Z</time></trkpt><trkpt lat="43.1288211458196" lon="12.987664881351373"><ele>980.5714285714287</ele><time>2026-04-18T08:40:34Z</time></trkpt><trkpt lat="43.128755943399156" lon="12.98767200498615"><ele>983.2857142857142</ele><time>2026-04-18T08:40:39Z</time></trkpt><trkpt lat="43.12878628396576" lon="12.987590619066074"><ele>986.0</ele><time>2026-04-18T08:40:49Z</time></trkpt><trkpt lat="43.1288704739512" lon="12.987592077425385"><ele>986.0000000000001</ele><time>2026-04-18T08:40:51Z</time></trkpt><trkpt lat="43.12894910340737" lon="12.987600340666942"><ele>986.0</ele><time>2026-04-18T08:40:53Z</time></trkpt><trkpt lat="43.12903470296326" lon="12.987535104405492"><ele>986.0</ele><time>2026-04-18T08:40:56Z</time></trkpt><trkpt lat="43.12903127162515" lon="12.987369197801026"><ele>986.0</ele><time>2026-04-18T08:40:58Z</time></trkpt><trkpt lat="43.12902123028079" lon="12.987279691997184"><ele>986.0000000000001</ele><time>2026-04-18T08:40:59Z</time></trkpt><trkpt lat="43.12901855312877" lon="12.987184311050108"><ele>986.0</ele><time>2026-04-18T08:41:00Z</time></trkpt><trkpt lat="43.129028253325416" lon="12.987081621349994"><ele>985.3333333333334</ele><time>2026-04-18T08:41:01Z</time></trkpt><trkpt lat="43.12903472129675" lon="12.986978877885983"><ele>984.6666666666667</ele><time>2026-04-18T08:41:02Z</time></trkpt><trkpt lat="43.12904326091313" lon="12.986884901383108"><ele>984.0</ele><time>2026-04-18T08:41:03Z</time></trkpt><trkpt lat="43.12905408814308" lon="12.986795534443537"><ele>983.3333333333333</ele><time>2026-04-18T08:41:04Z</time></trkpt><trkpt lat="43.12905933126055" lon="12.986709530596169"><ele>982.6666666666666</ele><time>2026-04-18T08:41:05Z</time></trkpt><trkpt lat="43.12904135066301" lon="12.986541150768993"><ele>982.0</ele><time>2026-04-18T08:41:07Z</time></trkpt><trkpt lat="43.12903222666327" lon="12.986381878383376"><ele>979.6</ele><time>2026-04-18T08:41:09Z</time></trkpt><trkpt lat="43.12903971333034" lon="12.986210753472697"><ele>977.2</ele><time>2026-04-18T08:41:11Z</time></trkpt><trkpt lat="43.12902005337515" lon="12.98612525386376"><ele>974.8</ele><time>2026-04-18T08:41:12Z</time></trkpt><trkpt lat="43.12899777472255" lon="12.985982107699108"><ele>972.4</ele><time>2026-04-18T08:41:14Z</time></trkpt><trkpt lat="43.12898139030514" lon="12.98587298863278"><ele>970.0</ele><time>2026-04-18T08:41:16Z</time></trkpt><trkpt lat="43.12897701496241" lon="12.985721191364586"><ele>968.4999999999999</ele><time>2026-04-18T08:41:18Z</time></trkpt><trkpt lat="43.12900726160436" lon="12.985633605224034"><ele>967.0</ele><time>2026-04-18T08:41:19Z</time></trkpt><trkpt lat="43.129046655611205" lon="12.985542764875342"><ele>965.5</ele><time>2026-04-18T08:41:20Z</time></trkpt><trkpt lat="43.12908451121979" lon="12.985439662137662"><ele>964.0</ele><time>2026-04-18T08:41:21Z</time></trkpt><trkpt lat="43.12912289738063" lon="12.985340338845447"><ele>962.4999999999999</ele><time>2026-04-18T08:41:22Z</time></trkpt><trkpt lat="43.1291696646893" lon="12.985250891065032"><ele>961.0</ele><time>2026-04-18T08:41:23Z</time></trkpt><trkpt lat="43.12921499999197" lon="12.985154825644827"><ele>960.9999999999999</ele><time>2026-04-18T08:41:24Z</time></trkpt><trkpt lat="43.12926272192368" lon="12.985056840386548"><ele>961.0</ele><time>2026-04-18T08:41:25Z</time></trkpt><trkpt lat="43.129310709635696" lon="12.984962255969403"><ele>961.0</ele><time>2026-04-18T08:41:26Z</time></trkpt><trkpt lat="43.12936082912479" lon="12.984869270952839"><ele>961.0</ele><time>2026-04-18T08:41:27Z</time></trkpt><trkpt lat="43.12940645125563" lon="12.984769070723853"><ele>960.9999999999999</ele><time>2026-04-18T08:41:28Z</time></trkpt><trkpt lat="43.12943993741259" lon="12.984658081552045"><ele>961.0</ele><time>2026-04-18T08:41:29Z</time></trkpt><trkpt lat="43.12946404464929" lon="12.984552399673555"><ele>959.4999999999999</ele><time>2026-04-18T08:41:30Z</time></trkpt><trkpt lat="43.12948272982323" lon="12.984447230730336"><ele>958.0</ele><time>2026-04-18T08:41:31Z</time></trkpt><trkpt lat="43.12950125401411" lon="12.984338026083863"><ele>956.5</ele><time>2026-04-18T08:41:32Z</time></trkpt><trkpt lat="43.12952238816112" lon="12.984224524441261"><ele>955.0</ele><time>2026-04-18T08:41:33Z</time></trkpt><trkpt lat="43.12954627915709" lon="12.984111721774793"><ele>953.4999999999999</ele><time>2026-04-18T08:41:34Z</time></trkpt><trkpt lat="43.1295693509421" lon="12.984006235752723"><ele>952.0</ele><time>2026-04-18T08:41:35Z</time></trkpt><trkpt lat="43.12959451609542" lon="12.983903843752799"><ele>951.1666666666666</ele><time>2026-04-18T08:41:36Z</time></trkpt><trkpt lat="43.12962193963585" lon="12.983792637204889"><ele>950.3333333333333</ele><time>2026-04-18T08:41:37Z</time></trkpt><trkpt lat="43.129652712024914" lon="12.983688416293015"><ele>949.5</ele><time>2026-04-18T08:41:38Z</time></trkpt><trkpt lat="43.1296836975482" lon="12.9836106944755"><ele>948.6666666666667</ele><time>2026-04-18T08:41:39Z</time></trkpt><trkpt lat="43.12973428836361" lon="12.983507048948672"><ele>947.8333333333334</ele><time>2026-04-18T08:41:41Z</time></trkpt><trkpt lat="43.129780429969514" lon="12.983384254367401"><ele>947.0</ele><time>2026-04-18T08:41:43Z</time></trkpt><trkpt lat="43.12983955592511" lon="12.983270979114"><ele>946.6</ele><time>2026-04-18T08:41:45Z</time></trkpt><trkpt lat="43.12994325517412" lon="12.983165390402755"><ele>946.2</ele><time>2026-04-18T08:41:47.001Z</time></trkpt><trkpt lat="43.13000833735054" lon="12.983108104861373"><ele>945.8</ele><time>2026-04-18T08:41:48.001Z</time></trkpt><trkpt lat="43.130079428386665" lon="12.98304777549962"><ele>945.4</ele><time>2026-04-18T08:41:49.001Z</time></trkpt><trkpt lat="43.1301514712426" lon="12.982970464915903"><ele>945.0</ele><time>2026-04-18T08:41:50.001Z</time></trkpt><trkpt lat="43.13021256306341" lon="12.982904924493575"><ele>945.0</ele><time>2026-04-18T08:41:51.001Z</time></trkpt><trkpt lat="43.13026735820078" lon="12.982853761463328"><ele>945.0</ele><time>2026-04-18T08:41:52.001Z</time></trkpt><trkpt lat="43.13031955023088" lon="12.982792414470824"><ele>945.0</ele><time>2026-04-18T08:41:53.001Z</time></trkpt><trkpt lat="43.130373961840725" lon="12.982726572029703"><ele>945.0</ele><time>2026-04-18T08:41:54.001Z</time></trkpt><trkpt lat="43.13042817105056" lon="12.98264617602092"><ele>945.0</ele><time>2026-04-18T08:41:55.001Z</time></trkpt><trkpt lat="43.13047603467729" lon="12.982557864420652"><ele>945.0</ele><time>2026-04-18T08:41:56.001Z</time></trkpt><trkpt lat="43.13051618294524" lon="12.982462535830695"><ele>945.0</ele><time>2026-04-18T08:41:57.001Z</time></trkpt><trkpt lat="43.130549380739964" lon="12.982359589517122"><ele>944.1666666666666</ele><time>2026-04-18T08:41:58.001Z</time></trkpt><trkpt lat="43.130580586989694" lon="12.98225831952894"><ele>943.3333333333333</ele><time>2026-04-18T08:41:59.001Z</time></trkpt><trkpt lat="43.13061163354353" lon="12.982167198989908"><ele>942.5</ele><time>2026-04-18T08:42:00.001Z</time></trkpt><trkpt lat="43.130638140985326" lon="12.982076855357663"><ele>941.6666666666666</ele><time>2026-04-18T08:42:01.001Z</time></trkpt><trkpt lat="43.13066190849444" lon="12.981986110722323"><ele>940.8333333333333</ele><time>2026-04-18T08:42:02.001Z</time></trkpt><trkpt lat="43.130692518726654" lon="12.981841162688692"><ele>940.0</ele><time>2026-04-18T08:42:04.001Z</time></trkpt><trkpt lat="43.13072191286472" lon="12.98174303685386"><ele>938.8333333333333</ele><time>2026-04-18T08:42:06.001Z</time></trkpt><trkpt lat="43.13068936011294" lon="12.981647759834248"><ele>937.6666666666666</ele><time>2026-04-18T08:42:37.001Z</time></trkpt><trkpt lat="43.13057875103603" lon="12.981612032381873"><ele>936.5</ele><time>2026-04-18T08:42:39.001Z</time></trkpt><trkpt lat="43.130517943175924" lon="12.981584207996294"><ele>935.3333333333333</ele><time>2026-04-18T08:42:40.001Z</time></trkpt><trkpt lat="43.130458192520024" lon="12.98155191959699"><ele>934.1666666666666</ele><time>2026-04-18T08:42:41.001Z</time></trkpt><trkpt lat="43.13039873119592" lon="12.981508493102755"><ele>933.0</ele><time>2026-04-18T08:42:42.001Z</time></trkpt><trkpt lat="43.13034803679597" lon="12.981446633947234"><ele>933.0</ele><time>2026-04-18T08:42:43.001Z</time></trkpt><trkpt lat="43.130301483950106" lon="12.981377090819777"><ele>932.9999999999999</ele><time>2026-04-18T08:42:44.001Z</time></trkpt><trkpt lat="43.13025739961493" lon="12.981305941579832"><ele>933.0</ele><time>2026-04-18T08:42:45.001Z</time></trkpt><trkpt lat="43.13020966271252" lon="12.981230677742431"><ele>933.0</ele><time>2026-04-18T08:42:46.001Z</time></trkpt><trkpt lat="43.13016068540698" lon="12.981156543592748"><ele>932.9999999999999</ele><time>2026-04-18T08:42:47.001Z</time></trkpt><trkpt lat="43.13012202995643" lon="12.981076945339817"><ele>933.0</ele><time>2026-04-18T08:42:48.001Z</time></trkpt><trkpt lat="43.13008082777908" lon="12.980989802974056"><ele>933.0</ele><time>2026-04-18T08:42:49.001Z</time></trkpt><trkpt lat="43.13003412374731" lon="12.980893056745236"><ele>932.6666666666666</ele><time>2026-04-18T08:42:50.001Z</time></trkpt><trkpt lat="43.12999840658791" lon="12.980789018829258"><ele>932.3333333333333</ele><time>2026-04-18T08:42:51.001Z</time></trkpt><trkpt lat="43.12997345539831" lon="12.980682184791963"><ele>932.0</ele><time>2026-04-18T08:42:52Z</time></trkpt><trkpt lat="43.12995803899857" lon="12.980573951891317"><ele>931.6666666666666</ele><time>2026-04-18T08:42:53Z</time></trkpt><trkpt lat="43.12996580831636" lon="12.980456024249182"><ele>931.3333333333333</ele><time>2026-04-18T08:42:54Z</time></trkpt><trkpt lat="43.129984895432166" lon="12.980318418609784"><ele>931.0</ele><time>2026-04-18T08:42:55Z</time></trkpt><trkpt lat="43.130003490145555" lon="12.98015319054141"><ele>930.25</ele><time>2026-04-18T08:42:56Z</time></trkpt><trkpt lat="43.130026629858676" lon="12.97997600915782"><ele>929.5</ele><time>2026-04-18T08:42:57Z</time></trkpt><trkpt lat="43.13005020170235" lon="12.97978954766485"><ele>928.75</ele><time>2026-04-18T08:42:58Z</time></trkpt><trkpt lat="43.130081103819975" lon="12.979598532668364"><ele>928.0</ele><time>2026-04-18T08:42:59Z</time></trkpt><trkpt lat="43.13010534391663" lon="12.979400402201728"><ele>928.0</ele><time>2026-04-18T08:43:00Z</time></trkpt><trkpt lat="43.1301324861671" lon="12.97921895349367"><ele>928.0</ele><time>2026-04-18T08:43:01Z</time></trkpt><trkpt lat="43.13016406121137" lon="12.979057075143409"><ele>928.0</ele><time>2026-04-18T08:43:02Z</time></trkpt><trkpt lat="43.13018601090196" lon="12.978904006496789"><ele>928.0</ele><time>2026-04-18T08:43:03Z</time></trkpt><trkpt lat="43.13020824959662" lon="12.978751864802177"><ele>927.25</ele><time>2026-04-18T08:43:04Z</time></trkpt><trkpt lat="43.13026049055989" lon="12.978600682076285"><ele>926.5</ele><time>2026-04-18T08:43:05Z</time></trkpt><trkpt lat="43.130293205880534" lon="12.978444825179604"><ele>925.75</ele><time>2026-04-18T08:43:06Z</time></trkpt><trkpt lat="43.13031102110555" lon="12.978298224580014"><ele>925.0</ele><time>2026-04-18T08:43:07Z</time></trkpt><trkpt lat="43.13032228465706" lon="12.978158388274807"><ele>925.0</ele><time>2026-04-18T08:43:08Z</time></trkpt><trkpt lat="43.13032130094261" lon="12.978017879848414"><ele>925.0</ele><time>2026-04-18T08:43:09Z</time></trkpt><trkpt lat="43.13031410194097" lon="12.97788514409037"><ele>925.0</ele><time>2026-04-18T08:43:10Z</time></trkpt><trkpt lat="43.130292709652196" lon="12.97775418706422"><ele>925.0</ele><time>2026-04-18T08:43:11Z</time></trkpt><trkpt lat="43.13025871498161" lon="12.977629788836804"><ele>925.0</ele><time>2026-04-18T08:43:12Z</time></trkpt><trkpt lat="43.13022772520592" lon="12.977510213211508"><ele>925.25</ele><time>2026-04-18T08:43:13Z</time></trkpt><trkpt lat="43.130194823200725" lon="12.97738405237709"><ele>925.5</ele><time>2026-04-18T08:43:14Z</time></trkpt><trkpt lat="43.130172918876696" lon="12.977238045086919"><ele>925.75</ele><time>2026-04-18T08:43:15Z</time></trkpt><trkpt lat="43.1301648202159" lon="12.977071098403787"><ele>926.0</ele><time>2026-04-18T08:43:16Z</time></trkpt><trkpt lat="43.130167371856174" lon="12.976897888053495"><ele>926.0</ele><time>2026-04-18T08:43:17Z</time></trkpt><trkpt lat="43.130185605261445" lon="12.976718494977318"><ele>926.0</ele><time>2026-04-18T08:43:18Z</time></trkpt><trkpt lat="43.13019488448805" lon="12.976531662964844"><ele>926.0</ele><time>2026-04-18T08:43:19Z</time></trkpt><trkpt lat="43.13019962494267" lon="12.976330180013735"><ele>926.0</ele><time>2026-04-18T08:43:20Z</time></trkpt><trkpt lat="43.130204855373194" lon="12.976134012248254"><ele>925.75</ele><time>2026-04-18T08:43:21Z</time></trkpt><trkpt lat="43.1302124368749" lon="12.975951583154389"><ele>925.5</ele><time>2026-04-18T08:43:22Z</time></trkpt><trkpt lat="43.13020783770769" lon="12.975781949137042"><ele>925.25</ele><time>2026-04-18T08:43:23Z</time></trkpt><trkpt lat="43.13020555425129" lon="12.975623924287861"><ele>925.0</ele><time>2026-04-18T08:43:24Z</time></trkpt><trkpt lat="43.13020507263639" lon="12.975472227189176"><ele>925.0</ele><time>2026-04-18T08:43:25Z</time></trkpt><trkpt lat="43.130229005227775" lon="12.975331476032808"><ele>925.0</ele><time>2026-04-18T08:43:26Z</time></trkpt><trkpt lat="43.13024815102441" lon="12.975203842903113"><ele>925.0</ele><time>2026-04-18T08:43:27Z</time></trkpt><trkpt lat="43.130276353949874" lon="12.975083298876815"><ele>925.0</ele><time>2026-04-18T08:43:28Z</time></trkpt><trkpt lat="43.13030354742536" lon="12.974967089044366"><ele>925.0</ele><time>2026-04-18T08:43:29Z</time></trkpt><trkpt lat="43.13033108525881" lon="12.974860377805744"><ele>925.8333333333333</ele><time>2026-04-18T08:43:30Z</time></trkpt><trkpt lat="43.13039194591919" lon="12.97479609182102"><ele>926.6666666666666</ele><time>2026-04-18T08:43:31Z</time></trkpt><trkpt lat="43.13045759938275" lon="12.974749797763556"><ele>927.5</ele><time>2026-04-18T08:43:32Z</time></trkpt><trkpt lat="43.130537658447174" lon="12.974739056433025"><ele>928.3333333333333</ele><time>2026-04-18T08:43:33Z</time></trkpt><trkpt lat="43.13063323324705" lon="12.974749086682852"><ele>929.1666666666666</ele><time>2026-04-18T08:43:34Z</time></trkpt><trkpt lat="43.13072876664792" lon="12.97478764797219"><ele>930.0</ele><time>2026-04-18T08:43:35Z</time></trkpt><trkpt lat="43.13082548554159" lon="12.974821187382682"><ele>928.0</ele><time>2026-04-18T08:43:36Z</time></trkpt><trkpt lat="43.13092471871506" lon="12.974850480781654"><ele>926.0</ele><time>2026-04-18T08:43:37Z</time></trkpt><trkpt lat="43.13101872606328" lon="12.974873549020428"><ele>924.0</ele><time>2026-04-18T08:43:38Z</time></trkpt><trkpt lat="43.131106930667244" lon="12.974898442579217"><ele>922.0</ele><time>2026-04-18T08:43:39Z</time></trkpt><trkpt lat="43.13119495450326" lon="12.974917463030646"><ele>920.0</ele><time>2026-04-18T08:43:40Z</time></trkpt><trkpt lat="43.13128285727352" lon="12.974901873878132"><ele>920.0</ele><time>2026-04-18T08:43:41Z</time></trkpt><trkpt lat="43.13137265963493" lon="12.974872194386851"><ele>920.0</ele><time>2026-04-18T08:43:42Z</time></trkpt><trkpt lat="43.1314666797793" lon="12.974814915438154"><ele>920.0</ele><time>2026-04-18T08:43:43Z</time></trkpt><trkpt lat="43.13155455062317" lon="12.974725159910108"><ele>920.0</ele><time>2026-04-18T08:43:44Z</time></trkpt><trkpt lat="43.13164123783432" lon="12.974646845857162"><ele>920.0</ele><time>2026-04-18T08:43:45Z</time></trkpt><trkpt lat="43.131717295981986" lon="12.974584582844154"><ele>920.0</ele><time>2026-04-18T08:43:46Z</time></trkpt><trkpt lat="43.13177772028882" lon="12.97450391082742"><ele>920.0</ele><time>2026-04-18T08:43:47Z</time></trkpt><trkpt lat="43.131831999854285" lon="12.974399927216805"><ele>920.0</ele><time>2026-04-18T08:43:48Z</time></trkpt><trkpt lat="43.13186656241546" lon="12.97427105122571"><ele>920.0</ele><time>2026-04-18T08:43:49Z</time></trkpt><trkpt lat="43.13188577363152" lon="12.974144146092792"><ele>920.0</ele><time>2026-04-18T08:43:50Z</time></trkpt><trkpt lat="43.13189272276249" lon="12.97400619060175"><ele>920.0</ele><time>2026-04-18T08:43:51Z</time></trkpt><trkpt lat="43.131891554204465" lon="12.973848644638343"><ele>920.0</ele><time>2026-04-18T08:43:52Z</time></trkpt><trkpt lat="43.13187288293504" lon="12.973679708790026"><ele>920.0</ele><time>2026-04-18T08:43:53Z</time></trkpt><trkpt lat="43.131842939264054" lon="12.973511851549855"><ele>920.0</ele><time>2026-04-18T08:43:54Z</time></trkpt><trkpt lat="43.13182880086984" lon="12.973346429325222"><ele>919.0</ele><time>2026-04-18T08:43:55Z</time></trkpt><trkpt lat="43.13181647812928" lon="12.973177684087572"><ele>918.0</ele><time>2026-04-18T08:43:56Z</time></trkpt><trkpt lat="43.131801641559036" lon="12.973010733151781"><ele>917.0</ele><time>2026-04-18T08:43:57Z</time></trkpt><trkpt lat="43.13178124985464" lon="12.972851063744573"><ele>916.0</ele><time>2026-04-18T08:43:58Z</time></trkpt><trkpt lat="43.13177137610411" lon="12.972698973643428"><ele>916.0</ele><time>2026-04-18T08:43:59Z</time></trkpt><trkpt lat="43.13176492218649" lon="12.972551380398214"><ele>915.9999999999999</ele><time>2026-04-18T08:44:00Z</time></trkpt><trkpt lat="43.13176409221227" lon="12.972410612933421"><ele>915.9999999999999</ele><time>2026-04-18T08:44:01Z</time></trkpt><trkpt lat="43.131762185313605" lon="12.972273845163338"><ele>916.0</ele><time>2026-04-18T08:44:02Z</time></trkpt><trkpt lat="43.13177363931761" lon="12.972147116895108"><ele>916.0</ele><time>2026-04-18T08:44:03Z</time></trkpt><trkpt lat="43.13178658567203" lon="12.97201853237411"><ele>916.4</ele><time>2026-04-18T08:44:04Z</time></trkpt><trkpt lat="43.131812600390525" lon="12.971892862811362"><ele>916.8</ele><time>2026-04-18T08:44:05Z</time></trkpt><trkpt lat="43.13186563458217" lon="12.971779099023683"><ele>917.1999999999999</ele><time>2026-04-18T08:44:06Z</time></trkpt><trkpt lat="43.13193234647454" lon="12.971663544188907"><ele>917.5999999999999</ele><time>2026-04-18T08:44:07Z</time></trkpt><trkpt lat="43.13200960019214" lon="12.971554198410978"><ele>918.0</ele><time>2026-04-18T08:44:08Z</time></trkpt><trkpt lat="43.132084004560674" lon="12.971454094898807"><ele>918.0</ele><time>2026-04-18T08:44:09Z</time></trkpt><trkpt lat="43.13215271468224" lon="12.971355608563421"><ele>918.0</ele><time>2026-04-18T08:44:10Z</time></trkpt><trkpt lat="43.13221382787856" lon="12.971257084132226"><ele>918.0</ele><time>2026-04-18T08:44:11Z</time></trkpt><trkpt lat="43.13226698840501" lon="12.971158448754744"><ele>918.0</ele><time>2026-04-18T08:44:12Z</time></trkpt><trkpt lat="43.13230273452884" lon="12.971048437699846"><ele>918.0</ele><time>2026-04-18T08:44:13Z</time></trkpt><trkpt lat="43.132328291115705" lon="12.97093363321058"><ele>917.8</ele><time>2026-04-18T08:44:14Z</time></trkpt><trkpt lat="43.132333815416416" lon="12.97081780558781"><ele>917.5999999999999</ele><time>2026-04-18T08:44:15Z</time></trkpt><trkpt lat="43.132317145277455" lon="12.970699275874228"><ele>917.4000000000001</ele><time>2026-04-18T08:44:16Z</time></trkpt><trkpt lat="43.13228468407334" lon="12.970583971538527"><ele>917.2</ele><time>2026-04-18T08:44:17Z</time></trkpt><trkpt lat="43.132252728067535" lon="12.970462415949545"><ele>917.0</ele><time>2026-04-18T08:44:18Z</time></trkpt><trkpt lat="43.132223864065395" lon="12.970338940110235"><ele>917.0000000000001</ele><time>2026-04-18T08:44:19Z</time></trkpt><trkpt lat="43.13219525100379" lon="12.970216647766579"><ele>917.0</ele><time>2026-04-18T08:44:20Z</time></trkpt><trkpt lat="43.13216050396038" lon="12.970100046364355"><ele>917.0</ele><time>2026-04-18T08:44:21Z</time></trkpt><trkpt lat="43.13212703790129" lon="12.96998537097264"><ele>917.0</ele><time>2026-04-18T08:44:22Z</time></trkpt><trkpt lat="43.132089542842145" lon="12.969881007501531"><ele>917.0000000000001</ele><time>2026-04-18T08:44:23Z</time></trkpt><trkpt lat="43.13205063960463" lon="12.969776918861882"><ele>917.0</ele><time>2026-04-18T08:44:24Z</time></trkpt><trkpt lat="43.132012266201585" lon="12.969659309065607"><ele>915.6666666666667</ele><time>2026-04-18T08:44:25Z</time></trkpt><trkpt lat="43.13197280219074" lon="12.96953992642055"><ele>914.3333333333334</ele><time>2026-04-18T08:44:26Z</time></trkpt><trkpt lat="43.131935142130516" lon="12.969425343848142"><ele>913.0</ele><time>2026-04-18T08:44:27Z</time></trkpt><trkpt lat="43.13190829672502" lon="12.96931000911795"><ele>911.6666666666667</ele><time>2026-04-18T08:44:28Z</time></trkpt><trkpt lat="43.13187558388162" lon="12.969207432876297"><ele>910.3333333333334</ele><time>2026-04-18T08:44:29Z</time></trkpt><trkpt lat="43.13185000832769" lon="12.96912473133041"><ele>909.0</ele><time>2026-04-18T08:44:30Z</time></trkpt><trkpt lat="43.13180793322902" lon="12.969005810385859"><ele>906.5</ele><time>2026-04-18T08:44:32Z</time></trkpt><trkpt lat="43.13177751581459" lon="12.968904363372966"><ele>904.0</ele><time>2026-04-18T08:44:34Z</time></trkpt><trkpt lat="43.131773753493206" lon="12.968765440609925"><ele>901.5</ele><time>2026-04-18T08:44:36Z</time></trkpt><trkpt lat="43.131797621199915" lon="12.968658706306565"><ele>899.0</ele><time>2026-04-18T08:44:37Z</time></trkpt><trkpt lat="43.13177946371912" lon="12.968551192043392"><ele>896.5</ele><time>2026-04-18T08:44:38Z</time></trkpt><trkpt lat="43.13173151652997" lon="12.968445899479452"><ele>894.0</ele><time>2026-04-18T08:44:39Z</time></trkpt><trkpt lat="43.131683083887324" lon="12.968319770803689"><ele>891.0</ele><time>2026-04-18T08:44:40Z</time></trkpt><trkpt lat="43.131634745825686" lon="12.968181876842229"><ele>888.0000000000001</ele><time>2026-04-18T08:44:41Z</time></trkpt><trkpt lat="43.13158005689766" lon="12.968065880232514"><ele>885.0000000000001</ele><time>2026-04-18T08:44:42Z</time></trkpt><trkpt lat="43.13153167957441" lon="12.96796097145781"><ele>882.0</ele><time>2026-04-18T08:44:43Z</time></trkpt><trkpt lat="43.131466933388936" lon="12.967861181309251"><ele>879.0</ele><time>2026-04-18T08:44:44Z</time></trkpt><trkpt lat="43.13138116111365" lon="12.967776313541869"><ele>882.5</ele><time>2026-04-18T08:44:45Z</time></trkpt><trkpt lat="43.13127964421441" lon="12.967693456233421"><ele>886.0</ele><time>2026-04-18T08:44:46Z</time></trkpt><trkpt lat="43.13116093037795" lon="12.967638632888754"><ele>889.5</ele><time>2026-04-18T08:44:47Z</time></trkpt><trkpt lat="43.13109808334432" lon="12.967386255632492"><ele>893.0</ele><time>2026-04-18T08:44:48Z</time></trkpt><trkpt lat="43.13092854425125" lon="12.967294080878926"><ele>893.0</ele><time>2026-04-18T08:44:49Z</time></trkpt><trkpt lat="43.130729013790535" lon="12.967218862795145"><ele>893.0</ele><time>2026-04-18T08:44:50Z</time></trkpt><trkpt lat="43.13053157582208" lon="12.967152272102098"><ele>893.0</ele><time>2026-04-18T08:44:51Z</time></trkpt><trkpt lat="43.13037602649179" lon="12.96709537447571"><ele>898.0</ele><time>2026-04-18T08:44:52Z</time></trkpt><trkpt lat="43.13024759439792" lon="12.967026491941228"><ele>903.0</ele><time>2026-04-18T08:44:53Z</time></trkpt><trkpt lat="43.130121806740114" lon="12.966961129078356"><ele>908.0</ele><time>2026-04-18T08:44:54Z</time></trkpt><trkpt lat="43.130017356700634" lon="12.966907498444382"><ele>913.0</ele><time>2026-04-18T08:44:55Z</time></trkpt><trkpt lat="43.12991719111867" lon="12.96685189850701"><ele>912.75</ele><time>2026-04-18T08:44:56Z</time></trkpt><trkpt lat="43.129816498696485" lon="12.966787249089792"><ele>912.5</ele><time>2026-04-18T08:44:57Z</time></trkpt><trkpt lat="43.12969820308739" lon="12.966731372669251"><ele>912.25</ele><time>2026-04-18T08:44:58Z</time></trkpt><trkpt lat="43.129567029336975" lon="12.966701587159411"><ele>912.0</ele><time>2026-04-18T08:44:59Z</time></trkpt><trkpt lat="43.12942980026465" lon="12.966644317554719"><ele>911.25</ele><time>2026-04-18T08:45:00Z</time></trkpt><trkpt lat="43.129307209562946" lon="12.966620502498802"><ele>910.5</ele><time>2026-04-18T08:45:01Z</time></trkpt><trkpt lat="43.12916538159865" lon="12.966608808073461"><ele>909.75</ele><time>2026-04-18T08:45:02Z</time></trkpt><trkpt lat="43.12902218506518" lon="12.966619078415496"><ele>909.0</ele><time>2026-04-18T08:45:03Z</time></trkpt><trkpt lat="43.128887310900176" lon="12.966659131139636"><ele>908.5</ele><time>2026-04-18T08:45:04Z</time></trkpt><trkpt lat="43.12878562131341" lon="12.966732368813442"><ele>908.0</ele><time>2026-04-18T08:45:05Z</time></trkpt><trkpt lat="43.12869552860628" lon="12.96685720328632"><ele>907.5</ele><time>2026-04-18T08:45:06Z</time></trkpt><trkpt lat="43.12862138846357" lon="12.9669904980711"><ele>907.0</ele><time>2026-04-18T08:45:07Z</time></trkpt><trkpt lat="43.12855628140842" lon="12.967121559508522"><ele>907.0</ele><time>2026-04-18T08:45:08Z</time></trkpt><trkpt lat="43.128486573675104" lon="12.967266097512375"><ele>907.0</ele><time>2026-04-18T08:45:09Z</time></trkpt><trkpt lat="43.128417765263286" lon="12.967401403408049"><ele>907.0</ele><time>2026-04-18T08:45:10Z</time></trkpt><trkpt lat="43.128354561037284" lon="12.967517291390012"><ele>907.0</ele><time>2026-04-18T08:45:11Z</time></trkpt><trkpt lat="43.128286079960596" lon="12.96762947683252"><ele>906.75</ele><time>2026-04-18T08:45:12Z</time></trkpt><trkpt lat="43.12820835041675" lon="12.96773883098438"><ele>906.5</ele><time>2026-04-18T08:45:13Z</time></trkpt><trkpt lat="43.12812101620795" lon="12.967844748613842"><ele>906.25</ele><time>2026-04-18T08:45:14Z</time></trkpt><trkpt lat="43.12801557562344" lon="12.967943990371717"><ele>906.0</ele><time>2026-04-18T08:45:15Z</time></trkpt><trkpt lat="43.127908918176914" lon="12.968045787237973"><ele>906.0</ele><time>2026-04-18T08:45:16Z</time></trkpt><trkpt lat="43.12778844169375" lon="12.968110666199273"><ele>906.0</ele><time>2026-04-18T08:45:17Z</time></trkpt><trkpt lat="43.12764917926552" lon="12.968156871133028"><ele>906.0</ele><time>2026-04-18T08:45:18Z</time></trkpt><trkpt lat="43.12751053505748" lon="12.96819491170263"><ele>906.0</ele><time>2026-04-18T08:45:19Z</time></trkpt><trkpt lat="43.127389980464756" lon="12.96822071280765"><ele>905.8</ele><time>2026-04-18T08:45:20Z</time></trkpt><trkpt lat="43.127286734205136" lon="12.968238757018838"><ele>905.5999999999999</ele><time>2026-04-18T08:45:21Z</time></trkpt><trkpt lat="43.12718019364793" lon="12.968254102471551"><ele>905.4</ele><time>2026-04-18T08:45:22Z</time></trkpt><trkpt lat="43.12707533954648" lon="12.968287374124845"><ele>905.2</ele><time>2026-04-18T08:45:23Z</time></trkpt><trkpt lat="43.12696237285333" lon="12.96830058587097"><ele>905.0</ele><time>2026-04-18T08:45:24Z</time></trkpt><trkpt lat="43.12685578231906" lon="12.968314572419816"><ele>905.0</ele><time>2026-04-18T08:45:25Z</time></trkpt><trkpt lat="43.12676494003778" lon="12.968331395404885"><ele>905.0</ele><time>2026-04-18T08:45:26Z</time></trkpt><trkpt lat="43.12664652275127" lon="12.968371197204997"><ele>905.0</ele><time>2026-04-18T08:45:27Z</time></trkpt><trkpt lat="43.126529120817025" lon="12.968435053851834"><ele>905.0</ele><time>2026-04-18T08:45:28Z</time></trkpt><trkpt lat="43.12641088218961" lon="12.968503578487033"><ele>904.0</ele><time>2026-04-18T08:45:29Z</time></trkpt><trkpt lat="43.12628903303277" lon="12.96858128087238"><ele>903.0</ele><time>2026-04-18T08:45:30Z</time></trkpt><trkpt lat="43.1261716296038" lon="12.9686719816605"><ele>902.0</ele><time>2026-04-18T08:45:31Z</time></trkpt><trkpt lat="43.12605375652264" lon="12.968739629156007"><ele>901.0</ele><time>2026-04-18T08:45:32Z</time></trkpt><trkpt lat="43.125946467192406" lon="12.968812413662917"><ele>901.0</ele><time>2026-04-18T08:45:33Z</time></trkpt><trkpt lat="43.125833587677" lon="12.968878544495103"><ele>901.0</ele><time>2026-04-18T08:45:34Z</time></trkpt><trkpt lat="43.125730197548734" lon="12.968956630934805"><ele>901.0</ele><time>2026-04-18T08:45:35Z</time></trkpt><trkpt lat="43.125631017002405" lon="12.969028848374002"><ele>901.0</ele><time>2026-04-18T08:45:36Z</time></trkpt><trkpt lat="43.12553188485943" lon="12.969094665982162"><ele>900.25</ele><time>2026-04-18T08:45:37Z</time></trkpt><trkpt lat="43.12542499449923" lon="12.969144008264479"><ele>899.5</ele><time>2026-04-18T08:45:38Z</time></trkpt><trkpt lat="43.12532365670817" lon="12.969221866465526"><ele>898.75</ele><time>2026-04-18T08:45:39Z</time></trkpt><trkpt lat="43.1252191168691" lon="12.969304204412875"><ele>898.0</ele><time>2026-04-18T08:45:40Z</time></trkpt><trkpt lat="43.125079855531254" lon="12.969417409066127"><ele>898.0</ele><time>2026-04-18T08:45:41Z</time></trkpt><trkpt lat="43.12495472691056" lon="12.969537510768433"><ele>898.0</ele><time>2026-04-18T08:45:42Z</time></trkpt><trkpt lat="43.124805262449485" lon="12.969623542312561"><ele>898.0</ele><time>2026-04-18T08:45:43Z</time></trkpt><trkpt lat="43.12466400649396" lon="12.969714421369657"><ele>897.0</ele><time>2026-04-18T08:45:44Z</time></trkpt><trkpt lat="43.12451277518835" lon="12.969787858765834"><ele>896.0</ele><time>2026-04-18T08:45:45Z</time></trkpt><trkpt lat="43.12434388991478" lon="12.969850407165637"><ele>895.0</ele><time>2026-04-18T08:45:46Z</time></trkpt><trkpt lat="43.124189751840106" lon="12.969876590322528"><ele>895.0</ele><time>2026-04-18T08:45:47Z</time></trkpt><trkpt lat="43.12403486665312" lon="12.969886590490926"><ele>895.0</ele><time>2026-04-18T08:45:48Z</time></trkpt><trkpt lat="43.1238838937575" lon="12.969898978567103"><ele>895.0</ele><time>2026-04-18T08:45:49Z</time></trkpt><trkpt lat="43.12374915173451" lon="12.969935815234138"><ele>895.0</ele><time>2026-04-18T08:45:50Z</time></trkpt><trkpt lat="43.12359666611711" lon="12.969955619024958"><ele>895.0</ele><time>2026-04-18T08:45:51Z</time></trkpt><trkpt lat="43.12343230276144" lon="12.970003085026981"><ele>895.0</ele><time>2026-04-18T08:45:52Z</time></trkpt><trkpt lat="43.123273528114936" lon="12.970064839477882"><ele>895.0</ele><time>2026-04-18T08:45:53Z</time></trkpt><trkpt lat="43.12310407162902" lon="12.970133072132098"><ele>894.3333333333333</ele><time>2026-04-18T08:45:54Z</time></trkpt><trkpt lat="43.1229362958312" lon="12.970187896360816"><ele>893.6666666666667</ele><time>2026-04-18T08:45:55Z</time></trkpt><trkpt lat="43.12276945966404" lon="12.970279363076791"><ele>893.0</ele><time>2026-04-18T08:45:56Z</time></trkpt><trkpt lat="43.1226313333466" lon="12.970386606741778"><ele>893.0</ele><time>2026-04-18T08:45:57Z</time></trkpt><trkpt lat="43.122500497852734" lon="12.97050555920469"><ele>893.0</ele><time>2026-04-18T08:45:58Z</time></trkpt><trkpt lat="43.12237210116892" lon="12.970617141501016"><ele>893.0</ele><time>2026-04-18T08:45:59Z</time></trkpt><trkpt lat="43.122246132757375" lon="12.970728958761393"><ele>892.6666666666667</ele><time>2026-04-18T08:46:00Z</time></trkpt><trkpt lat="43.122118951681365" lon="12.970850326742777"><ele>892.3333333333333</ele><time>2026-04-18T08:46:01Z</time></trkpt><trkpt lat="43.12198750705331" lon="12.970965493584751"><ele>892.0</ele><time>2026-04-18T08:46:02Z</time></trkpt><trkpt lat="43.12184035007154" lon="12.971073619298346"><ele>892.6666666666666</ele><time>2026-04-18T08:46:03Z</time></trkpt><trkpt lat="43.121689569919035" lon="12.971177330711797"><ele>893.3333333333333</ele><time>2026-04-18T08:46:04Z</time></trkpt><trkpt lat="43.121541621208216" lon="12.97128188463755"><ele>894.0</ele><time>2026-04-18T08:46:05Z</time></trkpt><trkpt lat="43.12137421632947" lon="12.971352280761371"><ele>894.0</ele><time>2026-04-18T08:46:06Z</time></trkpt><trkpt lat="43.12120788159197" lon="12.971429210384356"><ele>894.0</ele><time>2026-04-18T08:46:07Z</time></trkpt><trkpt lat="43.12105198737713" lon="12.971500527430981"><ele>894.0</ele><time>2026-04-18T08:46:08Z</time></trkpt><trkpt lat="43.12090165786057" lon="12.971574281010648"><ele>894.0</ele><time>2026-04-18T08:46:09Z</time></trkpt><trkpt lat="43.12076766924181" lon="12.971666460985242"><ele>894.0</ele><time>2026-04-18T08:46:10Z</time></trkpt><trkpt lat="43.120626303494056" lon="12.971744768877892"><ele>894.0</ele><time>2026-04-18T08:46:11Z</time></trkpt><trkpt lat="43.12049648101496" lon="12.971797548186935"><ele>894.0</ele><time>2026-04-18T08:46:12Z</time></trkpt><trkpt lat="43.12038990820377" lon="12.971889736143694"><ele>893.0</ele><time>2026-04-18T08:46:13Z</time></trkpt><trkpt lat="43.12029661292689" lon="12.97198343986625"><ele>892.0</ele><time>2026-04-18T08:46:14Z</time></trkpt><trkpt lat="43.12020641021553" lon="12.972094778979265"><ele>891.0</ele><time>2026-04-18T08:46:15Z</time></trkpt><trkpt lat="43.120108947882045" lon="12.97218077537822"><ele>890.0</ele><time>2026-04-18T08:46:16Z</time></trkpt><trkpt lat="43.12003955290512" lon="12.972287933919178"><ele>890.0</ele><time>2026-04-18T08:46:17Z</time></trkpt><trkpt lat="43.11994545654482" lon="12.97239513821734"><ele>890.0</ele><time>2026-04-18T08:46:18Z</time></trkpt><trkpt lat="43.11985512552212" lon="12.972465349155954"><ele>890.0</ele><time>2026-04-18T08:46:19Z</time></trkpt><trkpt lat="43.11976596761766" lon="12.972556316451655"><ele>890.0</ele><time>2026-04-18T08:46:20Z</time></trkpt><trkpt lat="43.11967719975416" lon="12.97263374935511"><ele>890.0</ele><time>2026-04-18T08:46:21Z</time></trkpt><trkpt lat="43.1195815949366" lon="12.972701081766067"><ele>892.8</ele><time>2026-04-18T08:46:22Z</time></trkpt><trkpt lat="43.11948538383868" lon="12.972750533427558"><ele>895.6</ele><time>2026-04-18T08:46:23Z</time></trkpt><trkpt lat="43.11940059362387" lon="12.972794043777858"><ele>898.4000000000001</ele><time>2026-04-18T08:46:24Z</time></trkpt><trkpt lat="43.11928763155711" lon="12.972843518953646"><ele>901.2</ele><time>2026-04-18T08:46:26Z</time></trkpt><trkpt lat="43.11921566895843" lon="12.972870788580147"><ele>904.0</ele><time>2026-04-18T08:46:27Z</time></trkpt><trkpt lat="43.1191404036701" lon="12.972897356350517"><ele>903.9999999999999</ele><time>2026-04-18T08:46:28Z</time></trkpt><trkpt lat="43.11907712172488" lon="12.972915952514924"><ele>904.0</ele><time>2026-04-18T08:46:29Z</time></trkpt><trkpt lat="43.11901608962868" lon="12.972941606060548"><ele>904.0</ele><time>2026-04-18T08:46:30Z</time></trkpt><trkpt lat="43.11893063433552" lon="12.972963719988075"><ele>904.0</ele><time>2026-04-18T08:46:31Z</time></trkpt><trkpt lat="43.118843062403215" lon="12.972954038342422"><ele>903.9999999999999</ele><time>2026-04-18T08:46:32Z</time></trkpt><trkpt lat="43.11875675958277" lon="12.972951669231943"><ele>904.0</ele><time>2026-04-18T08:46:33Z</time></trkpt><trkpt lat="43.1186704307145" lon="12.97293813586359"><ele>907.2</ele><time>2026-04-18T08:46:34Z</time></trkpt><trkpt lat="43.118611464713446" lon="12.97290704317264"><ele>910.4000000000001</ele><time>2026-04-18T08:46:35Z</time></trkpt><trkpt lat="43.11852747124248" lon="12.972861091437968"><ele>913.6</ele><time>2026-04-18T08:46:37Z</time></trkpt><trkpt lat="43.11847089817981" lon="12.973041954249323"><ele>916.8</ele><time>2026-04-18T08:46:39Z</time></trkpt><trkpt lat="43.11838066555184" lon="12.972977214526571"><ele>920.0</ele><time>2026-04-18T08:46:42Z</time></trkpt><trkpt lat="43.11831164294634" lon="12.972896072795027"><ele>920.0</ele><time>2026-04-18T08:46:43Z</time></trkpt><trkpt lat="43.11825545912193" lon="12.972839729492666"><ele>920.0</ele><time>2026-04-18T08:46:44Z</time></trkpt><trkpt lat="43.11815331990349" lon="12.972773191253385"><ele>920.0</ele><time>2026-04-18T08:46:46Z</time></trkpt><trkpt lat="43.118082209884044" lon="12.972785913095922"><ele>920.0</ele><time>2026-04-18T08:46:48Z</time></trkpt><trkpt lat="43.118025760471674" lon="12.972746242801556"><ele>920.0</ele><time>2026-04-18T08:46:49Z</time></trkpt><trkpt lat="43.11807377489707" lon="12.972428613686688"><ele>918.6666666666667</ele><time>2026-04-18T08:46:50Z</time></trkpt><trkpt lat="43.11799057897565" lon="12.972339687982837"><ele>917.3333333333334</ele><time>2026-04-18T08:46:51Z</time></trkpt><trkpt lat="43.11792578553779" lon="12.972269263725227"><ele>916.0</ele><time>2026-04-18T08:46:52Z</time></trkpt><trkpt lat="43.11785620400346" lon="12.972192623539941"><ele>914.6666666666667</ele><time>2026-04-18T08:46:54Z</time></trkpt><trkpt lat="43.11780180961323" lon="12.972132711173302"><ele>913.3333333333334</ele><time>2026-04-18T08:46:55Z</time></trkpt><trkpt lat="43.117724923353585" lon="12.972048025291041"><ele>912.0</ele><time>2026-04-18T08:46:57Z</time></trkpt><trkpt lat="43.11765799056947" lon="12.971975223826282"><ele>912.0</ele><time>2026-04-18T08:47:00Z</time></trkpt><trkpt lat="43.11758363212968" lon="12.971977837533744"><ele>912.0</ele><time>2026-04-18T08:47:01Z</time></trkpt><trkpt lat="43.11753661460528" lon="12.97191150296614"><ele>912.0</ele><time>2026-04-18T08:47:02Z</time></trkpt><trkpt lat="43.117474525377304" lon="12.97187268822659"><ele>912.0</ele><time>2026-04-18T08:47:03Z</time></trkpt><trkpt lat="43.11741400227958" lon="12.971837948852487"><ele>912.0</ele><time>2026-04-18T08:47:04Z</time></trkpt><trkpt lat="43.117310749227045" lon="12.971796670091573"><ele>912.0</ele><time>2026-04-18T08:47:06Z</time></trkpt><trkpt lat="43.11717899230682" lon="12.971771440039207"><ele>916.5</ele><time>2026-04-18T08:47:08Z</time></trkpt><trkpt lat="43.117116862902385" lon="12.97175490932618"><ele>921.0</ele><time>2026-04-18T08:47:09Z</time></trkpt><trkpt lat="43.11667603122083" lon="12.972282230516447"><ele>921.0</ele><time>2026-04-18T08:47:11Z</time></trkpt><trkpt lat="43.116598434986244" lon="12.972296725281709"><ele>920.9999999999999</ele><time>2026-04-18T08:47:12Z</time></trkpt><trkpt lat="43.11647467919123" lon="12.97230840251997"><ele>920.9999999999999</ele><time>2026-04-18T08:47:13Z</time></trkpt><trkpt lat="43.11635504935098" lon="12.9723346068159"><ele>921.0</ele><time>2026-04-18T08:47:14Z</time></trkpt><trkpt lat="43.11624537407515" lon="12.972358056163003"><ele>921.0</ele><time>2026-04-18T08:47:15Z</time></trkpt><trkpt lat="43.11617036823765" lon="12.972353597311878"><ele>921.5</ele><time>2026-04-18T08:47:16Z</time></trkpt><trkpt lat="43.116043510709105" lon="12.972423114970528"><ele>922.0</ele><time>2026-04-18T08:47:18Z</time></trkpt><trkpt lat="43.11599061828763" lon="12.9725185567879"><ele>922.5</ele><time>2026-04-18T08:47:20Z</time></trkpt><trkpt lat="43.1159119133478" lon="12.972669223988476"><ele>923.0</ele><time>2026-04-18T08:47:22Z</time></trkpt><trkpt lat="43.11587505433351" lon="12.972784946852755"><ele>923.5</ele><time>2026-04-18T08:47:23Z</time></trkpt><trkpt lat="43.11586428679217" lon="12.972925508779552"><ele>924.0</ele><time>2026-04-18T08:47:26Z</time></trkpt><trkpt lat="43.115741046801034" lon="12.973129156110902"><ele>924.5</ele><time>2026-04-18T08:47:27Z</time></trkpt><trkpt lat="43.115784385517635" lon="12.973243391009923"><ele>925.0</ele><time>2026-04-18T08:47:29Z</time></trkpt><trkpt lat="43.115829411980044" lon="12.973367036317185"><ele>924.1666666666666</ele><time>2026-04-18T08:47:30Z</time></trkpt><trkpt lat="43.11588514047745" lon="12.973527467895225"><ele>923.3333333333333</ele><time>2026-04-18T08:47:32Z</time></trkpt><trkpt lat="43.1159202202021" lon="12.973624944101486"><ele>922.5</ele><time>2026-04-18T08:47:33Z</time></trkpt><trkpt lat="43.11595660762453" lon="12.973724132790393"><ele>921.6666666666667</ele><time>2026-04-18T08:47:34Z</time></trkpt><trkpt lat="43.115985868769094" lon="12.973803501415809"><ele>920.8333333333334</ele><time>2026-04-18T08:47:35Z</time></trkpt><trkpt lat="43.11602327380784" lon="12.9738995393082"><ele>920.0</ele><time>2026-04-18T08:47:36Z</time></trkpt><trkpt lat="43.11606371236172" lon="12.974000126848889"><ele>920.0</ele><time>2026-04-18T08:47:37Z</time></trkpt><trkpt lat="43.11611153278676" lon="12.974116493573872"><ele>920.0</ele><time>2026-04-18T08:47:38Z</time></trkpt><trkpt lat="43.1161631194601" lon="12.974244901562576"><ele>920.0</ele><time>2026-04-18T08:47:39Z</time></trkpt><trkpt lat="43.11621808697465" lon="12.97438711980894"><ele>920.0</ele><time>2026-04-18T08:47:40Z</time></trkpt><trkpt lat="43.11628998795336" lon="12.97452607299632"><ele>920.0</ele><time>2026-04-18T08:47:41Z</time></trkpt><trkpt lat="43.11634208201416" lon="12.974674010108243"><ele>920.0</ele><time>2026-04-18T08:47:42Z</time></trkpt><trkpt lat="43.1163982702976" lon="12.97480914920229"><ele>920.0</ele><time>2026-04-18T08:47:43Z</time></trkpt><trkpt lat="43.116460364059165" lon="12.974943754674829"><ele>920.0</ele><time>2026-04-18T08:47:44Z</time></trkpt><trkpt lat="43.116520517424995" lon="12.975112960194432"><ele>920.0</ele><time>2026-04-18T08:47:45Z</time></trkpt><trkpt lat="43.11658544402251" lon="12.975261830595066"><ele>920.75</ele><time>2026-04-18T08:47:46Z</time></trkpt><trkpt lat="43.116639636316776" lon="12.975406254665968"><ele>921.5</ele><time>2026-04-18T08:47:47Z</time></trkpt><trkpt lat="43.11668673576765" lon="12.975541655537977"><ele>922.25</ele><time>2026-04-18T08:47:48Z</time></trkpt><trkpt lat="43.116727003362286" lon="12.975701549490399"><ele>923.0</ele><time>2026-04-18T08:47:49Z</time></trkpt><trkpt lat="43.11677204893952" lon="12.975868775195359"><ele>923.5</ele><time>2026-04-18T08:47:50Z</time></trkpt><trkpt lat="43.11682029454466" lon="12.976024366135071"><ele>924.0</ele><time>2026-04-18T08:47:51Z</time></trkpt><trkpt lat="43.11686065282304" lon="12.976201865963244"><ele>924.5</ele><time>2026-04-18T08:47:52Z</time></trkpt><trkpt lat="43.1168897769775" lon="12.976368071022637"><ele>925.0</ele><time>2026-04-18T08:47:53Z</time></trkpt><trkpt lat="43.11692491981014" lon="12.976511164079442"><ele>925.0</ele><time>2026-04-18T08:47:54Z</time></trkpt><trkpt lat="43.116962034337824" lon="12.976657337449966"><ele>925.0</ele><time>2026-04-18T08:47:55Z</time></trkpt><trkpt lat="43.11699746463995" lon="12.976796437951135"><ele>925.0</ele><time>2026-04-18T08:47:56Z</time></trkpt><trkpt lat="43.11704318418158" lon="12.976919299298231"><ele>925.0</ele><time>2026-04-18T08:47:57Z</time></trkpt><trkpt lat="43.11705684419511" lon="12.977039844139219"><ele>925.0</ele><time>2026-04-18T08:47:58Z</time></trkpt><trkpt lat="43.11709094278433" lon="12.977182857763072"><ele>925.2</ele><time>2026-04-18T08:47:59Z</time></trkpt><trkpt lat="43.11712738427101" lon="12.97733569776825"><ele>925.4</ele><time>2026-04-18T08:48:00Z</time></trkpt><trkpt lat="43.11716150007969" lon="12.977478783608936"><ele>925.5999999999999</ele><time>2026-04-18T08:48:01Z</time></trkpt><trkpt lat="43.11721195798262" lon="12.977612749390183"><ele>925.8</ele><time>2026-04-18T08:48:02Z</time></trkpt><trkpt lat="43.11724326861081" lon="12.977751755932722"><ele>926.0</ele><time>2026-04-18T08:48:03Z</time></trkpt><trkpt lat="43.1172672282598" lon="12.977895810556497"><ele>926.0</ele><time>2026-04-18T08:48:04Z</time></trkpt><trkpt lat="43.11731774654434" lon="12.978062573450796"><ele>926.0</ele><time>2026-04-18T08:48:05Z</time></trkpt><trkpt lat="43.11736722234297" lon="12.978214312128998"><ele>926.0</ele><time>2026-04-18T08:48:06Z</time></trkpt><trkpt lat="43.117420654090346" lon="12.978340524381434"><ele>926.0</ele><time>2026-04-18T08:48:07Z</time></trkpt><trkpt lat="43.11748695058864" lon="12.978479471492228"><ele>927.25</ele><time>2026-04-18T08:48:08Z</time></trkpt><trkpt lat="43.11755117765846" lon="12.978643786617079"><ele>928.5</ele><time>2026-04-18T08:48:09Z</time></trkpt><trkpt lat="43.1176161393541" lon="12.978781764838402"><ele>929.75</ele><time>2026-04-18T08:48:10Z</time></trkpt><trkpt lat="43.11768662633026" lon="12.97890730908789"><ele>931.0</ele><time>2026-04-18T08:48:11Z</time></trkpt><trkpt lat="43.11773583670973" lon="12.979047059123383"><ele>931.75</ele><time>2026-04-18T08:48:12Z</time></trkpt><trkpt lat="43.11778946929331" lon="12.979188577646912"><ele>932.5</ele><time>2026-04-18T08:48:13Z</time></trkpt><trkpt lat="43.11783085791977" lon="12.979346198134497"><ele>933.25</ele><time>2026-04-18T08:48:14Z</time></trkpt><trkpt lat="43.11788541675552" lon="12.979489934885034"><ele>934.0</ele><time>2026-04-18T08:48:15Z</time></trkpt><trkpt lat="43.11793878610524" lon="12.97962308133631"><ele>934.0</ele><time>2026-04-18T08:48:16Z</time></trkpt><trkpt lat="43.117995854382976" lon="12.979744648095632"><ele>934.0</ele><time>2026-04-18T08:48:17Z</time></trkpt><trkpt lat="43.11807201212572" lon="12.979856879730084"><ele>934.0</ele><time>2026-04-18T08:48:18Z</time></trkpt><trkpt lat="43.118168778392075" lon="12.979956469798463"><ele>934.0</ele><time>2026-04-18T08:48:19Z</time></trkpt><trkpt lat="43.11827131560889" lon="12.98003608625193"><ele>934.5</ele><time>2026-04-18T08:48:20Z</time></trkpt><trkpt lat="43.11837639624966" lon="12.98010528628686"><ele>935.0</ele><time>2026-04-18T08:48:21Z</time></trkpt><trkpt lat="43.1184834745451" lon="12.980165898439525"><ele>935.5</ele><time>2026-04-18T08:48:22Z</time></trkpt><trkpt lat="43.11859314513614" lon="12.980234613484498"><ele>936.0</ele><time>2026-04-18T08:48:23Z</time></trkpt><trkpt lat="43.118715767654834" lon="12.980313644270892"><ele>936.0</ele><time>2026-04-18T08:48:24Z</time></trkpt><trkpt lat="43.11880849096675" lon="12.980436706219928"><ele>936.0</ele><time>2026-04-18T08:48:25Z</time></trkpt><trkpt lat="43.118905672843646" lon="12.980545371284029"><ele>936.0</ele><time>2026-04-18T08:48:26Z</time></trkpt><trkpt lat="43.11900181945796" lon="12.980653367794362"><ele>936.0</ele><time>2026-04-18T08:48:27Z</time></trkpt><trkpt lat="43.11908858393157" lon="12.980776245093704"><ele>935.75</ele><time>2026-04-18T08:48:28Z</time></trkpt><trkpt lat="43.119172758706746" lon="12.980901471352743"><ele>935.5</ele><time>2026-04-18T08:48:29Z</time></trkpt><trkpt lat="43.11924439226903" lon="12.981052099711915"><ele>935.25</ele><time>2026-04-18T08:48:30Z</time></trkpt><trkpt lat="43.11933103468868" lon="12.981194657982982"><ele>935.0</ele><time>2026-04-18T08:48:31Z</time></trkpt><trkpt lat="43.119420486105945" lon="12.981344902699396"><ele>935.0</ele><time>2026-04-18T08:48:32Z</time></trkpt><trkpt lat="43.11950840868295" lon="12.981496148936143"><ele>935.0</ele><time>2026-04-18T08:48:33Z</time></trkpt><trkpt lat="43.119601124970124" lon="12.98165564140752"><ele>935.0</ele><time>2026-04-18T08:48:34Z</time></trkpt><trkpt lat="43.11970027258556" lon="12.98182488771579"><ele>935.0</ele><time>2026-04-18T08:48:35Z</time></trkpt><trkpt lat="43.11980370754091" lon="12.981996115753578"><ele>937.0</ele><time>2026-04-18T08:48:36Z</time></trkpt><trkpt lat="43.1199055092423" lon="12.98216464009247"><ele>939.0</ele><time>2026-04-18T08:48:37Z</time></trkpt><trkpt lat="43.12001977051834" lon="12.982355587486667"><ele>941.0</ele><time>2026-04-18T08:48:38Z</time></trkpt><trkpt lat="43.120125012579244" lon="12.982530529381119"><ele>941.25</ele><time>2026-04-18T08:48:39Z</time></trkpt><trkpt lat="43.1202274367193" lon="12.982698731020061"><ele>941.5</ele><time>2026-04-18T08:48:40Z</time></trkpt><trkpt lat="43.120311100725225" lon="12.982834879768086"><ele>941.75</ele><time>2026-04-18T08:48:41Z</time></trkpt><trkpt lat="43.12038839077514" lon="12.982960484080992"><ele>942.0</ele><time>2026-04-18T08:48:42Z</time></trkpt><trkpt lat="43.12046542502722" lon="12.983083683830927"><ele>942.0</ele><time>2026-04-18T08:48:43Z</time></trkpt><trkpt lat="43.120541463662654" lon="12.983205291309488"><ele>942.0</ele><time>2026-04-18T08:48:44Z</time></trkpt><trkpt lat="43.12061963236011" lon="12.983330305363415"><ele>942.0</ele><time>2026-04-18T08:48:45Z</time></trkpt><trkpt lat="43.120697000488626" lon="12.983459682576171"><ele>942.0</ele><time>2026-04-18T08:48:46Z</time></trkpt><trkpt lat="43.12077711806982" lon="12.983600867691916"><ele>943.2</ele><time>2026-04-18T08:48:47Z</time></trkpt><trkpt lat="43.12084401469897" lon="12.983732810265483"><ele>944.4000000000001</ele><time>2026-04-18T08:48:48Z</time></trkpt><trkpt lat="43.12089359250507" lon="12.983863397643393"><ele>945.5999999999999</ele><time>2026-04-18T08:48:49Z</time></trkpt><trkpt lat="43.120924992620864" lon="12.983991614032757"><ele>946.8</ele><time>2026-04-18T08:48:50Z</time></trkpt><trkpt lat="43.12095018086283" lon="12.984125306560552"><ele>948.0</ele><time>2026-04-18T08:48:51Z</time></trkpt><trkpt lat="43.12097304087883" lon="12.984270960335941"><ele>949.25</ele><time>2026-04-18T08:48:52Z</time></trkpt><trkpt lat="43.12101072708673" lon="12.984430816740018"><ele>950.5</ele><time>2026-04-18T08:48:53Z</time></trkpt><trkpt lat="43.121021286785876" lon="12.984592420058709"><ele>951.75</ele><time>2026-04-18T08:48:54Z</time></trkpt><trkpt lat="43.12105098057498" lon="12.984762414398093"><ele>953.0</ele><time>2026-04-18T08:48:55Z</time></trkpt><trkpt lat="43.12108330634193" lon="12.98494114540357"><ele>954.75</ele><time>2026-04-18T08:48:56Z</time></trkpt><trkpt lat="43.12111630220727" lon="12.985138076128377"><ele>956.5</ele><time>2026-04-18T08:48:57Z</time></trkpt><trkpt lat="43.121155606891236" lon="12.98529510277921"><ele>958.25</ele><time>2026-04-18T08:48:58Z</time></trkpt><trkpt lat="43.12118064070182" lon="12.985435555859638"><ele>960.0</ele><time>2026-04-18T08:48:59Z</time></trkpt><trkpt lat="43.121202011632626" lon="12.985568069902378"><ele>960.0</ele><time>2026-04-18T08:49:00Z</time></trkpt><trkpt lat="43.1212175586525" lon="12.985676257045858"><ele>960.0</ele><time>2026-04-18T08:49:01Z</time></trkpt><trkpt lat="43.1212164866246" lon="12.985765249908205"><ele>960.0</ele><time>2026-04-18T08:49:02Z</time></trkpt><trkpt lat="43.1212331127602" lon="12.98587549777293"><ele>960.0</ele><time>2026-04-18T08:49:05Z</time></trkpt><trkpt lat="43.121249545670295" lon="12.98596359442367"><ele>960.0</ele><time>2026-04-18T08:49:09Z</time></trkpt><trkpt lat="43.12126775631184" lon="12.98609825458922"><ele>960.0</ele><time>2026-04-18T08:49:11Z</time></trkpt><trkpt lat="43.1213002639097" lon="12.986224764218234"><ele>962.6</ele><time>2026-04-18T08:49:13Z</time></trkpt><trkpt lat="43.12131693627838" lon="12.986380120659964"><ele>965.2</ele><time>2026-04-18T08:49:15Z</time></trkpt><trkpt lat="43.12133812446342" lon="12.986549296453953"><ele>967.8</ele><time>2026-04-18T08:49:17Z</time></trkpt><trkpt lat="43.1213486955413" lon="12.98665144002963"><ele>970.4</ele><time>2026-04-18T08:49:18Z</time></trkpt><trkpt lat="43.12135829280434" lon="12.986748365843669"><ele>973.0</ele><time>2026-04-18T08:49:19Z</time></trkpt><trkpt lat="43.1213677598613" lon="12.986851531826277"><ele>973.4</ele><time>2026-04-18T08:49:20Z</time></trkpt><trkpt lat="43.12137447256706" lon="12.986968027521177"><ele>973.8</ele><time>2026-04-18T08:49:21Z</time></trkpt><trkpt lat="43.121358518199884" lon="12.987079011313389"><ele>974.2</ele><time>2026-04-18T08:49:22Z</time></trkpt><trkpt lat="43.12133096738944" lon="12.987224313445212"><ele>974.6</ele><time>2026-04-18T08:49:23Z</time></trkpt><trkpt lat="43.12131759819151" lon="12.987396072858083"><ele>975.0</ele><time>2026-04-18T08:49:24Z</time></trkpt><trkpt lat="43.12130883021442" lon="12.98756913664804"><ele>975.4</ele><time>2026-04-18T08:49:25Z</time></trkpt><trkpt lat="43.121287557614956" lon="12.987736987476342"><ele>975.8</ele><time>2026-04-18T08:49:26Z</time></trkpt><trkpt lat="43.12125928991519" lon="12.987864019215774"><ele>976.2</ele><time>2026-04-18T08:49:27Z</time></trkpt><trkpt lat="43.1212468212357" lon="12.988005172492752"><ele>976.6</ele><time>2026-04-18T08:49:28Z</time></trkpt><trkpt lat="43.12121555256888" lon="12.988140434988091"><ele>977.0</ele><time>2026-04-18T08:49:29Z</time></trkpt><trkpt lat="43.12119544311674" lon="12.988303314678568"><ele>976.0</ele><time>2026-04-18T08:49:30Z</time></trkpt><trkpt lat="43.12117328854087" lon="12.988484877430109"><ele>975.0</ele><time>2026-04-18T08:49:31Z</time></trkpt><trkpt lat="43.12115457363983" lon="12.988638251141888"><ele>974.0</ele><time>2026-04-18T08:49:32Z</time></trkpt><trkpt lat="43.121154107120745" lon="12.98878163450711"><ele>973.0</ele><time>2026-04-18T08:49:33Z</time></trkpt><trkpt lat="43.12113552209106" lon="12.98889865556409"><ele>972.0</ele><time>2026-04-18T08:49:34Z</time></trkpt><trkpt lat="43.12111822985434" lon="12.989052203134321"><ele>971.8</ele><time>2026-04-18T08:49:35Z</time></trkpt><trkpt lat="43.12110377624021" lon="12.989203267028921"><ele>971.6</ele><time>2026-04-18T08:49:36Z</time></trkpt><trkpt lat="43.121069046212256" lon="12.989363293781887"><ele>971.3999999999999</ele><time>2026-04-18T08:49:37Z</time></trkpt><trkpt lat="43.12105076326095" lon="12.989515014882366"><ele>971.1999999999999</ele><time>2026-04-18T08:49:38Z</time></trkpt><trkpt lat="43.121035378924745" lon="12.989654677081854"><ele>971.0</ele><time>2026-04-18T08:49:39Z</time></trkpt><trkpt lat="43.12102183308209" lon="12.989785426503452"><ele>971.0</ele><time>2026-04-18T08:49:40Z</time></trkpt><trkpt lat="43.12100905904514" lon="12.989927486037674"><ele>970.9999999999999</ele><time>2026-04-18T08:49:41Z</time></trkpt><trkpt lat="43.12099712688848" lon="12.990073459997594"><ele>970.9999999999999</ele><time>2026-04-18T08:49:42Z</time></trkpt><trkpt lat="43.12098639790646" lon="12.990225990597596"><ele>971.0</ele><time>2026-04-18T08:49:43Z</time></trkpt><trkpt lat="43.12097854607095" lon="12.990370410749708"><ele>971.0</ele><time>2026-04-18T08:49:44Z</time></trkpt><trkpt lat="43.12097511570091" lon="12.990488877229458"><ele>971.0</ele><time>2026-04-18T08:49:45Z</time></trkpt><trkpt lat="43.12099003464701" lon="12.990605261142093"><ele>970.9999999999999</ele><time>2026-04-18T08:49:46Z</time></trkpt><trkpt lat="43.12099039064582" lon="12.990730886489663"><ele>970.9999999999999</ele><time>2026-04-18T08:49:47Z</time></trkpt><trkpt lat="43.12097658246284" lon="12.990869260368262"><ele>971.0</ele><time>2026-04-18T08:49:48Z</time></trkpt><trkpt lat="43.12097882835822" lon="12.991005280144824"><ele>971.0</ele><time>2026-04-18T08:49:49Z</time></trkpt><trkpt lat="43.120972456200526" lon="12.991133783340748"><ele>970.1999999999999</ele><time>2026-04-18T08:49:50Z</time></trkpt><trkpt lat="43.12096256462135" lon="12.991268223069426"><ele>969.3999999999999</ele><time>2026-04-18T08:49:51Z</time></trkpt><trkpt lat="43.12092110804006" lon="12.991398372948321"><ele>968.6</ele><time>2026-04-18T08:49:52Z</time></trkpt><trkpt lat="43.12087010327834" lon="12.991523561530053"><ele>967.8</ele><time>2026-04-18T08:49:53Z</time></trkpt><trkpt lat="43.12082151682316" lon="12.991645101723863"><ele>967.0</ele><time>2026-04-18T08:49:54Z</time></trkpt><trkpt lat="43.120784239680695" lon="12.991769463957569"><ele>969.1666666666666</ele><time>2026-04-18T08:49:55Z</time></trkpt><trkpt lat="43.120730660417486" lon="12.991888496726029"><ele>971.3333333333333</ele><time>2026-04-18T08:49:56Z</time></trkpt><trkpt lat="43.12066826043781" lon="12.991985029980489"><ele>973.5</ele><time>2026-04-18T08:49:57Z</time></trkpt><trkpt lat="43.120620309135475" lon="12.99208736919244"><ele>975.6666666666667</ele><time>2026-04-18T08:49:58Z</time></trkpt><trkpt lat="43.12059875819565" lon="12.99218882117158"><ele>977.8333333333334</ele><time>2026-04-18T08:49:59Z</time></trkpt><trkpt lat="43.12054841883891" lon="12.99225241531412"><ele>980.0</ele><time>2026-04-18T08:50:00Z</time></trkpt><trkpt lat="43.120429265488056" lon="12.99236293831986"><ele>980.0000000000001</ele><time>2026-04-18T08:50:02Z</time></trkpt><trkpt lat="43.120355555835346" lon="12.992378700823558"><ele>980.0</ele><time>2026-04-18T08:50:03Z</time></trkpt><trkpt lat="43.12028973995828" lon="12.992378236059457"><ele>980.0</ele><time>2026-04-18T08:50:04Z</time></trkpt><trkpt lat="43.12016113826706" lon="12.992360529245381"><ele>980.0</ele><time>2026-04-18T08:50:06Z</time></trkpt><trkpt lat="43.1200740164725" lon="12.992346761361443"><ele>980.0000000000001</ele><time>2026-04-18T08:50:07Z</time></trkpt><trkpt lat="43.119997593100145" lon="12.992342727216363"><ele>980.0</ele><time>2026-04-18T08:50:08Z</time></trkpt><trkpt lat="43.119930640918916" lon="12.992355444816155"><ele>980.0000000000001</ele><time>2026-04-18T08:50:09Z</time></trkpt><trkpt lat="43.119867757068526" lon="12.992364649063061"><ele>980.0</ele><time>2026-04-18T08:50:10Z</time></trkpt><trkpt lat="43.11976679868379" lon="12.99238967616875"><ele>980.0</ele><time>2026-04-18T08:50:13Z</time></trkpt><trkpt lat="43.11973810267237" lon="12.992511059551997"><ele>980.0</ele><time>2026-04-18T08:50:14Z</time></trkpt><trkpt lat="43.11977722221816" lon="12.992606590686806"><ele>980.0000000000001</ele><time>2026-04-18T08:50:15Z</time></trkpt><trkpt lat="43.11983954146208" lon="12.992695875279118"><ele>980.0</ele><time>2026-04-18T08:50:16Z</time></trkpt><trkpt lat="43.11990579700893" lon="12.992762670438555"><ele>980.0000000000001</ele><time>2026-04-18T08:50:17Z</time></trkpt><trkpt lat="43.11998488976618" lon="12.992832852480893"><ele>980.0</ele><time>2026-04-18T08:50:18Z</time></trkpt><trkpt lat="43.12005583143744" lon="12.992888523611835"><ele>980.0</ele><time>2026-04-18T08:50:19Z</time></trkpt><trkpt lat="43.12011693737099" lon="12.992935648218184"><ele>980.0</ele><time>2026-04-18T08:50:20Z</time></trkpt><trkpt lat="43.12018800434864" lon="12.992986467014763"><ele>980.0000000000001</ele><time>2026-04-18T08:50:21Z</time></trkpt><trkpt lat="43.120248530089434" lon="12.99302642178116"><ele>980.0</ele><time>2026-04-18T08:50:22Z</time></trkpt><trkpt lat="43.12036288939563" lon="12.99304834453072"><ele>980.0</ele><time>2026-04-18T08:50:24Z</time></trkpt><trkpt lat="43.12042285042185" lon="12.993212824799054"><ele>980.0</ele><time>2026-04-18T08:50:26Z</time></trkpt><trkpt lat="43.120404965915306" lon="12.993300032148122"><ele>980.0</ele><time>2026-04-18T08:50:27Z</time></trkpt><trkpt lat="43.12037532376492" lon="12.99344645135265"><ele>980.0</ele><time>2026-04-18T08:50:30Z</time></trkpt><trkpt lat="43.1202392621409" lon="12.993410211408479"><ele>980.0</ele><time>2026-04-18T08:50:39Z</time></trkpt><trkpt lat="43.12027919520985" lon="12.993259586219278"><ele>980.0</ele><time>2026-04-18T08:50:41Z</time></trkpt><trkpt lat="43.12030678227882" lon="12.993171250143513"><ele>980.0</ele><time>2026-04-18T08:50:52Z</time></trkpt><trkpt lat="43.12015113565696" lon="12.993129966450564"><ele>980.0</ele><time>2026-04-18T08:51:16Z</time></trkpt><trkpt lat="43.12008433840338" lon="12.993124925871323"><ele>980.0</ele><time>2026-04-18T08:51:17Z</time></trkpt><trkpt lat="43.12001235514686" lon="12.993119875823814"><ele>980.0</ele><time>2026-04-18T08:51:18Z</time></trkpt><trkpt lat="43.11993540095251" lon="12.993091920701433"><ele>980.0</ele><time>2026-04-18T08:51:19Z</time></trkpt><trkpt lat="43.11980706631044" lon="12.993044727672494"><ele>980.0</ele><time>2026-04-18T08:51:21Z</time></trkpt><trkpt lat="43.1196613011511" lon="12.993049424559945"><ele>980.0</ele><time>2026-04-18T08:51:23Z</time></trkpt><trkpt lat="43.119579920367784" lon="12.993077324376891"><ele>980.0</ele><time>2026-04-18T08:51:24Z</time></trkpt><trkpt lat="43.119501619832384" lon="12.99309779756006"><ele>986.8</ele><time>2026-04-18T08:51:25Z</time></trkpt><trkpt lat="43.119393091993494" lon="12.993116219348597"><ele>993.6</ele><time>2026-04-18T08:51:27Z</time></trkpt><trkpt lat="43.11929933483271" lon="12.993054468229623"><ele>1000.4000000000001</ele><time>2026-04-18T08:51:29Z</time></trkpt><trkpt lat="43.11923956467277" lon="12.992978419722036"><ele>1007.2</ele><time>2026-04-18T08:51:31Z</time></trkpt><trkpt lat="43.119159854542296" lon="12.99287806968673"><ele>1014.0</ele><time>2026-04-18T08:51:33Z</time></trkpt><trkpt lat="43.11903585150799" lon="12.992792952071317"><ele>1021.0</ele><time>2026-04-18T08:51:35Z</time></trkpt><trkpt lat="43.11897574774542" lon="12.9927541403642"><ele>1028.0</ele><time>2026-04-18T08:51:36Z</time></trkpt><trkpt lat="43.11889323866041" lon="12.992690501922812"><ele>1035.0</ele><time>2026-04-18T08:51:38Z</time></trkpt><trkpt lat="43.11878605653715" lon="12.992653592599659"><ele>1042.0</ele><time>2026-04-18T08:51:40Z</time></trkpt><trkpt lat="43.11872451505557" lon="12.992617981748342"><ele>1049.0</ele><time>2026-04-18T08:51:41Z</time></trkpt><trkpt lat="43.11866101402736" lon="12.992574284324759"><ele>1056.0</ele><time>2026-04-18T08:51:42Z</time></trkpt><trkpt lat="43.11860514943307" lon="12.992520858766474"><ele>1058.6666666666667</ele><time>2026-04-18T08:51:43Z</time></trkpt><trkpt lat="43.11854328123225" lon="12.992452309745994"><ele>1061.3333333333333</ele><time>2026-04-18T08:51:44Z</time></trkpt><trkpt lat="43.118490105730146" lon="12.992399701432847"><ele>1064.0</ele><time>2026-04-18T08:51:45Z</time></trkpt><trkpt lat="43.11843150339065" lon="12.992358814526018"><ele>1066.6666666666665</ele><time>2026-04-18T08:51:46Z</time></trkpt><trkpt lat="43.11835460553013" lon="12.99229003839479"><ele>1069.3333333333333</ele><time>2026-04-18T08:51:48Z</time></trkpt><trkpt lat="43.118285176365966" lon="12.992213932277656"><ele>1072.0</ele><time>2026-04-18T08:51:51Z</time></trkpt><trkpt lat="43.118231355411666" lon="12.992122115617518"><ele>1072.0</ele><time>2026-04-18T08:51:53Z</time></trkpt><trkpt lat="43.11817722149001" lon="12.992068036422769"><ele>1072.0</ele><time>2026-04-18T08:51:56Z</time></trkpt><trkpt lat="43.118101395896254" lon="12.992028758017803"><ele>1072.0</ele><time>2026-04-18T08:52:03Z</time></trkpt><trkpt lat="43.11810961222568" lon="12.991919965823827"><ele>1072.0</ele><time>2026-04-18T08:52:06Z</time></trkpt><trkpt lat="43.118135262187174" lon="12.991762652916387"><ele>1072.0</ele><time>2026-04-18T08:52:08Z</time></trkpt><trkpt lat="43.118183143954695" lon="12.991595408013906"><ele>1065.6</ele><time>2026-04-18T08:52:10Z</time></trkpt><trkpt lat="43.11823612897488" lon="12.991432793991098"><ele>1059.2</ele><time>2026-04-18T08:52:12Z</time></trkpt><trkpt lat="43.11826108801188" lon="12.991329998861012"><ele>1052.8</ele><time>2026-04-18T08:52:14Z</time></trkpt><trkpt lat="43.11827631872051" lon="12.991203491167843"><ele>1046.4</ele><time>2026-04-18T08:52:16Z</time></trkpt><trkpt lat="43.118308836275475" lon="12.991118377236"><ele>1040.0</ele><time>2026-04-18T08:52:17Z</time></trkpt><trkpt lat="43.11833560079482" lon="12.99101361237815"><ele>1040.0</ele><time>2026-04-18T08:52:18Z</time></trkpt><trkpt lat="43.1183666358721" lon="12.990925486005194"><ele>1040.0</ele><time>2026-04-18T08:52:19Z</time></trkpt><trkpt lat="43.11848237363086" lon="12.990824096935452"><ele>1040.0</ele><time>2026-04-18T08:52:21Z</time></trkpt><trkpt lat="43.11856279777181" lon="12.990682442315943"><ele>1040.0</ele><time>2026-04-18T08:52:23Z</time></trkpt><trkpt lat="43.11857779288002" lon="12.990596299398776"><ele>1040.0</ele><time>2026-04-18T08:52:24Z</time></trkpt><trkpt lat="43.11858041714244" lon="12.990501420465494"><ele>1044.6</ele><time>2026-04-18T08:52:25Z</time></trkpt><trkpt lat="43.11852708058579" lon="12.99037101412312"><ele>1049.2</ele><time>2026-04-18T08:52:27Z</time></trkpt><trkpt lat="43.11849215967949" lon="12.990204338219062"><ele>1053.8</ele><time>2026-04-18T08:52:29Z</time></trkpt><trkpt lat="43.118461562588635" lon="12.990125515435304"><ele>1058.4</ele><time>2026-04-18T08:52:30Z</time></trkpt><trkpt lat="43.118431840288174" lon="12.990019191423366"><ele>1063.0</ele><time>2026-04-18T08:52:31Z</time></trkpt><trkpt lat="43.11839347512472" lon="12.98993432557092"><ele>1066.0</ele><time>2026-04-18T08:52:32Z</time></trkpt><trkpt lat="43.11835121361827" lon="12.989850268016617"><ele>1069.0</ele><time>2026-04-18T08:52:33Z</time></trkpt><trkpt lat="43.11827428980785" lon="12.989727699699637"><ele>1072.0</ele><time>2026-04-18T08:52:35Z</time></trkpt><trkpt lat="43.11821371535157" lon="12.989585613139266"><ele>1075.0</ele><time>2026-04-18T08:52:37Z</time></trkpt><trkpt lat="43.11812211698375" lon="12.989497658070643"><ele>1078.0</ele><time>2026-04-18T08:52:39Z</time></trkpt><trkpt lat="43.118063247833305" lon="12.989456734495713"><ele>1080.6666666666665</ele><time>2026-04-18T08:52:40Z</time></trkpt><trkpt lat="43.117961689143364" lon="12.989413220597955"><ele>1083.3333333333333</ele><time>2026-04-18T08:52:42Z</time></trkpt><trkpt lat="43.11789538850025" lon="12.989394150098507"><ele>1086.0</ele><time>2026-04-18T08:52:43Z</time></trkpt><trkpt lat="43.117824713180106" lon="12.989374086824515"><ele>1088.6666666666667</ele><time>2026-04-18T08:52:44Z</time></trkpt><trkpt lat="43.11775382073297" lon="12.989354119621902"><ele>1091.3333333333335</ele><time>2026-04-18T08:52:45Z</time></trkpt><trkpt lat="43.117678724061534" lon="12.989336707127269"><ele>1094.0</ele><time>2026-04-18T08:52:46Z</time></trkpt><trkpt lat="43.11759015142697" lon="12.989318252653165"><ele>1094.0</ele><time>2026-04-18T08:52:47Z</time></trkpt><trkpt lat="43.11751064416059" lon="12.989300330990805"><ele>1094.0</ele><time>2026-04-18T08:52:48Z</time></trkpt><trkpt lat="43.11742171470741" lon="12.989304974670933"><ele>1094.0</ele><time>2026-04-18T08:52:49Z</time></trkpt><trkpt lat="43.11734318163656" lon="12.989315999231689"><ele>1094.0</ele><time>2026-04-18T08:52:50Z</time></trkpt><trkpt lat="43.1172635503095" lon="12.989315264894733"><ele>1094.0</ele><time>2026-04-18T08:52:51Z</time></trkpt><trkpt lat="43.117187019928835" lon="12.989326735333963"><ele>1094.0</ele><time>2026-04-18T08:52:52Z</time></trkpt><trkpt lat="43.11710415575059" lon="12.989345967626933"><ele>1097.8333333333335</ele><time>2026-04-18T08:52:53Z</time></trkpt><trkpt lat="43.11701934930496" lon="12.989360626077458"><ele>1101.6666666666667</ele><time>2026-04-18T08:52:54Z</time></trkpt><trkpt lat="43.1169376826131" lon="12.989387025251297"><ele>1105.5</ele><time>2026-04-18T08:52:55Z</time></trkpt><trkpt lat="43.11685386830032" lon="12.989400142157074"><ele>1109.3333333333333</ele><time>2026-04-18T08:52:56Z</time></trkpt><trkpt lat="43.11676936885344" lon="12.989414930993933"><ele>1113.1666666666665</ele><time>2026-04-18T08:52:57Z</time></trkpt><trkpt lat="43.116693365218744" lon="12.989426917521891"><ele>1117.0</ele><time>2026-04-18T08:52:58Z</time></trkpt><trkpt lat="43.1166197896455" lon="12.989447600412188"><ele>1119.857142857143</ele><time>2026-04-18T08:52:59Z</time></trkpt><trkpt lat="43.11655279951279" lon="12.989454920048207"><ele>1122.7142857142858</ele><time>2026-04-18T08:53:00Z</time></trkpt><trkpt lat="43.116482144629686" lon="12.989458016330191"><ele>1125.5714285714284</ele><time>2026-04-18T08:53:01Z</time></trkpt><trkpt lat="43.116414742719556" lon="12.989463441786747"><ele>1128.4285714285716</ele><time>2026-04-18T08:53:02Z</time></trkpt><trkpt lat="43.11634878220138" lon="12.989473766169622"><ele>1131.2857142857142</ele><time>2026-04-18T08:53:03Z</time></trkpt><trkpt lat="43.11627144443021" lon="12.989487775765312"><ele>1134.142857142857</ele><time>2026-04-18T08:53:04Z</time></trkpt><trkpt lat="43.11619786867449" lon="12.989498248403589"><ele>1137.0</ele><time>2026-04-18T08:53:05Z</time></trkpt><trkpt lat="43.116120210026686" lon="12.989513824589213"><ele>1137.0</ele><time>2026-04-18T08:53:06Z</time></trkpt><trkpt lat="43.116041110838495" lon="12.989525778692217"><ele>1137.0</ele><time>2026-04-18T08:53:07Z</time></trkpt><trkpt lat="43.115962701396974" lon="12.989541732646993"><ele>1137.0</ele><time>2026-04-18T08:53:08Z</time></trkpt><trkpt lat="43.115882942209254" lon="12.989556861245516"><ele>1137.0</ele><time>2026-04-18T08:53:09Z</time></trkpt><trkpt lat="43.115811016689214" lon="12.989572182291994"><ele>1137.0</ele><time>2026-04-18T08:53:10Z</time></trkpt><trkpt lat="43.11574364972676" lon="12.989602605025038"><ele>1137.0</ele><time>2026-04-18T08:53:11Z</time></trkpt><trkpt lat="43.11567528902902" lon="12.98962061421916"><ele>1139.3333333333333</ele><time>2026-04-18T08:53:12Z</time></trkpt><trkpt lat="43.1156023663554" lon="12.989643074528736"><ele>1141.6666666666667</ele><time>2026-04-18T08:53:13Z</time></trkpt><trkpt lat="43.115525634308135" lon="12.989644687308445"><ele>1144.0</ele><time>2026-04-18T08:53:14Z</time></trkpt><trkpt lat="43.115444850659514" lon="12.989629019664404"><ele>1146.3333333333335</ele><time>2026-04-18T08:53:15Z</time></trkpt><trkpt lat="43.11536002061655" lon="12.98960097750061"><ele>1148.6666666666667</ele><time>2026-04-18T08:53:16Z</time></trkpt><trkpt lat="43.115279805318245" lon="12.989591855721157"><ele>1151.0</ele><time>2026-04-18T08:53:17Z</time></trkpt><trkpt lat="43.11519830860102" lon="12.989571273418244"><ele>1151.0</ele><time>2026-04-18T08:53:18Z</time></trkpt><trkpt lat="43.11511270631138" lon="12.989554560187964"><ele>1151.0</ele><time>2026-04-18T08:53:19Z</time></trkpt><trkpt lat="43.11502907573902" lon="12.989548081142896"><ele>1151.0</ele><time>2026-04-18T08:53:20Z</time></trkpt><trkpt lat="43.11494366685465" lon="12.989547016747938"><ele>1151.0</ele><time>2026-04-18T08:53:21Z</time></trkpt><trkpt lat="43.114864590114514" lon="12.989534029239977"><ele>1151.0</ele><time>2026-04-18T08:53:22Z</time></trkpt><trkpt lat="43.11478677165029" lon="12.989510067159616"><ele>1151.0</ele><time>2026-04-18T08:53:23Z</time></trkpt><trkpt lat="43.11470960705859" lon="12.989478712103924"><ele>1153.5</ele><time>2026-04-18T08:53:24Z</time></trkpt><trkpt lat="43.114631913828205" lon="12.989476500400226"><ele>1156.0</ele><time>2026-04-18T08:53:25Z</time></trkpt><trkpt lat="43.11455502399986" lon="12.989476541886113"><ele>1158.5</ele><time>2026-04-18T08:53:26Z</time></trkpt><trkpt lat="43.114479442459235" lon="12.989503151976978"><ele>1161.0</ele><time>2026-04-18T08:53:27Z</time></trkpt><trkpt lat="43.114404508955936" lon="12.989496679042853"><ele>1163.5</ele><time>2026-04-18T08:53:28Z</time></trkpt><trkpt lat="43.114327044375585" lon="12.989485419884657"><ele>1166.0</ele><time>2026-04-18T08:53:29Z</time></trkpt><trkpt lat="43.11424740178475" lon="12.989486265748942"><ele>1166.0000000000002</ele><time>2026-04-18T08:53:30Z</time></trkpt><trkpt lat="43.114170848340706" lon="12.989493070479956"><ele>1166.0</ele><time>2026-04-18T08:53:31Z</time></trkpt><trkpt lat="43.11409716015355" lon="12.989521819862773"><ele>1166.0</ele><time>2026-04-18T08:53:32Z</time></trkpt><trkpt lat="43.114025067883304" lon="12.989547930543495"><ele>1166.0</ele><time>2026-04-18T08:53:33Z</time></trkpt><trkpt lat="43.113952698182416" lon="12.989553752505389"><ele>1166.0</ele><time>2026-04-18T08:53:34Z</time></trkpt><trkpt lat="43.113880755767134" lon="12.989558063830716"><ele>1166.0000000000002</ele><time>2026-04-18T08:53:35Z</time></trkpt><trkpt lat="43.11380683855672" lon="12.989572790071843"><ele>1166.0</ele><time>2026-04-18T08:53:36Z</time></trkpt><trkpt lat="43.113733536953454" lon="12.989592639548261"><ele>1169.8333333333335</ele><time>2026-04-18T08:53:37Z</time></trkpt><trkpt lat="43.11365981864449" lon="12.989599734697133"><ele>1173.6666666666667</ele><time>2026-04-18T08:53:38Z</time></trkpt><trkpt lat="43.11358422870962" lon="12.989618379105178"><ele>1177.5</ele><time>2026-04-18T08:53:39Z</time></trkpt><trkpt lat="43.11350964221026" lon="12.989623319580996"><ele>1181.3333333333333</ele><time>2026-04-18T08:53:40Z</time></trkpt><trkpt lat="43.11343759150538" lon="12.989618991795966"><ele>1185.1666666666665</ele><time>2026-04-18T08:53:41Z</time></trkpt><trkpt lat="43.11336924855635" lon="12.989608179352862"><ele>1189.0</ele><time>2026-04-18T08:53:42Z</time></trkpt><trkpt lat="43.113248912078795" lon="12.989605228465633"><ele>1188.4</ele><time>2026-04-18T08:53:44Z</time></trkpt><trkpt lat="43.113137243787065" lon="12.989613072178477"><ele>1187.8000000000002</ele><time>2026-04-18T08:53:46Z</time></trkpt><trkpt lat="43.11303525328509" lon="12.989606243895228"><ele>1187.1999999999998</ele><time>2026-04-18T08:53:48Z</time></trkpt><trkpt lat="43.112941619737974" lon="12.989568137824634"><ele>1186.6</ele><time>2026-04-18T08:53:50Z</time></trkpt><trkpt lat="43.11282790875981" lon="12.98950053699553"><ele>1186.0</ele><time>2026-04-18T08:53:52Z</time></trkpt><trkpt lat="43.11273796130062" lon="12.989408570000519"><ele>1186.0</ele><time>2026-04-18T08:53:54Z</time></trkpt><trkpt lat="43.112685800762684" lon="12.989320505005683"><ele>1186.0</ele><time>2026-04-18T08:53:56Z</time></trkpt><trkpt lat="43.11262245085318" lon="12.989280445839325"><ele>1186.0</ele><time>2026-04-18T08:53:59Z</time></trkpt><trkpt lat="43.112576858233645" lon="12.989181945134785"><ele>1186.0</ele><time>2026-04-18T08:54:40Z</time></trkpt><trkpt lat="43.112563264449186" lon="12.989054451462529"><ele>1186.0</ele><time>2026-04-18T08:54:42Z</time></trkpt><trkpt lat="43.11254275560385" lon="12.98892157314113"><ele>1186.0</ele><time>2026-04-18T08:54:44Z</time></trkpt><trkpt lat="43.112501066015376" lon="12.988819544609877"><ele>1188.6</ele><time>2026-04-18T08:54:46.001Z</time></trkpt><trkpt lat="43.11242996891535" lon="12.988757692087528"><ele>1191.1999999999998</ele><time>2026-04-18T08:54:48.001Z</time></trkpt><trkpt lat="43.11234868871425" lon="12.988650793297413"><ele>1193.8000000000002</ele><time>2026-04-18T08:54:50.001Z</time></trkpt><trkpt lat="43.11227332459213" lon="12.988532849746237"><ele>1196.4</ele><time>2026-04-18T08:54:52.001Z</time></trkpt><trkpt lat="43.11218859511862" lon="12.988434348191836"><ele>1199.0</ele><time>2026-04-18T08:54:54.001Z</time></trkpt><trkpt lat="43.112107906357444" lon="12.988369955862987"><ele>1200.0</ele><time>2026-04-18T08:54:56.001Z</time></trkpt><trkpt lat="43.112008081341244" lon="12.988308697153675"><ele>1201.0</ele><time>2026-04-18T08:54:58.001Z</time></trkpt><trkpt lat="43.11189209157157" lon="12.988266174496363"><ele>1202.0</ele><time>2026-04-18T08:55:00Z</time></trkpt><trkpt lat="43.11178352348165" lon="12.98823365495235"><ele>1203.0</ele><time>2026-04-18T08:55:02Z</time></trkpt><trkpt lat="43.11167263851486" lon="12.988201927527482"><ele>1203.0</ele><time>2026-04-18T08:55:04Z</time></trkpt><trkpt lat="43.11160666940861" lon="12.98817676120281"><ele>1203.0</ele><time>2026-04-18T08:55:05Z</time></trkpt><trkpt lat="43.11153938281246" lon="12.988145683145369"><ele>1203.0</ele><time>2026-04-18T08:55:06Z</time></trkpt><trkpt lat="43.11147577486484" lon="12.988110950003648"><ele>1203.0</ele><time>2026-04-18T08:55:07Z</time></trkpt><trkpt lat="43.11140960624595" lon="12.988093244880297"><ele>1203.0</ele><time>2026-04-18T08:55:08Z</time></trkpt><trkpt lat="43.11134057678015" lon="12.988078624721057"><ele>1203.0</ele><time>2026-04-18T08:55:09Z</time></trkpt><trkpt lat="43.11127228681878" lon="12.988060792641502"><ele>1203.0</ele><time>2026-04-18T08:55:10Z</time></trkpt><trkpt lat="43.11120383362242" lon="12.98804607376013"><ele>1203.1666666666667</ele><time>2026-04-18T08:55:11Z</time></trkpt><trkpt lat="43.11113671264555" lon="12.988033253593574"><ele>1203.3333333333333</ele><time>2026-04-18T08:55:12Z</time></trkpt><trkpt lat="43.11106845019721" lon="12.988024609784688"><ele>1203.5</ele><time>2026-04-18T08:55:13Z</time></trkpt><trkpt lat="43.11099894274824" lon="12.988015230694947"><ele>1203.6666666666665</ele><time>2026-04-18T08:55:14Z</time></trkpt><trkpt lat="43.11093212794683" lon="12.98801064102606"><ele>1203.8333333333333</ele><time>2026-04-18T08:55:15Z</time></trkpt><trkpt lat="43.1108159960538" lon="12.987999407838474"><ele>1204.0</ele><time>2026-04-18T08:55:17Z</time></trkpt><trkpt lat="43.110708494319816" lon="12.987977564473645"><ele>1205.0</ele><time>2026-04-18T08:55:19Z</time></trkpt><trkpt lat="43.110594633044734" lon="12.987928820130351"><ele>1206.0</ele><time>2026-04-18T08:55:21Z</time></trkpt><trkpt lat="43.11047890282019" lon="12.987875840984977"><ele>1207.0</ele><time>2026-04-18T08:55:23Z</time></trkpt><trkpt lat="43.11037761140886" lon="12.987819460487065"><ele>1208.0</ele><time>2026-04-18T08:55:25Z</time></trkpt><trkpt lat="43.110260055839476" lon="12.987788740422285"><ele>1208.0</ele><time>2026-04-18T08:55:27Z</time></trkpt><trkpt lat="43.11019755661508" lon="12.98776558134771"><ele>1208.0</ele><time>2026-04-18T08:55:28Z</time></trkpt><trkpt lat="43.1101300412592" lon="12.987769143169292"><ele>1208.0</ele><time>2026-04-18T08:55:29Z</time></trkpt><trkpt lat="43.11001030305532" lon="12.987732200775556"><ele>1208.0</ele><time>2026-04-18T08:55:31Z</time></trkpt><trkpt lat="43.10994771528026" lon="12.987698999901122"><ele>1208.0</ele><time>2026-04-18T08:55:32Z</time></trkpt><trkpt lat="43.1098732096045" lon="12.987687813156544"><ele>1208.0</ele><time>2026-04-18T08:55:33Z</time></trkpt><trkpt lat="43.1097977498399" lon="12.987696700395192"><ele>1209.1428571428573</ele><time>2026-04-18T08:55:34Z</time></trkpt><trkpt lat="43.10972432307102" lon="12.987702892177834"><ele>1210.2857142857142</ele><time>2026-04-18T08:55:35Z</time></trkpt><trkpt lat="43.10965162707357" lon="12.987708091958867"><ele>1211.4285714285716</ele><time>2026-04-18T08:55:36Z</time></trkpt><trkpt lat="43.1095763828164" lon="12.98771608813074"><ele>1212.5714285714287</ele><time>2026-04-18T08:55:37Z</time></trkpt><trkpt lat="43.109503271032374" lon="12.987724046737545"><ele>1213.7142857142858</ele><time>2026-04-18T08:55:38Z</time></trkpt><trkpt lat="43.10942775867889" lon="12.987720261554664"><ele>1214.857142857143</ele><time>2026-04-18T08:55:39Z</time></trkpt><trkpt lat="43.109349885070216" lon="12.987715173505325"><ele>1216.0</ele><time>2026-04-18T08:55:40Z</time></trkpt><trkpt lat="43.10927066974137" lon="12.987718937901954"><ele>1216.0</ele><time>2026-04-18T08:55:41Z</time></trkpt><trkpt lat="43.10919501184035" lon="12.987723335658012"><ele>1216.0</ele><time>2026-04-18T08:55:42Z</time></trkpt><trkpt lat="43.109123408950204" lon="12.98773021730394"><ele>1216.0</ele><time>2026-04-18T08:55:43Z</time></trkpt><trkpt lat="43.10904848522346" lon="12.987740031148494"><ele>1216.0</ele><time>2026-04-18T08:55:44Z</time></trkpt><trkpt lat="43.10896877616193" lon="12.98775598161739"><ele>1216.0</ele><time>2026-04-18T08:55:45Z</time></trkpt><trkpt lat="43.10888867258046" lon="12.98777079235633"><ele>1216.0</ele><time>2026-04-18T08:55:46Z</time></trkpt><trkpt lat="43.10880490192516" lon="12.987781386658952"><ele>1216.6666666666665</ele><time>2026-04-18T08:55:47Z</time></trkpt><trkpt lat="43.108726596149125" lon="12.987797794256"><ele>1217.3333333333333</ele><time>2026-04-18T08:55:48Z</time></trkpt><trkpt lat="43.1086444567589" lon="12.987817792227826"><ele>1218.0</ele><time>2026-04-18T08:55:49Z</time></trkpt><trkpt lat="43.10855012692355" lon="12.987826560547685"><ele>1218.6666666666667</ele><time>2026-04-18T08:55:50Z</time></trkpt><trkpt lat="43.1084565934216" lon="12.987842361976242"><ele>1219.3333333333335</ele><time>2026-04-18T08:55:51Z</time></trkpt><trkpt lat="43.10836565957954" lon="12.987854494599965"><ele>1220.0</ele><time>2026-04-18T08:55:52Z</time></trkpt><trkpt lat="43.10827226901053" lon="12.98786511043351"><ele>1221.3333333333335</ele><time>2026-04-18T08:55:53Z</time></trkpt><trkpt lat="43.10818206771187" lon="12.98787246238069"><ele>1222.6666666666667</ele><time>2026-04-18T08:55:54Z</time></trkpt><trkpt lat="43.108101920952" lon="12.987890187974923"><ele>1224.0</ele><time>2026-04-18T08:55:55Z</time></trkpt><trkpt lat="43.10802784520271" lon="12.987904237202793"><ele>1225.3333333333333</ele><time>2026-04-18T08:55:56Z</time></trkpt><trkpt lat="43.10795851509669" lon="12.987894121539718"><ele>1226.6666666666665</ele><time>2026-04-18T08:55:57Z</time></trkpt><trkpt lat="43.10789311361008" lon="12.987866802688252"><ele>1228.0</ele><time>2026-04-18T08:55:58Z</time></trkpt><trkpt lat="43.107826501535385" lon="12.987827793585149"><ele>1227.9999999999998</ele><time>2026-04-18T08:55:59Z</time></trkpt><trkpt lat="43.10775276076921" lon="12.987814024612515"><ele>1228.0</ele><time>2026-04-18T08:56:00Z</time></trkpt><trkpt lat="43.107683063251535" lon="12.987781328739137"><ele>1228.0</ele><time>2026-04-18T08:56:01Z</time></trkpt><trkpt lat="43.10761063840245" lon="12.987760273788243"><ele>1228.0</ele><time>2026-04-18T08:56:02Z</time></trkpt><trkpt lat="43.10753703848611" lon="12.987764456611277"><ele>1228.0</ele><time>2026-04-18T08:56:03Z</time></trkpt><trkpt lat="43.10746430728103" lon="12.987776193035282"><ele>1227.9999999999998</ele><time>2026-04-18T08:56:04Z</time></trkpt><trkpt lat="43.10739013078293" lon="12.987795169711694"><ele>1228.0</ele><time>2026-04-18T08:56:05Z</time></trkpt><trkpt lat="43.10732011883116" lon="12.987819533276593"><ele>1230.5</ele><time>2026-04-18T08:56:06Z</time></trkpt><trkpt lat="43.1072501430528" lon="12.98785521253737"><ele>1233.0</ele><time>2026-04-18T08:56:07Z</time></trkpt><trkpt lat="43.10718200355055" lon="12.987883823350092"><ele>1235.5</ele><time>2026-04-18T08:56:08Z</time></trkpt><trkpt lat="43.10712181674931" lon="12.987923232783412"><ele>1238.0</ele><time>2026-04-18T08:56:09Z</time></trkpt><trkpt lat="43.10700697859111" lon="12.987990172402252"><ele>1240.5</ele><time>2026-04-18T08:56:11Z</time></trkpt><trkpt lat="43.10694282280142" lon="12.98802981915862"><ele>1243.0</ele><time>2026-04-18T08:56:12Z</time></trkpt><trkpt lat="43.1068789050437" lon="12.98806329703735"><ele>1243.0</ele><time>2026-04-18T08:56:13Z</time></trkpt><trkpt lat="43.106816100734484" lon="12.988094145238376"><ele>1243.0</ele><time>2026-04-18T08:56:14Z</time></trkpt><trkpt lat="43.10670875018799" lon="12.98817048128659"><ele>1243.0</ele><time>2026-04-18T08:56:16Z</time></trkpt><trkpt lat="43.106594615425074" lon="12.98822101558416"><ele>1243.0</ele><time>2026-04-18T08:56:18Z</time></trkpt><trkpt lat="43.106503630584214" lon="12.988308319690193"><ele>1243.0</ele><time>2026-04-18T08:56:20Z</time></trkpt><trkpt lat="43.106450301464896" lon="12.988358906049331"><ele>1242.6666666666665</ele><time>2026-04-18T08:56:21Z</time></trkpt><trkpt lat="43.10638676618486" lon="12.98838727359351"><ele>1242.3333333333333</ele><time>2026-04-18T08:56:22Z</time></trkpt><trkpt lat="43.106320143994516" lon="12.98839217642272"><ele>1242.0</ele><time>2026-04-18T08:56:23Z</time></trkpt><trkpt lat="43.10624806626447" lon="12.98840542892962"><ele>1241.6666666666667</ele><time>2026-04-18T08:56:24Z</time></trkpt><trkpt lat="43.10616747428628" lon="12.988429375504564"><ele>1241.3333333333335</ele><time>2026-04-18T08:56:25Z</time></trkpt><trkpt lat="43.106078663325874" lon="12.988452809046123"><ele>1241.0</ele><time>2026-04-18T08:56:26Z</time></trkpt><trkpt lat="43.105991151046524" lon="12.98851716722398"><ele>1241.0</ele><time>2026-04-18T08:56:27Z</time></trkpt><trkpt lat="43.10589752441677" lon="12.988566764527787"><ele>1241.0</ele><time>2026-04-18T08:56:28Z</time></trkpt><trkpt lat="43.105806546302105" lon="12.98861605611123"><ele>1241.0</ele><time>2026-04-18T08:56:29Z</time></trkpt><trkpt lat="43.10571537433278" lon="12.988662566184818"><ele>1241.0</ele><time>2026-04-18T08:56:30Z</time></trkpt><trkpt lat="43.10562337262881" lon="12.988709766369444"><ele>1241.0</ele><time>2026-04-18T08:56:31Z</time></trkpt><trkpt lat="43.10552550681635" lon="12.98876088855607"><ele>1240.0</ele><time>2026-04-18T08:56:32Z</time></trkpt><trkpt lat="43.1054205118542" lon="12.988806890277628"><ele>1239.0</ele><time>2026-04-18T08:56:33Z</time></trkpt><trkpt lat="43.10531837062301" lon="12.988847082562472"><ele>1238.0</ele><time>2026-04-18T08:56:34Z</time></trkpt><trkpt lat="43.10521629949025" lon="12.988887772338662"><ele>1237.0</ele><time>2026-04-18T08:56:35Z</time></trkpt><trkpt lat="43.105108152005556" lon="12.988932245778688"><ele>1236.0</ele><time>2026-04-18T08:56:36Z</time></trkpt><trkpt lat="43.10499672827578" lon="12.988970866687666"><ele>1235.6</ele><time>2026-04-18T08:56:37Z</time></trkpt><trkpt lat="43.10489615012708" lon="12.989014371740494"><ele>1235.1999999999998</ele><time>2026-04-18T08:56:38Z</time></trkpt><trkpt lat="43.10480448330155" lon="12.989052249143512"><ele>1234.8000000000002</ele><time>2026-04-18T08:56:39Z</time></trkpt><trkpt lat="43.104712669600076" lon="12.989097063268591"><ele>1234.4</ele><time>2026-04-18T08:56:40Z</time></trkpt><trkpt lat="43.1046179084067" lon="12.98913966214643"><ele>1234.0</ele><time>2026-04-18T08:56:41Z</time></trkpt><trkpt lat="43.104527940729376" lon="12.989188811824782"><ele>1233.0</ele><time>2026-04-18T08:56:42Z</time></trkpt><trkpt lat="43.10443740552019" lon="12.989229762089263"><ele>1232.0</ele><time>2026-04-18T08:56:43Z</time></trkpt><trkpt lat="43.10434159226683" lon="12.989257826391253"><ele>1231.0</ele><time>2026-04-18T08:56:44Z</time></trkpt><trkpt lat="43.10424761780771" lon="12.98928938795426"><ele>1230.0</ele><time>2026-04-18T08:56:45Z</time></trkpt><trkpt lat="43.10415297881825" lon="12.989309743127029"><ele>1229.0</ele><time>2026-04-18T08:56:46Z</time></trkpt><trkpt lat="43.10406391179097" lon="12.989327353960253"><ele>1229.0</ele><time>2026-04-18T08:56:47Z</time></trkpt><trkpt lat="43.103983187722775" lon="12.989332414897401"><ele>1229.0</ele><time>2026-04-18T08:56:48Z</time></trkpt><trkpt lat="43.103898204547704" lon="12.989355484722141"><ele>1229.0</ele><time>2026-04-18T08:56:49Z</time></trkpt><trkpt lat="43.10380964823624" lon="12.989382709194246"><ele>1229.0</ele><time>2026-04-18T08:56:50Z</time></trkpt><trkpt lat="43.10371661034531" lon="12.989414471180037"><ele>1229.0</ele><time>2026-04-18T08:56:51Z</time></trkpt><trkpt lat="43.10361830910984" lon="12.989450134844272"><ele>1229.0</ele><time>2026-04-18T08:56:52Z</time></trkpt><trkpt lat="43.10351960318331" lon="12.989504169446944"><ele>1229.0</ele><time>2026-04-18T08:56:53Z</time></trkpt><trkpt lat="43.103420053992174" lon="12.98955705559877"><ele>1229.0</ele><time>2026-04-18T08:56:54Z</time></trkpt><trkpt lat="43.103313162674795" lon="12.989599664874492"><ele>1229.0</ele><time>2026-04-18T08:56:55Z</time></trkpt><trkpt lat="43.103203804549075" lon="12.989637571032501"><ele>1229.0</ele><time>2026-04-18T08:56:56Z</time></trkpt><trkpt lat="43.103100821275646" lon="12.98966832427892"><ele>1229.8333333333335</ele><time>2026-04-18T08:56:57Z</time></trkpt><trkpt lat="43.1030030843493" lon="12.989697522415184"><ele>1230.6666666666667</ele><time>2026-04-18T08:56:58Z</time></trkpt><trkpt lat="43.10290813827891" lon="12.989721060823824"><ele>1231.5</ele><time>2026-04-18T08:56:59Z</time></trkpt><trkpt lat="43.102823428483696" lon="12.989739305566706"><ele>1232.3333333333333</ele><time>2026-04-18T08:57:00Z</time></trkpt><trkpt lat="43.1027514787223" lon="12.989742067038526"><ele>1233.1666666666665</ele><time>2026-04-18T08:57:01Z</time></trkpt><trkpt lat="43.1026726501526" lon="12.989757963065292"><ele>1234.0</ele><time>2026-04-18T08:57:03Z</time></trkpt><trkpt lat="43.102585223436655" lon="12.989786079370313"><ele>1234.0</ele><time>2026-04-18T08:57:06Z</time></trkpt><trkpt lat="43.10252264987831" lon="12.989811231785813"><ele>1234.0</ele><time>2026-04-18T08:57:08Z</time></trkpt><trkpt lat="43.10246607183697" lon="12.989864851001647"><ele>1234.0</ele><time>2026-04-18T08:57:10Z</time></trkpt><trkpt lat="43.10240898061994" lon="12.989914253053477"><ele>1234.0</ele><time>2026-04-18T08:57:12Z</time></trkpt><trkpt lat="43.10234350037878" lon="12.989973797287009"><ele>1234.0</ele><time>2026-04-18T08:57:14Z</time></trkpt><trkpt lat="43.10226353726543" lon="12.990006333000446"><ele>1234.0</ele><time>2026-04-18T08:57:16Z</time></trkpt><trkpt lat="43.10220437509448" lon="12.990042628004934"><ele>1234.0</ele><time>2026-04-18T08:57:18Z</time></trkpt><trkpt lat="43.10212783514368" lon="12.990055538190571"><ele>1229.3333333333333</ele><time>2026-04-18T08:57:20Z</time></trkpt><trkpt lat="43.102065757232346" lon="12.990077484149632"><ele>1224.6666666666665</ele><time>2026-04-18T08:57:22Z</time></trkpt><trkpt lat="43.1020023797427" lon="12.990152266028264"><ele>1220.0</ele><time>2026-04-18T08:57:25Z</time></trkpt><trkpt lat="43.101938264935306" lon="12.990162025227042"><ele>1215.3333333333333</ele><time>2026-04-18T09:00:01Z</time></trkpt><trkpt lat="43.10186054016325" lon="12.990133012948538"><ele>1210.6666666666667</ele><time>2026-04-18T09:00:05Z</time></trkpt><trkpt lat="43.10178719580796" lon="12.99014610509032"><ele>1206.0</ele><time>2026-04-18T09:00:07Z</time></trkpt><trkpt lat="43.10167923278467" lon="12.990172207878855"><ele>1207.1666666666667</ele><time>2026-04-18T09:00:09Z</time></trkpt><trkpt lat="43.10156188490627" lon="12.990205072759661"><ele>1208.3333333333333</ele><time>2026-04-18T09:00:11Z</time></trkpt><trkpt lat="43.10147328882683" lon="12.990248060527474"><ele>1209.5</ele><time>2026-04-18T09:00:13Z</time></trkpt><trkpt lat="43.101394753747876" lon="12.99028869516767"><ele>1210.6666666666665</ele><time>2026-04-18T09:00:16Z</time></trkpt><trkpt lat="43.101330090786306" lon="12.990322646038127"><ele>1211.8333333333333</ele><time>2026-04-18T09:00:19Z</time></trkpt><trkpt lat="43.10128252737487" lon="12.990391702227067"><ele>1213.0</ele><time>2026-04-18T09:00:22Z</time></trkpt><trkpt lat="43.10123677068426" lon="12.990471456730592"><ele>1213.0</ele><time>2026-04-18T09:00:26Z</time></trkpt><trkpt lat="43.10121016998543" lon="12.990575945781952"><ele>1213.0</ele><time>2026-04-18T09:00:32Z</time></trkpt><trkpt lat="43.101148163666906" lon="12.990529302820836"><ele>1213.0</ele><time>2026-04-18T09:00:34Z</time></trkpt><trkpt lat="43.10106841742229" lon="12.990496892177095"><ele>1213.0</ele><time>2026-04-18T09:00:36Z</time></trkpt><trkpt lat="43.10099842023212" lon="12.990523227266015"><ele>1213.0</ele><time>2026-04-18T09:00:38Z</time></trkpt><trkpt lat="43.10100868777708" lon="12.990621248194655"><ele>1213.0</ele><time>2026-04-18T09:00:43Z</time></trkpt><trkpt lat="43.101067508552745" lon="12.99066692148255"><ele>1213.0</ele><time>2026-04-18T09:00:46Z</time></trkpt><trkpt lat="43.10112352294421" lon="12.990715216193534"><ele>1213.0</ele><time>2026-04-18T09:00:49Z</time></trkpt><trkpt lat="43.10119135586463" lon="12.990763552427081"><ele>1213.0</ele><time>2026-04-18T09:00:52Z</time></trkpt><trkpt lat="43.10125963173156" lon="12.99082380926768"><ele>1213.0</ele><time>2026-04-18T09:00:56Z</time></trkpt><trkpt lat="43.101327530001605" lon="12.990842045399594"><ele>1213.0</ele><time>2026-04-18T09:00:58Z</time></trkpt><trkpt lat="43.101402161410775" lon="12.990854293058906"><ele>1213.0</ele><time>2026-04-18T09:01:00Z</time></trkpt><trkpt lat="43.101494879682825" lon="12.99087544871635"><ele>1213.0</ele><time>2026-04-18T09:01:02Z</time></trkpt><trkpt lat="43.10157853468092" lon="12.990922742940477"><ele>1203.8</ele><time>2026-04-18T09:01:04Z</time></trkpt><trkpt lat="43.10167306356253" lon="12.99094958222303"><ele>1194.6</ele><time>2026-04-18T09:01:06Z</time></trkpt><trkpt lat="43.10177494233788" lon="12.990948994885924"><ele>1185.4</ele><time>2026-04-18T09:01:08Z</time></trkpt><trkpt lat="43.101880614375716" lon="12.99096241516374"><ele>1176.2</ele><time>2026-04-18T09:01:10Z</time></trkpt><trkpt lat="43.10197405604092" lon="12.990998002817852"><ele>1167.0</ele><time>2026-04-18T09:01:12Z</time></trkpt><trkpt lat="43.102066605406584" lon="12.99101898211041"><ele>1167.0</ele><time>2026-04-18T09:01:14Z</time></trkpt><trkpt lat="43.1021558799064" lon="12.991050815975937"><ele>1167.0</ele><time>2026-04-18T09:01:16Z</time></trkpt><trkpt lat="43.10223341365888" lon="12.991097564527918"><ele>1167.0</ele><time>2026-04-18T09:01:18Z</time></trkpt><trkpt lat="43.10229843156621" lon="12.991155833239883"><ele>1167.0</ele><time>2026-04-18T09:01:20Z</time></trkpt><trkpt lat="43.1023678562957" lon="12.99120443662999"><ele>1167.0</ele><time>2026-04-18T09:01:22Z</time></trkpt><trkpt lat="43.10244245997768" lon="12.99125973465553"><ele>1167.0</ele><time>2026-04-18T09:01:24Z</time></trkpt><trkpt lat="43.10253640450477" lon="12.991278003685599"><ele>1167.2</ele><time>2026-04-18T09:01:26Z</time></trkpt><trkpt lat="43.10264079796626" lon="12.991288137786768"><ele>1167.4</ele><time>2026-04-18T09:01:28Z</time></trkpt><trkpt lat="43.1027356978211" lon="12.991323902588304"><ele>1167.6</ele><time>2026-04-18T09:01:30Z</time></trkpt><trkpt lat="43.10282501334615" lon="12.99140565609536"><ele>1167.8</ele><time>2026-04-18T09:01:32Z</time></trkpt><trkpt lat="43.10289695319975" lon="12.991500808120987"><ele>1168.0</ele><time>2026-04-18T09:01:34Z</time></trkpt><trkpt lat="43.10298184657649" lon="12.991580257261113"><ele>1163.0</ele><time>2026-04-18T09:01:36Z</time></trkpt><trkpt lat="43.103065199276784" lon="12.991682173420353"><ele>1158.0</ele><time>2026-04-18T09:01:38Z</time></trkpt><trkpt lat="43.10310213663706" lon="12.991788298210498"><ele>1153.0</ele><time>2026-04-18T09:01:40Z</time></trkpt><trkpt lat="43.103149083178515" lon="12.991873610073304"><ele>1148.0</ele><time>2026-04-18T09:01:42Z</time></trkpt><trkpt lat="43.10312794467276" lon="12.991967448529376"><ele>1143.0</ele><time>2026-04-18T09:01:44Z</time></trkpt><trkpt lat="43.10307573615312" lon="12.992074486175538"><ele>1138.0</ele><time>2026-04-18T09:01:47Z</time></trkpt><trkpt lat="43.1029855215058" lon="12.992145674473138"><ele>1138.0</ele><time>2026-04-18T09:01:49Z</time></trkpt><trkpt lat="43.10290530990609" lon="12.9922355562519"><ele>1138.0</ele><time>2026-04-18T09:01:51Z</time></trkpt><trkpt lat="43.10283889323713" lon="12.992287755551635"><ele>1138.0</ele><time>2026-04-18T09:01:53Z</time></trkpt><trkpt lat="43.10276623067244" lon="12.992351452925865"><ele>1138.0</ele><time>2026-04-18T09:01:55Z</time></trkpt><trkpt lat="43.102712823310554" lon="12.992439824557762"><ele>1138.0</ele><time>2026-04-18T09:01:57Z</time></trkpt><trkpt lat="43.10267300759701" lon="12.992543637291368"><ele>1138.0</ele><time>2026-04-18T09:01:59Z</time></trkpt><trkpt lat="43.10259952284233" lon="12.99255920988967"><ele>1131.5</ele><time>2026-04-18T09:02:02Z</time></trkpt><trkpt lat="43.10251595583999" lon="12.992536636958961"><ele>1125.0</ele><time>2026-04-18T09:02:05Z</time></trkpt><trkpt lat="43.10243424320723" lon="12.992523199693364"><ele>1118.5</ele><time>2026-04-18T09:02:08Z</time></trkpt><trkpt lat="43.102365432574736" lon="12.99253786680894"><ele>1112.0</ele><time>2026-04-18T09:02:12Z</time></trkpt><trkpt lat="43.10228530766973" lon="12.992614224188578"><ele>1105.5</ele><time>2026-04-18T09:02:15Z</time></trkpt><trkpt lat="43.10221048519101" lon="12.992658830001185"><ele>1099.0</ele><time>2026-04-18T09:02:17Z</time></trkpt><trkpt lat="43.10214722791602" lon="12.992691876451424"><ele>1099.0</ele><time>2026-04-18T09:02:19Z</time></trkpt><trkpt lat="43.10206006712168" lon="12.992768881286684"><ele>1099.0</ele><time>2026-04-18T09:02:21Z</time></trkpt><trkpt lat="43.102006980896945" lon="12.992828742656183"><ele>1099.0</ele><time>2026-04-18T09:02:23Z</time></trkpt><trkpt lat="43.10194043204817" lon="12.992876999710564"><ele>1099.0</ele><time>2026-04-18T09:02:26Z</time></trkpt><trkpt lat="43.10185005079936" lon="12.99291591596093"><ele>1099.0</ele><time>2026-04-18T09:02:29Z</time></trkpt><trkpt lat="43.101777904244386" lon="12.992944200675161"><ele>1099.0</ele><time>2026-04-18T09:02:32Z</time></trkpt><trkpt lat="43.1017003356008" lon="12.99300082763965"><ele>1099.0</ele><time>2026-04-18T09:02:35Z</time></trkpt><trkpt lat="43.10165899345564" lon="12.993070455742695"><ele>1099.0</ele><time>2026-04-18T09:02:38Z</time></trkpt><trkpt lat="43.101595907563066" lon="12.993169560238513"><ele>1099.0</ele><time>2026-04-18T09:02:42Z</time></trkpt><trkpt lat="43.10157086112737" lon="12.993264627853465"><ele>1099.0</ele><time>2026-04-18T09:02:44Z</time></trkpt><trkpt lat="43.10152000047297" lon="12.993344382136991"><ele>1099.0</ele><time>2026-04-18T09:02:46Z</time></trkpt><trkpt lat="43.101446846584274" lon="12.993409042603334"><ele>1099.0</ele><time>2026-04-18T09:02:48Z</time></trkpt><trkpt lat="43.10140042165375" lon="12.993499710126667"><ele>1100.2857142857142</ele><time>2026-04-18T09:02:51Z</time></trkpt><trkpt lat="43.10139375948775" lon="12.993609928801089"><ele>1101.5714285714284</ele><time>2026-04-18T09:02:55Z</time></trkpt><trkpt lat="43.10137873462018" lon="12.993694347829734"><ele>1102.857142857143</ele><time>2026-04-18T09:03:02Z</time></trkpt><trkpt lat="43.10133340788369" lon="12.993754397833323"><ele>1104.142857142857</ele><time>2026-04-18T09:03:09Z</time></trkpt><trkpt lat="43.10128754215238" lon="12.993814163305029"><ele>1105.4285714285713</ele><time>2026-04-18T09:03:15Z</time></trkpt><trkpt lat="43.101260848443715" lon="12.99389777851898"><ele>1106.7142857142858</ele><time>2026-04-18T09:03:19Z</time></trkpt><trkpt lat="43.10127958615252" lon="12.993983394693196"><ele>1108.0</ele><time>2026-04-18T09:03:24Z</time></trkpt><trkpt lat="43.10131417812471" lon="12.994074266140391"><ele>1108.0</ele><time>2026-04-18T09:03:32Z</time></trkpt><trkpt lat="43.10133598412824" lon="12.994162016774467"><ele>1108.0</ele><time>2026-04-18T09:03:35Z</time></trkpt><trkpt lat="43.10136423738174" lon="12.994274033795742"><ele>1108.0</ele><time>2026-04-18T09:03:40Z</time></trkpt><trkpt lat="43.101380874525354" lon="12.994373542604"><ele>1108.0</ele><time>2026-04-18T09:03:42Z</time></trkpt><trkpt lat="43.101388725452054" lon="12.994459571107509"><ele>1108.0</ele><time>2026-04-18T09:03:45Z</time></trkpt><trkpt lat="43.10139513876034" lon="12.994548444545421"><ele>1108.0</ele><time>2026-04-18T09:03:48Z</time></trkpt><trkpt lat="43.10143840852797" lon="12.99467226165652"><ele>1107.0</ele><time>2026-04-18T09:03:52Z</time></trkpt><trkpt lat="43.101479411608075" lon="12.994743138613554"><ele>1106.0</ele><time>2026-04-18T09:03:55Z</time></trkpt><trkpt lat="43.10152533590446" lon="12.994820105131227"><ele>1105.0</ele><time>2026-04-18T09:03:59Z</time></trkpt><trkpt lat="43.10157407125822" lon="12.994877551826153"><ele>1104.0</ele><time>2026-04-18T09:04:00Z</time></trkpt><trkpt lat="43.10161079518361" lon="12.994977507175625"><ele>1103.0</ele><time>2026-04-18T09:04:04Z</time></trkpt><trkpt lat="43.10157623684046" lon="12.994903104578292"><ele>1102.0</ele><time>2026-04-18T09:04:49Z</time></trkpt><trkpt lat="43.1015233034619" lon="12.994850222736353"><ele>1101.0</ele><time>2026-04-18T09:04:56Z</time></trkpt><trkpt lat="43.101563496144735" lon="12.994955752682957"><ele>1100.142857142857</ele><time>2026-04-18T09:05:52Z</time></trkpt><trkpt lat="43.10156712327432" lon="12.995047880576893"><ele>1099.2857142857142</ele><time>2026-04-18T09:06:01Z</time></trkpt><trkpt lat="43.10156167330776" lon="12.995143654140962"><ele>1098.4285714285713</ele><time>2026-04-18T09:06:06Z</time></trkpt><trkpt lat="43.10155391743534" lon="12.99523290434524"><ele>1097.5714285714284</ele><time>2026-04-18T09:06:19Z</time></trkpt><trkpt lat="43.10151782384108" lon="12.99532606801269"><ele>1096.7142857142858</ele><time>2026-04-18T09:07:03.001Z</time></trkpt><trkpt lat="43.10158163706845" lon="12.995397360127772"><ele>1095.8571428571427</ele><time>2026-04-18T09:07:32Z</time></trkpt><trkpt lat="43.10158562514749" lon="12.995494502075495"><ele>1095.0</ele><time>2026-04-18T09:07:36Z</time></trkpt><trkpt lat="43.101592050214016" lon="12.995594216928607"><ele>1088.142857142857</ele><time>2026-04-18T09:07:39Z</time></trkpt><trkpt lat="43.101661213867" lon="12.995561259693934"><ele>1081.2857142857142</ele><time>2026-04-18T09:07:55Z</time></trkpt><trkpt lat="43.10171000954466" lon="12.995488439777736"><ele>1074.4285714285716</ele><time>2026-04-18T09:08:09Z</time></trkpt><trkpt lat="43.101737801790044" lon="12.995573570334123"><ele>1067.5714285714284</ele><time>2026-04-18T09:08:23Z</time></trkpt><trkpt lat="43.10177993251782" lon="12.99564749901217"><ele>1060.7142857142858</ele><time>2026-04-18T09:08:28Z</time></trkpt><trkpt lat="43.10187229253064" lon="12.99564150587192"><ele>1053.857142857143</ele><time>2026-04-18T09:09:36Z</time></trkpt><trkpt lat="43.10191494101201" lon="12.99571598185216"><ele>1047.0</ele><time>2026-04-18T09:09:40Z</time></trkpt><trkpt lat="43.101961095946365" lon="12.995783769834867"><ele>1047.0000000000002</ele><time>2026-04-18T09:09:56Z</time></trkpt><trkpt lat="43.10203921762786" lon="12.995777957539875"><ele>1047.0</ele><time>2026-04-18T09:09:59Z</time></trkpt><trkpt lat="43.102106346023035" lon="12.995826372286077"><ele>1047.0</ele><time>2026-04-18T09:10:03Z</time></trkpt><trkpt lat="43.10217066346896" lon="12.995862588119916"><ele>1047.0</ele><time>2026-04-18T09:10:06Z</time></trkpt><trkpt lat="43.10221349839072" lon="12.995938169811803"><ele>1047.0</ele><time>2026-04-18T09:10:09Z</time></trkpt><trkpt lat="43.102246888543654" lon="12.996021714900014"><ele>1047.0000000000002</ele><time>2026-04-18T09:10:12Z</time></trkpt><trkpt lat="43.10226967300224" lon="12.996122490883351"><ele>1047.0</ele><time>2026-04-18T09:10:15Z</time></trkpt><trkpt lat="43.10229930070303" lon="12.996207540681095"><ele>1045.2857142857144</ele><time>2026-04-18T09:10:18Z</time></trkpt><trkpt lat="43.102330336144014" lon="12.996287253158657"><ele>1043.5714285714287</ele><time>2026-04-18T09:10:21Z</time></trkpt><trkpt lat="43.102388757077335" lon="12.996325703312209"><ele>1041.857142857143</ele><time>2026-04-18T09:10:25Z</time></trkpt><trkpt lat="43.10244163455206" lon="12.99625994398177"><ele>1040.1428571428573</ele><time>2026-04-18T09:10:30Z</time></trkpt><trkpt lat="43.10245994637548" lon="12.99617110855507"><ele>1038.4285714285716</ele><time>2026-04-18T09:10:36Z</time></trkpt><trkpt lat="43.102515874544096" lon="12.996103958146247"><ele>1036.7142857142858</ele><time>2026-04-18T09:10:40Z</time></trkpt><trkpt lat="43.10256037272623" lon="12.996031598816757"><ele>1035.0</ele><time>2026-04-18T09:10:44Z</time></trkpt><trkpt lat="43.1026281098269" lon="12.996020561581563"><ele>1027.8333333333333</ele><time>2026-04-18T09:10:51Z</time></trkpt><trkpt lat="43.102692214480754" lon="12.995992907973994"><ele>1020.6666666666667</ele><time>2026-04-18T09:10:55Z</time></trkpt><trkpt lat="43.10276441756204" lon="12.99599800663167"><ele>1013.5</ele><time>2026-04-18T09:10:58Z</time></trkpt><trkpt lat="43.10285003996015" lon="12.995979587185573"><ele>1006.3333333333334</ele><time>2026-04-18T09:11:02Z</time></trkpt><trkpt lat="43.102923701879995" lon="12.9959558622937"><ele>999.1666666666667</ele><time>2026-04-18T09:11:05Z</time></trkpt><trkpt lat="43.103000583700045" lon="12.99593953788264"><ele>992.0</ele><time>2026-04-18T09:11:08Z</time></trkpt><trkpt lat="43.10307667993731" lon="12.995911080705332"><ele>992.0</ele><time>2026-04-18T09:11:10Z</time></trkpt><trkpt lat="43.10313433842325" lon="12.995997375199718"><ele>992.0000000000001</ele><time>2026-04-18T09:11:14Z</time></trkpt><trkpt lat="43.103183529864054" lon="12.996052783746633"><ele>992.0</ele><time>2026-04-18T09:11:16Z</time></trkpt><trkpt lat="43.10324267811597" lon="12.996083323537965"><ele>992.0</ele><time>2026-04-18T09:11:18Z</time></trkpt><trkpt lat="43.10329734789353" lon="12.99614081187776"><ele>992.0000000000001</ele><time>2026-04-18T09:11:20Z</time></trkpt><trkpt lat="43.103349912399494" lon="12.996203015677615"><ele>992.0</ele><time>2026-04-18T09:11:22Z</time></trkpt><trkpt lat="43.10340210268348" lon="12.99629328168065"><ele>992.0</ele><time>2026-04-18T09:11:24Z</time></trkpt><trkpt lat="43.103456156895675" lon="12.996344364591984"><ele>986.3333333333334</ele><time>2026-04-18T09:11:27Z</time></trkpt><trkpt lat="43.103509468424846" lon="12.996420093867364"><ele>980.6666666666667</ele><time>2026-04-18T09:11:37Z</time></trkpt><trkpt lat="43.103476272332784" lon="12.996509555750002"><ele>975.0</ele><time>2026-04-18T09:11:41Z</time></trkpt><trkpt lat="43.10344126291275" lon="12.996600774811784"><ele>969.3333333333333</ele><time>2026-04-18T09:11:45Z</time></trkpt><trkpt lat="43.10342531794221" lon="12.996716690586204"><ele>963.6666666666666</ele><time>2026-04-18T09:11:48Z</time></trkpt><trkpt lat="43.10340303886868" lon="12.996823410629895"><ele>958.0</ele><time>2026-04-18T09:11:51Z</time></trkpt><trkpt lat="43.10336457189778" lon="12.996948438079528"><ele>952.8333333333333</ele><time>2026-04-18T09:11:54Z</time></trkpt><trkpt lat="43.103336735381454" lon="12.997033519189248"><ele>947.6666666666666</ele><time>2026-04-18T09:11:56Z</time></trkpt><trkpt lat="43.10331424497096" lon="12.997129463219188"><ele>942.5</ele><time>2026-04-18T09:11:58Z</time></trkpt><trkpt lat="43.10328707088628" lon="12.997243020685222"><ele>937.3333333333333</ele><time>2026-04-18T09:12:01Z</time></trkpt><trkpt lat="43.10326669164199" lon="12.997363356935814"><ele>932.1666666666666</ele><time>2026-04-18T09:12:04Z</time></trkpt><trkpt lat="43.10325578074841" lon="12.997450659712364"><ele>927.0</ele><time>2026-04-18T09:12:07Z</time></trkpt><trkpt lat="43.10322774711574" lon="12.997562158464719"><ele>927.0</ele><time>2026-04-18T09:12:10Z</time></trkpt><trkpt lat="43.103199729606665" lon="12.997646355378192"><ele>927.0</ele><time>2026-04-18T09:12:12Z</time></trkpt><trkpt lat="43.10316718726561" lon="12.997752127589646"><ele>927.0</ele><time>2026-04-18T09:12:14Z</time></trkpt><trkpt lat="43.10311925433886" lon="12.997865858610975"><ele>927.0</ele><time>2026-04-18T09:12:16Z</time></trkpt><trkpt lat="43.10308594362899" lon="12.99797083650512"><ele>927.0</ele><time>2026-04-18T09:12:18Z</time></trkpt><trkpt lat="43.10305677441623" lon="12.998058841829721"><ele>927.0</ele><time>2026-04-18T09:12:20Z</time></trkpt><trkpt lat="43.10302991534944" lon="12.998178231677795"><ele>927.0</ele><time>2026-04-18T09:12:22Z</time></trkpt><trkpt lat="43.10298243831979" lon="12.99825726838534"><ele>927.0</ele><time>2026-04-18T09:12:23Z</time></trkpt><trkpt lat="43.10294200506992" lon="12.998336818979135"><ele>927.0</ele><time>2026-04-18T09:12:24Z</time></trkpt><trkpt lat="43.102873261581784" lon="12.99845268843188"><ele>927.0</ele><time>2026-04-18T09:12:26Z</time></trkpt><trkpt lat="43.10280726998795" lon="12.99857180920732"><ele>927.0</ele><time>2026-04-18T09:12:28Z</time></trkpt><trkpt lat="43.10274132073851" lon="12.998698742448294"><ele>917.75</ele><time>2026-04-18T09:12:30Z</time></trkpt><trkpt lat="43.102682572191554" lon="12.998839246962268"><ele>908.5</ele><time>2026-04-18T09:12:32Z</time></trkpt><trkpt lat="43.10261969686253" lon="12.99895983247077"><ele>899.25</ele><time>2026-04-18T09:12:34Z</time></trkpt><trkpt lat="43.102537765876214" lon="12.99909398180963"><ele>890.0</ele><time>2026-04-18T09:12:36Z</time></trkpt><trkpt lat="43.1024617102738" lon="12.999211551358474"><ele>891.4</ele><time>2026-04-18T09:12:38Z</time></trkpt><trkpt lat="43.10239809979553" lon="12.999310599812553"><ele>892.8</ele><time>2026-04-18T09:12:40Z</time></trkpt><trkpt lat="43.102388230877175" lon="12.99944842399496"><ele>894.2</ele><time>2026-04-18T09:12:42Z</time></trkpt><trkpt lat="43.102335232435536" lon="12.999595018273263"><ele>895.6</ele><time>2026-04-18T09:12:44Z</time></trkpt><trkpt lat="43.102310659567934" lon="12.999683896466326"><ele>897.0</ele><time>2026-04-18T09:12:45Z</time></trkpt><trkpt lat="43.10228766404325" lon="12.999804734127666"><ele>897.0</ele><time>2026-04-18T09:12:47Z</time></trkpt><trkpt lat="43.10223573514394" lon="12.999912270002952"><ele>897.0</ele><time>2026-04-18T09:12:49Z</time></trkpt><trkpt lat="43.10219882021467" lon="13.00002931118225"><ele>897.0</ele><time>2026-04-18T09:12:51Z</time></trkpt><trkpt lat="43.10215039164893" lon="13.000112689927757"><ele>897.0</ele><time>2026-04-18T09:12:53Z</time></trkpt><trkpt lat="43.102102850754676" lon="13.00024694666803"><ele>897.0</ele><time>2026-04-18T09:12:55Z</time></trkpt><trkpt lat="43.10205529879815" lon="13.000312914970106"><ele>897.0</ele><time>2026-04-18T09:12:56Z</time></trkpt><trkpt lat="43.10197233269076" lon="13.000432618820598"><ele>897.0</ele><time>2026-04-18T09:12:58Z</time></trkpt><trkpt lat="43.101908821675686" lon="13.00054896579851"><ele>897.0</ele><time>2026-04-18T09:13:00Z</time></trkpt><trkpt lat="43.10184064163298" lon="13.000646496500197"><ele>897.0</ele><time>2026-04-18T09:13:02Z</time></trkpt><trkpt lat="43.101788483947935" lon="13.000752428884068"><ele>897.0</ele><time>2026-04-18T09:13:04Z</time></trkpt><trkpt lat="43.101692843134224" lon="13.000823083730554"><ele>897.0</ele><time>2026-04-18T09:13:06Z</time></trkpt><trkpt lat="43.10159828093615" lon="13.000883889751325"><ele>894.6666666666666</ele><time>2026-04-18T09:13:08Z</time></trkpt><trkpt lat="43.10153485017662" lon="13.000915015534904"><ele>892.3333333333333</ele><time>2026-04-18T09:13:09Z</time></trkpt><trkpt lat="43.10145128921813" lon="13.000962639217994"><ele>890.0</ele><time>2026-04-18T09:13:10Z</time></trkpt><trkpt lat="43.10137097802393" lon="13.000990424976655"><ele>887.6666666666666</ele><time>2026-04-18T09:13:11Z</time></trkpt><trkpt lat="43.101287179166384" lon="13.00101102886157"><ele>885.3333333333333</ele><time>2026-04-18T09:13:12Z</time></trkpt><trkpt lat="43.1012195496223" lon="13.001050083774379"><ele>883.0</ele><time>2026-04-18T09:13:13Z</time></trkpt><trkpt lat="43.10115332840676" lon="13.001093048484146"><ele>882.9999999999999</ele><time>2026-04-18T09:13:14Z</time></trkpt><trkpt lat="43.10109141976571" lon="13.001113423045371"><ele>883.0</ele><time>2026-04-18T09:13:15Z</time></trkpt><trkpt lat="43.101027487829384" lon="13.001170773455735"><ele>883.0</ele><time>2026-04-18T09:13:17Z</time></trkpt><trkpt lat="43.10098555852552" lon="13.001255493184058"><ele>883.0</ele><time>2026-04-18T09:13:19Z</time></trkpt><trkpt lat="43.100929776097125" lon="13.001336248952944"><ele>882.9999999999999</ele><time>2026-04-18T09:13:21Z</time></trkpt><trkpt lat="43.10083222336329" lon="13.001453727775974"><ele>883.0</ele><time>2026-04-18T09:13:23Z</time></trkpt><trkpt lat="43.100741213443385" lon="13.001508211567712"><ele>883.8571428571429</ele><time>2026-04-18T09:13:25Z</time></trkpt><trkpt lat="43.10067054384987" lon="13.001549690946263"><ele>884.7142857142857</ele><time>2026-04-18T09:13:27Z</time></trkpt><trkpt lat="43.10067127990745" lon="13.001661586805513"><ele>885.5714285714286</ele><time>2026-04-18T09:13:32Z</time></trkpt><trkpt lat="43.100723735639434" lon="13.001722378311047"><ele>886.4285714285714</ele><time>2026-04-18T09:13:34Z</time></trkpt><trkpt lat="43.100721576774504" lon="13.001808858050188"><ele>887.2857142857142</ele><time>2026-04-18T09:13:36Z</time></trkpt><trkpt lat="43.10068029144951" lon="13.001892025231081"><ele>888.1428571428571</ele><time>2026-04-18T09:13:38Z</time></trkpt><trkpt lat="43.10066158246731" lon="13.001994918374805"><ele>889.0</ele><time>2026-04-18T09:13:40Z</time></trkpt><trkpt lat="43.1005919061541" lon="13.00202744309381"><ele>882.0</ele><time>2026-04-18T09:13:42Z</time></trkpt><trkpt lat="43.100576275648834" lon="13.002164011922059"><ele>875.0000000000001</ele><time>2026-04-18T09:13:44Z</time></trkpt><trkpt lat="43.10055382957184" lon="13.002269355828517"><ele>868.0000000000001</ele><time>2026-04-18T09:13:46Z</time></trkpt><trkpt lat="43.10052637041608" lon="13.002408743643246"><ele>861.0</ele><time>2026-04-18T09:13:48Z</time></trkpt><trkpt lat="43.10047523122344" lon="13.002563995195349"><ele>854.0</ele><time>2026-04-18T09:13:50Z</time></trkpt><trkpt lat="43.10043698595637" lon="13.00266018176515"><ele>848.0</ele><time>2026-04-18T09:13:52Z</time></trkpt><trkpt lat="43.10040125919115" lon="13.002744101648183"><ele>842.0000000000001</ele><time>2026-04-18T09:13:54Z</time></trkpt><trkpt lat="43.10038695232134" lon="13.002847292116423"><ele>836.0</ele><time>2026-04-18T09:13:55Z</time></trkpt><trkpt lat="43.100349342116566" lon="13.003006517934597"><ele>830.0</ele><time>2026-04-18T09:13:56Z</time></trkpt><trkpt lat="43.10031816101941" lon="13.003159006962447"><ele>824.0</ele><time>2026-04-18T09:13:57Z</time></trkpt><trkpt lat="43.10029359050971" lon="13.003288083769505"><ele>818.0000000000001</ele><time>2026-04-18T09:13:58Z</time></trkpt><trkpt lat="43.10025720523363" lon="13.00340393672135"><ele>812.0</ele><time>2026-04-18T09:13:59Z</time></trkpt><trkpt lat="43.10023207895003" lon="13.003509532772105"><ele>806.0</ele><time>2026-04-18T09:14:00Z</time></trkpt><trkpt lat="43.10019683499232" lon="13.0036783687248"><ele>800.0</ele><time>2026-04-18T09:14:02Z</time></trkpt><trkpt lat="43.100181052223434" lon="13.003765793789176"><ele>794.0000000000001</ele><time>2026-04-18T09:14:03Z</time></trkpt><trkpt lat="43.100169528132554" lon="13.003869216060805"><ele>788.0</ele><time>2026-04-18T09:14:04Z</time></trkpt><trkpt lat="43.10016693452333" lon="13.003990802887978"><ele>788.0000000000001</ele><time>2026-04-18T09:14:05Z</time></trkpt><trkpt lat="43.10016958464927" lon="13.004097238305903"><ele>788.0</ele><time>2026-04-18T09:14:06Z</time></trkpt><trkpt lat="43.10016126818918" lon="13.00421693281091"><ele>788.0</ele><time>2026-04-18T09:14:07Z</time></trkpt><trkpt lat="43.10015277085905" lon="13.004348544821577"><ele>788.0</ele><time>2026-04-18T09:14:08Z</time></trkpt><trkpt lat="43.10013853132476" lon="13.004453411705201"><ele>788.0000000000001</ele><time>2026-04-18T09:14:09Z</time></trkpt><trkpt lat="43.10012523156833" lon="13.004553860482549"><ele>788.0</ele><time>2026-04-18T09:14:10Z</time></trkpt><trkpt lat="43.10010746073196" lon="13.004658715458406"><ele>783.5000000000001</ele><time>2026-04-18T09:14:11Z</time></trkpt><trkpt lat="43.10010774058836" lon="13.004753940268387"><ele>779.0</ele><time>2026-04-18T09:14:12Z</time></trkpt><trkpt lat="43.100132809457556" lon="13.004843266124098"><ele>774.5</ele><time>2026-04-18T09:14:13Z</time></trkpt><trkpt lat="43.10016550592182" lon="13.004948027138106"><ele>770.0</ele><time>2026-04-18T09:14:14Z</time></trkpt><trkpt lat="43.10021101227708" lon="13.005034086179542"><ele>765.5</ele><time>2026-04-18T09:14:15Z</time></trkpt><trkpt lat="43.10026257177651" lon="13.00515730592824"><ele>761.0</ele><time>2026-04-18T09:14:17Z</time></trkpt><trkpt lat="43.10028331674093" lon="13.005296442087314"><ele>757.1666666666666</ele><time>2026-04-18T09:14:19Z</time></trkpt><trkpt lat="43.100258675322074" lon="13.005450100732867"><ele>753.3333333333333</ele><time>2026-04-18T09:14:21Z</time></trkpt><trkpt lat="43.100244158480635" lon="13.005541685352078"><ele>749.5</ele><time>2026-04-18T09:14:22Z</time></trkpt><trkpt lat="43.10024990218682" lon="13.005639718823202"><ele>745.6666666666666</ele><time>2026-04-18T09:14:24Z</time></trkpt><trkpt lat="43.10032803090005" lon="13.005709373764727"><ele>741.8333333333334</ele><time>2026-04-18T09:14:26Z</time></trkpt><trkpt lat="43.100379524434246" lon="13.005779195970906"><ele>738.0</ele><time>2026-04-18T09:14:28Z</time></trkpt><trkpt lat="43.100405541074494" lon="13.005858010419312"><ele>735.7142857142857</ele><time>2026-04-18T09:14:30Z</time></trkpt><trkpt lat="43.10043398730277" lon="13.005940028750741"><ele>733.4285714285713</ele><time>2026-04-18T09:14:32Z</time></trkpt><trkpt lat="43.10048104479382" lon="13.006045349305982"><ele>731.1428571428571</ele><time>2026-04-18T09:14:34Z</time></trkpt><trkpt lat="43.10050996299385" lon="13.006123754861754"><ele>728.8571428571429</ele><time>2026-04-18T09:14:38Z</time></trkpt><trkpt lat="43.10049950718876" lon="13.006034603634566"><ele>726.5714285714286</ele><time>2026-04-18T09:15:59Z</time></trkpt><trkpt lat="43.100496186179626" lon="13.0061223353451"><ele>724.2857142857143</ele><time>2026-04-18T09:16:23Z</time></trkpt><trkpt lat="43.10043138054158" lon="13.006111017649713"><ele>722.0</ele><time>2026-04-18T09:19:38.001Z</time></trkpt><trkpt lat="43.100506934861755" lon="13.006133219331005"><ele>722.0</ele><time>2026-04-18T09:21:38Z</time></trkpt><trkpt lat="43.100463239677765" lon="13.006231486538866"><ele>722.0</ele><time>2026-04-18T09:22:08Z</time></trkpt><trkpt lat="43.10036224629771" lon="13.006263229728201"><ele>722.0</ele><time>2026-04-18T09:22:10Z</time></trkpt><trkpt lat="43.100297996717764" lon="13.006296011315666"><ele>722.0</ele><time>2026-04-18T09:22:11Z</time></trkpt><trkpt lat="43.100234042550504" lon="13.006349550107156"><ele>722.0</ele><time>2026-04-18T09:22:12Z</time></trkpt><trkpt lat="43.100136749961585" lon="13.006442816968217"><ele>722.0</ele><time>2026-04-18T09:22:14Z</time></trkpt><trkpt lat="43.100072313427226" lon="13.006491484165746"><ele>722.0</ele><time>2026-04-18T09:22:15Z</time></trkpt><trkpt lat="43.09999480273642" lon="13.006547056831963"><ele>722.0</ele><time>2026-04-18T09:22:16Z</time></trkpt><trkpt lat="43.09991627938746" lon="13.006633111666831"><ele>722.0</ele><time>2026-04-18T09:22:17Z</time></trkpt><trkpt lat="43.09983527984821" lon="13.006666675658579"><ele>722.0</ele><time>2026-04-18T09:22:18Z</time></trkpt><trkpt lat="43.099742369407316" lon="13.006709181081611"><ele>722.0</ele><time>2026-04-18T09:22:19Z</time></trkpt><trkpt lat="43.09964198966905" lon="13.006698943918071"><ele>722.8</ele><time>2026-04-18T09:22:20Z</time></trkpt><trkpt lat="43.09955372834163" lon="13.006671652390276"><ele>723.6</ele><time>2026-04-18T09:22:21Z</time></trkpt><trkpt lat="43.09947865142761" lon="13.006609784772571"><ele>724.4</ele><time>2026-04-18T09:22:22Z</time></trkpt><trkpt lat="43.09938951502977" lon="13.006563676466916"><ele>725.1999999999999</ele><time>2026-04-18T09:22:23Z</time></trkpt><trkpt lat="43.09928084982713" lon="13.006554343108998"><ele>726.0</ele><time>2026-04-18T09:22:24Z</time></trkpt><trkpt lat="43.0992029513434" lon="13.006481631176731"><ele>726.0</ele><time>2026-04-18T09:22:25Z</time></trkpt><trkpt lat="43.09911994800986" lon="13.006428956706426"><ele>726.0</ele><time>2026-04-18T09:22:26Z</time></trkpt><trkpt lat="43.09903041807232" lon="13.00639622022178"><ele>726.0</ele><time>2026-04-18T09:22:27Z</time></trkpt><trkpt lat="43.098955324034954" lon="13.00633435197099"><ele>726.0</ele><time>2026-04-18T09:22:28Z</time></trkpt><trkpt lat="43.09887604955507" lon="13.006269535190587"><ele>726.0</ele><time>2026-04-18T09:22:29Z</time></trkpt><trkpt lat="43.098794319603904" lon="13.006215245518476"><ele>725.0</ele><time>2026-04-18T09:22:30Z</time></trkpt><trkpt lat="43.098710432956935" lon="13.00615759951826"><ele>724.0</ele><time>2026-04-18T09:22:31Z</time></trkpt><trkpt lat="43.09862494347721" lon="13.006124503211895"><ele>723.0</ele><time>2026-04-18T09:22:32Z</time></trkpt><trkpt lat="43.09853681227952" lon="13.006053664651468"><ele>722.0</ele><time>2026-04-18T09:22:33Z</time></trkpt><trkpt lat="43.09843744095001" lon="13.00600817077426"><ele>721.0</ele><time>2026-04-18T09:22:34Z</time></trkpt><trkpt lat="43.09833823351466" lon="13.005964052571011"><ele>719.8</ele><time>2026-04-18T09:22:35Z</time></trkpt><trkpt lat="43.09823489253212" lon="13.005921858041203"><ele>718.5999999999999</ele><time>2026-04-18T09:22:36Z</time></trkpt><trkpt lat="43.098128259990446" lon="13.005874890700683"><ele>717.4</ele><time>2026-04-18T09:22:37Z</time></trkpt><trkpt lat="43.0980232161506" lon="13.005816404803536"><ele>716.2</ele><time>2026-04-18T09:22:38Z</time></trkpt><trkpt lat="43.09793066095826" lon="13.005757777416038"><ele>715.0</ele><time>2026-04-18T09:22:39Z</time></trkpt><trkpt lat="43.09784955688958" lon="13.005698257818484"><ele>715.0</ele><time>2026-04-18T09:22:40Z</time></trkpt><trkpt lat="43.097777814294545" lon="13.00562780275273"><ele>715.0</ele><time>2026-04-18T09:22:41Z</time></trkpt><trkpt lat="43.09771691888669" lon="13.005571236889413"><ele>715.0</ele><time>2026-04-18T09:22:42Z</time></trkpt><trkpt lat="43.097664080758115" lon="13.00547538653148"><ele>715.0</ele><time>2026-04-18T09:22:43Z</time></trkpt><trkpt lat="43.09762712555609" lon="13.005350363284903"><ele>715.0</ele><time>2026-04-18T09:22:44Z</time></trkpt><trkpt lat="43.09761937251531" lon="13.005204433381023"><ele>715.0</ele><time>2026-04-18T09:22:45Z</time></trkpt><trkpt lat="43.09761038597135" lon="13.005059802286784"><ele>715.0</ele><time>2026-04-18T09:22:46Z</time></trkpt><trkpt lat="43.09758328705709" lon="13.00493154762947"><ele>715.0</ele><time>2026-04-18T09:22:47Z</time></trkpt><trkpt lat="43.09754911731364" lon="13.004792933396201"><ele>715.0</ele><time>2026-04-18T09:22:48Z</time></trkpt><trkpt lat="43.097504293183" lon="13.004652923217153"><ele>715.0</ele><time>2026-04-18T09:22:49Z</time></trkpt><trkpt lat="43.09743986553143" lon="13.004526317729908"><ele>712.25</ele><time>2026-04-18T09:22:50Z</time></trkpt><trkpt lat="43.09735412978172" lon="13.00440268063688"><ele>709.5</ele><time>2026-04-18T09:22:51Z</time></trkpt><trkpt lat="43.09726409843915" lon="13.00428563610436"><ele>706.75</ele><time>2026-04-18T09:22:52Z</time></trkpt><trkpt lat="43.09717777830584" lon="13.004174767974312"><ele>704.0</ele><time>2026-04-18T09:22:53Z</time></trkpt><trkpt lat="43.09708864757769" lon="13.004067964042937"><ele>710.0</ele><time>2026-04-18T09:22:54Z</time></trkpt><trkpt lat="43.09700110564309" lon="13.003967451070055"><ele>716.0</ele><time>2026-04-18T09:22:55Z</time></trkpt><trkpt lat="43.096912602319456" lon="13.00386835913337"><ele>722.0</ele><time>2026-04-18T09:22:56Z</time></trkpt><trkpt lat="43.096818267184915" lon="13.003763779213228"><ele>728.0</ele><time>2026-04-18T09:22:57Z</time></trkpt><trkpt lat="43.09672028323491" lon="13.003676046619884"><ele>728.0</ele><time>2026-04-18T09:22:58Z</time></trkpt><trkpt lat="43.096633144998265" lon="13.003571797638726"><ele>728.0</ele><time>2026-04-18T09:22:59Z</time></trkpt><trkpt lat="43.096548292108494" lon="13.003464140523617"><ele>728.0</ele><time>2026-04-18T09:23:00Z</time></trkpt><trkpt lat="43.096461408287595" lon="13.003369451663534"><ele>728.0</ele><time>2026-04-18T09:23:01Z</time></trkpt><trkpt lat="43.09636918303072" lon="13.00329156986367"><ele>735.75</ele><time>2026-04-18T09:23:02Z</time></trkpt><trkpt lat="43.09626610642477" lon="13.003220133588723"><ele>743.5</ele><time>2026-04-18T09:23:03Z</time></trkpt><trkpt lat="43.096144969692354" lon="13.003153597975983"><ele>751.25</ele><time>2026-04-18T09:23:04Z</time></trkpt><trkpt lat="43.09602401805927" lon="13.003133755766001"><ele>759.0</ele><time>2026-04-18T09:23:05Z</time></trkpt><trkpt lat="43.09590460905948" lon="13.003150824447141"><ele>759.0</ele><time>2026-04-18T09:23:06Z</time></trkpt><trkpt lat="43.09578448569208" lon="13.003205940773904"><ele>759.0</ele><time>2026-04-18T09:23:07Z</time></trkpt><trkpt lat="43.09566998140164" lon="13.00329353826588"><ele>759.0</ele><time>2026-04-18T09:23:08Z</time></trkpt><trkpt lat="43.09557363862834" lon="13.003403266033423"><ele>759.0</ele><time>2026-04-18T09:23:09Z</time></trkpt><trkpt lat="43.095495277558385" lon="13.003510974333151"><ele>756.75</ele><time>2026-04-18T09:23:10Z</time></trkpt><trkpt lat="43.095410670587604" lon="13.003629577086555"><ele>754.5</ele><time>2026-04-18T09:23:11Z</time></trkpt><trkpt lat="43.095323546549" lon="13.003743176914817"><ele>752.25</ele><time>2026-04-18T09:23:12Z</time></trkpt><trkpt lat="43.09523526742986" lon="13.003853277027593"><ele>750.0</ele><time>2026-04-18T09:23:13Z</time></trkpt><trkpt lat="43.0951518288424" lon="13.003957339912205"><ele>750.0</ele><time>2026-04-18T09:23:14Z</time></trkpt><trkpt lat="43.0950716813978" lon="13.004059773075577"><ele>750.0</ele><time>2026-04-18T09:23:15Z</time></trkpt><trkpt lat="43.095001195854245" lon="13.004169925868077"><ele>750.0</ele><time>2026-04-18T09:23:16Z</time></trkpt><trkpt lat="43.0949096036336" lon="13.004276976616124"><ele>750.0</ele><time>2026-04-18T09:23:17Z</time></trkpt><trkpt lat="43.09481066832523" lon="13.004387345495514"><ele>757.75</ele><time>2026-04-18T09:23:18Z</time></trkpt><trkpt lat="43.09471340497884" lon="13.004495907293467"><ele>765.5</ele><time>2026-04-18T09:23:19Z</time></trkpt><trkpt lat="43.094636244965734" lon="13.00463042176522"><ele>773.25</ele><time>2026-04-18T09:23:20Z</time></trkpt><trkpt lat="43.09457130712397" lon="13.004783078922674"><ele>781.0</ele><time>2026-04-18T09:23:21Z</time></trkpt><trkpt lat="43.09451709955201" lon="13.004948287258852"><ele>776.25</ele><time>2026-04-18T09:23:22Z</time></trkpt><trkpt lat="43.094470306719906" lon="13.005113538623899"><ele>771.5</ele><time>2026-04-18T09:23:23Z</time></trkpt><trkpt lat="43.09442847830216" lon="13.00527720572871"><ele>766.75</ele><time>2026-04-18T09:23:24Z</time></trkpt><trkpt lat="43.09438872518583" lon="13.005435890616742"><ele>762.0</ele><time>2026-04-18T09:23:25Z</time></trkpt><trkpt lat="43.09434934356076" lon="13.005593092239813"><ele>762.0</ele><time>2026-04-18T09:23:26Z</time></trkpt><trkpt lat="43.09431125641142" lon="13.005750499055209"><ele>762.0</ele><time>2026-04-18T09:23:27Z</time></trkpt><trkpt lat="43.09428032394651" lon="13.005893515583137"><ele>762.0</ele><time>2026-04-18T09:23:28Z</time></trkpt><trkpt lat="43.094254755216994" lon="13.006013565570438"><ele>762.0</ele><time>2026-04-18T09:23:29Z</time></trkpt><trkpt lat="43.09422985515445" lon="13.006124413332879"><ele>762.0</ele><time>2026-04-18T09:23:30Z</time></trkpt><trkpt lat="43.094197197023256" lon="13.006234815658141"><ele>763.8333333333334</ele><time>2026-04-18T09:23:31Z</time></trkpt><trkpt lat="43.09416143206358" lon="13.006350214058353"><ele>765.6666666666667</ele><time>2026-04-18T09:23:32Z</time></trkpt><trkpt lat="43.09409513407094" lon="13.006434191686429"><ele>767.5</ele><time>2026-04-18T09:23:33Z</time></trkpt><trkpt lat="43.09401502600686" lon="13.006490836759136"><ele>769.3333333333334</ele><time>2026-04-18T09:23:34Z</time></trkpt><trkpt lat="43.09393226989194" lon="13.006538267086514"><ele>771.1666666666667</ele><time>2026-04-18T09:23:35Z</time></trkpt><trkpt lat="43.09385307988384" lon="13.006565805496457"><ele>773.0</ele><time>2026-04-18T09:23:36Z</time></trkpt><trkpt lat="43.09376134491087" lon="13.006574689565424"><ele>773.0</ele><time>2026-04-18T09:23:37Z</time></trkpt><trkpt lat="43.09365725447792" lon="13.006603398235814"><ele>773.0</ele><time>2026-04-18T09:23:38Z</time></trkpt><trkpt lat="43.093551629423395" lon="13.006605153943363"><ele>773.0</ele><time>2026-04-18T09:23:39Z</time></trkpt><trkpt lat="43.093450171905836" lon="13.006600378796934"><ele>773.0</ele><time>2026-04-18T09:23:40Z</time></trkpt><trkpt lat="43.093360608174336" lon="13.006625695154545"><ele>773.0</ele><time>2026-04-18T09:23:41Z</time></trkpt><trkpt lat="43.09328395327658" lon="13.00667567313053"><ele>771.5</ele><time>2026-04-18T09:23:42Z</time></trkpt><trkpt lat="43.09320654699966" lon="13.006769504691949"><ele>770.0</ele><time>2026-04-18T09:23:43Z</time></trkpt><trkpt lat="43.09311205319817" lon="13.006877858334084"><ele>768.5</ele><time>2026-04-18T09:23:44Z</time></trkpt><trkpt lat="43.09300942090062" lon="13.006972388354729"><ele>767.0</ele><time>2026-04-18T09:23:45Z</time></trkpt><trkpt lat="43.09289802646626" lon="13.007045972096911"><ele>767.0</ele><time>2026-04-18T09:23:46Z</time></trkpt><trkpt lat="43.092779702429254" lon="13.007141066209766"><ele>767.0</ele><time>2026-04-18T09:23:47Z</time></trkpt><trkpt lat="43.09264913853756" lon="13.007213557605292"><ele>767.0</ele><time>2026-04-18T09:23:48Z</time></trkpt><trkpt lat="43.09250659219126" lon="13.007253352791793"><ele>767.0</ele><time>2026-04-18T09:23:49Z</time></trkpt><trkpt lat="43.092379045839515" lon="13.00724299451266"><ele>765.4000000000001</ele><time>2026-04-18T09:23:50Z</time></trkpt><trkpt lat="43.09225556702791" lon="13.007252892232316"><ele>763.8000000000001</ele><time>2026-04-18T09:23:51Z</time></trkpt><trkpt lat="43.092151890976055" lon="13.007226339990371"><ele>762.2</ele><time>2026-04-18T09:23:52Z</time></trkpt><trkpt lat="43.092033504613106" lon="13.00720742800508"><ele>760.6</ele><time>2026-04-18T09:23:53Z</time></trkpt><trkpt lat="43.09193471822108" lon="13.007215441663567"><ele>759.0</ele><time>2026-04-18T09:23:54Z</time></trkpt><trkpt lat="43.09184850074753" lon="13.007259509752942"><ele>759.0</ele><time>2026-04-18T09:23:55Z</time></trkpt><trkpt lat="43.091772313440615" lon="13.007317280664108"><ele>759.0</ele><time>2026-04-18T09:23:56Z</time></trkpt><trkpt lat="43.09169596576708" lon="13.00738277693158"><ele>759.0</ele><time>2026-04-18T09:23:57Z</time></trkpt><trkpt lat="43.09162131798405" lon="13.00746439283129"><ele>759.0</ele><time>2026-04-18T09:23:58Z</time></trkpt><trkpt lat="43.09153259315375" lon="13.007522831042987"><ele>759.0</ele><time>2026-04-18T09:23:59Z</time></trkpt><trkpt lat="43.09146544816178" lon="13.007607495894522"><ele>756.8333333333334</ele><time>2026-04-18T09:24:00Z</time></trkpt><trkpt lat="43.091393620099936" lon="13.007668772245795"><ele>754.6666666666666</ele><time>2026-04-18T09:24:01Z</time></trkpt><trkpt lat="43.0913246464668" lon="13.007727550050245"><ele>752.5</ele><time>2026-04-18T09:24:02Z</time></trkpt><trkpt lat="43.09125411092205" lon="13.00776181278129"><ele>750.3333333333333</ele><time>2026-04-18T09:24:03Z</time></trkpt><trkpt lat="43.09119636316495" lon="13.007810824504999"><ele>748.1666666666666</ele><time>2026-04-18T09:24:04Z</time></trkpt><trkpt lat="43.0911484148173" lon="13.007868180983495"><ele>746.0</ele><time>2026-04-18T09:24:05Z</time></trkpt><trkpt lat="43.091060674907155" lon="13.007907287316623"><ele>746.0</ele><time>2026-04-18T09:24:07Z</time></trkpt><trkpt lat="43.091009084311764" lon="13.007979201113736"><ele>746.0</ele><time>2026-04-18T09:24:09Z</time></trkpt><trkpt lat="43.09095309329534" lon="13.00793108238306"><ele>746.0</ele><time>2026-04-18T09:24:16Z</time></trkpt><trkpt lat="43.090935904682716" lon="13.00783176722871"><ele>746.0</ele><time>2026-04-18T09:24:31Z</time></trkpt><trkpt lat="43.09088518433787" lon="13.007892255992354"><ele>746.0</ele><time>2026-04-18T09:24:59Z</time></trkpt><trkpt lat="43.090821638264906" lon="13.00787933339301"><ele>746.0</ele><time>2026-04-18T09:25:03Z</time></trkpt><trkpt lat="43.09073325885252" lon="13.007753949473157"><ele>745.6666666666666</ele><time>2026-04-18T09:25:05Z</time></trkpt><trkpt lat="43.09068538368725" lon="13.007650944445603"><ele>745.3333333333333</ele><time>2026-04-18T09:25:06Z</time></trkpt><trkpt lat="43.09061883777605" lon="13.00758089773266"><ele>745.0</ele><time>2026-04-18T09:25:07Z</time></trkpt><trkpt lat="43.090544382673656" lon="13.00751214293335"><ele>744.6666666666666</ele><time>2026-04-18T09:25:08Z</time></trkpt><trkpt lat="43.09047536132376" lon="13.007451093321723"><ele>744.3333333333334</ele><time>2026-04-18T09:25:09Z</time></trkpt><trkpt lat="43.090410752665306" lon="13.007396820684155"><ele>744.0</ele><time>2026-04-18T09:25:10Z</time></trkpt><trkpt lat="43.090338945421685" lon="13.00736304388807"><ele>744.0</ele><time>2026-04-18T09:25:11Z</time></trkpt><trkpt lat="43.09027291891257" lon="13.007304260353274"><ele>744.0</ele><time>2026-04-18T09:25:12Z</time></trkpt><trkpt lat="43.090197002030614" lon="13.007239128396229"><ele>744.0</ele><time>2026-04-18T09:25:13Z</time></trkpt><trkpt lat="43.09014325228999" lon="13.007153092795255"><ele>744.0</ele><time>2026-04-18T09:25:14Z</time></trkpt><trkpt lat="43.09007509634089" lon="13.007078654971709"><ele>744.0</ele><time>2026-04-18T09:25:15Z</time></trkpt><trkpt lat="43.09003885712446" lon="13.006982093281339"><ele>744.0</ele><time>2026-04-18T09:25:16Z</time></trkpt><trkpt lat="43.08998415008105" lon="13.006912016249256"><ele>744.3333333333334</ele><time>2026-04-18T09:25:17Z</time></trkpt><trkpt lat="43.08992382402552" lon="13.00685318326932"><ele>744.6666666666666</ele><time>2026-04-18T09:25:18Z</time></trkpt><trkpt lat="43.08987260260878" lon="13.006778727749067"><ele>745.0</ele><time>2026-04-18T09:25:19Z</time></trkpt><trkpt lat="43.089817497405335" lon="13.006713212907346"><ele>745.3333333333333</ele><time>2026-04-18T09:25:20Z</time></trkpt><trkpt lat="43.08975744094245" lon="13.006646418318136"><ele>745.6666666666666</ele><time>2026-04-18T09:25:21Z</time></trkpt><trkpt lat="43.08969374773238" lon="13.006588841440424"><ele>746.0</ele><time>2026-04-18T09:25:22Z</time></trkpt><trkpt lat="43.089625895619555" lon="13.006532666597112"><ele>746.0</ele><time>2026-04-18T09:25:23Z</time></trkpt><trkpt lat="43.08954893759874" lon="13.006494279602196"><ele>746.0</ele><time>2026-04-18T09:25:24Z</time></trkpt><trkpt lat="43.0894704974306" lon="13.006440662775757"><ele>746.0</ele><time>2026-04-18T09:25:25Z</time></trkpt><trkpt lat="43.089394728498746" lon="13.00639537185096"><ele>746.0</ele><time>2026-04-18T09:25:26Z</time></trkpt><trkpt lat="43.08932308877463" lon="13.006346560528216"><ele>746.0</ele><time>2026-04-18T09:25:27Z</time></trkpt><trkpt lat="43.08925486729135" lon="13.006275758122634"><ele>746.0</ele><time>2026-04-18T09:25:28Z</time></trkpt><trkpt lat="43.0891783853534" lon="13.006194916969774"><ele>746.0</ele><time>2026-04-18T09:25:29Z</time></trkpt><trkpt lat="43.08909779539672" lon="13.006120273816196"><ele>746.0</ele><time>2026-04-18T09:25:30Z</time></trkpt><trkpt lat="43.089034505863125" lon="13.006035317560674"><ele>746.0</ele><time>2026-04-18T09:25:31Z</time></trkpt><trkpt lat="43.08897029525872" lon="13.00598287154403"><ele>746.0</ele><time>2026-04-18T09:25:32Z</time></trkpt><trkpt lat="43.08889765571678" lon="13.005916706910972"><ele>746.0</ele><time>2026-04-18T09:25:33Z</time></trkpt><trkpt lat="43.08881276929625" lon="13.00583737372528"><ele>747.1999999999999</ele><time>2026-04-18T09:25:34Z</time></trkpt><trkpt lat="43.08872526243792" lon="13.005760849540586"><ele>748.4</ele><time>2026-04-18T09:25:35Z</time></trkpt><trkpt lat="43.08863567253068" lon="13.005679882665676"><ele>749.6</ele><time>2026-04-18T09:25:36Z</time></trkpt><trkpt lat="43.08855152475395" lon="13.005588261338671"><ele>750.8</ele><time>2026-04-18T09:25:37Z</time></trkpt><trkpt lat="43.08847019314629" lon="13.005482662948276"><ele>752.0</ele><time>2026-04-18T09:25:38Z</time></trkpt><trkpt lat="43.08838709532013" lon="13.005380168329447"><ele>752.0</ele><time>2026-04-18T09:25:39Z</time></trkpt><trkpt lat="43.08831102218936" lon="13.005275697170278"><ele>752.0</ele><time>2026-04-18T09:25:40Z</time></trkpt><trkpt lat="43.08824760909701" lon="13.005187974069477"><ele>752.0</ele><time>2026-04-18T09:25:41Z</time></trkpt><trkpt lat="43.088191764781286" lon="13.00511580058552"><ele>752.0</ele><time>2026-04-18T09:25:42Z</time></trkpt><trkpt lat="43.088138751690714" lon="13.005041770264068"><ele>752.0</ele><time>2026-04-18T09:25:43Z</time></trkpt><trkpt lat="43.08808718727844" lon="13.004968239690678"><ele>752.0</ele><time>2026-04-18T09:25:44Z</time></trkpt><trkpt lat="43.088036597441906" lon="13.004907832368561"><ele>751.2857142857142</ele><time>2026-04-18T09:25:45Z</time></trkpt><trkpt lat="43.087990235013336" lon="13.004844396079235"><ele>750.5714285714286</ele><time>2026-04-18T09:25:46Z</time></trkpt><trkpt lat="43.08794703920624" lon="13.004772248802583"><ele>749.8571428571429</ele><time>2026-04-18T09:25:47Z</time></trkpt><trkpt lat="43.08789041394182" lon="13.004709860042281"><ele>749.1428571428571</ele><time>2026-04-18T09:25:48Z</time></trkpt><trkpt lat="43.087835653729094" lon="13.00465126467572"><ele>748.4285714285714</ele><time>2026-04-18T09:25:49Z</time></trkpt><trkpt lat="43.08777602948527" lon="13.004587464668637"><ele>747.7142857142857</ele><time>2026-04-18T09:25:50Z</time></trkpt><trkpt lat="43.0877097159215" lon="13.004514479319427"><ele>747.0</ele><time>2026-04-18T09:25:51Z</time></trkpt><trkpt lat="43.087641627450424" lon="13.004434680755498"><ele>747.0</ele><time>2026-04-18T09:25:52Z</time></trkpt><trkpt lat="43.08756987727314" lon="13.00434230515643"><ele>747.0</ele><time>2026-04-18T09:25:53Z</time></trkpt><trkpt lat="43.08751725849351" lon="13.00422316270732"><ele>747.0</ele><time>2026-04-18T09:25:54Z</time></trkpt><trkpt lat="43.087458752196305" lon="13.004108455075821"><ele>747.0</ele><time>2026-04-18T09:25:55Z</time></trkpt><trkpt lat="43.08738678344191" lon="13.0040080574319"><ele>747.0</ele><time>2026-04-18T09:25:56Z</time></trkpt><trkpt lat="43.08733448989715" lon="13.003867048696659"><ele>744.75</ele><time>2026-04-18T09:25:57Z</time></trkpt><trkpt lat="43.08725760062306" lon="13.003748036598207"><ele>742.5</ele><time>2026-04-18T09:25:58Z</time></trkpt><trkpt lat="43.08717785951786" lon="13.003636716458846"><ele>740.25</ele><time>2026-04-18T09:25:59Z</time></trkpt><trkpt lat="43.08709643540301" lon="13.003528100453128"><ele>738.0</ele><time>2026-04-18T09:26:00Z</time></trkpt><trkpt lat="43.08701548318835" lon="13.003420877874694"><ele>742.0</ele><time>2026-04-18T09:26:01Z</time></trkpt><trkpt lat="43.08693411380823" lon="13.003299755257357"><ele>746.0</ele><time>2026-04-18T09:26:02Z</time></trkpt><trkpt lat="43.08684112949158" lon="13.003209287512563"><ele>750.0</ele><time>2026-04-18T09:26:03Z</time></trkpt><trkpt lat="43.08675396676604" lon="13.003137046999097"><ele>754.0</ele><time>2026-04-18T09:26:04Z</time></trkpt><trkpt lat="43.08667865862495" lon="13.003075720647482"><ele>758.0</ele><time>2026-04-18T09:26:05Z</time></trkpt><trkpt lat="43.0866084205911" lon="13.003015371778677"><ele>758.6666666666666</ele><time>2026-04-18T09:26:06Z</time></trkpt><trkpt lat="43.08654078566093" lon="13.002952484055148"><ele>759.3333333333333</ele><time>2026-04-18T09:26:07Z</time></trkpt><trkpt lat="43.086473352727864" lon="13.002885025785531"><ele>760.0</ele><time>2026-04-18T09:26:08Z</time></trkpt><trkpt lat="43.086425506860486" lon="13.00278162883007"><ele>760.6666666666666</ele><time>2026-04-18T09:26:09Z</time></trkpt><trkpt lat="43.08636445978381" lon="13.002691587504616"><ele>761.3333333333334</ele><time>2026-04-18T09:26:10Z</time></trkpt><trkpt lat="43.08632558426029" lon="13.002579506949369"><ele>762.0</ele><time>2026-04-18T09:26:11Z</time></trkpt><trkpt lat="43.086255550516846" lon="13.002495258283346"><ele>762.0</ele><time>2026-04-18T09:26:12Z</time></trkpt><trkpt lat="43.086222421459425" lon="13.002384278373082"><ele>762.0</ele><time>2026-04-18T09:26:13Z</time></trkpt><trkpt lat="43.08618745610774" lon="13.002253004695602"><ele>762.0</ele><time>2026-04-18T09:26:14Z</time></trkpt><trkpt lat="43.08613566286693" lon="13.002171958427747"><ele>762.0</ele><time>2026-04-18T09:26:15Z</time></trkpt><trkpt lat="43.086090781156045" lon="13.002100580778803"><ele>762.0</ele><time>2026-04-18T09:26:16Z</time></trkpt><trkpt lat="43.08600822349088" lon="13.001978379745168"><ele>762.0</ele><time>2026-04-18T09:26:18Z</time></trkpt><trkpt lat="43.08591361309465" lon="13.001845491218706"><ele>762.0</ele><time>2026-04-18T09:26:19Z</time></trkpt><trkpt lat="43.08584959231876" lon="13.001758219723023"><ele>762.0</ele><time>2026-04-18T09:26:20Z</time></trkpt><trkpt lat="43.08577508066251" lon="13.001674037506312"><ele>762.0</ele><time>2026-04-18T09:26:22Z</time></trkpt><trkpt lat="43.08571782239305" lon="13.001616085962342"><ele>762.0</ele><time>2026-04-18T09:26:24Z</time></trkpt><trkpt lat="43.08565318840723" lon="13.001564384482917"><ele>763.5</ele><time>2026-04-18T09:26:26Z</time></trkpt><trkpt lat="43.08559235530198" lon="13.001520448880903"><ele>765.0</ele><time>2026-04-18T09:26:30Z</time></trkpt><trkpt lat="43.08553112914251" lon="13.001496499141826"><ele>766.5</ele><time>2026-04-18T09:26:32Z</time></trkpt><trkpt lat="43.08546214366647" lon="13.001449293826845"><ele>768.0</ele><time>2026-04-18T09:26:34Z</time></trkpt><trkpt lat="43.08538653748686" lon="13.001390818376901"><ele>769.5</ele><time>2026-04-18T09:26:36Z</time></trkpt><trkpt lat="43.08528537536041" lon="13.0013065240715"><ele>771.0</ele><time>2026-04-18T09:26:38Z</time></trkpt><trkpt lat="43.08521082542192" lon="13.001233151402"><ele>771.0</ele><time>2026-04-18T09:26:40Z</time></trkpt><trkpt lat="43.08515443669117" lon="13.001130477245969"><ele>771.0</ele><time>2026-04-18T09:26:42Z</time></trkpt><trkpt lat="43.085110188324364" lon="13.00105044253644"><ele>771.0</ele><time>2026-04-18T09:26:47Z</time></trkpt><trkpt lat="43.08505171168461" lon="13.000995547590588"><ele>771.0</ele><time>2026-04-18T09:26:51Z</time></trkpt><trkpt lat="43.084971240194236" lon="13.000958667004998"><ele>771.0</ele><time>2026-04-18T09:26:53Z</time></trkpt><trkpt lat="43.08491383609656" lon="13.000906637637502"><ele>771.0</ele><time>2026-04-18T09:26:56Z</time></trkpt><trkpt lat="43.08483942773419" lon="13.000828618529908"><ele>773.3333333333334</ele><time>2026-04-18T09:26:59Z</time></trkpt><trkpt lat="43.08478555342827" lon="13.000730420043327"><ele>775.6666666666667</ele><time>2026-04-18T09:27:02Z</time></trkpt><trkpt lat="43.08469285195038" lon="13.00070600222182"><ele>778.0</ele><time>2026-04-18T09:27:04Z</time></trkpt><trkpt lat="43.084627913594574" lon="13.000669827307975"><ele>780.3333333333334</ele><time>2026-04-18T09:27:06Z</time></trkpt><trkpt lat="43.08457611794043" lon="13.000616802870582"><ele>782.6666666666667</ele><time>2026-04-18T09:27:08Z</time></trkpt><trkpt lat="43.08451971844141" lon="13.000534751702244"><ele>785.0</ele><time>2026-04-18T09:27:10Z</time></trkpt><trkpt lat="43.0844379708644" lon="13.00046301180867"><ele>785.0000000000001</ele><time>2026-04-18T09:27:12Z</time></trkpt><trkpt lat="43.084352991520106" lon="13.000389901548747"><ele>785.0</ele><time>2026-04-18T09:27:14Z</time></trkpt><trkpt lat="43.08431595247383" lon="13.00029328745784"><ele>785.0</ele><time>2026-04-18T09:27:16Z</time></trkpt><trkpt lat="43.08425096572617" lon="13.00015633352645"><ele>785.0</ele><time>2026-04-18T09:27:18Z</time></trkpt><trkpt lat="43.08422702413396" lon="13.000071592333958"><ele>785.0000000000001</ele><time>2026-04-18T09:27:19Z</time></trkpt><trkpt lat="43.08421538349383" lon="12.999959016597693"><ele>785.0</ele><time>2026-04-18T09:27:20Z</time></trkpt><trkpt lat="43.084188943372446" lon="12.99983797498387"><ele>785.0</ele><time>2026-04-18T09:27:21Z</time></trkpt><trkpt lat="43.084155417979105" lon="12.999728889816904"><ele>785.0</ele><time>2026-04-18T09:27:22Z</time></trkpt><trkpt lat="43.084113148301704" lon="12.99962917423381"><ele>785.0</ele><time>2026-04-18T09:27:23Z</time></trkpt><trkpt lat="43.084071734395394" lon="12.999545571865617"><ele>785.0</ele><time>2026-04-18T09:27:24Z</time></trkpt><trkpt lat="43.08400661069767" lon="12.999434441300819"><ele>785.0</ele><time>2026-04-18T09:27:26Z</time></trkpt><trkpt lat="43.08395375705778" lon="12.999310427673453"><ele>787.0000000000001</ele><time>2026-04-18T09:27:28Z</time></trkpt><trkpt lat="43.08389408668951" lon="12.999207841056839"><ele>789.0</ele><time>2026-04-18T09:27:30Z</time></trkpt><trkpt lat="43.083851436386574" lon="12.999108637624046"><ele>791.0</ele><time>2026-04-18T09:27:32Z</time></trkpt><trkpt lat="43.08381147009271" lon="12.999034181025554"><ele>793.0</ele><time>2026-04-18T09:27:33Z</time></trkpt><trkpt lat="43.08376220700388" lon="12.998918358418164"><ele>795.0000000000001</ele><time>2026-04-18T09:27:34Z</time></trkpt><trkpt lat="43.08373262309519" lon="12.998808974293294"><ele>797.0</ele><time>2026-04-18T09:27:35Z</time></trkpt><trkpt lat="43.08369298956539" lon="12.998658830401432"><ele>797.0</ele><time>2026-04-18T09:27:36Z</time></trkpt><trkpt lat="43.08366618510031" lon="12.998502322614756"><ele>797.0</ele><time>2026-04-18T09:27:37Z</time></trkpt><trkpt lat="43.08363778481473" lon="12.998345850495513"><ele>797.0</ele><time>2026-04-18T09:27:38Z</time></trkpt><trkpt lat="43.083630604367" lon="12.998209384584783"><ele>797.0</ele><time>2026-04-18T09:27:39Z</time></trkpt><trkpt lat="43.08361583841353" lon="12.998103225948876"><ele>797.0</ele><time>2026-04-18T09:27:40Z</time></trkpt><trkpt lat="43.0835886543261" lon="12.998010488580611"><ele>801.8</ele><time>2026-04-18T09:27:41Z</time></trkpt><trkpt lat="43.08355191193852" lon="12.997874395262983"><ele>806.6</ele><time>2026-04-18T09:27:43Z</time></trkpt><trkpt lat="43.08351330946204" lon="12.997739371200995"><ele>811.4</ele><time>2026-04-18T09:27:45Z</time></trkpt><trkpt lat="43.08346342870272" lon="12.997628985258704"><ele>816.1999999999999</ele><time>2026-04-18T09:27:47Z</time></trkpt><trkpt lat="43.08345493730879" lon="12.997503965387672"><ele>821.0</ele><time>2026-04-18T09:27:49Z</time></trkpt><trkpt lat="43.08344217845644" lon="12.997381968083413"><ele>824.0000000000001</ele><time>2026-04-18T09:27:51Z</time></trkpt><trkpt lat="43.08341353431172" lon="12.997300112100557"><ele>827.0</ele><time>2026-04-18T09:27:53Z</time></trkpt><trkpt lat="43.08342426739326" lon="12.997208851192044"><ele>830.0</ele><time>2026-04-18T09:27:56Z</time></trkpt><trkpt lat="43.08349018876867" lon="12.997096401366544"><ele>833.0</ele><time>2026-04-18T09:27:58Z</time></trkpt><trkpt lat="43.08359883564465" lon="12.997125101173994"><ele>836.0000000000001</ele><time>2026-04-18T09:28:02Z</time></trkpt><trkpt lat="43.083667901104185" lon="12.997097014645096"><ele>839.0</ele><time>2026-04-18T09:28:04Z</time></trkpt><trkpt lat="43.08379833529452" lon="12.997050739919693"><ele>839.0</ele><time>2026-04-18T09:28:07Z</time></trkpt><trkpt lat="43.083804532403555" lon="12.996927334510712"><ele>839.0</ele><time>2026-04-18T09:28:09Z</time></trkpt><trkpt lat="43.083939256915485" lon="12.996853741230698"><ele>839.0</ele><time>2026-04-18T09:28:17Z</time></trkpt><trkpt lat="43.08401638466191" lon="12.996971508798875"><ele>839.0</ele><time>2026-04-18T09:28:19Z</time></trkpt><trkpt lat="43.08406673008051" lon="12.997023532621077"><ele>839.0</ele><time>2026-04-18T09:28:20Z</time></trkpt><trkpt lat="43.08413613499365" lon="12.99706094238953"><ele>846.75</ele><time>2026-04-18T09:28:21Z</time></trkpt><trkpt lat="43.08420646206302" lon="12.997127342577025"><ele>854.5</ele><time>2026-04-18T09:28:22Z</time></trkpt><trkpt lat="43.08430837593069" lon="12.997199034999158"><ele>862.25</ele><time>2026-04-18T09:28:24Z</time></trkpt><trkpt lat="43.084453933895254" lon="12.997225532655158"><ele>870.0</ele><time>2026-04-18T09:28:27Z</time></trkpt><trkpt lat="43.08456525641627" lon="12.997275784407966"><ele>870.0</ele><time>2026-04-18T09:28:29Z</time></trkpt><trkpt lat="43.08466240959687" lon="12.997310441282364"><ele>870.0</ele><time>2026-04-18T09:28:31Z</time></trkpt><trkpt lat="43.084765170546845" lon="12.99729683994649"><ele>870.0</ele><time>2026-04-18T09:28:33Z</time></trkpt><trkpt lat="43.08484570160004" lon="12.997244900072015"><ele>870.0</ele><time>2026-04-18T09:28:35.001Z</time></trkpt><trkpt lat="43.084914337875794" lon="12.997220278275442"><ele>870.0</ele><time>2026-04-18T09:28:37.001Z</time></trkpt><trkpt lat="43.08499194906913" lon="12.99718909748137"><ele>870.0</ele><time>2026-04-18T09:28:39.001Z</time></trkpt><trkpt lat="43.08505766309996" lon="12.997169555872851"><ele>875.0</ele><time>2026-04-18T09:28:42.001Z</time></trkpt><trkpt lat="43.085119035228914" lon="12.997106225460865"><ele>880.0</ele><time>2026-04-18T09:28:44.001Z</time></trkpt><trkpt lat="43.08518749498692" lon="12.997041109875825"><ele>885.0</ele><time>2026-04-18T09:28:46.001Z</time></trkpt><trkpt lat="43.085251823206164" lon="12.997015350699508"><ele>890.0</ele><time>2026-04-18T09:28:48.001Z</time></trkpt><trkpt lat="43.085315944550956" lon="12.997011199978868"><ele>895.0</ele><time>2026-04-18T09:28:50.001Z</time></trkpt><trkpt lat="43.08539726439914" lon="12.997004412677137"><ele>900.0</ele><time>2026-04-18T09:28:52.001Z</time></trkpt><trkpt lat="43.08551523506719" lon="12.996969790763627"><ele>900.0</ele><time>2026-04-18T09:28:54.001Z</time></trkpt><trkpt lat="43.08558045259938" lon="12.99695797921179"><ele>900.0</ele><time>2026-04-18T09:28:55.001Z</time></trkpt><trkpt lat="43.085700692632614" lon="12.996937662607229"><ele>900.0</ele><time>2026-04-18T09:28:57.001Z</time></trkpt><trkpt lat="43.08579756945156" lon="12.99692770201691"><ele>900.0</ele><time>2026-04-18T09:28:59.001Z</time></trkpt><trkpt lat="43.085907605293535" lon="12.996893632855256"><ele>900.0</ele><time>2026-04-18T09:29:01.001Z</time></trkpt><trkpt lat="43.08601212658696" lon="12.996924404568531"><ele>903.3333333333334</ele><time>2026-04-18T09:29:03.001Z</time></trkpt><trkpt lat="43.0860774814881" lon="12.996955961932048"><ele>906.6666666666667</ele><time>2026-04-18T09:29:05.001Z</time></trkpt><trkpt lat="43.086181191343734" lon="12.996937655182201"><ele>910.0</ele><time>2026-04-18T09:29:48.001Z</time></trkpt><trkpt lat="43.0861598535206" lon="12.996853771482206"><ele>913.3333333333334</ele><time>2026-04-18T09:29:52.001Z</time></trkpt><trkpt lat="43.08609827956978" lon="12.9967710711206"><ele>916.6666666666667</ele><time>2026-04-18T09:29:55.001Z</time></trkpt><trkpt lat="43.08608357438772" lon="12.996639279827766"><ele>920.0</ele><time>2026-04-18T09:29:58.001Z</time></trkpt><trkpt lat="43.086060314201625" lon="12.996525028563024"><ele>924.0</ele><time>2026-04-18T09:30:00.001Z</time></trkpt><trkpt lat="43.08603172735487" lon="12.996338944843334"><ele>928.0</ele><time>2026-04-18T09:30:02.001Z</time></trkpt><trkpt lat="43.08601550356264" lon="12.996200791096193"><ele>932.0</ele><time>2026-04-18T09:30:04.001Z</time></trkpt><trkpt lat="43.086017372308625" lon="12.99607029012244"><ele>936.0</ele><time>2026-04-18T09:30:06.001Z</time></trkpt><trkpt lat="43.086009502781735" lon="12.99594527503718"><ele>940.0</ele><time>2026-04-18T09:30:08.001Z</time></trkpt><trkpt lat="43.08600341031205" lon="12.995855703359355"><ele>944.4</ele><time>2026-04-18T09:30:10.001Z</time></trkpt><trkpt lat="43.085961378283756" lon="12.995751443558406"><ele>948.8</ele><time>2026-04-18T09:30:12.001Z</time></trkpt><trkpt lat="43.085913125279866" lon="12.995640441238935"><ele>953.2</ele><time>2026-04-18T09:30:14.001Z</time></trkpt><trkpt lat="43.08586455771624" lon="12.995504080993559"><ele>957.6</ele><time>2026-04-18T09:30:16.001Z</time></trkpt><trkpt lat="43.085866242397536" lon="12.995379159393808"><ele>962.0</ele><time>2026-04-18T09:30:18.001Z</time></trkpt><trkpt lat="43.085860594757406" lon="12.99525466481757"><ele>962.0</ele><time>2026-04-18T09:30:20.001Z</time></trkpt><trkpt lat="43.085831568333006" lon="12.995139020549264"><ele>962.0</ele><time>2026-04-18T09:30:22.001Z</time></trkpt><trkpt lat="43.0858055535696" lon="12.995014533760306"><ele>962.0</ele><time>2026-04-18T09:30:24.001Z</time></trkpt><trkpt lat="43.08576166474143" lon="12.994909157514646"><ele>962.0</ele><time>2026-04-18T09:30:26.001Z</time></trkpt><trkpt lat="43.085704273139136" lon="12.994831680567792"><ele>962.0</ele><time>2026-04-18T09:30:28.001Z</time></trkpt><trkpt lat="43.08566945150181" lon="12.994697949794482"><ele>961.6666666666667</ele><time>2026-04-18T09:30:30.001Z</time></trkpt><trkpt lat="43.08564348526938" lon="12.994562593065687"><ele>961.3333333333334</ele><time>2026-04-18T09:30:32.001Z</time></trkpt><trkpt lat="43.085600450313045" lon="12.994448898897"><ele>961.0</ele><time>2026-04-18T09:30:34Z</time></trkpt><trkpt lat="43.08556391878713" lon="12.994360244976816"><ele>960.6666666666667</ele><time>2026-04-18T09:30:36Z</time></trkpt><trkpt lat="43.08552543343703" lon="12.994285025263911"><ele>960.3333333333334</ele><time>2026-04-18T09:30:38Z</time></trkpt><trkpt lat="43.08546438914894" lon="12.99418702336645"><ele>960.0</ele><time>2026-04-18T09:30:41Z</time></trkpt><trkpt lat="43.08541027153056" lon="12.994099956844149"><ele>966.4</ele><time>2026-04-18T09:30:43Z</time></trkpt><trkpt lat="43.08536649542293" lon="12.993969214216087"><ele>972.8</ele><time>2026-04-18T09:30:45Z</time></trkpt><trkpt lat="43.08531763892117" lon="12.993818358747227"><ele>979.2</ele><time>2026-04-18T09:30:47Z</time></trkpt><trkpt lat="43.0852629463634" lon="12.993657219120214"><ele>985.6</ele><time>2026-04-18T09:30:49Z</time></trkpt><trkpt lat="43.085232752503956" lon="12.993569530026651"><ele>992.0</ele><time>2026-04-18T09:30:50Z</time></trkpt><trkpt lat="43.085196984161556" lon="12.993486040217148"><ele>992.0</ele><time>2026-04-18T09:30:51Z</time></trkpt><trkpt lat="43.08517018451485" lon="12.993391640103068"><ele>992.0000000000001</ele><time>2026-04-18T09:30:52Z</time></trkpt><trkpt lat="43.085138487861535" lon="12.993297942963956"><ele>992.0</ele><time>2026-04-18T09:30:53Z</time></trkpt><trkpt lat="43.085108047327516" lon="12.993202789792536"><ele>992.0</ele><time>2026-04-18T09:30:54Z</time></trkpt><trkpt lat="43.085086745871976" lon="12.993096396926646"><ele>992.0000000000001</ele><time>2026-04-18T09:30:55Z</time></trkpt><trkpt lat="43.08506801353871" lon="12.993013114000135"><ele>992.0</ele><time>2026-04-18T09:30:56Z</time></trkpt><trkpt lat="43.08503881177637" lon="12.992911760364274"><ele>992.0</ele><time>2026-04-18T09:30:58Z</time></trkpt><trkpt lat="43.08500895043019" lon="12.992774880500223"><ele>997.1666666666667</ele><time>2026-04-18T09:31:00Z</time></trkpt><trkpt lat="43.085009568927624" lon="12.99264169495913"><ele>1002.3333333333334</ele><time>2026-04-18T09:31:01Z</time></trkpt><trkpt lat="43.08501870506781" lon="12.992516110444532"><ele>1007.5</ele><time>2026-04-18T09:31:03Z</time></trkpt><trkpt lat="43.08504997343746" lon="12.992419712066283"><ele>1012.6666666666667</ele><time>2026-04-18T09:31:05Z</time></trkpt><trkpt lat="43.08504525885698" lon="12.992293140895779"><ele>1017.8333333333334</ele><time>2026-04-18T09:31:07Z</time></trkpt><trkpt lat="43.08504625541036" lon="12.99220113767292"><ele>1023.0</ele><time>2026-04-18T09:31:08Z</time></trkpt><trkpt lat="43.08503163558155" lon="12.992066595758102"><ele>1023.5714285714287</ele><time>2026-04-18T09:31:10Z</time></trkpt><trkpt lat="43.08503280867913" lon="12.991978225378224"><ele>1024.142857142857</ele><time>2026-04-18T09:31:17Z</time></trkpt><trkpt lat="43.08501729448032" lon="12.99188988332974"><ele>1024.7142857142858</ele><time>2026-04-18T09:31:22Z</time></trkpt><trkpt lat="43.08497867907378" lon="12.991813170611739"><ele>1025.2857142857142</ele><time>2026-04-18T09:31:26Z</time></trkpt><trkpt lat="43.08494810724508" lon="12.991732136997966"><ele>1025.857142857143</ele><time>2026-04-18T09:31:30Z</time></trkpt><trkpt lat="43.08490148759591" lon="12.99167230435376"><ele>1026.4285714285716</ele><time>2026-04-18T09:31:40Z</time></trkpt><trkpt lat="43.08485195802732" lon="12.99161705046328"><ele>1027.0</ele><time>2026-04-18T09:31:50.001Z</time></trkpt><trkpt lat="43.08478205164205" lon="12.991576098977871"><ele>1027.0</ele><time>2026-04-18T09:32:04.001Z</time></trkpt><trkpt lat="43.08474066916206" lon="12.991506639460349"><ele>1027.0</ele><time>2026-04-18T09:32:10.001Z</time></trkpt><trkpt lat="43.084727897444225" lon="12.991405306884257"><ele>1027.0</ele><time>2026-04-18T09:32:29Z</time></trkpt><trkpt lat="43.08467286975637" lon="12.99131868975327"><ele>1027.0</ele><time>2026-04-18T09:32:32Z</time></trkpt><trkpt lat="43.084616367537386" lon="12.991252057992847"><ele>1027.0</ele><time>2026-04-18T09:32:34Z</time></trkpt><trkpt lat="43.08455018729272" lon="12.991187170059904"><ele>1027.0</ele><time>2026-04-18T09:32:38Z</time></trkpt><trkpt lat="43.08449894167658" lon="12.991127014991731"><ele>1027.0</ele><time>2026-04-18T09:32:40Z</time></trkpt><trkpt lat="43.08444437253359" lon="12.991067996348706"><ele>1027.0</ele><time>2026-04-18T09:32:42Z</time></trkpt><trkpt lat="43.084382926190095" lon="12.991006739956566"><ele>1027.0</ele><time>2026-04-18T09:32:43Z</time></trkpt><trkpt lat="43.08433581462858" lon="12.990917053578267"><ele>1027.0</ele><time>2026-04-18T09:32:46Z</time></trkpt><trkpt lat="43.084284670623525" lon="12.990864854489367"><ele>1027.0</ele><time>2026-04-18T09:32:49Z</time></trkpt><trkpt lat="43.08427895206031" lon="12.990773207960707"><ele>1027.0</ele><time>2026-04-18T09:32:58Z</time></trkpt><trkpt lat="43.08431245788573" lon="12.990906951997886"><ele>1027.0</ele><time>2026-04-18T09:34:42Z</time></trkpt><trkpt lat="43.08429323088548" lon="12.990800391262411"><ele>1027.0</ele><time>2026-04-18T09:36:30Z</time></trkpt><trkpt lat="43.08434463375142" lon="12.990877815969087"><ele>1027.0</ele><time>2026-04-18T09:37:11Z</time></trkpt><trkpt lat="43.084297470643186" lon="12.990813445356276"><ele>1027.0</ele><time>2026-04-18T09:38:01Z</time></trkpt><trkpt lat="43.08423895098654" lon="12.990758560043462"><ele>1027.0</ele><time>2026-04-18T09:39:00Z</time></trkpt><trkpt lat="43.08416906577173" lon="12.990698806079351"><ele>1027.0</ele><time>2026-04-18T09:39:04Z</time></trkpt><trkpt lat="43.08410705232583" lon="12.990628154758255"><ele>1027.0</ele><time>2026-04-18T09:39:07Z</time></trkpt><trkpt lat="43.08409352892625" lon="12.99052560015885"><ele>1023.1666666666666</ele><time>2026-04-18T09:39:15Z</time></trkpt><trkpt lat="43.084025242228414" lon="12.990448995913322"><ele>1019.3333333333333</ele><time>2026-04-18T09:39:19Z</time></trkpt><trkpt lat="43.083967718518316" lon="12.990374043405257"><ele>1015.5</ele><time>2026-04-18T09:39:22Z</time></trkpt><trkpt lat="43.08391437831771" lon="12.99028931430435"><ele>1011.6666666666667</ele><time>2026-04-18T09:39:24Z</time></trkpt><trkpt lat="43.08386318811414" lon="12.990178725200437"><ele>1007.8333333333334</ele><time>2026-04-18T09:39:26Z</time></trkpt><trkpt lat="43.08382955053474" lon="12.990096804697874"><ele>1004.0</ele><time>2026-04-18T09:39:27Z</time></trkpt><trkpt lat="43.08380284582314" lon="12.99001834509764"><ele>1014.0</ele><time>2026-04-18T09:39:28Z</time></trkpt><trkpt lat="43.083779673579414" lon="12.9899179181438"><ele>1024.0</ele><time>2026-04-18T09:39:30Z</time></trkpt><trkpt lat="43.08374243197304" lon="12.989822069849344"><ele>1034.0</ele><time>2026-04-18T09:39:33Z</time></trkpt><trkpt lat="43.083784980490336" lon="12.98966576933618"><ele>1044.0</ele><time>2026-04-18T09:39:37Z</time></trkpt><trkpt lat="43.08379361216139" lon="12.989562973176264"><ele>1054.0</ele><time>2026-04-18T09:39:39Z</time></trkpt><trkpt lat="43.08387298902288" lon="12.989466964149125"><ele>1054.0</ele><time>2026-04-18T09:39:41Z</time></trkpt><trkpt lat="43.08391913482645" lon="12.989407773595525"><ele>1054.0</ele><time>2026-04-18T09:39:42Z</time></trkpt><trkpt lat="43.08399302122495" lon="12.989279674711716"><ele>1054.0</ele><time>2026-04-18T09:39:44Z</time></trkpt><trkpt lat="43.08405810372908" lon="12.989120822151854"><ele>1054.0</ele><time>2026-04-18T09:39:46Z</time></trkpt><trkpt lat="43.084099441353445" lon="12.989021167533215"><ele>1054.0</ele><time>2026-04-18T09:39:47Z</time></trkpt><trkpt lat="43.08415372242415" lon="12.98893147450507"><ele>1059.8333333333333</ele><time>2026-04-18T09:39:48Z</time></trkpt><trkpt lat="43.08420616414288" lon="12.988837624553877"><ele>1065.6666666666665</ele><time>2026-04-18T09:39:49Z</time></trkpt><trkpt lat="43.084264367442884" lon="12.988761543436663"><ele>1071.5</ele><time>2026-04-18T09:39:50Z</time></trkpt><trkpt lat="43.084349739607894" lon="12.988646997685253"><ele>1077.3333333333333</ele><time>2026-04-18T09:39:52Z</time></trkpt><trkpt lat="43.084402263010176" lon="12.988569059201101"><ele>1083.1666666666667</ele><time>2026-04-18T09:39:53Z</time></trkpt><trkpt lat="43.084455572906656" lon="12.988493057384481"><ele>1089.0</ele><time>2026-04-18T09:39:54Z</time></trkpt><trkpt lat="43.08451830924651" lon="12.988371426819166"><ele>1085.5</ele><time>2026-04-18T09:39:56Z</time></trkpt><trkpt lat="43.08456972991205" lon="12.988271067729027"><ele>1082.0</ele><time>2026-04-18T09:39:58Z</time></trkpt><trkpt lat="43.08462214238246" lon="12.988161304225262"><ele>1078.5</ele><time>2026-04-18T09:40:00Z</time></trkpt><trkpt lat="43.08469307418101" lon="12.988042447485185"><ele>1075.0</ele><time>2026-04-18T09:40:02Z</time></trkpt><trkpt lat="43.084742896381" lon="12.987967761784157"><ele>1071.5</ele><time>2026-04-18T09:40:04Z</time></trkpt><trkpt lat="43.08478240509733" lon="12.987879092108791"><ele>1068.0</ele><time>2026-04-18T09:40:06Z</time></trkpt><trkpt lat="43.084825344437355" lon="12.98771397238622"><ele>1068.0</ele><time>2026-04-18T09:40:09Z</time></trkpt><trkpt lat="43.084849402169986" lon="12.987610993330497"><ele>1068.0</ele><time>2026-04-18T09:40:10Z</time></trkpt><trkpt lat="43.084894899966635" lon="12.987463290360427"><ele>1068.0</ele><time>2026-04-18T09:40:12Z</time></trkpt><trkpt lat="43.08493810177755" lon="12.987297017966515"><ele>1068.0</ele><time>2026-04-18T09:40:14Z</time></trkpt><trkpt lat="43.084963337706974" lon="12.987196518761394"><ele>1068.0</ele><time>2026-04-18T09:40:15Z</time></trkpt><trkpt lat="43.08499738649949" lon="12.987073037727722"><ele>1072.8333333333333</ele><time>2026-04-18T09:40:16Z</time></trkpt><trkpt lat="43.08503580108876" lon="12.986962640748244"><ele>1077.6666666666667</ele><time>2026-04-18T09:40:17Z</time></trkpt><trkpt lat="43.08508252352569" lon="12.986849518105164"><ele>1082.5</ele><time>2026-04-18T09:40:18Z</time></trkpt><trkpt lat="43.08512147519996" lon="12.986742987643067"><ele>1087.3333333333335</ele><time>2026-04-18T09:40:19Z</time></trkpt><trkpt lat="43.085156822785585" lon="12.986642421225223"><ele>1092.1666666666667</ele><time>2026-04-18T09:40:20Z</time></trkpt><trkpt lat="43.085187121758594" lon="12.986562016429266"><ele>1097.0</ele><time>2026-04-18T09:40:21Z</time></trkpt><trkpt lat="43.08521749526939" lon="12.98648197404782"><ele>1097.0</ele><time>2026-04-18T09:40:22Z</time></trkpt><trkpt lat="43.0852601380181" lon="12.986331101964117"><ele>1097.0</ele><time>2026-04-18T09:40:24Z</time></trkpt><trkpt lat="43.085299993407006" lon="12.986239149570393"><ele>1097.0</ele><time>2026-04-18T09:40:25Z</time></trkpt><trkpt lat="43.08534243105724" lon="12.986150678117873"><ele>1097.0</ele><time>2026-04-18T09:40:26Z</time></trkpt><trkpt lat="43.08537196692138" lon="12.986062890131254"><ele>1097.0</ele><time>2026-04-18T09:40:27Z</time></trkpt><trkpt lat="43.085387742943674" lon="12.98596714292867"><ele>1097.0</ele><time>2026-04-18T09:40:28Z</time></trkpt><trkpt lat="43.08542909103017" lon="12.985784370840221"><ele>1095.1666666666667</ele><time>2026-04-18T09:40:30Z</time></trkpt><trkpt lat="43.08545708291506" lon="12.985679304400586"><ele>1093.3333333333335</ele><time>2026-04-18T09:40:31Z</time></trkpt><trkpt lat="43.08548606137366" lon="12.98559533689938"><ele>1091.5</ele><time>2026-04-18T09:40:32Z</time></trkpt><trkpt lat="43.085531917588206" lon="12.985477351596376"><ele>1089.6666666666667</ele><time>2026-04-18T09:40:34Z</time></trkpt><trkpt lat="43.08559348832953" lon="12.985335996380137"><ele>1087.8333333333333</ele><time>2026-04-18T09:40:36Z</time></trkpt><trkpt lat="43.085640078492204" lon="12.98525623271564"><ele>1086.0</ele><time>2026-04-18T09:40:37Z</time></trkpt><trkpt lat="43.08568266277189" lon="12.985164216520314"><ele>1086.0</ele><time>2026-04-18T09:40:38Z</time></trkpt><trkpt lat="43.08573077867667" lon="12.985082057684428"><ele>1086.0</ele><time>2026-04-18T09:40:39Z</time></trkpt><trkpt lat="43.08581552194675" lon="12.984984574116176"><ele>1086.0</ele><time>2026-04-18T09:40:41Z</time></trkpt><trkpt lat="43.08592355069137" lon="12.984917084011903"><ele>1086.0</ele><time>2026-04-18T09:40:43Z</time></trkpt><trkpt lat="43.086040450054256" lon="12.984849491693971"><ele>1086.0</ele><time>2026-04-18T09:40:45Z</time></trkpt><trkpt lat="43.086091395849756" lon="12.984786907715797"><ele>1090.2857142857142</ele><time>2026-04-18T09:40:46Z</time></trkpt><trkpt lat="43.08614770942886" lon="12.984728579888378"><ele>1094.5714285714284</ele><time>2026-04-18T09:40:47Z</time></trkpt><trkpt lat="43.086192576190825" lon="12.98466060187203"><ele>1098.8571428571427</ele><time>2026-04-18T09:40:48Z</time></trkpt><trkpt lat="43.08625559588416" lon="12.98460473534359"><ele>1103.142857142857</ele><time>2026-04-18T09:40:49Z</time></trkpt><trkpt lat="43.08631771853159" lon="12.98455555359718"><ele>1107.4285714285713</ele><time>2026-04-18T09:40:50Z</time></trkpt><trkpt lat="43.08638230501875" lon="12.984515318613912"><ele>1111.7142857142856</ele><time>2026-04-18T09:40:51Z</time></trkpt><trkpt lat="43.086443820651596" lon="12.984489451132344"><ele>1116.0</ele><time>2026-04-18T09:40:52Z</time></trkpt><trkpt lat="43.08654229025316" lon="12.984458967810868"><ele>1116.0</ele><time>2026-04-18T09:40:54Z</time></trkpt><trkpt lat="43.08658272069211" lon="12.984371329231887"><ele>1116.0</ele><time>2026-04-18T09:40:58Z</time></trkpt><trkpt lat="43.08661210916077" lon="12.984208129031689"><ele>1116.0</ele><time>2026-04-18T09:41:00Z</time></trkpt><trkpt lat="43.08661207428848" lon="12.984112851106417"><ele>1116.0</ele><time>2026-04-18T09:41:01Z</time></trkpt><trkpt lat="43.086632675252666" lon="12.984015234307678"><ele>1116.0</ele><time>2026-04-18T09:41:02Z</time></trkpt><trkpt lat="43.08664833085449" lon="12.983921461541014"><ele>1116.0</ele><time>2026-04-18T09:41:03Z</time></trkpt><trkpt lat="43.08666896700346" lon="12.983810229740746"><ele>1115.5</ele><time>2026-04-18T09:41:04Z</time></trkpt><trkpt lat="43.0866912783218" lon="12.98370713601015"><ele>1115.0</ele><time>2026-04-18T09:41:05Z</time></trkpt><trkpt lat="43.086722735095954" lon="12.983609392043679"><ele>1114.5</ele><time>2026-04-18T09:41:06Z</time></trkpt><trkpt lat="43.08674959064922" lon="12.983516614913333"><ele>1114.0</ele><time>2026-04-18T09:41:07Z</time></trkpt><trkpt lat="43.08679173948122" lon="12.983395524053766"><ele>1113.5</ele><time>2026-04-18T09:41:09Z</time></trkpt><trkpt lat="43.08684588035869" lon="12.983297881248232"><ele>1113.0</ele><time>2026-04-18T09:41:11Z</time></trkpt><trkpt lat="43.08690456974277" lon="12.983195363510813"><ele>1109.2</ele><time>2026-04-18T09:41:13Z</time></trkpt><trkpt lat="43.08697445325456" lon="12.983118801676776"><ele>1105.4</ele><time>2026-04-18T09:41:15Z</time></trkpt><trkpt lat="43.08703897548743" lon="12.98302611127198"><ele>1101.6000000000001</ele><time>2026-04-18T09:42:19Z</time></trkpt><trkpt lat="43.08711551855957" lon="12.982952942911082"><ele>1097.8</ele><time>2026-04-18T09:42:22.001Z</time></trkpt><trkpt lat="43.08722814235351" lon="12.982897585711145"><ele>1094.0</ele><time>2026-04-18T09:42:24.001Z</time></trkpt><trkpt lat="43.08734874368386" lon="12.98285325710568"><ele>1100.6000000000001</ele><time>2026-04-18T09:42:26.001Z</time></trkpt><trkpt lat="43.08747328468753" lon="12.98281135354491"><ele>1107.2</ele><time>2026-04-18T09:42:28.001Z</time></trkpt><trkpt lat="43.08754229109861" lon="12.982785029807333"><ele>1113.8000000000002</ele><time>2026-04-18T09:42:29.001Z</time></trkpt><trkpt lat="43.08760942455109" lon="12.982750499398858"><ele>1120.4</ele><time>2026-04-18T09:42:30.001Z</time></trkpt><trkpt lat="43.08768209797959" lon="12.982725173098897"><ele>1127.0</ele><time>2026-04-18T09:42:31.001Z</time></trkpt><trkpt lat="43.08782207462513" lon="12.982686505477071"><ele>1127.0</ele><time>2026-04-18T09:42:33.001Z</time></trkpt><trkpt lat="43.08789181965491" lon="12.982656488947544"><ele>1127.0</ele><time>2026-04-18T09:42:34.001Z</time></trkpt><trkpt lat="43.087992430110845" lon="12.98262089116994"><ele>1127.0</ele><time>2026-04-18T09:42:36.001Z</time></trkpt><trkpt lat="43.08807137169859" lon="12.982603048815433"><ele>1127.0</ele><time>2026-04-18T09:42:38.001Z</time></trkpt><trkpt lat="43.08816470483557" lon="12.982578365449466"><ele>1127.0</ele><time>2026-04-18T09:42:40.001Z</time></trkpt><trkpt lat="43.08828121907285" lon="12.982501630723084"><ele>1124.6666666666667</ele><time>2026-04-18T09:42:42.001Z</time></trkpt><trkpt lat="43.088364455181974" lon="12.982469932373935"><ele>1122.3333333333335</ele><time>2026-04-18T09:42:43.001Z</time></trkpt><trkpt lat="43.088446261150374" lon="12.982439384791014"><ele>1120.0</ele><time>2026-04-18T09:42:44.001Z</time></trkpt><trkpt lat="43.0885230752778" lon="12.982418603837958"><ele>1117.6666666666667</ele><time>2026-04-18T09:42:45.001Z</time></trkpt><trkpt lat="43.08859819789702" lon="12.982389901276028"><ele>1115.3333333333333</ele><time>2026-04-18T09:42:46.001Z</time></trkpt><trkpt lat="43.08868226604589" lon="12.982356122805994"><ele>1113.0</ele><time>2026-04-18T09:42:47.001Z</time></trkpt><trkpt lat="43.08876102352518" lon="12.982327643451676"><ele>1113.0</ele><time>2026-04-18T09:42:48.001Z</time></trkpt><trkpt lat="43.08883539112509" lon="12.982296770332852"><ele>1113.0</ele><time>2026-04-18T09:42:49.001Z</time></trkpt><trkpt lat="43.08890951036594" lon="12.982269500660781"><ele>1113.0</ele><time>2026-04-18T09:42:50.001Z</time></trkpt><trkpt lat="43.08898873097713" lon="12.982235747643106"><ele>1113.0</ele><time>2026-04-18T09:42:51.001Z</time></trkpt><trkpt lat="43.08907672826954" lon="12.982200578256561"><ele>1113.0</ele><time>2026-04-18T09:42:52.001Z</time></trkpt><trkpt lat="43.089157634630524" lon="12.982167065381253"><ele>1113.0</ele><time>2026-04-18T09:42:53.001Z</time></trkpt><trkpt lat="43.089233146990495" lon="12.982134780967522"><ele>1113.5</ele><time>2026-04-18T09:42:54.001Z</time></trkpt><trkpt lat="43.08931048631781" lon="12.982102275458958"><ele>1114.0</ele><time>2026-04-18T09:42:55.001Z</time></trkpt><trkpt lat="43.08938812662716" lon="12.98207111169309"><ele>1114.5</ele><time>2026-04-18T09:42:56.001Z</time></trkpt><trkpt lat="43.08946823440913" lon="12.982033014623878"><ele>1115.0</ele><time>2026-04-18T09:42:57.001Z</time></trkpt><trkpt lat="43.089545696223205" lon="12.981991289285467"><ele>1115.5</ele><time>2026-04-18T09:42:58.001Z</time></trkpt><trkpt lat="43.08961745296868" lon="12.981942916858566"><ele>1116.0</ele><time>2026-04-18T09:42:59.001Z</time></trkpt><trkpt lat="43.08968925358591" lon="12.98189328690484"><ele>1116.0</ele><time>2026-04-18T09:43:00.001Z</time></trkpt><trkpt lat="43.089763264502324" lon="12.98184405809232"><ele>1116.0</ele><time>2026-04-18T09:43:01.001Z</time></trkpt><trkpt lat="43.08982987830223" lon="12.981804811950722"><ele>1116.0</ele><time>2026-04-18T09:43:02.001Z</time></trkpt><trkpt lat="43.08989507284802" lon="12.981768935336232"><ele>1116.0</ele><time>2026-04-18T09:43:03.001Z</time></trkpt><trkpt lat="43.08996556517846" lon="12.981728573746487"><ele>1116.0</ele><time>2026-04-18T09:43:04.001Z</time></trkpt><trkpt lat="43.090031984101685" lon="12.981671868407428"><ele>1116.0</ele><time>2026-04-18T09:43:05.001Z</time></trkpt><trkpt lat="43.09009216161295" lon="12.98160781552525"><ele>1114.2857142857142</ele><time>2026-04-18T09:43:06.001Z</time></trkpt><trkpt lat="43.09015098203262" lon="12.98154141153039"><ele>1112.5714285714284</ele><time>2026-04-18T09:43:07.001Z</time></trkpt><trkpt lat="43.0902011022105" lon="12.981463847532869"><ele>1110.857142857143</ele><time>2026-04-18T09:43:08.001Z</time></trkpt><trkpt lat="43.090240977301484" lon="12.981382708491516"><ele>1109.142857142857</ele><time>2026-04-18T09:43:09.001Z</time></trkpt><trkpt lat="43.09027841445583" lon="12.981294052495242"><ele>1107.4285714285716</ele><time>2026-04-18T09:43:10.001Z</time></trkpt><trkpt lat="43.090317655719225" lon="12.981209195580385"><ele>1105.7142857142858</ele><time>2026-04-18T09:43:11.001Z</time></trkpt><trkpt lat="43.090341943078116" lon="12.981126641809658"><ele>1104.0</ele><time>2026-04-18T09:43:12.001Z</time></trkpt><trkpt lat="43.09038869729027" lon="12.980974763070442"><ele>1101.4</ele><time>2026-04-18T09:43:14.001Z</time></trkpt><trkpt lat="43.09042197596698" lon="12.980825447461068"><ele>1098.8000000000002</ele><time>2026-04-18T09:43:16.001Z</time></trkpt><trkpt lat="43.09044808314198" lon="12.980708735235815"><ele>1096.1999999999998</ele><time>2026-04-18T09:43:18.001Z</time></trkpt><trkpt lat="43.090470928017425" lon="12.980624629275466"><ele>1093.6</ele><time>2026-04-18T09:43:29.001Z</time></trkpt><trkpt lat="43.09053557040078" lon="12.980505733022206"><ele>1091.0</ele><time>2026-04-18T09:43:32.001Z</time></trkpt><trkpt lat="43.090614784591054" lon="12.980424369063082"><ele>1091.0</ele><time>2026-04-18T09:43:34.001Z</time></trkpt><trkpt lat="43.090702921665105" lon="12.980332503082579"><ele>1091.0</ele><time>2026-04-18T09:43:36.001Z</time></trkpt><trkpt lat="43.09078475991245" lon="12.980272827232344"><ele>1091.0</ele><time>2026-04-18T09:43:38.001Z</time></trkpt><trkpt lat="43.09083957107169" lon="12.980203912494689"><ele>1091.0</ele><time>2026-04-18T09:43:40.001Z</time></trkpt><trkpt lat="43.090829522538215" lon="12.980293806322546"><ele>1091.0</ele><time>2026-04-18T09:44:01.001Z</time></trkpt><trkpt lat="43.09074414056585" lon="12.980339579800377"><ele>1091.0</ele><time>2026-04-18T09:44:03.001Z</time></trkpt><trkpt lat="43.09064839851852" lon="12.980434280422012"><ele>1091.0</ele><time>2026-04-18T09:44:05.001Z</time></trkpt><trkpt lat="43.09060201368488" lon="12.980497962516905"><ele>1091.0</ele><time>2026-04-18T09:44:06.001Z</time></trkpt><trkpt lat="43.09052435184329" lon="12.98057536304966"><ele>1091.0</ele><time>2026-04-18T09:44:08.001Z</time></trkpt><trkpt lat="43.09047018863145" lon="12.980626396951347"><ele>1091.0</ele><time>2026-04-18T09:44:15.001Z</time></trkpt><trkpt lat="43.09040760183964" lon="12.980543722701077"><ele>1091.0</ele><time>2026-04-18T09:44:44Z</time></trkpt><trkpt lat="43.09040025848022" lon="12.980419721058572"><ele>1091.0</ele><time>2026-04-18T09:44:46Z</time></trkpt><trkpt lat="43.090374511363194" lon="12.98027569512102"><ele>1091.0</ele><time>2026-04-18T09:44:48Z</time></trkpt><trkpt lat="43.09033735858763" lon="12.98018873567306"><ele>1091.0</ele><time>2026-04-18T09:44:51Z</time></trkpt><trkpt lat="43.09036599570922" lon="12.980105225783003"><ele>1091.0</ele><time>2026-04-18T09:45:27Z</time></trkpt><trkpt lat="43.09029847605959" lon="12.980115374770186"><ele>1091.0</ele><time>2026-04-18T09:46:05Z</time></trkpt><trkpt lat="43.09024803417537" lon="12.980027046041629"><ele>1091.0</ele><time>2026-04-18T09:46:08Z</time></trkpt><trkpt lat="43.090193450488826" lon="12.979887533654393"><ele>1091.0</ele><time>2026-04-18T09:46:10Z</time></trkpt><trkpt lat="43.09016570396055" lon="12.979806935314206"><ele>1091.5</ele><time>2026-04-18T09:46:11Z</time></trkpt><trkpt lat="43.09013625887132" lon="12.979726090422558"><ele>1092.0</ele><time>2026-04-18T09:46:12Z</time></trkpt><trkpt lat="43.09011319724983" lon="12.97964411163111"><ele>1092.5</ele><time>2026-04-18T09:46:13Z</time></trkpt><trkpt lat="43.09007921148433" lon="12.979566242731035"><ele>1093.0</ele><time>2026-04-18T09:46:14Z</time></trkpt><trkpt lat="43.090038383605716" lon="12.979422681848915"><ele>1093.5</ele><time>2026-04-18T09:46:16Z</time></trkpt><trkpt lat="43.0900206210383" lon="12.979305202262823"><ele>1094.0</ele><time>2026-04-18T09:46:18Z</time></trkpt><trkpt lat="43.08997358825175" lon="12.979158452447487"><ele>1095.0</ele><time>2026-04-18T09:46:20Z</time></trkpt><trkpt lat="43.08994176898426" lon="12.979025061482947"><ele>1096.0</ele><time>2026-04-18T09:46:22Z</time></trkpt><trkpt lat="43.0899562983752" lon="12.978939793792994"><ele>1097.0</ele><time>2026-04-18T09:46:24Z</time></trkpt><trkpt lat="43.089994023410654" lon="12.978831160161441"><ele>1098.0</ele><time>2026-04-18T09:46:27Z</time></trkpt><trkpt lat="43.08999564599683" lon="12.978744205655186"><ele>1099.0</ele><time>2026-04-18T09:46:29Z</time></trkpt><trkpt lat="43.08996373059352" lon="12.978660022433113"><ele>1100.0</ele><time>2026-04-18T09:46:32Z</time></trkpt><trkpt lat="43.089882541597184" lon="12.978656211718429"><ele>1096.0</ele><time>2026-04-18T09:46:34Z</time></trkpt><trkpt lat="43.08979450411832" lon="12.978662132548042"><ele>1092.0</ele><time>2026-04-18T09:46:36Z</time></trkpt><trkpt lat="43.089713724337095" lon="12.978574213668153"><ele>1088.0</ele><time>2026-04-18T09:46:38Z</time></trkpt><trkpt lat="43.08962380001355" lon="12.978505616740902"><ele>1084.0</ele><time>2026-04-18T09:46:40Z</time></trkpt><trkpt lat="43.089583892450975" lon="12.978377678675695"><ele>1080.0</ele><time>2026-04-18T09:46:42Z</time></trkpt><trkpt lat="43.08958619315015" lon="12.978229722303654"><ele>1080.0</ele><time>2026-04-18T09:46:44Z</time></trkpt><trkpt lat="43.0895904837304" lon="12.97808058652625"><ele>1080.0</ele><time>2026-04-18T09:46:46Z</time></trkpt><trkpt lat="43.08960460395388" lon="12.977905457318165"><ele>1080.0</ele><time>2026-04-18T09:46:48Z</time></trkpt><trkpt lat="43.089601058314514" lon="12.977811699056414"><ele>1080.0</ele><time>2026-04-18T09:46:49Z</time></trkpt><trkpt lat="43.08960852191572" lon="12.977724402083377"><ele>1080.0</ele><time>2026-04-18T09:46:50Z</time></trkpt><trkpt lat="43.08959292156195" lon="12.977584775972758"><ele>1081.0</ele><time>2026-04-18T09:46:52Z</time></trkpt><trkpt lat="43.089573089794065" lon="12.977494684839986"><ele>1082.0</ele><time>2026-04-18T09:46:54Z</time></trkpt><trkpt lat="43.08965053256798" lon="12.977371266716831"><ele>1083.0</ele><time>2026-04-18T09:46:56Z</time></trkpt><trkpt lat="43.08970712424182" lon="12.977308194595519"><ele>1084.0</ele><time>2026-04-18T09:46:57Z</time></trkpt><trkpt lat="43.089760630164996" lon="12.97726162151673"><ele>1085.0</ele><time>2026-04-18T09:46:58Z</time></trkpt><trkpt lat="43.089854419671966" lon="12.977179838677213"><ele>1086.0</ele><time>2026-04-18T09:47:00Z</time></trkpt><trkpt lat="43.08993891135269" lon="12.977085117998346"><ele>1086.0</ele><time>2026-04-18T09:47:02Z</time></trkpt><trkpt lat="43.089988541036" lon="12.976987540354871"><ele>1086.0</ele><time>2026-04-18T09:47:04Z</time></trkpt><trkpt lat="43.09005936989394" lon="12.976894397756423"><ele>1086.0</ele><time>2026-04-18T09:47:06Z</time></trkpt><trkpt lat="43.09010960365159" lon="12.9768419014343"><ele>1086.0</ele><time>2026-04-18T09:47:07Z</time></trkpt><trkpt lat="43.09019771578496" lon="12.976750184475513"><ele>1086.0</ele><time>2026-04-18T09:47:09Z</time></trkpt><trkpt lat="43.090291978306354" lon="12.976705358789363"><ele>1082.8333333333333</ele><time>2026-04-18T09:47:11Z</time></trkpt><trkpt lat="43.09035624724683" lon="12.976584021364314"><ele>1079.6666666666667</ele><time>2026-04-18T09:47:15Z</time></trkpt><trkpt lat="43.09039042452473" lon="12.97650207022453"><ele>1076.5</ele><time>2026-04-18T09:47:16Z</time></trkpt><trkpt lat="43.090415816166974" lon="12.976417391297916"><ele>1073.3333333333335</ele><time>2026-04-18T09:47:17Z</time></trkpt><trkpt lat="43.09044312844769" lon="12.976337864758067"><ele>1070.1666666666667</ele><time>2026-04-18T09:47:18Z</time></trkpt><trkpt lat="43.090473883032075" lon="12.976259589452576"><ele>1067.0</ele><time>2026-04-18T09:47:19Z</time></trkpt><trkpt lat="43.090544708592326" lon="12.976111795054418"><ele>1067.0</ele><time>2026-04-18T09:47:21Z</time></trkpt><trkpt lat="43.090575406892356" lon="12.976017530262217"><ele>1067.0</ele><time>2026-04-18T09:47:22Z</time></trkpt><trkpt lat="43.09061262504682" lon="12.975922634892449"><ele>1067.0</ele><time>2026-04-18T09:47:23Z</time></trkpt><trkpt lat="43.090653467963946" lon="12.975836996663862"><ele>1067.0</ele><time>2026-04-18T09:47:24Z</time></trkpt><trkpt lat="43.09069554886497" lon="12.975742444923918"><ele>1067.0</ele><time>2026-04-18T09:47:25Z</time></trkpt><trkpt lat="43.0907449685024" lon="12.975636293285598"><ele>1067.0</ele><time>2026-04-18T09:47:26Z</time></trkpt><trkpt lat="43.090794705231026" lon="12.975541053962209"><ele>1067.8333333333335</ele><time>2026-04-18T09:47:27Z</time></trkpt><trkpt lat="43.09083529586714" lon="12.975457701668189"><ele>1068.6666666666667</ele><time>2026-04-18T09:47:28Z</time></trkpt><trkpt lat="43.09087577558979" lon="12.975384101433733"><ele>1069.5</ele><time>2026-04-18T09:47:29Z</time></trkpt><trkpt lat="43.090916868912096" lon="12.975301623352076"><ele>1070.3333333333333</ele><time>2026-04-18T09:47:30Z</time></trkpt><trkpt lat="43.09094077949156" lon="12.975200616323976"><ele>1071.1666666666665</ele><time>2026-04-18T09:47:31Z</time></trkpt><trkpt lat="43.09096968270558" lon="12.975087012106494"><ele>1072.0</ele><time>2026-04-18T09:47:32Z</time></trkpt><trkpt lat="43.09099821792085" lon="12.974957684749345"><ele>1069.6666666666665</ele><time>2026-04-18T09:47:33Z</time></trkpt><trkpt lat="43.09103602433372" lon="12.974833074286739"><ele>1067.3333333333333</ele><time>2026-04-18T09:47:34Z</time></trkpt><trkpt lat="43.09108313438186" lon="12.974729928797169"><ele>1065.0</ele><time>2026-04-18T09:47:35Z</time></trkpt><trkpt lat="43.0911275306269" lon="12.974633007990784"><ele>1062.6666666666667</ele><time>2026-04-18T09:47:36Z</time></trkpt><trkpt lat="43.091161114263734" lon="12.97454332505132"><ele>1060.3333333333335</ele><time>2026-04-18T09:47:37Z</time></trkpt><trkpt lat="43.09118905972717" lon="12.974450634977275"><ele>1058.0</ele><time>2026-04-18T09:47:38Z</time></trkpt><trkpt lat="43.09122691298835" lon="12.974331127951672"><ele>1058.0</ele><time>2026-04-18T09:47:39Z</time></trkpt><trkpt lat="43.09127867070471" lon="12.974208412385813"><ele>1058.0</ele><time>2026-04-18T09:47:40Z</time></trkpt><trkpt lat="43.0913521759467" lon="12.97411912652842"><ele>1058.0</ele><time>2026-04-18T09:47:41Z</time></trkpt><trkpt lat="43.09142254989832" lon="12.974037551631952"><ele>1058.0</ele><time>2026-04-18T09:47:42Z</time></trkpt><trkpt lat="43.09149164487188" lon="12.973957753062962"><ele>1058.0</ele><time>2026-04-18T09:47:43Z</time></trkpt><trkpt lat="43.09154734052044" lon="12.973867557896044"><ele>1058.2</ele><time>2026-04-18T09:47:44Z</time></trkpt><trkpt lat="43.09158887732434" lon="12.973761244290822"><ele>1058.4</ele><time>2026-04-18T09:47:45Z</time></trkpt><trkpt lat="43.091638105721096" lon="12.97365212284794"><ele>1058.6000000000001</ele><time>2026-04-18T09:47:46Z</time></trkpt><trkpt lat="43.09169468420875" lon="12.973533865567656"><ele>1058.8</ele><time>2026-04-18T09:47:47Z</time></trkpt><trkpt lat="43.09174830139623" lon="12.973417048967606"><ele>1059.0</ele><time>2026-04-18T09:47:48Z</time></trkpt><trkpt lat="43.09179067012549" lon="12.973327760302778"><ele>1059.0</ele><time>2026-04-18T09:47:49Z</time></trkpt><trkpt lat="43.09182724479733" lon="12.973244876204134"><ele>1059.0</ele><time>2026-04-18T09:47:50Z</time></trkpt><trkpt lat="43.09185952549916" lon="12.973163545138176"><ele>1059.0</ele><time>2026-04-18T09:47:51Z</time></trkpt><trkpt lat="43.09190112563133" lon="12.973098102376174"><ele>1059.0</ele><time>2026-04-18T09:47:52Z</time></trkpt><trkpt lat="43.09193826177264" lon="12.97302053218654"><ele>1059.0</ele><time>2026-04-18T09:47:53Z</time></trkpt><trkpt lat="43.09198253499881" lon="12.972949386112322"><ele>1059.0</ele><time>2026-04-18T09:47:54Z</time></trkpt><trkpt lat="43.09204793948069" lon="12.972891384379546"><ele>1059.0</ele><time>2026-04-18T09:47:55Z</time></trkpt><trkpt lat="43.09211572205596" lon="12.972836404594519"><ele>1059.0</ele><time>2026-04-18T09:47:56Z</time></trkpt><trkpt lat="43.092175682844875" lon="12.972793563259348"><ele>1059.0</ele><time>2026-04-18T09:47:57Z</time></trkpt><trkpt lat="43.09225740807845" lon="12.972708808405512"><ele>1059.0</ele><time>2026-04-18T09:47:59Z</time></trkpt><trkpt lat="43.09232007150123" lon="12.972640388975435"><ele>1059.0</ele><time>2026-04-18T09:48:01Z</time></trkpt><trkpt lat="43.09235825771581" lon="12.972569473433742"><ele>1059.0</ele><time>2026-04-18T09:48:03Z</time></trkpt><trkpt lat="43.09236332426856" lon="12.972432741595751"><ele>1059.0</ele><time>2026-04-18T09:48:05Z</time></trkpt><trkpt lat="43.09238582400324" lon="12.972295448122223"><ele>1059.6000000000001</ele><time>2026-04-18T09:48:06Z</time></trkpt><trkpt lat="43.09239258809578" lon="12.972167355775634"><ele>1060.2</ele><time>2026-04-18T09:48:07Z</time></trkpt><trkpt lat="43.09242636965544" lon="12.972077624081699"><ele>1060.8000000000002</ele><time>2026-04-18T09:48:08Z</time></trkpt><trkpt lat="43.09247527905408" lon="12.971976106441856"><ele>1061.4</ele><time>2026-04-18T09:48:09Z</time></trkpt><trkpt lat="43.092528823572685" lon="12.971867910056785"><ele>1062.0</ele><time>2026-04-18T09:48:10Z</time></trkpt><trkpt lat="43.09257543919477" lon="12.971726563679477"><ele>1059.2</ele><time>2026-04-18T09:48:11Z</time></trkpt><trkpt lat="43.09263200032984" lon="12.971581170010795"><ele>1056.4</ele><time>2026-04-18T09:48:12Z</time></trkpt><trkpt lat="43.092664156033884" lon="12.97146841840375"><ele>1053.6</ele><time>2026-04-18T09:48:13Z</time></trkpt><trkpt lat="43.09268638092402" lon="12.97137226803459"><ele>1050.8</ele><time>2026-04-18T09:48:14Z</time></trkpt><trkpt lat="43.09270640422952" lon="12.971277106797224"><ele>1048.0</ele><time>2026-04-18T09:48:15Z</time></trkpt><trkpt lat="43.092781348827614" lon="12.97116095295275"><ele>1048.0</ele><time>2026-04-18T09:48:16Z</time></trkpt><trkpt lat="43.09285909023071" lon="12.971049894485954"><ele>1048.0</ele><time>2026-04-18T09:48:17Z</time></trkpt><trkpt lat="43.09294351702612" lon="12.970949448749632"><ele>1048.0</ele><time>2026-04-18T09:48:18Z</time></trkpt><trkpt lat="43.09302299352454" lon="12.970856744567847"><ele>1048.0</ele><time>2026-04-18T09:48:19Z</time></trkpt><trkpt lat="43.09310908843869" lon="12.970790091953816"><ele>1048.0</ele><time>2026-04-18T09:48:20Z</time></trkpt><trkpt lat="43.09318718722885" lon="12.97073828718561"><ele>1045.6666666666665</ele><time>2026-04-18T09:48:21Z</time></trkpt><trkpt lat="43.09324842904445" lon="12.970675555472218"><ele>1043.3333333333333</ele><time>2026-04-18T09:48:22Z</time></trkpt><trkpt lat="43.09330822699518" lon="12.970599674112709"><ele>1041.0</ele><time>2026-04-18T09:48:23Z</time></trkpt><trkpt lat="43.093366242849996" lon="12.9705244228182"><ele>1038.6666666666667</ele><time>2026-04-18T09:48:24Z</time></trkpt><trkpt lat="43.0934152271793" lon="12.97046975406284"><ele>1036.3333333333335</ele><time>2026-04-18T09:48:25Z</time></trkpt><trkpt lat="43.093467650259974" lon="12.970415318864092"><ele>1034.0</ele><time>2026-04-18T09:48:26Z</time></trkpt><trkpt lat="43.09354502108978" lon="12.97033557043036"><ele>1036.0</ele><time>2026-04-18T09:48:27Z</time></trkpt><trkpt lat="43.09363004818897" lon="12.970231469123519"><ele>1038.0</ele><time>2026-04-18T09:48:28Z</time></trkpt><trkpt lat="43.09367321506461" lon="12.970152761588752"><ele>1040.0</ele><time>2026-04-18T09:48:29Z</time></trkpt><trkpt lat="43.09371862647696" lon="12.970037571564506"><ele>1042.0</ele><time>2026-04-18T09:48:30Z</time></trkpt><trkpt lat="43.093766732259006" lon="12.969920830616692"><ele>1044.0</ele><time>2026-04-18T09:48:31Z</time></trkpt><trkpt lat="43.09384362404778" lon="12.969817774863206"><ele>1044.0</ele><time>2026-04-18T09:48:32Z</time></trkpt><trkpt lat="43.09392325410428" lon="12.969730315167594"><ele>1044.0</ele><time>2026-04-18T09:48:33Z</time></trkpt><trkpt lat="43.094016125072976" lon="12.969637675712526"><ele>1044.0</ele><time>2026-04-18T09:48:34Z</time></trkpt><trkpt lat="43.09412062947718" lon="12.96953547474935"><ele>1044.0</ele><time>2026-04-18T09:48:35Z</time></trkpt><trkpt lat="43.09423683998748" lon="12.969414189194078"><ele>1045.0</ele><time>2026-04-18T09:48:36Z</time></trkpt><trkpt lat="43.094344068557334" lon="12.969307212760569"><ele>1046.0</ele><time>2026-04-18T09:48:37Z</time></trkpt><trkpt lat="43.09442362229035" lon="12.969230275246433"><ele>1047.0</ele><time>2026-04-18T09:48:38Z</time></trkpt><trkpt lat="43.094494534234784" lon="12.969167593207564"><ele>1048.0</ele><time>2026-04-18T09:48:39Z</time></trkpt><trkpt lat="43.09455133295633" lon="12.969108753365596"><ele>1049.0</ele><time>2026-04-18T09:48:40Z</time></trkpt><trkpt lat="43.094603825338254" lon="12.969024072928828"><ele>1049.0</ele><time>2026-04-18T09:48:41Z</time></trkpt><trkpt lat="43.09463746299038" lon="12.968890526164458"><ele>1049.0</ele><time>2026-04-18T09:48:42Z</time></trkpt><trkpt lat="43.09466410405167" lon="12.96876315119585"><ele>1049.0</ele><time>2026-04-18T09:48:43Z</time></trkpt><trkpt lat="43.09466687487232" lon="12.968640923920887"><ele>1049.0</ele><time>2026-04-18T09:48:44Z</time></trkpt><trkpt lat="43.09466838526984" lon="12.968538842350432"><ele>1049.0</ele><time>2026-04-18T09:48:45Z</time></trkpt><trkpt lat="43.09466776435211" lon="12.968387262975465"><ele>1048.3333333333335</ele><time>2026-04-18T09:48:47Z</time></trkpt><trkpt lat="43.09466411212107" lon="12.9682519284329"><ele>1047.6666666666667</ele><time>2026-04-18T09:48:49Z</time></trkpt><trkpt lat="43.09465475982726" lon="12.968159387317735"><ele>1047.0</ele><time>2026-04-18T09:48:52Z</time></trkpt><trkpt lat="43.09466485692297" lon="12.968067770326078"><ele>1046.3333333333333</ele><time>2026-04-18T09:49:08Z</time></trkpt><trkpt lat="43.09459990069917" lon="12.968041682336533"><ele>1045.6666666666665</ele><time>2026-04-18T09:49:34Z</time></trkpt><trkpt lat="43.09453602427051" lon="12.967970526345248"><ele>1045.0</ele><time>2026-04-18T09:49:37Z</time></trkpt><trkpt lat="43.09447855943052" lon="12.967890634968267"><ele>1045.0</ele><time>2026-04-18T09:49:40Z</time></trkpt><trkpt lat="43.0943931237634" lon="12.967830028536374"><ele>1045.0</ele><time>2026-04-18T09:49:43Z</time></trkpt><trkpt lat="43.09435206271057" lon="12.967757582732037"><ele>1045.0</ele><time>2026-04-18T09:49:44Z</time></trkpt><trkpt lat="43.09428561227515" lon="12.96772153434777"><ele>1045.0</ele><time>2026-04-18T09:49:45Z</time></trkpt><trkpt lat="43.0942333401554" lon="12.96763688132581"><ele>1045.0</ele><time>2026-04-18T09:49:47Z</time></trkpt><trkpt lat="43.09419530906067" lon="12.967504198325164"><ele>1045.0</ele><time>2026-04-18T09:49:49Z</time></trkpt><trkpt lat="43.09416743373499" lon="12.96739944730757"><ele>1044.6</ele><time>2026-04-18T09:49:51Z</time></trkpt><trkpt lat="43.09415266898757" lon="12.967299437663007"><ele>1044.2</ele><time>2026-04-18T09:49:53Z</time></trkpt><trkpt lat="43.09406845097821" lon="12.967203779908"><ele>1043.8</ele><time>2026-04-18T09:49:55Z</time></trkpt><trkpt lat="43.09398339775503" lon="12.967133185717799"><ele>1043.4</ele><time>2026-04-18T09:49:57Z</time></trkpt><trkpt lat="43.09386695803477" lon="12.967139067227539"><ele>1043.0</ele><time>2026-04-18T09:49:59Z</time></trkpt><trkpt lat="43.09380334868843" lon="12.967114262731144"><ele>1043.0</ele><time>2026-04-18T09:50:00Z</time></trkpt><trkpt lat="43.09370273550821" lon="12.967085431723458"><ele>1043.0</ele><time>2026-04-18T09:50:02Z</time></trkpt><trkpt lat="43.09360125537508" lon="12.96703501423081"><ele>1043.0</ele><time>2026-04-18T09:50:04Z</time></trkpt><trkpt lat="43.093540412966654" lon="12.96698970774534"><ele>1043.0</ele><time>2026-04-18T09:50:05Z</time></trkpt><trkpt lat="43.09346713644833" lon="12.966954649060703"><ele>1043.0</ele><time>2026-04-18T09:50:06Z</time></trkpt><trkpt lat="43.093401283301624" lon="12.966913580669164"><ele>1043.0</ele><time>2026-04-18T09:50:07Z</time></trkpt><trkpt lat="43.093335644913516" lon="12.966882883473746"><ele>1043.0</ele><time>2026-04-18T09:50:08Z</time></trkpt><trkpt lat="43.09327589741454" lon="12.966853338631434"><ele>1043.0</ele><time>2026-04-18T09:50:09Z</time></trkpt><trkpt lat="43.09321243508454" lon="12.966802489701996"><ele>1043.0</ele><time>2026-04-18T09:50:10Z</time></trkpt><trkpt lat="43.093144171008426" lon="12.966768993160297"><ele>1043.0</ele><time>2026-04-18T09:50:11Z</time></trkpt><trkpt lat="43.09307991603006" lon="12.966733517673912"><ele>1043.0</ele><time>2026-04-18T09:50:12Z</time></trkpt><trkpt lat="43.09301993408889" lon="12.966690659756484"><ele>1043.0</ele><time>2026-04-18T09:50:13Z</time></trkpt><trkpt lat="43.09295908207967" lon="12.966648585157436"><ele>1043.0</ele><time>2026-04-18T09:50:14Z</time></trkpt><trkpt lat="43.09290304424471" lon="12.966595265710565"><ele>1042.1666666666667</ele><time>2026-04-18T09:50:15Z</time></trkpt><trkpt lat="43.09284685008318" lon="12.966541951238597"><ele>1041.3333333333335</ele><time>2026-04-18T09:50:16Z</time></trkpt><trkpt lat="43.09278889494161" lon="12.966481633030483"><ele>1040.5</ele><time>2026-04-18T09:50:17Z</time></trkpt><trkpt lat="43.09272971059624" lon="12.966410523288944"><ele>1039.6666666666667</ele><time>2026-04-18T09:50:18Z</time></trkpt><trkpt lat="43.0926763057501" lon="12.966328270225063"><ele>1038.8333333333333</ele><time>2026-04-18T09:50:19Z</time></trkpt><trkpt lat="43.0926101276018" lon="12.966263061977811"><ele>1038.0</ele><time>2026-04-18T09:50:20Z</time></trkpt><trkpt lat="43.092543335716414" lon="12.966208352418791"><ele>1038.0</ele><time>2026-04-18T09:50:21Z</time></trkpt><trkpt lat="43.09248593284106" lon="12.966161632785987"><ele>1038.0</ele><time>2026-04-18T09:50:22Z</time></trkpt><trkpt lat="43.092400818824565" lon="12.966107186150596"><ele>1038.0</ele><time>2026-04-18T09:50:24Z</time></trkpt><trkpt lat="43.092332647744875" lon="12.966057976676465"><ele>1038.0</ele><time>2026-04-18T09:50:29Z</time></trkpt><trkpt lat="43.09228259662443" lon="12.965998938636156"><ele>1038.0</ele><time>2026-04-18T09:50:36Z</time></trkpt><trkpt lat="43.092214516959814" lon="12.96598076640698"><ele>1038.0</ele><time>2026-04-18T09:50:45Z</time></trkpt><trkpt lat="43.09216245973397" lon="12.965925269122405"><ele>1038.0</ele><time>2026-04-18T09:50:49Z</time></trkpt><trkpt lat="43.09210791681695" lon="12.96586750519556"><ele>1037.2</ele><time>2026-04-18T09:50:54Z</time></trkpt><trkpt lat="43.092015149873276" lon="12.965786440598103"><ele>1036.4</ele><time>2026-04-18T09:51:17Z</time></trkpt><trkpt lat="43.09201873911515" lon="12.96568158561981"><ele>1035.6000000000001</ele><time>2026-04-18T09:51:22Z</time></trkpt><trkpt lat="43.09198338511402" lon="12.965587924240563"><ele>1034.8</ele><time>2026-04-18T09:51:25Z</time></trkpt><trkpt lat="43.091959955447514" lon="12.965477437213762"><ele>1034.0</ele><time>2026-04-18T09:51:28Z</time></trkpt><trkpt lat="43.09191471318181" lon="12.965335334759958"><ele>1034.0</ele><time>2026-04-18T09:51:30Z</time></trkpt><trkpt lat="43.0918997656272" lon="12.965248310120257"><ele>1034.0</ele><time>2026-04-18T09:51:31Z</time></trkpt><trkpt lat="43.09188260967515" lon="12.965161137015802"><ele>1034.0</ele><time>2026-04-18T09:51:32Z</time></trkpt><trkpt lat="43.09187649496644" lon="12.965065062965104"><ele>1034.0</ele><time>2026-04-18T09:51:33Z</time></trkpt><trkpt lat="43.09186021509334" lon="12.964975298421626"><ele>1034.0</ele><time>2026-04-18T09:51:34Z</time></trkpt><trkpt lat="43.091814503353675" lon="12.96480185331609"><ele>1034.0</ele><time>2026-04-18T09:51:36Z</time></trkpt><trkpt lat="43.09178217953847" lon="12.964689728623679"><ele>1033.8333333333335</ele><time>2026-04-18T09:51:37Z</time></trkpt><trkpt lat="43.09172761503186" lon="12.964585789560962"><ele>1033.6666666666667</ele><time>2026-04-18T09:51:38Z</time></trkpt><trkpt lat="43.09167759510581" lon="12.964503674389176"><ele>1033.5</ele><time>2026-04-18T09:51:39Z</time></trkpt><trkpt lat="43.09162801207129" lon="12.96442994789321"><ele>1033.3333333333333</ele><time>2026-04-18T09:51:40Z</time></trkpt><trkpt lat="43.09157225050071" lon="12.964358337302098"><ele>1033.1666666666665</ele><time>2026-04-18T09:51:41Z</time></trkpt><trkpt lat="43.091525187655016" lon="12.964282645137612"><ele>1033.0</ele><time>2026-04-18T09:51:42Z</time></trkpt><trkpt lat="43.09148768214378" lon="12.964202456801507"><ele>1033.0</ele><time>2026-04-18T09:51:43Z</time></trkpt><trkpt lat="43.09144608443638" lon="12.964132134730653"><ele>1033.0</ele><time>2026-04-18T09:51:44Z</time></trkpt><trkpt lat="43.091399391661184" lon="12.964043800552847"><ele>1033.0</ele><time>2026-04-18T09:51:46Z</time></trkpt><trkpt lat="43.09137113071688" lon="12.963944494220188"><ele>1033.0</ele><time>2026-04-18T09:51:48Z</time></trkpt><trkpt lat="43.0913285346252" lon="12.964039022408954"><ele>1033.0</ele><time>2026-04-18T09:51:51Z</time></trkpt><trkpt lat="43.091263721881305" lon="12.964194085773364"><ele>1033.0</ele><time>2026-04-18T09:51:53Z</time></trkpt><trkpt lat="43.09122306586963" lon="12.964320943576762"><ele>1033.0</ele><time>2026-04-18T09:51:54Z</time></trkpt><trkpt lat="43.09118550733882" lon="12.964475983036309"><ele>1033.0</ele><time>2026-04-18T09:51:55Z</time></trkpt><trkpt lat="43.09115559719862" lon="12.964629426656257"><ele>1033.0</ele><time>2026-04-18T09:51:56Z</time></trkpt><trkpt lat="43.091135546672305" lon="12.964756997961043"><ele>1033.0</ele><time>2026-04-18T09:51:57Z</time></trkpt><trkpt lat="43.09112491887742" lon="12.964855155584242"><ele>1033.0</ele><time>2026-04-18T09:51:58Z</time></trkpt><trkpt lat="43.09111885906358" lon="12.964944578658875"><ele>1033.6</ele><time>2026-04-18T09:51:59Z</time></trkpt><trkpt lat="43.091123670083284" lon="12.965034619257711"><ele>1034.1999999999998</ele><time>2026-04-18T09:52:00Z</time></trkpt><trkpt lat="43.09113484964634" lon="12.965121079107012"><ele>1034.8</ele><time>2026-04-18T09:52:01Z</time></trkpt><trkpt lat="43.091188544417896" lon="12.965267664330607"><ele>1035.3999999999999</ele><time>2026-04-18T09:52:03Z</time></trkpt><trkpt lat="43.091271973220984" lon="12.965391802316358"><ele>1036.0</ele><time>2026-04-18T09:52:05Z</time></trkpt><trkpt lat="43.091341263513776" lon="12.965464281908332"><ele>1036.0</ele><time>2026-04-18T09:52:07Z</time></trkpt><trkpt lat="43.0914192489943" lon="12.96551419734225"><ele>1036.0</ele><time>2026-04-18T09:52:10Z</time></trkpt><trkpt lat="43.09144342901541" lon="12.96560258291504"><ele>1036.0</ele><time>2026-04-18T09:52:44Z</time></trkpt><trkpt lat="43.09139630954965" lon="12.965663292594224"><ele>1036.0</ele><time>2026-04-18T09:52:51Z</time></trkpt><trkpt lat="43.09145267697122" lon="12.96561277895514"><ele>1036.0</ele><time>2026-04-18T09:54:04Z</time></trkpt><trkpt lat="43.09139338092264" lon="12.965703590935863"><ele>1036.0</ele><time>2026-04-18T09:55:08Z</time></trkpt><trkpt lat="43.09133992749824" lon="12.965625842037703"><ele>1036.0</ele><time>2026-04-18T09:55:21Z</time></trkpt><trkpt lat="43.09143034174448" lon="12.965640251348947"><ele>1036.0</ele><time>2026-04-18T09:55:30Z</time></trkpt><trkpt lat="43.09148954516955" lon="12.965692683928244"><ele>1036.0</ele><time>2026-04-18T09:55:32Z</time></trkpt><trkpt lat="43.09156851509893" lon="12.96566603809864"><ele>1036.0</ele><time>2026-04-18T09:55:34Z</time></trkpt><trkpt lat="43.09164113702473" lon="12.965621155201077"><ele>1036.0</ele><time>2026-04-18T09:55:36Z</time></trkpt><trkpt lat="43.091722253132694" lon="12.965583548167393"><ele>1036.0</ele><time>2026-04-18T09:55:38Z</time></trkpt><trkpt lat="43.0917993415553" lon="12.965572637919703"><ele>1035.6</ele><time>2026-04-18T09:55:40Z</time></trkpt><trkpt lat="43.091872658685716" lon="12.965588581825253"><ele>1035.1999999999998</ele><time>2026-04-18T09:55:44Z</time></trkpt><trkpt lat="43.09188127004649" lon="12.965480076072927"><ele>1034.8000000000002</ele><time>2026-04-18T09:55:50Z</time></trkpt><trkpt lat="43.09184581323981" lon="12.965343512752963"><ele>1034.4</ele><time>2026-04-18T09:55:53Z</time></trkpt><trkpt lat="43.09180702815329" lon="12.965203585100928"><ele>1034.0</ele><time>2026-04-18T09:55:55Z</time></trkpt><trkpt lat="43.091794590723445" lon="12.965029807971108"><ele>1034.5</ele><time>2026-04-18T09:55:57Z</time></trkpt><trkpt lat="43.09179327277177" lon="12.964928343251374"><ele>1035.0</ele><time>2026-04-18T09:55:58Z</time></trkpt><trkpt lat="43.0917704086576" lon="12.964827484123328"><ele>1035.5</ele><time>2026-04-18T09:55:59Z</time></trkpt><trkpt lat="43.091739940411294" lon="12.964728569785983"><ele>1036.0</ele><time>2026-04-18T09:56:00Z</time></trkpt><trkpt lat="43.09171192055266" lon="12.964620921837563"><ele>1036.5</ele><time>2026-04-18T09:56:01Z</time></trkpt><trkpt lat="43.09167160032326" lon="12.964511122086918"><ele>1037.0</ele><time>2026-04-18T09:56:02Z</time></trkpt><trkpt lat="43.09161338204665" lon="12.96440921683803"><ele>1036.3333333333335</ele><time>2026-04-18T09:56:03Z</time></trkpt><trkpt lat="43.0915464723944" lon="12.964319907415787"><ele>1035.6666666666667</ele><time>2026-04-18T09:56:04Z</time></trkpt><trkpt lat="43.09148017681137" lon="12.96422972423804"><ele>1035.0</ele><time>2026-04-18T09:56:05Z</time></trkpt><trkpt lat="43.09142167696773" lon="12.96413264406899"><ele>1034.3333333333333</ele><time>2026-04-18T09:56:06.001Z</time></trkpt><trkpt lat="43.09136920135004" lon="12.964048714928108"><ele>1033.6666666666665</ele><time>2026-04-18T09:56:07.001Z</time></trkpt><trkpt lat="43.09132105050711" lon="12.963968821910624"><ele>1033.0</ele><time>2026-04-18T09:56:08.001Z</time></trkpt><trkpt lat="43.09128048707013" lon="12.963889143638426"><ele>1031.857142857143</ele><time>2026-04-18T09:56:09.001Z</time></trkpt><trkpt lat="43.091236678491555" lon="12.963818543961517"><ele>1030.7142857142858</ele><time>2026-04-18T09:56:10.001Z</time></trkpt><trkpt lat="43.091191156025914" lon="12.963742198883935"><ele>1029.5714285714284</ele><time>2026-04-18T09:56:11.001Z</time></trkpt><trkpt lat="43.09114643713729" lon="12.963670672254525"><ele>1028.4285714285716</ele><time>2026-04-18T09:56:12.001Z</time></trkpt><trkpt lat="43.09110021712594" lon="12.963593512295088"><ele>1027.2857142857142</ele><time>2026-04-18T09:56:13.001Z</time></trkpt><trkpt lat="43.091058109773606" lon="12.963508583585645"><ele>1026.142857142857</ele><time>2026-04-18T09:56:14.001Z</time></trkpt><trkpt lat="43.091016885557636" lon="12.96341107757392"><ele>1025.0</ele><time>2026-04-18T09:56:15.001Z</time></trkpt><trkpt lat="43.09099686494519" lon="12.963319418992088"><ele>1024.0</ele><time>2026-04-18T09:56:16.001Z</time></trkpt><trkpt lat="43.09098073295594" lon="12.963230093819424"><ele>1023.0</ele><time>2026-04-18T09:56:17.001Z</time></trkpt><trkpt lat="43.09096439443249" lon="12.963137508957033"><ele>1022.0</ele><time>2026-04-18T09:56:18.001Z</time></trkpt><trkpt lat="43.09094578338849" lon="12.962989985132511"><ele>1021.0</ele><time>2026-04-18T09:56:20.001Z</time></trkpt><trkpt lat="43.09096335386137" lon="12.962885318689668"><ele>1020.0000000000001</ele><time>2026-04-18T09:56:22.001Z</time></trkpt><trkpt lat="43.090978645665395" lon="12.962782314790454"><ele>1019.0</ele><time>2026-04-18T09:56:24.001Z</time></trkpt><trkpt lat="43.09099343499604" lon="12.96264972537286"><ele>1018.1666666666667</ele><time>2026-04-18T09:56:26.001Z</time></trkpt><trkpt lat="43.0910153961698" lon="12.962471202688548"><ele>1017.3333333333334</ele><time>2026-04-18T09:56:28.001Z</time></trkpt><trkpt lat="43.0910484924499" lon="12.962382706851098"><ele>1016.5</ele><time>2026-04-18T09:56:29.001Z</time></trkpt><trkpt lat="43.09108207744213" lon="12.962300502912484"><ele>1015.6666666666667</ele><time>2026-04-18T09:56:30.001Z</time></trkpt><trkpt lat="43.09112388445492" lon="12.962173290344372"><ele>1014.8333333333334</ele><time>2026-04-18T09:56:32.001Z</time></trkpt><trkpt lat="43.09114587593882" lon="12.962081379639702"><ele>1014.0</ele><time>2026-04-18T09:56:34.001Z</time></trkpt><trkpt lat="43.09120053077566" lon="12.961973314216523"><ele>1014.0</ele><time>2026-04-18T09:56:37.001Z</time></trkpt><trkpt lat="43.09122132516411" lon="12.961861197333377"><ele>1014.0</ele><time>2026-04-18T09:56:39.001Z</time></trkpt><trkpt lat="43.09122414929945" lon="12.961746622355774"><ele>1014.0</ele><time>2026-04-18T09:56:41.001Z</time></trkpt><trkpt lat="43.09123401206067" lon="12.961622681455683"><ele>1014.0</ele><time>2026-04-18T09:56:43.001Z</time></trkpt><trkpt lat="43.091249830525655" lon="12.961480825000653"><ele>1014.0</ele><time>2026-04-18T09:56:45.001Z</time></trkpt><trkpt lat="43.091267348354826" lon="12.961380821538624"><ele>1014.0</ele><time>2026-04-18T09:56:47.001Z</time></trkpt><trkpt lat="43.09130289739779" lon="12.9612772203071"><ele>1012.2</ele><time>2026-04-18T09:56:50Z</time></trkpt><trkpt lat="43.091316685767154" lon="12.961188507317459"><ele>1010.4000000000001</ele><time>2026-04-18T09:56:55Z</time></trkpt><trkpt lat="43.09131650383763" lon="12.960952540152162"><ele>1008.6</ele><time>2026-04-18T09:57:05Z</time></trkpt><trkpt lat="43.091361921037795" lon="12.960885757278072"><ele>1006.8</ele><time>2026-04-18T09:57:06Z</time></trkpt><trkpt lat="43.09146230802434" lon="12.960797810506683"><ele>1005.0</ele><time>2026-04-18T09:57:08Z</time></trkpt><trkpt lat="43.09151474172441" lon="12.960747570843907"><ele>1002.4</ele><time>2026-04-18T09:57:09Z</time></trkpt><trkpt lat="43.09155408361804" lon="12.960670684623656"><ele>999.8</ele><time>2026-04-18T09:57:10Z</time></trkpt><trkpt lat="43.09159482882753" lon="12.960597477245727"><ele>997.2</ele><time>2026-04-18T09:57:11Z</time></trkpt><trkpt lat="43.091661353335425" lon="12.960475545538547"><ele>994.6</ele><time>2026-04-18T09:57:13Z</time></trkpt><trkpt lat="43.09170876279279" lon="12.960344127879226"><ele>992.0</ele><time>2026-04-18T09:57:15Z</time></trkpt><trkpt lat="43.0917554323966" lon="12.960224489343735"><ele>991.6666666666667</ele><time>2026-04-18T09:57:17Z</time></trkpt><trkpt lat="43.091793610335095" lon="12.96007482546963"><ele>991.3333333333334</ele><time>2026-04-18T09:57:19Z</time></trkpt><trkpt lat="43.09182391383155" lon="12.959993271222165"><ele>991.0</ele><time>2026-04-18T09:57:20Z</time></trkpt><trkpt lat="43.091864353895744" lon="12.959902815481144"><ele>990.6666666666667</ele><time>2026-04-18T09:57:21Z</time></trkpt><trkpt lat="43.09189487535787" lon="12.959815029515362"><ele>990.3333333333334</ele><time>2026-04-18T09:57:22Z</time></trkpt><trkpt lat="43.09192728528388" lon="12.959735341010113"><ele>990.0</ele><time>2026-04-18T09:57:23Z</time></trkpt><trkpt lat="43.09198096407124" lon="12.959580487831476"><ele>988.8</ele><time>2026-04-18T09:57:25Z</time></trkpt><trkpt lat="43.092032460187916" lon="12.95944720852739"><ele>987.6</ele><time>2026-04-18T09:57:27Z</time></trkpt><trkpt lat="43.09208682446319" lon="12.95932921592652"><ele>986.4000000000001</ele><time>2026-04-18T09:57:29Z</time></trkpt><trkpt lat="43.092139928152875" lon="12.959183499251706"><ele>985.2</ele><time>2026-04-18T09:57:31Z</time></trkpt><trkpt lat="43.09218708551377" lon="12.959086448065428"><ele>984.0</ele><time>2026-04-18T09:57:32Z</time></trkpt><trkpt lat="43.092219491028246" lon="12.958994347892336"><ele>982.1666666666666</ele><time>2026-04-18T09:57:33Z</time></trkpt><trkpt lat="43.0922539503301" lon="12.95889963463194"><ele>980.3333333333333</ele><time>2026-04-18T09:57:34Z</time></trkpt><trkpt lat="43.09228509110805" lon="12.958793204815283"><ele>978.5</ele><time>2026-04-18T09:57:35Z</time></trkpt><trkpt lat="43.092325769536814" lon="12.958684542426262"><ele>976.6666666666666</ele><time>2026-04-18T09:57:36Z</time></trkpt><trkpt lat="43.09235064379577" lon="12.958586331714324"><ele>974.8333333333333</ele><time>2026-04-18T09:57:37Z</time></trkpt><trkpt lat="43.09235327005782" lon="12.95844677269304"><ele>973.0</ele><time>2026-04-18T09:57:39Z</time></trkpt><trkpt lat="43.09234663583513" lon="12.958333546552675"><ele>971.8333333333333</ele><time>2026-04-18T09:57:41Z</time></trkpt><trkpt lat="43.09236201299682" lon="12.95824426314334"><ele>970.6666666666666</ele><time>2026-04-18T09:57:42Z</time></trkpt><trkpt lat="43.0923882000822" lon="12.95816370667303"><ele>969.5</ele><time>2026-04-18T09:57:43Z</time></trkpt><trkpt lat="43.092393328783146" lon="12.958070626466176"><ele>968.3333333333333</ele><time>2026-04-18T09:57:44Z</time></trkpt><trkpt lat="43.09243103259078" lon="12.957994812014128"><ele>967.1666666666666</ele><time>2026-04-18T09:57:45Z</time></trkpt><trkpt lat="43.09252210049909" lon="12.957976444446594"><ele>966.0</ele><time>2026-04-18T09:57:47Z</time></trkpt><trkpt lat="43.09263308195624" lon="12.957971671688082"><ele>966.0</ele><time>2026-04-18T09:57:49Z</time></trkpt><trkpt lat="43.09269644427699" lon="12.957972205673723"><ele>965.9999999999999</ele><time>2026-04-18T09:57:50Z</time></trkpt><trkpt lat="43.09276892435107" lon="12.957967308862067"><ele>965.9999999999999</ele><time>2026-04-18T09:57:51Z</time></trkpt><trkpt lat="43.092895570095386" lon="12.957949256459399"><ele>966.0</ele><time>2026-04-18T09:57:53Z</time></trkpt><trkpt lat="43.093014922874794" lon="12.957958198182958"><ele>966.0</ele><time>2026-04-18T09:57:55Z</time></trkpt><trkpt lat="43.09308679571872" lon="12.957995504194724"><ele>966.0</ele><time>2026-04-18T09:57:57Z</time></trkpt><trkpt lat="43.09312641046214" lon="12.9580878926233"><ele>965.9999999999999</ele><time>2026-04-18T09:57:59Z</time></trkpt><trkpt lat="43.093137304123694" lon="12.958255259039138"><ele>965.9999999999999</ele><time>2026-04-18T09:58:01Z</time></trkpt><trkpt lat="43.093143373863526" lon="12.958349541435"><ele>966.0</ele><time>2026-04-18T09:58:02Z</time></trkpt><trkpt lat="43.093160464838206" lon="12.958465334975354"><ele>966.0</ele><time>2026-04-18T09:58:03Z</time></trkpt><trkpt lat="43.093174163160306" lon="12.95860176735783"><ele>965.6666666666666</ele><time>2026-04-18T09:58:04Z</time></trkpt><trkpt lat="43.09317341824633" lon="12.958727135408042"><ele>965.3333333333333</ele><time>2026-04-18T09:58:05Z</time></trkpt><trkpt lat="43.093176148846545" lon="12.95885246088899"><ele>965.0</ele><time>2026-04-18T09:58:06Z</time></trkpt><trkpt lat="43.09318447755205" lon="12.958977658321578"><ele>964.6666666666666</ele><time>2026-04-18T09:58:07Z</time></trkpt><trkpt lat="43.09318757444755" lon="12.959082523852814"><ele>964.3333333333333</ele><time>2026-04-18T09:58:08Z</time></trkpt><trkpt lat="43.09319917992473" lon="12.959180066823212"><ele>964.0</ele><time>2026-04-18T09:58:09Z</time></trkpt><trkpt lat="43.09322033068455" lon="12.959288192119688"><ele>963.9999999999999</ele><time>2026-04-18T09:58:10Z</time></trkpt><trkpt lat="43.093236965441456" lon="12.959384433134804"><ele>964.0</ele><time>2026-04-18T09:58:11Z</time></trkpt><trkpt lat="43.09323894489243" lon="12.959478436124666"><ele>964.0</ele><time>2026-04-18T09:58:12Z</time></trkpt><trkpt lat="43.09323726476972" lon="12.959566964274241"><ele>964.0</ele><time>2026-04-18T09:58:13Z</time></trkpt><trkpt lat="43.09326028800999" lon="12.959728020745775"><ele>963.9999999999999</ele><time>2026-04-18T09:58:15Z</time></trkpt><trkpt lat="43.09328437199301" lon="12.959818616849587"><ele>964.0</ele><time>2026-04-18T09:58:16Z</time></trkpt><trkpt lat="43.093292100923335" lon="12.959932633643474"><ele>960.4000000000001</ele><time>2026-04-18T09:58:18Z</time></trkpt><trkpt lat="43.093358541205326" lon="12.959865247193854"><ele>956.8000000000001</ele><time>2026-04-18T09:58:23Z</time></trkpt><trkpt lat="43.09342102923017" lon="12.959736584524256"><ele>953.1999999999999</ele><time>2026-04-18T09:58:25Z</time></trkpt><trkpt lat="43.09349657449376" lon="12.95960311223417"><ele>949.5999999999999</ele><time>2026-04-18T09:58:27Z</time></trkpt><trkpt lat="43.09354498359931" lon="12.959437109290556"><ele>946.0</ele><time>2026-04-18T09:58:29Z</time></trkpt><trkpt lat="43.09357028629414" lon="12.959357528767217"><ele>945.9999999999999</ele><time>2026-04-18T09:58:30Z</time></trkpt><trkpt lat="43.09361370096242" lon="12.95929254132771"><ele>946.0</ele><time>2026-04-18T09:58:31Z</time></trkpt><trkpt lat="43.09366189318818" lon="12.959223525710994"><ele>946.0</ele><time>2026-04-18T09:58:32Z</time></trkpt><trkpt lat="43.09370806306743" lon="12.959159946830198"><ele>946.0</ele><time>2026-04-18T09:58:33Z</time></trkpt><trkpt lat="43.09374855073762" lon="12.959087383389635"><ele>945.9999999999999</ele><time>2026-04-18T09:58:34Z</time></trkpt><trkpt lat="43.093771837266864" lon="12.95900261012264"><ele>946.0</ele><time>2026-04-18T09:58:35Z</time></trkpt><trkpt lat="43.093816679075125" lon="12.958846953437424"><ele>944.4999999999999</ele><time>2026-04-18T09:58:37Z</time></trkpt><trkpt lat="43.09385856268368" lon="12.958766408688119"><ele>943.0</ele><time>2026-04-18T09:58:38Z</time></trkpt><trkpt lat="43.09389931861571" lon="12.958683973629983"><ele>941.5</ele><time>2026-04-18T09:58:39Z</time></trkpt><trkpt lat="43.09393479746313" lon="12.958608545381038"><ele>940.0</ele><time>2026-04-18T09:58:40Z</time></trkpt><trkpt lat="43.09396565336947" lon="12.958457715059465"><ele>938.4999999999999</ele><time>2026-04-18T09:58:42Z</time></trkpt><trkpt lat="43.09398720629411" lon="12.95829999487972"><ele>937.0</ele><time>2026-04-18T09:58:44Z</time></trkpt><trkpt lat="43.09401763503181" lon="12.95818708340249"><ele>936.9999999999999</ele><time>2026-04-18T09:58:46Z</time></trkpt><trkpt lat="43.094045983618756" lon="12.958066607735333"><ele>937.0</ele><time>2026-04-18T09:58:48Z</time></trkpt><trkpt lat="43.094088816066474" lon="12.957943525850983"><ele>937.0</ele><time>2026-04-18T09:58:50Z</time></trkpt><trkpt lat="43.09413769173582" lon="12.957843830906226"><ele>937.0</ele><time>2026-04-18T09:58:52Z</time></trkpt><trkpt lat="43.0941807623087" lon="12.957777217894453"><ele>936.9999999999999</ele><time>2026-04-18T09:58:55Z</time></trkpt><trkpt lat="43.094236575812566" lon="12.95767581775424"><ele>937.0</ele><time>2026-04-18T09:58:59Z</time></trkpt><trkpt lat="43.09428788510913" lon="12.957559620736573"><ele>928.5</ele><time>2026-04-18T09:59:03Z</time></trkpt><trkpt lat="43.094326643649474" lon="12.957406271746075"><ele>920.0</ele><time>2026-04-18T09:59:05Z</time></trkpt><trkpt lat="43.09436667031071" lon="12.95733647599339"><ele>911.5</ele><time>2026-04-18T09:59:06Z</time></trkpt><trkpt lat="43.09461160981792" lon="12.957444019624106"><ele>903.0</ele><time>2026-04-18T09:59:07Z</time></trkpt><trkpt lat="43.09469445441954" lon="12.95724521923157"><ele>903.0</ele><time>2026-04-18T09:59:09Z</time></trkpt><trkpt lat="43.09472895668644" lon="12.957156627778502"><ele>903.0</ele><time>2026-04-18T09:59:10Z</time></trkpt><trkpt lat="43.09476402019172" lon="12.957066597156"><ele>903.0</ele><time>2026-04-18T09:59:11Z</time></trkpt><trkpt lat="43.094790574274654" lon="12.956977070361612"><ele>903.0</ele><time>2026-04-18T09:59:12Z</time></trkpt><trkpt lat="43.094910125138526" lon="12.956961112114152"><ele>903.0</ele><time>2026-04-18T09:59:14Z</time></trkpt><trkpt lat="43.09500040413813" lon="12.956997267026567"><ele>903.0</ele><time>2026-04-18T09:59:15Z</time></trkpt><trkpt lat="43.095091273454464" lon="12.957037644216154"><ele>905.0</ele><time>2026-04-18T09:59:16Z</time></trkpt><trkpt lat="43.09517693935518" lon="12.957070691098144"><ele>907.0</ele><time>2026-04-18T09:59:17Z</time></trkpt><trkpt lat="43.095268200633726" lon="12.957113865913879"><ele>909.0</ele><time>2026-04-18T09:59:18Z</time></trkpt><trkpt lat="43.09537450581994" lon="12.957138491045642"><ele>911.0</ele><time>2026-04-18T09:59:19Z</time></trkpt><trkpt lat="43.09547214523395" lon="12.957182492404254"><ele>913.0</ele><time>2026-04-18T09:59:20Z</time></trkpt><trkpt lat="43.09557228390138" lon="12.957226261808678"><ele>913.0</ele><time>2026-04-18T09:59:21Z</time></trkpt><trkpt lat="43.09566490308452" lon="12.957275010329104"><ele>913.0</ele><time>2026-04-18T09:59:22Z</time></trkpt><trkpt lat="43.09575772248244" lon="12.957318697829516"><ele>913.0</ele><time>2026-04-18T09:59:23Z</time></trkpt><trkpt lat="43.09585177588419" lon="12.957363170995407"><ele>913.0</ele><time>2026-04-18T09:59:24Z</time></trkpt><trkpt lat="43.09595283320323" lon="12.957398895128927"><ele>913.0</ele><time>2026-04-18T09:59:25Z</time></trkpt><trkpt lat="43.09605351464739" lon="12.957423722528588"><ele>915.0</ele><time>2026-04-18T09:59:26Z</time></trkpt><trkpt lat="43.09615209011728" lon="12.957457054484667"><ele>917.0</ele><time>2026-04-18T09:59:27Z</time></trkpt><trkpt lat="43.09625029590378" lon="12.95750336997153"><ele>919.0</ele><time>2026-04-18T09:59:28Z</time></trkpt><trkpt lat="43.09634755141521" lon="12.95754262635006"><ele>921.0</ele><time>2026-04-18T09:59:29Z</time></trkpt><trkpt lat="43.09643605568577" lon="12.957603906765419"><ele>923.0</ele><time>2026-04-18T09:59:30Z</time></trkpt><trkpt lat="43.09652362445188" lon="12.957660387395194"><ele>929.2</ele><time>2026-04-18T09:59:31Z</time></trkpt><trkpt lat="43.09660639643016" lon="12.957735583111782"><ele>935.4</ele><time>2026-04-18T09:59:32Z</time></trkpt><trkpt lat="43.09668932886768" lon="12.957801786865872"><ele>941.6000000000001</ele><time>2026-04-18T09:59:33Z</time></trkpt><trkpt lat="43.09677404847213" lon="12.957847613537643"><ele>947.8000000000001</ele><time>2026-04-18T09:59:34Z</time></trkpt><trkpt lat="43.09686345809359" lon="12.957886792066446"><ele>954.0</ele><time>2026-04-18T09:59:35Z</time></trkpt><trkpt lat="43.096944713307195" lon="12.957868770886302"><ele>954.0</ele><time>2026-04-18T09:59:36Z</time></trkpt><trkpt lat="43.09703564633359" lon="12.957846379618116"><ele>954.0000000000001</ele><time>2026-04-18T09:59:37Z</time></trkpt><trkpt lat="43.09712378193018" lon="12.957816577695644"><ele>954.0000000000001</ele><time>2026-04-18T09:59:38Z</time></trkpt><trkpt lat="43.09721792389145" lon="12.957809003300879"><ele>954.0</ele><time>2026-04-18T09:59:39Z</time></trkpt><trkpt lat="43.09730528786291" lon="12.957789181686426"><ele>954.0</ele><time>2026-04-18T09:59:40Z</time></trkpt><trkpt lat="43.09739922130794" lon="12.957798730404312"><ele>953.6</ele><time>2026-04-18T09:59:41Z</time></trkpt><trkpt lat="43.09749727342399" lon="12.957821650999094"><ele>953.2</ele><time>2026-04-18T09:59:42Z</time></trkpt><trkpt lat="43.097591474328" lon="12.9578431407729"><ele>952.8000000000001</ele><time>2026-04-18T09:59:43Z</time></trkpt><trkpt lat="43.097686178825974" lon="12.957852279032535"><ele>952.4000000000001</ele><time>2026-04-18T09:59:44Z</time></trkpt><trkpt lat="43.097763557228724" lon="12.957870834449471"><ele>952.0</ele><time>2026-04-18T09:59:45Z</time></trkpt><trkpt lat="43.09785004993954" lon="12.957895039983855"><ele>952.0</ele><time>2026-04-18T09:59:46Z</time></trkpt><trkpt lat="43.09793692314238" lon="12.957909752881335"><ele>952.0</ele><time>2026-04-18T09:59:47Z</time></trkpt><trkpt lat="43.09803558116062" lon="12.957911199465249"><ele>952.0</ele><time>2026-04-18T09:59:48Z</time></trkpt><trkpt lat="43.09813333895832" lon="12.957941543610048"><ele>952.0</ele><time>2026-04-18T09:59:49Z</time></trkpt><trkpt lat="43.098229578564414" lon="12.957975487049792"><ele>952.0</ele><time>2026-04-18T09:59:50Z</time></trkpt><trkpt lat="43.09832720657168" lon="12.95798973845034"><ele>953.2</ele><time>2026-04-18T09:59:51Z</time></trkpt><trkpt lat="43.098423926164585" lon="12.958032423932112"><ele>954.4000000000001</ele><time>2026-04-18T09:59:52Z</time></trkpt><trkpt lat="43.09852168851954" lon="12.95807622395621"><ele>955.5999999999999</ele><time>2026-04-18T09:59:53Z</time></trkpt><trkpt lat="43.098616098878914" lon="12.958112824565356"><ele>956.8</ele><time>2026-04-18T09:59:54Z</time></trkpt><trkpt lat="43.09871327783168" lon="12.958153396052998"><ele>958.0</ele><time>2026-04-18T09:59:55Z</time></trkpt><trkpt lat="43.09881423020971" lon="12.958192673344973"><ele>958.0</ele><time>2026-04-18T09:59:56Z</time></trkpt><trkpt lat="43.09891453994433" lon="12.95822741964888"><ele>958.0</ele><time>2026-04-18T09:59:57Z</time></trkpt><trkpt lat="43.0990147855325" lon="12.95826754589734"><ele>958.0</ele><time>2026-04-18T09:59:58Z</time></trkpt><trkpt lat="43.09912418768942" lon="12.958312508215714"><ele>958.0</ele><time>2026-04-18T09:59:59Z</time></trkpt><trkpt lat="43.09924610101699" lon="12.9583605221852"><ele>958.0</ele><time>2026-04-18T10:00:00Z</time></trkpt><trkpt lat="43.09937479743726" lon="12.95842167042887"><ele>970.0</ele><time>2026-04-18T10:00:01Z</time></trkpt><trkpt lat="43.09952382023989" lon="12.95849395282082"><ele>982.0</ele><time>2026-04-18T10:00:02Z</time></trkpt><trkpt lat="43.09968467584147" lon="12.958578461945718"><ele>994.0</ele><time>2026-04-18T10:00:03Z</time></trkpt><trkpt lat="43.099868085789716" lon="12.958673749107527"><ele>991.0</ele><time>2026-04-18T10:00:04Z</time></trkpt><trkpt lat="43.10006359363308" lon="12.958767283876641"><ele>988.0</ele><time>2026-04-18T10:00:05Z</time></trkpt><trkpt lat="43.10027040932531" lon="12.958870860107812"><ele>985.0</ele><time>2026-04-18T10:00:06Z</time></trkpt><trkpt lat="43.1004720891323" lon="12.958946654162828"><ele>985.0</ele><time>2026-04-18T10:00:07Z</time></trkpt><trkpt lat="43.100653608390616" lon="12.959018044925104"><ele>985.0</ele><time>2026-04-18T10:00:08Z</time></trkpt><trkpt lat="43.10079688722462" lon="12.95910261642831"><ele>985.0</ele><time>2026-04-18T10:00:09Z</time></trkpt><trkpt lat="43.10092485988742" lon="12.959189763476829"><ele>990.25</ele><time>2026-04-18T10:00:10Z</time></trkpt><trkpt lat="43.10105390211136" lon="12.959273890639167"><ele>995.5</ele><time>2026-04-18T10:00:11Z</time></trkpt><trkpt lat="43.101201303080536" lon="12.95939109796672"><ele>1000.75</ele><time>2026-04-18T10:00:12Z</time></trkpt><trkpt lat="43.10130992795533" lon="12.959418633936094"><ele>1006.0</ele><time>2026-04-18T10:00:13Z</time></trkpt><trkpt lat="43.10143169424341" lon="12.95948660334173"><ele>1003.5</ele><time>2026-04-18T10:00:14Z</time></trkpt><trkpt lat="43.10158631247442" lon="12.959580198633212"><ele>1001.0</ele><time>2026-04-18T10:00:15Z</time></trkpt><trkpt lat="43.101707458412996" lon="12.959643905935405"><ele>998.5</ele><time>2026-04-18T10:00:16Z</time></trkpt><trkpt lat="43.10181936954747" lon="12.959693757269847"><ele>996.0</ele><time>2026-04-18T10:00:17Z</time></trkpt><trkpt lat="43.10195207004803" lon="12.9597352068742"><ele>996.0</ele><time>2026-04-18T10:00:18Z</time></trkpt><trkpt lat="43.102068671214056" lon="12.959777750675807"><ele>996.0</ele><time>2026-04-18T10:00:19Z</time></trkpt><trkpt lat="43.102192107479986" lon="12.959827079694362"><ele>996.0</ele><time>2026-04-18T10:00:20Z</time></trkpt><trkpt lat="43.10232299984468" lon="12.95985130544136"><ele>996.0</ele><time>2026-04-18T10:00:21Z</time></trkpt><trkpt lat="43.10245377092238" lon="12.959884330684432"><ele>995.5999999999999</ele><time>2026-04-18T10:00:22Z</time></trkpt><trkpt lat="43.10256858025914" lon="12.959929585142582"><ele>995.1999999999999</ele><time>2026-04-18T10:00:23Z</time></trkpt><trkpt lat="43.10266698006204" lon="12.959968435665528"><ele>994.8000000000001</ele><time>2026-04-18T10:00:24Z</time></trkpt><trkpt lat="43.10277365047714" lon="12.959998604497788"><ele>994.4000000000001</ele><time>2026-04-18T10:00:25Z</time></trkpt><trkpt lat="43.102867754300206" lon="12.960048421473713"><ele>994.0</ele><time>2026-04-18T10:00:26Z</time></trkpt><trkpt lat="43.10297489899732" lon="12.960055672864701"><ele>997.8000000000001</ele><time>2026-04-18T10:00:27Z</time></trkpt><trkpt lat="43.103063514277316" lon="12.960143480495756"><ele>1001.6000000000001</ele><time>2026-04-18T10:00:28Z</time></trkpt><trkpt lat="43.103142957292874" lon="12.960259841828902"><ele>1005.4</ele><time>2026-04-18T10:00:29Z</time></trkpt><trkpt lat="43.10322868069824" lon="12.960359003724863"><ele>1009.2</ele><time>2026-04-18T10:00:30Z</time></trkpt><trkpt lat="43.103286754524326" lon="12.960451499289142"><ele>1013.0</ele><time>2026-04-18T10:00:31Z</time></trkpt><trkpt lat="43.10336344848035" lon="12.960532859639365"><ele>1013.0</ele><time>2026-04-18T10:00:32Z</time></trkpt><trkpt lat="43.10343773047686" lon="12.960618485635091"><ele>1013.0</ele><time>2026-04-18T10:00:33Z</time></trkpt><trkpt lat="43.10352008562674" lon="12.96068594045824"><ele>1013.0</ele><time>2026-04-18T10:00:34Z</time></trkpt><trkpt lat="43.103601065097116" lon="12.960764508937055"><ele>1013.0</ele><time>2026-04-18T10:00:35Z</time></trkpt><trkpt lat="43.10369001261686" lon="12.96083552174219"><ele>1013.0</ele><time>2026-04-18T10:00:36Z</time></trkpt><trkpt lat="43.10376129572132" lon="12.960885120338704"><ele>1014.3333333333334</ele><time>2026-04-18T10:00:37Z</time></trkpt><trkpt lat="43.10383531033046" lon="12.960954786039014"><ele>1015.6666666666667</ele><time>2026-04-18T10:00:38Z</time></trkpt><trkpt lat="43.10396419360992" lon="12.960969206288517"><ele>1017.0</ele><time>2026-04-18T10:00:40Z</time></trkpt><trkpt lat="43.10403966418046" lon="12.96098577656009"><ele>1018.3333333333333</ele><time>2026-04-18T10:00:41Z</time></trkpt><trkpt lat="43.10411311250999" lon="12.961023710841033"><ele>1019.6666666666666</ele><time>2026-04-18T10:00:42Z</time></trkpt><trkpt lat="43.10418747087802" lon="12.961036095887737"><ele>1021.0</ele><time>2026-04-18T10:00:43Z</time></trkpt><trkpt lat="43.10425926213352" lon="12.961084908302045"><ele>1020.9999999999999</ele><time>2026-04-18T10:00:44Z</time></trkpt><trkpt lat="43.10430771368763" lon="12.961169916148126"><ele>1021.0</ele><time>2026-04-18T10:00:45Z</time></trkpt><trkpt lat="43.10435412603082" lon="12.961249372553837"><ele>1021.0</ele><time>2026-04-18T10:00:46Z</time></trkpt><trkpt lat="43.10440352584598" lon="12.961328553280541"><ele>1021.0</ele><time>2026-04-18T10:00:47Z</time></trkpt><trkpt lat="43.104458941869844" lon="12.961418951113092"><ele>1020.9999999999999</ele><time>2026-04-18T10:00:48Z</time></trkpt><trkpt lat="43.104520544288015" lon="12.961520520953215"><ele>1021.0</ele><time>2026-04-18T10:00:49Z</time></trkpt><trkpt lat="43.10457581475944" lon="12.961619738926665"><ele>1020.9999999999999</ele><time>2026-04-18T10:00:50Z</time></trkpt><trkpt lat="43.104638583858645" lon="12.961689182133123"><ele>1021.0</ele><time>2026-04-18T10:00:51Z</time></trkpt><trkpt lat="43.10467712409483" lon="12.96179538237993"><ele>1021.0</ele><time>2026-04-18T10:00:52Z</time></trkpt><trkpt lat="43.104726635790065" lon="12.9618613791822"><ele>1021.0</ele><time>2026-04-18T10:00:53Z</time></trkpt><trkpt lat="43.10475406023516" lon="12.961958502857932"><ele>1020.9999999999999</ele><time>2026-04-18T10:00:54Z</time></trkpt><trkpt lat="43.10477750273886" lon="12.96209629624327"><ele>1021.0</ele><time>2026-04-18T10:00:56Z</time></trkpt><trkpt lat="43.10474033144427" lon="12.96221609973728"><ele>1021.0</ele><time>2026-04-18T10:00:58Z</time></trkpt><trkpt lat="43.1047459085036" lon="12.96235970385539"><ele>1020.9999999999999</ele><time>2026-04-18T10:01:00Z</time></trkpt><trkpt lat="43.10482789405013" lon="12.962417518545385"><ele>1020.9999999999999</ele><time>2026-04-18T10:01:02Z</time></trkpt><trkpt lat="43.104937856153" lon="12.962399928351958"><ele>1021.0</ele><time>2026-04-18T10:01:04Z</time></trkpt><trkpt lat="43.10501025828092" lon="12.962392921964323"><ele>1021.0</ele><time>2026-04-18T10:01:05Z</time></trkpt><trkpt lat="43.1050585144248" lon="12.962324305356749"><ele>1020.9999999999999</ele><time>2026-04-18T10:01:06Z</time></trkpt><trkpt lat="43.10512758106066" lon="12.962295426694318"><ele>1021.0</ele><time>2026-04-18T10:01:07Z</time></trkpt><trkpt lat="43.105193927884685" lon="12.96227807822919"><ele>1021.0</ele><time>2026-04-18T10:01:08Z</time></trkpt><trkpt lat="43.105257618682884" lon="12.962263667113262"><ele>1021.0</ele><time>2026-04-18T10:01:09Z</time></trkpt><trkpt lat="43.10524757112105" lon="12.962159911092723"><ele>1020.9999999999999</ele><time>2026-04-18T10:01:11Z</time></trkpt><trkpt lat="43.10518384683875" lon="12.962046566653836"><ele>1021.0</ele><time>2026-04-18T10:01:13Z</time></trkpt><trkpt lat="43.1051307440079" lon="12.96185681909771"><ele>1020.9999999999999</ele><time>2026-04-18T10:01:15Z</time></trkpt><trkpt lat="43.10509436608722" lon="12.961770121025555"><ele>1021.0</ele><time>2026-04-18T10:01:16Z</time></trkpt><trkpt lat="43.1050747311617" lon="12.961684578519106"><ele>1021.0</ele><time>2026-04-18T10:01:17Z</time></trkpt><trkpt lat="43.105067242857785" lon="12.961569003497027"><ele>1021.0</ele><time>2026-04-18T10:01:18Z</time></trkpt><trkpt lat="43.10505518947968" lon="12.961470159920106"><ele>1020.9999999999999</ele><time>2026-04-18T10:01:19Z</time></trkpt><trkpt lat="43.105027076393085" lon="12.961373861633557"><ele>1021.0</ele><time>2026-04-18T10:01:20Z</time></trkpt><trkpt lat="43.105022082951784" lon="12.961263167519974"><ele>1021.6666666666666</ele><time>2026-04-18T10:01:21Z</time></trkpt><trkpt lat="43.10498815934189" lon="12.961168746052387"><ele>1022.3333333333333</ele><time>2026-04-18T10:01:22Z</time></trkpt><trkpt lat="43.10495738411244" lon="12.961006739370736"><ele>1023.0</ele><time>2026-04-18T10:01:24Z</time></trkpt><trkpt lat="43.104939928402125" lon="12.9609164374483"><ele>1023.6666666666667</ele><time>2026-04-18T10:01:25Z</time></trkpt><trkpt lat="43.10489744444852" lon="12.960846950285767"><ele>1024.3333333333335</ele><time>2026-04-18T10:01:26Z</time></trkpt><trkpt lat="43.104839131676215" lon="12.960776681390154"><ele>1025.0</ele><time>2026-04-18T10:01:27Z</time></trkpt><trkpt lat="43.104795430276866" lon="12.960702175268816"><ele>1021.8333333333334</ele><time>2026-04-18T10:01:28Z</time></trkpt><trkpt lat="43.10474074330536" lon="12.960566361591031"><ele>1018.6666666666667</ele><time>2026-04-18T10:01:30Z</time></trkpt><trkpt lat="43.10472171466282" lon="12.960465574739082"><ele>1015.5</ele><time>2026-04-18T10:01:31Z</time></trkpt><trkpt lat="43.104722519632276" lon="12.960373939982166"><ele>1012.3333333333333</ele><time>2026-04-18T10:01:32Z</time></trkpt><trkpt lat="43.10472366891832" lon="12.960272990237945"><ele>1009.1666666666666</ele><time>2026-04-18T10:01:33Z</time></trkpt><trkpt lat="43.10468589347557" lon="12.960128839994914"><ele>1006.0</ele><time>2026-04-18T10:01:35Z</time></trkpt><trkpt lat="43.104641806656964" lon="12.96006456125238"><ele>1005.75</ele><time>2026-04-18T10:01:36Z</time></trkpt><trkpt lat="43.10456062432544" lon="12.959952531214821"><ele>1005.5</ele><time>2026-04-18T10:01:38Z</time></trkpt><trkpt lat="43.10446342100119" lon="12.959848575207987"><ele>1005.25</ele><time>2026-04-18T10:01:40Z</time></trkpt><trkpt lat="43.10445111517101" lon="12.959733130497357"><ele>1005.0</ele><time>2026-04-18T10:01:41Z</time></trkpt><trkpt lat="43.10442124525282" lon="12.959562622608866"><ele>1005.0</ele><time>2026-04-18T10:01:42Z</time></trkpt><trkpt lat="43.10440901728267" lon="12.959385996283242"><ele>1005.0</ele><time>2026-04-18T10:01:43Z</time></trkpt><trkpt lat="43.10438297420801" lon="12.959232930439612"><ele>1005.0</ele><time>2026-04-18T10:01:44Z</time></trkpt><trkpt lat="43.104386275729134" lon="12.959075014165819"><ele>1005.0</ele><time>2026-04-18T10:01:45Z</time></trkpt><trkpt lat="43.10434875448102" lon="12.958907217871092"><ele>1006.8</ele><time>2026-04-18T10:01:46Z</time></trkpt><trkpt lat="43.10433255610567" lon="12.958748741793416"><ele>1008.6</ele><time>2026-04-18T10:01:47Z</time></trkpt><trkpt lat="43.10432516543593" lon="12.95858860940223"><ele>1010.4000000000001</ele><time>2026-04-18T10:01:48Z</time></trkpt><trkpt lat="43.104307851104124" lon="12.958449118919228"><ele>1012.2</ele><time>2026-04-18T10:01:49Z</time></trkpt><trkpt lat="43.10428715162074" lon="12.958330045624004"><ele>1014.0</ele><time>2026-04-18T10:01:50Z</time></trkpt><trkpt lat="43.10422787289781" lon="12.95823901987531"><ele>1016.0</ele><time>2026-04-18T10:01:51Z</time></trkpt><trkpt lat="43.10420304349985" lon="12.958139618777611"><ele>1018.0000000000001</ele><time>2026-04-18T10:01:52Z</time></trkpt><trkpt lat="43.10424265349678" lon="12.958002323624997"><ele>1020.0000000000001</ele><time>2026-04-18T10:01:53Z</time></trkpt><trkpt lat="43.10426337070031" lon="12.957867957498696"><ele>1022.0</ele><time>2026-04-18T10:01:54Z</time></trkpt><trkpt lat="43.10427176577607" lon="12.957747539744899"><ele>1024.0</ele><time>2026-04-18T10:01:55Z</time></trkpt><trkpt lat="43.104247614304015" lon="12.95761508166445"><ele>1025.0</ele><time>2026-04-18T10:01:57Z</time></trkpt><trkpt lat="43.10424531166315" lon="12.957527966332751"><ele>1026.0</ele><time>2026-04-18T10:01:58Z</time></trkpt><trkpt lat="43.1042166021275" lon="12.957436637691082"><ele>1027.0</ele><time>2026-04-18T10:01:59Z</time></trkpt><trkpt lat="43.104181223035816" lon="12.957322309835074"><ele>1028.0</ele><time>2026-04-18T10:02:00Z</time></trkpt><trkpt lat="43.104192811145325" lon="12.957195293175593"><ele>1029.0</ele><time>2026-04-18T10:02:01Z</time></trkpt><trkpt lat="43.10420587958562" lon="12.957062802807908"><ele>1030.0</ele><time>2026-04-18T10:02:02Z</time></trkpt><trkpt lat="43.10417445670383" lon="12.956894565396492"><ele>1032.0</ele><time>2026-04-18T10:02:03Z</time></trkpt><trkpt lat="43.10416268865942" lon="12.956697603596254"><ele>1034.0</ele><time>2026-04-18T10:02:04Z</time></trkpt><trkpt lat="43.10418708859968" lon="12.95653937429679"><ele>1036.0</ele><time>2026-04-18T10:02:05Z</time></trkpt><trkpt lat="43.10418446442374" lon="12.956378650365224"><ele>1038.0</ele><time>2026-04-18T10:02:06Z</time></trkpt><trkpt lat="43.10417459893668" lon="12.956238875706607"><ele>1038.0</ele><time>2026-04-18T10:02:07Z</time></trkpt><trkpt lat="43.104181978968484" lon="12.956116327848564"><ele>1038.0</ele><time>2026-04-18T10:02:08Z</time></trkpt><trkpt lat="43.10417737529128" lon="12.956029131550375"><ele>1038.0</ele><time>2026-04-18T10:02:09Z</time></trkpt><trkpt lat="43.10416161120378" lon="12.955940664828466"><ele>1038.0</ele><time>2026-04-18T10:02:10Z</time></trkpt><trkpt lat="43.104146111105145" lon="12.955833432890714"><ele>1038.0</ele><time>2026-04-18T10:02:12Z</time></trkpt><trkpt lat="43.10421267875907" lon="12.955732404839143"><ele>1038.0</ele><time>2026-04-18T10:02:14Z</time></trkpt><trkpt lat="43.10427698248901" lon="12.955678691698772"><ele>1039.0</ele><time>2026-04-18T10:02:15Z</time></trkpt><trkpt lat="43.10433548558033" lon="12.955610151142348"><ele>1040.0</ele><time>2026-04-18T10:02:16Z</time></trkpt><trkpt lat="43.104393804950554" lon="12.95552451740497"><ele>1041.0</ele><time>2026-04-18T10:02:17Z</time></trkpt><trkpt lat="43.10445038742464" lon="12.955427387181027"><ele>1042.0</ele><time>2026-04-18T10:02:18Z</time></trkpt><trkpt lat="43.10451406193225" lon="12.955342380566883"><ele>1043.0</ele><time>2026-04-18T10:02:19Z</time></trkpt><trkpt lat="43.10458749203312" lon="12.955265011661593"><ele>1044.0</ele><time>2026-04-18T10:02:20Z</time></trkpt><trkpt lat="43.10467320068472" lon="12.95520515215236"><ele>1044.0</ele><time>2026-04-18T10:02:21Z</time></trkpt><trkpt lat="43.10475932915527" lon="12.955157513210178"><ele>1044.0</ele><time>2026-04-18T10:02:22Z</time></trkpt><trkpt lat="43.1048471971236" lon="12.955117646910995"><ele>1044.0</ele><time>2026-04-18T10:02:23Z</time></trkpt><trkpt lat="43.104934242927364" lon="12.955083572208126"><ele>1044.0</ele><time>2026-04-18T10:02:24Z</time></trkpt><trkpt lat="43.10501933099325" lon="12.95504321205636"><ele>1044.0</ele><time>2026-04-18T10:02:25Z</time></trkpt><trkpt lat="43.1051034842325" lon="12.955014870855193"><ele>1044.0</ele><time>2026-04-18T10:02:26Z</time></trkpt><trkpt lat="43.105184373894424" lon="12.954985388341177"><ele>1044.0</ele><time>2026-04-18T10:02:27Z</time></trkpt><trkpt lat="43.10526693884101" lon="12.954955150784128"><ele>1044.0</ele><time>2026-04-18T10:02:28Z</time></trkpt><trkpt lat="43.10534518276897" lon="12.954911832601855"><ele>1044.0</ele><time>2026-04-18T10:02:29Z</time></trkpt><trkpt lat="43.10541989241798" lon="12.954868836593489"><ele>1044.0</ele><time>2026-04-18T10:02:30Z</time></trkpt><trkpt lat="43.10549989832119" lon="12.954846090862587"><ele>1044.0</ele><time>2026-04-18T10:02:31Z</time></trkpt><trkpt lat="43.10557602679809" lon="12.95482784583753"><ele>1044.0</ele><time>2026-04-18T10:02:32Z</time></trkpt><trkpt lat="43.10564775530329" lon="12.954803737777475"><ele>1044.0</ele><time>2026-04-18T10:02:33Z</time></trkpt><trkpt lat="43.10572017494025" lon="12.954782795348006"><ele>1044.0</ele><time>2026-04-18T10:02:34Z</time></trkpt><trkpt lat="43.105792422664024" lon="12.954760653736034"><ele>1044.0</ele><time>2026-04-18T10:02:35Z</time></trkpt><trkpt lat="43.105865384405895" lon="12.954732850463651"><ele>1044.0</ele><time>2026-04-18T10:02:36Z</time></trkpt><trkpt lat="43.105942166348584" lon="12.954712011448327"><ele>1044.0</ele><time>2026-04-18T10:02:37Z</time></trkpt><trkpt lat="43.10601648677828" lon="12.954694942946"><ele>1043.4285714285716</ele><time>2026-04-18T10:02:38Z</time></trkpt><trkpt lat="43.106087207581865" lon="12.954680051675822"><ele>1042.857142857143</ele><time>2026-04-18T10:02:39Z</time></trkpt><trkpt lat="43.10615235530446" lon="12.954657959215405"><ele>1042.2857142857142</ele><time>2026-04-18T10:02:40Z</time></trkpt><trkpt lat="43.10621510766872" lon="12.954624043650238"><ele>1041.7142857142858</ele><time>2026-04-18T10:02:41Z</time></trkpt><trkpt lat="43.106278734162494" lon="12.954568437281159"><ele>1041.142857142857</ele><time>2026-04-18T10:02:42Z</time></trkpt><trkpt lat="43.10635184899335" lon="12.954522544276749"><ele>1040.5714285714287</ele><time>2026-04-18T10:02:43Z</time></trkpt><trkpt lat="43.10642526096949" lon="12.95447908006357"><ele>1040.0</ele><time>2026-04-18T10:02:44Z</time></trkpt><trkpt lat="43.10649799530582" lon="12.954437507871221"><ele>1040.0</ele><time>2026-04-18T10:02:45Z</time></trkpt><trkpt lat="43.106568658686" lon="12.954400748475853"><ele>1040.0</ele><time>2026-04-18T10:02:46Z</time></trkpt><trkpt lat="43.106635314795525" lon="12.954353627691694"><ele>1040.0</ele><time>2026-04-18T10:02:47Z</time></trkpt><trkpt lat="43.106704037670845" lon="12.954297186748581"><ele>1040.0</ele><time>2026-04-18T10:02:48Z</time></trkpt><trkpt lat="43.106779347849525" lon="12.9542464215456"><ele>1040.0</ele><time>2026-04-18T10:02:49Z</time></trkpt><trkpt lat="43.10684967725998" lon="12.954186815739465"><ele>1040.0</ele><time>2026-04-18T10:02:50Z</time></trkpt><trkpt lat="43.106915256515265" lon="12.954122549892729"><ele>1036.857142857143</ele><time>2026-04-18T10:02:51Z</time></trkpt><trkpt lat="43.10698126023219" lon="12.954066418702903"><ele>1033.7142857142858</ele><time>2026-04-18T10:02:52Z</time></trkpt><trkpt lat="43.10704513237182" lon="12.954014051549347"><ele>1030.5714285714284</ele><time>2026-04-18T10:02:53Z</time></trkpt><trkpt lat="43.107107355287326" lon="12.953965335177179"><ele>1027.4285714285716</ele><time>2026-04-18T10:02:54Z</time></trkpt><trkpt lat="43.107165842799816" lon="12.95391427194582"><ele>1024.2857142857142</ele><time>2026-04-18T10:02:55Z</time></trkpt><trkpt lat="43.107225258440245" lon="12.953864787345806"><ele>1021.142857142857</ele><time>2026-04-18T10:02:56Z</time></trkpt><trkpt lat="43.10728512879537" lon="12.953820098259358"><ele>1017.9999999999999</ele><time>2026-04-18T10:02:57Z</time></trkpt><trkpt lat="43.1073454001858" lon="12.953777241728156"><ele>1018.0</ele><time>2026-04-18T10:02:58Z</time></trkpt><trkpt lat="43.10739998212523" lon="12.953722649210105"><ele>1018.0</ele><time>2026-04-18T10:02:59Z</time></trkpt><trkpt lat="43.10744948188176" lon="12.953583864100684"><ele>1018.0</ele><time>2026-04-18T10:03:01Z</time></trkpt><trkpt lat="43.10741542908466" lon="12.953415695571131"><ele>1018.0</ele><time>2026-04-18T10:03:03Z</time></trkpt><trkpt lat="43.10738604168079" lon="12.953250648577932"><ele>1018.0</ele><time>2026-04-18T10:03:05Z</time></trkpt><trkpt lat="43.107352045193295" lon="12.953174810683798"><ele>1016.0</ele><time>2026-04-18T10:03:06Z</time></trkpt><trkpt lat="43.10729888584332" lon="12.953045161121116"><ele>1014.0</ele><time>2026-04-18T10:03:08Z</time></trkpt><trkpt lat="43.107197938360656" lon="12.952956860499047"><ele>1012.0</ele><time>2026-04-18T10:03:10Z</time></trkpt><trkpt lat="43.10713368643755" lon="12.952901833889953"><ele>1010.0</ele><time>2026-04-18T10:03:11Z</time></trkpt><trkpt lat="43.107055254958894" lon="12.952834196830482"><ele>1008.0</ele><time>2026-04-18T10:03:12Z</time></trkpt><trkpt lat="43.10697476128507" lon="12.952769516412625"><ele>1008.0</ele><time>2026-04-18T10:03:13Z</time></trkpt><trkpt lat="43.10689627643643" lon="12.952695377694644"><ele>1008.0</ele><time>2026-04-18T10:03:14Z</time></trkpt><trkpt lat="43.10682756770165" lon="12.952619055826567"><ele>1008.0</ele><time>2026-04-18T10:03:15Z</time></trkpt><trkpt lat="43.106767595711446" lon="12.952564981684377"><ele>1008.0</ele><time>2026-04-18T10:03:16Z</time></trkpt><trkpt lat="43.10671964832005" lon="12.952506746019605"><ele>1008.0</ele><time>2026-04-18T10:03:17Z</time></trkpt><trkpt lat="43.106684825526095" lon="12.952433943816535"><ele>1008.0</ele><time>2026-04-18T10:03:18Z</time></trkpt><trkpt lat="43.10663708524313" lon="12.952373149589741"><ele>1008.0</ele><time>2026-04-18T10:03:19Z</time></trkpt><trkpt lat="43.10657880537585" lon="12.952305693741293"><ele>1007.6666666666666</ele><time>2026-04-18T10:03:20Z</time></trkpt><trkpt lat="43.10652430078313" lon="12.952221049314879"><ele>1007.3333333333333</ele><time>2026-04-18T10:03:21Z</time></trkpt><trkpt lat="43.10646454082747" lon="12.952132058573682"><ele>1007.0</ele><time>2026-04-18T10:03:22Z</time></trkpt><trkpt lat="43.10640115114399" lon="12.952045112515647"><ele>1006.6666666666666</ele><time>2026-04-18T10:03:23Z</time></trkpt><trkpt lat="43.106342271529826" lon="12.951948897371372"><ele>1006.3333333333333</ele><time>2026-04-18T10:03:24Z</time></trkpt><trkpt lat="43.10628754830851" lon="12.951844890949827"><ele>1006.0</ele><time>2026-04-18T10:03:25Z</time></trkpt><trkpt lat="43.10624445436619" lon="12.95174961432149"><ele>1010.1999999999999</ele><time>2026-04-18T10:03:26Z</time></trkpt><trkpt lat="43.1062013008116" lon="12.951647612490245"><ele>1014.3999999999999</ele><time>2026-04-18T10:03:27Z</time></trkpt><trkpt lat="43.106161678185416" lon="12.951527968187094"><ele>1018.6</ele><time>2026-04-18T10:03:28Z</time></trkpt><trkpt lat="43.106119530646154" lon="12.95140090431734"><ele>1022.8</ele><time>2026-04-18T10:03:29Z</time></trkpt><trkpt lat="43.10608582625379" lon="12.95127849488205"><ele>1027.0</ele><time>2026-04-18T10:03:30Z</time></trkpt><trkpt lat="43.106061099436324" lon="12.951177098189964"><ele>1027.0</ele><time>2026-04-18T10:03:31Z</time></trkpt><trkpt lat="43.10605648739882" lon="12.951090647357479"><ele>1027.0</ele><time>2026-04-18T10:03:32Z</time></trkpt><trkpt lat="43.10606383065418" lon="12.950929262183433"><ele>1027.0</ele><time>2026-04-18T10:03:34Z</time></trkpt><trkpt lat="43.106090103831086" lon="12.950843704293499"><ele>1027.0</ele><time>2026-04-18T10:03:35Z</time></trkpt><trkpt lat="43.10614816596628" lon="12.950776935337057"><ele>1027.0</ele><time>2026-04-18T10:03:36Z</time></trkpt><trkpt lat="43.10621602465547" lon="12.950713044708884"><ele>1027.0</ele><time>2026-04-18T10:03:37Z</time></trkpt><trkpt lat="43.10629322499601" lon="12.950652991083896"><ele>1031.0</ele><time>2026-04-18T10:03:38Z</time></trkpt><trkpt lat="43.10638735690925" lon="12.95062065780237"><ele>1035.0</ele><time>2026-04-18T10:03:39Z</time></trkpt><trkpt lat="43.106498115208616" lon="12.950586110063254"><ele>1039.0</ele><time>2026-04-18T10:03:40Z</time></trkpt><trkpt lat="43.10661504767274" lon="12.950536377760745"><ele>1043.0</ele><time>2026-04-18T10:03:41Z</time></trkpt><trkpt lat="43.10674510104084" lon="12.950482391984192"><ele>1046.0</ele><time>2026-04-18T10:03:42Z</time></trkpt><trkpt lat="43.106893920671176" lon="12.950431711027125"><ele>1049.0</ele><time>2026-04-18T10:03:43Z</time></trkpt><trkpt lat="43.10705545192878" lon="12.950379189918875"><ele>1052.0</ele><time>2026-04-18T10:03:44Z</time></trkpt><trkpt lat="43.107220257205874" lon="12.950321371454656"><ele>1052.0</ele><time>2026-04-18T10:03:45Z</time></trkpt><trkpt lat="43.10736324037237" lon="12.950273808845466"><ele>1052.0</ele><time>2026-04-18T10:03:46Z</time></trkpt><trkpt lat="43.1074929089581" lon="12.950247169766914"><ele>1052.0</ele><time>2026-04-18T10:03:47Z</time></trkpt><trkpt lat="43.10756833217532" lon="12.950199287064773"><ele>1052.0</ele><time>2026-04-18T10:03:48Z</time></trkpt><trkpt lat="43.107648796372295" lon="12.95017079904602"><ele>1052.0</ele><time>2026-04-18T10:03:49Z</time></trkpt><trkpt lat="43.10772947082404" lon="12.950129801387295"><ele>1053.8</ele><time>2026-04-18T10:03:50Z</time></trkpt><trkpt lat="43.107829877966154" lon="12.950113538728273"><ele>1055.6</ele><time>2026-04-18T10:03:51Z</time></trkpt><trkpt lat="43.107929399325755" lon="12.950090717364041"><ele>1057.3999999999999</ele><time>2026-04-18T10:03:53Z</time></trkpt><trkpt lat="43.10799578117819" lon="12.950059159498718"><ele>1059.2</ele><time>2026-04-18T10:03:54Z</time></trkpt><trkpt lat="43.10810049764224" lon="12.950057781531859"><ele>1061.0</ele><time>2026-04-18T10:03:55Z</time></trkpt><trkpt lat="43.10818251026544" lon="12.949996873755222"><ele>1063.8</ele><time>2026-04-18T10:03:56Z</time></trkpt><trkpt lat="43.10825802902494" lon="12.949941877442079"><ele>1066.6</ele><time>2026-04-18T10:03:57Z</time></trkpt><trkpt lat="43.10832865852847" lon="12.949891062161237"><ele>1069.4</ele><time>2026-04-18T10:03:58Z</time></trkpt><trkpt lat="43.108381904337115" lon="12.949844460693825"><ele>1072.2</ele><time>2026-04-18T10:03:59Z</time></trkpt><trkpt lat="43.108479503215655" lon="12.949779373074279"><ele>1075.0</ele><time>2026-04-18T10:04:01Z</time></trkpt><trkpt lat="43.108572882792416" lon="12.949693046579347"><ele>1075.0</ele><time>2026-04-18T10:04:03Z</time></trkpt><trkpt lat="43.10861190043397" lon="12.949611135255115"><ele>1075.0</ele><time>2026-04-18T10:04:05Z</time></trkpt><trkpt lat="43.108677521960786" lon="12.949549102498802"><ele>1075.0</ele><time>2026-04-18T10:04:07Z</time></trkpt><trkpt lat="43.108747242702755" lon="12.949449874044133"><ele>1075.0</ele><time>2026-04-18T10:04:09Z</time></trkpt><trkpt lat="43.10880724345062" lon="12.949361241417643"><ele>1075.0</ele><time>2026-04-18T10:04:12Z</time></trkpt><trkpt lat="43.10885240845369" lon="12.949287728431774"><ele>1075.0</ele><time>2026-04-18T10:04:39Z</time></trkpt><trkpt lat="43.10879659891748" lon="12.949193644543383"><ele>1076.0</ele><time>2026-04-18T10:04:42Z</time></trkpt><trkpt lat="43.10887687823549" lon="12.949183351661567"><ele>1077.0</ele><time>2026-04-18T10:04:48Z</time></trkpt><trkpt lat="43.1089865469087" lon="12.949084701637164"><ele>1078.0</ele><time>2026-04-18T10:04:50Z</time></trkpt><trkpt lat="43.109024970124025" lon="12.948988973185974"><ele>1079.0</ele><time>2026-04-18T10:04:51Z</time></trkpt><trkpt lat="43.109101300565676" lon="12.948912048920098"><ele>1080.0</ele><time>2026-04-18T10:04:52Z</time></trkpt><trkpt lat="43.10916193732455" lon="12.948804671596323"><ele>1080.0</ele><time>2026-04-18T10:04:53Z</time></trkpt><trkpt lat="43.10922075828945" lon="12.94869724423993"><ele>1080.0</ele><time>2026-04-18T10:04:54Z</time></trkpt><trkpt lat="43.10927063370872" lon="12.948599178403478"><ele>1080.0</ele><time>2026-04-18T10:04:55Z</time></trkpt><trkpt lat="43.109318140353125" lon="12.948500776890654"><ele>1080.0</ele><time>2026-04-18T10:04:56Z</time></trkpt><trkpt lat="43.10936270036067" lon="12.948373240663972"><ele>1080.0</ele><time>2026-04-18T10:04:57Z</time></trkpt><trkpt lat="43.109425459266994" lon="12.948256561069543"><ele>1081.8333333333333</ele><time>2026-04-18T10:04:58Z</time></trkpt><trkpt lat="43.109475225910394" lon="12.948137900260598"><ele>1083.6666666666667</ele><time>2026-04-18T10:04:59Z</time></trkpt><trkpt lat="43.10951492102981" lon="12.94804784494577"><ele>1085.5</ele><time>2026-04-18T10:05:00Z</time></trkpt><trkpt lat="43.109555485060035" lon="12.947938962245269"><ele>1087.3333333333335</ele><time>2026-04-18T10:05:01Z</time></trkpt><trkpt lat="43.10957963876577" lon="12.947827429470859"><ele>1089.1666666666667</ele><time>2026-04-18T10:05:02Z</time></trkpt><trkpt lat="43.10958747007565" lon="12.947710101630634"><ele>1091.0</ele><time>2026-04-18T10:05:03Z</time></trkpt><trkpt lat="43.10956046745509" lon="12.947588511034041"><ele>1092.5</ele><time>2026-04-18T10:05:04Z</time></trkpt><trkpt lat="43.10954150306913" lon="12.947471501640672"><ele>1094.0</ele><time>2026-04-18T10:05:05Z</time></trkpt><trkpt lat="43.10954815716456" lon="12.947375592613446"><ele>1095.5</ele><time>2026-04-18T10:05:06Z</time></trkpt><trkpt lat="43.109543971251725" lon="12.947265267761338"><ele>1097.0</ele><time>2026-04-18T10:05:07Z</time></trkpt><trkpt lat="43.109529269621724" lon="12.947144535542847"><ele>1098.5</ele><time>2026-04-18T10:05:08Z</time></trkpt><trkpt lat="43.10950644490016" lon="12.947055859053131"><ele>1100.0</ele><time>2026-04-18T10:05:09Z</time></trkpt><trkpt lat="43.10946676231783" lon="12.946947291437066"><ele>1100.0</ele><time>2026-04-18T10:05:10Z</time></trkpt><trkpt lat="43.109432449783135" lon="12.946829567091294"><ele>1100.0</ele><time>2026-04-18T10:05:11Z</time></trkpt><trkpt lat="43.10937916944005" lon="12.946730869121437"><ele>1100.0</ele><time>2026-04-18T10:05:12Z</time></trkpt><trkpt lat="43.10931969688388" lon="12.94661019858454"><ele>1100.0</ele><time>2026-04-18T10:05:13Z</time></trkpt><trkpt lat="43.109250018027154" lon="12.946491385877419"><ele>1100.0</ele><time>2026-04-18T10:05:14Z</time></trkpt><trkpt lat="43.10916869032671" lon="12.946381174029092"><ele>1099.0</ele><time>2026-04-18T10:05:15Z</time></trkpt><trkpt lat="43.10909568194617" lon="12.946287641047476"><ele>1098.0</ele><time>2026-04-18T10:05:16Z</time></trkpt><trkpt lat="43.10903507548336" lon="12.946201636451692"><ele>1097.0</ele><time>2026-04-18T10:05:17Z</time></trkpt><trkpt lat="43.108971797765314" lon="12.946085803035704"><ele>1096.0</ele><time>2026-04-18T10:05:18Z</time></trkpt><trkpt lat="43.10892456208782" lon="12.945984037334442"><ele>1095.0</ele><time>2026-04-18T10:05:19Z</time></trkpt><trkpt lat="43.108905889550705" lon="12.94588069485166"><ele>1097.0</ele><time>2026-04-18T10:05:20Z</time></trkpt><trkpt lat="43.10891224732479" lon="12.945772877253026"><ele>1099.0</ele><time>2026-04-18T10:05:21Z</time></trkpt><trkpt lat="43.108937655717234" lon="12.945673995741286"><ele>1101.0</ele><time>2026-04-18T10:05:22Z</time></trkpt><trkpt lat="43.10899198864935" lon="12.945567188241418"><ele>1103.0</ele><time>2026-04-18T10:05:23Z</time></trkpt><trkpt lat="43.10900546130568" lon="12.94542967603691"><ele>1105.0</ele><time>2026-04-18T10:05:24Z</time></trkpt><trkpt lat="43.109008264145935" lon="12.94531941188126"><ele>1107.0</ele><time>2026-04-18T10:05:25Z</time></trkpt><trkpt lat="43.108995120660495" lon="12.945178236546674"><ele>1107.0</ele><time>2026-04-18T10:05:26Z</time></trkpt><trkpt lat="43.10901754062228" lon="12.945072323415726"><ele>1107.0</ele><time>2026-04-18T10:05:27Z</time></trkpt><trkpt lat="43.109024333538095" lon="12.94492101638315"><ele>1107.0</ele><time>2026-04-18T10:05:28Z</time></trkpt><trkpt lat="43.10902591968939" lon="12.94477722054341"><ele>1107.0</ele><time>2026-04-18T10:05:29Z</time></trkpt><trkpt lat="43.109016161923634" lon="12.944634344487975"><ele>1107.0</ele><time>2026-04-18T10:05:30Z</time></trkpt><trkpt lat="43.109014458402804" lon="12.944457755784617"><ele>1108.5</ele><time>2026-04-18T10:05:31Z</time></trkpt><trkpt lat="43.10902759904957" lon="12.944289408389775"><ele>1110.0</ele><time>2026-04-18T10:05:32Z</time></trkpt><trkpt lat="43.109024546986895" lon="12.94413570036066"><ele>1111.5</ele><time>2026-04-18T10:05:33Z</time></trkpt><trkpt lat="43.109020428249686" lon="12.943991270075093"><ele>1113.0</ele><time>2026-04-18T10:05:34Z</time></trkpt><trkpt lat="43.109013996953756" lon="12.943839975657864"><ele>1113.8</ele><time>2026-04-18T10:05:35Z</time></trkpt><trkpt lat="43.10900713408377" lon="12.943675827511006"><ele>1114.6</ele><time>2026-04-18T10:05:36Z</time></trkpt><trkpt lat="43.10899594321467" lon="12.943521549665212"><ele>1115.4</ele><time>2026-04-18T10:05:37Z</time></trkpt><trkpt lat="43.10896866500862" lon="12.943389959355686"><ele>1116.2</ele><time>2026-04-18T10:05:38Z</time></trkpt><trkpt lat="43.10896108318341" lon="12.943261450648471"><ele>1117.0</ele><time>2026-04-18T10:05:39Z</time></trkpt><trkpt lat="43.10894739125398" lon="12.943146715583394"><ele>1118.25</ele><time>2026-04-18T10:05:40Z</time></trkpt><trkpt lat="43.1089326164421" lon="12.943017829375979"><ele>1119.5</ele><time>2026-04-18T10:05:41Z</time></trkpt><trkpt lat="43.10891637712458" lon="12.942882704603852"><ele>1120.75</ele><time>2026-04-18T10:05:42Z</time></trkpt><trkpt lat="43.10889172897361" lon="12.942715713660286"><ele>1122.0</ele><time>2026-04-18T10:05:43Z</time></trkpt><trkpt lat="43.10884512185722" lon="12.942544739461017"><ele>1123.0</ele><time>2026-04-18T10:05:44Z</time></trkpt><trkpt lat="43.108793098862606" lon="12.942384764109544"><ele>1124.0</ele><time>2026-04-18T10:05:45Z</time></trkpt><trkpt lat="43.108742100742866" lon="12.942241015678174"><ele>1125.0</ele><time>2026-04-18T10:05:46Z</time></trkpt><trkpt lat="43.10871114846839" lon="12.942104858488921"><ele>1126.0</ele><time>2026-04-18T10:05:47Z</time></trkpt><trkpt lat="43.10866267962901" lon="12.941976611369423"><ele>1126.0</ele><time>2026-04-18T10:05:48Z</time></trkpt><trkpt lat="43.10860497650734" lon="12.941866615214794"><ele>1126.0</ele><time>2026-04-18T10:05:49Z</time></trkpt><trkpt lat="43.108527178972096" lon="12.941771290634998"><ele>1126.0</ele><time>2026-04-18T10:05:50Z</time></trkpt><trkpt lat="43.10844870387924" lon="12.941657682770602"><ele>1126.0</ele><time>2026-04-18T10:05:51Z</time></trkpt><trkpt lat="43.1083482768132" lon="12.941538035483822"><ele>1125.25</ele><time>2026-04-18T10:05:52Z</time></trkpt><trkpt lat="43.108258467219265" lon="12.941440399927195"><ele>1124.5</ele><time>2026-04-18T10:05:53Z</time></trkpt><trkpt lat="43.1081978311675" lon="12.941320289475584"><ele>1123.75</ele><time>2026-04-18T10:05:54Z</time></trkpt><trkpt lat="43.10813057252707" lon="12.941199377796522"><ele>1123.0</ele><time>2026-04-18T10:05:55Z</time></trkpt><trkpt lat="43.10806111600496" lon="12.941063878952821"><ele>1122.6</ele><time>2026-04-18T10:05:56Z</time></trkpt><trkpt lat="43.10799822370836" lon="12.940933375106278"><ele>1122.1999999999998</ele><time>2026-04-18T10:05:57Z</time></trkpt><trkpt lat="43.107943254543315" lon="12.940811747594612"><ele>1121.8</ele><time>2026-04-18T10:05:58Z</time></trkpt><trkpt lat="43.107893176563955" lon="12.940702829195688"><ele>1121.3999999999999</ele><time>2026-04-18T10:05:59Z</time></trkpt><trkpt lat="43.107838065062246" lon="12.940594940217728"><ele>1121.0</ele><time>2026-04-18T10:06:00Z</time></trkpt><trkpt lat="43.1077732008934" lon="12.940484342703169"><ele>1121.0</ele><time>2026-04-18T10:06:01Z</time></trkpt><trkpt lat="43.10770018115708" lon="12.940368267211147"><ele>1121.0</ele><time>2026-04-18T10:06:02Z</time></trkpt><trkpt lat="43.10762554006111" lon="12.940238664824598"><ele>1121.0</ele><time>2026-04-18T10:06:03Z</time></trkpt><trkpt lat="43.10755036211434" lon="12.940101920464317"><ele>1121.0</ele><time>2026-04-18T10:06:04Z</time></trkpt><trkpt lat="43.107479474357945" lon="12.939972979723473"><ele>1119.6</ele><time>2026-04-18T10:06:05Z</time></trkpt><trkpt lat="43.10741217916477" lon="12.939852913381882"><ele>1118.1999999999998</ele><time>2026-04-18T10:06:06Z</time></trkpt><trkpt lat="43.10735014649665" lon="12.939743221492957"><ele>1116.8000000000002</ele><time>2026-04-18T10:06:07Z</time></trkpt><trkpt lat="43.107296376979164" lon="12.939648141333734"><ele>1115.4</ele><time>2026-04-18T10:06:08Z</time></trkpt><trkpt lat="43.10724652468006" lon="12.939559988123792"><ele>1114.0</ele><time>2026-04-18T10:06:09Z</time></trkpt><trkpt lat="43.10719669229599" lon="12.939475273187341"><ele>1114.0</ele><time>2026-04-18T10:06:10Z</time></trkpt><trkpt lat="43.10714451552159" lon="12.93939409882207"><ele>1114.0</ele><time>2026-04-18T10:06:11Z</time></trkpt><trkpt lat="43.10709552851989" lon="12.93932582414642"><ele>1114.0</ele><time>2026-04-18T10:06:12Z</time></trkpt><trkpt lat="43.107046741925245" lon="12.939252349044596"><ele>1114.0</ele><time>2026-04-18T10:06:13Z</time></trkpt><trkpt lat="43.10700328152088" lon="12.939186174150914"><ele>1114.0</ele><time>2026-04-18T10:06:14Z</time></trkpt><trkpt lat="43.10696212366866" lon="12.939074288840386"><ele>1114.0</ele><time>2026-04-18T10:06:16Z</time></trkpt><trkpt lat="43.106919747463074" lon="12.938996786436165"><ele>1114.0</ele><time>2026-04-18T10:06:17Z</time></trkpt><trkpt lat="43.106880697293334" lon="12.938910081713736"><ele>1116.6666666666665</ele><time>2026-04-18T10:06:18Z</time></trkpt><trkpt lat="43.10691861416148" lon="12.938756737494872"><ele>1119.3333333333333</ele><time>2026-04-18T10:06:20Z</time></trkpt><trkpt lat="43.10700386667726" lon="12.938631016309621"><ele>1122.0</ele><time>2026-04-18T10:06:22Z</time></trkpt><trkpt lat="43.107046423571184" lon="12.938564562006182"><ele>1124.6666666666667</ele><time>2026-04-18T10:06:23Z</time></trkpt><trkpt lat="43.10708391039485" lon="12.938490949453639"><ele>1127.3333333333335</ele><time>2026-04-18T10:06:24Z</time></trkpt><trkpt lat="43.10712042479721" lon="12.93841778199137"><ele>1130.0</ele><time>2026-04-18T10:06:25Z</time></trkpt><trkpt lat="43.10719351508213" lon="12.938302472747493"><ele>1131.7142857142856</ele><time>2026-04-18T10:06:27Z</time></trkpt><trkpt lat="43.1072461714985" lon="12.938213785802047"><ele>1133.4285714285713</ele><time>2026-04-18T10:06:29Z</time></trkpt><trkpt lat="43.107288123226795" lon="12.9381394769148"><ele>1135.142857142857</ele><time>2026-04-18T10:06:33Z</time></trkpt><trkpt lat="43.10735959528397" lon="12.938100003377203"><ele>1136.8571428571427</ele><time>2026-04-18T10:06:44Z</time></trkpt><trkpt lat="43.107430408296935" lon="12.938076118174566"><ele>1138.5714285714284</ele><time>2026-04-18T10:06:48Z</time></trkpt><trkpt lat="43.10750723720028" lon="12.938100480042632"><ele>1140.2857142857142</ele><time>2026-04-18T10:06:50Z</time></trkpt><trkpt lat="43.107573164891654" lon="12.938115244710563"><ele>1142.0</ele><time>2026-04-18T10:06:52Z</time></trkpt><trkpt lat="43.107634115382886" lon="12.938151104732016"><ele>1138.1666666666667</ele><time>2026-04-18T10:06:58Z</time></trkpt><trkpt lat="43.10770355893556" lon="12.93823973019088"><ele>1134.3333333333335</ele><time>2026-04-18T10:07:02Z</time></trkpt><trkpt lat="43.10776015366412" lon="12.938298153161147"><ele>1130.5</ele><time>2026-04-18T10:07:04Z</time></trkpt><trkpt lat="43.10783908379861" lon="12.938328997329437"><ele>1126.6666666666667</ele><time>2026-04-18T10:07:07Z</time></trkpt><trkpt lat="43.107895358443066" lon="12.938370492283559"><ele>1122.8333333333333</ele><time>2026-04-18T10:07:12Z</time></trkpt><trkpt lat="43.10796454936354" lon="12.93842552669968"><ele>1119.0</ele><time>2026-04-18T10:07:16Z</time></trkpt><trkpt lat="43.10802606191398" lon="12.938446446453861"><ele>1119.0</ele><time>2026-04-18T10:07:20Z</time></trkpt><trkpt lat="43.10809212615634" lon="12.938466323850118"><ele>1119.0</ele><time>2026-04-18T10:07:24Z</time></trkpt><trkpt lat="43.10816228652662" lon="12.938499839004972"><ele>1119.0</ele><time>2026-04-18T10:07:27Z</time></trkpt><trkpt lat="43.108230267101106" lon="12.938525926285333"><ele>1119.0</ele><time>2026-04-18T10:07:33Z</time></trkpt><trkpt lat="43.10830395235919" lon="12.938532019281086"><ele>1119.0</ele><time>2026-04-18T10:07:38Z</time></trkpt><trkpt lat="43.10836762015107" lon="12.9385900598115"><ele>1119.0</ele><time>2026-04-18T10:07:44Z</time></trkpt><trkpt lat="43.108424412336454" lon="12.938642760202958"><ele>1119.0</ele><time>2026-04-18T10:07:51Z</time></trkpt><trkpt lat="43.10847822070628" lon="12.938713098238907"><ele>1113.8333333333333</ele><time>2026-04-18T10:07:55Z</time></trkpt><trkpt lat="43.10852001404927" lon="12.93879029395661"><ele>1108.6666666666667</ele><time>2026-04-18T10:07:59Z</time></trkpt><trkpt lat="43.10855809949304" lon="12.938859387834194"><ele>1103.5</ele><time>2026-04-18T10:08:02Z</time></trkpt><trkpt lat="43.10862656088031" lon="12.938898883047838"><ele>1098.3333333333335</ele><time>2026-04-18T10:08:05Z</time></trkpt><trkpt lat="43.10870006666287" lon="12.938997532175437"><ele>1093.1666666666667</ele><time>2026-04-18T10:08:08Z</time></trkpt><trkpt lat="43.108764670352535" lon="12.939102348487623"><ele>1088.0</ele><time>2026-04-18T10:08:10Z</time></trkpt><trkpt lat="43.10883503302373" lon="12.939168885000692"><ele>1090.8333333333335</ele><time>2026-04-18T10:08:12Z</time></trkpt><trkpt lat="43.10889950498806" lon="12.939251440245892"><ele>1093.6666666666667</ele><time>2026-04-18T10:08:14Z</time></trkpt><trkpt lat="43.1089697040463" lon="12.939302542407127"><ele>1096.5</ele><time>2026-04-18T10:08:16Z</time></trkpt><trkpt lat="43.10902607487581" lon="12.939383038340608"><ele>1099.3333333333333</ele><time>2026-04-18T10:08:18Z</time></trkpt><trkpt lat="43.1090881457366" lon="12.939450519328252"><ele>1102.1666666666665</ele><time>2026-04-18T10:08:20Z</time></trkpt><trkpt lat="43.109162438529296" lon="12.93956284470323"><ele>1105.0</ele><time>2026-04-18T10:08:22Z</time></trkpt><trkpt lat="43.10924266202278" lon="12.939627855625472"><ele>1099.0</ele><time>2026-04-18T10:08:24Z</time></trkpt><trkpt lat="43.10933540136543" lon="12.939692428875599"><ele>1093.0</ele><time>2026-04-18T10:08:27Z</time></trkpt><trkpt lat="43.10939251595708" lon="12.939758139274561"><ele>1087.0</ele><time>2026-04-18T10:08:30Z</time></trkpt><trkpt lat="43.10945982423935" lon="12.939803422938274"><ele>1081.0</ele><time>2026-04-18T10:08:33Z</time></trkpt><trkpt lat="43.10953435916535" lon="12.939836697813972"><ele>1075.0</ele><time>2026-04-18T10:08:35Z</time></trkpt><trkpt lat="43.1096039382436" lon="12.93989500507251"><ele>1069.0</ele><time>2026-04-18T10:08:37Z</time></trkpt><trkpt lat="43.10966623281299" lon="12.939941963779653"><ele>1069.0</ele><time>2026-04-18T10:08:39Z</time></trkpt><trkpt lat="43.10975787802006" lon="12.940010471650343"><ele>1069.0</ele><time>2026-04-18T10:08:41Z</time></trkpt><trkpt lat="43.10988615805898" lon="12.940126926709976"><ele>1069.0</ele><time>2026-04-18T10:08:43Z</time></trkpt><trkpt lat="43.109982338882446" lon="12.940223315633"><ele>1069.0</ele><time>2026-04-18T10:08:44Z</time></trkpt><trkpt lat="43.110059014180756" lon="12.94031018434274"><ele>1065.2</ele><time>2026-04-18T10:08:45Z</time></trkpt><trkpt lat="43.11014942410603" lon="12.940370416352224"><ele>1061.4</ele><time>2026-04-18T10:08:46Z</time></trkpt><trkpt lat="43.11023067336122" lon="12.940439537237035"><ele>1057.6</ele><time>2026-04-18T10:08:47Z</time></trkpt><trkpt lat="43.11030471588751" lon="12.940502329214633"><ele>1053.8</ele><time>2026-04-18T10:08:48Z</time></trkpt><trkpt lat="43.11039405207223" lon="12.9405361006098"><ele>1050.0</ele><time>2026-04-18T10:08:49Z</time></trkpt><trkpt lat="43.110474597906986" lon="12.940582510729193"><ele>1050.0</ele><time>2026-04-18T10:08:50Z</time></trkpt><trkpt lat="43.11054887030935" lon="12.940632106307493"><ele>1050.0</ele><time>2026-04-18T10:08:50.999Z</time></trkpt><trkpt lat="43.11061930243175" lon="12.940684845744403"><ele>1050.0</ele><time>2026-04-18T10:08:51.999Z</time></trkpt><trkpt lat="43.11068866316608" lon="12.940738634108696"><ele>1050.0</ele><time>2026-04-18T10:08:52.999Z</time></trkpt><trkpt lat="43.11078861509735" lon="12.940815202205535"><ele>1050.0</ele><time>2026-04-18T10:08:54.999Z</time></trkpt><trkpt lat="43.110921953063965" lon="12.94089731999251"><ele>1048.0</ele><time>2026-04-18T10:08:56.999Z</time></trkpt><trkpt lat="43.11102424565199" lon="12.940974077490932"><ele>1046.0</ele><time>2026-04-18T10:08:58.999Z</time></trkpt><trkpt lat="43.11108926933214" lon="12.941014267617925"><ele>1044.0</ele><time>2026-04-18T10:08:59.999Z</time></trkpt><trkpt lat="43.111184730505556" lon="12.941066011632817"><ele>1042.0</ele><time>2026-04-18T10:09:01.999Z</time></trkpt><trkpt lat="43.11127369088494" lon="12.941104038865557"><ele>1040.0</ele><time>2026-04-18T10:09:03.999Z</time></trkpt><trkpt lat="43.111379342481605" lon="12.941144139774412"><ele>1040.0</ele><time>2026-04-18T10:09:05.999Z</time></trkpt><trkpt lat="43.11143972747646" lon="12.941181655488204"><ele>1040.0</ele><time>2026-04-18T10:09:06.999Z</time></trkpt><trkpt lat="43.11155804838234" lon="12.941229609378418"><ele>1040.0</ele><time>2026-04-18T10:09:08.999Z</time></trkpt><trkpt lat="43.11166116954623" lon="12.94127850789034"><ele>1040.0</ele><time>2026-04-18T10:09:10.999Z</time></trkpt><trkpt lat="43.1117499586873" lon="12.941341699451772"><ele>1040.0</ele><time>2026-04-18T10:09:12.999Z</time></trkpt><trkpt lat="43.11184775660214" lon="12.941416069648845"><ele>1035.8</ele><time>2026-04-18T10:09:14.999Z</time></trkpt><trkpt lat="43.11190048591378" lon="12.941464956384342"><ele>1031.6</ele><time>2026-04-18T10:09:15.999Z</time></trkpt><trkpt lat="43.11200183282954" lon="12.941558420522762"><ele>1027.4</ele><time>2026-04-18T10:09:17.999Z</time></trkpt><trkpt lat="43.11210731620779" lon="12.941613132483916"><ele>1023.2</ele><time>2026-04-18T10:09:19.999Z</time></trkpt><trkpt lat="43.11217172560138" lon="12.941655496458694"><ele>1019.0</ele><time>2026-04-18T10:09:21.999Z</time></trkpt><trkpt lat="43.112222821567464" lon="12.941756836170248"><ele>1019.0000000000001</ele><time>2026-04-18T10:09:24.999Z</time></trkpt><trkpt lat="43.11228906477138" lon="12.941814265169462"><ele>1019.0</ele><time>2026-04-18T10:09:26.999Z</time></trkpt><trkpt lat="43.112346187071665" lon="12.941867440622268"><ele>1019.0</ele><time>2026-04-18T10:09:28.999Z</time></trkpt><trkpt lat="43.11241558577709" lon="12.941931707591095"><ele>1019.0</ele><time>2026-04-18T10:09:30.999Z</time></trkpt><trkpt lat="43.11249038200198" lon="12.941974987796996"><ele>1019.0000000000001</ele><time>2026-04-18T10:09:32.999Z</time></trkpt><trkpt lat="43.112561362845874" lon="12.942032785822715"><ele>1019.0</ele><time>2026-04-18T10:09:35Z</time></trkpt><trkpt lat="43.11261492282408" lon="12.942163304326055"><ele>1012.3333333333334</ele><time>2026-04-18T10:09:37Z</time></trkpt><trkpt lat="43.11265068124648" lon="12.942263608074056"><ele>1005.6666666666667</ele><time>2026-04-18T10:09:38Z</time></trkpt><trkpt lat="43.11268787558445" lon="12.942380915903838"><ele>999.0</ele><time>2026-04-18T10:09:39Z</time></trkpt><trkpt lat="43.11272063985353" lon="12.94247161496834"><ele>992.3333333333333</ele><time>2026-04-18T10:09:40Z</time></trkpt><trkpt lat="43.1127519778143" lon="12.942552347864577"><ele>985.6666666666666</ele><time>2026-04-18T10:09:41Z</time></trkpt><trkpt lat="43.11280033522874" lon="12.942672661991576"><ele>979.0</ele><time>2026-04-18T10:09:43Z</time></trkpt><trkpt lat="43.11284733781909" lon="12.942800767393917"><ele>978.4000000000001</ele><time>2026-04-18T10:09:45Z</time></trkpt><trkpt lat="43.11290146492255" lon="12.942922471284614"><ele>977.8000000000001</ele><time>2026-04-18T10:09:47Z</time></trkpt><trkpt lat="43.11292856498963" lon="12.94309212857519"><ele>977.1999999999999</ele><time>2026-04-18T10:09:49Z</time></trkpt><trkpt lat="43.11294174627215" lon="12.943189483416056"><ele>976.5999999999999</ele><time>2026-04-18T10:09:50Z</time></trkpt><trkpt lat="43.11297168853483" lon="12.943339177118323"><ele>976.0</ele><time>2026-04-18T10:09:52Z</time></trkpt><trkpt lat="43.11299952133794" lon="12.943466629944279"><ele>973.9999999999999</ele><time>2026-04-18T10:09:54Z</time></trkpt><trkpt lat="43.11303561378653" lon="12.943578843375011"><ele>972.0</ele><time>2026-04-18T10:09:56Z</time></trkpt><trkpt lat="43.11305706466008" lon="12.943690905463633"><ele>970.0</ele><time>2026-04-18T10:09:58Z</time></trkpt><trkpt lat="43.11308316203124" lon="12.943781397978015"><ele>968.0</ele><time>2026-04-18T10:10:00Z</time></trkpt><trkpt lat="43.113099508705744" lon="12.943906730246205"><ele>965.9999999999999</ele><time>2026-04-18T10:10:02Z</time></trkpt><trkpt lat="43.113094975175436" lon="12.944029327595246"><ele>964.0</ele><time>2026-04-18T10:10:04Z</time></trkpt><trkpt lat="43.11307267078293" lon="12.944140194210323"><ele>961.6</ele><time>2026-04-18T10:10:06Z</time></trkpt><trkpt lat="43.11304850152372" lon="12.944264883026442"><ele>959.2</ele><time>2026-04-18T10:10:08Z</time></trkpt><trkpt lat="43.11303313795249" lon="12.944351251599818"><ele>956.8000000000001</ele><time>2026-04-18T10:10:09Z</time></trkpt><trkpt lat="43.113007115198265" lon="12.944500483307772"><ele>954.4000000000001</ele><time>2026-04-18T10:10:11Z</time></trkpt><trkpt lat="43.1129709771872" lon="12.94465081070573"><ele>952.0</ele><time>2026-04-18T10:10:13Z</time></trkpt><trkpt lat="43.11293171727761" lon="12.94472337139292"><ele>951.9999999999999</ele><time>2026-04-18T10:10:17Z</time></trkpt><trkpt lat="43.112944386682926" lon="12.944815251518747"><ele>952.0</ele><time>2026-04-18T10:10:23Z</time></trkpt><trkpt lat="43.11300833625868" lon="12.944922410310786"><ele>952.0</ele><time>2026-04-18T10:10:26Z</time></trkpt><trkpt lat="43.1130292060468" lon="12.945021541943321"><ele>952.0</ele><time>2026-04-18T10:10:28Z</time></trkpt><trkpt lat="43.113052351882374" lon="12.945139953151106"><ele>951.9999999999999</ele><time>2026-04-18T10:10:30Z</time></trkpt><trkpt lat="43.113098242996735" lon="12.94520563682683"><ele>952.0</ele><time>2026-04-18T10:10:33Z</time></trkpt><trkpt lat="43.11318542004504" lon="12.945263263276685"><ele>944.9999999999999</ele><time>2026-04-18T10:10:35Z</time></trkpt><trkpt lat="43.11325726877325" lon="12.94532745477872"><ele>938.0</ele><time>2026-04-18T10:10:37Z</time></trkpt><trkpt lat="43.113294838650695" lon="12.94540859603888"><ele>931.0</ele><time>2026-04-18T10:10:40Z</time></trkpt><trkpt lat="43.11335126126995" lon="12.945453900632723"><ele>924.0</ele><time>2026-04-18T10:10:44Z</time></trkpt><trkpt lat="43.113423266203405" lon="12.945483339198532"><ele>916.9999999999999</ele><time>2026-04-18T10:10:46Z</time></trkpt><trkpt lat="43.1135197587584" lon="12.945574587833976"><ele>910.0</ele><time>2026-04-18T10:10:48Z</time></trkpt><trkpt lat="43.11359322304377" lon="12.945647165746381"><ele>909.9999999999999</ele><time>2026-04-18T10:10:50Z</time></trkpt><trkpt lat="43.113640991552" lon="12.945718930551772"><ele>910.0</ele><time>2026-04-18T10:10:52Z</time></trkpt><trkpt lat="43.1137154481253" lon="12.945760451810505"><ele>910.0</ele><time>2026-04-18T10:10:54Z</time></trkpt><trkpt lat="43.11380552800728" lon="12.945816734820575"><ele>910.0</ele><time>2026-04-18T10:10:56Z</time></trkpt><trkpt lat="43.11385982814643" lon="12.94591088439356"><ele>909.9999999999999</ele><time>2026-04-18T10:10:58Z</time></trkpt><trkpt lat="43.11388127103804" lon="12.946032119990692"><ele>910.0</ele><time>2026-04-18T10:11:00Z</time></trkpt><trkpt lat="43.11392372541876" lon="12.946116152451312"><ele>911.9999999999999</ele><time>2026-04-18T10:11:03Z</time></trkpt><trkpt lat="43.11397691468064" lon="12.946175403268342"><ele>914.0</ele><time>2026-04-18T10:11:07Z</time></trkpt><trkpt lat="43.11405117225651" lon="12.94619918969645"><ele>916.0</ele><time>2026-04-18T10:11:10Z</time></trkpt><trkpt lat="43.11411318424993" lon="12.946258122386002"><ele>918.0</ele><time>2026-04-18T10:11:12Z</time></trkpt><trkpt lat="43.1141701260076" lon="12.946308088669735"><ele>919.9999999999999</ele><time>2026-04-18T10:11:14Z</time></trkpt><trkpt lat="43.11424767260484" lon="12.946343147793092"><ele>922.0</ele><time>2026-04-18T10:11:16Z</time></trkpt><trkpt lat="43.114347554313674" lon="12.946408563055574"><ele>912.0</ele><time>2026-04-18T10:11:18Z</time></trkpt><trkpt lat="43.1144235944478" lon="12.946467489265343"><ele>902.0</ele><time>2026-04-18T10:11:20Z</time></trkpt><trkpt lat="43.11449663682649" lon="12.946532111688203"><ele>892.0</ele><time>2026-04-18T10:11:24Z</time></trkpt><trkpt lat="43.114582981425656" lon="12.94658474967329"><ele>882.0</ele><time>2026-04-18T10:11:26Z</time></trkpt><trkpt lat="43.11467668165472" lon="12.94665947353713"><ele>872.0</ele><time>2026-04-18T10:11:28Z</time></trkpt><trkpt lat="43.1147560379046" lon="12.946798856977647"><ele>872.0000000000001</ele><time>2026-04-18T10:11:30Z</time></trkpt><trkpt lat="43.11479307431724" lon="12.94688242125097"><ele>872.0</ele><time>2026-04-18T10:11:31Z</time></trkpt><trkpt lat="43.11482805074775" lon="12.946978839215621"><ele>872.0</ele><time>2026-04-18T10:11:33Z</time></trkpt><trkpt lat="43.1148597639066" lon="12.947075506681761"><ele>872.0</ele><time>2026-04-18T10:11:35Z</time></trkpt><trkpt lat="43.11487194170288" lon="12.947208452494579"><ele>872.0000000000001</ele><time>2026-04-18T10:11:37Z</time></trkpt><trkpt lat="43.11488810458114" lon="12.947319453006745"><ele>872.0</ele><time>2026-04-18T10:11:40Z</time></trkpt><trkpt lat="43.11486696449562" lon="12.947407218219581"><ele>864.1666666666667</ele><time>2026-04-18T10:11:44Z</time></trkpt><trkpt lat="43.11493356812628" lon="12.947352703631863"><ele>856.3333333333334</ele><time>2026-04-18T10:12:05Z</time></trkpt><trkpt lat="43.11495573779601" lon="12.947233996030768"><ele>848.5</ele><time>2026-04-18T10:12:08Z</time></trkpt><trkpt lat="43.11497860829977" lon="12.947133901384099"><ele>840.6666666666667</ele><time>2026-04-18T10:12:10Z</time></trkpt><trkpt lat="43.11501193347997" lon="12.94700958634702"><ele>832.8333333333334</ele><time>2026-04-18T10:12:13Z</time></trkpt><trkpt lat="43.115037482205" lon="12.94692295263939"><ele>825.0</ele><time>2026-04-18T10:12:15Z</time></trkpt><trkpt lat="43.115057362267905" lon="12.94682630302215"><ele>824.0</ele><time>2026-04-18T10:12:17Z</time></trkpt><trkpt lat="43.11507722417774" lon="12.946704506087375"><ele>823.0</ele><time>2026-04-18T10:12:20Z</time></trkpt><trkpt lat="43.1150933131484" lon="12.946603563431436"><ele>822.0</ele><time>2026-04-18T10:12:22Z</time></trkpt><trkpt lat="43.115112531757696" lon="12.946490521294777"><ele>821.0</ele><time>2026-04-18T10:12:24Z</time></trkpt><trkpt lat="43.11512721077541" lon="12.946366598952878"><ele>820.0</ele><time>2026-04-18T10:12:27Z</time></trkpt><trkpt lat="43.11516665601731" lon="12.946276157055706"><ele>819.0</ele><time>2026-04-18T10:12:29Z</time></trkpt><trkpt lat="43.115221452679556" lon="12.946201928890488"><ele>819.0</ele><time>2026-04-18T10:12:31Z</time></trkpt><trkpt lat="43.11533329438407" lon="12.94620180610747"><ele>819.0</ele><time>2026-04-18T10:12:38Z</time></trkpt><trkpt lat="43.11539066513019" lon="12.946129227140558"><ele>819.0</ele><time>2026-04-18T10:12:41Z</time></trkpt><trkpt lat="43.115454678354496" lon="12.946097283624882"><ele>819.0</ele><time>2026-04-18T10:12:45Z</time></trkpt><trkpt lat="43.1154885506946" lon="12.946196423826182"><ele>819.0</ele><time>2026-04-18T10:12:51Z</time></trkpt><trkpt lat="43.115514690451924" lon="12.946285243676162"><ele>819.0</ele><time>2026-04-18T10:12:54Z</time></trkpt><trkpt lat="43.11554581145622" lon="12.946405790198403"><ele>819.0</ele><time>2026-04-18T10:12:58Z</time></trkpt><trkpt lat="43.115561735323205" lon="12.946493141125877"><ele>819.0</ele><time>2026-04-18T10:13:01Z</time></trkpt><trkpt lat="43.11559946306142" lon="12.94639294669337"><ele>819.0</ele><time>2026-04-18T10:13:13Z</time></trkpt><trkpt lat="43.11561139127929" lon="12.946299708194335"><ele>819.0</ele><time>2026-04-18T10:13:15Z</time></trkpt><trkpt lat="43.115660554660025" lon="12.946162408732953"><ele>819.0</ele><time>2026-04-18T10:13:17Z</time></trkpt><trkpt lat="43.115722556400605" lon="12.9460448072985"><ele>819.0</ele><time>2026-04-18T10:13:19Z</time></trkpt><trkpt lat="43.11579269383817" lon="12.945913813568902"><ele>808.8333333333334</ele><time>2026-04-18T10:13:21Z</time></trkpt><trkpt lat="43.115828616374785" lon="12.945839835970098"><ele>798.6666666666666</ele><time>2026-04-18T10:13:22Z</time></trkpt><trkpt lat="43.11588119633326" lon="12.945757435505886"><ele>788.5</ele><time>2026-04-18T10:13:24Z</time></trkpt><trkpt lat="43.115934741479805" lon="12.945675361845936"><ele>778.3333333333333</ele><time>2026-04-18T10:13:26Z</time></trkpt><trkpt lat="43.11602287943475" lon="12.94562185560694"><ele>768.1666666666666</ele><time>2026-04-18T10:13:28Z</time></trkpt><trkpt lat="43.116127970124154" lon="12.945598514235808"><ele>758.0</ele><time>2026-04-18T10:13:30Z</time></trkpt><trkpt lat="43.116257811582734" lon="12.945581066107229"><ele>758.0</ele><time>2026-04-18T10:13:32Z</time></trkpt><trkpt lat="43.11638781767711" lon="12.945590302394208"><ele>758.0</ele><time>2026-04-18T10:13:34Z</time></trkpt><trkpt lat="43.116455693758866" lon="12.945602318900509"><ele>758.0</ele><time>2026-04-18T10:13:35Z</time></trkpt><trkpt lat="43.11652739898224" lon="12.945606393298675"><ele>758.0</ele><time>2026-04-18T10:13:36Z</time></trkpt><trkpt lat="43.116594058302425" lon="12.945616910622343"><ele>758.0</ele><time>2026-04-18T10:13:37Z</time></trkpt><trkpt lat="43.11666808749149" lon="12.945624740962554"><ele>758.0</ele><time>2026-04-18T10:13:38Z</time></trkpt><trkpt lat="43.116783631560345" lon="12.945634105208251"><ele>752.2</ele><time>2026-04-18T10:13:40Z</time></trkpt><trkpt lat="43.11686828808802" lon="12.945659628475468"><ele>746.4</ele><time>2026-04-18T10:13:42Z</time></trkpt><trkpt lat="43.11696434076506" lon="12.945699576547051"><ele>740.6</ele><time>2026-04-18T10:13:44Z</time></trkpt><trkpt lat="43.1170667886799" lon="12.945745541603152"><ele>734.8000000000001</ele><time>2026-04-18T10:13:46Z</time></trkpt><trkpt lat="43.11715740906337" lon="12.945778562130252"><ele>729.0</ele><time>2026-04-18T10:13:48Z</time></trkpt><trkpt lat="43.11725665598382" lon="12.945808258051652"><ele>729.0</ele><time>2026-04-18T10:13:50Z</time></trkpt><trkpt lat="43.117362044476344" lon="12.945835072152898"><ele>729.0</ele><time>2026-04-18T10:13:52Z</time></trkpt><trkpt lat="43.11747296834365" lon="12.945869353122035"><ele>729.0</ele><time>2026-04-18T10:13:54Z</time></trkpt><trkpt lat="43.117538030932536" lon="12.94588882160423"><ele>729.0</ele><time>2026-04-18T10:13:55Z</time></trkpt><trkpt lat="43.11760147882633" lon="12.945920724565628"><ele>729.0</ele><time>2026-04-18T10:13:56Z</time></trkpt><trkpt lat="43.11770910467436" lon="12.945941171332557"><ele>726.0</ele><time>2026-04-18T10:13:58Z</time></trkpt><trkpt lat="43.117776869784265" lon="12.945954937098264"><ele>723.0</ele><time>2026-04-18T10:14:00Z</time></trkpt><trkpt lat="43.117867875927985" lon="12.945999695990821"><ele>720.0</ele><time>2026-04-18T10:14:02Z</time></trkpt><trkpt lat="43.11794800812172" lon="12.946040271926678"><ele>717.0</ele><time>2026-04-18T10:14:04Z</time></trkpt><trkpt lat="43.11800647606258" lon="12.946109221827784"><ele>714.0</ele><time>2026-04-18T10:14:07Z</time></trkpt><trkpt lat="43.11804945408256" lon="12.946177803365806"><ele>711.0</ele><time>2026-04-18T10:14:21Z</time></trkpt><trkpt lat="43.11809312967198" lon="12.946285377064921"><ele>711.0</ele><time>2026-04-18T10:14:30Z</time></trkpt><trkpt lat="43.1181707403749" lon="12.946330987373935"><ele>711.0</ele><time>2026-04-18T10:15:33Z</time></trkpt><trkpt lat="43.1182432203461" lon="12.946279598986745"><ele>711.0</ele><time>2026-04-18T10:15:37Z</time></trkpt><trkpt lat="43.11832099061803" lon="12.946214082680422"><ele>711.0</ele><time>2026-04-18T10:15:40Z</time></trkpt><trkpt lat="43.118403872702295" lon="12.946174306724917"><ele>711.0</ele><time>2026-04-18T10:15:42Z</time></trkpt><trkpt lat="43.11850941403606" lon="12.946178430110239"><ele>708.3333333333334</ele><time>2026-04-18T10:15:44Z</time></trkpt><trkpt lat="43.118575992891174" lon="12.946152712086803"><ele>705.6666666666666</ele><time>2026-04-18T10:15:46Z</time></trkpt><trkpt lat="43.11866905829367" lon="12.946107582169986"><ele>703.0</ele><time>2026-04-18T10:15:48Z</time></trkpt><trkpt lat="43.11876984783744" lon="12.94609528711495"><ele>700.3333333333333</ele><time>2026-04-18T10:15:50Z</time></trkpt><trkpt lat="43.11882986894705" lon="12.94613824843608"><ele>697.6666666666666</ele><time>2026-04-18T10:15:53Z</time></trkpt><trkpt lat="43.118896587509184" lon="12.946196858758618"><ele>695.0</ele><time>2026-04-18T10:15:59Z</time></trkpt><trkpt lat="43.118988139119885" lon="12.946136048163025"><ele>695.0</ele><time>2026-04-18T10:16:03Z</time></trkpt><trkpt lat="43.11905380732161" lon="12.94610812867526"><ele>695.0</ele><time>2026-04-18T10:16:04Z</time></trkpt><trkpt lat="43.11911070871493" lon="12.946051803421613"><ele>695.0</ele><time>2026-04-18T10:16:05Z</time></trkpt><trkpt lat="43.11919052329067" lon="12.945967746800772"><ele>695.0</ele><time>2026-04-18T10:16:07Z</time></trkpt><trkpt lat="43.11926103841112" lon="12.945923537954496"><ele>695.0</ele><time>2026-04-18T10:16:09Z</time></trkpt><trkpt lat="43.11932522192318" lon="12.94584252436823"><ele>695.0</ele><time>2026-04-18T10:16:12Z</time></trkpt><trkpt lat="43.119382195146265" lon="12.945752360809271"><ele>691.7142857142858</ele><time>2026-04-18T10:16:15Z</time></trkpt><trkpt lat="43.11944290693788" lon="12.945694575032368"><ele>688.4285714285714</ele><time>2026-04-18T10:16:17Z</time></trkpt><trkpt lat="43.119497466257" lon="12.945639662800705"><ele>685.1428571428571</ele><time>2026-04-18T10:16:19Z</time></trkpt><trkpt lat="43.11956276888072" lon="12.945580854180696"><ele>681.8571428571429</ele><time>2026-04-18T10:16:22Z</time></trkpt><trkpt lat="43.11962289677771" lon="12.945527208706098"><ele>678.5714285714286</ele><time>2026-04-18T10:16:25Z</time></trkpt><trkpt lat="43.11965349585868" lon="12.945441631948777"><ele>675.2857142857143</ele><time>2026-04-18T10:16:32Z</time></trkpt><trkpt lat="43.11970881473693" lon="12.94537616211432"><ele>672.0</ele><time>2026-04-18T10:16:40Z</time></trkpt><trkpt lat="43.11972819972186" lon="12.945289926810833"><ele>672.0</ele><time>2026-04-18T10:16:44Z</time></trkpt><trkpt lat="43.119702418081445" lon="12.945388170116534"><ele>672.0</ele><time>2026-04-18T10:17:22Z</time></trkpt><trkpt lat="43.11966343848984" lon="12.945479700384581"><ele>672.0</ele><time>2026-04-18T10:17:25Z</time></trkpt><trkpt lat="43.11963830250757" lon="12.945579181266888"><ele>672.0</ele><time>2026-04-18T10:17:28Z</time></trkpt><trkpt lat="43.11961001527578" lon="12.945668251909707"><ele>672.0</ele><time>2026-04-18T10:17:30Z</time></trkpt><trkpt lat="43.11958720402324" lon="12.945757459561255"><ele>672.0</ele><time>2026-04-18T10:17:32Z</time></trkpt><trkpt lat="43.1195536332057" lon="12.945850516912465"><ele>672.0</ele><time>2026-04-18T10:17:35Z</time></trkpt><trkpt lat="43.119502350125394" lon="12.945940420471391"><ele>672.3333333333334</ele><time>2026-04-18T10:17:37Z</time></trkpt><trkpt lat="43.11946523887373" lon="12.94601163731362"><ele>672.6666666666666</ele><time>2026-04-18T10:17:40Z</time></trkpt><trkpt lat="43.1193986644228" lon="12.946044745704175"><ele>673.0</ele><time>2026-04-18T10:17:42Z</time></trkpt><trkpt lat="43.1193310499417" lon="12.946091802395614"><ele>673.3333333333333</ele><time>2026-04-18T10:17:44Z</time></trkpt><trkpt lat="43.11924830752571" lon="12.946133969951282"><ele>673.6666666666666</ele><time>2026-04-18T10:17:46Z</time></trkpt><trkpt lat="43.1191476563443" lon="12.946166173794841"><ele>674.0</ele><time>2026-04-18T10:17:48Z</time></trkpt><trkpt lat="43.119077998204624" lon="12.946164329285814"><ele>678.2</ele><time>2026-04-18T10:17:49Z</time></trkpt><trkpt lat="43.11900400767356" lon="12.946162132231875"><ele>682.4000000000001</ele><time>2026-04-18T10:17:50Z</time></trkpt><trkpt lat="43.118915915765044" lon="12.9460189113716"><ele>686.6</ele><time>2026-04-18T10:17:51Z</time></trkpt><trkpt lat="43.11882025928898" lon="12.946048845176549"><ele>690.8</ele><time>2026-04-18T10:17:53Z</time></trkpt><trkpt lat="43.11873485276623" lon="12.946058918738894"><ele>695.0</ele><time>2026-04-18T10:17:54Z</time></trkpt><trkpt lat="43.11866024367401" lon="12.946083121111478"><ele>695.0</ele><time>2026-04-18T10:17:55Z</time></trkpt><trkpt lat="43.11859496068864" lon="12.946106652929258"><ele>695.0</ele><time>2026-04-18T10:17:56Z</time></trkpt><trkpt lat="43.11848892510384" lon="12.946146271000266"><ele>695.0</ele><time>2026-04-18T10:17:57Z</time></trkpt><trkpt lat="43.11839462542794" lon="12.946181504208193"><ele>695.0</ele><time>2026-04-18T10:17:59Z</time></trkpt><trkpt lat="43.11832024506934" lon="12.94620929495913"><ele>695.0</ele><time>2026-04-18T10:18:01Z</time></trkpt><trkpt lat="43.11825829901863" lon="12.946232439876347"><ele>695.0</ele><time>2026-04-18T10:18:04Z</time></trkpt><trkpt lat="43.11819138647166" lon="12.946272147601517"><ele>696.4</ele><time>2026-04-18T10:18:09Z</time></trkpt><trkpt lat="43.11821519374482" lon="12.946499918473943"><ele>697.8</ele><time>2026-04-18T10:18:10Z</time></trkpt><trkpt lat="43.11820218249214" lon="12.946606979748829"><ele>699.2</ele><time>2026-04-18T10:18:11Z</time></trkpt><trkpt lat="43.11817767502678" lon="12.946725416324748"><ele>700.6</ele><time>2026-04-18T10:18:12Z</time></trkpt><trkpt lat="43.11815466297026" lon="12.946833370329408"><ele>702.0</ele><time>2026-04-18T10:18:13Z</time></trkpt><trkpt lat="43.11812721724268" lon="12.946912958306626"><ele>702.0</ele><time>2026-04-18T10:18:14Z</time></trkpt><trkpt lat="43.11806935047004" lon="12.947070651817429"><ele>702.0</ele><time>2026-04-18T10:18:16Z</time></trkpt><trkpt lat="43.118039736127066" lon="12.947153729616318"><ele>702.0</ele><time>2026-04-18T10:18:17Z</time></trkpt><trkpt lat="43.1179996469785" lon="12.947234556352972"><ele>702.0</ele><time>2026-04-18T10:18:18Z</time></trkpt><trkpt lat="43.117968806680025" lon="12.947316104529431"><ele>702.0</ele><time>2026-04-18T10:18:19Z</time></trkpt><trkpt lat="43.11795440706565" lon="12.947408572745285"><ele>702.0</ele><time>2026-04-18T10:18:20Z</time></trkpt><trkpt lat="43.11798238649402" lon="12.947556586995892"><ele>699.1666666666666</ele><time>2026-04-18T10:18:22Z</time></trkpt><trkpt lat="43.11804263261566" lon="12.947628559622013"><ele>696.3333333333334</ele><time>2026-04-18T10:18:24Z</time></trkpt><trkpt lat="43.11814690644309" lon="12.947633184933501"><ele>693.5</ele><time>2026-04-18T10:18:26Z</time></trkpt><trkpt lat="43.1182475136695" lon="12.947584683757306"><ele>690.6666666666667</ele><time>2026-04-18T10:18:28Z</time></trkpt><trkpt lat="43.11830933656255" lon="12.947543589153112"><ele>687.8333333333334</ele><time>2026-04-18T10:18:29Z</time></trkpt><trkpt lat="43.11836538343035" lon="12.947492139089755"><ele>685.0</ele><time>2026-04-18T10:18:30Z</time></trkpt><trkpt lat="43.118426872664436" lon="12.947442579847323"><ele>685.0</ele><time>2026-04-18T10:18:31Z</time></trkpt><trkpt lat="43.11849325650983" lon="12.947409513048994"><ele>685.0</ele><time>2026-04-18T10:18:32Z</time></trkpt><trkpt lat="43.118561270605426" lon="12.947376443559087"><ele>685.0</ele><time>2026-04-18T10:18:33Z</time></trkpt><trkpt lat="43.118663074679624" lon="12.94731506475918"><ele>685.0</ele><time>2026-04-18T10:18:34Z</time></trkpt><trkpt lat="43.11875827685322" lon="12.947252326510549"><ele>685.0</ele><time>2026-04-18T10:18:35Z</time></trkpt><trkpt lat="43.118826457638995" lon="12.947211945830224"><ele>685.0</ele><time>2026-04-18T10:18:36Z</time></trkpt><trkpt lat="43.118915368479584" lon="12.947156674021404"><ele>685.0</ele><time>2026-04-18T10:18:37Z</time></trkpt><trkpt lat="43.119006862126945" lon="12.947092618943437"><ele>685.0</ele><time>2026-04-18T10:18:38Z</time></trkpt><trkpt lat="43.119107367049395" lon="12.947031551213811"><ele>685.0</ele><time>2026-04-18T10:18:39Z</time></trkpt><trkpt lat="43.11918772627756" lon="12.946982689245313"><ele>685.0</ele><time>2026-04-18T10:18:40Z</time></trkpt><trkpt lat="43.11925628143096" lon="12.94694356402892"><ele>685.0</ele><time>2026-04-18T10:18:41Z</time></trkpt><trkpt lat="43.119317551955774" lon="12.946904784987451"><ele>685.0</ele><time>2026-04-18T10:18:42Z</time></trkpt><trkpt lat="43.11938094051366" lon="12.946846990257136"><ele>683.1666666666667</ele><time>2026-04-18T10:18:43Z</time></trkpt><trkpt lat="43.119437627089944" lon="12.94677852399464"><ele>681.3333333333334</ele><time>2026-04-18T10:18:44Z</time></trkpt><trkpt lat="43.11946645342508" lon="12.946680876788461"><ele>679.5</ele><time>2026-04-18T10:18:45Z</time></trkpt><trkpt lat="43.11947048292331" lon="12.946586116050412"><ele>677.6666666666666</ele><time>2026-04-18T10:18:46Z</time></trkpt><trkpt lat="43.11945288452556" lon="12.946422650554851"><ele>675.8333333333333</ele><time>2026-04-18T10:18:48Z</time></trkpt><trkpt lat="43.11954739372042" lon="12.946452901221619"><ele>674.0</ele><time>2026-04-18T10:18:56Z</time></trkpt><trkpt lat="43.11959810886983" lon="12.946610920616846"><ele>674.0</ele><time>2026-04-18T10:18:58Z</time></trkpt><trkpt lat="43.11963495270195" lon="12.946683408387491"><ele>674.0</ele><time>2026-04-18T10:18:59Z</time></trkpt><trkpt lat="43.11966448755724" lon="12.946803040122273"><ele>674.0</ele><time>2026-04-18T10:19:00Z</time></trkpt><trkpt lat="43.11968287530183" lon="12.946937485352246"><ele>674.0</ele><time>2026-04-18T10:19:01Z</time></trkpt><trkpt lat="43.119663965299566" lon="12.947073196854133"><ele>674.0</ele><time>2026-04-18T10:19:02Z</time></trkpt><trkpt lat="43.119619784272416" lon="12.947178009356863"><ele>674.0</ele><time>2026-04-18T10:19:03Z</time></trkpt><trkpt lat="43.119568864822924" lon="12.947265040592283"><ele>672.5</ele><time>2026-04-18T10:19:04Z</time></trkpt><trkpt lat="43.1195124536386" lon="12.947354064139603"><ele>671.0</ele><time>2026-04-18T10:19:05Z</time></trkpt><trkpt lat="43.11945433220426" lon="12.947443197788202"><ele>669.5</ele><time>2026-04-18T10:19:06Z</time></trkpt><trkpt lat="43.11939991406085" lon="12.947551558690945"><ele>668.0</ele><time>2026-04-18T10:19:07Z</time></trkpt><trkpt lat="43.119350182910445" lon="12.947660911380886"><ele>666.5</ele><time>2026-04-18T10:19:08Z</time></trkpt><trkpt lat="43.11930528654829" lon="12.947748494963712"><ele>665.0</ele><time>2026-04-18T10:19:09Z</time></trkpt><trkpt lat="43.119245941545806" lon="12.947833215204632"><ele>664.6666666666666</ele><time>2026-04-18T10:19:10Z</time></trkpt><trkpt lat="43.11917681786564" lon="12.947910817310492"><ele>664.3333333333333</ele><time>2026-04-18T10:19:11Z</time></trkpt><trkpt lat="43.11911462109242" lon="12.9479889544661"><ele>664.0</ele><time>2026-04-18T10:19:12Z</time></trkpt><trkpt lat="43.11904806835924" lon="12.94806796950006"><ele>663.6666666666666</ele><time>2026-04-18T10:19:13Z</time></trkpt><trkpt lat="43.11898044750982" lon="12.94813609817851"><ele>663.3333333333334</ele><time>2026-04-18T10:19:14Z</time></trkpt><trkpt lat="43.11890331829395" lon="12.94821932971947"><ele>663.0</ele><time>2026-04-18T10:19:15Z</time></trkpt><trkpt lat="43.11882518836045" lon="12.948304547699367"><ele>659.8</ele><time>2026-04-18T10:19:16Z</time></trkpt><trkpt lat="43.11876169512258" lon="12.948417873600016"><ele>656.5999999999999</ele><time>2026-04-18T10:19:17Z</time></trkpt><trkpt lat="43.11871215490222" lon="12.94852886335495"><ele>653.4000000000001</ele><time>2026-04-18T10:19:18Z</time></trkpt><trkpt lat="43.11866646675003" lon="12.948635838383717"><ele>650.2</ele><time>2026-04-18T10:19:19Z</time></trkpt><trkpt lat="43.11861616951496" lon="12.948727329670186"><ele>647.0</ele><time>2026-04-18T10:19:20Z</time></trkpt><trkpt lat="43.118558800159605" lon="12.948859169350891"><ele>647.0</ele><time>2026-04-18T10:19:21Z</time></trkpt><trkpt lat="43.1185319888887" lon="12.949012447991207"><ele>647.0</ele><time>2026-04-18T10:19:22Z</time></trkpt><trkpt lat="43.11851953906481" lon="12.949152712340876"><ele>647.0</ele><time>2026-04-18T10:19:23Z</time></trkpt><trkpt lat="43.11851490119157" lon="12.949283584517913"><ele>647.0</ele><time>2026-04-18T10:19:24Z</time></trkpt><trkpt lat="43.118506619857705" lon="12.949410685031019"><ele>647.0</ele><time>2026-04-18T10:19:25Z</time></trkpt><trkpt lat="43.118495760743485" lon="12.949529215600764"><ele>645.4</ele><time>2026-04-18T10:19:26Z</time></trkpt><trkpt lat="43.11847564565277" lon="12.949642374654658"><ele>643.8000000000001</ele><time>2026-04-18T10:19:27Z</time></trkpt><trkpt lat="43.11844402825046" lon="12.949773975631839"><ele>642.2</ele><time>2026-04-18T10:19:28Z</time></trkpt><trkpt lat="43.118376798596714" lon="12.949883403641595"><ele>640.6</ele><time>2026-04-18T10:19:29Z</time></trkpt><trkpt lat="43.11831093793413" lon="12.949978663240037"><ele>639.0</ele><time>2026-04-18T10:19:30Z</time></trkpt><trkpt lat="43.11823886839409" lon="12.950021419421128"><ele>639.5</ele><time>2026-04-18T10:19:31Z</time></trkpt><trkpt lat="43.118166613060154" lon="12.950093309181167"><ele>640.0</ele><time>2026-04-18T10:19:33Z</time></trkpt><trkpt lat="43.11810353209064" lon="12.950132389245343"><ele>640.5</ele><time>2026-04-18T10:19:35Z</time></trkpt><trkpt lat="43.118193315499305" lon="12.95032243335141"><ele>641.0</ele><time>2026-04-18T10:19:41Z</time></trkpt><trkpt lat="43.11832522252225" lon="12.950347177858013"><ele>641.0</ele><time>2026-04-18T10:19:43Z</time></trkpt><trkpt lat="43.118452731540835" lon="12.950382491677104"><ele>641.0</ele><time>2026-04-18T10:19:45Z</time></trkpt><trkpt lat="43.118563346736636" lon="12.950485068071343"><ele>641.0</ele><time>2026-04-18T10:19:46Z</time></trkpt><trkpt lat="43.11873548349514" lon="12.950502707018948"><ele>641.0</ele><time>2026-04-18T10:19:47Z</time></trkpt><trkpt lat="43.11890282095961" lon="12.950437465081112"><ele>636.6666666666666</ele><time>2026-04-18T10:19:48Z</time></trkpt><trkpt lat="43.119068256329975" lon="12.950353214934278"><ele>632.3333333333334</ele><time>2026-04-18T10:19:49Z</time></trkpt><trkpt lat="43.11924572646911" lon="12.950264947569343"><ele>628.0</ele><time>2026-04-18T10:19:50Z</time></trkpt><trkpt lat="43.11938928207276" lon="12.95019255552282"><ele>628.0</ele><time>2026-04-18T10:19:51Z</time></trkpt><trkpt lat="43.1195205077917" lon="12.95012498788825"><ele>628.0</ele><time>2026-04-18T10:19:52Z</time></trkpt><trkpt lat="43.11964944164814" lon="12.95005443547855"><ele>628.0</ele><time>2026-04-18T10:19:53Z</time></trkpt><trkpt lat="43.119764097473286" lon="12.949984483787706"><ele>628.0</ele><time>2026-04-18T10:19:54.001Z</time></trkpt><trkpt lat="43.11986528413269" lon="12.949869212341893"><ele>628.0</ele><time>2026-04-18T10:19:55.001Z</time></trkpt><trkpt lat="43.119935693876336" lon="12.949707019779867"><ele>628.0</ele><time>2026-04-18T10:19:56.001Z</time></trkpt><trkpt lat="43.11997392872017" lon="12.949533232870012"><ele>628.0</ele><time>2026-04-18T10:19:57.001Z</time></trkpt><trkpt lat="43.1200034181013" lon="12.949362271822707"><ele>628.0</ele><time>2026-04-18T10:19:58.001Z</time></trkpt><trkpt lat="43.120031327314045" lon="12.949197663563313"><ele>625.5</ele><time>2026-04-18T10:19:59.001Z</time></trkpt><trkpt lat="43.12006171352189" lon="12.949018447464285"><ele>623.0</ele><time>2026-04-18T10:20:00.001Z</time></trkpt><trkpt lat="43.120085733324075" lon="12.948845091986913"><ele>620.5</ele><time>2026-04-18T10:20:01.001Z</time></trkpt><trkpt lat="43.120106456367076" lon="12.94869276973024"><ele>618.0</ele><time>2026-04-18T10:20:02.001Z</time></trkpt><trkpt lat="43.120157780499724" lon="12.948549990668424"><ele>618.0</ele><time>2026-04-18T10:20:03.001Z</time></trkpt><trkpt lat="43.12020770940489" lon="12.948420947840766"><ele>618.0</ele><time>2026-04-18T10:20:04.001Z</time></trkpt><trkpt lat="43.120287793337724" lon="12.948310656941093"><ele>618.0</ele><time>2026-04-18T10:20:05.001Z</time></trkpt><trkpt lat="43.12038834086958" lon="12.948211738501781"><ele>618.0</ele><time>2026-04-18T10:20:06.001Z</time></trkpt><trkpt lat="43.120487688471265" lon="12.948124386177296"><ele>618.25</ele><time>2026-04-18T10:20:07.001Z</time></trkpt><trkpt lat="43.12058573377415" lon="12.948038194631591"><ele>618.5</ele><time>2026-04-18T10:20:08.001Z</time></trkpt><trkpt lat="43.12068882004923" lon="12.947930274030753"><ele>618.75</ele><time>2026-04-18T10:20:09.001Z</time></trkpt><trkpt lat="43.120780347969635" lon="12.947815228497651"><ele>619.0</ele><time>2026-04-18T10:20:10.001Z</time></trkpt><trkpt lat="43.120864394696945" lon="12.947714905001925"><ele>619.5</ele><time>2026-04-18T10:20:11.001Z</time></trkpt><trkpt lat="43.12095213611443" lon="12.947634319412893"><ele>620.0</ele><time>2026-04-18T10:20:12.001Z</time></trkpt><trkpt lat="43.12104589196375" lon="12.947569394281322"><ele>620.5</ele><time>2026-04-18T10:20:13.001Z</time></trkpt><trkpt lat="43.12115661600519" lon="12.947510490838996"><ele>621.0</ele><time>2026-04-18T10:20:14.001Z</time></trkpt><trkpt lat="43.121261833741" lon="12.947418624058452"><ele>620.0</ele><time>2026-04-18T10:20:15.001Z</time></trkpt><trkpt lat="43.121336999590476" lon="12.947306457848876"><ele>619.0</ele><time>2026-04-18T10:20:16.001Z</time></trkpt><trkpt lat="43.121375402126034" lon="12.947188654698403"><ele>618.0</ele><time>2026-04-18T10:20:17.001Z</time></trkpt><trkpt lat="43.12140493190054" lon="12.947065437793182"><ele>617.0</ele><time>2026-04-18T10:20:18.001Z</time></trkpt><trkpt lat="43.12142896759652" lon="12.94694671615986"><ele>616.0</ele><time>2026-04-18T10:20:19.001Z</time></trkpt><trkpt lat="43.12145306505029" lon="12.946817352826878"><ele>614.6</ele><time>2026-04-18T10:20:20.001Z</time></trkpt><trkpt lat="43.12146790179975" lon="12.946696657640553"><ele>613.2</ele><time>2026-04-18T10:20:21.001Z</time></trkpt><trkpt lat="43.12146583843399" lon="12.946572159446147"><ele>611.8</ele><time>2026-04-18T10:20:22.001Z</time></trkpt><trkpt lat="43.12148587022345" lon="12.946437408956696"><ele>610.4</ele><time>2026-04-18T10:20:23.001Z</time></trkpt><trkpt lat="43.12154908523293" lon="12.946321122541267"><ele>609.0</ele><time>2026-04-18T10:20:24.001Z</time></trkpt><trkpt lat="43.12163935578091" lon="12.94623445163047"><ele>609.0</ele><time>2026-04-18T10:20:25.001Z</time></trkpt><trkpt lat="43.121719819700225" lon="12.946148975084903"><ele>609.0</ele><time>2026-04-18T10:20:26.001Z</time></trkpt><trkpt lat="43.12180444798485" lon="12.946050049121888"><ele>609.0</ele><time>2026-04-18T10:20:27.001Z</time></trkpt><trkpt lat="43.121903131512056" lon="12.94596515558491"><ele>609.0</ele><time>2026-04-18T10:20:28.001Z</time></trkpt><trkpt lat="43.12199242975999" lon="12.9458796021604"><ele>609.0</ele><time>2026-04-18T10:20:29.001Z</time></trkpt><trkpt lat="43.122090367755234" lon="12.94578299813736"><ele>608.5</ele><time>2026-04-18T10:20:30.001Z</time></trkpt><trkpt lat="43.1222021241707" lon="12.945702137144464"><ele>608.0</ele><time>2026-04-18T10:20:31.001Z</time></trkpt><trkpt lat="43.12230147556426" lon="12.945608400893828"><ele>607.5</ele><time>2026-04-18T10:20:32.001Z</time></trkpt><trkpt lat="43.12240205943685" lon="12.94551256643215"><ele>607.0</ele><time>2026-04-18T10:20:33.001Z</time></trkpt><trkpt lat="43.122503649364965" lon="12.945416623379755"><ele>605.6</ele><time>2026-04-18T10:20:34.001Z</time></trkpt><trkpt lat="43.12260059669826" lon="12.945325896658181"><ele>604.2</ele><time>2026-04-18T10:20:35.001Z</time></trkpt><trkpt lat="43.122694960475236" lon="12.945244540772947"><ele>602.8</ele><time>2026-04-18T10:20:36.001Z</time></trkpt><trkpt lat="43.12278412940299" lon="12.945163940259347"><ele>601.4</ele><time>2026-04-18T10:20:37.001Z</time></trkpt><trkpt lat="43.12287418775568" lon="12.94513876688659"><ele>600.0</ele><time>2026-04-18T10:20:38.001Z</time></trkpt><trkpt lat="43.12296238455481" lon="12.945125928714672"><ele>600.0</ele><time>2026-04-18T10:20:39.001Z</time></trkpt><trkpt lat="43.12303016675545" lon="12.945118936256009"><ele>600.0</ele><time>2026-04-18T10:20:40.001Z</time></trkpt><trkpt lat="43.12315081755489" lon="12.945004515050378"><ele>600.0</ele><time>2026-04-18T10:20:45.001Z</time></trkpt><trkpt lat="43.123091260547" lon="12.944946620805624"><ele>600.0</ele><time>2026-04-18T10:20:47.001Z</time></trkpt><trkpt lat="43.12298788472257" lon="12.944907384357712"><ele>600.0</ele><time>2026-04-18T10:20:49.001Z</time></trkpt><trkpt lat="43.1228624814422" lon="12.944839721674805"><ele>595.6666666666666</ele><time>2026-04-18T10:20:51Z</time></trkpt><trkpt lat="43.12279548241625" lon="12.944775690715641"><ele>591.3333333333334</ele><time>2026-04-18T10:20:52Z</time></trkpt><trkpt lat="43.12273392195104" lon="12.94469993009054"><ele>587.0</ele><time>2026-04-18T10:20:53Z</time></trkpt><trkpt lat="43.12270439473021" lon="12.944603932096975"><ele>582.6666666666667</ele><time>2026-04-18T10:20:54Z</time></trkpt><trkpt lat="43.12266375581591" lon="12.944536865843666"><ele>578.3333333333334</ele><time>2026-04-18T10:20:55Z</time></trkpt><trkpt lat="43.12260977393493" lon="12.944448883912006"><ele>574.0</ele><time>2026-04-18T10:20:56Z</time></trkpt><trkpt lat="43.12256748009828" lon="12.944384655152106"><ele>574.0</ele><time>2026-04-18T10:20:57Z</time></trkpt><trkpt lat="43.12247911172067" lon="12.9442442000949"><ele>574.0</ele><time>2026-04-18T10:20:59Z</time></trkpt><trkpt lat="43.122428989690306" lon="12.944162290137019"><ele>574.0</ele><time>2026-04-18T10:21:00Z</time></trkpt><trkpt lat="43.122385100214544" lon="12.944088100746143"><ele>574.0</ele><time>2026-04-18T10:21:01Z</time></trkpt><trkpt lat="43.122318722872656" lon="12.943962702337194"><ele>574.0</ele><time>2026-04-18T10:21:03Z</time></trkpt><trkpt lat="43.122280351773206" lon="12.943879655885171"><ele>574.0</ele><time>2026-04-18T10:21:04Z</time></trkpt><trkpt lat="43.12224369872985" lon="12.9438003279226"><ele>574.0</ele><time>2026-04-18T10:21:05Z</time></trkpt><trkpt lat="43.122330578663174" lon="12.943845806670172"><ele>574.0</ele><time>2026-04-18T10:21:16Z</time></trkpt><trkpt lat="43.12228016063269" lon="12.943964457324512"><ele>574.0</ele><time>2026-04-18T10:21:17Z</time></trkpt><trkpt lat="43.122350603990284" lon="12.944101586013103"><ele>574.0</ele><time>2026-04-18T10:21:19Z</time></trkpt><trkpt lat="43.12242117394324" lon="12.944220518255268"><ele>574.0</ele><time>2026-04-18T10:21:21Z</time></trkpt><trkpt lat="43.12248789279808" lon="12.944329213522943"><ele>574.0</ele><time>2026-04-18T10:21:23Z</time></trkpt><trkpt lat="43.12253140497272" lon="12.94439787368972"><ele>574.0</ele><time>2026-04-18T10:21:26Z</time></trkpt><trkpt lat="43.12249926357691" lon="12.94413870968042"><ele>574.0</ele><time>2026-04-18T10:21:38Z</time></trkpt><trkpt lat="43.12260526353927" lon="12.944149128169345"><ele>574.2</ele><time>2026-04-18T10:21:42Z</time></trkpt><trkpt lat="43.12268848807894" lon="12.944167702418026"><ele>574.4</ele><time>2026-04-18T10:21:43Z</time></trkpt><trkpt lat="43.12276919185673" lon="12.944150287601577"><ele>574.6</ele><time>2026-04-18T10:21:44Z</time></trkpt><trkpt lat="43.12289169087918" lon="12.944159440479595"><ele>574.8</ele><time>2026-04-18T10:21:46Z</time></trkpt><trkpt lat="43.12300306132031" lon="12.944147765412914"><ele>575.0</ele><time>2026-04-18T10:21:48Z</time></trkpt><trkpt lat="43.12308039016497" lon="12.944131677217973"><ele>575.0</ele><time>2026-04-18T10:21:50Z</time></trkpt><trkpt lat="43.123179964780675" lon="12.944090463508468"><ele>575.0</ele><time>2026-04-18T10:21:52Z</time></trkpt><trkpt lat="43.12325630827293" lon="12.944079123946565"><ele>575.0</ele><time>2026-04-18T10:21:53Z</time></trkpt><trkpt lat="43.12333282447427" lon="12.944078469879258"><ele>575.0</ele><time>2026-04-18T10:21:54Z</time></trkpt><trkpt lat="43.12341029783817" lon="12.944082523108765"><ele>575.0</ele><time>2026-04-18T10:21:55Z</time></trkpt><trkpt lat="43.123491167471336" lon="12.944078660496531"><ele>575.0</ele><time>2026-04-18T10:21:56Z</time></trkpt><trkpt lat="43.1235684495424" lon="12.944073049036644"><ele>577.6</ele><time>2026-04-18T10:21:57Z</time></trkpt><trkpt lat="43.123652826400324" lon="12.944058231002206"><ele>580.2</ele><time>2026-04-18T10:21:58Z</time></trkpt><trkpt lat="43.12377229540227" lon="12.944050492420137"><ele>582.8</ele><time>2026-04-18T10:21:59Z</time></trkpt><trkpt lat="43.123872027470874" lon="12.944051102682828"><ele>585.4</ele><time>2026-04-18T10:22:00Z</time></trkpt><trkpt lat="43.12396739303716" lon="12.944062561431647"><ele>588.0</ele><time>2026-04-18T10:22:01Z</time></trkpt><trkpt lat="43.124078777665524" lon="12.944088742655987"><ele>590.1666666666666</ele><time>2026-04-18T10:22:02Z</time></trkpt><trkpt lat="43.124172989755664" lon="12.944081716784968"><ele>592.3333333333334</ele><time>2026-04-18T10:22:03Z</time></trkpt><trkpt lat="43.124261213305346" lon="12.944087636369945"><ele>594.5</ele><time>2026-04-18T10:22:04Z</time></trkpt><trkpt lat="43.12434404758017" lon="12.944070264354544"><ele>596.6666666666667</ele><time>2026-04-18T10:22:05Z</time></trkpt><trkpt lat="43.124424404284106" lon="12.94404646362854"><ele>598.8333333333334</ele><time>2026-04-18T10:22:06Z</time></trkpt><trkpt lat="43.12451353974632" lon="12.94404085291545"><ele>601.0</ele><time>2026-04-18T10:22:07Z</time></trkpt><trkpt lat="43.124583927969894" lon="12.944045563660268"><ele>601.0</ele><time>2026-04-18T10:22:08Z</time></trkpt><trkpt lat="43.12465063611945" lon="12.944078586416078"><ele>601.0</ele><time>2026-04-18T10:22:09Z</time></trkpt><trkpt lat="43.12476104679948" lon="12.94416005010137"><ele>601.0</ele><time>2026-04-18T10:22:11Z</time></trkpt><trkpt lat="43.1248519061926" lon="12.944214051364407"><ele>601.0</ele><time>2026-04-18T10:22:13Z</time></trkpt><trkpt lat="43.12496108165387" lon="12.944167673304987"><ele>601.0</ele><time>2026-04-18T10:22:15Z</time></trkpt><trkpt lat="43.125086928463745" lon="12.94418177764705"><ele>601.8</ele><time>2026-04-18T10:22:17Z</time></trkpt><trkpt lat="43.125167522630534" lon="12.944202403319851"><ele>602.6</ele><time>2026-04-18T10:22:18Z</time></trkpt><trkpt lat="43.125239989367486" lon="12.9442157179692"><ele>603.4</ele><time>2026-04-18T10:22:19Z</time></trkpt><trkpt lat="43.12536368956963" lon="12.944214674700214"><ele>604.2</ele><time>2026-04-18T10:22:21Z</time></trkpt><trkpt lat="43.12544401237675" lon="12.944226293839389"><ele>605.0</ele><time>2026-04-18T10:22:22Z</time></trkpt><trkpt lat="43.125556247277935" lon="12.944230057327857"><ele>605.0</ele><time>2026-04-18T10:22:24Z</time></trkpt><trkpt lat="43.125637648322865" lon="12.944209306685254"><ele>605.0</ele><time>2026-04-18T10:22:25Z</time></trkpt><trkpt lat="43.12573716117669" lon="12.944205996265897"><ele>605.0</ele><time>2026-04-18T10:22:26Z</time></trkpt><trkpt lat="43.12583076964093" lon="12.944193400743172"><ele>605.0</ele><time>2026-04-18T10:22:27Z</time></trkpt><trkpt lat="43.12591064548847" lon="12.944197614113705"><ele>605.0</ele><time>2026-04-18T10:22:28Z</time></trkpt><trkpt lat="43.12602723882986" lon="12.944172650087348"><ele>603.4</ele><time>2026-04-18T10:22:30Z</time></trkpt><trkpt lat="43.126116222027456" lon="12.944148930632632"><ele>601.8</ele><time>2026-04-18T10:22:32Z</time></trkpt><trkpt lat="43.126270523017574" lon="12.9441855351004"><ele>600.2</ele><time>2026-04-18T10:22:36Z</time></trkpt><trkpt lat="43.12634832088978" lon="12.944223516240744"><ele>598.6</ele><time>2026-04-18T10:22:37Z</time></trkpt><trkpt lat="43.12643788440771" lon="12.944269467829459"><ele>597.0</ele><time>2026-04-18T10:22:38Z</time></trkpt><trkpt lat="43.12653577093666" lon="12.944310850205596"><ele>589.4</ele><time>2026-04-18T10:22:39Z</time></trkpt><trkpt lat="43.12663588549033" lon="12.944333971979754"><ele>581.8000000000001</ele><time>2026-04-18T10:22:40Z</time></trkpt><trkpt lat="43.12672258088865" lon="12.944313100567793"><ele>574.2</ele><time>2026-04-18T10:22:41Z</time></trkpt><trkpt lat="43.12683879074378" lon="12.944265025842395"><ele>566.6</ele><time>2026-04-18T10:22:43Z</time></trkpt><trkpt lat="43.126942473809855" lon="12.944248549656093"><ele>559.0</ele><time>2026-04-18T10:22:45Z</time></trkpt><trkpt lat="43.12701123773463" lon="12.944278263906291"><ele>559.0</ele><time>2026-04-18T10:22:46Z</time></trkpt><trkpt lat="43.12707744645006" lon="12.94432289213952"><ele>559.0</ele><time>2026-04-18T10:22:47Z</time></trkpt><trkpt lat="43.127164316628736" lon="12.944385419706032"><ele>559.0</ele><time>2026-04-18T10:22:49Z</time></trkpt><trkpt lat="43.127257258954344" lon="12.944384064923142"><ele>559.0</ele><time>2026-04-18T10:22:51Z</time></trkpt><trkpt lat="43.12733583031342" lon="12.944322417320777"><ele>559.0</ele><time>2026-04-18T10:22:54Z</time></trkpt><trkpt lat="43.127369521354666" lon="12.944230513518702"><ele>559.0</ele><time>2026-04-18T10:22:57Z</time></trkpt><trkpt lat="43.12743717138463" lon="12.94424414549294"><ele>559.2</ele><time>2026-04-18T10:23:00Z</time></trkpt><trkpt lat="43.127596897867285" lon="12.944274216324184"><ele>559.4</ele><time>2026-04-18T10:23:05Z</time></trkpt><trkpt lat="43.12765846987178" lon="12.944301053890287"><ele>559.6</ele><time>2026-04-18T10:23:07Z</time></trkpt><trkpt lat="43.127732119971846" lon="12.94434703933983"><ele>559.8</ele><time>2026-04-18T10:23:10Z</time></trkpt><trkpt lat="43.12785074128427" lon="12.944421836327152"><ele>560.0</ele><time>2026-04-18T10:23:12Z</time></trkpt><trkpt lat="43.12790567648777" lon="12.944492708175119"><ele>560.0</ele><time>2026-04-18T10:23:13Z</time></trkpt><trkpt lat="43.12800362733559" lon="12.944525028585394"><ele>560.0</ele><time>2026-04-18T10:23:15Z</time></trkpt><trkpt lat="43.12811455536855" lon="12.944578757127921"><ele>560.0</ele><time>2026-04-18T10:23:17Z</time></trkpt><trkpt lat="43.12816577315782" lon="12.944656605960327"><ele>560.0</ele><time>2026-04-18T10:23:18Z</time></trkpt><trkpt lat="43.12826031443927" lon="12.94471681013128"><ele>560.0</ele><time>2026-04-18T10:23:19Z</time></trkpt><trkpt lat="43.1283363316925" lon="12.944742910662736"><ele>563.2</ele><time>2026-04-18T10:23:20Z</time></trkpt><trkpt lat="43.12841621928271" lon="12.94479674691165"><ele>566.4</ele><time>2026-04-18T10:23:21Z</time></trkpt><trkpt lat="43.12852201434821" lon="12.94484554725355"><ele>569.6</ele><time>2026-04-18T10:23:23Z</time></trkpt><trkpt lat="43.12865688448153" lon="12.944912873584121"><ele>572.8</ele><time>2026-04-18T10:23:25Z</time></trkpt><trkpt lat="43.12873974443395" lon="12.944937230178626"><ele>576.0</ele><time>2026-04-18T10:23:26Z</time></trkpt><trkpt lat="43.12885706220195" lon="12.94500102837221"><ele>574.5</ele><time>2026-04-18T10:23:27Z</time></trkpt><trkpt lat="43.12899289984008" lon="12.945077455696811"><ele>573.0</ele><time>2026-04-18T10:23:28Z</time></trkpt><trkpt lat="43.12911256139152" lon="12.945146737904144"><ele>571.5</ele><time>2026-04-18T10:23:29Z</time></trkpt><trkpt lat="43.129223015614826" lon="12.945228070519166"><ele>570.0</ele><time>2026-04-18T10:23:30Z</time></trkpt><trkpt lat="43.12934471320443" lon="12.945294583993967"><ele>570.0</ele><time>2026-04-18T10:23:31Z</time></trkpt><trkpt lat="43.12944475164283" lon="12.94534516734955"><ele>570.0</ele><time>2026-04-18T10:23:32Z</time></trkpt><trkpt lat="43.129521639288704" lon="12.945385587747452"><ele>570.0</ele><time>2026-04-18T10:23:33Z</time></trkpt><trkpt lat="43.12961178376208" lon="12.94548116621514"><ele>570.0</ele><time>2026-04-18T10:23:35Z</time></trkpt><trkpt lat="43.129689652027785" lon="12.945550394039234"><ele>570.0</ele><time>2026-04-18T10:23:37Z</time></trkpt><trkpt lat="43.129787456138025" lon="12.945628075834776"><ele>570.0</ele><time>2026-04-18T10:23:39Z</time></trkpt><trkpt lat="43.12987903923602" lon="12.945717971949417"><ele>570.0</ele><time>2026-04-18T10:23:41Z</time></trkpt><trkpt lat="43.12995739576966" lon="12.945796015418527"><ele>570.0</ele><time>2026-04-18T10:23:43Z</time></trkpt><trkpt lat="43.130042381870645" lon="12.94585469107641"><ele>570.0</ele><time>2026-04-18T10:23:45Z</time></trkpt><trkpt lat="43.13013296531793" lon="12.945902893105751"><ele>570.0</ele><time>2026-04-18T10:23:47Z</time></trkpt><trkpt lat="43.13019678662518" lon="12.945953640266566"><ele>571.4</ele><time>2026-04-18T10:23:48Z</time></trkpt><trkpt lat="43.13028752277593" lon="12.945969834362533"><ele>572.8</ele><time>2026-04-18T10:23:49Z</time></trkpt><trkpt lat="43.13037911197922" lon="12.9459899577562"><ele>574.2</ele><time>2026-04-18T10:23:50Z</time></trkpt><trkpt lat="43.13048778746429" lon="12.946030057965562"><ele>575.6</ele><time>2026-04-18T10:23:51Z</time></trkpt><trkpt lat="43.13055294351621" lon="12.94608499144195"><ele>577.0</ele><time>2026-04-18T10:23:52Z</time></trkpt><trkpt lat="43.13061752252378" lon="12.946153489513414"><ele>577.0</ele><time>2026-04-18T10:23:53Z</time></trkpt><trkpt lat="43.130685723621355" lon="12.946225680394452"><ele>577.0</ele><time>2026-04-18T10:23:54Z</time></trkpt><trkpt lat="43.13075889416433" lon="12.946289640154772"><ele>577.0</ele><time>2026-04-18T10:23:55Z</time></trkpt><trkpt lat="43.13081623116325" lon="12.94634177761201"><ele>577.0</ele><time>2026-04-18T10:23:56Z</time></trkpt><trkpt lat="43.1308765951821" lon="12.94637502762276"><ele>577.0</ele><time>2026-04-18T10:23:57Z</time></trkpt><trkpt lat="43.130979136308675" lon="12.946428864659058"><ele>577.0</ele><time>2026-04-18T10:23:59Z</time></trkpt><trkpt lat="43.131069809649276" lon="12.946482195800138"><ele>584.8333333333334</ele><time>2026-04-18T10:24:02Z</time></trkpt><trkpt lat="43.13115356340778" lon="12.946539730799653"><ele>592.6666666666667</ele><time>2026-04-18T10:24:04Z</time></trkpt><trkpt lat="43.13121183182749" lon="12.946586650030017"><ele>600.5</ele><time>2026-04-18T10:24:06Z</time></trkpt><trkpt lat="43.131276336407176" lon="12.94658161733121"><ele>608.3333333333334</ele><time>2026-04-18T10:24:09Z</time></trkpt><trkpt lat="43.131376545491385" lon="12.946601156782434"><ele>616.1666666666666</ele><time>2026-04-18T10:24:12Z</time></trkpt><trkpt lat="43.13145385251202" lon="12.946628650508444"><ele>624.0</ele><time>2026-04-18T10:24:14Z</time></trkpt><trkpt lat="43.13156931295441" lon="12.946680023042983"><ele>624.0</ele><time>2026-04-18T10:24:16Z</time></trkpt><trkpt lat="43.13163755177352" lon="12.946697694275118"><ele>624.0</ele><time>2026-04-18T10:24:17Z</time></trkpt><trkpt lat="43.13170672290511" lon="12.946713038167147"><ele>624.0</ele><time>2026-04-18T10:24:18Z</time></trkpt><trkpt lat="43.13178694099758" lon="12.94674137992597"><ele>624.0</ele><time>2026-04-18T10:24:19Z</time></trkpt><trkpt lat="43.1318642159272" lon="12.946772069546041"><ele>624.0</ele><time>2026-04-18T10:24:20Z</time></trkpt><trkpt lat="43.13193465316123" lon="12.946798940424552"><ele>624.0</ele><time>2026-04-18T10:24:21Z</time></trkpt><trkpt lat="43.132105502241885" lon="12.946797858880327"><ele>624.0</ele><time>2026-04-18T10:24:23Z</time></trkpt><trkpt lat="43.13222193532804" lon="12.94679188190113"><ele>624.0</ele><time>2026-04-18T10:24:25Z</time></trkpt><trkpt lat="43.13232491461785" lon="12.946785804998282"><ele>624.0</ele><time>2026-04-18T10:24:27Z</time></trkpt><trkpt lat="43.132399459096156" lon="12.946787755967035"><ele>624.0</ele><time>2026-04-18T10:24:29Z</time></trkpt><trkpt lat="43.13247591414851" lon="12.946758155213148"><ele>624.0</ele><time>2026-04-18T10:24:31Z</time></trkpt><trkpt lat="43.132560543055575" lon="12.946725361427513"><ele>625.1666666666666</ele><time>2026-04-18T10:24:33Z</time></trkpt><trkpt lat="43.13267673901541" lon="12.946732538249508"><ele>626.3333333333334</ele><time>2026-04-18T10:24:35Z</time></trkpt><trkpt lat="43.13275998108299" lon="12.94674946275777"><ele>627.5</ele><time>2026-04-18T10:24:37Z</time></trkpt><trkpt lat="43.132823348399576" lon="12.946767140385095"><ele>628.6666666666667</ele><time>2026-04-18T10:24:39Z</time></trkpt><trkpt lat="43.13290045283015" lon="12.946802401060069"><ele>629.8333333333334</ele><time>2026-04-18T10:24:41Z</time></trkpt><trkpt lat="43.132961829989014" lon="12.946850382190476"><ele>631.0</ele><time>2026-04-18T10:24:44Z</time></trkpt><trkpt lat="43.13302740502067" lon="12.946952705036148"><ele>631.0</ele><time>2026-04-18T10:24:46Z</time></trkpt><trkpt lat="43.13306367120255" lon="12.947024640242002"><ele>631.0</ele><time>2026-04-18T10:24:47Z</time></trkpt><trkpt lat="43.13315922599446" lon="12.947082921088759"><ele>631.0</ele><time>2026-04-18T10:24:49Z</time></trkpt><trkpt lat="43.13324184102493" lon="12.947168864434168"><ele>631.0</ele><time>2026-04-18T10:24:51Z</time></trkpt><trkpt lat="43.133365851764495" lon="12.947221617135572"><ele>631.0</ele><time>2026-04-18T10:24:53Z</time></trkpt><trkpt lat="43.133452326942376" lon="12.947248670719476"><ele>633.6666666666667</ele><time>2026-04-18T10:24:54Z</time></trkpt><trkpt lat="43.133526340936996" lon="12.947284186332285"><ele>636.3333333333334</ele><time>2026-04-18T10:24:55Z</time></trkpt><trkpt lat="43.13359450190862" lon="12.947316396165933"><ele>639.0</ele><time>2026-04-18T10:24:56Z</time></trkpt><trkpt lat="43.133661426854864" lon="12.947342851877366"><ele>641.6666666666666</ele><time>2026-04-18T10:24:57Z</time></trkpt><trkpt lat="43.13374261156965" lon="12.947368993576493"><ele>644.3333333333333</ele><time>2026-04-18T10:24:58Z</time></trkpt><trkpt lat="43.133819596087214" lon="12.947414067421667"><ele>647.0</ele><time>2026-04-18T10:24:59Z</time></trkpt><trkpt lat="43.133928253751485" lon="12.947475062270346"><ele>647.0</ele><time>2026-04-18T10:25:01Z</time></trkpt><trkpt lat="43.13399575520234" lon="12.947505202127934"><ele>647.0</ele><time>2026-04-18T10:25:02Z</time></trkpt><trkpt lat="43.134101068298925" lon="12.947557660181836"><ele>647.0</ele><time>2026-04-18T10:25:03Z</time></trkpt><trkpt lat="43.1342051517632" lon="12.947608061408564"><ele>647.0</ele><time>2026-04-18T10:25:04Z</time></trkpt><trkpt lat="43.134304271543876" lon="12.947650229399823"><ele>647.0</ele><time>2026-04-18T10:25:05Z</time></trkpt><trkpt lat="43.134387305031254" lon="12.94768516092083"><ele>645.5</ele><time>2026-04-18T10:25:06Z</time></trkpt><trkpt lat="43.134467441290155" lon="12.9477306371284"><ele>644.0</ele><time>2026-04-18T10:25:07Z</time></trkpt><trkpt lat="43.13455044681091" lon="12.947765254222313"><ele>642.5</ele><time>2026-04-18T10:25:08Z</time></trkpt><trkpt lat="43.13463532825732" lon="12.947785117286575"><ele>641.0</ele><time>2026-04-18T10:25:09Z</time></trkpt><trkpt lat="43.134715945117875" lon="12.947794789771368"><ele>639.5</ele><time>2026-04-18T10:25:10Z</time></trkpt><trkpt lat="43.134795001445305" lon="12.947813712219968"><ele>638.0</ele><time>2026-04-18T10:25:11Z</time></trkpt><trkpt lat="43.13486598706497" lon="12.947833111108892"><ele>641.0</ele><time>2026-04-18T10:25:12Z</time></trkpt><trkpt lat="43.13493244628915" lon="12.947858960732207"><ele>644.0</ele><time>2026-04-18T10:25:13Z</time></trkpt><trkpt lat="43.134997780908876" lon="12.94789085606849"><ele>647.0</ele><time>2026-04-18T10:25:14Z</time></trkpt><trkpt lat="43.135103766352834" lon="12.947931146479771"><ele>650.0</ele><time>2026-04-18T10:25:16Z</time></trkpt><trkpt lat="43.13520604555515" lon="12.947953358510214"><ele>653.0</ele><time>2026-04-18T10:25:18Z</time></trkpt><trkpt lat="43.135311885145555" lon="12.94799377889565"><ele>653.0</ele><time>2026-04-18T10:25:20Z</time></trkpt><trkpt lat="43.13542205884794" lon="12.948024467819165"><ele>653.0</ele><time>2026-04-18T10:25:22Z</time></trkpt><trkpt lat="43.13550929509673" lon="12.948079028937318"><ele>653.0</ele><time>2026-04-18T10:25:24Z</time></trkpt><trkpt lat="43.13562114012058" lon="12.948106122236492"><ele>653.0</ele><time>2026-04-18T10:25:26Z</time></trkpt><trkpt lat="43.13572315808191" lon="12.94813376792442"><ele>653.0</ele><time>2026-04-18T10:25:28Z</time></trkpt><trkpt lat="43.13582294920663" lon="12.948151836354379"><ele>652.2</ele><time>2026-04-18T10:25:30Z</time></trkpt><trkpt lat="43.13591261788516" lon="12.94821955379803"><ele>651.4</ele><time>2026-04-18T10:25:32Z</time></trkpt><trkpt lat="43.13601801625592" lon="12.948213627132326"><ele>650.6</ele><time>2026-04-18T10:25:34Z</time></trkpt><trkpt lat="43.13612248581676" lon="12.948215043208704"><ele>649.8000000000001</ele><time>2026-04-18T10:25:36Z</time></trkpt><trkpt lat="43.13620419007285" lon="12.948254358922886"><ele>649.0</ele><time>2026-04-18T10:25:38Z</time></trkpt><trkpt lat="43.13626719513681" lon="12.948326549919466"><ele>649.0</ele><time>2026-04-18T10:25:40Z</time></trkpt><trkpt lat="43.13637176406715" lon="12.948332891271091"><ele>649.0</ele><time>2026-04-18T10:25:42Z</time></trkpt><trkpt lat="43.13644070385936" lon="12.948359096417585"><ele>649.0</ele><time>2026-04-18T10:25:43Z</time></trkpt><trkpt lat="43.13650490592032" lon="12.948385426502435"><ele>649.0</ele><time>2026-04-18T10:25:44Z</time></trkpt><trkpt lat="43.13657087821139" lon="12.948411552242224"><ele>649.0</ele><time>2026-04-18T10:25:45Z</time></trkpt><trkpt lat="43.136633028896654" lon="12.948450730799859"><ele>649.0</ele><time>2026-04-18T10:25:46Z</time></trkpt><trkpt lat="43.13670135476085" lon="12.948478992945"><ele>640.8000000000001</ele><time>2026-04-18T10:25:47Z</time></trkpt><trkpt lat="43.13681928991592" lon="12.948505101225418"><ele>632.6</ele><time>2026-04-18T10:25:49Z</time></trkpt><trkpt lat="43.13690717197804" lon="12.948548833617902"><ele>624.4</ele><time>2026-04-18T10:25:51Z</time></trkpt><trkpt lat="43.136963793973386" lon="12.948637163298969"><ele>616.2</ele><time>2026-04-18T10:25:54Z</time></trkpt><trkpt lat="43.13703899121033" lon="12.948673238571653"><ele>608.0</ele><time>2026-04-18T10:25:56Z</time></trkpt><trkpt lat="43.13712970351104" lon="12.948727323219538"><ele>608.0</ele><time>2026-04-18T10:25:59Z</time></trkpt><trkpt lat="43.13721274670241" lon="12.948747310525668"><ele>608.0</ele><time>2026-04-18T10:26:01Z</time></trkpt><trkpt lat="43.13728213763923" lon="12.948780511113696"><ele>608.0</ele><time>2026-04-18T10:26:04Z</time></trkpt><trkpt lat="43.137365048888526" lon="12.948811707469995"><ele>608.0</ele><time>2026-04-18T10:26:06Z</time></trkpt><trkpt lat="43.13747073013538" lon="12.948805889325623"><ele>608.0</ele><time>2026-04-18T10:26:08Z</time></trkpt><trkpt lat="43.13761630034686" lon="12.948813103994523"><ele>609.5</ele><time>2026-04-18T10:26:12Z</time></trkpt><trkpt lat="43.137688698177364" lon="12.948843789984144"><ele>611.0</ele><time>2026-04-18T10:26:14Z</time></trkpt><trkpt lat="43.137894038599754" lon="12.948852397230505"><ele>612.5</ele><time>2026-04-18T10:26:19Z</time></trkpt><trkpt lat="43.137956894642734" lon="12.948872127378507"><ele>614.0</ele><time>2026-04-18T10:26:21Z</time></trkpt><trkpt lat="43.138181755862" lon="12.948883020352547"><ele>612.2</ele><time>2026-04-18T10:26:28Z</time></trkpt><trkpt lat="43.13826099923216" lon="12.948854326156773"><ele>610.4</ele><time>2026-04-18T10:26:31Z</time></trkpt><trkpt lat="43.13833783125816" lon="12.948796490147883"><ele>608.6</ele><time>2026-04-18T10:26:34Z</time></trkpt><trkpt lat="43.13841035487807" lon="12.948745247840737"><ele>606.8</ele><time>2026-04-18T10:26:36Z</time></trkpt><trkpt lat="43.138508936394494" lon="12.948696335457514"><ele>605.0</ele><time>2026-04-18T10:26:38Z</time></trkpt><trkpt lat="43.13862470099995" lon="12.948614823904972"><ele>605.0</ele><time>2026-04-18T10:26:40Z</time></trkpt><trkpt lat="43.13869060413509" lon="12.948573668509543"><ele>605.0</ele><time>2026-04-18T10:26:42Z</time></trkpt><trkpt lat="43.13875696112768" lon="12.948533156599519"><ele>605.0</ele><time>2026-04-18T10:26:44Z</time></trkpt><trkpt lat="43.138827195065396" lon="12.948474527927516"><ele>605.0</ele><time>2026-04-18T10:26:48Z</time></trkpt><trkpt lat="43.13888793143009" lon="12.948444067403061"><ele>605.0</ele><time>2026-04-18T10:26:50Z</time></trkpt><trkpt lat="43.13894936802948" lon="12.948415080178977"><ele>605.0</ele><time>2026-04-18T10:26:52Z</time></trkpt><trkpt lat="43.13909812060027" lon="12.948374360349053"><ele>606.75</ele><time>2026-04-18T10:26:53Z</time></trkpt><trkpt lat="43.13919884745157" lon="12.94835981585578"><ele>608.5</ele><time>2026-04-18T10:26:54Z</time></trkpt><trkpt lat="43.13929000802065" lon="12.948366860990227"><ele>610.25</ele><time>2026-04-18T10:26:55Z</time></trkpt><trkpt lat="43.139523624531456" lon="12.948375993554958"><ele>612.0</ele><time>2026-04-18T10:26:57Z</time></trkpt><trkpt lat="43.13961093772274" lon="12.948370165960675"><ele>612.0</ele><time>2026-04-18T10:26:59Z</time></trkpt><trkpt lat="43.13969987660835" lon="12.948362988856035"><ele>612.0</ele><time>2026-04-18T10:27:01Z</time></trkpt><trkpt lat="43.13978586518757" lon="12.948338428533917"><ele>612.0</ele><time>2026-04-18T10:27:04Z</time></trkpt><trkpt lat="43.13986303079489" lon="12.948316320902416"><ele>612.0</ele><time>2026-04-18T10:27:08Z</time></trkpt><trkpt lat="43.139935303398374" lon="12.948288856890997"><ele>612.0</ele><time>2026-04-18T10:27:12Z</time></trkpt><trkpt lat="43.140113024366606" lon="12.948242587448725"><ele>606.1666666666666</ele><time>2026-04-18T10:27:30Z</time></trkpt><trkpt lat="43.14018064316019" lon="12.94821447543907"><ele>600.3333333333334</ele><time>2026-04-18T10:27:33Z</time></trkpt><trkpt lat="43.140242351114956" lon="12.948149902819404"><ele>594.5</ele><time>2026-04-18T10:27:52Z</time></trkpt><trkpt lat="43.140318391560385" lon="12.948129510082307"><ele>588.6666666666667</ele><time>2026-04-18T10:27:55Z</time></trkpt><trkpt lat="43.14039543709875" lon="12.948114098211098"><ele>582.8333333333334</ele><time>2026-04-18T10:27:57Z</time></trkpt><trkpt lat="43.14048340149137" lon="12.94809315699584"><ele>577.0</ele><time>2026-04-18T10:28:00Z</time></trkpt><trkpt lat="43.14055996430394" lon="12.948046294291053"><ele>577.0</ele><time>2026-04-18T10:28:03Z</time></trkpt><trkpt lat="43.140658383235355" lon="12.948027290744553"><ele>577.0</ele><time>2026-04-18T10:28:06Z</time></trkpt><trkpt lat="43.14075813478288" lon="12.948043675843234"><ele>577.0</ele><time>2026-04-18T10:28:08Z</time></trkpt><trkpt lat="43.140829855027135" lon="12.948057806177264"><ele>577.0</ele><time>2026-04-18T10:28:09Z</time></trkpt><trkpt lat="43.14094111630868" lon="12.948087765419086"><ele>577.0</ele><time>2026-04-18T10:28:11Z</time></trkpt><trkpt lat="43.141078565843536" lon="12.9481187998107"><ele>571.75</ele><time>2026-04-18T10:28:13Z</time></trkpt><trkpt lat="43.14122322770562" lon="12.948127703562406"><ele>566.5</ele><time>2026-04-18T10:28:15Z</time></trkpt><trkpt lat="43.141387545917254" lon="12.948165980329659"><ele>561.25</ele><time>2026-04-18T10:28:18Z</time></trkpt><trkpt lat="43.14146810339411" lon="12.948195640614257"><ele>556.0</ele><time>2026-04-18T10:28:20Z</time></trkpt><trkpt lat="43.141537254397214" lon="12.948209466769722"><ele>555.0</ele><time>2026-04-18T10:28:21Z</time></trkpt><trkpt lat="43.141654436448036" lon="12.948215845109383"><ele>554.0</ele><time>2026-04-18T10:28:23Z</time></trkpt><trkpt lat="43.14171835779574" lon="12.94820716769436"><ele>553.0</ele><time>2026-04-18T10:28:24Z</time></trkpt><trkpt lat="43.14178384514163" lon="12.948201833637993"><ele>552.0</ele><time>2026-04-18T10:28:25Z</time></trkpt><trkpt lat="43.141891959045566" lon="12.948157017954424"><ele>551.0</ele><time>2026-04-18T10:28:27Z</time></trkpt><trkpt lat="43.14201118670991" lon="12.948167164556619"><ele>551.0</ele><time>2026-04-18T10:28:29Z</time></trkpt><trkpt lat="43.14208016977051" lon="12.948167714209875"><ele>551.0</ele><time>2026-04-18T10:28:30Z</time></trkpt><trkpt lat="43.14214749064041" lon="12.948155228200884"><ele>551.0</ele><time>2026-04-18T10:28:31Z</time></trkpt><trkpt lat="43.14227388267614" lon="12.948168262951334"><ele>551.0</ele><time>2026-04-18T10:28:34Z</time></trkpt><trkpt lat="43.14234507482727" lon="12.948179744548055"><ele>551.0</ele><time>2026-04-18T10:28:36Z</time></trkpt><trkpt lat="43.14243059406048" lon="12.94821992780503"><ele>551.0</ele><time>2026-04-18T10:28:38Z</time></trkpt><trkpt lat="43.14251693055128" lon="12.948239499982739"><ele>549.6</ele><time>2026-04-18T10:28:40Z</time></trkpt><trkpt lat="43.14264011391632" lon="12.9482484954123"><ele>548.2</ele><time>2026-04-18T10:28:42Z</time></trkpt><trkpt lat="43.142722204829205" lon="12.948237488025763"><ele>546.8</ele><time>2026-04-18T10:28:44Z</time></trkpt><trkpt lat="43.142802174832084" lon="12.94819478232317"><ele>545.4</ele><time>2026-04-18T10:28:46Z</time></trkpt><trkpt lat="43.14287989023034" lon="12.94816207046224"><ele>544.0</ele><time>2026-04-18T10:28:48Z</time></trkpt><trkpt lat="43.142997702159334" lon="12.948126988740741"><ele>544.0</ele><time>2026-04-18T10:28:50Z</time></trkpt><trkpt lat="43.14309765575719" lon="12.948095804178758"><ele>544.0</ele><time>2026-04-18T10:28:52Z</time></trkpt><trkpt lat="43.14319898389692" lon="12.948095940961919"><ele>544.0</ele><time>2026-04-18T10:28:54Z</time></trkpt><trkpt lat="43.14342625272582" lon="12.948145435121283"><ele>544.0</ele><time>2026-04-18T10:29:00Z</time></trkpt><trkpt lat="43.143503871345665" lon="12.948232248355241"><ele>542.1666666666667</ele><time>2026-04-18T10:29:02Z</time></trkpt><trkpt lat="43.14360456561732" lon="12.948272552240136"><ele>540.3333333333334</ele><time>2026-04-18T10:29:04Z</time></trkpt><trkpt lat="43.14368530376202" lon="12.948320580514403"><ele>538.5</ele><time>2026-04-18T10:29:06Z</time></trkpt><trkpt lat="43.14375771541151" lon="12.948363897022999"><ele>536.6666666666666</ele><time>2026-04-18T10:29:08Z</time></trkpt><trkpt lat="43.14383501761297" lon="12.948408241622266"><ele>534.8333333333333</ele><time>2026-04-18T10:29:11Z</time></trkpt><trkpt lat="43.143856796731264" lon="12.948528271165394"><ele>533.0</ele><time>2026-04-18T10:29:12Z</time></trkpt><trkpt lat="43.143963126853" lon="12.948544692537808"><ele>528.1999999999999</ele><time>2026-04-18T10:29:14Z</time></trkpt><trkpt lat="43.14407177732931" lon="12.948580636151878"><ele>523.4</ele><time>2026-04-18T10:29:16Z</time></trkpt><trkpt lat="43.144140650526445" lon="12.948646079381808"><ele>518.5999999999999</ele><time>2026-04-18T10:29:18Z</time></trkpt><trkpt lat="43.144225896252166" lon="12.948698150546859"><ele>513.8</ele><time>2026-04-18T10:29:21Z</time></trkpt><trkpt lat="43.14430799536241" lon="12.94874515852513"><ele>509.0</ele><time>2026-04-18T10:29:26Z</time></trkpt><trkpt lat="43.1444096953044" lon="12.94879276227391"><ele>508.99999999999994</ele><time>2026-04-18T10:29:28Z</time></trkpt><trkpt lat="43.14447386012375" lon="12.948835179303382"><ele>509.0</ele><time>2026-04-18T10:29:30Z</time></trkpt><trkpt lat="43.144547310235254" lon="12.948839804020611"><ele>509.0</ele><time>2026-04-18T10:29:34Z</time></trkpt><trkpt lat="43.144567033947325" lon="12.94896639301239"><ele>509.0</ele><time>2026-04-18T10:29:37Z</time></trkpt><trkpt lat="43.14461554476012" lon="12.9490370876838"><ele>508.99999999999994</ele><time>2026-04-18T10:29:39Z</time></trkpt><trkpt lat="43.14467661387097" lon="12.949075695693836"><ele>509.0</ele><time>2026-04-18T10:29:41Z</time></trkpt><trkpt lat="43.14475029009321" lon="12.949017077831945"><ele>509.0</ele><time>2026-04-18T10:29:43Z</time></trkpt><trkpt lat="43.14485868875366" lon="12.948877436323047"><ele>509.0</ele><time>2026-04-18T10:29:45Z</time></trkpt><trkpt lat="43.14490749041822" lon="12.948799762352033"><ele>509.0</ele><time>2026-04-18T10:29:46Z</time></trkpt><trkpt lat="43.145048903661404" lon="12.948914791061869"><ele>509.0</ele><time>2026-04-18T10:29:47Z</time></trkpt><trkpt lat="43.14516056526763" lon="12.94879255163206"><ele>508.49999999999994</ele><time>2026-04-18T10:29:49Z</time></trkpt><trkpt lat="43.145250731128684" lon="12.948680776881508"><ele>508.0</ele><time>2026-04-18T10:29:51Z</time></trkpt><trkpt lat="43.145352294323125" lon="12.948631655821725"><ele>507.5</ele><time>2026-04-18T10:29:53Z</time></trkpt><trkpt lat="43.145428333661826" lon="12.948609599159255"><ele>507.0</ele><time>2026-04-18T10:29:54Z</time></trkpt><trkpt lat="43.14549838898493" lon="12.94858927827433"><ele>506.49999999999994</ele><time>2026-04-18T10:29:55Z</time></trkpt><trkpt lat="43.14556659074895" lon="12.948573659412558"><ele>506.0</ele><time>2026-04-18T10:29:56Z</time></trkpt><trkpt lat="43.14563045952751" lon="12.94856483588939"><ele>506.0</ele><time>2026-04-18T10:29:57Z</time></trkpt><trkpt lat="43.14570860496524" lon="12.948578478532093"><ele>506.0</ele><time>2026-04-18T10:29:58Z</time></trkpt><trkpt lat="43.145777709542706" lon="12.948602507478068"><ele>506.0</ele><time>2026-04-18T10:29:59Z</time></trkpt><trkpt lat="43.14585216497282" lon="12.948654452493663"><ele>506.0</ele><time>2026-04-18T10:30:01Z</time></trkpt><trkpt lat="43.14595113741728" lon="12.94873611739073"><ele>506.0</ele><time>2026-04-18T10:30:03Z</time></trkpt><trkpt lat="43.14605770272823" lon="12.948772208486012"><ele>505.25</ele><time>2026-04-18T10:30:05Z</time></trkpt><trkpt lat="43.14616723666392" lon="12.948836048694684"><ele>504.5</ele><time>2026-04-18T10:30:07Z</time></trkpt><trkpt lat="43.146254650149196" lon="12.948899352135832"><ele>503.75</ele><time>2026-04-18T10:30:09Z</time></trkpt><trkpt lat="43.14643142116335" lon="12.948903022305215"><ele>503.0</ele><time>2026-04-18T10:30:12Z</time></trkpt><trkpt lat="43.146410439648605" lon="12.94872907714275"><ele>502.99999999999994</ele><time>2026-04-18T10:30:15Z</time></trkpt><trkpt lat="43.146457899968986" lon="12.94865217109274"><ele>503.0</ele><time>2026-04-18T10:30:17Z</time></trkpt><trkpt lat="43.1464577847972" lon="12.948532953933046"><ele>503.0</ele><time>2026-04-18T10:30:19Z</time></trkpt><trkpt lat="43.14650972987621" lon="12.948397672001818"><ele>503.0</ele><time>2026-04-18T10:30:21Z</time></trkpt><trkpt lat="43.14651285260358" lon="12.948303209059272"><ele>502.99999999999994</ele><time>2026-04-18T10:30:22Z</time></trkpt><trkpt lat="43.146548147125635" lon="12.948219999297507"><ele>503.0</ele><time>2026-04-18T10:30:23Z</time></trkpt><trkpt lat="43.14659518699652" lon="12.94812986995764"><ele>503.99999999999994</ele><time>2026-04-18T10:30:24Z</time></trkpt><trkpt lat="43.14663410641364" lon="12.948033420474882"><ele>505.0</ele><time>2026-04-18T10:30:25Z</time></trkpt><trkpt lat="43.14668036565714" lon="12.947932265465088"><ele>506.0</ele><time>2026-04-18T10:30:26Z</time></trkpt><trkpt lat="43.14674016071816" lon="12.947854231625152"><ele>507.0</ele><time>2026-04-18T10:30:27Z</time></trkpt><trkpt lat="43.14680300898463" lon="12.947805854813367"><ele>507.99999999999994</ele><time>2026-04-18T10:30:28Z</time></trkpt><trkpt lat="43.14682576096955" lon="12.9477126521052"><ele>509.0</ele><time>2026-04-18T10:30:29Z</time></trkpt><trkpt lat="43.14687677626685" lon="12.947655981436116"><ele>509.0</ele><time>2026-04-18T10:30:30Z</time></trkpt><trkpt lat="43.146937823031585" lon="12.947615049130043"><ele>509.0</ele><time>2026-04-18T10:30:32Z</time></trkpt><trkpt lat="43.14709352466058" lon="12.947658094704625"><ele>509.0</ele><time>2026-04-18T10:30:34Z</time></trkpt><trkpt lat="43.14714315212068" lon="12.947725789333683"><ele>509.0</ele><time>2026-04-18T10:30:35Z</time></trkpt><trkpt lat="43.147203835341244" lon="12.947810017795744"><ele>509.0</ele><time>2026-04-18T10:30:36Z</time></trkpt><trkpt lat="43.14728190845725" lon="12.947919232146493"><ele>508.99999999999994</ele><time>2026-04-18T10:30:37Z</time></trkpt><trkpt lat="43.14735383381628" lon="12.948023113550775"><ele>509.0</ele><time>2026-04-18T10:30:38Z</time></trkpt><trkpt lat="43.14740738962922" lon="12.948125599186133"><ele>509.0</ele><time>2026-04-18T10:30:39Z</time></trkpt><trkpt lat="43.147459683168314" lon="12.948188799161514"><ele>509.0</ele><time>2026-04-18T10:30:40Z</time></trkpt><trkpt lat="43.14750831747747" lon="12.948258975568908"><ele>508.99999999999994</ele><time>2026-04-18T10:30:41Z</time></trkpt><trkpt lat="43.14756175215741" lon="12.948329315405733"><ele>509.0</ele><time>2026-04-18T10:30:42Z</time></trkpt><trkpt lat="43.14761920037938" lon="12.948384566013052"><ele>509.6</ele><time>2026-04-18T10:30:43Z</time></trkpt><trkpt lat="43.14771301806355" lon="12.948468704615369"><ele>510.2</ele><time>2026-04-18T10:30:45Z</time></trkpt><trkpt lat="43.14777768904947" lon="12.94853576930641"><ele>510.80000000000007</ele><time>2026-04-18T10:30:48Z</time></trkpt><trkpt lat="43.14786996592909" lon="12.948658190446734"><ele>511.40000000000003</ele><time>2026-04-18T10:31:18Z</time></trkpt><trkpt lat="43.147967437159146" lon="12.948557475159365"><ele>512.0</ele><time>2026-04-18T10:31:20Z</time></trkpt><trkpt lat="43.14802336871754" lon="12.948499863314785"><ele>512.0</ele><time>2026-04-18T10:31:21Z</time></trkpt><trkpt lat="43.14805489584445" lon="12.948418230301202"><ele>511.99999999999994</ele><time>2026-04-18T10:31:22Z</time></trkpt><trkpt lat="43.148109728266654" lon="12.948355071408242"><ele>512.0</ele><time>2026-04-18T10:31:23Z</time></trkpt><trkpt lat="43.148163130848445" lon="12.948280140797559"><ele>512.0</ele><time>2026-04-18T10:31:24Z</time></trkpt><trkpt lat="43.14821162628174" lon="12.948205039534262"><ele>511.99999999999994</ele><time>2026-04-18T10:31:25Z</time></trkpt><trkpt lat="43.14825974223691" lon="12.948139085599852"><ele>512.0</ele><time>2026-04-18T10:31:26Z</time></trkpt><trkpt lat="43.148313646002286" lon="12.948069465990248"><ele>512.0</ele><time>2026-04-18T10:31:27Z</time></trkpt><trkpt lat="43.148363120259276" lon="12.948008874629096"><ele>513.8333333333333</ele><time>2026-04-18T10:31:28Z</time></trkpt><trkpt lat="43.14841468369413" lon="12.947943719767501"><ele>515.6666666666666</ele><time>2026-04-18T10:31:29Z</time></trkpt><trkpt lat="43.148472460004996" lon="12.947871764993504"><ele>517.5</ele><time>2026-04-18T10:31:30Z</time></trkpt><trkpt lat="43.14852871380571" lon="12.94779961369199"><ele>519.3333333333334</ele><time>2026-04-18T10:31:31Z</time></trkpt><trkpt lat="43.14858068432784" lon="12.947725939015372"><ele>521.1666666666667</ele><time>2026-04-18T10:31:32Z</time></trkpt><trkpt lat="43.14862777426105" lon="12.947658560651675"><ele>523.0</ele><time>2026-04-18T10:31:33Z</time></trkpt><trkpt lat="43.14869602861619" lon="12.947550413846159"><ele>523.0</ele><time>2026-04-18T10:31:35Z</time></trkpt><trkpt lat="43.148754532809264" lon="12.94771435533732"><ele>523.0</ele><time>2026-04-18T10:31:39Z</time></trkpt><trkpt lat="43.1487563399529" lon="12.947803942378277"><ele>523.0</ele><time>2026-04-18T10:31:40Z</time></trkpt><trkpt lat="43.1487414275623" lon="12.947963502715016"><ele>523.0</ele><time>2026-04-18T10:31:42Z</time></trkpt><trkpt lat="43.14870589454088" lon="12.948060095707698"><ele>523.0</ele><time>2026-04-18T10:31:43Z</time></trkpt><trkpt lat="43.14868335149647" lon="12.948156127004882"><ele>523.0</ele><time>2026-04-18T10:31:44Z</time></trkpt><trkpt lat="43.14866233847785" lon="12.948246616072947"><ele>523.0</ele><time>2026-04-18T10:31:45Z</time></trkpt><trkpt lat="43.1486330400898" lon="12.94836488027729"><ele>523.0</ele><time>2026-04-18T10:31:48Z</time></trkpt><trkpt lat="43.14844823100955" lon="12.948371285700981"><ele>523.0</ele><time>2026-04-18T10:31:50Z</time></trkpt><trkpt lat="43.14854987646928" lon="12.94840840211531"><ele>523.8</ele><time>2026-04-18T10:31:53Z</time></trkpt><trkpt lat="43.1486184471591" lon="12.94846317814824"><ele>524.5999999999999</ele><time>2026-04-18T10:31:55Z</time></trkpt><trkpt lat="43.14864962456426" lon="12.948540180296172"><ele>525.4000000000001</ele><time>2026-04-18T10:31:56Z</time></trkpt><trkpt lat="43.14872532343741" lon="12.948598164114737"><ele>526.2</ele><time>2026-04-18T10:31:57Z</time></trkpt><trkpt lat="43.14885971778686" lon="12.948627086583523"><ele>527.0</ele><time>2026-04-18T10:31:58Z</time></trkpt><trkpt lat="43.14898656461799" lon="12.94866971838224"><ele>531.8000000000001</ele><time>2026-04-18T10:31:59Z</time></trkpt><trkpt lat="43.14908321118124" lon="12.948763649179334"><ele>536.6</ele><time>2026-04-18T10:32:00Z</time></trkpt><trkpt lat="43.149169135288524" lon="12.948845284457274"><ele>541.4000000000001</ele><time>2026-04-18T10:32:01Z</time></trkpt><trkpt lat="43.14924984963502" lon="12.948915151572335"><ele>546.2</ele><time>2026-04-18T10:32:02Z</time></trkpt><trkpt lat="43.149352141683885" lon="12.948950651229058"><ele>551.0</ele><time>2026-04-18T10:32:03Z</time></trkpt><trkpt lat="43.14943956444481" lon="12.948993150707093"><ele>551.0</ele><time>2026-04-18T10:32:04Z</time></trkpt><trkpt lat="43.149524336631515" lon="12.949030769280734"><ele>551.0</ele><time>2026-04-18T10:32:05Z</time></trkpt><trkpt lat="43.14960986565626" lon="12.949079094975248"><ele>551.0</ele><time>2026-04-18T10:32:06Z</time></trkpt><trkpt lat="43.149718438087795" lon="12.949144038344825"><ele>551.0</ele><time>2026-04-18T10:32:07Z</time></trkpt><trkpt lat="43.14980989663096" lon="12.949203542668068"><ele>551.0</ele><time>2026-04-18T10:32:08Z</time></trkpt><trkpt lat="43.149898410619905" lon="12.949239723794799"><ele>547.8333333333333</ele><time>2026-04-18T10:32:09Z</time></trkpt><trkpt lat="43.14998244606673" lon="12.949267906840827"><ele>544.6666666666666</ele><time>2026-04-18T10:32:10Z</time></trkpt><trkpt lat="43.15004844323518" lon="12.9492741717117"><ele>541.5</ele><time>2026-04-18T10:32:11Z</time></trkpt><trkpt lat="43.1501644806936" lon="12.949213030066742"><ele>538.3333333333334</ele><time>2026-04-18T10:32:13Z</time></trkpt><trkpt lat="43.150240631640536" lon="12.94917765945409"><ele>535.1666666666667</ele><time>2026-04-18T10:32:14Z</time></trkpt><trkpt lat="43.150318918917684" lon="12.94913024998925"><ele>532.0</ele><time>2026-04-18T10:32:15Z</time></trkpt><trkpt lat="43.15042945126671" lon="12.949086194671654"><ele>538.3333333333334</ele><time>2026-04-18T10:32:17Z</time></trkpt><trkpt lat="43.150510382960924" lon="12.949063683836496"><ele>544.6666666666667</ele><time>2026-04-18T10:32:18Z</time></trkpt><trkpt lat="43.15060798495127" lon="12.94902365833358"><ele>551.0</ele><time>2026-04-18T10:32:19Z</time></trkpt><trkpt lat="43.150684750369116" lon="12.94900469419132"><ele>557.3333333333334</ele><time>2026-04-18T10:32:20Z</time></trkpt><trkpt lat="43.15075121991662" lon="12.948979540063048"><ele>563.6666666666666</ele><time>2026-04-18T10:32:21Z</time></trkpt><trkpt lat="43.15085954905951" lon="12.948958040485058"><ele>570.0</ele><time>2026-04-18T10:32:23Z</time></trkpt><trkpt lat="43.15097111374021" lon="12.948936774673594"><ele>570.4</ele><time>2026-04-18T10:32:25Z</time></trkpt><trkpt lat="43.15105971094907" lon="12.948940337728152"><ele>570.8</ele><time>2026-04-18T10:32:27Z</time></trkpt><trkpt lat="43.151130723057854" lon="12.948942890303604"><ele>571.2</ele><time>2026-04-18T10:32:28Z</time></trkpt><trkpt lat="43.15121328203083" lon="12.948973893490654"><ele>571.6</ele><time>2026-04-18T10:32:30Z</time></trkpt><trkpt lat="43.15127151041835" lon="12.94903173574128"><ele>572.0</ele><time>2026-04-18T10:32:32Z</time></trkpt><trkpt lat="43.151386655054836" lon="12.949129474320337"><ele>570.0</ele><time>2026-04-18T10:32:34Z</time></trkpt><trkpt lat="43.15154108636344" lon="12.949181177227977"><ele>568.0</ele><time>2026-04-18T10:32:37Z</time></trkpt><trkpt lat="43.15160512448428" lon="12.9492059918672"><ele>566.0</ele><time>2026-04-18T10:32:38Z</time></trkpt><trkpt lat="43.15167970768352" lon="12.949220071352165"><ele>564.0</ele><time>2026-04-18T10:32:39Z</time></trkpt><trkpt lat="43.15193217736183" lon="12.94922828327059"><ele>564.0</ele><time>2026-04-18T10:32:41.999Z</time></trkpt><trkpt lat="43.15201100095763" lon="12.949225791985773"><ele>564.0</ele><time>2026-04-18T10:32:42.999Z</time></trkpt><trkpt lat="43.15208910515891" lon="12.949210177562676"><ele>564.0</ele><time>2026-04-18T10:32:43.999Z</time></trkpt><trkpt lat="43.15215985566087" lon="12.949202499233461"><ele>564.0</ele><time>2026-04-18T10:32:44.999Z</time></trkpt><trkpt lat="43.152227975297144" lon="12.949203652675973"><ele>564.0</ele><time>2026-04-18T10:32:45.999Z</time></trkpt><trkpt lat="43.152308526818906" lon="12.949230878665917"><ele>564.0</ele><time>2026-04-18T10:32:46.999Z</time></trkpt><trkpt lat="43.15241745533111" lon="12.949256126497643"><ele>572.6</ele><time>2026-04-18T10:32:48.999Z</time></trkpt><trkpt lat="43.15250514564366" lon="12.949251290600133"><ele>581.2</ele><time>2026-04-18T10:32:50.999Z</time></trkpt><trkpt lat="43.15258215318298" lon="12.949281492721944"><ele>589.8000000000001</ele><time>2026-04-18T10:32:52.999Z</time></trkpt><trkpt lat="43.152679485686804" lon="12.949352343401069"><ele>598.4</ele><time>2026-04-18T10:32:54.999Z</time></trkpt><trkpt lat="43.15277589955362" lon="12.949380917312201"><ele>607.0</ele><time>2026-04-18T10:32:56.999Z</time></trkpt><trkpt lat="43.15297216348418" lon="12.949381551483402"><ele>607.0</ele><time>2026-04-18T10:33:01.999Z</time></trkpt><trkpt lat="43.153058991228335" lon="12.949347671670651"><ele>607.0</ele><time>2026-04-18T10:33:03.999Z</time></trkpt><trkpt lat="43.153261841855986" lon="12.949393799931585"><ele>607.0</ele><time>2026-04-18T10:33:07.999Z</time></trkpt><trkpt lat="43.15336935606201" lon="12.949345135388471"><ele>607.0</ele><time>2026-04-18T10:33:09.999Z</time></trkpt><trkpt lat="43.15345373479872" lon="12.94931448328545"><ele>614.0</ele><time>2026-04-18T10:33:11.999Z</time></trkpt><trkpt lat="43.15350534099639" lon="12.949239943635577"><ele>621.0</ele><time>2026-04-18T10:33:13.999Z</time></trkpt><trkpt lat="43.15355787674074" lon="12.949135310644047"><ele>628.0</ele><time>2026-04-18T10:33:17.999Z</time></trkpt><trkpt lat="43.15364488144709" lon="12.949046573142741"><ele>635.0</ele><time>2026-04-18T10:33:19.999Z</time></trkpt><trkpt lat="43.153832969383444" lon="12.948917320467903"><ele>635.0</ele><time>2026-04-18T10:33:23.999Z</time></trkpt><trkpt lat="43.15385965219093" lon="12.948835211619297"><ele>635.0</ele><time>2026-04-18T10:33:24.999Z</time></trkpt><trkpt lat="43.15385806830544" lon="12.948693877826086"><ele>635.0</ele><time>2026-04-18T10:33:26.999Z</time></trkpt><trkpt lat="43.15384885570949" lon="12.948564503882041"><ele>635.0</ele><time>2026-04-18T10:33:28.999Z</time></trkpt><trkpt lat="43.15385231818444" lon="12.948457563422007"><ele>635.0</ele><time>2026-04-18T10:33:30.999Z</time></trkpt><trkpt lat="43.15396898698883" lon="12.948383648746047"><ele>641.4</ele><time>2026-04-18T10:33:37.999Z</time></trkpt><trkpt lat="43.15402979394611" lon="12.948131799624434"><ele>647.8</ele><time>2026-04-18T10:33:41.999Z</time></trkpt><trkpt lat="43.154006185374925" lon="12.948026500002618"><ele>654.2</ele><time>2026-04-18T10:33:43.999Z</time></trkpt><trkpt lat="43.15397963947783" lon="12.947918737905303"><ele>660.6</ele><time>2026-04-18T10:33:45.999Z</time></trkpt><trkpt lat="43.15399761639349" lon="12.947821870014248"><ele>667.0</ele><time>2026-04-18T10:33:48.999Z</time></trkpt><trkpt lat="43.153998678889316" lon="12.947717560727336"><ele>668.8</ele><time>2026-04-18T10:33:50.999Z</time></trkpt><trkpt lat="43.154065800259346" lon="12.947648434360655"><ele>670.6</ele><time>2026-04-18T10:33:53.999Z</time></trkpt><trkpt lat="43.15411574662186" lon="12.947572694617826"><ele>672.4</ele><time>2026-04-18T10:33:54.999Z</time></trkpt><trkpt lat="43.15418138918029" lon="12.947534228507955"><ele>674.1999999999999</ele><time>2026-04-18T10:33:56.999Z</time></trkpt><trkpt lat="43.15426009913772" lon="12.94751551554155"><ele>676.0</ele><time>2026-04-18T10:33:58.999Z</time></trkpt><trkpt lat="43.154577927784146" lon="12.947518012820277"><ele>676.0</ele><time>2026-04-18T10:34:04Z</time></trkpt><trkpt lat="43.15465123129925" lon="12.947551777265446"><ele>676.0</ele><time>2026-04-18T10:34:05Z</time></trkpt><trkpt lat="43.15471192060739" lon="12.947600924953525"><ele>676.0</ele><time>2026-04-18T10:34:06Z</time></trkpt><trkpt lat="43.154797229601" lon="12.947674159962437"><ele>676.0</ele><time>2026-04-18T10:34:07Z</time></trkpt><trkpt lat="43.15487355355262" lon="12.94775067409714"><ele>676.0</ele><time>2026-04-18T10:34:08Z</time></trkpt><trkpt lat="43.154952070055025" lon="12.947833019378297"><ele>676.0</ele><time>2026-04-18T10:34:09Z</time></trkpt><trkpt lat="43.15500442588196" lon="12.947901816158428"><ele>677.4</ele><time>2026-04-18T10:34:10Z</time></trkpt><trkpt lat="43.15504306405365" lon="12.947993008958514"><ele>678.8</ele><time>2026-04-18T10:34:12Z</time></trkpt><trkpt lat="43.15507110345297" lon="12.948155691964963"><ele>680.1999999999999</ele><time>2026-04-18T10:34:17Z</time></trkpt><trkpt lat="43.155108516923214" lon="12.948243112472287"><ele>681.5999999999999</ele><time>2026-04-18T10:34:19Z</time></trkpt><trkpt lat="43.15521800790781" lon="12.948265978668692"><ele>683.0</ele><time>2026-04-18T10:34:21Z</time></trkpt><trkpt lat="43.15528293708728" lon="12.948314488197584"><ele>683.0</ele><time>2026-04-18T10:34:22Z</time></trkpt><trkpt lat="43.15536569126588" lon="12.948334771349378"><ele>683.0</ele><time>2026-04-18T10:34:23Z</time></trkpt><trkpt lat="43.15545398776107" lon="12.948365552738744"><ele>683.0</ele><time>2026-04-18T10:34:24Z</time></trkpt><trkpt lat="43.155540668785676" lon="12.948393016875078"><ele>683.0</ele><time>2026-04-18T10:34:25Z</time></trkpt><trkpt lat="43.155603973969995" lon="12.948456428808514"><ele>683.0</ele><time>2026-04-18T10:34:26Z</time></trkpt><trkpt lat="43.155660134360936" lon="12.948518870400289"><ele>683.0</ele><time>2026-04-18T10:34:27Z</time></trkpt><trkpt lat="43.15572998258794" lon="12.948558369189097"><ele>691.6666666666666</ele><time>2026-04-18T10:34:29Z</time></trkpt><trkpt lat="43.155798502029285" lon="12.948499787681921"><ele>700.3333333333334</ele><time>2026-04-18T10:34:31Z</time></trkpt><trkpt lat="43.15607595028218" lon="12.948462639061608"><ele>709.0</ele><time>2026-04-18T10:34:36Z</time></trkpt><trkpt lat="43.15617234051636" lon="12.948487965112513"><ele>709.0</ele><time>2026-04-18T10:34:38Z</time></trkpt><trkpt lat="43.15628796370549" lon="12.948489485680488"><ele>709.0</ele><time>2026-04-18T10:34:40Z</time></trkpt><trkpt lat="43.15636638815536" lon="12.948494571791368"><ele>709.0</ele><time>2026-04-18T10:34:41Z</time></trkpt><trkpt lat="43.15643752518587" lon="12.948524181449406"><ele>709.0</ele><time>2026-04-18T10:34:42Z</time></trkpt><trkpt lat="43.156524141630015" lon="12.948557854550803"><ele>709.0</ele><time>2026-04-18T10:34:43Z</time></trkpt><trkpt lat="43.15660591747289" lon="12.948586018389042"><ele>709.0</ele><time>2026-04-18T10:34:44Z</time></trkpt><trkpt lat="43.15666938726627" lon="12.948594911959924"><ele>714.75</ele><time>2026-04-18T10:34:45Z</time></trkpt><trkpt lat="43.156781182330405" lon="12.94858088090503"><ele>720.5</ele><time>2026-04-18T10:34:47Z</time></trkpt><trkpt lat="43.156993572143435" lon="12.948575437299356"><ele>726.25</ele><time>2026-04-18T10:34:50Z</time></trkpt><trkpt lat="43.157097617901634" lon="12.94862224134421"><ele>732.0</ele><time>2026-04-18T10:34:52Z</time></trkpt><trkpt lat="43.15717123902899" lon="12.94866426922613"><ele>732.0</ele><time>2026-04-18T10:34:53Z</time></trkpt><trkpt lat="43.15724079159496" lon="12.948718656658974"><ele>732.0</ele><time>2026-04-18T10:34:54Z</time></trkpt><trkpt lat="43.15729028219746" lon="12.948822879973832"><ele>732.0</ele><time>2026-04-18T10:34:55Z</time></trkpt><trkpt lat="43.15732958071969" lon="12.948928084390579"><ele>732.0</ele><time>2026-04-18T10:34:56Z</time></trkpt><trkpt lat="43.15737744810195" lon="12.94905827811462"><ele>732.0</ele><time>2026-04-18T10:34:58Z</time></trkpt><trkpt lat="43.15739371239009" lon="12.949150104144316"><ele>732.0</ele><time>2026-04-18T10:34:59Z</time></trkpt><trkpt lat="43.157432637387274" lon="12.94926452571003"><ele>739.0</ele><time>2026-04-18T10:35:01Z</time></trkpt><trkpt lat="43.15743591482955" lon="12.949411561675344"><ele>746.0</ele><time>2026-04-18T10:35:03Z</time></trkpt><trkpt lat="43.157451872296626" lon="12.949556623948263"><ele>753.0</ele><time>2026-04-18T10:35:05Z</time></trkpt><trkpt lat="43.157559035497" lon="12.949640893675591"><ele>760.0</ele><time>2026-04-18T10:35:13Z</time></trkpt><trkpt lat="43.1576361268231" lon="12.949656427000846"><ele>767.0</ele><time>2026-04-18T10:35:16Z</time></trkpt><trkpt lat="43.15771067409562" lon="12.949683242590558"><ele>767.0</ele><time>2026-04-18T10:35:20Z</time></trkpt><trkpt lat="43.15777804339825" lon="12.949695243233146"><ele>767.0</ele><time>2026-04-18T10:35:23Z</time></trkpt><trkpt lat="43.15786356975274" lon="12.949644988821"><ele>767.0</ele><time>2026-04-18T10:35:25Z</time></trkpt><trkpt lat="43.15795114817643" lon="12.949562104408264"><ele>767.0</ele><time>2026-04-18T10:35:27Z</time></trkpt><trkpt lat="43.15802639054181" lon="12.949490775033512"><ele>767.0</ele><time>2026-04-18T10:35:29Z</time></trkpt><trkpt lat="43.15809839726445" lon="12.949365098117354"><ele>767.0</ele><time>2026-04-18T10:35:31Z</time></trkpt><trkpt lat="43.15817297557615" lon="12.949249239853817"><ele>767.0</ele><time>2026-04-18T10:35:33Z</time></trkpt><trkpt lat="43.158242715230614" lon="12.949208864441431"><ele>767.0</ele><time>2026-04-18T10:35:35Z</time></trkpt><trkpt lat="43.15858991302897" lon="12.949198212508014"><ele>770.8</ele><time>2026-04-18T10:35:42Z</time></trkpt><trkpt lat="43.15867875196905" lon="12.949173530687098"><ele>774.6</ele><time>2026-04-18T10:35:44Z</time></trkpt><trkpt lat="43.15876878718129" lon="12.949150735856934"><ele>778.4</ele><time>2026-04-18T10:35:46Z</time></trkpt><trkpt lat="43.15883496183936" lon="12.94911645215729"><ele>782.1999999999999</ele><time>2026-04-18T10:35:48Z</time></trkpt><trkpt lat="43.15893841709213" lon="12.949164514358731"><ele>786.0</ele><time>2026-04-18T10:35:50Z</time></trkpt><trkpt lat="43.158861028645006" lon="12.94909441416116"><ele>786.0</ele><time>2026-04-18T10:36:01Z</time></trkpt><trkpt lat="43.15876763504222" lon="12.949038621321819"><ele>786.0</ele><time>2026-04-18T10:36:03Z</time></trkpt><trkpt lat="43.158701687136244" lon="12.948978231728764"><ele>786.0</ele><time>2026-04-18T10:36:05Z</time></trkpt><trkpt lat="43.15863288599477" lon="12.948903381607655"><ele>786.0</ele><time>2026-04-18T10:36:07Z</time></trkpt><trkpt lat="43.15857192396457" lon="12.948845665919213"><ele>786.0</ele><time>2026-04-18T10:36:08Z</time></trkpt><trkpt lat="43.158531928500494" lon="12.948772539313389"><ele>786.0</ele><time>2026-04-18T10:36:09Z</time></trkpt><trkpt lat="43.1584566869534" lon="12.948677227436315"><ele>786.0</ele><time>2026-04-18T10:36:11Z</time></trkpt><trkpt lat="43.158385316569" lon="12.948605268561824"><ele>786.0</ele><time>2026-04-18T10:36:12Z</time></trkpt><trkpt lat="43.15831845582959" lon="12.948467503404698"><ele>786.0</ele><time>2026-04-18T10:36:14Z</time></trkpt><trkpt lat="43.15829132112706" lon="12.948378790303805"><ele>786.0</ele><time>2026-04-18T10:36:15Z</time></trkpt><trkpt lat="43.158259388691846" lon="12.948301926533246"><ele>786.0</ele><time>2026-04-18T10:36:16Z</time></trkpt><trkpt lat="43.15821021115441" lon="12.94814505789699"><ele>786.8333333333334</ele><time>2026-04-18T10:36:18Z</time></trkpt><trkpt lat="43.15816037288168" lon="12.948036492959613"><ele>787.6666666666667</ele><time>2026-04-18T10:36:19Z</time></trkpt><trkpt lat="43.15810731551985" lon="12.947929122011319"><ele>788.5</ele><time>2026-04-18T10:36:20Z</time></trkpt><trkpt lat="43.15807259527065" lon="12.94782577784812"><ele>789.3333333333334</ele><time>2026-04-18T10:36:21Z</time></trkpt><trkpt lat="43.15801175663059" lon="12.947738366170176"><ele>790.1666666666667</ele><time>2026-04-18T10:36:22Z</time></trkpt><trkpt lat="43.15795478767428" lon="12.947648328044542"><ele>791.0</ele><time>2026-04-18T10:36:23Z</time></trkpt><trkpt lat="43.15791225405683" lon="12.947536102791334"><ele>791.0</ele><time>2026-04-18T10:36:24Z</time></trkpt><trkpt lat="43.157861863448026" lon="12.947418531174616"><ele>791.0</ele><time>2026-04-18T10:36:26Z</time></trkpt><trkpt lat="43.15779818907828" lon="12.947278275248625"><ele>791.0</ele><time>2026-04-18T10:36:28Z</time></trkpt><trkpt lat="43.15771255141951" lon="12.94722050775601"><ele>791.0</ele><time>2026-04-18T10:36:30Z</time></trkpt><trkpt lat="43.15760354760498" lon="12.947136050936466"><ele>791.0</ele><time>2026-04-18T10:36:32Z</time></trkpt><trkpt lat="43.15754515859577" lon="12.947076521480318"><ele>791.0000000000001</ele><time>2026-04-18T10:36:33Z</time></trkpt><trkpt lat="43.15747821635099" lon="12.947005994550643"><ele>791.0</ele><time>2026-04-18T10:36:35Z</time></trkpt><trkpt lat="43.1574153770208" lon="12.946924085924893"><ele>791.0</ele><time>2026-04-18T10:36:38Z</time></trkpt><trkpt lat="43.15743188303257" lon="12.946824005666981"><ele>791.0</ele><time>2026-04-18T10:36:40Z</time></trkpt><trkpt lat="43.15744867816877" lon="12.946701792318565"><ele>791.0000000000001</ele><time>2026-04-18T10:36:42Z</time></trkpt><trkpt lat="43.15747056510548" lon="12.946586527048291"><ele>791.0</ele><time>2026-04-18T10:36:45Z</time></trkpt><trkpt lat="43.15750119399662" lon="12.946475758940878"><ele>797.1666666666667</ele><time>2026-04-18T10:36:49Z</time></trkpt><trkpt lat="43.15749967486823" lon="12.946367555854843"><ele>803.3333333333334</ele><time>2026-04-18T10:36:52Z</time></trkpt><trkpt lat="43.157526340617956" lon="12.946270523370464"><ele>809.5</ele><time>2026-04-18T10:36:56Z</time></trkpt><trkpt lat="43.157541829893944" lon="12.946169500520442"><ele>815.6666666666667</ele><time>2026-04-18T10:37:00Z</time></trkpt><trkpt lat="43.157531085636535" lon="12.946083998361983"><ele>821.8333333333334</ele><time>2026-04-18T10:37:02Z</time></trkpt><trkpt lat="43.157453094175025" lon="12.945989449345399"><ele>828.0</ele><time>2026-04-18T10:37:05Z</time></trkpt><trkpt lat="43.15743151573089" lon="12.945888129490077"><ele>832.6666666666666</ele><time>2026-04-18T10:37:08Z</time></trkpt><trkpt lat="43.1574407810059" lon="12.94577187635596"><ele>837.3333333333333</ele><time>2026-04-18T10:37:14Z</time></trkpt><trkpt lat="43.1574592968204" lon="12.945688168995593"><ele>842.0</ele><time>2026-04-18T10:37:18Z</time></trkpt><trkpt lat="43.15754801787748" lon="12.945684484609151"><ele>846.6666666666666</ele><time>2026-04-18T10:37:28Z</time></trkpt><trkpt lat="43.157612106230786" lon="12.945690661209644"><ele>851.3333333333333</ele><time>2026-04-18T10:37:30Z</time></trkpt><trkpt lat="43.1577366604744" lon="12.945710480831963"><ele>856.0</ele><time>2026-04-18T10:37:34Z</time></trkpt><trkpt lat="43.15788596123543" lon="12.94573226026759"><ele>856.0</ele><time>2026-04-18T10:37:37Z</time></trkpt><trkpt lat="43.157985335917786" lon="12.945767626784917"><ele>855.9999999999999</ele><time>2026-04-18T10:37:39Z</time></trkpt><trkpt lat="43.158083514266096" lon="12.945800768805167"><ele>855.9999999999999</ele><time>2026-04-18T10:37:41Z</time></trkpt><trkpt lat="43.15819446120646" lon="12.945844204776307"><ele>856.0</ele><time>2026-04-18T10:37:43Z</time></trkpt><trkpt lat="43.158257735515285" lon="12.945875842419909"><ele>856.0</ele><time>2026-04-18T10:37:45Z</time></trkpt><trkpt lat="43.15845168808547" lon="12.945885364289607"><ele>857.4</ele><time>2026-04-18T10:37:50Z</time></trkpt><trkpt lat="43.15854359075567" lon="12.945887044557796"><ele>858.8</ele><time>2026-04-18T10:37:52Z</time></trkpt><trkpt lat="43.15868585890116" lon="12.9459199595894"><ele>860.1999999999999</ele><time>2026-04-18T10:37:54Z</time></trkpt><trkpt lat="43.1587754718512" lon="12.945949123532307"><ele>861.5999999999999</ele><time>2026-04-18T10:37:55Z</time></trkpt><trkpt lat="43.15886406929412" lon="12.94597873404718"><ele>863.0</ele><time>2026-04-18T10:37:56Z</time></trkpt><trkpt lat="43.15895100965436" lon="12.946003019008328"><ele>863.0000000000001</ele><time>2026-04-18T10:37:57Z</time></trkpt><trkpt lat="43.15901464785266" lon="12.946017873291163"><ele>863.0</ele><time>2026-04-18T10:37:58Z</time></trkpt><trkpt lat="43.159085375503764" lon="12.946021478658565"><ele>863.0</ele><time>2026-04-18T10:37:59Z</time></trkpt><trkpt lat="43.15915849917099" lon="12.946029980035382"><ele>863.0</ele><time>2026-04-18T10:38:00Z</time></trkpt><trkpt lat="43.15923633725523" lon="12.946034590467834"><ele>863.0000000000001</ele><time>2026-04-18T10:38:01Z</time></trkpt><trkpt lat="43.159323998121835" lon="12.946014689762098"><ele>863.0</ele><time>2026-04-18T10:38:02Z</time></trkpt><trkpt lat="43.15940554936324" lon="12.946014109278861"><ele>869.5999999999999</ele><time>2026-04-18T10:38:03Z</time></trkpt><trkpt lat="43.15947356207818" lon="12.94602450670962"><ele>876.1999999999999</ele><time>2026-04-18T10:38:04Z</time></trkpt><trkpt lat="43.159638106970895" lon="12.946015283461227"><ele>882.8</ele><time>2026-04-18T10:38:06Z</time></trkpt><trkpt lat="43.159710442840954" lon="12.946005330461114"><ele>889.4</ele><time>2026-04-18T10:38:07Z</time></trkpt><trkpt lat="43.159781360345114" lon="12.945980221175109"><ele>896.0</ele><time>2026-04-18T10:38:08Z</time></trkpt><trkpt lat="43.15987126087064" lon="12.945970706444088"><ele>901.3333333333334</ele><time>2026-04-18T10:38:09Z</time></trkpt><trkpt lat="43.16009812385918" lon="12.945971010787243"><ele>906.6666666666667</ele><time>2026-04-18T10:38:12Z</time></trkpt><trkpt lat="43.16019326475654" lon="12.945978382970686"><ele>912.0</ele><time>2026-04-18T10:38:13Z</time></trkpt><trkpt lat="43.160335864210914" lon="12.946016893907718"><ele>912.0</ele><time>2026-04-18T10:38:14Z</time></trkpt><trkpt lat="43.160477687599666" lon="12.946069151584862"><ele>912.0</ele><time>2026-04-18T10:38:15Z</time></trkpt><trkpt lat="43.16059425190023" lon="12.946098418762448"><ele>912.0</ele><time>2026-04-18T10:38:16Z</time></trkpt><trkpt lat="43.160963271269914" lon="12.94615842056972"><ele>916.4000000000001</ele><time>2026-04-18T10:38:20Z</time></trkpt><trkpt lat="43.16104136830987" lon="12.94617045348275"><ele>920.8000000000001</ele><time>2026-04-18T10:38:21Z</time></trkpt><trkpt lat="43.16113089903775" lon="12.946183420332893"><ele>925.2</ele><time>2026-04-18T10:38:22Z</time></trkpt><trkpt lat="43.16121323681751" lon="12.946284974459513"><ele>929.6</ele><time>2026-04-18T10:38:23Z</time></trkpt><trkpt lat="43.161323209468655" lon="12.946406275229318"><ele>934.0</ele><time>2026-04-18T10:38:24Z</time></trkpt><trkpt lat="43.161460258387876" lon="12.946493094699692"><ele>937.5</ele><time>2026-04-18T10:38:25Z</time></trkpt><trkpt lat="43.16158594099565" lon="12.94656361359484"><ele>941.0</ele><time>2026-04-18T10:38:26Z</time></trkpt><trkpt lat="43.16165665064692" lon="12.946639916526518"><ele>944.5</ele><time>2026-04-18T10:38:27Z</time></trkpt><trkpt lat="43.16172805971153" lon="12.946756607562472"><ele>948.0</ele><time>2026-04-18T10:38:28Z</time></trkpt><trkpt lat="43.16181867425187" lon="12.946871266019196"><ele>940.2</ele><time>2026-04-18T10:38:29Z</time></trkpt><trkpt lat="43.16188007991061" lon="12.946969758444137"><ele>932.4</ele><time>2026-04-18T10:38:30Z</time></trkpt><trkpt lat="43.16201003842849" lon="12.947063646923485"><ele>924.6000000000001</ele><time>2026-04-18T10:38:31Z</time></trkpt><trkpt lat="43.16209448853253" lon="12.947117603746639"><ele>916.8000000000001</ele><time>2026-04-18T10:38:32Z</time></trkpt><trkpt lat="43.16219368912101" lon="12.947157002836622"><ele>909.0</ele><time>2026-04-18T10:38:33Z</time></trkpt><trkpt lat="43.162300437832684" lon="12.947222314293157"><ele>917.25</ele><time>2026-04-18T10:38:34Z</time></trkpt><trkpt lat="43.16238818951165" lon="12.947310964852859"><ele>925.5</ele><time>2026-04-18T10:38:35Z</time></trkpt><trkpt lat="43.162506672119825" lon="12.947386180770883"><ele>933.75</ele><time>2026-04-18T10:38:36Z</time></trkpt><trkpt lat="43.162627797926525" lon="12.94749044248245"><ele>942.0</ele><time>2026-04-18T10:38:37Z</time></trkpt><trkpt lat="43.1627597888971" lon="12.947532923389627"><ele>935.4000000000001</ele><time>2026-04-18T10:38:38Z</time></trkpt><trkpt lat="43.162859755591946" lon="12.947568069184"><ele>928.8000000000001</ele><time>2026-04-18T10:38:39Z</time></trkpt><trkpt lat="43.162940552262924" lon="12.947613548166842"><ele>922.2</ele><time>2026-04-18T10:38:40Z</time></trkpt><trkpt lat="43.162995694850075" lon="12.947675459458285"><ele>915.6</ele><time>2026-04-18T10:38:41Z</time></trkpt><trkpt lat="43.16304308958893" lon="12.94773460705547"><ele>909.0</ele><time>2026-04-18T10:38:42Z</time></trkpt><trkpt lat="43.16311782842761" lon="12.947878580647036"><ele>909.0</ele><time>2026-04-18T10:38:44Z</time></trkpt><trkpt lat="43.163187743543254" lon="12.947965613493002"><ele>909.0</ele><time>2026-04-18T10:38:45Z</time></trkpt><trkpt lat="43.163233172342835" lon="12.94809426917431"><ele>909.0</ele><time>2026-04-18T10:38:46Z</time></trkpt><trkpt lat="43.163251019092115" lon="12.948193400651457"><ele>909.0</ele><time>2026-04-18T10:38:48Z</time></trkpt><trkpt lat="43.163244706359265" lon="12.94829451577962"><ele>909.0</ele><time>2026-04-18T10:38:50Z</time></trkpt><trkpt lat="43.16327689622295" lon="12.948387268391956"><ele>909.0</ele><time>2026-04-18T10:38:53Z</time></trkpt><trkpt lat="43.16333957709065" lon="12.948481175270086"><ele>912.5</ele><time>2026-04-18T10:38:55Z</time></trkpt><trkpt lat="43.16337299714284" lon="12.948554662074022"><ele>916.0</ele><time>2026-04-18T10:38:56Z</time></trkpt><trkpt lat="43.163394476021494" lon="12.948676969151155"><ele>919.5</ele><time>2026-04-18T10:38:57Z</time></trkpt><trkpt lat="43.16342794358214" lon="12.948761143318325"><ele>923.0</ele><time>2026-04-18T10:38:58Z</time></trkpt><trkpt lat="43.163464458269004" lon="12.94886656002653"><ele>926.5</ele><time>2026-04-18T10:38:59Z</time></trkpt><trkpt lat="43.163499139492274" lon="12.949007048041313"><ele>930.0</ele><time>2026-04-18T10:39:00Z</time></trkpt><trkpt lat="43.16353541526561" lon="12.94912000189511"><ele>928.4</ele><time>2026-04-18T10:39:01Z</time></trkpt><trkpt lat="43.16356821655411" lon="12.949236921428712"><ele>926.8</ele><time>2026-04-18T10:39:02Z</time></trkpt><trkpt lat="43.163593039500945" lon="12.949393649940765"><ele>925.2</ele><time>2026-04-18T10:39:03Z</time></trkpt><trkpt lat="43.16362257900017" lon="12.949538890056381"><ele>923.6</ele><time>2026-04-18T10:39:04Z</time></trkpt><trkpt lat="43.163658523025624" lon="12.949694721033557"><ele>922.0</ele><time>2026-04-18T10:39:05Z</time></trkpt><trkpt lat="43.16369554692392" lon="12.949847953265655"><ele>922.0</ele><time>2026-04-18T10:39:06Z</time></trkpt><trkpt lat="43.16372704109439" lon="12.950005686598344"><ele>922.0</ele><time>2026-04-18T10:39:07Z</time></trkpt><trkpt lat="43.16376274335402" lon="12.95019896389323"><ele>922.0</ele><time>2026-04-18T10:39:08Z</time></trkpt><trkpt lat="43.16379755409787" lon="12.950366766454632"><ele>922.0</ele><time>2026-04-18T10:39:09Z</time></trkpt><trkpt lat="43.1638352980102" lon="12.950479372408486"><ele>920.8</ele><time>2026-04-18T10:39:10Z</time></trkpt><trkpt lat="43.16387334675597" lon="12.95061711349133"><ele>919.6</ele><time>2026-04-18T10:39:11Z</time></trkpt><trkpt lat="43.16391220951992" lon="12.950735597626236"><ele>918.3999999999999</ele><time>2026-04-18T10:39:12Z</time></trkpt><trkpt lat="43.16395052704617" lon="12.950879859349543"><ele>917.1999999999999</ele><time>2026-04-18T10:39:13Z</time></trkpt><trkpt lat="43.16398719619731" lon="12.950978295020006"><ele>916.0</ele><time>2026-04-18T10:39:14Z</time></trkpt><trkpt lat="43.164020842001015" lon="12.951073096489177"><ele>923.9999999999999</ele><time>2026-04-18T10:39:15Z</time></trkpt><trkpt lat="43.16405091747363" lon="12.95116832578034"><ele>932.0</ele><time>2026-04-18T10:39:16Z</time></trkpt><trkpt lat="43.16407611571531" lon="12.951268095375434"><ele>940.0</ele><time>2026-04-18T10:39:17Z</time></trkpt><trkpt lat="43.16409641126266" lon="12.951364888036203"><ele>948.0</ele><time>2026-04-18T10:39:18Z</time></trkpt><trkpt lat="43.16411099599656" lon="12.951449889008668"><ele>955.9999999999999</ele><time>2026-04-18T10:39:19Z</time></trkpt><trkpt lat="43.1641036087819" lon="12.951570507787634"><ele>964.0</ele><time>2026-04-18T10:39:20Z</time></trkpt><trkpt lat="43.16409391845986" lon="12.951690324608371"><ele>966.0</ele><time>2026-04-18T10:39:21Z</time></trkpt><trkpt lat="43.16411199372164" lon="12.95182962198645"><ele>968.0000000000001</ele><time>2026-04-18T10:39:22Z</time></trkpt><trkpt lat="43.164140373890184" lon="12.95194217052481"><ele>970.0000000000001</ele><time>2026-04-18T10:39:23Z</time></trkpt><trkpt lat="43.16417253317905" lon="12.952046838775257"><ele>972.0</ele><time>2026-04-18T10:39:24Z</time></trkpt><trkpt lat="43.164190751508094" lon="12.952161602140066"><ele>974.0</ele><time>2026-04-18T10:39:25Z</time></trkpt><trkpt lat="43.16419408106946" lon="12.952286731173624"><ele>974.0</ele><time>2026-04-18T10:39:26Z</time></trkpt><trkpt lat="43.1642180394409" lon="12.95239676527143"><ele>974.0000000000001</ele><time>2026-04-18T10:39:27Z</time></trkpt><trkpt lat="43.16425023414199" lon="12.952490393974045"><ele>974.0000000000001</ele><time>2026-04-18T10:39:28Z</time></trkpt><trkpt lat="43.16428983033574" lon="12.952629457544427"><ele>974.0</ele><time>2026-04-18T10:39:30Z</time></trkpt><trkpt lat="43.16430684911985" lon="12.952773102296796"><ele>974.0</ele><time>2026-04-18T10:39:32Z</time></trkpt><trkpt lat="43.16437020597497" lon="12.952867535465996"><ele>976.4000000000001</ele><time>2026-04-18T10:39:34Z</time></trkpt><trkpt lat="43.16440253574607" lon="12.952942004224047"><ele>978.8000000000001</ele><time>2026-04-18T10:39:35Z</time></trkpt><trkpt lat="43.16446215326144" lon="12.953096545394535"><ele>981.1999999999999</ele><time>2026-04-18T10:39:37Z</time></trkpt><trkpt lat="43.164485448055956" lon="12.95318772447337"><ele>983.5999999999999</ele><time>2026-04-18T10:39:38Z</time></trkpt><trkpt lat="43.16452861659411" lon="12.95331398380727"><ele>986.0</ele><time>2026-04-18T10:39:39Z</time></trkpt><trkpt lat="43.16458660060703" lon="12.953440027889487"><ele>986.8333333333334</ele><time>2026-04-18T10:39:40Z</time></trkpt><trkpt lat="43.164632528464644" lon="12.953537667165067"><ele>987.6666666666667</ele><time>2026-04-18T10:39:41Z</time></trkpt><trkpt lat="43.164672665778035" lon="12.95364089523625"><ele>988.5</ele><time>2026-04-18T10:39:42Z</time></trkpt><trkpt lat="43.16471196351347" lon="12.95374241559037"><ele>989.3333333333333</ele><time>2026-04-18T10:39:43Z</time></trkpt><trkpt lat="43.164749214705786" lon="12.953827698017065"><ele>990.1666666666666</ele><time>2026-04-18T10:39:44Z</time></trkpt><trkpt lat="43.16478691383784" lon="12.953915320763247"><ele>991.0</ele><time>2026-04-18T10:39:45Z</time></trkpt><trkpt lat="43.164825544165716" lon="12.953995272197664"><ele>991.0</ele><time>2026-04-18T10:39:46Z</time></trkpt><trkpt lat="43.164859544918194" lon="12.954071525348887"><ele>990.9999999999999</ele><time>2026-04-18T10:39:47Z</time></trkpt><trkpt lat="43.164884886024595" lon="12.954172834041733"><ele>990.9999999999999</ele><time>2026-04-18T10:39:48Z</time></trkpt><trkpt lat="43.16491785235019" lon="12.95437532816888"><ele>991.0</ele><time>2026-04-18T10:39:50Z</time></trkpt><trkpt lat="43.16495510594978" lon="12.95450359965287"><ele>991.0</ele><time>2026-04-18T10:39:51Z</time></trkpt><trkpt lat="43.164987691664344" lon="12.95462808813209"><ele>991.4999999999999</ele><time>2026-04-18T10:39:52Z</time></trkpt><trkpt lat="43.16501788005805" lon="12.954760651498907"><ele>992.0</ele><time>2026-04-18T10:39:53Z</time></trkpt><trkpt lat="43.16504754133207" lon="12.954865215320485"><ele>992.5</ele><time>2026-04-18T10:39:54Z</time></trkpt><trkpt lat="43.16508863338304" lon="12.95498102743001"><ele>993.0</ele><time>2026-04-18T10:39:55Z</time></trkpt><trkpt lat="43.16512252619431" lon="12.955094847282835"><ele>993.4999999999999</ele><time>2026-04-18T10:39:56Z</time></trkpt><trkpt lat="43.165146810295084" lon="12.955198465509733"><ele>994.0</ele><time>2026-04-18T10:39:57Z</time></trkpt><trkpt lat="43.16517884040159" lon="12.955319965059765"><ele>996.4000000000001</ele><time>2026-04-18T10:39:58Z</time></trkpt><trkpt lat="43.16520738101818" lon="12.955420644758199"><ele>998.8000000000001</ele><time>2026-04-18T10:39:59Z</time></trkpt><trkpt lat="43.16524543091069" lon="12.955532573451384"><ele>1001.1999999999999</ele><time>2026-04-18T10:40:00Z</time></trkpt><trkpt lat="43.16529223837474" lon="12.955669820384545"><ele>1003.5999999999999</ele><time>2026-04-18T10:40:01Z</time></trkpt><trkpt lat="43.16532970274335" lon="12.955804049831894"><ele>1006.0</ele><time>2026-04-18T10:40:02Z</time></trkpt><trkpt lat="43.16535144542306" lon="12.955917938987456"><ele>1007.1999999999999</ele><time>2026-04-18T10:40:03Z</time></trkpt><trkpt lat="43.16536698636047" lon="12.956015393831947"><ele>1008.3999999999999</ele><time>2026-04-18T10:40:04Z</time></trkpt><trkpt lat="43.165376537174815" lon="12.95617496181591"><ele>1009.6</ele><time>2026-04-18T10:40:06Z</time></trkpt><trkpt lat="43.165394701793154" lon="12.956337409629453"><ele>1010.8</ele><time>2026-04-18T10:40:08Z</time></trkpt><trkpt lat="43.16540238539705" lon="12.956487635803876"><ele>1012.0</ele><time>2026-04-18T10:40:10Z</time></trkpt><trkpt lat="43.16543464035549" lon="12.95661976104643"><ele>1011.4000000000001</ele><time>2026-04-18T10:40:12Z</time></trkpt><trkpt lat="43.16546542888134" lon="12.956754879660732"><ele>1010.8000000000001</ele><time>2026-04-18T10:40:14Z</time></trkpt><trkpt lat="43.165483484857056" lon="12.956911021005123"><ele>1010.2</ele><time>2026-04-18T10:40:16Z</time></trkpt><trkpt lat="43.16549576210185" lon="12.95702962075427"><ele>1009.6</ele><time>2026-04-18T10:40:18Z</time></trkpt><trkpt lat="43.16552159662985" lon="12.957172996112881"><ele>1009.0</ele><time>2026-04-18T10:40:20Z</time></trkpt><trkpt lat="43.165533757896014" lon="12.957320213152878"><ele>1009.0</ele><time>2026-04-18T10:40:22Z</time></trkpt><trkpt lat="43.165529425304314" lon="12.957459397987913"><ele>1009.0000000000001</ele><time>2026-04-18T10:40:24Z</time></trkpt><trkpt lat="43.16552085404815" lon="12.957597556185036"><ele>1009.0000000000001</ele><time>2026-04-18T10:40:26Z</time></trkpt><trkpt lat="43.165513258681784" lon="12.957722495474913"><ele>1009.0</ele><time>2026-04-18T10:40:28Z</time></trkpt><trkpt lat="43.16549072083221" lon="12.957828450964072"><ele>1009.0</ele><time>2026-04-18T10:40:30Z</time></trkpt><trkpt lat="43.16547510032349" lon="12.957937694500972"><ele>1006.1666666666666</ele><time>2026-04-18T10:40:32Z</time></trkpt><trkpt lat="43.16545446520892" lon="12.958088647796451"><ele>1003.3333333333333</ele><time>2026-04-18T10:40:34Z</time></trkpt><trkpt lat="43.16544614133434" lon="12.958182587953187"><ele>1000.5</ele><time>2026-04-18T10:40:36Z</time></trkpt><trkpt lat="43.16543225357614" lon="12.958304527703078"><ele>997.6666666666667</ele><time>2026-04-18T10:40:38Z</time></trkpt><trkpt lat="43.16542682409917" lon="12.958432492596842"><ele>994.8333333333334</ele><time>2026-04-18T10:40:40Z</time></trkpt><trkpt lat="43.16541443239307" lon="12.95851967636734"><ele>992.0</ele><time>2026-04-18T10:40:41Z</time></trkpt><trkpt lat="43.16539677649369" lon="12.958641529336083"><ele>988.3333333333334</ele><time>2026-04-18T10:40:43Z</time></trkpt><trkpt lat="43.165375438080964" lon="12.958760722255956"><ele>984.6666666666667</ele><time>2026-04-18T10:40:45Z</time></trkpt><trkpt lat="43.165335836568595" lon="12.958887270254719"><ele>981.0</ele><time>2026-04-18T10:40:47Z</time></trkpt><trkpt lat="43.16529780693623" lon="12.958965126330192"><ele>977.3333333333333</ele><time>2026-04-18T10:40:50Z</time></trkpt><trkpt lat="43.16536140986328" lon="12.959026801174607"><ele>973.6666666666666</ele><time>2026-04-18T10:40:59Z</time></trkpt><trkpt lat="43.1654300282208" lon="12.959002373817231"><ele>970.0</ele><time>2026-04-18T10:41:02Z</time></trkpt><trkpt lat="43.165487740647215" lon="12.958942379613068"><ele>969.9999999999999</ele><time>2026-04-18T10:41:06Z</time></trkpt><trkpt lat="43.165546512201004" lon="12.958889150554059"><ele>970.0</ele><time>2026-04-18T10:41:08Z</time></trkpt><trkpt lat="43.165591881705076" lon="12.9587952501844"><ele>970.0</ele><time>2026-04-18T10:41:12Z</time></trkpt><trkpt lat="43.16560452901685" lon="12.958693108544486"><ele>970.0</ele><time>2026-04-18T10:41:15Z</time></trkpt><trkpt lat="43.1656972987389" lon="12.958656642750993"><ele>969.9999999999999</ele><time>2026-04-18T10:41:18Z</time></trkpt><trkpt lat="43.16573885319099" lon="12.958574736417033"><ele>970.0</ele><time>2026-04-18T10:41:21Z</time></trkpt><trkpt lat="43.165812020767824" lon="12.95850851684353"><ele>970.5714285714287</ele><time>2026-04-18T10:41:23Z</time></trkpt><trkpt lat="43.16587161521481" lon="12.958477923362084"><ele>971.1428571428571</ele><time>2026-04-18T10:41:25Z</time></trkpt><trkpt lat="43.16593309065532" lon="12.95845806950384"><ele>971.7142857142858</ele><time>2026-04-18T10:41:27Z</time></trkpt><trkpt lat="43.165987195033104" lon="12.958401223204405"><ele>972.2857142857143</ele><time>2026-04-18T10:41:31Z</time></trkpt><trkpt lat="43.166035628634766" lon="12.958321045213824"><ele>972.8571428571429</ele><time>2026-04-18T10:41:35Z</time></trkpt><trkpt lat="43.16609135630506" lon="12.958221295990425"><ele>973.4285714285714</ele><time>2026-04-18T10:41:38Z</time></trkpt><trkpt lat="43.16614815009591" lon="12.958134470097587"><ele>974.0</ele><time>2026-04-18T10:41:41Z</time></trkpt><trkpt lat="43.16618831006032" lon="12.958027697187571"><ele>971.5714285714287</ele><time>2026-04-18T10:41:43Z</time></trkpt><trkpt lat="43.16621330686396" lon="12.95794400445826"><ele>969.1428571428571</ele><time>2026-04-18T10:41:45Z</time></trkpt><trkpt lat="43.16621123293719" lon="12.957838758731922"><ele>966.7142857142858</ele><time>2026-04-18T10:41:47Z</time></trkpt><trkpt lat="43.1662113002786" lon="12.957751199392636"><ele>964.2857142857143</ele><time>2026-04-18T10:41:49Z</time></trkpt><trkpt lat="43.16622369505309" lon="12.957650937854059"><ele>961.8571428571429</ele><time>2026-04-18T10:41:54Z</time></trkpt><trkpt lat="43.1662550096882" lon="12.957573683660337"><ele>959.4285714285714</ele><time>2026-04-18T10:42:02Z</time></trkpt><trkpt lat="43.16624329146696" lon="12.957464598507825"><ele>957.0</ele><time>2026-04-18T10:42:13Z</time></trkpt><trkpt lat="43.16623918119811" lon="12.957363289534296"><ele>955.6</ele><time>2026-04-18T10:42:16Z</time></trkpt><trkpt lat="43.1662297210352" lon="12.957259794596064"><ele>954.2</ele><time>2026-04-18T10:42:18Z</time></trkpt><trkpt lat="43.16618775279722" lon="12.957145854515163"><ele>952.8</ele><time>2026-04-18T10:42:20Z</time></trkpt><trkpt lat="43.166174985152836" lon="12.957047226600416"><ele>951.4</ele><time>2026-04-18T10:42:22Z</time></trkpt><trkpt lat="43.16619064714243" lon="12.956933186922756"><ele>950.0</ele><time>2026-04-18T10:42:24Z</time></trkpt><trkpt lat="43.16622339649889" lon="12.956769318560388"><ele>950.0</ele><time>2026-04-18T10:42:26Z</time></trkpt><trkpt lat="43.166238394085546" lon="12.956665155246087"><ele>950.0</ele><time>2026-04-18T10:42:27Z</time></trkpt><trkpt lat="43.166247574947754" lon="12.95656560404024"><ele>950.0</ele><time>2026-04-18T10:42:28Z</time></trkpt><trkpt lat="43.1662341573403" lon="12.956439703968787"><ele>950.0</ele><time>2026-04-18T10:42:29Z</time></trkpt><trkpt lat="43.166199370825304" lon="12.95627640090586"><ele>950.0</ele><time>2026-04-18T10:42:30Z</time></trkpt><trkpt lat="43.16618448761429" lon="12.95613413357315"><ele>950.0</ele><time>2026-04-18T10:42:31Z</time></trkpt><trkpt lat="43.166188871161545" lon="12.955971463156507"><ele>950.0</ele><time>2026-04-18T10:42:32Z</time></trkpt><trkpt lat="43.16619433034004" lon="12.955812478770742"><ele>950.0</ele><time>2026-04-18T10:42:33Z</time></trkpt><trkpt lat="43.16619329325478" lon="12.955688076023531"><ele>950.0</ele><time>2026-04-18T10:42:34Z</time></trkpt><trkpt lat="43.166189686493404" lon="12.955591878550859"><ele>950.0</ele><time>2026-04-18T10:42:35Z</time></trkpt><trkpt lat="43.166201352110605" lon="12.955474843381086"><ele>950.6</ele><time>2026-04-18T10:42:36Z</time></trkpt><trkpt lat="43.166207113794535" lon="12.955362378629742"><ele>951.2</ele><time>2026-04-18T10:42:37Z</time></trkpt><trkpt lat="43.166209290962584" lon="12.955192227215901"><ele>951.8</ele><time>2026-04-18T10:42:39Z</time></trkpt><trkpt lat="43.16623155906435" lon="12.955017436292405"><ele>952.4</ele><time>2026-04-18T10:42:41Z</time></trkpt><trkpt lat="43.16623133269668" lon="12.954912011546933"><ele>953.0</ele><time>2026-04-18T10:42:42Z</time></trkpt><trkpt lat="43.16622594690813" lon="12.954775571745492"><ele>951.3333333333334</ele><time>2026-04-18T10:42:43Z</time></trkpt><trkpt lat="43.166236790351675" lon="12.954688022967622"><ele>949.6666666666667</ele><time>2026-04-18T10:42:44Z</time></trkpt><trkpt lat="43.16622877897753" lon="12.954518961804434"><ele>948.0</ele><time>2026-04-18T10:42:46Z</time></trkpt><trkpt lat="43.16622770601755" lon="12.954426854634626"><ele>946.3333333333333</ele><time>2026-04-18T10:42:47Z</time></trkpt><trkpt lat="43.16623087807083" lon="12.954335884104616"><ele>944.6666666666666</ele><time>2026-04-18T10:42:48Z</time></trkpt><trkpt lat="43.16623021419463" lon="12.9542435369182"><ele>943.0</ele><time>2026-04-18T10:42:49Z</time></trkpt><trkpt lat="43.166249087412126" lon="12.95409498312477"><ele>940.0</ele><time>2026-04-18T10:42:51Z</time></trkpt><trkpt lat="43.16625187944279" lon="12.954003320375925"><ele>937.0</ele><time>2026-04-18T10:42:52Z</time></trkpt><trkpt lat="43.16624555764995" lon="12.95382930185572"><ele>934.0</ele><time>2026-04-18T10:42:54Z</time></trkpt><trkpt lat="43.166241317325984" lon="12.953730034116024"><ele>931.0</ele><time>2026-04-18T10:42:55Z</time></trkpt><trkpt lat="43.16625105719409" lon="12.953563932796724"><ele>928.0</ele><time>2026-04-18T10:42:57Z</time></trkpt><trkpt lat="43.16625796015904" lon="12.953413803719185"><ele>925.4999999999999</ele><time>2026-04-18T10:42:59Z</time></trkpt><trkpt lat="43.166262021612916" lon="12.953292144429291"><ele>923.0</ele><time>2026-04-18T10:43:01Z</time></trkpt><trkpt lat="43.16626387072803" lon="12.953157942314036"><ele>920.5</ele><time>2026-04-18T10:43:03Z</time></trkpt><trkpt lat="43.166275881021775" lon="12.953028827683534"><ele>918.0</ele><time>2026-04-18T10:43:05Z</time></trkpt><trkpt lat="43.1662927565488" lon="12.952943536749723"><ele>915.4999999999999</ele><time>2026-04-18T10:43:06Z</time></trkpt><trkpt lat="43.16629528677779" lon="12.95284136288728"><ele>913.0</ele><time>2026-04-18T10:43:07Z</time></trkpt><trkpt lat="43.16628990288686" lon="12.952738135791968"><ele>912.9999999999999</ele><time>2026-04-18T10:43:08Z</time></trkpt><trkpt lat="43.16628361914783" lon="12.952636550863568"><ele>913.0</ele><time>2026-04-18T10:43:09Z</time></trkpt><trkpt lat="43.166276838882055" lon="12.952537011700482"><ele>913.0</ele><time>2026-04-18T10:43:10Z</time></trkpt><trkpt lat="43.166286027299535" lon="12.952432645663134"><ele>913.0</ele><time>2026-04-18T10:43:11Z</time></trkpt><trkpt lat="43.1662845675836" lon="12.952295678647678"><ele>912.9999999999999</ele><time>2026-04-18T10:43:12Z</time></trkpt><trkpt lat="43.166282049162604" lon="12.952159809249999"><ele>913.0</ele><time>2026-04-18T10:43:13Z</time></trkpt><trkpt lat="43.16627143016917" lon="12.952009750262578"><ele>910.4999999999999</ele><time>2026-04-18T10:43:14Z</time></trkpt><trkpt lat="43.16625491121678" lon="12.95187771812019"><ele>908.0</ele><time>2026-04-18T10:43:15Z</time></trkpt><trkpt lat="43.16623726944794" lon="12.95174021647932"><ele>905.5</ele><time>2026-04-18T10:43:16Z</time></trkpt><trkpt lat="43.16621775006748" lon="12.951629952142731"><ele>903.0</ele><time>2026-04-18T10:43:17Z</time></trkpt><trkpt lat="43.16620165584122" lon="12.951527725209205"><ele>900.4999999999999</ele><time>2026-04-18T10:43:18Z</time></trkpt><trkpt lat="43.16618267506016" lon="12.951442957815336"><ele>898.0</ele><time>2026-04-18T10:43:19Z</time></trkpt><trkpt lat="43.16612826796339" lon="12.951296703067545"><ele>895.4999999999999</ele><time>2026-04-18T10:43:21Z</time></trkpt><trkpt lat="43.166053924318774" lon="12.951183916864224"><ele>893.0</ele><time>2026-04-18T10:43:23Z</time></trkpt><trkpt lat="43.16601775222485" lon="12.951095525995411"><ele>890.5</ele><time>2026-04-18T10:43:24Z</time></trkpt><trkpt lat="43.165992061897306" lon="12.951009301569254"><ele>888.0</ele><time>2026-04-18T10:43:25Z</time></trkpt><trkpt lat="43.16595074720163" lon="12.950846293175584"><ele>885.4999999999999</ele><time>2026-04-18T10:43:27Z</time></trkpt><trkpt lat="43.16591665832381" lon="12.950772543279712"><ele>883.0</ele><time>2026-04-18T10:43:28Z</time></trkpt><trkpt lat="43.165880323968985" lon="12.95068079409967"><ele>876.4</ele><time>2026-04-18T10:43:29Z</time></trkpt><trkpt lat="43.165852225568536" lon="12.950588171649374"><ele>869.8</ele><time>2026-04-18T10:43:30Z</time></trkpt><trkpt lat="43.16582565365385" lon="12.950487503882112"><ele>863.2</ele><time>2026-04-18T10:43:31Z</time></trkpt><trkpt lat="43.16582023811633" lon="12.950310919394417"><ele>856.6</ele><time>2026-04-18T10:43:32Z</time></trkpt><trkpt lat="43.165806660116544" lon="12.950188846222048"><ele>850.0</ele><time>2026-04-18T10:43:33Z</time></trkpt><trkpt lat="43.16578654746272" lon="12.950064641012089"><ele>842.6</ele><time>2026-04-18T10:43:34Z</time></trkpt><trkpt lat="43.16576883653014" lon="12.949961814813381"><ele>835.2</ele><time>2026-04-18T10:43:35Z</time></trkpt><trkpt lat="43.16575205123466" lon="12.949878283211898"><ele>827.8</ele><time>2026-04-18T10:43:36Z</time></trkpt><trkpt lat="43.16573290187113" lon="12.949741880149826"><ele>820.4</ele><time>2026-04-18T10:43:38Z</time></trkpt><trkpt lat="43.16573101942774" lon="12.949581005673476"><ele>813.0</ele><time>2026-04-18T10:43:40Z</time></trkpt><trkpt lat="43.16572388534587" lon="12.949454006103107"><ele>813.0</ele><time>2026-04-18T10:43:42Z</time></trkpt><trkpt lat="43.16569557533418" lon="12.94930466894058"><ele>813.0</ele><time>2026-04-18T10:43:44Z</time></trkpt><trkpt lat="43.16569290050787" lon="12.949176069205489"><ele>813.0</ele><time>2026-04-18T10:43:46Z</time></trkpt><trkpt lat="43.165677918246516" lon="12.949058942335077"><ele>813.0</ele><time>2026-04-18T10:43:48Z</time></trkpt><trkpt lat="43.1656835875996" lon="12.948907737334636"><ele>813.0</ele><time>2026-04-18T10:43:50Z</time></trkpt><trkpt lat="43.16568944365956" lon="12.948819229838755"><ele>808.5999999999999</ele><time>2026-04-18T10:43:51Z</time></trkpt><trkpt lat="43.16571493944222" lon="12.948678604486146"><ele>804.1999999999999</ele><time>2026-04-18T10:43:53Z</time></trkpt><trkpt lat="43.165745862718126" lon="12.94854916559586"><ele>799.8</ele><time>2026-04-18T10:43:55Z</time></trkpt><trkpt lat="43.16580882288988" lon="12.948428046635774"><ele>795.4</ele><time>2026-04-18T10:43:57Z</time></trkpt><trkpt lat="43.165866210594125" lon="12.948316816938739"><ele>791.0</ele><time>2026-04-18T10:43:59Z</time></trkpt><trkpt lat="43.165946923079986" lon="12.94821722230904"><ele>789.5999999999999</ele><time>2026-04-18T10:44:01Z</time></trkpt><trkpt lat="43.16601992000968" lon="12.948144936246766"><ele>788.2</ele><time>2026-04-18T10:44:03Z</time></trkpt><trkpt lat="43.16609675694044" lon="12.948041550474526"><ele>786.8</ele><time>2026-04-18T10:44:05Z</time></trkpt><trkpt lat="43.166160326544265" lon="12.947946911998924"><ele>785.4000000000001</ele><time>2026-04-18T10:44:07Z</time></trkpt><trkpt lat="43.16622721353425" lon="12.947852806469333"><ele>784.0</ele><time>2026-04-18T10:44:09Z</time></trkpt><trkpt lat="43.16631606311631" lon="12.947723469049965"><ele>783.9999999999999</ele><time>2026-04-18T10:44:11Z</time></trkpt><trkpt lat="43.166376598023845" lon="12.94759399012839"><ele>784.0</ele><time>2026-04-18T10:44:13Z</time></trkpt><trkpt lat="43.1664147281646" lon="12.947522664078775"><ele>784.0</ele><time>2026-04-18T10:44:14Z</time></trkpt><trkpt lat="43.16647400510721" lon="12.947451226673502"><ele>784.0</ele><time>2026-04-18T10:44:15Z</time></trkpt><trkpt lat="43.16652309751612" lon="12.947379398737594"><ele>783.9999999999999</ele><time>2026-04-18T10:44:16Z</time></trkpt><trkpt lat="43.166555222771" lon="12.947286104164169"><ele>784.0</ele><time>2026-04-18T10:44:18Z</time></trkpt><trkpt lat="43.16661281876833" lon="12.947195529110749"><ele>772.2</ele><time>2026-04-18T10:44:21Z</time></trkpt><trkpt lat="43.16671664095402" lon="12.947080450814424"><ele>760.4000000000001</ele><time>2026-04-18T10:44:23Z</time></trkpt><trkpt lat="43.1667801925143" lon="12.94702538573794"><ele>748.6</ele><time>2026-04-18T10:44:24Z</time></trkpt><trkpt lat="43.166840806215376" lon="12.946978025793598"><ele>736.8</ele><time>2026-04-18T10:44:25Z</time></trkpt><trkpt lat="43.16687770302465" lon="12.946891422779801"><ele>725.0</ele><time>2026-04-18T10:44:27Z</time></trkpt><trkpt lat="43.166955399689265" lon="12.94678883593362"><ele>725.0</ele><time>2026-04-18T10:44:29Z</time></trkpt><trkpt lat="43.16703314436783" lon="12.946715539923758"><ele>725.0</ele><time>2026-04-18T10:44:30.999Z</time></trkpt><trkpt lat="43.1670829294926" lon="12.946644936258734"><ele>725.0</ele><time>2026-04-18T10:44:31.999Z</time></trkpt><trkpt lat="43.16717425591141" lon="12.946498306650978"><ele>725.0</ele><time>2026-04-18T10:44:33.999Z</time></trkpt><trkpt lat="43.1672277853835" lon="12.946399230918955"><ele>725.0</ele><time>2026-04-18T10:44:34.999Z</time></trkpt><trkpt lat="43.16725879339801" lon="12.946276194475065"><ele>726.6</ele><time>2026-04-18T10:44:35.999Z</time></trkpt><trkpt lat="43.16728649960908" lon="12.946158458142376"><ele>728.2</ele><time>2026-04-18T10:44:36.999Z</time></trkpt><trkpt lat="43.16736998786264" lon="12.946020715916433"><ele>729.8</ele><time>2026-04-18T10:44:38.999Z</time></trkpt><trkpt lat="43.1674222289542" lon="12.945940377080014"><ele>731.4</ele><time>2026-04-18T10:44:39.999Z</time></trkpt><trkpt lat="43.167486630730984" lon="12.945859554283176"><ele>733.0</ele><time>2026-04-18T10:44:40.999Z</time></trkpt><trkpt lat="43.167541965409605" lon="12.945787918007616"><ele>733.0</ele><time>2026-04-18T10:44:41.999Z</time></trkpt><trkpt lat="43.1676304045209" lon="12.945694314756967"><ele>733.0</ele><time>2026-04-18T10:44:43.999Z</time></trkpt><trkpt lat="43.16768960160319" lon="12.945651450680097"><ele>733.0</ele><time>2026-04-18T10:44:44.999Z</time></trkpt><trkpt lat="43.16776275374596" lon="12.94561169794847"><ele>733.0</ele><time>2026-04-18T10:44:45.999Z</time></trkpt><trkpt lat="43.16788512195834" lon="12.945551158407243"><ele>733.0</ele><time>2026-04-18T10:44:47.999Z</time></trkpt><trkpt lat="43.16795810286908" lon="12.94552653294981"><ele>733.0</ele><time>2026-04-18T10:44:48.999Z</time></trkpt><trkpt lat="43.16802494681438" lon="12.945471882996648"><ele>733.0</ele><time>2026-04-18T10:44:49.999Z</time></trkpt><trkpt lat="43.16808679982262" lon="12.945414803654302"><ele>733.0</ele><time>2026-04-18T10:44:50.999Z</time></trkpt><trkpt lat="43.168183727120194" lon="12.945344357895328"><ele>733.0</ele><time>2026-04-18T10:44:52.999Z</time></trkpt><trkpt lat="43.168245423622785" lon="12.945303466263844"><ele>733.0</ele><time>2026-04-18T10:44:53.999Z</time></trkpt><trkpt lat="43.168314448688996" lon="12.945251234360235"><ele>733.0</ele><time>2026-04-18T10:44:54.999Z</time></trkpt><trkpt lat="43.16842300680881" lon="12.945180225525304"><ele>721.75</ele><time>2026-04-18T10:44:56.999Z</time></trkpt><trkpt lat="43.168533974065014" lon="12.945145385078163"><ele>710.5</ele><time>2026-04-18T10:44:58.999Z</time></trkpt><trkpt lat="43.16866083807323" lon="12.94515136697323"><ele>699.25</ele><time>2026-04-18T10:45:00.999Z</time></trkpt><trkpt lat="43.16877049299194" lon="12.945167247581985"><ele>688.0</ele><time>2026-04-18T10:45:02.999Z</time></trkpt><trkpt lat="43.168892425620925" lon="12.945173259551705"><ele>688.0</ele><time>2026-04-18T10:45:04.999Z</time></trkpt><trkpt lat="43.16897151598384" lon="12.945169068374888"><ele>688.0</ele><time>2026-04-18T10:45:05.999Z</time></trkpt><trkpt lat="43.16920461839948" lon="12.945159381303247"><ele>688.0</ele><time>2026-04-18T10:45:09.999Z</time></trkpt><trkpt lat="43.169398131533555" lon="12.945143858352553"><ele>681.8333333333334</ele><time>2026-04-18T10:45:19.999Z</time></trkpt><trkpt lat="43.1694723500906" lon="12.945111715286801"><ele>675.6666666666667</ele><time>2026-04-18T10:45:20.999Z</time></trkpt><trkpt lat="43.16959612341048" lon="12.94512906220521"><ele>669.5</ele><time>2026-04-18T10:45:22.999Z</time></trkpt><trkpt lat="43.169666321413054" lon="12.945160810484476"><ele>663.3333333333334</ele><time>2026-04-18T10:45:23.999Z</time></trkpt><trkpt lat="43.16974491429523" lon="12.945187051349567"><ele>657.1666666666666</ele><time>2026-04-18T10:45:24.999Z</time></trkpt><trkpt lat="43.169810742298154" lon="12.945209673887204"><ele>651.0</ele><time>2026-04-18T10:45:25.999Z</time></trkpt><trkpt lat="43.16987302386857" lon="12.945241266641053"><ele>646.1999999999999</ele><time>2026-04-18T10:45:26.999Z</time></trkpt><trkpt lat="43.16999212174038" lon="12.945277755817958"><ele>641.4</ele><time>2026-04-18T10:45:28.999Z</time></trkpt><trkpt lat="43.17005342327571" lon="12.945304476492652"><ele>636.6</ele><time>2026-04-18T10:45:29.999Z</time></trkpt><trkpt lat="43.170126968615065" lon="12.945319423441056"><ele>631.8</ele><time>2026-04-18T10:45:30.999Z</time></trkpt><trkpt lat="43.17024851551495" lon="12.94536370347413"><ele>627.0</ele><time>2026-04-18T10:45:32.999Z</time></trkpt><trkpt lat="43.17050117934231" lon="12.945327772228543"><ele>627.0</ele><time>2026-04-18T10:45:37.999Z</time></trkpt><trkpt lat="43.17060512327779" lon="12.945244461163039"><ele>627.0</ele><time>2026-04-18T10:45:39.999Z</time></trkpt><trkpt lat="43.170689625092606" lon="12.94518397568502"><ele>627.0</ele><time>2026-04-18T10:45:41.999Z</time></trkpt><trkpt lat="43.170783307157635" lon="12.945168627389721"><ele>627.0</ele><time>2026-04-18T10:45:43.999Z</time></trkpt><trkpt lat="43.17090615958046" lon="12.945168612471406"><ele>627.0</ele><time>2026-04-18T10:45:45.999Z</time></trkpt><trkpt lat="43.170980944366164" lon="12.945164178376936"><ele>623.0</ele><time>2026-04-18T10:45:46.999Z</time></trkpt><trkpt lat="43.17105146536533" lon="12.945175747429616"><ele>619.0</ele><time>2026-04-18T10:45:47.999Z</time></trkpt><trkpt lat="43.17117659028236" lon="12.94516907917077"><ele>615.0</ele><time>2026-04-18T10:45:49.999Z</time></trkpt><trkpt lat="43.171300334480186" lon="12.945144007462321"><ele>611.0</ele><time>2026-04-18T10:45:51.999Z</time></trkpt><trkpt lat="43.17141908342291" lon="12.945136942377893"><ele>607.0</ele><time>2026-04-18T10:45:53.999Z</time></trkpt><trkpt lat="43.17149603557736" lon="12.945146933864155"><ele>602.3333333333334</ele><time>2026-04-18T10:45:54.999Z</time></trkpt><trkpt lat="43.17162545279879" lon="12.945140937386787"><ele>597.6666666666667</ele><time>2026-04-18T10:45:56.999Z</time></trkpt><trkpt lat="43.17169491383028" lon="12.945142402842748"><ele>593.0</ele><time>2026-04-18T10:45:57.999Z</time></trkpt><trkpt lat="43.17176337776972" lon="12.9451446291456"><ele>588.3333333333334</ele><time>2026-04-18T10:45:58.999Z</time></trkpt><trkpt lat="43.171830641946165" lon="12.945137280814796"><ele>583.6666666666666</ele><time>2026-04-18T10:45:59.999Z</time></trkpt><trkpt lat="43.17190033662349" lon="12.94513195471729"><ele>579.0</ele><time>2026-04-18T10:46:00.999Z</time></trkpt><trkpt lat="43.172009906324234" lon="12.94510397718349"><ele>582.1666666666666</ele><time>2026-04-18T10:46:02.999Z</time></trkpt><trkpt lat="43.172114682766974" lon="12.945036281081038"><ele>585.3333333333334</ele><time>2026-04-18T10:46:04.999Z</time></trkpt><trkpt lat="43.172220013952156" lon="12.944973602561886"><ele>588.5</ele><time>2026-04-18T10:46:06.999Z</time></trkpt><trkpt lat="43.17226924281522" lon="12.944909035880217"><ele>591.6666666666667</ele><time>2026-04-18T10:46:07.999Z</time></trkpt><trkpt lat="43.17232162697178" lon="12.944858290587122"><ele>594.8333333333334</ele><time>2026-04-18T10:46:08.999Z</time></trkpt><trkpt lat="43.17238219720982" lon="12.944819834748197"><ele>598.0</ele><time>2026-04-18T10:46:09.999Z</time></trkpt><trkpt lat="43.17250183082959" lon="12.944759229623342"><ele>598.0</ele><time>2026-04-18T10:46:11.999Z</time></trkpt><trkpt lat="43.17259972936161" lon="12.94468611419291"><ele>598.0</ele><time>2026-04-18T10:46:13.999Z</time></trkpt><trkpt lat="43.17271815071146" lon="12.944613228424304"><ele>598.0</ele><time>2026-04-18T10:46:15.999Z</time></trkpt><trkpt lat="43.172776615582016" lon="12.944570764260964"><ele>598.0</ele><time>2026-04-18T10:46:16.999Z</time></trkpt><trkpt lat="43.17286323415133" lon="12.944514170687828"><ele>598.0</ele><time>2026-04-18T10:46:18.999Z</time></trkpt><trkpt lat="43.17293086930715" lon="12.944446665206076"><ele>598.0</ele><time>2026-04-18T10:46:21.999Z</time></trkpt><trkpt lat="43.17296328799363" lon="12.944318885738912"><ele>598.0</ele><time>2026-04-18T10:46:24.999Z</time></trkpt><trkpt lat="43.172997552255204" lon="12.944218924188938"><ele>598.0</ele><time>2026-04-18T10:46:26.999Z</time></trkpt><trkpt lat="43.173007904890646" lon="12.944099222324303"><ele>598.0</ele><time>2026-04-18T10:46:28.999Z</time></trkpt><trkpt lat="43.17298503821985" lon="12.943927206587274"><ele>598.0</ele><time>2026-04-18T10:46:30.999Z</time></trkpt><trkpt lat="43.172974438830444" lon="12.94377625843133"><ele>595.6666666666667</ele><time>2026-04-18T10:46:32.999Z</time></trkpt><trkpt lat="43.17297094596028" lon="12.943688334256962"><ele>593.3333333333334</ele><time>2026-04-18T10:46:33.999Z</time></trkpt><trkpt lat="43.1729957128155" lon="12.943572158341832"><ele>591.0</ele><time>2026-04-18T10:46:35.999Z</time></trkpt><trkpt lat="43.17298479543642" lon="12.943483692314318"><ele>588.6666666666666</ele><time>2026-04-18T10:46:37.999Z</time></trkpt><trkpt lat="43.172960611612424" lon="12.943363570665076"><ele>586.3333333333333</ele><time>2026-04-18T10:46:39.999Z</time></trkpt><trkpt lat="43.172917050752794" lon="12.943215470688223"><ele>584.0</ele><time>2026-04-18T10:46:41.999Z</time></trkpt><trkpt lat="43.172893939840876" lon="12.943129216064644"><ele>579.6</ele><time>2026-04-18T10:46:42.999Z</time></trkpt><trkpt lat="43.17288306570732" lon="12.94298857668772"><ele>575.2</ele><time>2026-04-18T10:46:44.999Z</time></trkpt><trkpt lat="43.17287236398302" lon="12.942839350664318"><ele>570.8000000000001</ele><time>2026-04-18T10:46:46.999Z</time></trkpt><trkpt lat="43.17288386979696" lon="12.942713027908932"><ele>566.4</ele><time>2026-04-18T10:46:48.999Z</time></trkpt><trkpt lat="43.17287642302349" lon="12.942585463813344"><ele>562.0</ele><time>2026-04-18T10:46:50.999Z</time></trkpt><trkpt lat="43.173069605706765" lon="12.942506618860131"><ele>562.0</ele><time>2026-04-18T10:47:01.999Z</time></trkpt><trkpt lat="43.17314170495887" lon="12.942547480308894"><ele>562.0</ele><time>2026-04-18T10:47:02.999Z</time></trkpt><trkpt lat="43.1732290327705" lon="12.942570934791222"><ele>562.0</ele><time>2026-04-18T10:47:03.999Z</time></trkpt><trkpt lat="43.17329101354497" lon="12.942640495959987"><ele>562.0</ele><time>2026-04-18T10:47:04.999Z</time></trkpt><trkpt lat="43.17335570599986" lon="12.942675425653619"><ele>562.0</ele><time>2026-04-18T10:47:05.999Z</time></trkpt><trkpt lat="43.17341638321496" lon="12.94272392324252"><ele>562.0</ele><time>2026-04-18T10:47:06.999Z</time></trkpt><trkpt lat="43.173485585879" lon="12.942778881654672"><ele>562.0</ele><time>2026-04-18T10:47:07.999Z</time></trkpt><trkpt lat="43.17355601555419" lon="12.942845597493111"><ele>562.0</ele><time>2026-04-18T10:47:08.999Z</time></trkpt><trkpt lat="43.173633568196855" lon="12.942921800064811"><ele>562.0</ele><time>2026-04-18T10:47:09.999Z</time></trkpt><trkpt lat="43.173690623347554" lon="12.943019545590367"><ele>562.0</ele><time>2026-04-18T10:47:10.999Z</time></trkpt><trkpt lat="43.17373788724829" lon="12.943077113344797"><ele>562.0</ele><time>2026-04-18T10:47:11.999Z</time></trkpt><trkpt lat="43.17367079165318" lon="12.942993521772031"><ele>562.0</ele><time>2026-04-18T10:47:15.999Z</time></trkpt><trkpt lat="43.173742216429865" lon="12.942673479773202"><ele>562.0</ele><time>2026-04-18T10:47:17.999Z</time></trkpt><trkpt lat="43.1736717794555" lon="12.942600860306584"><ele>562.0</ele><time>2026-04-18T10:47:18.999Z</time></trkpt><trkpt lat="43.17360190329064" lon="12.94247781880425"><ele>562.0</ele><time>2026-04-18T10:47:20.999Z</time></trkpt><trkpt lat="43.17357142792951" lon="12.942393171003005"><ele>562.0</ele><time>2026-04-18T10:47:21.999Z</time></trkpt><trkpt lat="43.17354402738964" lon="12.94229760689485"><ele>562.0</ele><time>2026-04-18T10:47:22.999Z</time></trkpt><trkpt lat="43.17352554799201" lon="12.942205480716398"><ele>562.0</ele><time>2026-04-18T10:47:23.999Z</time></trkpt><trkpt lat="43.173518818895566" lon="12.942116203933331"><ele>558.25</ele><time>2026-04-18T10:47:24.999Z</time></trkpt><trkpt lat="43.17352826761318" lon="12.942019542821885"><ele>554.5</ele><time>2026-04-18T10:47:25.999Z</time></trkpt><trkpt lat="43.17357203294471" lon="12.941867708856766"><ele>550.75</ele><time>2026-04-18T10:47:27.999Z</time></trkpt><trkpt lat="43.173684435281224" lon="12.941696043795822"><ele>547.0</ele><time>2026-04-18T10:47:29.999Z</time></trkpt><trkpt lat="43.1738659227274" lon="12.941748272647475"><ele>547.0</ele><time>2026-04-18T10:47:30.999Z</time></trkpt><trkpt lat="43.173932070830126" lon="12.941849764193288"><ele>547.0</ele><time>2026-04-18T10:47:31.999Z</time></trkpt><trkpt lat="43.17397842033343" lon="12.941946484613343"><ele>547.0</ele><time>2026-04-18T10:47:32.999Z</time></trkpt><trkpt lat="43.17402120903384" lon="12.94203546157607"><ele>547.0</ele><time>2026-04-18T10:47:33.999Z</time></trkpt><trkpt lat="43.17406144017585" lon="12.942122762563075"><ele>547.0</ele><time>2026-04-18T10:47:34.999Z</time></trkpt><trkpt lat="43.17411260558468" lon="12.942235234825299"><ele>547.0</ele><time>2026-04-18T10:47:35.999Z</time></trkpt><trkpt lat="43.17418186531" lon="12.942353132770872"><ele>546.8000000000001</ele><time>2026-04-18T10:47:36.999Z</time></trkpt><trkpt lat="43.17426024464783" lon="12.942450450280546"><ele>546.6</ele><time>2026-04-18T10:47:37.999Z</time></trkpt><trkpt lat="43.17434731289478" lon="12.942530043586045"><ele>546.4000000000001</ele><time>2026-04-18T10:47:38.999Z</time></trkpt><trkpt lat="43.174441596845554" lon="12.942604863426705"><ele>546.2</ele><time>2026-04-18T10:47:39.999Z</time></trkpt><trkpt lat="43.17454537789683" lon="12.94270684939911"><ele>546.0</ele><time>2026-04-18T10:47:40.999Z</time></trkpt><trkpt lat="43.17463685727588" lon="12.94275598403373"><ele>546.0</ele><time>2026-04-18T10:47:41.999Z</time></trkpt><trkpt lat="43.17472309152936" lon="12.942770563625611"><ele>546.0</ele><time>2026-04-18T10:47:42.999Z</time></trkpt><trkpt lat="43.17481878971601" lon="12.942811641596315"><ele>546.0</ele><time>2026-04-18T10:47:43.999Z</time></trkpt><trkpt lat="43.174923117595526" lon="12.9428587956151"><ele>546.0</ele><time>2026-04-18T10:47:44.999Z</time></trkpt><trkpt lat="43.17501155172868" lon="12.942895247904495"><ele>546.0</ele><time>2026-04-18T10:47:45.999Z</time></trkpt><trkpt lat="43.175115772966315" lon="12.942942847079104"><ele>542.5</ele><time>2026-04-18T10:47:46.999Z</time></trkpt><trkpt lat="43.175220271902674" lon="12.94298771416374"><ele>539.0</ele><time>2026-04-18T10:47:47.999Z</time></trkpt><trkpt lat="43.17531581063676" lon="12.943017512368918"><ele>535.5</ele><time>2026-04-18T10:47:48.999Z</time></trkpt><trkpt lat="43.17543559471629" lon="12.943036334473847"><ele>532.0</ele><time>2026-04-18T10:47:49.999Z</time></trkpt><trkpt lat="43.17556818000588" lon="12.943042616824275"><ele>529.25</ele><time>2026-04-18T10:47:50.999Z</time></trkpt><trkpt lat="43.175702067646576" lon="12.943044976567313"><ele>526.5</ele><time>2026-04-18T10:47:51.999Z</time></trkpt><trkpt lat="43.175813089732955" lon="12.943049194063802"><ele>523.75</ele><time>2026-04-18T10:47:52.999Z</time></trkpt><trkpt lat="43.1759417590178" lon="12.943057298401904"><ele>521.0</ele><time>2026-04-18T10:47:53.999Z</time></trkpt><trkpt lat="43.17607218409468" lon="12.943064113636732"><ele>521.0</ele><time>2026-04-18T10:47:54.999Z</time></trkpt><trkpt lat="43.17620509221761" lon="12.943072969897047"><ele>521.0</ele><time>2026-04-18T10:47:55.999Z</time></trkpt><trkpt lat="43.176343744501445" lon="12.943078181907547"><ele>521.0</ele><time>2026-04-18T10:47:56.999Z</time></trkpt><trkpt lat="43.176483290077186" lon="12.943083436168063"><ele>521.0</ele><time>2026-04-18T10:47:57.999Z</time></trkpt><trkpt lat="43.17661940194483" lon="12.94308880610176"><ele>518.75</ele><time>2026-04-18T10:47:58.999Z</time></trkpt><trkpt lat="43.17674723515645" lon="12.943091590210406"><ele>516.5</ele><time>2026-04-18T10:47:59.999Z</time></trkpt><trkpt lat="43.17687650999146" lon="12.943093062855162"><ele>514.25</ele><time>2026-04-18T10:48:00.999Z</time></trkpt><trkpt lat="43.17702342663253" lon="12.943096082866047"><ele>512.0</ele><time>2026-04-18T10:48:01.999Z</time></trkpt><trkpt lat="43.17715064969031" lon="12.943099517246928"><ele>512.0</ele><time>2026-04-18T10:48:02.999Z</time></trkpt><trkpt lat="43.17727505650402" lon="12.943099583701091"><ele>512.0</ele><time>2026-04-18T10:48:03.999Z</time></trkpt><trkpt lat="43.17740250168531" lon="12.943084737173326"><ele>512.0</ele><time>2026-04-18T10:48:04.999Z</time></trkpt><trkpt lat="43.17753651083312" lon="12.943069963911839"><ele>512.0</ele><time>2026-04-18T10:48:05.999Z</time></trkpt><trkpt lat="43.177671493976106" lon="12.943047953418853"><ele>511.5</ele><time>2026-04-18T10:48:06.999Z</time></trkpt><trkpt lat="43.17779869260708" lon="12.943016481869543"><ele>511.0</ele><time>2026-04-18T10:48:07.999Z</time></trkpt><trkpt lat="43.1779274014492" lon="12.942996836475436"><ele>510.5</ele><time>2026-04-18T10:48:08.999Z</time></trkpt><trkpt lat="43.17805495944218" lon="12.942974827427681"><ele>510.0</ele><time>2026-04-18T10:48:09.999Z</time></trkpt><trkpt lat="43.17816518757419" lon="12.942957467451631"><ele>509.0</ele><time>2026-04-18T10:48:10.999Z</time></trkpt><trkpt lat="43.17828571947359" lon="12.942923709845722"><ele>508.0</ele><time>2026-04-18T10:48:11.999Z</time></trkpt><trkpt lat="43.17841490370465" lon="12.942890343111618"><ele>507.0</ele><time>2026-04-18T10:48:12.999Z</time></trkpt><trkpt lat="43.17853630728718" lon="12.94287079760707"><ele>506.0</ele><time>2026-04-18T10:48:13.999Z</time></trkpt><trkpt lat="43.17865639977714" lon="12.942825018868955"><ele>506.0</ele><time>2026-04-18T10:48:14.999Z</time></trkpt><trkpt lat="43.17878471758595" lon="12.94276963940513"><ele>506.0</ele><time>2026-04-18T10:48:16Z</time></trkpt><trkpt lat="43.178911448253054" lon="12.942711318388973"><ele>506.0</ele><time>2026-04-18T10:48:17Z</time></trkpt><trkpt lat="43.179039342258484" lon="12.942643045141462"><ele>506.0</ele><time>2026-04-18T10:48:18Z</time></trkpt><trkpt lat="43.17915876372994" lon="12.942580449719381"><ele>501.0</ele><time>2026-04-18T10:48:19Z</time></trkpt><trkpt lat="43.17927328398866" lon="12.942521998382846"><ele>496.0</ele><time>2026-04-18T10:48:20Z</time></trkpt><trkpt lat="43.179389703757614" lon="12.94245886834903"><ele>491.0</ele><time>2026-04-18T10:48:21Z</time></trkpt><trkpt lat="43.179506565225616" lon="12.942400756085933"><ele>486.0</ele><time>2026-04-18T10:48:22Z</time></trkpt><trkpt lat="43.179625657428474" lon="12.942328030611895"><ele>486.0</ele><time>2026-04-18T10:48:23Z</time></trkpt><trkpt lat="43.17973684775241" lon="12.942239950596202"><ele>486.0</ele><time>2026-04-18T10:48:24Z</time></trkpt><trkpt lat="43.179852826401124" lon="12.942161752958068"><ele>486.0</ele><time>2026-04-18T10:48:25Z</time></trkpt><trkpt lat="43.17996650487484" lon="12.942088333148234"><ele>486.0</ele><time>2026-04-18T10:48:26Z</time></trkpt><trkpt lat="43.1800799138859" lon="12.942016433233148"><ele>486.25</ele><time>2026-04-18T10:48:27Z</time></trkpt><trkpt lat="43.18018792168461" lon="12.941954637223542"><ele>486.5</ele><time>2026-04-18T10:48:28Z</time></trkpt><trkpt lat="43.18029307559573" lon="12.941900819651773"><ele>486.75</ele><time>2026-04-18T10:48:29Z</time></trkpt><trkpt lat="43.180396718938475" lon="12.941845375545748"><ele>487.0</ele><time>2026-04-18T10:48:30Z</time></trkpt><trkpt lat="43.180505735310064" lon="12.941785022377449"><ele>487.0</ele><time>2026-04-18T10:48:31Z</time></trkpt><trkpt lat="43.18062012833965" lon="12.941723516492731"><ele>487.0</ele><time>2026-04-18T10:48:32Z</time></trkpt><trkpt lat="43.18074205305984" lon="12.941657111957685"><ele>487.0</ele><time>2026-04-18T10:48:33Z</time></trkpt><trkpt lat="43.180857462826964" lon="12.941595045122357"><ele>487.0</ele><time>2026-04-18T10:48:34Z</time></trkpt><trkpt lat="43.18096379328884" lon="12.941536549374602"><ele>484.00000000000006</ele><time>2026-04-18T10:48:35Z</time></trkpt><trkpt lat="43.18106202112677" lon="12.941480886628108"><ele>481.0</ele><time>2026-04-18T10:48:36Z</time></trkpt><trkpt lat="43.18114658691615" lon="12.94142896239361"><ele>478.0</ele><time>2026-04-18T10:48:37Z</time></trkpt><trkpt lat="43.18122686827586" lon="12.941378238696542"><ele>475.0</ele><time>2026-04-18T10:48:38Z</time></trkpt><trkpt lat="43.18130130039304" lon="12.941333998468647"><ele>472.00000000000006</ele><time>2026-04-18T10:48:39Z</time></trkpt><trkpt lat="43.181368087952805" lon="12.94130548988847"><ele>469.0</ele><time>2026-04-18T10:48:40Z</time></trkpt><trkpt lat="43.18143844763019" lon="12.941272665058337"><ele>467.2</ele><time>2026-04-18T10:48:41Z</time></trkpt><trkpt lat="43.181523806407256" lon="12.94124255056871"><ele>465.4</ele><time>2026-04-18T10:48:42Z</time></trkpt><trkpt lat="43.1816193137529" lon="12.941223438790306"><ele>463.6</ele><time>2026-04-18T10:48:43Z</time></trkpt><trkpt lat="43.18171575299392" lon="12.94121776257581"><ele>461.8</ele><time>2026-04-18T10:48:44Z</time></trkpt><trkpt lat="43.18181614724512" lon="12.941202982584924"><ele>460.0</ele><time>2026-04-18T10:48:45Z</time></trkpt><trkpt lat="43.18191548169002" lon="12.941215396573016"><ele>460.00000000000006</ele><time>2026-04-18T10:48:46Z</time></trkpt><trkpt lat="43.18200593968492" lon="12.941218406443502"><ele>460.0</ele><time>2026-04-18T10:48:47Z</time></trkpt><trkpt lat="43.18208912169449" lon="12.941226638851255"><ele>460.0</ele><time>2026-04-18T10:48:48Z</time></trkpt><trkpt lat="43.18216933716537" lon="12.941204762674863"><ele>460.0</ele><time>2026-04-18T10:48:49Z</time></trkpt><trkpt lat="43.18224402569257" lon="12.941203447152398"><ele>460.00000000000006</ele><time>2026-04-18T10:48:50Z</time></trkpt><trkpt lat="43.182351872060586" lon="12.941191548673768"><ele>460.0</ele><time>2026-04-18T10:48:52Z</time></trkpt><trkpt lat="43.18246519655504" lon="12.941139466644556"><ele>458.5714285714285</ele><time>2026-04-18T10:48:54Z</time></trkpt><trkpt lat="43.18252299427122" lon="12.941104779588164"><ele>457.1428571428571</ele><time>2026-04-18T10:48:55Z</time></trkpt><trkpt lat="43.182590690867734" lon="12.941065346293126"><ele>455.7142857142857</ele><time>2026-04-18T10:48:56Z</time></trkpt><trkpt lat="43.182660414887444" lon="12.941030488928327"><ele>454.2857142857143</ele><time>2026-04-18T10:48:57Z</time></trkpt><trkpt lat="43.18273580864263" lon="12.940990868614358"><ele>452.8571428571429</ele><time>2026-04-18T10:48:58Z</time></trkpt><trkpt lat="43.18280589566354" lon="12.940961652364022"><ele>451.4285714285715</ele><time>2026-04-18T10:48:59Z</time></trkpt><trkpt lat="43.18288489769177" lon="12.940951073576636"><ele>450.00000000000006</ele><time>2026-04-18T10:49:00Z</time></trkpt><trkpt lat="43.18295952508382" lon="12.940971696930916"><ele>450.0</ele><time>2026-04-18T10:49:01Z</time></trkpt><trkpt lat="43.183041021311894" lon="12.940997148244326"><ele>450.0</ele><time>2026-04-18T10:49:02Z</time></trkpt><trkpt lat="43.18312777758536" lon="12.941032039720836"><ele>450.0</ele><time>2026-04-18T10:49:03Z</time></trkpt><trkpt lat="43.18321253983384" lon="12.941060263525266"><ele>450.0</ele><time>2026-04-18T10:49:04Z</time></trkpt><trkpt lat="43.1832992344534" lon="12.941093166822315"><ele>450.0</ele><time>2026-04-18T10:49:05Z</time></trkpt><trkpt lat="43.18337902528715" lon="12.941102591352752"><ele>450.0</ele><time>2026-04-18T10:49:06Z</time></trkpt><trkpt lat="43.183462754002775" lon="12.941141656994922"><ele>449.8333333333333</ele><time>2026-04-18T10:49:07Z</time></trkpt><trkpt lat="43.18353757461576" lon="12.94119979666177"><ele>449.66666666666663</ele><time>2026-04-18T10:49:08Z</time></trkpt><trkpt lat="43.18361745093799" lon="12.941238785838909"><ele>449.5</ele><time>2026-04-18T10:49:09Z</time></trkpt><trkpt lat="43.183694876496716" lon="12.941263968115791"><ele>449.3333333333333</ele><time>2026-04-18T10:49:10Z</time></trkpt><trkpt lat="43.18376579501991" lon="12.941281115848243"><ele>449.16666666666663</ele><time>2026-04-18T10:49:11Z</time></trkpt><trkpt lat="43.183854122717136" lon="12.941307712346305"><ele>449.0</ele><time>2026-04-18T10:49:12Z</time></trkpt><trkpt lat="43.18392435020715" lon="12.94134020702766"><ele>448.99999999999994</ele><time>2026-04-18T10:49:13Z</time></trkpt><trkpt lat="43.183997391761935" lon="12.941375683777943"><ele>449.0</ele><time>2026-04-18T10:49:14Z</time></trkpt><trkpt lat="43.184058228903645" lon="12.941430836712385"><ele>449.0</ele><time>2026-04-18T10:49:15Z</time></trkpt><trkpt lat="43.18412415780765" lon="12.941465239738557"><ele>449.0</ele><time>2026-04-18T10:49:16Z</time></trkpt><trkpt lat="43.18419593059379" lon="12.941478971581091"><ele>448.99999999999994</ele><time>2026-04-18T10:49:17Z</time></trkpt><trkpt lat="43.184297887861646" lon="12.94153274353224"><ele>449.0</ele><time>2026-04-18T10:49:19Z</time></trkpt><trkpt lat="43.184381797640405" lon="12.94159186868415"><ele>448.75</ele><time>2026-04-18T10:49:21Z</time></trkpt><trkpt lat="43.184456070822286" lon="12.941608153386104"><ele>448.5</ele><time>2026-04-18T10:49:23Z</time></trkpt><trkpt lat="43.18451435990323" lon="12.94137541476533"><ele>448.25</ele><time>2026-04-18T10:49:26Z</time></trkpt><trkpt lat="43.18451106812887" lon="12.941238701827768"><ele>448.0</ele><time>2026-04-18T10:49:27Z</time></trkpt><trkpt lat="43.18454069734035" lon="12.941080028541132"><ele>448.6666666666667</ele><time>2026-04-18T10:49:28Z</time></trkpt><trkpt lat="43.18454185969498" lon="12.940878506054343"><ele>449.33333333333337</ele><time>2026-04-18T10:49:29Z</time></trkpt><trkpt lat="43.18455711948562" lon="12.940661892851224"><ele>450.0</ele><time>2026-04-18T10:49:30Z</time></trkpt><trkpt lat="43.1845717575659" lon="12.940440545616537"><ele>450.0</ele><time>2026-04-18T10:49:31Z</time></trkpt><trkpt lat="43.18459041246529" lon="12.940214390183115"><ele>450.0</ele><time>2026-04-18T10:49:32Z</time></trkpt><trkpt lat="43.1846017600913" lon="12.94000435867696"><ele>450.0</ele><time>2026-04-18T10:49:33Z</time></trkpt><trkpt lat="43.18463728320902" lon="12.939798958426865"><ele>449.75</ele><time>2026-04-18T10:49:34Z</time></trkpt><trkpt lat="43.18465032712106" lon="12.939619849420094"><ele>449.5</ele><time>2026-04-18T10:49:35Z</time></trkpt><trkpt lat="43.18466357620071" lon="12.93942564864126"><ele>449.25</ele><time>2026-04-18T10:49:36Z</time></trkpt><trkpt lat="43.1846702204487" lon="12.939256642555137"><ele>449.0</ele><time>2026-04-18T10:49:37Z</time></trkpt><trkpt lat="43.18467146748875" lon="12.939106703766086"><ele>448.79999999999995</ele><time>2026-04-18T10:49:38Z</time></trkpt><trkpt lat="43.18467089001079" lon="12.938949163085741"><ele>448.59999999999997</ele><time>2026-04-18T10:49:39Z</time></trkpt><trkpt lat="43.18466878838672" lon="12.938792072292"><ele>448.4</ele><time>2026-04-18T10:49:40Z</time></trkpt><trkpt lat="43.18466676702675" lon="12.938640981066317"><ele>448.2</ele><time>2026-04-18T10:49:41Z</time></trkpt><trkpt lat="43.18466426826177" lon="12.938496565595553"><ele>448.0</ele><time>2026-04-18T10:49:42Z</time></trkpt><trkpt lat="43.18466059157712" lon="12.938339818795663"><ele>448.0</ele><time>2026-04-18T10:49:43Z</time></trkpt><trkpt lat="43.184655789774354" lon="12.938188350327916"><ele>447.99999999999994</ele><time>2026-04-18T10:49:44Z</time></trkpt><trkpt lat="43.184651071907496" lon="12.938039529540399"><ele>447.99999999999994</ele><time>2026-04-18T10:49:45Z</time></trkpt><trkpt lat="43.184646092483085" lon="12.93788245815945"><ele>448.0</ele><time>2026-04-18T10:49:46Z</time></trkpt><trkpt lat="43.184627630562694" lon="12.937737384685986"><ele>448.0</ele><time>2026-04-18T10:49:47Z</time></trkpt><trkpt lat="43.184624695077396" lon="12.937580301155064"><ele>448.2</ele><time>2026-04-18T10:49:48Z</time></trkpt><trkpt lat="43.18462692973309" lon="12.937445146596762"><ele>448.4</ele><time>2026-04-18T10:49:49Z</time></trkpt><trkpt lat="43.18463255402839" lon="12.937301203314126"><ele>448.59999999999997</ele><time>2026-04-18T10:49:50Z</time></trkpt><trkpt lat="43.18463290672797" lon="12.937170244762557"><ele>448.79999999999995</ele><time>2026-04-18T10:49:51Z</time></trkpt><trkpt lat="43.18463369280662" lon="12.937047006787289"><ele>449.0</ele><time>2026-04-18T10:49:52Z</time></trkpt><trkpt lat="43.18464026855746" lon="12.936930578198687"><ele>448.99999999999994</ele><time>2026-04-18T10:49:53Z</time></trkpt><trkpt lat="43.18464036071907" lon="12.936831145185"><ele>449.0</ele><time>2026-04-18T10:49:54Z</time></trkpt><trkpt lat="43.184658889055434" lon="12.936740447380268"><ele>449.0</ele><time>2026-04-18T10:49:55Z</time></trkpt><trkpt lat="43.18464820310884" lon="12.93664191973138"><ele>449.0</ele><time>2026-04-18T10:49:56Z</time></trkpt><trkpt lat="43.18470068743042" lon="12.936575601862485"><ele>448.99999999999994</ele><time>2026-04-18T10:49:57Z</time></trkpt><trkpt lat="43.18478746247179" lon="12.936534267396995"><ele>449.0</ele><time>2026-04-18T10:49:59Z</time></trkpt><trkpt lat="43.18471779670269" lon="12.936624911485891"><ele>448.99999999999994</ele><time>2026-04-18T10:50:06Z</time></trkpt><trkpt lat="43.18468088213653" lon="12.936728974112143"><ele>449.0</ele><time>2026-04-18T10:50:08Z</time></trkpt><trkpt lat="43.18465319578637" lon="12.93684810010773"><ele>449.0</ele><time>2026-04-18T10:50:13Z</time></trkpt><trkpt lat="43.184664839094765" lon="12.936937942997703"><ele>449.0</ele><time>2026-04-18T10:50:17Z</time></trkpt><trkpt lat="43.184694347074554" lon="12.936835466675804"><ele>448.99999999999994</ele><time>2026-04-18T10:50:25Z</time></trkpt><trkpt lat="43.184735189977026" lon="12.936759766828898"><ele>449.0</ele><time>2026-04-18T10:50:28Z</time></trkpt><trkpt lat="43.184769867825985" lon="12.936648308969051"><ele>449.3333333333333</ele><time>2026-04-18T10:50:32Z</time></trkpt><trkpt lat="43.184691997060135" lon="12.93669229569292"><ele>449.66666666666663</ele><time>2026-04-18T10:51:14Z</time></trkpt><trkpt lat="43.18475299810793" lon="12.936603445463254"><ele>450.0</ele><time>2026-04-18T10:51:34Z</time></trkpt><trkpt lat="43.184772645316244" lon="12.936497603074844"><ele>450.33333333333337</ele><time>2026-04-18T10:51:38Z</time></trkpt><trkpt lat="43.1847302759763" lon="12.936570948388823"><ele>450.6666666666667</ele><time>2026-04-18T10:52:11Z</time></trkpt><trkpt lat="43.18473134001145" lon="12.936461473656344"><ele>451.0</ele><time>2026-04-18T10:52:23Z</time></trkpt><trkpt lat="43.18473043477437" lon="12.936374598283747"><ele>451.0</ele><time>2026-04-18T10:52:28Z</time></trkpt><trkpt lat="43.184779513196055" lon="12.936428792054816"><ele>451.0</ele><time>2026-04-18T10:53:48Z</time></trkpt><trkpt lat="43.18480242659339" lon="12.93651230425524"><ele>451.0</ele><time>2026-04-18T10:54:10Z</time></trkpt><trkpt lat="43.18476052325295" lon="12.936587346038799"><ele>451.0</ele><time>2026-04-18T10:54:27Z</time></trkpt><trkpt lat="43.18479423941085" lon="12.936512185104359"><ele>451.0</ele><time>2026-04-18T10:54:37Z</time></trkpt><trkpt lat="43.18484983334862" lon="12.936392934362933"><ele>451.0</ele><time>2026-04-18T10:55:14Z</time></trkpt><trkpt lat="43.184788595251376" lon="12.936457657972344"><ele>451.0</ele><time>2026-04-18T10:56:28Z</time></trkpt><trkpt lat="43.18473891688893" lon="12.936522250850192"><ele>451.0</ele><time>2026-04-18T10:56:36Z</time></trkpt><trkpt lat="43.18465430935385" lon="12.936659175654935"><ele>451.0</ele><time>2026-04-18T10:56:38Z</time></trkpt><trkpt lat="43.184622947722616" lon="12.936771317281563"><ele>451.0</ele><time>2026-04-18T10:56:39Z</time></trkpt><trkpt lat="43.184610382313885" lon="12.936901723386653"><ele>451.0</ele><time>2026-04-18T10:56:40Z</time></trkpt><trkpt lat="43.18460401122702" lon="12.9370433694431"><ele>451.0</ele><time>2026-04-18T10:56:41Z</time></trkpt><trkpt lat="43.18459035041584" lon="12.937211774361094"><ele>450.5</ele><time>2026-04-18T10:56:42Z</time></trkpt><trkpt lat="43.18461990538992" lon="12.937442033063286"><ele>450.0</ele><time>2026-04-18T10:56:43Z</time></trkpt><trkpt lat="43.18460679654166" lon="12.937622785783708"><ele>449.5</ele><time>2026-04-18T10:56:44Z</time></trkpt><trkpt lat="43.1846096979581" lon="12.93777531431834"><ele>449.0</ele><time>2026-04-18T10:56:45Z</time></trkpt><trkpt lat="43.18461407093925" lon="12.937923836832372"><ele>448.79999999999995</ele><time>2026-04-18T10:56:46Z</time></trkpt><trkpt lat="43.18461899723152" lon="12.93807923223318"><ele>448.59999999999997</ele><time>2026-04-18T10:56:47Z</time></trkpt><trkpt lat="43.184623825835246" lon="12.938231546101095"><ele>448.4</ele><time>2026-04-18T10:56:48Z</time></trkpt><trkpt lat="43.18464345081389" lon="12.938379958024408"><ele>448.2</ele><time>2026-04-18T10:56:49Z</time></trkpt><trkpt lat="43.18464663462677" lon="12.938535524056636"><ele>448.0</ele><time>2026-04-18T10:56:50Z</time></trkpt><trkpt lat="43.18463428743382" lon="12.938702875942969"><ele>448.0</ele><time>2026-04-18T10:56:51Z</time></trkpt><trkpt lat="43.18463645654915" lon="12.938865011477379"><ele>448.0</ele><time>2026-04-18T10:56:52Z</time></trkpt><trkpt lat="43.184646646766296" lon="12.939028901997444"><ele>448.0</ele><time>2026-04-18T10:56:53Z</time></trkpt><trkpt lat="43.18465291548947" lon="12.939196701091891"><ele>448.0</ele><time>2026-04-18T10:56:54Z</time></trkpt><trkpt lat="43.18464816703104" lon="12.939369204197112"><ele>448.25</ele><time>2026-04-18T10:56:55Z</time></trkpt><trkpt lat="43.18462448401582" lon="12.939538527172077"><ele>448.5</ele><time>2026-04-18T10:56:56Z</time></trkpt><trkpt lat="43.18461516624182" lon="12.939706821409633"><ele>448.75</ele><time>2026-04-18T10:56:57Z</time></trkpt><trkpt lat="43.18460785420705" lon="12.939873379507969"><ele>449.0</ele><time>2026-04-18T10:56:58Z</time></trkpt><trkpt lat="43.18460099528581" lon="12.940039079259183"><ele>449.25</ele><time>2026-04-18T10:56:59Z</time></trkpt><trkpt lat="43.18458987032298" lon="12.940204843977757"><ele>449.5</ele><time>2026-04-18T10:57:00Z</time></trkpt><trkpt lat="43.18457580033036" lon="12.940365222723578"><ele>449.75</ele><time>2026-04-18T10:57:01Z</time></trkpt><trkpt lat="43.184564671925315" lon="12.940525422149351"><ele>450.0</ele><time>2026-04-18T10:57:02Z</time></trkpt><trkpt lat="43.184551575965706" lon="12.940679032456261"><ele>450.0</ele><time>2026-04-18T10:57:03Z</time></trkpt><trkpt lat="43.18453128960922" lon="12.940837166617017"><ele>450.0</ele><time>2026-04-18T10:57:04Z</time></trkpt><trkpt lat="43.18451454331373" lon="12.940982041156095"><ele>450.0</ele><time>2026-04-18T10:57:05Z</time></trkpt><trkpt lat="43.18450176684676" lon="12.941115209560035"><ele>450.0</ele><time>2026-04-18T10:57:06Z</time></trkpt><trkpt lat="43.18448770315898" lon="12.941235808077467"><ele>450.0</ele><time>2026-04-18T10:57:07Z</time></trkpt><trkpt lat="43.18445664669146" lon="12.941354348904738"><ele>449.6</ele><time>2026-04-18T10:57:08Z</time></trkpt><trkpt lat="43.18447824157164" lon="12.941451722342887"><ele>449.2</ele><time>2026-04-18T10:57:09Z</time></trkpt><trkpt lat="43.184582986266264" lon="12.941612286747668"><ele>448.79999999999995</ele><time>2026-04-18T10:57:11Z</time></trkpt><trkpt lat="43.184662068343904" lon="12.941596294119387"><ele>448.4</ele><time>2026-04-18T10:57:12Z</time></trkpt><trkpt lat="43.18474900633838" lon="12.941582630614048"><ele>448.0</ele><time>2026-04-18T10:57:13Z</time></trkpt><trkpt lat="43.18484186884619" lon="12.941562086364572"><ele>448.0</ele><time>2026-04-18T10:57:14Z</time></trkpt><trkpt lat="43.18494113454332" lon="12.94153948337633"><ele>447.99999999999994</ele><time>2026-04-18T10:57:15Z</time></trkpt><trkpt lat="43.18504681714658" lon="12.941516372113183"><ele>447.99999999999994</ele><time>2026-04-18T10:57:16Z</time></trkpt><trkpt lat="43.18515471313922" lon="12.941492626842017"><ele>448.0</ele><time>2026-04-18T10:57:17Z</time></trkpt><trkpt lat="43.185263051189544" lon="12.941470346228288"><ele>448.0</ele><time>2026-04-18T10:57:18Z</time></trkpt><trkpt lat="43.18537639293732" lon="12.941468741702248"><ele>448.0</ele><time>2026-04-18T10:57:19Z</time></trkpt><trkpt lat="43.18549070974553" lon="12.941425262802849"><ele>448.0</ele><time>2026-04-18T10:57:20Z</time></trkpt><trkpt lat="43.185609965765885" lon="12.94141017273162"><ele>448.0</ele><time>2026-04-18T10:57:21Z</time></trkpt><trkpt lat="43.18573195979521" lon="12.94139567619453"><ele>448.0</ele><time>2026-04-18T10:57:22Z</time></trkpt><trkpt lat="43.18585388764514" lon="12.941384918216219"><ele>447.75</ele><time>2026-04-18T10:57:23Z</time></trkpt><trkpt lat="43.1859699672065" lon="12.9413556936248"><ele>447.5</ele><time>2026-04-18T10:57:24Z</time></trkpt><trkpt lat="43.18608060881467" lon="12.941307753910348"><ele>447.25</ele><time>2026-04-18T10:57:25Z</time></trkpt><trkpt lat="43.186184800908464" lon="12.941236251295727"><ele>447.0</ele><time>2026-04-18T10:57:26Z</time></trkpt><trkpt lat="43.186275320536836" lon="12.941140255096578"><ele>447.0</ele><time>2026-04-18T10:57:27Z</time></trkpt><trkpt lat="43.18635165062563" lon="12.94102580333756"><ele>447.00000000000006</ele><time>2026-04-18T10:57:28Z</time></trkpt><trkpt lat="43.186405542960706" lon="12.940899957228934"><ele>447.00000000000006</ele><time>2026-04-18T10:57:29Z</time></trkpt><trkpt lat="43.18646113336016" lon="12.94078905643926"><ele>447.0</ele><time>2026-04-18T10:57:30Z</time></trkpt><trkpt lat="43.18651616089078" lon="12.94068447765545"><ele>447.0</ele><time>2026-04-18T10:57:31Z</time></trkpt><trkpt lat="43.18657676489569" lon="12.940594427647612"><ele>447.1666666666667</ele><time>2026-04-18T10:57:32Z</time></trkpt><trkpt lat="43.186637648062394" lon="12.940522536452471"><ele>447.33333333333337</ele><time>2026-04-18T10:57:33Z</time></trkpt><trkpt lat="43.18670165968034" lon="12.940472371187541"><ele>447.5</ele><time>2026-04-18T10:57:34Z</time></trkpt><trkpt lat="43.18676705263867" lon="12.940436175739427"><ele>447.6666666666667</ele><time>2026-04-18T10:57:35Z</time></trkpt><trkpt lat="43.186855272983884" lon="12.94039502418067"><ele>447.83333333333337</ele><time>2026-04-18T10:57:37Z</time></trkpt><trkpt lat="43.18693178194675" lon="12.940365910244088"><ele>448.0</ele><time>2026-04-18T10:57:43Z</time></trkpt><trkpt lat="43.18694401038533" lon="12.940279960206249"><ele>448.0</ele><time>2026-04-18T10:57:45Z</time></trkpt><trkpt lat="43.1869207158014" lon="12.940110868710835"><ele>447.99999999999994</ele><time>2026-04-18T10:57:47Z</time></trkpt><trkpt lat="43.18689341509353" lon="12.940025771013506"><ele>447.99999999999994</ele><time>2026-04-18T10:57:48Z</time></trkpt><trkpt lat="43.18685114384101" lon="12.939901563171832"><ele>448.0</ele><time>2026-04-18T10:57:49Z</time></trkpt><trkpt lat="43.186796921106705" lon="12.939744102475855"><ele>448.0</ele><time>2026-04-18T10:57:50Z</time></trkpt><trkpt lat="43.1867444131399" lon="12.939603123819722"><ele>448.0</ele><time>2026-04-18T10:57:51Z</time></trkpt><trkpt lat="43.186699518682246" lon="12.93952659586529"><ele>448.0</ele><time>2026-04-18T10:57:52Z</time></trkpt><trkpt lat="43.18666665189241" lon="12.939406557202279"><ele>448.0</ele><time>2026-04-18T10:57:54Z</time></trkpt><trkpt lat="43.18636829183267" lon="12.93935767954907"><ele>448.75</ele><time>2026-04-18T10:57:56Z</time></trkpt><trkpt lat="43.186576608176146" lon="12.939241053087244"><ele>449.5</ele><time>2026-04-18T10:57:57Z</time></trkpt><trkpt lat="43.186557167949836" lon="12.939119366867397"><ele>450.25</ele><time>2026-04-18T10:57:58Z</time></trkpt><trkpt lat="43.18654520737777" lon="12.939001054024795"><ele>451.0</ele><time>2026-04-18T10:57:59Z</time></trkpt><trkpt lat="43.18658585654237" lon="12.938671043447036"><ele>454.0</ele><time>2026-04-18T10:58:00Z</time></trkpt><trkpt lat="43.186723852746645" lon="12.9383678981758"><ele>457.0</ele><time>2026-04-18T10:58:01Z</time></trkpt><trkpt lat="43.186840712959864" lon="12.938111525025441"><ele>457.0</ele><time>2026-04-18T10:58:02Z</time></trkpt><trkpt lat="43.18693415928828" lon="12.937900418845498"><ele>457.0</ele><time>2026-04-18T10:58:03Z</time></trkpt><trkpt lat="43.187038115614314" lon="12.937663727163821"><ele>457.0</ele><time>2026-04-18T10:58:04Z</time></trkpt><trkpt lat="43.1871380922811" lon="12.93745166324288"><ele>455.33333333333337</ele><time>2026-04-18T10:58:05Z</time></trkpt><trkpt lat="43.1872363693425" lon="12.937232719115595"><ele>453.66666666666663</ele><time>2026-04-18T10:58:06Z</time></trkpt><trkpt lat="43.18732351793928" lon="12.936993100194027"><ele>452.0</ele><time>2026-04-18T10:58:07Z</time></trkpt><trkpt lat="43.18740140705557" lon="12.936765867162173"><ele>455.0</ele><time>2026-04-18T10:58:08Z</time></trkpt><trkpt lat="43.18745395608893" lon="12.936550866687385"><ele>458.0</ele><time>2026-04-18T10:58:09Z</time></trkpt><trkpt lat="43.18753307536438" lon="12.936342802803107"><ele>461.0</ele><time>2026-04-18T10:58:10Z</time></trkpt><trkpt lat="43.187608337549726" lon="12.936151419589995"><ele>461.0</ele><time>2026-04-18T10:58:11Z</time></trkpt><trkpt lat="43.18767997365855" lon="12.935973159579317"><ele>461.0</ele><time>2026-04-18T10:58:12Z</time></trkpt><trkpt lat="43.18776832282341" lon="12.935810706207285"><ele>461.0</ele><time>2026-04-18T10:58:13Z</time></trkpt><trkpt lat="43.187875629098485" lon="12.935639742758841"><ele>459.75</ele><time>2026-04-18T10:58:14Z</time></trkpt><trkpt lat="43.1879645936652" lon="12.93549217350554"><ele>458.5</ele><time>2026-04-18T10:58:15Z</time></trkpt><trkpt lat="43.18807538056262" lon="12.935339024246993"><ele>457.25</ele><time>2026-04-18T10:58:16Z</time></trkpt><trkpt lat="43.18815048715145" lon="12.9351997092558"><ele>456.0</ele><time>2026-04-18T10:58:17Z</time></trkpt><trkpt lat="43.18825540403524" lon="12.935099979084278"><ele>456.25</ele><time>2026-04-18T10:58:18Z</time></trkpt><trkpt lat="43.18835047907142" lon="12.935006220972658"><ele>456.5</ele><time>2026-04-18T10:58:19Z</time></trkpt><trkpt lat="43.18847260999701" lon="12.934904623638385"><ele>456.75</ele><time>2026-04-18T10:58:20Z</time></trkpt><trkpt lat="43.18859100136804" lon="12.934791010009764"><ele>457.0</ele><time>2026-04-18T10:58:21Z</time></trkpt><trkpt lat="43.18874752426295" lon="12.93469167011275"><ele>457.0</ele><time>2026-04-18T10:58:22Z</time></trkpt><trkpt lat="43.1888904918079" lon="12.934605258342362"><ele>457.0</ele><time>2026-04-18T10:58:23Z</time></trkpt><trkpt lat="43.1890244361686" lon="12.9345097017049"><ele>457.0</ele><time>2026-04-18T10:58:24Z</time></trkpt><trkpt lat="43.189152992133394" lon="12.934415390340881"><ele>456.6666666666667</ele><time>2026-04-18T10:58:25Z</time></trkpt><trkpt lat="43.18929285323919" lon="12.934314113895654"><ele>456.33333333333337</ele><time>2026-04-18T10:58:26Z</time></trkpt><trkpt lat="43.18942565992093" lon="12.934196883560352"><ele>456.0</ele><time>2026-04-18T10:58:27Z</time></trkpt><trkpt lat="43.18955946584274" lon="12.93410850119202"><ele>456.0</ele><time>2026-04-18T10:58:28Z</time></trkpt><trkpt lat="43.189690902237835" lon="12.934017508806734"><ele>456.0</ele><time>2026-04-18T10:58:29Z</time></trkpt><trkpt lat="43.18981360534101" lon="12.933941893633902"><ele>456.0</ele><time>2026-04-18T10:58:30Z</time></trkpt><trkpt lat="43.18994180596238" lon="12.933888637143296"><ele>456.0</ele><time>2026-04-18T10:58:31Z</time></trkpt><trkpt lat="43.19007038042689" lon="12.933858999386263"><ele>457.75</ele><time>2026-04-18T10:58:32Z</time></trkpt><trkpt lat="43.19020100967567" lon="12.933830511584388"><ele>459.5</ele><time>2026-04-18T10:58:33Z</time></trkpt><trkpt lat="43.190322560593245" lon="12.933783500989113"><ele>461.25</ele><time>2026-04-18T10:58:34Z</time></trkpt><trkpt lat="43.190430735478955" lon="12.933716287412288"><ele>463.0</ele><time>2026-04-18T10:58:35Z</time></trkpt><trkpt lat="43.19052618652409" lon="12.93362837461141"><ele>463.0</ele><time>2026-04-18T10:58:36Z</time></trkpt><trkpt lat="43.19059066793217" lon="12.933515108397893"><ele>462.99999999999994</ele><time>2026-04-18T10:58:37Z</time></trkpt><trkpt lat="43.190627722622665" lon="12.933368396489305"><ele>462.99999999999994</ele><time>2026-04-18T10:58:38Z</time></trkpt><trkpt lat="43.19063812330798" lon="12.933218312876214"><ele>463.0</ele><time>2026-04-18T10:58:39Z</time></trkpt><trkpt lat="43.190693693857334" lon="12.933079617564493"><ele>463.0</ele><time>2026-04-18T10:58:40Z</time></trkpt><trkpt lat="43.19078217728652" lon="12.933001392155862"><ele>461.5</ele><time>2026-04-18T10:58:41Z</time></trkpt><trkpt lat="43.190863396400836" lon="12.93292713289662"><ele>460.0</ele><time>2026-04-18T10:58:42Z</time></trkpt><trkpt lat="43.19099018743521" lon="12.932879951939196"><ele>458.5</ele><time>2026-04-18T10:58:43Z</time></trkpt><trkpt lat="43.19112265132605" lon="12.932846118602844"><ele>457.0</ele><time>2026-04-18T10:58:44Z</time></trkpt><trkpt lat="43.19126348865783" lon="12.93278772931394"><ele>457.0</ele><time>2026-04-18T10:58:45Z</time></trkpt><trkpt lat="43.191397561288525" lon="12.932737389117573"><ele>457.0</ele><time>2026-04-18T10:58:46Z</time></trkpt><trkpt lat="43.19154075962244" lon="12.932684248702254"><ele>457.0</ele><time>2026-04-18T10:58:47Z</time></trkpt><trkpt lat="43.191685192115685" lon="12.93261478341413"><ele>457.0</ele><time>2026-04-18T10:58:48Z</time></trkpt><trkpt lat="43.191829111430536" lon="12.93252393674207"><ele>457.25</ele><time>2026-04-18T10:58:49Z</time></trkpt><trkpt lat="43.19197225008231" lon="12.932422883525776"><ele>457.5</ele><time>2026-04-18T10:58:50Z</time></trkpt><trkpt lat="43.19210504652993" lon="12.932331083216784"><ele>457.75</ele><time>2026-04-18T10:58:51Z</time></trkpt><trkpt lat="43.192230633300646" lon="12.932266452389419"><ele>458.0</ele><time>2026-04-18T10:58:52Z</time></trkpt><trkpt lat="43.19237331345579" lon="12.93225846428028"><ele>458.75</ele><time>2026-04-18T10:58:53Z</time></trkpt><trkpt lat="43.192492307924475" lon="12.932303896737052"><ele>459.5</ele><time>2026-04-18T10:58:54Z</time></trkpt><trkpt lat="43.19261850858835" lon="12.932378861217225"><ele>460.25</ele><time>2026-04-18T10:58:55Z</time></trkpt><trkpt lat="43.19277377158645" lon="12.932463289481293"><ele>461.0</ele><time>2026-04-18T10:58:56Z</time></trkpt><trkpt lat="43.19291067299394" lon="12.932555048478331"><ele>464.3333333333333</ele><time>2026-04-18T10:58:57Z</time></trkpt><trkpt lat="43.19309278955529" lon="12.932649076055654"><ele>467.66666666666663</ele><time>2026-04-18T10:58:58Z</time></trkpt><trkpt lat="43.1932968208772" lon="12.932711934863693"><ele>471.0</ele><time>2026-04-18T10:58:59Z</time></trkpt><trkpt lat="43.19349171216212" lon="12.932727772156435"><ele>472.33333333333337</ele><time>2026-04-18T10:59:00Z</time></trkpt><trkpt lat="43.19368017614586" lon="12.93271536889023"><ele>473.6666666666667</ele><time>2026-04-18T10:59:01Z</time></trkpt><trkpt lat="43.19386214248648" lon="12.932693750308315"><ele>475.0</ele><time>2026-04-18T10:59:02Z</time></trkpt><trkpt lat="43.194060101729924" lon="12.932671711091913"><ele>475.6666666666667</ele><time>2026-04-18T10:59:03Z</time></trkpt><trkpt lat="43.194280401153556" lon="12.932666798748842"><ele>476.33333333333337</ele><time>2026-04-18T10:59:04Z</time></trkpt><trkpt lat="43.19448712867802" lon="12.932625165136256"><ele>477.0</ele><time>2026-04-18T10:59:05Z</time></trkpt><trkpt lat="43.19467534501445" lon="12.932588017252483"><ele>475.33333333333337</ele><time>2026-04-18T10:59:06Z</time></trkpt><trkpt lat="43.1948402266417" lon="12.93251505261636"><ele>473.6666666666667</ele><time>2026-04-18T10:59:07Z</time></trkpt><trkpt lat="43.19502893829179" lon="12.93239383532226"><ele>472.0</ele><time>2026-04-18T10:59:08Z</time></trkpt><trkpt lat="43.19520590317655" lon="12.932264164418939"><ele>472.0</ele><time>2026-04-18T10:59:09Z</time></trkpt><trkpt lat="43.19538442774924" lon="12.932150013881904"><ele>472.0</ele><time>2026-04-18T10:59:10Z</time></trkpt><trkpt lat="43.19556166508826" lon="12.932081111928463"><ele>472.0</ele><time>2026-04-18T10:59:11Z</time></trkpt><trkpt lat="43.195758409011866" lon="12.932035465088406"><ele>477.0</ele><time>2026-04-18T10:59:12Z</time></trkpt><trkpt lat="43.195967546896114" lon="12.93200294222001"><ele>482.0</ele><time>2026-04-18T10:59:13Z</time></trkpt><trkpt lat="43.19615558055174" lon="12.93194132410766"><ele>487.0</ele><time>2026-04-18T10:59:14Z</time></trkpt><trkpt lat="43.19630683284273" lon="12.931865079390306"><ele>487.0</ele><time>2026-04-18T10:59:15Z</time></trkpt><trkpt lat="43.19646976935455" lon="12.931782831621637"><ele>487.0</ele><time>2026-04-18T10:59:16Z</time></trkpt><trkpt lat="43.196616327721884" lon="12.931679331653708"><ele>487.0</ele><time>2026-04-18T10:59:17Z</time></trkpt><trkpt lat="43.196758996105885" lon="12.931593880880603"><ele>486.6666666666667</ele><time>2026-04-18T10:59:18Z</time></trkpt><trkpt lat="43.196916367034746" lon="12.931526335058715"><ele>486.33333333333337</ele><time>2026-04-18T10:59:19Z</time></trkpt><trkpt lat="43.197104441903775" lon="12.931478437382125"><ele>486.0</ele><time>2026-04-18T10:59:20Z</time></trkpt><trkpt lat="43.19730243870963" lon="12.931428434435833"><ele>491.66666666666663</ele><time>2026-04-18T10:59:21Z</time></trkpt><trkpt lat="43.19749346070517" lon="12.931363269700197"><ele>497.3333333333333</ele><time>2026-04-18T10:59:22Z</time></trkpt><trkpt lat="43.19769184811857" lon="12.931249565969882"><ele>503.0</ele><time>2026-04-18T10:59:23Z</time></trkpt><trkpt lat="43.19785120000347" lon="12.931198774382592"><ele>503.0</ele><time>2026-04-18T10:59:24Z</time></trkpt><trkpt lat="43.197961533641575" lon="12.931117684149308"><ele>503.0</ele><time>2026-04-18T10:59:25Z</time></trkpt><trkpt lat="43.19808966322865" lon="12.931026030417417"><ele>503.0</ele><time>2026-04-18T10:59:26Z</time></trkpt><trkpt lat="43.19820657428212" lon="12.930926378867937"><ele>503.0</ele><time>2026-04-18T10:59:27Z</time></trkpt><trkpt lat="43.19830556011186" lon="12.930794918732323"><ele>503.3333333333333</ele><time>2026-04-18T10:59:28Z</time></trkpt><trkpt lat="43.198393676000805" lon="12.930626058343536"><ele>503.66666666666663</ele><time>2026-04-18T10:59:29Z</time></trkpt><trkpt lat="43.19846593909344" lon="12.93044003202998"><ele>504.0</ele><time>2026-04-18T10:59:30Z</time></trkpt><trkpt lat="43.19854221158017" lon="12.930258594590326"><ele>504.0</ele><time>2026-04-18T10:59:31Z</time></trkpt><trkpt lat="43.1986366937063" lon="12.9301126422494"><ele>504.0</ele><time>2026-04-18T10:59:32Z</time></trkpt><trkpt lat="43.19875137326599" lon="12.929978226057285"><ele>504.0</ele><time>2026-04-18T10:59:33Z</time></trkpt><trkpt lat="43.198889202098655" lon="12.92983255407713"><ele>503.0</ele><time>2026-04-18T10:59:34Z</time></trkpt><trkpt lat="43.19903564667815" lon="12.929673862012912"><ele>502.0</ele><time>2026-04-18T10:59:35Z</time></trkpt><trkpt lat="43.19918035851137" lon="12.929553709878927"><ele>501.0</ele><time>2026-04-18T10:59:36Z</time></trkpt><trkpt lat="43.19930774188251" lon="12.929440799950731"><ele>501.0</ele><time>2026-04-18T10:59:37Z</time></trkpt><trkpt lat="43.19940606840436" lon="12.929320709848948"><ele>501.0</ele><time>2026-04-18T10:59:38Z</time></trkpt><trkpt lat="43.19949770896514" lon="12.929146768645653"><ele>501.0</ele><time>2026-04-18T10:59:39Z</time></trkpt><trkpt lat="43.199578685497386" lon="12.929001649799961"><ele>501.0</ele><time>2026-04-18T10:59:40Z</time></trkpt><trkpt lat="43.19964312355217" lon="12.928799061499964"><ele>501.0</ele><time>2026-04-18T10:59:41Z</time></trkpt><trkpt lat="43.19973946281749" lon="12.928656988876254"><ele>501.0</ele><time>2026-04-18T10:59:42Z</time></trkpt><trkpt lat="43.19984005614221" lon="12.928533853581818"><ele>501.0</ele><time>2026-04-18T10:59:43Z</time></trkpt><trkpt lat="43.199970318857766" lon="12.928415492842301"><ele>501.0</ele><time>2026-04-18T10:59:44Z</time></trkpt><trkpt lat="43.200116746106076" lon="12.928273213000528"><ele>501.75</ele><time>2026-04-18T10:59:45Z</time></trkpt><trkpt lat="43.20022075698293" lon="12.928181787893724"><ele>502.5</ele><time>2026-04-18T10:59:46Z</time></trkpt><trkpt lat="43.20033584307837" lon="12.928149630396916"><ele>503.25</ele><time>2026-04-18T10:59:47Z</time></trkpt><trkpt lat="43.20047262109171" lon="12.928165924394442"><ele>504.0</ele><time>2026-04-18T10:59:48Z</time></trkpt><trkpt lat="43.20060272072153" lon="12.928214720056085"><ele>505.25</ele><time>2026-04-18T10:59:49Z</time></trkpt><trkpt lat="43.20073233197995" lon="12.92827614218702"><ele>506.5</ele><time>2026-04-18T10:59:50Z</time></trkpt><trkpt lat="43.20088430188215" lon="12.928302998226822"><ele>507.75</ele><time>2026-04-18T10:59:51Z</time></trkpt><trkpt lat="43.20100965422438" lon="12.928342691397638"><ele>509.0</ele><time>2026-04-18T10:59:52Z</time></trkpt><trkpt lat="43.201141316535235" lon="12.928395710595806"><ele>510.5</ele><time>2026-04-18T10:59:53Z</time></trkpt><trkpt lat="43.20126868663404" lon="12.92844564680676"><ele>512.0</ele><time>2026-04-18T10:59:54Z</time></trkpt><trkpt lat="43.201398906394694" lon="12.92849734274512"><ele>513.5</ele><time>2026-04-18T10:59:55Z</time></trkpt><trkpt lat="43.20152522703149" lon="12.92855220150532"><ele>515.0</ele><time>2026-04-18T10:59:56Z</time></trkpt><trkpt lat="43.2016548800027" lon="12.928606840031717"><ele>517.0</ele><time>2026-04-18T10:59:57Z</time></trkpt><trkpt lat="43.201794325831145" lon="12.928674716462936"><ele>519.0</ele><time>2026-04-18T10:59:58Z</time></trkpt><trkpt lat="43.20192213654962" lon="12.928721745916508"><ele>521.0</ele><time>2026-04-18T10:59:59Z</time></trkpt><trkpt lat="43.202036763457" lon="12.928756293199058"><ele>523.0</ele><time>2026-04-18T11:00:00Z</time></trkpt><trkpt lat="43.20216055721749" lon="12.928795919859159"><ele>523.0</ele><time>2026-04-18T11:00:01Z</time></trkpt><trkpt lat="43.202280411915446" lon="12.928795389034102"><ele>523.0</ele><time>2026-04-18T11:00:02Z</time></trkpt><trkpt lat="43.20237763878317" lon="12.928794146975585"><ele>523.0</ele><time>2026-04-18T11:00:03Z</time></trkpt><trkpt lat="43.202471393137756" lon="12.928810676622868"><ele>523.0</ele><time>2026-04-18T11:00:04Z</time></trkpt><trkpt lat="43.202561458266295" lon="12.928851116416403"><ele>523.0</ele><time>2026-04-18T11:00:05Z</time></trkpt><trkpt lat="43.20263677850285" lon="12.928866038129085"><ele>523.8333333333334</ele><time>2026-04-18T11:00:06Z</time></trkpt><trkpt lat="43.202711913719426" lon="12.928880847683045"><ele>524.6666666666667</ele><time>2026-04-18T11:00:07Z</time></trkpt><trkpt lat="43.202782237860895" lon="12.928894708951116"><ele>525.5</ele><time>2026-04-18T11:00:08Z</time></trkpt><trkpt lat="43.202845384519335" lon="12.928907542442854"><ele>526.3333333333334</ele><time>2026-04-18T11:00:09Z</time></trkpt><trkpt lat="43.20292148862403" lon="12.928923135445707"><ele>527.1666666666666</ele><time>2026-04-18T11:00:10Z</time></trkpt><trkpt lat="43.20301345207795" lon="12.92894345706524"><ele>528.0</ele><time>2026-04-18T11:00:11Z</time></trkpt><trkpt lat="43.203099228958" lon="12.928947178206101"><ele>529.1666666666666</ele><time>2026-04-18T11:00:12Z</time></trkpt><trkpt lat="43.20317358413989" lon="12.928988857451598"><ele>530.3333333333334</ele><time>2026-04-18T11:00:13Z</time></trkpt><trkpt lat="43.20323574280524" lon="12.929015059530654"><ele>531.5</ele><time>2026-04-18T11:00:14Z</time></trkpt><trkpt lat="43.20330704436655" lon="12.928971915500533"><ele>532.6666666666667</ele><time>2026-04-18T11:00:15Z</time></trkpt><trkpt lat="43.20337912642679" lon="12.928962715602022"><ele>533.8333333333334</ele><time>2026-04-18T11:00:16Z</time></trkpt><trkpt lat="43.20347140427167" lon="12.928956853959201"><ele>535.0</ele><time>2026-04-18T11:00:17Z</time></trkpt><trkpt lat="43.20355602967201" lon="12.92894694564754"><ele>535.0</ele><time>2026-04-18T11:00:18Z</time></trkpt><trkpt lat="43.20363423411103" lon="12.928928712718857"><ele>535.0</ele><time>2026-04-18T11:00:19Z</time></trkpt><trkpt lat="43.20372012809447" lon="12.92891509214144"><ele>535.0</ele><time>2026-04-18T11:00:20Z</time></trkpt><trkpt lat="43.2038001535572" lon="12.928884592727567"><ele>535.0</ele><time>2026-04-18T11:00:21Z</time></trkpt><trkpt lat="43.203905257989945" lon="12.9288274722958"><ele>535.0</ele><time>2026-04-18T11:00:22Z</time></trkpt><trkpt lat="43.20400337597429" lon="12.92874828260695"><ele>537.0</ele><time>2026-04-18T11:00:23Z</time></trkpt><trkpt lat="43.204078967832565" lon="12.928701408869903"><ele>539.0</ele><time>2026-04-18T11:00:24Z</time></trkpt><trkpt lat="43.204141815126754" lon="12.928621931697194"><ele>541.0</ele><time>2026-04-18T11:00:25Z</time></trkpt><trkpt lat="43.204204067048614" lon="12.928551532342151"><ele>543.0</ele><time>2026-04-18T11:00:26Z</time></trkpt><trkpt lat="43.2042733740882" lon="12.928441743480986"><ele>545.0</ele><time>2026-04-18T11:00:27Z</time></trkpt><trkpt lat="43.2043014108311" lon="12.928341655534224"><ele>547.0</ele><time>2026-04-18T11:00:28Z</time></trkpt><trkpt lat="43.20434449898886" lon="12.9282497704162"><ele>547.0</ele><time>2026-04-18T11:00:29Z</time></trkpt><trkpt lat="43.20443878593952" lon="12.928031358001745"><ele>547.0</ele><time>2026-04-18T11:00:30Z</time></trkpt><trkpt lat="43.204486811817816" lon="12.927911090284175"><ele>547.0</ele><time>2026-04-18T11:00:31Z</time></trkpt><trkpt lat="43.20453102830657" lon="12.9277912343808"><ele>547.0</ele><time>2026-04-18T11:00:33Z</time></trkpt><trkpt lat="43.20455220565924" lon="12.927699607451972"><ele>550.0</ele><time>2026-04-18T11:00:35Z</time></trkpt><trkpt lat="43.20459138833243" lon="12.927551326437547"><ele>553.0</ele><time>2026-04-18T11:00:38Z</time></trkpt><trkpt lat="43.20464569756555" lon="12.927492723930033"><ele>556.0</ele><time>2026-04-18T11:00:41Z</time></trkpt><trkpt lat="43.205236020174674" lon="12.927613039812416"><ele>556.5</ele><time>2026-04-18T11:00:42Z</time></trkpt><trkpt lat="43.20530695665426" lon="12.927593495398952"><ele>557.0</ele><time>2026-04-18T11:00:43Z</time></trkpt><trkpt lat="43.20537787203174" lon="12.92757551253146"><ele>557.5</ele><time>2026-04-18T11:00:44Z</time></trkpt><trkpt lat="43.205464746284946" lon="12.92755251850871"><ele>558.0</ele><time>2026-04-18T11:00:45Z</time></trkpt><trkpt lat="43.20555950811122" lon="12.927526775390323"><ele>558.5</ele><time>2026-04-18T11:00:46Z</time></trkpt><trkpt lat="43.20565362837707" lon="12.927496017500003"><ele>559.0</ele><time>2026-04-18T11:00:47Z</time></trkpt><trkpt lat="43.20576647197949" lon="12.927439558896802"><ele>562.6</ele><time>2026-04-18T11:00:48Z</time></trkpt><trkpt lat="43.2058607998898" lon="12.927401067819622"><ele>566.2</ele><time>2026-04-18T11:00:49Z</time></trkpt><trkpt lat="43.2059620050813" lon="12.927368118052579"><ele>569.8000000000001</ele><time>2026-04-18T11:00:50Z</time></trkpt><trkpt lat="43.20607884293031" lon="12.927353164811679"><ele>573.4</ele><time>2026-04-18T11:00:52Z</time></trkpt><trkpt lat="43.20615992093469" lon="12.927323458931218"><ele>577.0</ele><time>2026-04-18T11:00:53Z</time></trkpt><trkpt lat="43.2062381333501" lon="12.927271016989526"><ele>577.0</ele><time>2026-04-18T11:00:54Z</time></trkpt><trkpt lat="43.206304059422614" lon="12.927253541721454"><ele>577.0</ele><time>2026-04-18T11:00:55Z</time></trkpt><trkpt lat="43.20639553262403" lon="12.927184775204031"><ele>577.0</ele><time>2026-04-18T11:00:56Z</time></trkpt><trkpt lat="43.20645149742947" lon="12.927106642767278"><ele>577.0</ele><time>2026-04-18T11:00:57Z</time></trkpt><trkpt lat="43.206482914581855" lon="12.927008734336574"><ele>577.0</ele><time>2026-04-18T11:00:58Z</time></trkpt><trkpt lat="43.206529901824794" lon="12.926922629875364"><ele>577.0</ele><time>2026-04-18T11:00:59Z</time></trkpt><trkpt lat="43.20660604232718" lon="12.926820996640705"><ele>580.0</ele><time>2026-04-18T11:01:01Z</time></trkpt><trkpt lat="43.2066802236715" lon="12.926765301700106"><ele>583.0</ele><time>2026-04-18T11:01:02Z</time></trkpt><trkpt lat="43.206730585079136" lon="12.926682437448557"><ele>586.0</ele><time>2026-04-18T11:01:03Z</time></trkpt><trkpt lat="43.20677512677726" lon="12.926612768817797"><ele>589.0</ele><time>2026-04-18T11:01:04Z</time></trkpt><trkpt lat="43.206820464580034" lon="12.926544660751958"><ele>592.0</ele><time>2026-04-18T11:01:05Z</time></trkpt><trkpt lat="43.206902630309294" lon="12.926478213351114"><ele>595.0</ele><time>2026-04-18T11:01:07Z</time></trkpt><trkpt lat="43.207021658394304" lon="12.926434680244997"><ele>595.0</ele><time>2026-04-18T11:01:09Z</time></trkpt><trkpt lat="43.20710408326791" lon="12.92641120000098"><ele>595.0</ele><time>2026-04-18T11:01:10Z</time></trkpt><trkpt lat="43.207188232275556" lon="12.92637400426072"><ele>595.0</ele><time>2026-04-18T11:01:11Z</time></trkpt><trkpt lat="43.20727845683879" lon="12.926344041538046"><ele>595.0</ele><time>2026-04-18T11:01:12Z</time></trkpt><trkpt lat="43.20737110901405" lon="12.926315136886538"><ele>595.0</ele><time>2026-04-18T11:01:13Z</time></trkpt><trkpt lat="43.20744130870178" lon="12.926259744449606"><ele>595.0</ele><time>2026-04-18T11:01:14Z</time></trkpt><trkpt lat="43.207519021428254" lon="12.926174547155984"><ele>599.2</ele><time>2026-04-18T11:01:16Z</time></trkpt><trkpt lat="43.20756970574959" lon="12.926093249965321"><ele>603.4</ele><time>2026-04-18T11:01:18Z</time></trkpt><trkpt lat="43.207654263976885" lon="12.926028475021479"><ele>607.6</ele><time>2026-04-18T11:01:20Z</time></trkpt><trkpt lat="43.207797260797605" lon="12.926019769233033"><ele>611.8</ele><time>2026-04-18T11:01:22Z</time></trkpt><trkpt lat="43.207829451218345" lon="12.925921249888194"><ele>616.0</ele><time>2026-04-18T11:01:27Z</time></trkpt><trkpt lat="43.20789734928523" lon="12.925842515303502"><ele>616.0</ele><time>2026-04-18T11:01:30Z</time></trkpt><trkpt lat="43.20797974876453" lon="12.925755675011583"><ele>616.0</ele><time>2026-04-18T11:01:32Z</time></trkpt><trkpt lat="43.20807064909758" lon="12.925698920109356"><ele>616.0</ele><time>2026-04-18T11:01:34Z</time></trkpt><trkpt lat="43.208149858888234" lon="12.925680702299337"><ele>616.0</ele><time>2026-04-18T11:01:35Z</time></trkpt><trkpt lat="43.20822668998737" lon="12.925647097531193"><ele>616.0</ele><time>2026-04-18T11:01:36Z</time></trkpt><trkpt lat="43.20834305684738" lon="12.92559456463468"><ele>620.8</ele><time>2026-04-18T11:01:37Z</time></trkpt><trkpt lat="43.20843295310008" lon="12.925538165493117"><ele>625.6</ele><time>2026-04-18T11:01:38Z</time></trkpt><trkpt lat="43.208523622015804" lon="12.925479004734623"><ele>630.4</ele><time>2026-04-18T11:01:39Z</time></trkpt><trkpt lat="43.208621751950254" lon="12.925445945761565"><ele>635.2</ele><time>2026-04-18T11:01:41Z</time></trkpt><trkpt lat="43.20869848123529" lon="12.925446627773171"><ele>640.0</ele><time>2026-04-18T11:01:42Z</time></trkpt><trkpt lat="43.20879709232165" lon="12.925449362083715"><ele>640.0</ele><time>2026-04-18T11:01:43Z</time></trkpt><trkpt lat="43.20890248180386" lon="12.925452500734485"><ele>640.0</ele><time>2026-04-18T11:01:44Z</time></trkpt><trkpt lat="43.20901875249084" lon="12.925454592385044"><ele>640.0</ele><time>2026-04-18T11:01:45Z</time></trkpt><trkpt lat="43.20910194214634" lon="12.92544325624823"><ele>640.0</ele><time>2026-04-18T11:01:46Z</time></trkpt><trkpt lat="43.20923237995796" lon="12.925408938535526"><ele>640.0</ele><time>2026-04-18T11:01:48Z</time></trkpt><trkpt lat="43.20931682968501" lon="12.925394863177267"><ele>643.8333333333334</ele><time>2026-04-18T11:01:49Z</time></trkpt><trkpt lat="43.209403340384846" lon="12.925407037476733"><ele>647.6666666666667</ele><time>2026-04-18T11:01:50Z</time></trkpt><trkpt lat="43.20949633585073" lon="12.92547155470616"><ele>651.5</ele><time>2026-04-18T11:01:52Z</time></trkpt><trkpt lat="43.209565658997676" lon="12.925485584811987"><ele>655.3333333333334</ele><time>2026-04-18T11:01:54Z</time></trkpt><trkpt lat="43.20965502738905" lon="12.925500928815037"><ele>659.1666666666666</ele><time>2026-04-18T11:01:56Z</time></trkpt><trkpt lat="43.209744292065" lon="12.92550979818207"><ele>663.0</ele><time>2026-04-18T11:02:01Z</time></trkpt><trkpt lat="43.2098331026822" lon="12.92546549528544"><ele>668.3333333333334</ele><time>2026-04-18T11:02:25Z</time></trkpt><trkpt lat="43.20990344518626" lon="12.925414819128353"><ele>673.6666666666666</ele><time>2026-04-18T11:02:28Z</time></trkpt><trkpt lat="43.209964380480066" lon="12.925376225129568"><ele>679.0</ele><time>2026-04-18T11:02:31Z</time></trkpt><trkpt lat="43.21004296975681" lon="12.925333019760204"><ele>684.3333333333333</ele><time>2026-04-18T11:02:34Z</time></trkpt><trkpt lat="43.210118542404494" lon="12.925310163513084"><ele>689.6666666666666</ele><time>2026-04-18T11:02:38Z</time></trkpt><trkpt lat="43.21020881584279" lon="12.925282268480702"><ele>695.0</ele><time>2026-04-18T11:02:41Z</time></trkpt><trkpt lat="43.21036457766721" lon="12.925243574741218"><ele>695.0</ele><time>2026-04-18T11:02:45Z</time></trkpt><trkpt lat="43.21042525261824" lon="12.925191102276903"><ele>695.0</ele><time>2026-04-18T11:02:47Z</time></trkpt><trkpt lat="43.21059036719859" lon="12.925183124583066"><ele>695.0</ele><time>2026-04-18T11:02:51Z</time></trkpt><trkpt lat="43.21066590644957" lon="12.925162893846512"><ele>695.0</ele><time>2026-04-18T11:02:52Z</time></trkpt><trkpt lat="43.21078739529147" lon="12.925137077156672"><ele>695.0</ele><time>2026-04-18T11:02:54Z</time></trkpt><trkpt lat="43.21085077098389" lon="12.925117360642538"><ele>700.5</ele><time>2026-04-18T11:02:55Z</time></trkpt><trkpt lat="43.2109476251035" lon="12.925041443762987"><ele>706.0</ele><time>2026-04-18T11:02:57Z</time></trkpt><trkpt lat="43.211050267986636" lon="12.924987331488966"><ele>711.5</ele><time>2026-04-18T11:02:59Z</time></trkpt><trkpt lat="43.21123929184437" lon="12.925128209598839"><ele>717.0</ele><time>2026-04-18T11:03:14Z</time></trkpt><trkpt lat="43.2113124070833" lon="12.925221308963465"><ele>718.2</ele><time>2026-04-18T11:03:16Z</time></trkpt><trkpt lat="43.21138245813857" lon="12.925315827344784"><ele>719.4000000000001</ele><time>2026-04-18T11:03:18Z</time></trkpt><trkpt lat="43.21144124664996" lon="12.925459358632175"><ele>720.5999999999999</ele><time>2026-04-18T11:03:20Z</time></trkpt><trkpt lat="43.211492123474805" lon="12.925578265765475"><ele>721.8</ele><time>2026-04-18T11:03:22Z</time></trkpt><trkpt lat="43.211521917554165" lon="12.925716183890957"><ele>723.0</ele><time>2026-04-18T11:03:24Z</time></trkpt><trkpt lat="43.21155871645653" lon="12.925844849285594"><ele>728.6666666666666</ele><time>2026-04-18T11:03:26Z</time></trkpt><trkpt lat="43.211572451087996" lon="12.925959965884116"><ele>734.3333333333334</ele><time>2026-04-18T11:03:28Z</time></trkpt><trkpt lat="43.21158222543107" lon="12.926075509721569"><ele>740.0</ele><time>2026-04-18T11:03:30Z</time></trkpt><trkpt lat="43.21162144697389" lon="12.926202599143412"><ele>745.6666666666667</ele><time>2026-04-18T11:03:32Z</time></trkpt><trkpt lat="43.21162641341642" lon="12.926308757872597"><ele>751.3333333333334</ele><time>2026-04-18T11:03:34Z</time></trkpt><trkpt lat="43.21163275463678" lon="12.92639896608473"><ele>757.0</ele><time>2026-04-18T11:03:36Z</time></trkpt><trkpt lat="43.211635612897076" lon="12.926485432908596"><ele>757.0</ele><time>2026-04-18T11:03:38Z</time></trkpt><trkpt lat="43.211651111478815" lon="12.926607405035476"><ele>757.0</ele><time>2026-04-18T11:03:41Z</time></trkpt><trkpt lat="43.21166388800766" lon="12.92674794507196"><ele>757.0</ele><time>2026-04-18T11:03:43Z</time></trkpt><trkpt lat="43.211691564810785" lon="12.926902089032039"><ele>757.0</ele><time>2026-04-18T11:03:45Z</time></trkpt><trkpt lat="43.21169985629112" lon="12.927067919981834"><ele>757.0</ele><time>2026-04-18T11:03:47Z</time></trkpt><trkpt lat="43.211717888262555" lon="12.927174121553039"><ele>760.2</ele><time>2026-04-18T11:03:49Z</time></trkpt><trkpt lat="43.211733416101886" lon="12.92726577042678"><ele>763.4000000000001</ele><time>2026-04-18T11:03:51Z</time></trkpt><trkpt lat="43.21178320261513" lon="12.927372806987117"><ele>766.5999999999999</ele><time>2026-04-18T11:03:53Z</time></trkpt><trkpt lat="43.21181357107603" lon="12.927478161062952"><ele>769.8</ele><time>2026-04-18T11:03:55Z</time></trkpt><trkpt lat="43.21184384851926" lon="12.927659097550231"><ele>773.0</ele><time>2026-04-18T11:03:57Z</time></trkpt><trkpt lat="43.211857022110344" lon="12.92775735344939"><ele>775.1666666666667</ele><time>2026-04-18T11:03:58Z</time></trkpt><trkpt lat="43.21188619574686" lon="12.927839932720309"><ele>777.3333333333334</ele><time>2026-04-18T11:03:59Z</time></trkpt><trkpt lat="43.21194376178059" lon="12.927941577506514"><ele>779.5</ele><time>2026-04-18T11:04:01Z</time></trkpt><trkpt lat="43.21198941513069" lon="12.928030998167774"><ele>781.6666666666667</ele><time>2026-04-18T11:04:03Z</time></trkpt><trkpt lat="43.212029880688654" lon="12.928189508401049"><ele>783.8333333333334</ele><time>2026-04-18T11:04:05Z</time></trkpt><trkpt lat="43.21205049050093" lon="12.92828057724591"><ele>786.0</ele><time>2026-04-18T11:04:06Z</time></trkpt><trkpt lat="43.21211991604552" lon="12.92845088740582"><ele>786.3333333333334</ele><time>2026-04-18T11:04:08Z</time></trkpt><trkpt lat="43.21216066828726" lon="12.928579773658726"><ele>786.6666666666667</ele><time>2026-04-18T11:04:09Z</time></trkpt><trkpt lat="43.21218975676055" lon="12.928676490776716"><ele>787.0</ele><time>2026-04-18T11:04:10Z</time></trkpt><trkpt lat="43.2122192685465" lon="12.92878919231363"><ele>787.3333333333334</ele><time>2026-04-18T11:04:11Z</time></trkpt><trkpt lat="43.21224953783644" lon="12.928886439833516"><ele>787.6666666666667</ele><time>2026-04-18T11:04:12Z</time></trkpt><trkpt lat="43.2122957218267" lon="12.928984909727061"><ele>788.0</ele><time>2026-04-18T11:04:13Z</time></trkpt><trkpt lat="43.21233343396065" lon="12.929092596466116"><ele>788.4</ele><time>2026-04-18T11:04:14Z</time></trkpt><trkpt lat="43.21236839541561" lon="12.929175481430883"><ele>788.8</ele><time>2026-04-18T11:04:15Z</time></trkpt><trkpt lat="43.2124295483966" lon="12.929314063303732"><ele>789.2</ele><time>2026-04-18T11:04:17Z</time></trkpt><trkpt lat="43.21242524136796" lon="12.929456934212018"><ele>789.6</ele><time>2026-04-18T11:04:19Z</time></trkpt><trkpt lat="43.21241060209138" lon="12.929580593916544"><ele>790.0</ele><time>2026-04-18T11:04:21Z</time></trkpt><trkpt lat="43.21242572470326" lon="12.929707801856921"><ele>790.3333333333333</ele><time>2026-04-18T11:04:23Z</time></trkpt><trkpt lat="43.212415203759974" lon="12.929806554076464"><ele>790.6666666666666</ele><time>2026-04-18T11:04:29Z</time></trkpt><trkpt lat="43.21237521171348" lon="12.929878892234315"><ele>791.0</ele><time>2026-04-18T11:04:54Z</time></trkpt><trkpt lat="43.21231522541145" lon="12.929915488729277"><ele>791.3333333333333</ele><time>2026-04-18T11:04:57Z</time></trkpt><trkpt lat="43.21227067444909" lon="12.92999746763641"><ele>791.6666666666666</ele><time>2026-04-18T11:04:59Z</time></trkpt><trkpt lat="43.212202919454626" lon="12.930082420282739"><ele>792.0</ele><time>2026-04-18T11:05:01Z</time></trkpt><trkpt lat="43.212097264466976" lon="12.930179331524473"><ele>789.6</ele><time>2026-04-18T11:05:03Z</time></trkpt><trkpt lat="43.21201003823693" lon="12.930290030053284"><ele>787.2</ele><time>2026-04-18T11:05:05Z</time></trkpt><trkpt lat="43.211956672594006" lon="12.930421725346639"><ele>784.8</ele><time>2026-04-18T11:05:07Z</time></trkpt><trkpt lat="43.21190083538177" lon="12.930487730698186"><ele>782.4</ele><time>2026-04-18T11:05:08Z</time></trkpt><trkpt lat="43.21184538263502" lon="12.93055276267764"><ele>780.0</ele><time>2026-04-18T11:05:09Z</time></trkpt><trkpt lat="43.21176803417871" lon="12.930580932787322"><ele>780.0</ele><time>2026-04-18T11:05:10Z</time></trkpt><trkpt lat="43.21172236785634" lon="12.930650605750234"><ele>780.0</ele><time>2026-04-18T11:05:11Z</time></trkpt><trkpt lat="43.211681671422006" lon="12.930719631956324"><ele>780.0</ele><time>2026-04-18T11:05:12Z</time></trkpt><trkpt lat="43.21163693870705" lon="12.930791434368793"><ele>780.0</ele><time>2026-04-18T11:05:13Z</time></trkpt><trkpt lat="43.21159039956144" lon="12.930856987686065"><ele>780.0</ele><time>2026-04-18T11:05:14Z</time></trkpt><trkpt lat="43.21151264479529" lon="12.930977232003322"><ele>780.0</ele><time>2026-04-18T11:05:16Z</time></trkpt><trkpt lat="43.2114651450247" lon="12.93107123388209"><ele>779.3333333333334</ele><time>2026-04-18T11:05:18Z</time></trkpt><trkpt lat="43.21142718528453" lon="12.931166160188235"><ele>778.6666666666667</ele><time>2026-04-18T11:05:20Z</time></trkpt><trkpt lat="43.211365368905014" lon="12.931212734243736"><ele>778.0</ele><time>2026-04-18T11:05:22Z</time></trkpt><trkpt lat="43.21130065745321" lon="12.93126304318461"><ele>777.3333333333334</ele><time>2026-04-18T11:05:25Z</time></trkpt><trkpt lat="43.211224580907185" lon="12.931334900879726"><ele>776.6666666666667</ele><time>2026-04-18T11:05:28Z</time></trkpt><trkpt lat="43.211144611516694" lon="12.931465013629472"><ele>776.0</ele><time>2026-04-18T11:05:30Z</time></trkpt><trkpt lat="43.21107681299127" lon="12.931545769573802"><ele>776.0</ele><time>2026-04-18T11:05:31Z</time></trkpt><trkpt lat="43.211009282174444" lon="12.931614749084659"><ele>776.0</ele><time>2026-04-18T11:05:32Z</time></trkpt><trkpt lat="43.21094277122811" lon="12.93169651324187"><ele>776.0</ele><time>2026-04-18T11:05:33Z</time></trkpt><trkpt lat="43.21087294052726" lon="12.931792313491181"><ele>776.0</ele><time>2026-04-18T11:05:34Z</time></trkpt><trkpt lat="43.21079674445961" lon="12.931877622488425"><ele>776.0</ele><time>2026-04-18T11:05:35Z</time></trkpt><trkpt lat="43.21070814818574" lon="12.931968825693774"><ele>777.0</ele><time>2026-04-18T11:05:36Z</time></trkpt><trkpt lat="43.210630200869545" lon="12.932072782234245"><ele>778.0</ele><time>2026-04-18T11:05:37Z</time></trkpt><trkpt lat="43.21056835027195" lon="12.93215686540217"><ele>779.0</ele><time>2026-04-18T11:05:38Z</time></trkpt><trkpt lat="43.21051065963143" lon="12.93223671623357"><ele>780.0</ele><time>2026-04-18T11:05:39Z</time></trkpt><trkpt lat="43.21044756181714" lon="12.932325545509578"><ele>781.0</ele><time>2026-04-18T11:05:40Z</time></trkpt><trkpt lat="43.210382750416485" lon="12.93240128762213"><ele>780.9999999999999</ele><time>2026-04-18T11:05:41Z</time></trkpt><trkpt lat="43.21031781107093" lon="12.932459778440188"><ele>781.0</ele><time>2026-04-18T11:05:42Z</time></trkpt><trkpt lat="43.210252446567004" lon="12.932524252133497"><ele>781.0</ele><time>2026-04-18T11:05:43Z</time></trkpt><trkpt lat="43.2101883684738" lon="12.932596185974182"><ele>781.0</ele><time>2026-04-18T11:05:44Z</time></trkpt><trkpt lat="43.21012882227548" lon="12.932668328095156"><ele>780.9999999999999</ele><time>2026-04-18T11:05:45Z</time></trkpt><trkpt lat="43.21007051728603" lon="12.932742892169315"><ele>781.0</ele><time>2026-04-18T11:05:46Z</time></trkpt><trkpt lat="43.21001309881109" lon="12.932811692139195"><ele>780.1666666666666</ele><time>2026-04-18T11:05:47Z</time></trkpt><trkpt lat="43.20995368017979" lon="12.932869146307183"><ele>779.3333333333333</ele><time>2026-04-18T11:05:48Z</time></trkpt><trkpt lat="43.20988801561498" lon="12.932917679005628"><ele>778.5</ele><time>2026-04-18T11:05:49Z</time></trkpt><trkpt lat="43.20982485019831" lon="12.932964508254528"><ele>777.6666666666667</ele><time>2026-04-18T11:05:50Z</time></trkpt><trkpt lat="43.20974378016786" lon="12.933034146111876"><ele>776.8333333333334</ele><time>2026-04-18T11:05:52Z</time></trkpt><trkpt lat="43.20965935753363" lon="12.93312251446756"><ele>776.0</ele><time>2026-04-18T11:05:54Z</time></trkpt><trkpt lat="43.20956012383728" lon="12.933236175500008"><ele>776.0</ele><time>2026-04-18T11:05:56Z</time></trkpt><trkpt lat="43.20945431114932" lon="12.93331769257263"><ele>776.0</ele><time>2026-04-18T11:05:58Z</time></trkpt><trkpt lat="43.20936339389956" lon="12.933390473187496"><ele>776.0</ele><time>2026-04-18T11:06:00Z</time></trkpt><trkpt lat="43.20930759818936" lon="12.933440110051524"><ele>776.0</ele><time>2026-04-18T11:06:01Z</time></trkpt><trkpt lat="43.209265687379364" lon="12.9335090573192"><ele>776.0</ele><time>2026-04-18T11:06:02Z</time></trkpt><trkpt lat="43.209200758310196" lon="12.933667230715258"><ele>773.6666666666667</ele><time>2026-04-18T11:06:04Z</time></trkpt><trkpt lat="43.20916670888973" lon="12.933740292126773"><ele>771.3333333333334</ele><time>2026-04-18T11:06:05Z</time></trkpt><trkpt lat="43.2091147969725" lon="12.933820392364254"><ele>769.0</ele><time>2026-04-18T11:06:06Z</time></trkpt><trkpt lat="43.20906780278075" lon="12.933900555614517"><ele>766.6666666666667</ele><time>2026-04-18T11:06:07Z</time></trkpt><trkpt lat="43.20901818427082" lon="12.93396672867704"><ele>764.3333333333334</ele><time>2026-04-18T11:06:08Z</time></trkpt><trkpt lat="43.20895583937484" lon="12.934034622303127"><ele>762.0</ele><time>2026-04-18T11:06:09Z</time></trkpt><trkpt lat="43.208878119016106" lon="12.934104559166242"><ele>762.0</ele><time>2026-04-18T11:06:10Z</time></trkpt><trkpt lat="43.20880430135758" lon="12.93416643420151"><ele>762.0</ele><time>2026-04-18T11:06:11Z</time></trkpt><trkpt lat="43.20872191220033" lon="12.934233740302334"><ele>762.0</ele><time>2026-04-18T11:06:12Z</time></trkpt><trkpt lat="43.2086343729773" lon="12.934313325418284"><ele>762.0</ele><time>2026-04-18T11:06:13Z</time></trkpt><trkpt lat="43.2085418764038" lon="12.934412231367943"><ele>762.0</ele><time>2026-04-18T11:06:14Z</time></trkpt><trkpt lat="43.20846938216116" lon="12.934510848372298"><ele>758.2</ele><time>2026-04-18T11:06:15Z</time></trkpt><trkpt lat="43.20839372304379" lon="12.934626290653174"><ele>754.4000000000001</ele><time>2026-04-18T11:06:16Z</time></trkpt><trkpt lat="43.20831880119024" lon="12.934716520878156"><ele>750.5999999999999</ele><time>2026-04-18T11:06:17Z</time></trkpt><trkpt lat="43.20823652162869" lon="12.934785653979047"><ele>746.8</ele><time>2026-04-18T11:06:18Z</time></trkpt><trkpt lat="43.20816213472267" lon="12.934879064316373"><ele>743.0</ele><time>2026-04-18T11:06:19Z</time></trkpt><trkpt lat="43.20809194840613" lon="12.934981985818304"><ele>744.0</ele><time>2026-04-18T11:06:21Z</time></trkpt><trkpt lat="43.20804265818569" lon="12.935064177320571"><ele>745.0</ele><time>2026-04-18T11:06:22Z</time></trkpt><trkpt lat="43.20796599029556" lon="12.93510849489375"><ele>746.0</ele><time>2026-04-18T11:06:24Z</time></trkpt><trkpt lat="43.20803478202655" lon="12.935137579923593"><ele>747.0</ele><time>2026-04-18T11:06:26Z</time></trkpt><trkpt lat="43.2081061586833" lon="12.93516109549883"><ele>748.0</ele><time>2026-04-18T11:06:28Z</time></trkpt><trkpt lat="43.20817355284313" lon="12.935182067626597"><ele>749.0</ele><time>2026-04-18T11:06:30Z</time></trkpt><trkpt lat="43.208460109281944" lon="12.935196579383595"><ele>749.0</ele><time>2026-04-18T11:07:01Z</time></trkpt><trkpt lat="43.20857893340022" lon="12.935161573909522"><ele>749.0</ele><time>2026-04-18T11:07:03Z</time></trkpt><trkpt lat="43.20864303566789" lon="12.935152153169259"><ele>749.0</ele><time>2026-04-18T11:07:04Z</time></trkpt><trkpt lat="43.20868608052623" lon="12.935320383478563"><ele>749.0</ele><time>2026-04-18T11:07:05Z</time></trkpt><trkpt lat="43.20878176810173" lon="12.935338342726709"><ele>749.0</ele><time>2026-04-18T11:07:07Z</time></trkpt><trkpt lat="43.208863925671615" lon="12.935354967575217"><ele>749.0</ele><time>2026-04-18T11:07:09Z</time></trkpt><trkpt lat="43.20893236989054" lon="12.935369231688634"><ele>749.0</ele><time>2026-04-18T11:07:11Z</time></trkpt><trkpt lat="43.20901069110916" lon="12.935386106673242"><ele>749.0</ele><time>2026-04-18T11:07:13Z</time></trkpt><trkpt lat="43.20917509328621" lon="12.935406212056161"><ele>749.0</ele><time>2026-04-18T11:07:16Z</time></trkpt><trkpt lat="43.20924614895046" lon="12.93542284265269"><ele>749.0</ele><time>2026-04-18T11:07:17Z</time></trkpt><trkpt lat="43.20935254887034" lon="12.935471294929911"><ele>747.4000000000001</ele><time>2026-04-18T11:07:19Z</time></trkpt><trkpt lat="43.20941589498122" lon="12.935496212421056"><ele>745.8</ele><time>2026-04-18T11:07:22Z</time></trkpt><trkpt lat="43.20949375738789" lon="12.935531504596916"><ele>744.2</ele><time>2026-04-18T11:07:25Z</time></trkpt><trkpt lat="43.20958942535337" lon="12.935575849051224"><ele>742.5999999999999</ele><time>2026-04-18T11:07:27Z</time></trkpt><trkpt lat="43.20969426246289" lon="12.935639924860109"><ele>741.0</ele><time>2026-04-18T11:07:29Z</time></trkpt><trkpt lat="43.209851962597575" lon="12.93557696756988"><ele>737.5999999999999</ele><time>2026-04-18T11:07:31Z</time></trkpt><trkpt lat="43.20999266255051" lon="12.935640644579493"><ele>734.2</ele><time>2026-04-18T11:07:33Z</time></trkpt><trkpt lat="43.21007698763192" lon="12.935638034664716"><ele>730.8</ele><time>2026-04-18T11:07:34Z</time></trkpt><trkpt lat="43.210152390978756" lon="12.935629724245231"><ele>727.4000000000001</ele><time>2026-04-18T11:07:35Z</time></trkpt><trkpt lat="43.21023286173847" lon="12.935623597707586"><ele>724.0</ele><time>2026-04-18T11:07:36Z</time></trkpt><trkpt lat="43.2103281433417" lon="12.935609764484001"><ele>724.0</ele><time>2026-04-18T11:07:37Z</time></trkpt><trkpt lat="43.21044120595902" lon="12.93557303820874"><ele>724.0</ele><time>2026-04-18T11:07:38Z</time></trkpt><trkpt lat="43.210523246620994" lon="12.935528693523764"><ele>724.0</ele><time>2026-04-18T11:07:39Z</time></trkpt><trkpt lat="43.210590736331135" lon="12.935495298633082"><ele>724.0</ele><time>2026-04-18T11:07:40Z</time></trkpt><trkpt lat="43.21066005301033" lon="12.935456466686116"><ele>724.0</ele><time>2026-04-18T11:07:41Z</time></trkpt><trkpt lat="43.21077503028955" lon="12.935373751119325"><ele>719.0</ele><time>2026-04-18T11:07:43Z</time></trkpt><trkpt lat="43.21084083289605" lon="12.935344908390789"><ele>714.0</ele><time>2026-04-18T11:07:44Z</time></trkpt><trkpt lat="43.21095853737248" lon="12.935301945200408"><ele>709.0</ele><time>2026-04-18T11:07:46Z</time></trkpt><trkpt lat="43.21105202613539" lon="12.935284606615692"><ele>704.0</ele><time>2026-04-18T11:07:48Z</time></trkpt><trkpt lat="43.21112050021314" lon="12.935265491367094"><ele>699.0</ele><time>2026-04-18T11:07:50Z</time></trkpt><trkpt lat="43.21138283637575" lon="12.935293853147417"><ele>699.0</ele><time>2026-04-18T11:07:59Z</time></trkpt><trkpt lat="43.21146261975605" lon="12.935273581890625"><ele>699.0</ele><time>2026-04-18T11:08:00Z</time></trkpt><trkpt lat="43.21153714027704" lon="12.935240047399661"><ele>699.0</ele><time>2026-04-18T11:08:01Z</time></trkpt><trkpt lat="43.21160544299535" lon="12.93520698385359"><ele>699.0</ele><time>2026-04-18T11:08:02Z</time></trkpt><trkpt lat="43.211704852629104" lon="12.935161946320024"><ele>699.0</ele><time>2026-04-18T11:08:04Z</time></trkpt><trkpt lat="43.21180430530999" lon="12.935108221917915"><ele>699.0</ele><time>2026-04-18T11:08:06Z</time></trkpt><trkpt lat="43.211879042202014" lon="12.935060198205251"><ele>695.8333333333334</ele><time>2026-04-18T11:08:07Z</time></trkpt><trkpt lat="43.21195687264688" lon="12.935015626112383"><ele>692.6666666666666</ele><time>2026-04-18T11:08:07.999Z</time></trkpt><trkpt lat="43.21203031740011" lon="12.934981759322866"><ele>689.5</ele><time>2026-04-18T11:08:08.999Z</time></trkpt><trkpt lat="43.2121123407938" lon="12.934952268753621"><ele>686.3333333333333</ele><time>2026-04-18T11:08:09.999Z</time></trkpt><trkpt lat="43.21218772830967" lon="12.934930661222223"><ele>683.1666666666666</ele><time>2026-04-18T11:08:10.999Z</time></trkpt><trkpt lat="43.212264685287" lon="12.934889821116958"><ele>680.0</ele><time>2026-04-18T11:08:11.999Z</time></trkpt><trkpt lat="43.212329414232514" lon="12.934854263465636"><ele>675.6666666666666</ele><time>2026-04-18T11:08:12.999Z</time></trkpt><trkpt lat="43.21243494843902" lon="12.934836598700384"><ele>671.3333333333333</ele><time>2026-04-18T11:08:14.999Z</time></trkpt><trkpt lat="43.21250195220523" lon="12.934880630043601"><ele>667.0</ele><time>2026-04-18T11:08:15.999Z</time></trkpt><trkpt lat="43.21256907375647" lon="12.934870399952942"><ele>662.6666666666666</ele><time>2026-04-18T11:08:16.999Z</time></trkpt><trkpt lat="43.212642251829315" lon="12.934834831823624"><ele>658.3333333333334</ele><time>2026-04-18T11:08:17.999Z</time></trkpt><trkpt lat="43.21272404119649" lon="12.934799312178784"><ele>654.0</ele><time>2026-04-18T11:08:18.999Z</time></trkpt><trkpt lat="43.21280378690991" lon="12.934758308710293"><ele>654.0</ele><time>2026-04-18T11:08:19.999Z</time></trkpt><trkpt lat="43.21288746141943" lon="12.934714658468138"><ele>654.0</ele><time>2026-04-18T11:08:20.999Z</time></trkpt><trkpt lat="43.212974458515994" lon="12.93467510445548"><ele>654.0</ele><time>2026-04-18T11:08:21.999Z</time></trkpt><trkpt lat="43.213069187590456" lon="12.934623290011148"><ele>654.0</ele><time>2026-04-18T11:08:22.999Z</time></trkpt><trkpt lat="43.21316940245465" lon="12.934587220746756"><ele>654.0</ele><time>2026-04-18T11:08:23.999Z</time></trkpt><trkpt lat="43.213270483837924" lon="12.934552590520218"><ele>651.2</ele><time>2026-04-18T11:08:24.999Z</time></trkpt><trkpt lat="43.21337402504034" lon="12.934532223574902"><ele>648.4000000000001</ele><time>2026-04-18T11:08:25.999Z</time></trkpt><trkpt lat="43.21348329626785" lon="12.93451735155957"><ele>645.6</ele><time>2026-04-18T11:08:26.999Z</time></trkpt><trkpt lat="43.213591303894226" lon="12.934495375083712"><ele>642.8</ele><time>2026-04-18T11:08:27.999Z</time></trkpt><trkpt lat="43.21370300366516" lon="12.934472991976374"><ele>640.0</ele><time>2026-04-18T11:08:28.999Z</time></trkpt><trkpt lat="43.213809714011035" lon="12.934453110557353"><ele>640.0</ele><time>2026-04-18T11:08:29.999Z</time></trkpt><trkpt lat="43.213914056658346" lon="12.934446023665668"><ele>640.0</ele><time>2026-04-18T11:08:30.999Z</time></trkpt><trkpt lat="43.21401754544722" lon="12.934440520891124"><ele>640.0</ele><time>2026-04-18T11:08:31.999Z</time></trkpt><trkpt lat="43.21411722523818" lon="12.934443331671034"><ele>640.0</ele><time>2026-04-18T11:08:32.999Z</time></trkpt><trkpt lat="43.214214574280724" lon="12.934441059077663"><ele>640.0</ele><time>2026-04-18T11:08:33.999Z</time></trkpt><trkpt lat="43.21430519125236" lon="12.934424723704694"><ele>639.1666666666667</ele><time>2026-04-18T11:08:34.999Z</time></trkpt><trkpt lat="43.21439077348656" lon="12.9344199104082"><ele>638.3333333333334</ele><time>2026-04-18T11:08:35.999Z</time></trkpt><trkpt lat="43.21447276017291" lon="12.934396507225728"><ele>637.5</ele><time>2026-04-18T11:08:36.999Z</time></trkpt><trkpt lat="43.214552797744474" lon="12.93438182656399"><ele>636.6666666666666</ele><time>2026-04-18T11:08:37.999Z</time></trkpt><trkpt lat="43.21462763497789" lon="12.934380655622464"><ele>635.8333333333333</ele><time>2026-04-18T11:08:38.999Z</time></trkpt><trkpt lat="43.214700771093376" lon="12.934381840405827"><ele>635.0</ele><time>2026-04-18T11:08:39.999Z</time></trkpt><trkpt lat="43.214775560155026" lon="12.934372958224838"><ele>634.2857142857142</ele><time>2026-04-18T11:08:40.999Z</time></trkpt><trkpt lat="43.21485168408322" lon="12.934357348912773"><ele>633.5714285714286</ele><time>2026-04-18T11:08:41.999Z</time></trkpt><trkpt lat="43.21492902615477" lon="12.934352542046124"><ele>632.8571428571429</ele><time>2026-04-18T11:08:42.999Z</time></trkpt><trkpt lat="43.215003920245394" lon="12.934357825148913"><ele>632.1428571428571</ele><time>2026-04-18T11:08:43.999Z</time></trkpt><trkpt lat="43.21507772388753" lon="12.934364447668896"><ele>631.4285714285714</ele><time>2026-04-18T11:08:44.999Z</time></trkpt><trkpt lat="43.21514999765347" lon="12.934377224731247"><ele>630.7142857142857</ele><time>2026-04-18T11:08:45.999Z</time></trkpt><trkpt lat="43.21522190611551" lon="12.93439145760615"><ele>630.0</ele><time>2026-04-18T11:08:46.999Z</time></trkpt><trkpt lat="43.215292279590265" lon="12.934403109082997"><ele>630.0</ele><time>2026-04-18T11:08:47.999Z</time></trkpt><trkpt lat="43.21536099840342" lon="12.934423083939109"><ele>630.0</ele><time>2026-04-18T11:08:48.999Z</time></trkpt><trkpt lat="43.215431601231444" lon="12.934441065789523"><ele>630.0</ele><time>2026-04-18T11:08:49.999Z</time></trkpt><trkpt lat="43.215506949470104" lon="12.934434499683546"><ele>630.0</ele><time>2026-04-18T11:08:50.999Z</time></trkpt><trkpt lat="43.21557764694537" lon="12.934442261568453"><ele>630.0</ele><time>2026-04-18T11:08:51.999Z</time></trkpt><trkpt lat="43.215647079897174" lon="12.93445902732903"><ele>630.0</ele><time>2026-04-18T11:08:52.999Z</time></trkpt><trkpt lat="43.21571145690982" lon="12.934482743041341"><ele>630.0</ele><time>2026-04-18T11:08:53.999Z</time></trkpt><trkpt lat="43.21579201126116" lon="12.934480732710941"><ele>628.5</ele><time>2026-04-18T11:08:54.999Z</time></trkpt><trkpt lat="43.21587132321867" lon="12.93447173758008"><ele>627.0</ele><time>2026-04-18T11:08:55.999Z</time></trkpt><trkpt lat="43.21594738108937" lon="12.934474004284944"><ele>625.5</ele><time>2026-04-18T11:08:56.999Z</time></trkpt><trkpt lat="43.21602336081258" lon="12.934466804818976"><ele>624.0</ele><time>2026-04-18T11:08:57.999Z</time></trkpt><trkpt lat="43.21610215066127" lon="12.934460134454971"><ele>622.5</ele><time>2026-04-18T11:08:58.999Z</time></trkpt><trkpt lat="43.216182639059156" lon="12.934450112172888"><ele>621.0</ele><time>2026-04-18T11:08:59.999Z</time></trkpt><trkpt lat="43.21626180718604" lon="12.93444025549775"><ele>621.0</ele><time>2026-04-18T11:09:00.999Z</time></trkpt><trkpt lat="43.21634148914327" lon="12.934430627212677"><ele>621.0</ele><time>2026-04-18T11:09:01.999Z</time></trkpt><trkpt lat="43.21642189710144" lon="12.934438997728472"><ele>621.0</ele><time>2026-04-18T11:09:02.999Z</time></trkpt><trkpt lat="43.216507751884734" lon="12.934430993587867"><ele>621.0</ele><time>2026-04-18T11:09:03.999Z</time></trkpt><trkpt lat="43.216593376087054" lon="12.934438400684874"><ele>621.0</ele><time>2026-04-18T11:09:04.999Z</time></trkpt><trkpt lat="43.2166798957113" lon="12.934428630900358"><ele>621.0</ele><time>2026-04-18T11:09:05.999Z</time></trkpt><trkpt lat="43.216768005773766" lon="12.934418149145085"><ele>619.3333333333334</ele><time>2026-04-18T11:09:06.999Z</time></trkpt><trkpt lat="43.2168584643485" lon="12.934423600908236"><ele>617.6666666666666</ele><time>2026-04-18T11:09:07.999Z</time></trkpt><trkpt lat="43.216943680513154" lon="12.934385172406481"><ele>616.0</ele><time>2026-04-18T11:09:08.999Z</time></trkpt><trkpt lat="43.21703434041024" lon="12.934362118403268"><ele>614.3333333333333</ele><time>2026-04-18T11:09:09.999Z</time></trkpt><trkpt lat="43.21711913453737" lon="12.934320943563666"><ele>612.6666666666666</ele><time>2026-04-18T11:09:10.999Z</time></trkpt><trkpt lat="43.2171990860471" lon="12.934294835914871"><ele>611.0</ele><time>2026-04-18T11:09:11.999Z</time></trkpt><trkpt lat="43.217274286946775" lon="12.934268656612831"><ele>610.5</ele><time>2026-04-18T11:09:12.999Z</time></trkpt><trkpt lat="43.217348749262634" lon="12.934242268103036"><ele>610.0</ele><time>2026-04-18T11:09:13.999Z</time></trkpt><trkpt lat="43.21741915900198" lon="12.934206126340577"><ele>609.5</ele><time>2026-04-18T11:09:14.999Z</time></trkpt><trkpt lat="43.21749699400947" lon="12.934181978228958"><ele>609.0</ele><time>2026-04-18T11:09:15.999Z</time></trkpt><trkpt lat="43.21758010505578" lon="12.934148633167865"><ele>608.5</ele><time>2026-04-18T11:09:16.999Z</time></trkpt><trkpt lat="43.217672857980276" lon="12.934118228780077"><ele>608.0</ele><time>2026-04-18T11:09:17.999Z</time></trkpt><trkpt lat="43.21776832601056" lon="12.934082895246615"><ele>606.8</ele><time>2026-04-18T11:09:18.999Z</time></trkpt><trkpt lat="43.21785553530611" lon="12.934039801134746"><ele>605.5999999999999</ele><time>2026-04-18T11:09:19.999Z</time></trkpt><trkpt lat="43.21793820279802" lon="12.933984454883436"><ele>604.4000000000001</ele><time>2026-04-18T11:09:20.999Z</time></trkpt><trkpt lat="43.21802877288055" lon="12.933939465229765"><ele>603.2</ele><time>2026-04-18T11:09:21.999Z</time></trkpt><trkpt lat="43.21812002176277" lon="12.933896076550532"><ele>602.0</ele><time>2026-04-18T11:09:22.999Z</time></trkpt><trkpt lat="43.21820438031932" lon="12.933840427048409"><ele>600.6666666666666</ele><time>2026-04-18T11:09:23.999Z</time></trkpt><trkpt lat="43.218292567822935" lon="12.933801432061081"><ele>599.3333333333333</ele><time>2026-04-18T11:09:24.999Z</time></trkpt><trkpt lat="43.218378260157436" lon="12.933758222700844"><ele>598.0</ele><time>2026-04-18T11:09:25.999Z</time></trkpt><trkpt lat="43.218461675336144" lon="12.933709932158608"><ele>596.6666666666666</ele><time>2026-04-18T11:09:26.999Z</time></trkpt><trkpt lat="43.21854214107116" lon="12.93366177305966"><ele>595.3333333333334</ele><time>2026-04-18T11:09:27.999Z</time></trkpt><trkpt lat="43.21861596837875" lon="12.93360404666788"><ele>594.0</ele><time>2026-04-18T11:09:28.999Z</time></trkpt><trkpt lat="43.218693619665125" lon="12.933559437015713"><ele>594.0</ele><time>2026-04-18T11:09:29.999Z</time></trkpt><trkpt lat="43.2187725024103" lon="12.933514655483622"><ele>594.0</ele><time>2026-04-18T11:09:30.999Z</time></trkpt><trkpt lat="43.21884747180352" lon="12.93346068606928"><ele>594.0</ele><time>2026-04-18T11:09:31.999Z</time></trkpt><trkpt lat="43.218924169464486" lon="12.933407714790105"><ele>594.0</ele><time>2026-04-18T11:09:32.999Z</time></trkpt><trkpt lat="43.21900076964305" lon="12.933349683158735"><ele>594.0</ele><time>2026-04-18T11:09:34Z</time></trkpt><trkpt lat="43.21907416460089" lon="12.933280258780055"><ele>594.0</ele><time>2026-04-18T11:09:35Z</time></trkpt><trkpt lat="43.21914831192793" lon="12.933207240865944"><ele>592.8333333333334</ele><time>2026-04-18T11:09:36Z</time></trkpt><trkpt lat="43.21922334444684" lon="12.933132483536411"><ele>591.6666666666666</ele><time>2026-04-18T11:09:37Z</time></trkpt><trkpt lat="43.219299138154106" lon="12.93306308422146"><ele>590.5</ele><time>2026-04-18T11:09:38Z</time></trkpt><trkpt lat="43.2193637768985" lon="12.932982856713217"><ele>589.3333333333333</ele><time>2026-04-18T11:09:39Z</time></trkpt><trkpt lat="43.21942517906183" lon="12.932903065286629"><ele>588.1666666666666</ele><time>2026-04-18T11:09:40Z</time></trkpt><trkpt lat="43.21948565752541" lon="12.932827781123063"><ele>587.0</ele><time>2026-04-18T11:09:41Z</time></trkpt><trkpt lat="43.21954641865863" lon="12.93276063160026"><ele>587.0</ele><time>2026-04-18T11:09:42Z</time></trkpt><trkpt lat="43.21960839384315" lon="12.93269815769791"><ele>587.0</ele><time>2026-04-18T11:09:43Z</time></trkpt><trkpt lat="43.21967061163132" lon="12.932643797431412"><ele>587.0</ele><time>2026-04-18T11:09:44Z</time></trkpt><trkpt lat="43.219728527178646" lon="12.93258762250607"><ele>587.0</ele><time>2026-04-18T11:09:45Z</time></trkpt><trkpt lat="43.21978188835312" lon="12.932530789141286"><ele>587.0</ele><time>2026-04-18T11:09:46Z</time></trkpt><trkpt lat="43.21983292430574" lon="12.932478569972679"><ele>587.0</ele><time>2026-04-18T11:09:47Z</time></trkpt><trkpt lat="43.21990985294993" lon="12.932388072869799"><ele>585.6</ele><time>2026-04-18T11:09:49Z</time></trkpt><trkpt lat="43.21996183888795" lon="12.932304220295546"><ele>584.2</ele><time>2026-04-18T11:09:51Z</time></trkpt><trkpt lat="43.22003301371921" lon="12.93224320016272"><ele>582.8</ele><time>2026-04-18T11:09:53Z</time></trkpt><trkpt lat="43.22015165871744" lon="12.932199886900541"><ele>581.4</ele><time>2026-04-18T11:09:55Z</time></trkpt><trkpt lat="43.220256356067765" lon="12.93211661094828"><ele>580.0</ele><time>2026-04-18T11:09:57Z</time></trkpt><trkpt lat="43.220342924159" lon="12.932010885734067"><ele>580.0</ele><time>2026-04-18T11:09:59Z</time></trkpt><trkpt lat="43.2204253327011" lon="12.931928128016622"><ele>580.0</ele><time>2026-04-18T11:10:01Z</time></trkpt><trkpt lat="43.220502058177416" lon="12.931946642091491"><ele>580.0</ele><time>2026-04-18T11:10:02Z</time></trkpt><trkpt lat="43.22055672357391" lon="12.931865857640512"><ele>580.0</ele><time>2026-04-18T11:10:04Z</time></trkpt><trkpt lat="43.22055096508745" lon="12.93171758946728"><ele>580.0</ele><time>2026-04-18T11:10:06Z</time></trkpt><trkpt lat="43.220618562491694" lon="12.931592397092839"><ele>578.0</ele><time>2026-04-18T11:10:08Z</time></trkpt><trkpt lat="43.22069832619846" lon="12.931491240417403"><ele>576.0</ele><time>2026-04-18T11:10:10Z</time></trkpt><trkpt lat="43.22078985317602" lon="12.931413764970266"><ele>574.0</ele><time>2026-04-18T11:10:12Z</time></trkpt><trkpt lat="43.22086032216121" lon="12.931336318952749"><ele>572.0</ele><time>2026-04-18T11:10:14Z</time></trkpt><trkpt lat="43.220961529197254" lon="12.93123186070285"><ele>570.0</ele><time>2026-04-18T11:10:16Z</time></trkpt><trkpt lat="43.22103104977927" lon="12.931177831668636"><ele>570.0</ele><time>2026-04-18T11:10:17Z</time></trkpt><trkpt lat="43.221111981400014" lon="12.931132190434028"><ele>570.0</ele><time>2026-04-18T11:10:18Z</time></trkpt><trkpt lat="43.22118838911254" lon="12.93108481654587"><ele>570.0</ele><time>2026-04-18T11:10:19Z</time></trkpt><trkpt lat="43.221255168350275" lon="12.931019476439783"><ele>570.0</ele><time>2026-04-18T11:10:20Z</time></trkpt><trkpt lat="43.22131716843089" lon="12.930963962786132"><ele>570.0</ele><time>2026-04-18T11:10:21Z</time></trkpt><trkpt lat="43.22139233734828" lon="12.930875943734883"><ele>570.0</ele><time>2026-04-18T11:10:23Z</time></trkpt><trkpt lat="43.221456868610495" lon="12.93078026775424"><ele>568.2857142857142</ele><time>2026-04-18T11:10:25Z</time></trkpt><trkpt lat="43.22148662248615" lon="12.930697774275307"><ele>566.5714285714286</ele><time>2026-04-18T11:10:28Z</time></trkpt><trkpt lat="43.22151093615153" lon="12.930612779130497"><ele>564.8571428571429</ele><time>2026-04-18T11:10:42Z</time></trkpt><trkpt lat="43.22152994758534" lon="12.930522773046016"><ele>563.1428571428571</ele><time>2026-04-18T11:10:55Z</time></trkpt><trkpt lat="43.221589028735536" lon="12.930483557540883"><ele>561.4285714285714</ele><time>2026-04-18T11:11:40Z</time></trkpt><trkpt lat="43.221607545697566" lon="12.930397137015905"><ele>559.7142857142857</ele><time>2026-04-18T11:12:09Z</time></trkpt><trkpt lat="43.22154566736286" lon="12.930375281168335"><ele>558.0</ele><time>2026-04-18T11:12:18Z</time></trkpt><trkpt lat="43.221585066370366" lon="12.930468166474752"><ele>558.0</ele><time>2026-04-18T11:13:37Z</time></trkpt><trkpt lat="43.22167019979585" lon="12.930503643307476"><ele>558.0</ele><time>2026-04-18T11:13:40Z</time></trkpt><trkpt lat="43.22178661340463" lon="12.930522602998488"><ele>558.0</ele><time>2026-04-18T11:13:42Z</time></trkpt><trkpt lat="43.221855331059636" lon="12.930541045935048"><ele>558.0</ele><time>2026-04-18T11:13:43Z</time></trkpt><trkpt lat="43.221941958464924" lon="12.930559770689545"><ele>558.0</ele><time>2026-04-18T11:13:44Z</time></trkpt><trkpt lat="43.2220315111856" lon="12.930591900440469"><ele>558.0</ele><time>2026-04-18T11:13:45Z</time></trkpt><trkpt lat="43.22212135452948" lon="12.930637121021135"><ele>558.0</ele><time>2026-04-18T11:13:46Z</time></trkpt><trkpt lat="43.22220819076362" lon="12.930686064246887"><ele>558.0</ele><time>2026-04-18T11:13:47Z</time></trkpt><trkpt lat="43.222297617385486" lon="12.930730475348179"><ele>558.0</ele><time>2026-04-18T11:13:48Z</time></trkpt><trkpt lat="43.22238733869435" lon="12.930758095967514"><ele>558.0</ele><time>2026-04-18T11:13:49Z</time></trkpt><trkpt lat="43.222488834868116" lon="12.930788428922728"><ele>557.4</ele><time>2026-04-18T11:13:50Z</time></trkpt><trkpt lat="43.222580844231246" lon="12.930817245406821"><ele>556.8</ele><time>2026-04-18T11:13:51Z</time></trkpt><trkpt lat="43.22267450987593" lon="12.930816262740706"><ele>556.2</ele><time>2026-04-18T11:13:52Z</time></trkpt><trkpt lat="43.222774357272804" lon="12.930797850646506"><ele>555.6</ele><time>2026-04-18T11:13:53Z</time></trkpt><trkpt lat="43.22288211661908" lon="12.93077452384736"><ele>555.0</ele><time>2026-04-18T11:13:54Z</time></trkpt><trkpt lat="43.22298287231575" lon="12.93074889161551"><ele>555.0</ele><time>2026-04-18T11:13:55Z</time></trkpt><trkpt lat="43.223078066797044" lon="12.930725333093537"><ele>555.0</ele><time>2026-04-18T11:13:56Z</time></trkpt><trkpt lat="43.22319511825199" lon="12.930709299548761"><ele>555.0</ele><time>2026-04-18T11:13:57Z</time></trkpt><trkpt lat="43.22329052867764" lon="12.93068613375277"><ele>555.0</ele><time>2026-04-18T11:13:58Z</time></trkpt><trkpt lat="43.223389524434104" lon="12.930656046782211"><ele>555.0</ele><time>2026-04-18T11:13:59Z</time></trkpt><trkpt lat="43.223490358289524" lon="12.93063540347955"><ele>554.4</ele><time>2026-04-18T11:14:00Z</time></trkpt><trkpt lat="43.22360328017632" lon="12.930618832469301"><ele>553.8</ele><time>2026-04-18T11:14:01Z</time></trkpt><trkpt lat="43.223713374140864" lon="12.930615671845887"><ele>553.2</ele><time>2026-04-18T11:14:02Z</time></trkpt><trkpt lat="43.22381911434527" lon="12.93062787987788"><ele>552.6</ele><time>2026-04-18T11:14:03Z</time></trkpt><trkpt lat="43.22392387847119" lon="12.930647782615234"><ele>552.0</ele><time>2026-04-18T11:14:04Z</time></trkpt><trkpt lat="43.224037786935575" lon="12.930662241864036"><ele>550.8000000000001</ele><time>2026-04-18T11:14:05Z</time></trkpt><trkpt lat="43.22414827751702" lon="12.930671556730985"><ele>549.6</ele><time>2026-04-18T11:14:06Z</time></trkpt><trkpt lat="43.224254767539094" lon="12.930687308792688"><ele>548.4000000000001</ele><time>2026-04-18T11:14:07Z</time></trkpt><trkpt lat="43.22435456599187" lon="12.930704349874759"><ele>547.2</ele><time>2026-04-18T11:14:08Z</time></trkpt><trkpt lat="43.22445679856396" lon="12.930724332016"><ele>546.0</ele><time>2026-04-18T11:14:09Z</time></trkpt><trkpt lat="43.22457065621268" lon="12.930751911836808"><ele>546.0</ele><time>2026-04-18T11:14:10Z</time></trkpt><trkpt lat="43.22468868060592" lon="12.930777532789982"><ele>546.0</ele><time>2026-04-18T11:14:11Z</time></trkpt><trkpt lat="43.224788999299825" lon="12.930831444454554"><ele>546.0</ele><time>2026-04-18T11:14:12Z</time></trkpt><trkpt lat="43.224871054919326" lon="12.930904661518296"><ele>546.0</ele><time>2026-04-18T11:14:13Z</time></trkpt><trkpt lat="43.22494781485884" lon="12.930984229343006"><ele>546.0</ele><time>2026-04-18T11:14:14Z</time></trkpt><trkpt lat="43.225034252101175" lon="12.93111339045892"><ele>543.6666666666666</ele><time>2026-04-18T11:14:15Z</time></trkpt><trkpt lat="43.22513326963654" lon="12.931264875686537"><ele>541.3333333333333</ele><time>2026-04-18T11:14:16Z</time></trkpt><trkpt lat="43.22522328751848" lon="12.931450300477607"><ele>539.0</ele><time>2026-04-18T11:14:17Z</time></trkpt><trkpt lat="43.22531583562501" lon="12.931638388326084"><ele>542.6666666666666</ele><time>2026-04-18T11:14:18Z</time></trkpt><trkpt lat="43.225404885754664" lon="12.93182459742722"><ele>546.3333333333334</ele><time>2026-04-18T11:14:19Z</time></trkpt><trkpt lat="43.225484329660695" lon="12.93200100507669"><ele>550.0</ele><time>2026-04-18T11:14:20Z</time></trkpt><trkpt lat="43.225589926141716" lon="12.932195778349039"><ele>545.3333333333334</ele><time>2026-04-18T11:14:21Z</time></trkpt><trkpt lat="43.22570161376168" lon="12.932382076365617"><ele>540.6666666666666</ele><time>2026-04-18T11:14:22Z</time></trkpt><trkpt lat="43.225806648921136" lon="12.932574719420318"><ele>536.0</ele><time>2026-04-18T11:14:23Z</time></trkpt><trkpt lat="43.22589724901624" lon="12.932750070099269"><ele>536.0</ele><time>2026-04-18T11:14:24Z</time></trkpt><trkpt lat="43.225980355883266" lon="12.932926378961707"><ele>536.0</ele><time>2026-04-18T11:14:25Z</time></trkpt><trkpt lat="43.2260613865881" lon="12.933079591048028"><ele>536.0</ele><time>2026-04-18T11:14:26Z</time></trkpt><trkpt lat="43.22614286947568" lon="12.93323839753211"><ele>536.0</ele><time>2026-04-18T11:14:27Z</time></trkpt><trkpt lat="43.22622112720344" lon="12.933398415534604"><ele>535.75</ele><time>2026-04-18T11:14:28Z</time></trkpt><trkpt lat="43.22629900575926" lon="12.933553852393212"><ele>535.5</ele><time>2026-04-18T11:14:29Z</time></trkpt><trkpt lat="43.226368978617586" lon="12.933688845790197"><ele>535.25</ele><time>2026-04-18T11:14:30Z</time></trkpt><trkpt lat="43.22642014584146" lon="12.933840294713184"><ele>535.0</ele><time>2026-04-18T11:14:31Z</time></trkpt><trkpt lat="43.22644118827468" lon="12.933982718377198"><ele>535.0</ele><time>2026-04-18T11:14:32Z</time></trkpt><trkpt lat="43.22644284480148" lon="12.934127038064837"><ele>535.0</ele><time>2026-04-18T11:14:33Z</time></trkpt><trkpt lat="43.22645434520876" lon="12.93424690502532"><ele>535.0</ele><time>2026-04-18T11:14:34Z</time></trkpt><trkpt lat="43.22652032063884" lon="12.934374145245291"><ele>535.0</ele><time>2026-04-18T11:14:35Z</time></trkpt><trkpt lat="43.226573321299824" lon="12.934468309312372"><ele>535.0</ele><time>2026-04-18T11:14:36Z</time></trkpt><trkpt lat="43.22663504888171" lon="12.934574080165666"><ele>534.75</ele><time>2026-04-18T11:14:37Z</time></trkpt><trkpt lat="43.226744738294" lon="12.934650208924026"><ele>534.5</ele><time>2026-04-18T11:14:38Z</time></trkpt><trkpt lat="43.22686657541144" lon="12.934708574121977"><ele>534.25</ele><time>2026-04-18T11:14:39Z</time></trkpt><trkpt lat="43.22697387092079" lon="12.934767815878521"><ele>534.0</ele><time>2026-04-18T11:14:40Z</time></trkpt><trkpt lat="43.22708872388166" lon="12.93483876115979"><ele>534.0</ele><time>2026-04-18T11:14:41Z</time></trkpt><trkpt lat="43.227216584987254" lon="12.93493170049982"><ele>534.0</ele><time>2026-04-18T11:14:42Z</time></trkpt><trkpt lat="43.22734771169953" lon="12.935016306216944"><ele>534.0</ele><time>2026-04-18T11:14:43Z</time></trkpt><trkpt lat="43.22745190067403" lon="12.935091404443876"><ele>534.0</ele><time>2026-04-18T11:14:44Z</time></trkpt><trkpt lat="43.22756429359131" lon="12.93514681935686"><ele>534.75</ele><time>2026-04-18T11:14:45Z</time></trkpt><trkpt lat="43.2276726480039" lon="12.93524540991943"><ele>535.5</ele><time>2026-04-18T11:14:46Z</time></trkpt><trkpt lat="43.227769648786094" lon="12.935398043570988"><ele>536.25</ele><time>2026-04-18T11:14:47Z</time></trkpt><trkpt lat="43.227875532456835" lon="12.935561165319069"><ele>537.0</ele><time>2026-04-18T11:14:48Z</time></trkpt><trkpt lat="43.22796893735502" lon="12.935728037191996"><ele>537.0</ele><time>2026-04-18T11:14:49Z</time></trkpt><trkpt lat="43.22805165147267" lon="12.935872277776014"><ele>537.0</ele><time>2026-04-18T11:14:50Z</time></trkpt><trkpt lat="43.2281396983769" lon="12.936004900333508"><ele>537.0</ele><time>2026-04-18T11:14:51Z</time></trkpt><trkpt lat="43.228261547237295" lon="12.936124277834923"><ele>537.0</ele><time>2026-04-18T11:14:52Z</time></trkpt><trkpt lat="43.228401412678885" lon="12.936251192448168"><ele>537.0</ele><time>2026-04-18T11:14:53Z</time></trkpt><trkpt lat="43.228550546487874" lon="12.936375435017682"><ele>537.0</ele><time>2026-04-18T11:14:54Z</time></trkpt><trkpt lat="43.22869036618098" lon="12.936499137776964"><ele>537.0</ele><time>2026-04-18T11:14:55Z</time></trkpt><trkpt lat="43.22882608829251" lon="12.936614033933106"><ele>534.25</ele><time>2026-04-18T11:14:56Z</time></trkpt><trkpt lat="43.22895487387541" lon="12.93672391363233"><ele>531.5</ele><time>2026-04-18T11:14:57Z</time></trkpt><trkpt lat="43.229067019748214" lon="12.936824699405728"><ele>528.75</ele><time>2026-04-18T11:14:58Z</time></trkpt><trkpt lat="43.22919010726972" lon="12.936959237005203"><ele>526.0</ele><time>2026-04-18T11:14:59Z</time></trkpt><trkpt lat="43.22930480680693" lon="12.937115962328672"><ele>526.0</ele><time>2026-04-18T11:15:00Z</time></trkpt><trkpt lat="43.2294015550542" lon="12.937275945208707"><ele>526.0</ele><time>2026-04-18T11:15:01Z</time></trkpt><trkpt lat="43.22947561132339" lon="12.937432847029317"><ele>526.0</ele><time>2026-04-18T11:15:02Z</time></trkpt><trkpt lat="43.229554055466835" lon="12.937607354674924"><ele>526.0</ele><time>2026-04-18T11:15:03Z</time></trkpt><trkpt lat="43.22962479786958" lon="12.937775238080762"><ele>525.25</ele><time>2026-04-18T11:15:04Z</time></trkpt><trkpt lat="43.22968310407599" lon="12.937922113101019"><ele>524.5</ele><time>2026-04-18T11:15:05Z</time></trkpt><trkpt lat="43.22976265044655" lon="12.93806069231587"><ele>523.75</ele><time>2026-04-18T11:15:06Z</time></trkpt><trkpt lat="43.22983936194568" lon="12.938214917949306"><ele>523.0</ele><time>2026-04-18T11:15:07Z</time></trkpt><trkpt lat="43.22992503410299" lon="12.93837084852369"><ele>520.6666666666667</ele><time>2026-04-18T11:15:08Z</time></trkpt><trkpt lat="43.23001225174111" lon="12.938553337570964"><ele>518.3333333333334</ele><time>2026-04-18T11:15:09Z</time></trkpt><trkpt lat="43.23009854690349" lon="12.938769950217178"><ele>516.0</ele><time>2026-04-18T11:15:10Z</time></trkpt><trkpt lat="43.230172857661685" lon="12.938992379750264"><ele>518.3333333333334</ele><time>2026-04-18T11:15:11Z</time></trkpt><trkpt lat="43.23024543265052" lon="12.939239240249709"><ele>520.6666666666667</ele><time>2026-04-18T11:15:12Z</time></trkpt><trkpt lat="43.230314213901984" lon="12.939480840313461"><ele>523.0</ele><time>2026-04-18T11:15:13Z</time></trkpt><trkpt lat="43.23036505416966" lon="12.939727914809529"><ele>523.0</ele><time>2026-04-18T11:15:14Z</time></trkpt><trkpt lat="43.23041449487393" lon="12.939965209155162"><ele>523.0</ele><time>2026-04-18T11:15:15Z</time></trkpt><trkpt lat="43.23047557116363" lon="12.94017762193429"><ele>523.0</ele><time>2026-04-18T11:15:16Z</time></trkpt><trkpt lat="43.23052308286908" lon="12.940380467380619"><ele>522.75</ele><time>2026-04-18T11:15:17Z</time></trkpt><trkpt lat="43.2305665519896" lon="12.94057681923868"><ele>522.5</ele><time>2026-04-18T11:15:18Z</time></trkpt><trkpt lat="43.230597604805304" lon="12.940779954467661"><ele>522.25</ele><time>2026-04-18T11:15:19Z</time></trkpt><trkpt lat="43.23062782015382" lon="12.940962207828987"><ele>522.0</ele><time>2026-04-18T11:15:20Z</time></trkpt><trkpt lat="43.23067207448129" lon="12.94114562260647"><ele>522.0</ele><time>2026-04-18T11:15:21Z</time></trkpt><trkpt lat="43.230695395134084" lon="12.94128375046436"><ele>522.0</ele><time>2026-04-18T11:15:22Z</time></trkpt><trkpt lat="43.230714284638346" lon="12.94144019878472"><ele>522.0</ele><time>2026-04-18T11:15:23Z</time></trkpt><trkpt lat="43.2307308922337" lon="12.941606208330631"><ele>522.0</ele><time>2026-04-18T11:15:24Z</time></trkpt><trkpt lat="43.23076166739262" lon="12.941799514617363"><ele>520.0</ele><time>2026-04-18T11:15:25Z</time></trkpt><trkpt lat="43.23079757221438" lon="12.941971008161314"><ele>518.0</ele><time>2026-04-18T11:15:26Z</time></trkpt><trkpt lat="43.230835559464886" lon="12.942121656668824"><ele>516.0</ele><time>2026-04-18T11:15:27Z</time></trkpt><trkpt lat="43.230901414744885" lon="12.942266769183792"><ele>514.0</ele><time>2026-04-18T11:15:28Z</time></trkpt><trkpt lat="43.23099981024896" lon="12.94238483428321"><ele>514.0</ele><time>2026-04-18T11:15:29Z</time></trkpt><trkpt lat="43.23112341724131" lon="12.942496686867683"><ele>514.0</ele><time>2026-04-18T11:15:30Z</time></trkpt><trkpt lat="43.231238790417386" lon="12.942575082516733"><ele>514.0</ele><time>2026-04-18T11:15:31Z</time></trkpt><trkpt lat="43.23136829296453" lon="12.942671972426941"><ele>514.0</ele><time>2026-04-18T11:15:32Z</time></trkpt><trkpt lat="43.231466662691155" lon="12.942763747041914"><ele>514.75</ele><time>2026-04-18T11:15:33Z</time></trkpt><trkpt lat="43.23156239502739" lon="12.942873961004834"><ele>515.5</ele><time>2026-04-18T11:15:34Z</time></trkpt><trkpt lat="43.23164995280242" lon="12.943037245095068"><ele>516.25</ele><time>2026-04-18T11:15:35Z</time></trkpt><trkpt lat="43.23170603598769" lon="12.943222845093482"><ele>517.0</ele><time>2026-04-18T11:15:36Z</time></trkpt><trkpt lat="43.23177466722799" lon="12.94340721106483"><ele>515.0</ele><time>2026-04-18T11:15:37Z</time></trkpt><trkpt lat="43.231837776518994" lon="12.943565929461533"><ele>513.0</ele><time>2026-04-18T11:15:38Z</time></trkpt><trkpt lat="43.23190450414544" lon="12.943705559173573"><ele>511.0</ele><time>2026-04-18T11:15:39Z</time></trkpt><trkpt lat="43.23195979519665" lon="12.94385166734168"><ele>509.0</ele><time>2026-04-18T11:15:40Z</time></trkpt><trkpt lat="43.232024808952524" lon="12.943985614152547"><ele>509.0</ele><time>2026-04-18T11:15:41Z</time></trkpt><trkpt lat="43.23207392763028" lon="12.944109565998918"><ele>509.0</ele><time>2026-04-18T11:15:42Z</time></trkpt><trkpt lat="43.23212827910332" lon="12.944239289014664"><ele>509.0</ele><time>2026-04-18T11:15:43Z</time></trkpt><trkpt lat="43.23220391057965" lon="12.944377279323003"><ele>509.0</ele><time>2026-04-18T11:15:44Z</time></trkpt><trkpt lat="43.232296683293804" lon="12.944484549836346"><ele>506.75</ele><time>2026-04-18T11:15:45Z</time></trkpt><trkpt lat="43.232389776769836" lon="12.944556465344661"><ele>504.5</ele><time>2026-04-18T11:15:46Z</time></trkpt><trkpt lat="43.23252431856788" lon="12.944624853741812"><ele>502.25</ele><time>2026-04-18T11:15:47Z</time></trkpt><trkpt lat="43.23266113411545" lon="12.944706451427136"><ele>500.0</ele><time>2026-04-18T11:15:48Z</time></trkpt><trkpt lat="43.23278199255093" lon="12.944811951583231"><ele>500.0</ele><time>2026-04-18T11:15:49Z</time></trkpt><trkpt lat="43.23287428731394" lon="12.944935953627205"><ele>500.0</ele><time>2026-04-18T11:15:50Z</time></trkpt><trkpt lat="43.23292031537772" lon="12.945079323967763"><ele>500.0</ele><time>2026-04-18T11:15:51Z</time></trkpt><trkpt lat="43.23289290227593" lon="12.945278472492678"><ele>500.0</ele><time>2026-04-18T11:15:52Z</time></trkpt><trkpt lat="43.23290276239621" lon="12.945481587305423"><ele>499.75</ele><time>2026-04-18T11:15:53Z</time></trkpt><trkpt lat="43.23290733589277" lon="12.945665651721347"><ele>499.5</ele><time>2026-04-18T11:15:54Z</time></trkpt><trkpt lat="43.23295020265033" lon="12.945825279100918"><ele>499.25</ele><time>2026-04-18T11:15:55Z</time></trkpt><trkpt lat="43.23296797214034" lon="12.946012561172251"><ele>499.0</ele><time>2026-04-18T11:15:56Z</time></trkpt><trkpt lat="43.23303733073035" lon="12.946194872075191"><ele>499.0</ele><time>2026-04-18T11:15:57Z</time></trkpt><trkpt lat="43.233100222489576" lon="12.946393820693396"><ele>499.0</ele><time>2026-04-18T11:15:58Z</time></trkpt><trkpt lat="43.23315509569617" lon="12.946605420782383"><ele>499.0</ele><time>2026-04-18T11:15:59Z</time></trkpt><trkpt lat="43.23319846901305" lon="12.946809304854623"><ele>496.6666666666667</ele><time>2026-04-18T11:16:00Z</time></trkpt><trkpt lat="43.23324274423291" lon="12.947021901005845"><ele>494.33333333333337</ele><time>2026-04-18T11:16:01Z</time></trkpt><trkpt lat="43.23329156243546" lon="12.947209746345266"><ele>492.0</ele><time>2026-04-18T11:16:02Z</time></trkpt><trkpt lat="43.233322011114126" lon="12.947406067132949"><ele>491.25</ele><time>2026-04-18T11:16:03Z</time></trkpt><trkpt lat="43.233350120435034" lon="12.947597383491773"><ele>490.5</ele><time>2026-04-18T11:16:04Z</time></trkpt><trkpt lat="43.233363527210194" lon="12.947775090126408"><ele>489.75</ele><time>2026-04-18T11:16:05Z</time></trkpt><trkpt lat="43.23338122653855" lon="12.947971842342605"><ele>489.0</ele><time>2026-04-18T11:16:06Z</time></trkpt><trkpt lat="43.233406948425305" lon="12.948169252745972"><ele>489.0</ele><time>2026-04-18T11:16:07Z</time></trkpt><trkpt lat="43.23346152324913" lon="12.948348617262056"><ele>489.0</ele><time>2026-04-18T11:16:08Z</time></trkpt><trkpt lat="43.23352016002049" lon="12.948523566834615"><ele>489.0</ele><time>2026-04-18T11:16:09Z</time></trkpt><trkpt lat="43.233572584899704" lon="12.94866246414981"><ele>489.0</ele><time>2026-04-18T11:16:10Z</time></trkpt><trkpt lat="43.23363620965348" lon="12.948805055182184"><ele>488.75</ele><time>2026-04-18T11:16:11Z</time></trkpt><trkpt lat="43.233695414352646" lon="12.948986109564208"><ele>488.5</ele><time>2026-04-18T11:16:12Z</time></trkpt><trkpt lat="43.23376853848096" lon="12.949172336584253"><ele>488.25</ele><time>2026-04-18T11:16:13Z</time></trkpt><trkpt lat="43.23382010799895" lon="12.949310796211703"><ele>488.0</ele><time>2026-04-18T11:16:14Z</time></trkpt><trkpt lat="43.23386757863346" lon="12.949454356227301"><ele>489.4</ele><time>2026-04-18T11:16:15Z</time></trkpt><trkpt lat="43.23389011072811" lon="12.949609390006025"><ele>490.79999999999995</ele><time>2026-04-18T11:16:16Z</time></trkpt><trkpt lat="43.23387783401463" lon="12.949769160437773"><ele>492.2</ele><time>2026-04-18T11:16:17Z</time></trkpt><trkpt lat="43.233843035928786" lon="12.949922927961348"><ele>493.6</ele><time>2026-04-18T11:16:18Z</time></trkpt><trkpt lat="43.233797286003664" lon="12.950041539304696"><ele>495.0</ele><time>2026-04-18T11:16:19Z</time></trkpt><trkpt lat="43.23371935552974" lon="12.950145239248375"><ele>496.5</ele><time>2026-04-18T11:16:20Z</time></trkpt><trkpt lat="43.23363967551397" lon="12.950241050578564"><ele>498.0</ele><time>2026-04-18T11:16:21Z</time></trkpt><trkpt lat="43.233593195333185" lon="12.950322715703964"><ele>499.5</ele><time>2026-04-18T11:16:22Z</time></trkpt><trkpt lat="43.23362082242944" lon="12.950521594761097"><ele>501.0</ele><time>2026-04-18T11:16:24Z</time></trkpt><trkpt lat="43.23367821434154" lon="12.950689961129807"><ele>501.0</ele><time>2026-04-18T11:16:25Z</time></trkpt><trkpt lat="43.23374866011042" lon="12.950837242960029"><ele>501.0</ele><time>2026-04-18T11:16:26Z</time></trkpt><trkpt lat="43.23382995258815" lon="12.950996629150836"><ele>501.0</ele><time>2026-04-18T11:16:27Z</time></trkpt><trkpt lat="43.23392276133609" lon="12.951125119742835"><ele>501.0</ele><time>2026-04-18T11:16:28Z</time></trkpt><trkpt lat="43.23402646386534" lon="12.95127138032807"><ele>495.0</ele><time>2026-04-18T11:16:29Z</time></trkpt><trkpt lat="43.23414105661955" lon="12.951418824765756"><ele>489.0</ele><time>2026-04-18T11:16:30Z</time></trkpt><trkpt lat="43.234248904787925" lon="12.951554399330591"><ele>483.0</ele><time>2026-04-18T11:16:31Z</time></trkpt><trkpt lat="43.23435203242154" lon="12.951664314894035"><ele>477.0</ele><time>2026-04-18T11:16:32Z</time></trkpt><trkpt lat="43.23446437191712" lon="12.951744922510603"><ele>477.0</ele><time>2026-04-18T11:16:33Z</time></trkpt><trkpt lat="43.234575143667286" lon="12.951793610502033"><ele>477.00000000000006</ele><time>2026-04-18T11:16:34Z</time></trkpt><trkpt lat="43.2346771290838" lon="12.95181860521365"><ele>477.00000000000006</ele><time>2026-04-18T11:16:35Z</time></trkpt><trkpt lat="43.23477154935929" lon="12.95184216345067"><ele>477.0</ele><time>2026-04-18T11:16:36Z</time></trkpt><trkpt lat="43.234874738058366" lon="12.95188000255885"><ele>477.0</ele><time>2026-04-18T11:16:37Z</time></trkpt><trkpt lat="43.234949609024085" lon="12.952006271793332"><ele>476.5</ele><time>2026-04-18T11:16:38Z</time></trkpt><trkpt lat="43.23502342119756" lon="12.952156570534111"><ele>476.0</ele><time>2026-04-18T11:16:39Z</time></trkpt><trkpt lat="43.235082351105916" lon="12.952320428507232"><ele>475.5</ele><time>2026-04-18T11:16:40Z</time></trkpt><trkpt lat="43.23511945610293" lon="12.952497224942425"><ele>475.0</ele><time>2026-04-18T11:16:41Z</time></trkpt><trkpt lat="43.235125339190915" lon="12.952682784044846"><ele>473.0</ele><time>2026-04-18T11:16:42Z</time></trkpt><trkpt lat="43.235141707306354" lon="12.952853217951715"><ele>471.0</ele><time>2026-04-18T11:16:43Z</time></trkpt><trkpt lat="43.23516475239007" lon="12.953055321586772"><ele>469.0</ele><time>2026-04-18T11:16:44Z</time></trkpt><trkpt lat="43.23520079387181" lon="12.953242588446667"><ele>467.0</ele><time>2026-04-18T11:16:45Z</time></trkpt><trkpt lat="43.235253747210365" lon="12.953431790435383"><ele>465.5</ele><time>2026-04-18T11:16:46Z</time></trkpt><trkpt lat="43.23528623651155" lon="12.953622889603436"><ele>464.0</ele><time>2026-04-18T11:16:47Z</time></trkpt><trkpt lat="43.23530819213892" lon="12.953813183382808"><ele>462.5</ele><time>2026-04-18T11:16:48Z</time></trkpt><trkpt lat="43.23532120122789" lon="12.953983437400597"><ele>461.0</ele><time>2026-04-18T11:16:49Z</time></trkpt><trkpt lat="43.2353359924654" lon="12.954173263897397"><ele>460.25</ele><time>2026-04-18T11:16:50Z</time></trkpt><trkpt lat="43.23538487437756" lon="12.954365714030306"><ele>459.5</ele><time>2026-04-18T11:16:51Z</time></trkpt><trkpt lat="43.23538932732302" lon="12.954537986516199"><ele>458.75</ele><time>2026-04-18T11:16:52Z</time></trkpt><trkpt lat="43.23541116253296" lon="12.954701756703711"><ele>458.0</ele><time>2026-04-18T11:16:53Z</time></trkpt><trkpt lat="43.235441316282696" lon="12.954897654483815"><ele>457.66666666666663</ele><time>2026-04-18T11:16:54Z</time></trkpt><trkpt lat="43.23548827779635" lon="12.955133545254762"><ele>457.33333333333337</ele><time>2026-04-18T11:16:55Z</time></trkpt><trkpt lat="43.23554961087061" lon="12.95535531090908"><ele>457.0</ele><time>2026-04-18T11:16:56Z</time></trkpt><trkpt lat="43.23559561722839" lon="12.955587147810087"><ele>457.0</ele><time>2026-04-18T11:16:57Z</time></trkpt><trkpt lat="43.23562705351141" lon="12.955773070581325"><ele>457.0</ele><time>2026-04-18T11:16:58Z</time></trkpt><trkpt lat="43.23565842074256" lon="12.955964537301591"><ele>457.0</ele><time>2026-04-18T11:16:59Z</time></trkpt><trkpt lat="43.23569034820539" lon="12.956145023770553"><ele>457.0</ele><time>2026-04-18T11:17:00Z</time></trkpt><trkpt lat="43.23574404685065" lon="12.95631186160404"><ele>457.5</ele><time>2026-04-18T11:17:01Z</time></trkpt><trkpt lat="43.235769704687" lon="12.956485516914443"><ele>458.0</ele><time>2026-04-18T11:17:02Z</time></trkpt><trkpt lat="43.235829370764584" lon="12.95664590936841"><ele>458.5</ele><time>2026-04-18T11:17:03Z</time></trkpt><trkpt lat="43.23590860728102" lon="12.95675926658179"><ele>459.0</ele><time>2026-04-18T11:17:04Z</time></trkpt><trkpt lat="43.23601583655058" lon="12.956845727423408"><ele>459.25</ele><time>2026-04-18T11:17:05Z</time></trkpt><trkpt lat="43.23614907990763" lon="12.956905819085188"><ele>459.5</ele><time>2026-04-18T11:17:06Z</time></trkpt><trkpt lat="43.23627360594634" lon="12.956953483610784"><ele>459.75</ele><time>2026-04-18T11:17:07Z</time></trkpt><trkpt lat="43.23640183192221" lon="12.957012251727473"><ele>460.0</ele><time>2026-04-18T11:17:08Z</time></trkpt><trkpt lat="43.236530619309036" lon="12.95706786857012"><ele>460.0</ele><time>2026-04-18T11:17:09Z</time></trkpt><trkpt lat="43.236673017946536" lon="12.957134274135894"><ele>460.0</ele><time>2026-04-18T11:17:10Z</time></trkpt><trkpt lat="43.236770224859114" lon="12.957196616931997"><ele>460.0</ele><time>2026-04-18T11:17:11Z</time></trkpt><trkpt lat="43.236897915675016" lon="12.957236510276662"><ele>460.0</ele><time>2026-04-18T11:17:12Z</time></trkpt><trkpt lat="43.237033699812365" lon="12.957329138838887"><ele>460.0</ele><time>2026-04-18T11:17:13Z</time></trkpt><trkpt lat="43.237165472351634" lon="12.957411760859445"><ele>460.0</ele><time>2026-04-18T11:17:14Z</time></trkpt><trkpt lat="43.23731366528527" lon="12.957517878842651"><ele>460.0</ele><time>2026-04-18T11:17:15Z</time></trkpt><trkpt lat="43.237468565744706" lon="12.957631627411883"><ele>459.0</ele><time>2026-04-18T11:17:16Z</time></trkpt><trkpt lat="43.237635671960405" lon="12.957784007158237"><ele>458.0</ele><time>2026-04-18T11:17:17Z</time></trkpt><trkpt lat="43.23780590415741" lon="12.95793560612956"><ele>457.0</ele><time>2026-04-18T11:17:18Z</time></trkpt><trkpt lat="43.23796066130812" lon="12.958072872660715"><ele>457.0</ele><time>2026-04-18T11:17:19Z</time></trkpt><trkpt lat="43.23811515349507" lon="12.958207725759053"><ele>457.0</ele><time>2026-04-18T11:17:20Z</time></trkpt><trkpt lat="43.23824626946418" lon="12.958308631309249"><ele>457.0</ele><time>2026-04-18T11:17:21Z</time></trkpt><trkpt lat="43.238356681636944" lon="12.958373842648447"><ele>455.25</ele><time>2026-04-18T11:17:22Z</time></trkpt><trkpt lat="43.23847199125046" lon="12.95845108105635"><ele>453.5</ele><time>2026-04-18T11:17:23Z</time></trkpt><trkpt lat="43.23860425401491" lon="12.958529345296885"><ele>451.75</ele><time>2026-04-18T11:17:24Z</time></trkpt><trkpt lat="43.238733831482385" lon="12.958588819739841"><ele>450.0</ele><time>2026-04-18T11:17:25Z</time></trkpt><trkpt lat="43.23882910608238" lon="12.958664614805617"><ele>450.0</ele><time>2026-04-18T11:17:26Z</time></trkpt><trkpt lat="43.23893331529172" lon="12.958749642534093"><ele>450.0</ele><time>2026-04-18T11:17:27Z</time></trkpt><trkpt lat="43.239041534316016" lon="12.958838747370514"><ele>450.0</ele><time>2026-04-18T11:17:28Z</time></trkpt><trkpt lat="43.239146113773955" lon="12.958914192669871"><ele>450.0</ele><time>2026-04-18T11:17:29Z</time></trkpt><trkpt lat="43.23922687467994" lon="12.958976333862184"><ele>449.2</ele><time>2026-04-18T11:17:30Z</time></trkpt><trkpt lat="43.239321423945334" lon="12.959056245448506"><ele>448.4</ele><time>2026-04-18T11:17:31Z</time></trkpt><trkpt lat="43.23941156254751" lon="12.959147548575457"><ele>447.6</ele><time>2026-04-18T11:17:32Z</time></trkpt><trkpt lat="43.23949070944612" lon="12.95921905643742"><ele>446.8</ele><time>2026-04-18T11:17:33Z</time></trkpt><trkpt lat="43.239565041504235" lon="12.959297374654504"><ele>446.0</ele><time>2026-04-18T11:17:34Z</time></trkpt><trkpt lat="43.239644140081715" lon="12.959373032959492"><ele>446.0</ele><time>2026-04-18T11:17:35Z</time></trkpt><trkpt lat="43.23970381421858" lon="12.959489379254078"><ele>446.0</ele><time>2026-04-18T11:17:36Z</time></trkpt><trkpt lat="43.23977947345847" lon="12.959602815962326"><ele>446.0</ele><time>2026-04-18T11:17:37Z</time></trkpt><trkpt lat="43.23987603515228" lon="12.95970417486458"><ele>446.0</ele><time>2026-04-18T11:17:38Z</time></trkpt><trkpt lat="43.23995295414758" lon="12.95981270947834"><ele>446.0</ele><time>2026-04-18T11:17:39Z</time></trkpt><trkpt lat="43.240066711209586" lon="12.959849373058336"><ele>448.5</ele><time>2026-04-18T11:17:40Z</time></trkpt><trkpt lat="43.240185357912665" lon="12.959850244829282"><ele>451.0</ele><time>2026-04-18T11:17:41Z</time></trkpt><trkpt lat="43.24028138950808" lon="12.959805476744798"><ele>453.5</ele><time>2026-04-18T11:17:42Z</time></trkpt><trkpt lat="43.240379710045445" lon="12.959723553513022"><ele>456.0</ele><time>2026-04-18T11:17:43Z</time></trkpt><trkpt lat="43.24047737360896" lon="12.959617281862572"><ele>456.0</ele><time>2026-04-18T11:17:44Z</time></trkpt><trkpt lat="43.24057154748385" lon="12.959469572144638"><ele>456.0</ele><time>2026-04-18T11:17:45Z</time></trkpt><trkpt lat="43.2406613461353" lon="12.959338489435861"><ele>456.0</ele><time>2026-04-18T11:17:46Z</time></trkpt><trkpt lat="43.24074618819395" lon="12.95921447175005"><ele>456.0</ele><time>2026-04-18T11:17:47Z</time></trkpt><trkpt lat="43.24082750104476" lon="12.959089802664819"><ele>457.8</ele><time>2026-04-18T11:17:48Z</time></trkpt><trkpt lat="43.24091932700856" lon="12.958992641237032"><ele>459.6</ele><time>2026-04-18T11:17:49Z</time></trkpt><trkpt lat="43.24101278047335" lon="12.958917360446017"><ele>461.4</ele><time>2026-04-18T11:17:50Z</time></trkpt><trkpt lat="43.24111490366692" lon="12.958867463645337"><ele>463.2</ele><time>2026-04-18T11:17:51Z</time></trkpt><trkpt lat="43.24120973221875" lon="12.9588848667704"><ele>465.0</ele><time>2026-04-18T11:17:52Z</time></trkpt><trkpt lat="43.241315270216504" lon="12.958871548706748"><ele>465.0</ele><time>2026-04-18T11:17:53Z</time></trkpt><trkpt lat="43.24143016218608" lon="12.95891227115606"><ele>465.0</ele><time>2026-04-18T11:17:54Z</time></trkpt><trkpt lat="43.24154915998249" lon="12.958936747928133"><ele>465.0</ele><time>2026-04-18T11:17:55Z</time></trkpt><trkpt lat="43.241667555425394" lon="12.958940565643616"><ele>465.0</ele><time>2026-04-18T11:17:56Z</time></trkpt><trkpt lat="43.24177695737193" lon="12.95892692189425"><ele>463.75</ele><time>2026-04-18T11:17:57Z</time></trkpt><trkpt lat="43.241886413330434" lon="12.958876746085354"><ele>462.5</ele><time>2026-04-18T11:17:58Z</time></trkpt><trkpt lat="43.24199951715933" lon="12.958800643029267"><ele>461.25</ele><time>2026-04-18T11:17:59Z</time></trkpt><trkpt lat="43.24210435131683" lon="12.958695296575351"><ele>460.0</ele><time>2026-04-18T11:18:00Z</time></trkpt><trkpt lat="43.242194538970196" lon="12.95860317867219"><ele>460.0</ele><time>2026-04-18T11:18:01Z</time></trkpt><trkpt lat="43.242290349998456" lon="12.958512130085413"><ele>460.0</ele><time>2026-04-18T11:18:02Z</time></trkpt><trkpt lat="43.2423588539573" lon="12.958427722680206"><ele>460.0</ele><time>2026-04-18T11:18:03Z</time></trkpt><trkpt lat="43.24244813638544" lon="12.958353516006545"><ele>460.0</ele><time>2026-04-18T11:18:04Z</time></trkpt><trkpt lat="43.242538654950245" lon="12.958310354534683"><ele>460.0</ele><time>2026-04-18T11:18:05Z</time></trkpt><trkpt lat="43.24263655871777" lon="12.958342616523426"><ele>458.75</ele><time>2026-04-18T11:18:06Z</time></trkpt><trkpt lat="43.2427384334684" lon="12.958386401354963"><ele>457.5</ele><time>2026-04-18T11:18:07Z</time></trkpt><trkpt lat="43.24286195126308" lon="12.958465928371895"><ele>456.25</ele><time>2026-04-18T11:18:08Z</time></trkpt><trkpt lat="43.24298305525432" lon="12.95855224914244"><ele>455.0</ele><time>2026-04-18T11:18:09Z</time></trkpt><trkpt lat="43.243101134327325" lon="12.95865650524587"><ele>453.0</ele><time>2026-04-18T11:18:10Z</time></trkpt><trkpt lat="43.24324218828545" lon="12.958752928282717"><ele>451.0</ele><time>2026-04-18T11:18:11Z</time></trkpt><trkpt lat="43.24339008419056" lon="12.95883406102466"><ele>449.0</ele><time>2026-04-18T11:18:12Z</time></trkpt><trkpt lat="43.24353626673052" lon="12.958895361967333"><ele>449.0</ele><time>2026-04-18T11:18:13Z</time></trkpt><trkpt lat="43.24369253300857" lon="12.958922449580943"><ele>449.0</ele><time>2026-04-18T11:18:14Z</time></trkpt><trkpt lat="43.24383929209427" lon="12.958939697029948"><ele>449.0</ele><time>2026-04-18T11:18:15Z</time></trkpt><trkpt lat="43.24400212844133" lon="12.958954867970839"><ele>447.5</ele><time>2026-04-18T11:18:16Z</time></trkpt><trkpt lat="43.24413386084921" lon="12.958922104795349"><ele>446.0</ele><time>2026-04-18T11:18:17Z</time></trkpt><trkpt lat="43.24425979226474" lon="12.958903794018259"><ele>444.5</ele><time>2026-04-18T11:18:18Z</time></trkpt><trkpt lat="43.24440037036988" lon="12.958855762866266"><ele>443.0</ele><time>2026-04-18T11:18:19Z</time></trkpt><trkpt lat="43.24454584707273" lon="12.958817989784334"><ele>443.0</ele><time>2026-04-18T11:18:20Z</time></trkpt><trkpt lat="43.24469541749533" lon="12.958810646647658"><ele>443.0</ele><time>2026-04-18T11:18:21Z</time></trkpt><trkpt lat="43.24483542873498" lon="12.958834085021719"><ele>443.0</ele><time>2026-04-18T11:18:22Z</time></trkpt><trkpt lat="43.24495090576096" lon="12.958910197690788"><ele>443.0</ele><time>2026-04-18T11:18:23Z</time></trkpt><trkpt lat="43.24505896878395" lon="12.95895553845991"><ele>441.5</ele><time>2026-04-18T11:18:24Z</time></trkpt><trkpt lat="43.24515625877734" lon="12.95905743832434"><ele>440.0</ele><time>2026-04-18T11:18:25Z</time></trkpt><trkpt lat="43.245252801457056" lon="12.959155739149123"><ele>438.5</ele><time>2026-04-18T11:18:26Z</time></trkpt><trkpt lat="43.24536856101145" lon="12.959278180408152"><ele>437.0</ele><time>2026-04-18T11:18:27Z</time></trkpt><trkpt lat="43.245490534256376" lon="12.959403983568112"><ele>437.0</ele><time>2026-04-18T11:18:28Z</time></trkpt><trkpt lat="43.245621664393255" lon="12.959537039357127"><ele>437.0</ele><time>2026-04-18T11:18:29Z</time></trkpt><trkpt lat="43.245759769444604" lon="12.959673453058416"><ele>437.0</ele><time>2026-04-18T11:18:30Z</time></trkpt><trkpt lat="43.24589156061405" lon="12.959798760924798"><ele>435.5</ele><time>2026-04-18T11:18:31Z</time></trkpt><trkpt lat="43.24602398253863" lon="12.959923084606707"><ele>434.0</ele><time>2026-04-18T11:18:32Z</time></trkpt><trkpt lat="43.24614689136704" lon="12.9600363630062"><ele>432.5</ele><time>2026-04-18T11:18:33Z</time></trkpt><trkpt lat="43.246250620474434" lon="12.960144576930073"><ele>431.0</ele><time>2026-04-18T11:18:34Z</time></trkpt><trkpt lat="43.2463828776346" lon="12.96025385883275"><ele>429.75</ele><time>2026-04-18T11:18:35Z</time></trkpt><trkpt lat="43.24651067700012" lon="12.96034883834815"><ele>428.5</ele><time>2026-04-18T11:18:36Z</time></trkpt><trkpt lat="43.24661826842864" lon="12.960473982728443"><ele>427.25</ele><time>2026-04-18T11:18:37Z</time></trkpt><trkpt lat="43.246738320149674" lon="12.960588784349248"><ele>426.0</ele><time>2026-04-18T11:18:38Z</time></trkpt><trkpt lat="43.24686441042949" lon="12.960699045282139"><ele>426.0</ele><time>2026-04-18T11:18:39Z</time></trkpt><trkpt lat="43.247003792939005" lon="12.960832711965413"><ele>426.0</ele><time>2026-04-18T11:18:40Z</time></trkpt><trkpt lat="43.24713026512898" lon="12.960956852510334"><ele>426.0</ele><time>2026-04-18T11:18:41Z</time></trkpt><trkpt lat="43.247261978778944" lon="12.96108478428839"><ele>425.0</ele><time>2026-04-18T11:18:42Z</time></trkpt><trkpt lat="43.24739143660238" lon="12.961199734747893"><ele>424.0</ele><time>2026-04-18T11:18:43Z</time></trkpt><trkpt lat="43.247509959752065" lon="12.961350420569591"><ele>423.0</ele><time>2026-04-18T11:18:44Z</time></trkpt><trkpt lat="43.24764534291253" lon="12.961492232678143"><ele>423.0</ele><time>2026-04-18T11:18:45Z</time></trkpt><trkpt lat="43.247764611364495" lon="12.961640992780218"><ele>423.0</ele><time>2026-04-18T11:18:46Z</time></trkpt><trkpt lat="43.247896992022845" lon="12.96177492014151"><ele>423.0</ele><time>2026-04-18T11:18:47Z</time></trkpt><trkpt lat="43.24802255318068" lon="12.961871920420085"><ele>421.33333333333337</ele><time>2026-04-18T11:18:48Z</time></trkpt><trkpt lat="43.248148729250744" lon="12.962012027821753"><ele>419.6666666666667</ele><time>2026-04-18T11:18:49Z</time></trkpt><trkpt lat="43.24827113265427" lon="12.962162575324738"><ele>418.0</ele><time>2026-04-18T11:18:50Z</time></trkpt><trkpt lat="43.24842184983076" lon="12.962265322391138"><ele>418.0</ele><time>2026-04-18T11:18:51Z</time></trkpt><trkpt lat="43.24855993373956" lon="12.962393520597354"><ele>418.0</ele><time>2026-04-18T11:18:52Z</time></trkpt><trkpt lat="43.24868937282523" lon="12.962561504110122"><ele>418.0</ele><time>2026-04-18T11:18:53Z</time></trkpt><trkpt lat="43.24881895599913" lon="12.962715777791248"><ele>418.0</ele><time>2026-04-18T11:18:54Z</time></trkpt><trkpt lat="43.24894184254897" lon="12.962874669920003"><ele>418.0</ele><time>2026-04-18T11:18:55Z</time></trkpt><trkpt lat="43.24907252336569" lon="12.963051323097543"><ele>418.0</ele><time>2026-04-18T11:18:56Z</time></trkpt><trkpt lat="43.24918903789513" lon="12.963220724528226"><ele>417.0</ele><time>2026-04-18T11:18:57Z</time></trkpt><trkpt lat="43.24930547017624" lon="12.963403896510064"><ele>416.0</ele><time>2026-04-18T11:18:58Z</time></trkpt><trkpt lat="43.24942286663572" lon="12.96359929132823"><ele>415.0</ele><time>2026-04-18T11:18:59Z</time></trkpt><trkpt lat="43.2495322908436" lon="12.96379301685871"><ele>415.0</ele><time>2026-04-18T11:19:00Z</time></trkpt><trkpt lat="43.24963817444573" lon="12.96399616299154"><ele>415.0</ele><time>2026-04-18T11:19:01Z</time></trkpt><trkpt lat="43.249727323414874" lon="12.964190801374311"><ele>415.0</ele><time>2026-04-18T11:19:02Z</time></trkpt><trkpt lat="43.249814711193785" lon="12.964401217358624"><ele>414.33333333333337</ele><time>2026-04-18T11:19:03Z</time></trkpt><trkpt lat="43.249894670768676" lon="12.964594544395991"><ele>413.66666666666663</ele><time>2026-04-18T11:19:04Z</time></trkpt><trkpt lat="43.249970454864105" lon="12.964779343159654"><ele>413.0</ele><time>2026-04-18T11:19:05Z</time></trkpt><trkpt lat="43.25005776086554" lon="12.964951588962393"><ele>413.3333333333333</ele><time>2026-04-18T11:19:06Z</time></trkpt><trkpt lat="43.25011116155187" lon="12.965146223097344"><ele>413.66666666666663</ele><time>2026-04-18T11:19:07Z</time></trkpt><trkpt lat="43.25017674800846" lon="12.965339995831428"><ele>414.0</ele><time>2026-04-18T11:19:08Z</time></trkpt><trkpt lat="43.250235068321025" lon="12.965532646671818"><ele>414.0</ele><time>2026-04-18T11:19:09Z</time></trkpt><trkpt lat="43.25029033086532" lon="12.965725959359242"><ele>414.0</ele><time>2026-04-18T11:19:10Z</time></trkpt><trkpt lat="43.25036089883644" lon="12.965917703323457"><ele>414.0</ele><time>2026-04-18T11:19:11Z</time></trkpt><trkpt lat="43.25039503966699" lon="12.966106293533258"><ele>414.0</ele><time>2026-04-18T11:19:12Z</time></trkpt><trkpt lat="43.25044807774289" lon="12.966302901766522"><ele>412.66666666666663</ele><time>2026-04-18T11:19:13Z</time></trkpt><trkpt lat="43.25050478951547" lon="12.966531141489984"><ele>411.3333333333333</ele><time>2026-04-18T11:19:14Z</time></trkpt><trkpt lat="43.25056432142866" lon="12.966776475421893"><ele>410.0</ele><time>2026-04-18T11:19:15Z</time></trkpt><trkpt lat="43.25062663328931" lon="12.967020824826871"><ele>410.0</ele><time>2026-04-18T11:19:16Z</time></trkpt><trkpt lat="43.25069129449184" lon="12.967271297388276"><ele>410.0</ele><time>2026-04-18T11:19:17Z</time></trkpt><trkpt lat="43.250743974415904" lon="12.967504602910877"><ele>410.0</ele><time>2026-04-18T11:19:18Z</time></trkpt><trkpt lat="43.25077845279763" lon="12.967730720241892"><ele>410.5</ele><time>2026-04-18T11:19:19Z</time></trkpt><trkpt lat="43.250796949659915" lon="12.967921993876729"><ele>411.0</ele><time>2026-04-18T11:19:20Z</time></trkpt><trkpt lat="43.2508026872001" lon="12.968106593025944"><ele>411.5</ele><time>2026-04-18T11:19:21Z</time></trkpt><trkpt lat="43.25079518316487" lon="12.968284246649686"><ele>412.0</ele><time>2026-04-18T11:19:22Z</time></trkpt><trkpt lat="43.25077685489926" lon="12.968448563768263"><ele>412.5</ele><time>2026-04-18T11:19:23Z</time></trkpt><trkpt lat="43.25074556844986" lon="12.968608453246048"><ele>413.0</ele><time>2026-04-18T11:19:24Z</time></trkpt><trkpt lat="43.25070006905763" lon="12.968764660204183"><ele>413.5</ele><time>2026-04-18T11:19:25Z</time></trkpt><trkpt lat="43.25065012384766" lon="12.968921511510588"><ele>414.0</ele><time>2026-04-18T11:19:26Z</time></trkpt><trkpt lat="43.25058737453584" lon="12.969085104297312"><ele>412.79999999999995</ele><time>2026-04-18T11:19:27Z</time></trkpt><trkpt lat="43.250531134846845" lon="12.96923153637276"><ele>411.59999999999997</ele><time>2026-04-18T11:19:28Z</time></trkpt><trkpt lat="43.250486190475876" lon="12.969348558851262"><ele>410.4</ele><time>2026-04-18T11:19:29Z</time></trkpt><trkpt lat="43.25044145600874" lon="12.969465034693837"><ele>409.2</ele><time>2026-04-18T11:19:30Z</time></trkpt><trkpt lat="43.25040141845149" lon="12.969569280902363"><ele>408.0</ele><time>2026-04-18T11:19:31Z</time></trkpt><trkpt lat="43.250363236297105" lon="12.969668696498978"><ele>408.0</ele><time>2026-04-18T11:19:32Z</time></trkpt><trkpt lat="43.25031968118925" lon="12.969782101622403"><ele>408.0</ele><time>2026-04-18T11:19:33Z</time></trkpt><trkpt lat="43.25027067753734" lon="12.96990969327486"><ele>408.0</ele><time>2026-04-18T11:19:34Z</time></trkpt><trkpt lat="43.25023899312451" lon="12.969992191281934"><ele>408.0</ele><time>2026-04-18T11:19:35Z</time></trkpt><trkpt lat="43.25038612172503" lon="12.970210043778712"><ele>408.0</ele><time>2026-04-18T11:19:37Z</time></trkpt><trkpt lat="43.25040690034387" lon="12.970298936270986"><ele>408.0</ele><time>2026-04-18T11:19:39Z</time></trkpt><trkpt lat="43.25032428274365" lon="12.970664705691382"><ele>408.0</ele><time>2026-04-18T11:19:40Z</time></trkpt><trkpt lat="43.25047863346608" lon="12.970349010915744"><ele>408.0</ele><time>2026-04-18T11:19:41Z</time></trkpt><trkpt lat="43.2505120930211" lon="12.970450588165901"><ele>408.0</ele><time>2026-04-18T11:19:52.999Z</time></trkpt><trkpt lat="43.25046369628757" lon="12.970520646358226"><ele>408.0</ele><time>2026-04-18T11:19:57.999Z</time></trkpt><trkpt lat="43.250514142553605" lon="12.970457063601309"><ele>408.0</ele><time>2026-04-18T11:20:05.999Z</time></trkpt><trkpt lat="43.25048352598494" lon="12.970375713947671"><ele>408.0</ele><time>2026-04-18T11:20:09.999Z</time></trkpt><trkpt lat="43.25045022390326" lon="12.97046070532341"><ele>408.0</ele><time>2026-04-18T11:20:43.999Z</time></trkpt><trkpt lat="43.25046497576418" lon="12.970364255909894"><ele>408.0</ele><time>2026-04-18T11:20:58.999Z</time></trkpt><trkpt lat="43.25051580078205" lon="12.970440242599421"><ele>408.0</ele><time>2026-04-18T11:21:09.999Z</time></trkpt><trkpt lat="43.2504461329341" lon="12.97049104189543"><ele>408.0</ele><time>2026-04-18T11:21:11.999Z</time></trkpt><trkpt lat="43.250370890124" lon="12.97056896776144"><ele>408.0</ele><time>2026-04-18T11:21:13.999Z</time></trkpt><trkpt lat="43.25019991899583" lon="12.9704980557334"><ele>408.0</ele><time>2026-04-18T11:21:20.999Z</time></trkpt><trkpt lat="43.25010595800264" lon="12.970607639964081"><ele>408.0</ele><time>2026-04-18T11:21:21.999Z</time></trkpt><trkpt lat="43.250027479020254" lon="12.970748424036552"><ele>408.0</ele><time>2026-04-18T11:21:22.999Z</time></trkpt><trkpt lat="43.24989100143926" lon="12.97088328998648"><ele>408.0</ele><time>2026-04-18T11:21:23.999Z</time></trkpt><trkpt lat="43.2498074257827" lon="12.97109523649561"><ele>408.0</ele><time>2026-04-18T11:21:24.999Z</time></trkpt><trkpt lat="43.24971500631778" lon="12.971329610782057"><ele>408.0</ele><time>2026-04-18T11:21:25.999Z</time></trkpt><trkpt lat="43.24962189589438" lon="12.971565737570872"><ele>408.0</ele><time>2026-04-18T11:21:26.999Z</time></trkpt><trkpt lat="43.24954705437087" lon="12.971798673417032"><ele>408.0</ele><time>2026-04-18T11:21:27.999Z</time></trkpt><trkpt lat="43.249440829782955" lon="12.972024990330286"><ele>408.0</ele><time>2026-04-18T11:21:28.999Z</time></trkpt><trkpt lat="43.24934445442541" lon="12.972261066162128"><ele>408.0</ele><time>2026-04-18T11:21:29.999Z</time></trkpt><trkpt lat="43.24924920035582" lon="12.972512560336174"><ele>408.0</ele><time>2026-04-18T11:21:30.999Z</time></trkpt><trkpt lat="43.24916971088471" lon="12.972757910452327"><ele>408.0</ele><time>2026-04-18T11:21:31.999Z</time></trkpt><trkpt lat="43.24906224004076" lon="12.97297775295369"><ele>408.0</ele><time>2026-04-18T11:21:32.999Z</time></trkpt><trkpt lat="43.24896368004076" lon="12.973198554267483"><ele>404.66666666666663</ele><time>2026-04-18T11:21:33.999Z</time></trkpt><trkpt lat="43.248844123966286" lon="12.97344282449763"><ele>401.3333333333333</ele><time>2026-04-18T11:21:34.999Z</time></trkpt><trkpt lat="43.24877404222807" lon="12.973670634045856"><ele>398.0</ele><time>2026-04-18T11:21:35.999Z</time></trkpt><trkpt lat="43.24870120457395" lon="12.973887269729563"><ele>398.0</ele><time>2026-04-18T11:21:36.999Z</time></trkpt><trkpt lat="43.24861736741228" lon="12.974121440777894"><ele>398.0</ele><time>2026-04-18T11:21:37.999Z</time></trkpt><trkpt lat="43.248541248209435" lon="12.974351985370216"><ele>398.0</ele><time>2026-04-18T11:21:38.999Z</time></trkpt><trkpt lat="43.24845756675207" lon="12.974534198722818"><ele>398.0</ele><time>2026-04-18T11:21:39.999Z</time></trkpt><trkpt lat="43.248374860705674" lon="12.97474465334169"><ele>398.0</ele><time>2026-04-18T11:21:40.999Z</time></trkpt><trkpt lat="43.24830269360499" lon="12.974927168904218"><ele>398.0</ele><time>2026-04-18T11:21:41.999Z</time></trkpt><trkpt lat="43.24822683943363" lon="12.975118706698565"><ele>398.0</ele><time>2026-04-18T11:21:42.999Z</time></trkpt><trkpt lat="43.248146076926815" lon="12.975321698105445"><ele>398.0</ele><time>2026-04-18T11:21:43.999Z</time></trkpt><trkpt lat="43.24805452707002" lon="12.975551802716542"><ele>398.0</ele><time>2026-04-18T11:21:44.999Z</time></trkpt><trkpt lat="43.247959156651795" lon="12.975791510109351"><ele>397.66666666666663</ele><time>2026-04-18T11:21:45.999Z</time></trkpt><trkpt lat="43.24787175349302" lon="12.976015356740064"><ele>397.33333333333337</ele><time>2026-04-18T11:21:46.999Z</time></trkpt><trkpt lat="43.247798104634015" lon="12.976204244971264"><ele>397.0</ele><time>2026-04-18T11:21:47.999Z</time></trkpt><trkpt lat="43.24772583974321" lon="12.976398188447387"><ele>397.0</ele><time>2026-04-18T11:21:48.999Z</time></trkpt><trkpt lat="43.24766569990286" lon="12.976593252553926"><ele>397.0</ele><time>2026-04-18T11:21:49.999Z</time></trkpt><trkpt lat="43.24762292597153" lon="12.976802562955994"><ele>397.0</ele><time>2026-04-18T11:21:50.999Z</time></trkpt><trkpt lat="43.24760594762867" lon="12.97703547783186"><ele>396.33333333333337</ele><time>2026-04-18T11:21:51.999Z</time></trkpt><trkpt lat="43.247618488987214" lon="12.977304009985673"><ele>395.66666666666663</ele><time>2026-04-18T11:21:52.999Z</time></trkpt><trkpt lat="43.247630101894195" lon="12.977581278802624"><ele>395.0</ele><time>2026-04-18T11:21:53.999Z</time></trkpt><trkpt lat="43.24762280824956" lon="12.977854494070018"><ele>393.3333333333333</ele><time>2026-04-18T11:21:54.999Z</time></trkpt><trkpt lat="43.24762614756376" lon="12.978090851205607"><ele>391.66666666666663</ele><time>2026-04-18T11:21:55.999Z</time></trkpt><trkpt lat="43.247631241064916" lon="12.978361478089264"><ele>390.0</ele><time>2026-04-18T11:21:56.999Z</time></trkpt><trkpt lat="43.247637352957945" lon="12.978604849342725"><ele>387.6666666666667</ele><time>2026-04-18T11:21:57.999Z</time></trkpt><trkpt lat="43.247643428896524" lon="12.978843625381407"><ele>385.33333333333337</ele><time>2026-04-18T11:21:58.999Z</time></trkpt><trkpt lat="43.24764973447678" lon="12.97909142576161"><ele>383.0</ele><time>2026-04-18T11:21:59.999Z</time></trkpt><trkpt lat="43.24765594747806" lon="12.979335587500412"><ele>382.6666666666667</ele><time>2026-04-18T11:22:00.999Z</time></trkpt><trkpt lat="43.247661689121635" lon="12.979561225942467"><ele>382.3333333333333</ele><time>2026-04-18T11:22:01.999Z</time></trkpt><trkpt lat="43.24766647907605" lon="12.979771748517678"><ele>382.0</ele><time>2026-04-18T11:22:02.999Z</time></trkpt><trkpt lat="43.24767086419626" lon="12.979970420774745"><ele>383.0</ele><time>2026-04-18T11:22:03.999Z</time></trkpt><trkpt lat="43.24767341925437" lon="12.980201291504883"><ele>384.0</ele><time>2026-04-18T11:22:04.999Z</time></trkpt><trkpt lat="43.24766567999704" lon="12.98040962102094"><ele>385.0</ele><time>2026-04-18T11:22:05.999Z</time></trkpt><trkpt lat="43.247636464131425" lon="12.980604055362058"><ele>385.0</ele><time>2026-04-18T11:22:06.999Z</time></trkpt><trkpt lat="43.2475856033423" lon="12.980756375027967"><ele>385.0</ele><time>2026-04-18T11:22:07.999Z</time></trkpt><trkpt lat="43.247517214928116" lon="12.98091104104331"><ele>385.0</ele><time>2026-04-18T11:22:08.999Z</time></trkpt><trkpt lat="43.24745155685661" lon="12.98106586893672"><ele>385.0</ele><time>2026-04-18T11:22:09.999Z</time></trkpt><trkpt lat="43.247389273138005" lon="12.98122711166067"><ele>385.25</ele><time>2026-04-18T11:22:10.999Z</time></trkpt><trkpt lat="43.24734777204502" lon="12.981415036386252"><ele>385.5</ele><time>2026-04-18T11:22:11.999Z</time></trkpt><trkpt lat="43.24735292760665" lon="12.981612378958125"><ele>385.75</ele><time>2026-04-18T11:22:12.999Z</time></trkpt><trkpt lat="43.247338999183015" lon="12.98181031831129"><ele>386.0</ele><time>2026-04-18T11:22:13.999Z</time></trkpt><trkpt lat="43.2473505317712" lon="12.982043519363058"><ele>385.0</ele><time>2026-04-18T11:22:14.999Z</time></trkpt><trkpt lat="43.24738076771088" lon="12.98228970808646"><ele>384.0</ele><time>2026-04-18T11:22:15.999Z</time></trkpt><trkpt lat="43.24741963867963" lon="12.98253853667022"><ele>383.0</ele><time>2026-04-18T11:22:16.999Z</time></trkpt><trkpt lat="43.24740970570118" lon="12.982782571587165"><ele>382.6666666666667</ele><time>2026-04-18T11:22:17.999Z</time></trkpt><trkpt lat="43.24738371222817" lon="12.983023746152261"><ele>382.3333333333333</ele><time>2026-04-18T11:22:18.999Z</time></trkpt><trkpt lat="43.247343164063665" lon="12.98326490187414"><ele>382.0</ele><time>2026-04-18T11:22:19.999Z</time></trkpt><trkpt lat="43.24729798270398" lon="12.983503637440233"><ele>380.0</ele><time>2026-04-18T11:22:20.999Z</time></trkpt><trkpt lat="43.2472483320588" lon="12.98372712117115"><ele>378.0</ele><time>2026-04-18T11:22:21.999Z</time></trkpt><trkpt lat="43.247188191889535" lon="12.983947830552905"><ele>376.0</ele><time>2026-04-18T11:22:22.999Z</time></trkpt><trkpt lat="43.247119480383" lon="12.98413616020251"><ele>376.3333333333333</ele><time>2026-04-18T11:22:23.999Z</time></trkpt><trkpt lat="43.24704260033121" lon="12.984313787286727"><ele>376.6666666666667</ele><time>2026-04-18T11:22:24.999Z</time></trkpt><trkpt lat="43.2469525763181" lon="12.984509819600762"><ele>377.0</ele><time>2026-04-18T11:22:25.999Z</time></trkpt><trkpt lat="43.24686702348855" lon="12.984689318377526"><ele>377.0</ele><time>2026-04-18T11:22:26.999Z</time></trkpt><trkpt lat="43.246777655857784" lon="12.984872925251231"><ele>377.0</ele><time>2026-04-18T11:22:27.999Z</time></trkpt><trkpt lat="43.246714321070826" lon="12.985029766726974"><ele>377.0</ele><time>2026-04-18T11:22:28.999Z</time></trkpt><trkpt lat="43.24665701091392" lon="12.985237984983645"><ele>376.75</ele><time>2026-04-18T11:22:29.999Z</time></trkpt><trkpt lat="43.24662610455362" lon="12.98541877702059"><ele>376.5</ele><time>2026-04-18T11:22:30.999Z</time></trkpt><trkpt lat="43.246622897536284" lon="12.985602037068585"><ele>376.25</ele><time>2026-04-18T11:22:31.999Z</time></trkpt><trkpt lat="43.24664600425651" lon="12.985796823823838"><ele>376.0</ele><time>2026-04-18T11:22:32.999Z</time></trkpt><trkpt lat="43.24665677123977" lon="12.986008902072893"><ele>375.66666666666663</ele><time>2026-04-18T11:22:33.999Z</time></trkpt><trkpt lat="43.24665521292416" lon="12.986240867093402"><ele>375.3333333333333</ele><time>2026-04-18T11:22:34.999Z</time></trkpt><trkpt lat="43.2466649397577" lon="12.986475020715263"><ele>375.0</ele><time>2026-04-18T11:22:35.999Z</time></trkpt><trkpt lat="43.24667431192651" lon="12.986739104835344"><ele>375.0</ele><time>2026-04-18T11:22:36.999Z</time></trkpt><trkpt lat="43.24668263170751" lon="12.986995814655428"><ele>375.0</ele><time>2026-04-18T11:22:37.999Z</time></trkpt><trkpt lat="43.246701978813526" lon="12.987265648646126"><ele>375.0</ele><time>2026-04-18T11:22:38.999Z</time></trkpt><trkpt lat="43.24670204673159" lon="12.987529169661265"><ele>376.3333333333333</ele><time>2026-04-18T11:22:39.999Z</time></trkpt><trkpt lat="43.24670868825588" lon="12.987765103747702"><ele>377.66666666666663</ele><time>2026-04-18T11:22:40.999Z</time></trkpt><trkpt lat="43.24670823818739" lon="12.987957713386075"><ele>379.0</ele><time>2026-04-18T11:22:41.999Z</time></trkpt><trkpt lat="43.246724541442774" lon="12.988147694161693"><ele>379.0</ele><time>2026-04-18T11:22:42.999Z</time></trkpt><trkpt lat="43.246710768814225" lon="12.988311209611973"><ele>379.0</ele><time>2026-04-18T11:22:43.999Z</time></trkpt><trkpt lat="43.246659067783995" lon="12.988482753361575"><ele>379.0</ele><time>2026-04-18T11:22:44.999Z</time></trkpt><trkpt lat="43.24659103844341" lon="12.98862253282234"><ele>379.0</ele><time>2026-04-18T11:22:45.999Z</time></trkpt><trkpt lat="43.246506354175956" lon="12.988732639563366"><ele>379.75</ele><time>2026-04-18T11:22:46.999Z</time></trkpt><trkpt lat="43.24640716011331" lon="12.988829882015295"><ele>380.5</ele><time>2026-04-18T11:22:47.999Z</time></trkpt><trkpt lat="43.24629531324028" lon="12.988922479526376"><ele>381.25</ele><time>2026-04-18T11:22:48.999Z</time></trkpt><trkpt lat="43.24615891711522" lon="12.989024736666716"><ele>382.0</ele><time>2026-04-18T11:22:49.999Z</time></trkpt><trkpt lat="43.2460237225527" lon="12.989128145075853"><ele>382.5</ele><time>2026-04-18T11:22:50.999Z</time></trkpt><trkpt lat="43.2458887801565" lon="12.989231247613375"><ele>383.0</ele><time>2026-04-18T11:22:51.999Z</time></trkpt><trkpt lat="43.24578378950998" lon="12.989314346906035"><ele>383.5</ele><time>2026-04-18T11:22:52.999Z</time></trkpt><trkpt lat="43.24568443717281" lon="12.989418234501814"><ele>384.0</ele><time>2026-04-18T11:22:53.999Z</time></trkpt><trkpt lat="43.24557768128011" lon="12.989506928820335"><ele>384.0</ele><time>2026-04-18T11:22:54.999Z</time></trkpt><trkpt lat="43.245472072469184" lon="12.989588264182132"><ele>384.0</ele><time>2026-04-18T11:22:55.999Z</time></trkpt><trkpt lat="43.24536630905753" lon="12.989656099702325"><ele>384.0</ele><time>2026-04-18T11:22:56.999Z</time></trkpt><trkpt lat="43.245292307605276" lon="12.989740352294957"><ele>384.0</ele><time>2026-04-18T11:22:57.999Z</time></trkpt><trkpt lat="43.24521150522144" lon="12.989786452520422"><ele>384.0</ele><time>2026-04-18T11:22:58.999Z</time></trkpt><trkpt lat="43.245141605209206" lon="12.989747064243142"><ele>384.0</ele><time>2026-04-18T11:22:59.999Z</time></trkpt><trkpt lat="43.2450690816571" lon="12.989701539337156"><ele>384.0</ele><time>2026-04-18T11:23:00.999Z</time></trkpt><trkpt lat="43.244970209312584" lon="12.989707951244057"><ele>384.0</ele><time>2026-04-18T11:23:01.999Z</time></trkpt><trkpt lat="43.24489186464181" lon="12.98979685227856"><ele>384.0</ele><time>2026-04-18T11:23:02.999Z</time></trkpt><trkpt lat="43.24481445874419" lon="12.989894717112993"><ele>384.0</ele><time>2026-04-18T11:23:03.999Z</time></trkpt><trkpt lat="43.24475972959027" lon="12.989981519446731"><ele>383.25</ele><time>2026-04-18T11:23:04.999Z</time></trkpt><trkpt lat="43.244723482473724" lon="12.990114605247609"><ele>382.5</ele><time>2026-04-18T11:23:05.999Z</time></trkpt><trkpt lat="43.244626559823004" lon="12.990237180086694"><ele>381.75</ele><time>2026-04-18T11:23:06.999Z</time></trkpt><trkpt lat="43.24452394121207" lon="12.99029551607949"><ele>381.0</ele><time>2026-04-18T11:23:07.999Z</time></trkpt><trkpt lat="43.24439802497654" lon="12.990384316519112"><ele>381.0</ele><time>2026-04-18T11:23:08.999Z</time></trkpt><trkpt lat="43.244262047737685" lon="12.990491170534353"><ele>381.0</ele><time>2026-04-18T11:23:09.999Z</time></trkpt><trkpt lat="43.24411669116746" lon="12.99060385081199"><ele>381.0</ele><time>2026-04-18T11:23:10.999Z</time></trkpt><trkpt lat="43.24396622967573" lon="12.99072048763631"><ele>381.6666666666667</ele><time>2026-04-18T11:23:11.999Z</time></trkpt><trkpt lat="43.243808655863475" lon="12.99084263906077"><ele>382.33333333333337</ele><time>2026-04-18T11:23:12.999Z</time></trkpt><trkpt lat="43.24362868925601" lon="12.99098290787289"><ele>383.0</ele><time>2026-04-18T11:23:13.999Z</time></trkpt><trkpt lat="43.24346258820735" lon="12.991115199737619"><ele>383.0</ele><time>2026-04-18T11:23:14.999Z</time></trkpt><trkpt lat="43.24330033108244" lon="12.991244431436039"><ele>383.0</ele><time>2026-04-18T11:23:15.999Z</time></trkpt><trkpt lat="43.24313908886092" lon="12.99137708649327"><ele>383.0</ele><time>2026-04-18T11:23:16.999Z</time></trkpt><trkpt lat="43.24298475353527" lon="12.991492945500147"><ele>384.0</ele><time>2026-04-18T11:23:17.999Z</time></trkpt><trkpt lat="43.242831872496154" lon="12.991611088989378"><ele>385.0</ele><time>2026-04-18T11:23:18.999Z</time></trkpt><trkpt lat="43.24266900558571" lon="12.99173712861406"><ele>386.0</ele><time>2026-04-18T11:23:19.999Z</time></trkpt><trkpt lat="43.24250934459628" lon="12.991861246183252"><ele>386.0</ele><time>2026-04-18T11:23:20.999Z</time></trkpt><trkpt lat="43.2423487682054" lon="12.99198607519644"><ele>386.0</ele><time>2026-04-18T11:23:21.999Z</time></trkpt><trkpt lat="43.24220953478526" lon="12.992095057022436"><ele>386.0</ele><time>2026-04-18T11:23:22.999Z</time></trkpt><trkpt lat="43.24208724222247" lon="12.992193518123587"><ele>386.0</ele><time>2026-04-18T11:23:23.999Z</time></trkpt><trkpt lat="43.24197484159023" lon="12.992288426954627"><ele>386.0</ele><time>2026-04-18T11:23:24.999Z</time></trkpt><trkpt lat="43.241850329498874" lon="12.992401229861924"><ele>386.0</ele><time>2026-04-18T11:23:25.999Z</time></trkpt><trkpt lat="43.24174707484098" lon="12.992510338023067"><ele>386.0</ele><time>2026-04-18T11:23:26.999Z</time></trkpt><trkpt lat="43.2416516700057" lon="12.992590134920542"><ele>386.8</ele><time>2026-04-18T11:23:27.999Z</time></trkpt><trkpt lat="43.24155921697057" lon="12.992692375261349"><ele>387.6</ele><time>2026-04-18T11:23:28.999Z</time></trkpt><trkpt lat="43.241525658297356" lon="12.992820625205102"><ele>388.4</ele><time>2026-04-18T11:23:29.999Z</time></trkpt><trkpt lat="43.24150088515607" lon="12.992907478941715"><ele>389.2</ele><time>2026-04-18T11:23:30.999Z</time></trkpt><trkpt lat="43.24148950278255" lon="12.993024835701513"><ele>390.0</ele><time>2026-04-18T11:23:31.999Z</time></trkpt><trkpt lat="43.24151542383379" lon="12.993145466228304"><ele>390.0</ele><time>2026-04-18T11:23:32.999Z</time></trkpt><trkpt lat="43.24157247677076" lon="12.993272680476506"><ele>390.0</ele><time>2026-04-18T11:23:33.999Z</time></trkpt><trkpt lat="43.24166135430651" lon="12.993393933919641"><ele>390.0</ele><time>2026-04-18T11:23:34.999Z</time></trkpt><trkpt lat="43.24177165646424" lon="12.993510227460217"><ele>390.0</ele><time>2026-04-18T11:23:35.999Z</time></trkpt><trkpt lat="43.241896480893075" lon="12.99358195770196"><ele>388.5</ele><time>2026-04-18T11:23:36.999Z</time></trkpt><trkpt lat="43.24201828302251" lon="12.993629927547405"><ele>387.0</ele><time>2026-04-18T11:23:37.999Z</time></trkpt><trkpt lat="43.24212448301056" lon="12.993711188597233"><ele>385.5</ele><time>2026-04-18T11:23:38.999Z</time></trkpt><trkpt lat="43.24222369912279" lon="12.993805284592108"><ele>384.0</ele><time>2026-04-18T11:23:39.999Z</time></trkpt><trkpt lat="43.24230341150674" lon="12.993915561862458"><ele>384.0</ele><time>2026-04-18T11:23:40.999Z</time></trkpt><trkpt lat="43.24241031048367" lon="12.994035705892912"><ele>384.0</ele><time>2026-04-18T11:23:41.999Z</time></trkpt><trkpt lat="43.24253604594446" lon="12.994192493868368"><ele>384.0</ele><time>2026-04-18T11:23:42.999Z</time></trkpt><trkpt lat="43.242650575328405" lon="12.99436521365452"><ele>384.0</ele><time>2026-04-18T11:23:43.999Z</time></trkpt><trkpt lat="43.24274955145617" lon="12.994573189203619"><ele>384.0</ele><time>2026-04-18T11:23:45Z</time></trkpt><trkpt lat="43.24284385760958" lon="12.99475244926363"><ele>384.0</ele><time>2026-04-18T11:23:46Z</time></trkpt><trkpt lat="43.2429296076875" lon="12.994915970869368"><ele>383.0</ele><time>2026-04-18T11:23:47Z</time></trkpt><trkpt lat="43.24300752721822" lon="12.995081149425179"><ele>382.0</ele><time>2026-04-18T11:23:48Z</time></trkpt><trkpt lat="43.243089899444946" lon="12.995267805715939"><ele>381.0</ele><time>2026-04-18T11:23:49Z</time></trkpt><trkpt lat="43.24315797843303" lon="12.995414252970972"><ele>380.0</ele><time>2026-04-18T11:23:50Z</time></trkpt><trkpt lat="43.24323460693715" lon="12.995614108730269"><ele>379.5</ele><time>2026-04-18T11:23:51Z</time></trkpt><trkpt lat="43.24331204805653" lon="12.995792360006304"><ele>379.0</ele><time>2026-04-18T11:23:52Z</time></trkpt><trkpt lat="43.24338646268419" lon="12.995963171909118"><ele>378.5</ele><time>2026-04-18T11:23:53Z</time></trkpt><trkpt lat="43.24346472414195" lon="12.996139386566401"><ele>378.0</ele><time>2026-04-18T11:23:54Z</time></trkpt><trkpt lat="43.243549333002846" lon="12.996329892963246"><ele>377.6666666666667</ele><time>2026-04-18T11:23:55Z</time></trkpt><trkpt lat="43.24363992372556" lon="12.996520409660581"><ele>377.33333333333337</ele><time>2026-04-18T11:23:56Z</time></trkpt><trkpt lat="43.24373857451459" lon="12.996722977941232"><ele>377.0</ele><time>2026-04-18T11:23:57Z</time></trkpt><trkpt lat="43.243809413317265" lon="12.996916790806928"><ele>376.5</ele><time>2026-04-18T11:23:58Z</time></trkpt><trkpt lat="43.24388240938362" lon="12.997082622315402"><ele>376.0</ele><time>2026-04-18T11:23:59Z</time></trkpt><trkpt lat="43.24395880518609" lon="12.997255482547294"><ele>375.5</ele><time>2026-04-18T11:24:00Z</time></trkpt><trkpt lat="43.24403848202975" lon="12.997435740517226"><ele>375.0</ele><time>2026-04-18T11:24:01Z</time></trkpt><trkpt lat="43.244121619121394" lon="12.997623826854499"><ele>374.3333333333333</ele><time>2026-04-18T11:24:02Z</time></trkpt><trkpt lat="43.24420867497215" lon="12.99782077876852"><ele>373.66666666666663</ele><time>2026-04-18T11:24:03Z</time></trkpt><trkpt lat="43.244288630592784" lon="12.99800318108289"><ele>373.0</ele><time>2026-04-18T11:24:04Z</time></trkpt><trkpt lat="43.24436468270011" lon="12.998178336768133"><ele>372.75</ele><time>2026-04-18T11:24:05Z</time></trkpt><trkpt lat="43.24444309766337" lon="12.998358934156688"><ele>372.5</ele><time>2026-04-18T11:24:06Z</time></trkpt><trkpt lat="43.244514916494055" lon="12.99852434023223"><ele>372.25</ele><time>2026-04-18T11:24:07Z</time></trkpt><trkpt lat="43.24458588077511" lon="12.998687778073066"><ele>372.0</ele><time>2026-04-18T11:24:08Z</time></trkpt><trkpt lat="43.24464829376624" lon="12.998830876338827"><ele>372.0</ele><time>2026-04-18T11:24:09Z</time></trkpt><trkpt lat="43.24470046096673" lon="12.998948185651928"><ele>372.0</ele><time>2026-04-18T11:24:10Z</time></trkpt><trkpt lat="43.244751771523404" lon="12.999063568533343"><ele>372.0</ele><time>2026-04-18T11:24:11Z</time></trkpt><trkpt lat="43.24481158298387" lon="12.999197091188211"><ele>372.0</ele><time>2026-04-18T11:24:12Z</time></trkpt><trkpt lat="43.24485800416073" lon="12.999298610216604"><ele>372.0</ele><time>2026-04-18T11:24:13Z</time></trkpt><trkpt lat="43.24483646006321" lon="12.999432839761292"><ele>372.1666666666667</ele><time>2026-04-18T11:24:15Z</time></trkpt><trkpt lat="43.24491535847428" lon="12.999496507253145"><ele>372.3333333333333</ele><time>2026-04-18T11:24:16Z</time></trkpt><trkpt lat="43.2449247496232" lon="12.999584393164877"><ele>372.5</ele><time>2026-04-18T11:24:17Z</time></trkpt><trkpt lat="43.2449590221303" lon="12.999676243643236"><ele>372.66666666666663</ele><time>2026-04-18T11:24:18Z</time></trkpt><trkpt lat="43.24499940990893" lon="12.999780855786685"><ele>372.8333333333333</ele><time>2026-04-18T11:24:19Z</time></trkpt><trkpt lat="43.24505198826514" lon="12.99983362140277"><ele>373.0</ele><time>2026-04-18T11:24:20Z</time></trkpt><trkpt lat="43.24510826963791" lon="12.999899389729192"><ele>373.0</ele><time>2026-04-18T11:24:21Z</time></trkpt><trkpt lat="43.24514010940178" lon="12.9999952685908"><ele>373.0</ele><time>2026-04-18T11:24:22Z</time></trkpt><trkpt lat="43.24517366258289" lon="13.000084612690873"><ele>373.0</ele><time>2026-04-18T11:24:23Z</time></trkpt><trkpt lat="43.24523989993183" lon="13.000150992402439"><ele>373.0</ele><time>2026-04-18T11:24:24Z</time></trkpt><trkpt lat="43.24529375948418" lon="13.00023176960126"><ele>373.0</ele><time>2026-04-18T11:24:25Z</time></trkpt><trkpt lat="43.24531517686706" lon="13.000355173885552"><ele>373.0</ele><time>2026-04-18T11:24:26Z</time></trkpt><trkpt lat="43.24535266777882" lon="13.00028285244989"><ele>373.0</ele><time>2026-04-18T11:24:28Z</time></trkpt><trkpt lat="43.2454197032598" lon="13.000202961118877"><ele>373.0</ele><time>2026-04-18T11:24:29Z</time></trkpt><trkpt lat="43.24549920570007" lon="13.000108212128447"><ele>373.0</ele><time>2026-04-18T11:24:30Z</time></trkpt><trkpt lat="43.24557602596586" lon="13.000016659580762"><ele>373.0</ele><time>2026-04-18T11:24:31Z</time></trkpt><trkpt lat="43.24563486326276" lon="12.999946538758666"><ele>373.0</ele><time>2026-04-18T11:24:32Z</time></trkpt><trkpt lat="43.24572635881816" lon="12.999838035027068"><ele>372.79999999999995</ele><time>2026-04-18T11:24:33Z</time></trkpt><trkpt lat="43.24578617509141" lon="12.999740564528162"><ele>372.6</ele><time>2026-04-18T11:24:34Z</time></trkpt><trkpt lat="43.24583929376861" lon="12.999661287662471"><ele>372.4</ele><time>2026-04-18T11:24:35Z</time></trkpt><trkpt lat="43.245907825585185" lon="12.999607374164517"><ele>372.20000000000005</ele><time>2026-04-18T11:24:36Z</time></trkpt><trkpt lat="43.246021136002966" lon="12.999699938723449"><ele>372.0</ele><time>2026-04-18T11:24:39Z</time></trkpt><trkpt lat="43.24606982737615" lon="12.999808800999949"><ele>372.0</ele><time>2026-04-18T11:24:41Z</time></trkpt><trkpt lat="43.24612141432205" lon="12.999928104285093"><ele>372.0</ele><time>2026-04-18T11:24:43Z</time></trkpt><trkpt lat="43.24617023651018" lon="13.000000067987147"><ele>372.0</ele><time>2026-04-18T11:24:45Z</time></trkpt><trkpt lat="43.246239473668865" lon="13.000019774351683"><ele>372.0</ele><time>2026-04-18T11:24:49Z</time></trkpt><trkpt lat="43.246230526835234" lon="13.000132237200434"><ele>372.0</ele><time>2026-04-18T11:25:37Z</time></trkpt><trkpt lat="43.24619427985722" lon="13.000204030090543"><ele>372.0</ele><time>2026-04-18T11:25:39Z</time></trkpt><trkpt lat="43.24613793453041" lon="13.000283886283432"><ele>372.0</ele><time>2026-04-18T11:25:41Z</time></trkpt><trkpt lat="43.24607074748379" lon="13.000356904799784"><ele>372.0</ele><time>2026-04-18T11:25:43Z</time></trkpt><trkpt lat="43.24599607584118" lon="13.000415509133365"><ele>372.0</ele><time>2026-04-18T11:25:45Z</time></trkpt><trkpt lat="43.24593375495165" lon="13.000488724447987"><ele>372.0</ele><time>2026-04-18T11:25:48Z</time></trkpt><trkpt lat="43.245871561774045" lon="13.00057647409062"><ele>372.0</ele><time>2026-04-18T11:25:51Z</time></trkpt><trkpt lat="43.24611409588712" lon="13.000387158921825"><ele>372.0</ele><time>2026-04-18T11:26:22.533Z</time></trkpt><trkpt lat="43.245575430724834" lon="13.001591474169134"><ele>372.0</ele><time>2026-04-18T11:26:28Z</time></trkpt><trkpt lat="43.24575918243742" lon="13.00107759454567"><ele>371.0</ele><time>2026-04-18T11:26:29Z</time></trkpt></trkseg></trk></gpx>